<?xml version='1.0' encoding='UTF-8'?><gpx version="1.1" creator="JPX - https://github.com/jenetics/jpx" xmlns="http://www.topografix.com/GPX/1/1"><trk><trkseg><trkpt lat="44.427650329664225" lon="8.923868026810702"><ele>179.0</ele><time>2026-04-24T14:06:43.996Z</time></trkpt><trkpt lat="44.427565429044336" lon="8.923964382140987"><ele>179.0</ele><time>2026-04-24T14:06:45.997Z</time></trkpt><trkpt lat="44.42761386002444" lon="8.923875811556156"><ele>179.0</ele><time>2026-04-24T14:06:47.997Z</time></trkpt><trkpt lat="44.427728528369876" lon="8.923975146095795"><ele>179.0</ele><time>2026-04-24T14:07:48.001Z</time></trkpt><trkpt lat="44.42779832124866" lon="8.924081573145825"><ele>179.0</ele><time>2026-04-24T14:07:50.001Z</time></trkpt><trkpt lat="44.42781384548324" lon="8.924195690361"><ele>181.2</ele><time>2026-04-24T14:07:52.001Z</time></trkpt><trkpt lat="44.4277766493198" lon="8.924295424130225"><ele>183.39999999999998</ele><time>2026-04-24T14:07:54.001Z</time></trkpt><trkpt lat="44.42770475213535" lon="8.924377759276265"><ele>185.6</ele><time>2026-04-24T14:07:57.001Z</time></trkpt><trkpt lat="44.427642646320436" lon="8.924350184547833"><ele>187.8</ele><time>2026-04-24T14:07:59.001Z</time></trkpt><trkpt lat="44.42757576212125" lon="8.924376645710518"><ele>190.0</ele><time>2026-04-24T14:08:04.014Z</time></trkpt><trkpt lat="44.42741944883994" lon="8.924286100959751"><ele>175.0</ele><time>2026-04-24T14:08:20.022Z</time></trkpt><trkpt lat="44.427091725971465" lon="8.923787249064352"><ele>175.0</ele><time>2026-04-24T14:08:21.014Z</time></trkpt><trkpt lat="44.42698991657504" lon="8.923639003946228"><ele>175.0</ele><time>2026-04-24T14:08:22.002Z</time></trkpt><trkpt lat="44.42691991773562" lon="8.923562480330013"><ele>175.0</ele><time>2026-04-24T14:08:30.002Z</time></trkpt><trkpt lat="44.42700927752775" lon="8.92376875129327"><ele>175.0</ele><time>2026-04-24T14:08:38Z</time></trkpt><trkpt lat="44.426867353177315" lon="8.923867193146485"><ele>175.0</ele><time>2026-04-24T14:08:44Z</time></trkpt><trkpt lat="44.42678607210736" lon="8.923824566616224"><ele>175.0</ele><time>2026-04-24T14:08:46Z</time></trkpt><trkpt lat="44.426678616180396" lon="8.923777035096396"><ele>175.0</ele><time>2026-04-24T14:08:48Z</time></trkpt><trkpt lat="44.42661370365086" lon="8.92372704926735"><ele>175.0</ele><time>2026-04-24T14:08:49Z</time></trkpt><trkpt lat="44.4265514182609" lon="8.923713849889882"><ele>175.0</ele><time>2026-04-24T14:08:50Z</time></trkpt><trkpt lat="44.42650617649075" lon="8.923641328390556"><ele>175.0</ele><time>2026-04-24T14:08:51Z</time></trkpt><trkpt lat="44.42648240873214" lon="8.923512601747648"><ele>175.0</ele><time>2026-04-24T14:08:52Z</time></trkpt><trkpt lat="44.42639847108104" lon="8.923435684069968"><ele>175.0</ele><time>2026-04-24T14:08:54Z</time></trkpt><trkpt lat="44.42633859507436" lon="8.923328987961547"><ele>175.0</ele><time>2026-04-24T14:08:56Z</time></trkpt><trkpt lat="44.42632171877879" lon="8.923212797217403"><ele>175.0</ele><time>2026-04-24T14:08:57Z</time></trkpt><trkpt lat="44.426294329241976" lon="8.92309238218784"><ele>175.0</ele><time>2026-04-24T14:08:58Z</time></trkpt><trkpt lat="44.42627109952364" lon="8.922989050693696"><ele>175.0</ele><time>2026-04-24T14:08:59Z</time></trkpt><trkpt lat="44.426227117964714" lon="8.922906110678644"><ele>171.16666666666669</ele><time>2026-04-24T14:09:00Z</time></trkpt><trkpt lat="44.42619756329217" lon="8.922827501993734"><ele>167.33333333333334</ele><time>2026-04-24T14:09:01Z</time></trkpt><trkpt lat="44.426148837883005" lon="8.922747604018467"><ele>163.5</ele><time>2026-04-24T14:09:02Z</time></trkpt><trkpt lat="44.42612663182251" lon="8.922633510149836"><ele>159.66666666666666</ele><time>2026-04-24T14:09:03Z</time></trkpt><trkpt lat="44.42606480421456" lon="8.922548854804527"><ele>155.83333333333331</ele><time>2026-04-24T14:09:04Z</time></trkpt><trkpt lat="44.42600968432248" lon="8.922476442681504"><ele>152.0</ele><time>2026-04-24T14:09:05Z</time></trkpt><trkpt lat="44.42595869270535" lon="8.922409993013726"><ele>150.0</ele><time>2026-04-24T14:09:06Z</time></trkpt><trkpt lat="44.42590860768265" lon="8.92234003916003"><ele>148.0</ele><time>2026-04-24T14:09:07Z</time></trkpt><trkpt lat="44.42585516516468" lon="8.922259293295102"><ele>146.0</ele><time>2026-04-24T14:09:08Z</time></trkpt><trkpt lat="44.42580624486259" lon="8.92217756092554"><ele>144.0</ele><time>2026-04-24T14:09:09Z</time></trkpt><trkpt lat="44.425759212987614" lon="8.922097857744035"><ele>142.0</ele><time>2026-04-24T14:09:10Z</time></trkpt><trkpt lat="44.42570944228539" lon="8.922014658467653"><ele>140.0</ele><time>2026-04-24T14:09:11Z</time></trkpt><trkpt lat="44.425617751624415" lon="8.921903676551397"><ele>140.0</ele><time>2026-04-24T14:09:13Z</time></trkpt><trkpt lat="44.42554378805799" lon="8.921807102365126"><ele>140.0</ele><time>2026-04-24T14:09:15.001Z</time></trkpt><trkpt lat="44.425473222385286" lon="8.92177060728724"><ele>140.0</ele><time>2026-04-24T14:09:18.001Z</time></trkpt><trkpt lat="44.42549872301507" lon="8.921907163181674"><ele>140.0</ele><time>2026-04-24T14:09:23.001Z</time></trkpt><trkpt lat="44.42553796055771" lon="8.922004855730712"><ele>140.0</ele><time>2026-04-24T14:09:25.001Z</time></trkpt><trkpt lat="44.42559213319492" lon="8.922057306366368"><ele>140.0</ele><time>2026-04-24T14:09:26.001Z</time></trkpt><trkpt lat="44.4256406102642" lon="8.922122681705225"><ele>140.0</ele><time>2026-04-24T14:09:27.001Z</time></trkpt><trkpt lat="44.42569585918813" lon="8.92216862829403"><ele>140.0</ele><time>2026-04-24T14:09:28.001Z</time></trkpt><trkpt lat="44.42576453929411" lon="8.922280121317934"><ele>140.0</ele><time>2026-04-24T14:09:30.001Z</time></trkpt><trkpt lat="44.425790643664904" lon="8.92237460312938"><ele>140.0</ele><time>2026-04-24T14:09:31.001Z</time></trkpt><trkpt lat="44.425894251496594" lon="8.922474055418538"><ele>140.0</ele><time>2026-04-24T14:09:33.001Z</time></trkpt><trkpt lat="44.42594823379249" lon="8.922555573754996"><ele>140.0</ele><time>2026-04-24T14:09:34.001Z</time></trkpt><trkpt lat="44.42599180467205" lon="8.922633619334768"><ele>142.4</ele><time>2026-04-24T14:09:35.001Z</time></trkpt><trkpt lat="44.426023351101186" lon="8.922757503268965"><ele>144.8</ele><time>2026-04-24T14:09:37.001Z</time></trkpt><trkpt lat="44.425986346752495" lon="8.922853499405024"><ele>147.2</ele><time>2026-04-24T14:09:39.001Z</time></trkpt><trkpt lat="44.42588259647981" lon="8.922886903577968"><ele>149.6</ele><time>2026-04-24T14:09:41.001Z</time></trkpt><trkpt lat="44.4258063875894" lon="8.922777288096091"><ele>152.0</ele><time>2026-04-24T14:09:43.001Z</time></trkpt><trkpt lat="44.42573857737108" lon="8.922689141518573"><ele>152.0</ele><time>2026-04-24T14:09:44.001Z</time></trkpt><trkpt lat="44.425671866147646" lon="8.922628593152163"><ele>152.0</ele><time>2026-04-24T14:09:45.001Z</time></trkpt><trkpt lat="44.42562219879485" lon="8.92255443096723"><ele>152.0</ele><time>2026-04-24T14:09:46.001Z</time></trkpt><trkpt lat="44.425568446366086" lon="8.922476387684933"><ele>152.0</ele><time>2026-04-24T14:09:47.001Z</time></trkpt><trkpt lat="44.425512601389855" lon="8.922385550491118"><ele>152.0</ele><time>2026-04-24T14:09:48.001Z</time></trkpt><trkpt lat="44.42545445293455" lon="8.922311996273088"><ele>152.0</ele><time>2026-04-24T14:09:49.001Z</time></trkpt><trkpt lat="44.425399265036376" lon="8.922242186926962"><ele>151.4</ele><time>2026-04-24T14:09:50.001Z</time></trkpt><trkpt lat="44.42534381306288" lon="8.922173932776257"><ele>150.79999999999998</ele><time>2026-04-24T14:09:51.001Z</time></trkpt><trkpt lat="44.425272489819534" lon="8.922094507114073"><ele>150.2</ele><time>2026-04-24T14:09:53.001Z</time></trkpt><trkpt lat="44.42516893989089" lon="8.922042894823067"><ele>149.6</ele><time>2026-04-24T14:09:55.001Z</time></trkpt><trkpt lat="44.42508679633886" lon="8.921912679534454"><ele>149.0</ele><time>2026-04-24T14:09:57.001Z</time></trkpt><trkpt lat="44.425024636749676" lon="8.921808488623668"><ele>145.16666666666666</ele><time>2026-04-24T14:09:59.001Z</time></trkpt><trkpt lat="44.4249726829104" lon="8.921722162404087"><ele>141.33333333333331</ele><time>2026-04-24T14:10:01.001Z</time></trkpt><trkpt lat="44.424999757782096" lon="8.921569194188553"><ele>137.5</ele><time>2026-04-24T14:10:04.001Z</time></trkpt><trkpt lat="44.425045486671074" lon="8.92150473972259"><ele>133.66666666666666</ele><time>2026-04-24T14:10:05.001Z</time></trkpt><trkpt lat="44.4250842829816" lon="8.921424938813066"><ele>129.83333333333334</ele><time>2026-04-24T14:10:06.001Z</time></trkpt><trkpt lat="44.42511207780341" lon="8.921337604765062"><ele>126.0</ele><time>2026-04-24T14:10:07.001Z</time></trkpt><trkpt lat="44.42512000999903" lon="8.92124136003609"><ele>126.0</ele><time>2026-04-24T14:10:08.001Z</time></trkpt><trkpt lat="44.4251146008113" lon="8.921132176202962"><ele>126.0</ele><time>2026-04-24T14:10:09.001Z</time></trkpt><trkpt lat="44.42508929079969" lon="8.921002269629968"><ele>126.0</ele><time>2026-04-24T14:10:10.001Z</time></trkpt><trkpt lat="44.42506425562489" lon="8.920872360024433"><ele>126.0</ele><time>2026-04-24T14:10:11.001Z</time></trkpt><trkpt lat="44.42504108137422" lon="8.920740487279536"><ele>126.0</ele><time>2026-04-24T14:10:12.001Z</time></trkpt><trkpt lat="44.42502111536168" lon="8.920608227415306"><ele>125.5</ele><time>2026-04-24T14:10:13.001Z</time></trkpt><trkpt lat="44.425008016459515" lon="8.920465528040133"><ele>125.0</ele><time>2026-04-24T14:10:14.001Z</time></trkpt><trkpt lat="44.42498270958965" lon="8.920309674227019"><ele>124.5</ele><time>2026-04-24T14:10:15.002Z</time></trkpt><trkpt lat="44.4249405170172" lon="8.92014937498712"><ele>124.0</ele><time>2026-04-24T14:10:16.002Z</time></trkpt><trkpt lat="44.424931389483355" lon="8.919993509287702"><ele>124.0</ele><time>2026-04-24T14:10:17.002Z</time></trkpt><trkpt lat="44.424907649087935" lon="8.91984488679353"><ele>124.0</ele><time>2026-04-24T14:10:18.002Z</time></trkpt><trkpt lat="44.42488565538106" lon="8.919707199146105"><ele>124.0</ele><time>2026-04-24T14:10:19.002Z</time></trkpt><trkpt lat="44.42486418692908" lon="8.919572799696791"><ele>124.0</ele><time>2026-04-24T14:10:20.002Z</time></trkpt><trkpt lat="44.42484436734613" lon="8.919448784065912"><ele>124.0</ele><time>2026-04-24T14:10:21.002Z</time></trkpt><trkpt lat="44.42482216047682" lon="8.919310074112726"><ele>122.33333333333334</ele><time>2026-04-24T14:10:22.002Z</time></trkpt><trkpt lat="44.42479133387716" lon="8.919195490023053"><ele>120.66666666666667</ele><time>2026-04-24T14:10:23.002Z</time></trkpt><trkpt lat="44.42478905768692" lon="8.91907116294289"><ele>119.0</ele><time>2026-04-24T14:10:24.002Z</time></trkpt><trkpt lat="44.42477363594001" lon="8.91896349176256"><ele>117.33333333333334</ele><time>2026-04-24T14:10:25.002Z</time></trkpt><trkpt lat="44.42479405738373" lon="8.918857254813082"><ele>115.66666666666667</ele><time>2026-04-24T14:10:26.002Z</time></trkpt><trkpt lat="44.42481594943111" lon="8.918747404660095"><ele>114.0</ele><time>2026-04-24T14:10:27.002Z</time></trkpt><trkpt lat="44.42485302270545" lon="8.918662301988077"><ele>114.0</ele><time>2026-04-24T14:10:28.002Z</time></trkpt><trkpt lat="44.424898285685224" lon="8.918584810146443"><ele>114.0</ele><time>2026-04-24T14:10:29.002Z</time></trkpt><trkpt lat="44.42494414712569" lon="8.918518274506166"><ele>114.0</ele><time>2026-04-24T14:10:30.002Z</time></trkpt><trkpt lat="44.425003129077616" lon="8.918484536872802"><ele>114.0</ele><time>2026-04-24T14:10:31.002Z</time></trkpt><trkpt lat="44.425147160653275" lon="8.918431900477593"><ele>114.0</ele><time>2026-04-24T14:10:33.002Z</time></trkpt><trkpt lat="44.42525208175047" lon="8.91844508539546"><ele>114.0</ele><time>2026-04-24T14:10:34.002Z</time></trkpt><trkpt lat="44.42532897889835" lon="8.918469194672841"><ele>114.0</ele><time>2026-04-24T14:10:35.002Z</time></trkpt><trkpt lat="44.42540064865816" lon="8.918486237873744"><ele>114.0</ele><time>2026-04-24T14:10:36.002Z</time></trkpt><trkpt lat="44.42552190764927" lon="8.918480870539472"><ele>114.0</ele><time>2026-04-24T14:10:38.002Z</time></trkpt><trkpt lat="44.425616787742065" lon="8.918504239545166"><ele>114.0</ele><time>2026-04-24T14:10:40.002Z</time></trkpt><trkpt lat="44.42568706721997" lon="8.918269988987266"><ele>111.33333333333333</ele><time>2026-04-24T14:10:42.002Z</time></trkpt><trkpt lat="44.42571313132566" lon="8.918168622222277"><ele>108.66666666666666</ele><time>2026-04-24T14:10:43.001Z</time></trkpt><trkpt lat="44.42575117288319" lon="8.918044822901981"><ele>106.0</ele><time>2026-04-24T14:10:44.001Z</time></trkpt><trkpt lat="44.4257674799238" lon="8.917934345879372"><ele>103.33333333333333</ele><time>2026-04-24T14:10:45.001Z</time></trkpt><trkpt lat="44.425824695114834" lon="8.91783174245444"><ele>100.66666666666666</ele><time>2026-04-24T14:10:46.001Z</time></trkpt><trkpt lat="44.425849822724544" lon="8.917710362072123"><ele>98.0</ele><time>2026-04-24T14:10:47.001Z</time></trkpt><trkpt lat="44.42587619340244" lon="8.91758160730765"><ele>95.99999999999999</ele><time>2026-04-24T14:10:48.001Z</time></trkpt><trkpt lat="44.425902403599174" lon="8.917452586049427"><ele>94.0</ele><time>2026-04-24T14:10:49.001Z</time></trkpt><trkpt lat="44.4259297171226" lon="8.917328428095209"><ele>92.0</ele><time>2026-04-24T14:10:50.001Z</time></trkpt><trkpt lat="44.42595541223149" lon="8.917201933084227"><ele>90.0</ele><time>2026-04-24T14:10:51.001Z</time></trkpt><trkpt lat="44.425978205360764" lon="8.917095874034448"><ele>88.0</ele><time>2026-04-24T14:10:52.001Z</time></trkpt><trkpt lat="44.42599728774924" lon="8.9170026385783"><ele>86.0</ele><time>2026-04-24T14:10:53.001Z</time></trkpt><trkpt lat="44.4259986480116" lon="8.91685792926497"><ele>86.0</ele><time>2026-04-24T14:10:55.001Z</time></trkpt><trkpt lat="44.42592977689573" lon="8.91673754980411"><ele>86.0</ele><time>2026-04-24T14:10:57.001Z</time></trkpt><trkpt lat="44.42581004294147" lon="8.916634174441501"><ele>86.0</ele><time>2026-04-24T14:10:59.001Z</time></trkpt><trkpt lat="44.42574220013135" lon="8.916562233761892"><ele>86.0</ele><time>2026-04-24T14:11:00.001Z</time></trkpt><trkpt lat="44.42568709062918" lon="8.916472769947173"><ele>86.0</ele><time>2026-04-24T14:11:01.001Z</time></trkpt><trkpt lat="44.425627186544524" lon="8.916366395056313"><ele>87.0</ele><time>2026-04-24T14:11:02.001Z</time></trkpt><trkpt lat="44.42561347686839" lon="8.916237994886034"><ele>88.0</ele><time>2026-04-24T14:11:03.001Z</time></trkpt><trkpt lat="44.425602426307535" lon="8.916111822123382"><ele>89.0</ele><time>2026-04-24T14:11:04.001Z</time></trkpt><trkpt lat="44.42560586530149" lon="8.915974336120797"><ele>90.0</ele><time>2026-04-24T14:11:05.001Z</time></trkpt><trkpt lat="44.425615480725924" lon="8.915836559391954"><ele>91.0</ele><time>2026-04-24T14:11:06.001Z</time></trkpt><trkpt lat="44.425617168842734" lon="8.915705648612915"><ele>92.33333333333333</ele><time>2026-04-24T14:11:07.001Z</time></trkpt><trkpt lat="44.42560393835581" lon="8.91559493051915"><ele>93.66666666666666</ele><time>2026-04-24T14:11:08.001Z</time></trkpt><trkpt lat="44.42557680841576" lon="8.915484506298245"><ele>95.0</ele><time>2026-04-24T14:11:09.001Z</time></trkpt><trkpt lat="44.42553570739746" lon="8.915382896666461"><ele>96.33333333333333</ele><time>2026-04-24T14:11:10.001Z</time></trkpt><trkpt lat="44.42548549433484" lon="8.915298945813708"><ele>97.66666666666667</ele><time>2026-04-24T14:11:11.001Z</time></trkpt><trkpt lat="44.425420028019786" lon="8.915219567816155"><ele>99.0</ele><time>2026-04-24T14:11:12.001Z</time></trkpt><trkpt lat="44.42535040849127" lon="8.915159387573391"><ele>96.0</ele><time>2026-04-24T14:11:13.001Z</time></trkpt><trkpt lat="44.42527143154646" lon="8.915121557473475"><ele>93.0</ele><time>2026-04-24T14:11:14.001Z</time></trkpt><trkpt lat="44.4251935885015" lon="8.915100290804638"><ele>90.0</ele><time>2026-04-24T14:11:15.001Z</time></trkpt><trkpt lat="44.425119390421166" lon="8.91509909027447"><ele>87.0</ele><time>2026-04-24T14:11:16.001Z</time></trkpt><trkpt lat="44.425044855083215" lon="8.915115974872215"><ele>84.0</ele><time>2026-04-24T14:11:17.001Z</time></trkpt><trkpt lat="44.42496850406833" lon="8.915149853344413"><ele>81.0</ele><time>2026-04-24T14:11:18.001Z</time></trkpt><trkpt lat="44.424889344061086" lon="8.915203468913832"><ele>81.0</ele><time>2026-04-24T14:11:19.001Z</time></trkpt><trkpt lat="44.42481237420363" lon="8.915267346944587"><ele>81.0</ele><time>2026-04-24T14:11:20.001Z</time></trkpt><trkpt lat="44.42473086860275" lon="8.915343987640359"><ele>81.0</ele><time>2026-04-24T14:11:21.001Z</time></trkpt><trkpt lat="44.42464509149467" lon="8.915426683725446"><ele>81.0</ele><time>2026-04-24T14:11:22.001Z</time></trkpt><trkpt lat="44.42456505023922" lon="8.915505392715476"><ele>81.0</ele><time>2026-04-24T14:11:23.001Z</time></trkpt><trkpt lat="44.42448213153451" lon="8.915589018814654"><ele>80.33333333333333</ele><time>2026-04-24T14:11:24.001Z</time></trkpt><trkpt lat="44.4244162783528" lon="8.9156572334886"><ele>79.66666666666667</ele><time>2026-04-24T14:11:25.001Z</time></trkpt><trkpt lat="44.424363365872466" lon="8.915737031062324"><ele>79.0</ele><time>2026-04-24T14:11:26.001Z</time></trkpt><trkpt lat="44.42430462841293" lon="8.915838573363438"><ele>78.33333333333334</ele><time>2026-04-24T14:11:27.001Z</time></trkpt><trkpt lat="44.42424846433945" lon="8.915933504472614"><ele>77.66666666666667</ele><time>2026-04-24T14:11:28.001Z</time></trkpt><trkpt lat="44.42420451764423" lon="8.916007072254862"><ele>77.0</ele><time>2026-04-24T14:11:29.001Z</time></trkpt><trkpt lat="44.42411358803298" lon="8.916112050192476"><ele>77.0</ele><time>2026-04-24T14:11:31.001Z</time></trkpt><trkpt lat="44.42405129962053" lon="8.916152925234394"><ele>77.0</ele><time>2026-04-24T14:11:32.001Z</time></trkpt><trkpt lat="44.42398320535702" lon="8.916194368877864"><ele>77.0</ele><time>2026-04-24T14:11:33.001Z</time></trkpt><trkpt lat="44.423910479879886" lon="8.916239218747396"><ele>77.0</ele><time>2026-04-24T14:11:34.001Z</time></trkpt><trkpt lat="44.42383407954003" lon="8.916285497045791"><ele>77.0</ele><time>2026-04-24T14:11:35.001Z</time></trkpt><trkpt lat="44.42374712792607" lon="8.91629886704575"><ele>77.0</ele><time>2026-04-24T14:11:36.001Z</time></trkpt><trkpt lat="44.42366044316814" lon="8.916314799155394"><ele>81.2</ele><time>2026-04-24T14:11:37.001Z</time></trkpt><trkpt lat="44.423568718543734" lon="8.916326079465671"><ele>85.4</ele><time>2026-04-24T14:11:38.001Z</time></trkpt><trkpt lat="44.42346851815906" lon="8.916342613930764"><ele>89.60000000000001</ele><time>2026-04-24T14:11:39.001Z</time></trkpt><trkpt lat="44.42336026725584" lon="8.916364903049738"><ele>93.80000000000001</ele><time>2026-04-24T14:11:40.001Z</time></trkpt><trkpt lat="44.423266976822084" lon="8.916387051897804"><ele>98.0</ele><time>2026-04-24T14:11:41.001Z</time></trkpt><trkpt lat="44.42317800634892" lon="8.91642238357829"><ele>98.0</ele><time>2026-04-24T14:11:42.001Z</time></trkpt><trkpt lat="44.423084834161635" lon="8.916424232909154"><ele>98.0</ele><time>2026-04-24T14:11:43.001Z</time></trkpt><trkpt lat="44.4229864896415" lon="8.91643393387123"><ele>98.0</ele><time>2026-04-24T14:11:44.001Z</time></trkpt><trkpt lat="44.42289255627739" lon="8.916446626762971"><ele>98.0</ele><time>2026-04-24T14:11:45.001Z</time></trkpt><trkpt lat="44.42280646850974" lon="8.916463009678521"><ele>98.0</ele><time>2026-04-24T14:11:46.001Z</time></trkpt><trkpt lat="44.4227185763396" lon="8.916504578278447"><ele>99.0</ele><time>2026-04-24T14:11:47.001Z</time></trkpt><trkpt lat="44.42262355254846" lon="8.916497867798205"><ele>100.0</ele><time>2026-04-24T14:11:48.001Z</time></trkpt><trkpt lat="44.42252766642931" lon="8.916512818127703"><ele>101.0</ele><time>2026-04-24T14:11:49.001Z</time></trkpt><trkpt lat="44.42242681672493" lon="8.91652854237041"><ele>102.0</ele><time>2026-04-24T14:11:50.001Z</time></trkpt><trkpt lat="44.42234579089476" lon="8.916540604759396"><ele>103.0</ele><time>2026-04-24T14:11:51.001Z</time></trkpt><trkpt lat="44.422262217672404" lon="8.916557216816951"><ele>103.00000000000001</ele><time>2026-04-24T14:11:52.001Z</time></trkpt><trkpt lat="44.42217234582737" lon="8.916578616174267"><ele>103.0</ele><time>2026-04-24T14:11:53.001Z</time></trkpt><trkpt lat="44.42208288574246" lon="8.916593175807224"><ele>103.0</ele><time>2026-04-24T14:11:54.001Z</time></trkpt><trkpt lat="44.42199870897385" lon="8.916612654666917"><ele>103.0</ele><time>2026-04-24T14:11:55.001Z</time></trkpt><trkpt lat="44.42191308133673" lon="8.91662239833434"><ele>103.00000000000001</ele><time>2026-04-24T14:11:56.001Z</time></trkpt><trkpt lat="44.421823621388235" lon="8.916638144999071"><ele>103.0</ele><time>2026-04-24T14:11:57.001Z</time></trkpt><trkpt lat="44.42174474753987" lon="8.916648117861705"><ele>102.80000000000001</ele><time>2026-04-24T14:11:58.001Z</time></trkpt><trkpt lat="44.42166309201912" lon="8.916667586620324"><ele>102.6</ele><time>2026-04-24T14:11:59.001Z</time></trkpt><trkpt lat="44.42157996746801" lon="8.916681831095692"><ele>102.4</ele><time>2026-04-24T14:12:00.001Z</time></trkpt><trkpt lat="44.421483976422934" lon="8.916705068646477"><ele>102.19999999999999</ele><time>2026-04-24T14:12:01.001Z</time></trkpt><trkpt lat="44.42138938712172" lon="8.916728168685584"><ele>102.0</ele><time>2026-04-24T14:12:02.001Z</time></trkpt><trkpt lat="44.42129238678262" lon="8.916752672443327"><ele>96.0</ele><time>2026-04-24T14:12:03.001Z</time></trkpt><trkpt lat="44.421207684774885" lon="8.91674875932893"><ele>90.0</ele><time>2026-04-24T14:12:04.001Z</time></trkpt><trkpt lat="44.421108276798954" lon="8.91676167884497"><ele>84.0</ele><time>2026-04-24T14:12:05.001Z</time></trkpt><trkpt lat="44.42101391909544" lon="8.916783934610134"><ele>78.0</ele><time>2026-04-24T14:12:06.001Z</time></trkpt><trkpt lat="44.42092190070332" lon="8.916795607459175"><ele>72.0</ele><time>2026-04-24T14:12:07.001Z</time></trkpt><trkpt lat="44.42084341171829" lon="8.916799541875971"><ele>72.0</ele><time>2026-04-24T14:12:08.001Z</time></trkpt><trkpt lat="44.42077710571899" lon="8.916783448442454"><ele>72.0</ele><time>2026-04-24T14:12:09.001Z</time></trkpt><trkpt lat="44.42066470480686" lon="8.916724658876907"><ele>72.0</ele><time>2026-04-24T14:12:11.001Z</time></trkpt><trkpt lat="44.42061053267115" lon="8.916656097631192"><ele>72.0</ele><time>2026-04-24T14:12:12.001Z</time></trkpt><trkpt lat="44.42056441504056" lon="8.916568882196565"><ele>72.0</ele><time>2026-04-24T14:12:13.001Z</time></trkpt><trkpt lat="44.42051458959538" lon="8.916481097222158"><ele>72.0</ele><time>2026-04-24T14:12:14.001Z</time></trkpt><trkpt lat="44.42046471103922" lon="8.916392718835857"><ele>73.5</ele><time>2026-04-24T14:12:15.001Z</time></trkpt><trkpt lat="44.42040860659551" lon="8.916315009751173"><ele>75.0</ele><time>2026-04-24T14:12:16.001Z</time></trkpt><trkpt lat="44.4203428866688" lon="8.916241893581956"><ele>76.5</ele><time>2026-04-24T14:12:17.001Z</time></trkpt><trkpt lat="44.42028493768228" lon="8.916174415577325"><ele>78.0</ele><time>2026-04-24T14:12:18.001Z</time></trkpt><trkpt lat="44.420203956387006" lon="8.91613606093546"><ele>79.5</ele><time>2026-04-24T14:12:19.001Z</time></trkpt><trkpt lat="44.42013292179479" lon="8.916116167001139"><ele>81.0</ele><time>2026-04-24T14:12:20.001Z</time></trkpt><trkpt lat="44.420005861086686" lon="8.916079017143122"><ele>81.0</ele><time>2026-04-24T14:12:22.001Z</time></trkpt><trkpt lat="44.41993355454067" lon="8.916054378495131"><ele>81.0</ele><time>2026-04-24T14:12:23.001Z</time></trkpt><trkpt lat="44.41987167947135" lon="8.91603482666895"><ele>81.0</ele><time>2026-04-24T14:12:24.001Z</time></trkpt><trkpt lat="44.41975542796109" lon="8.915999551827847"><ele>81.0</ele><time>2026-04-24T14:12:26.001Z</time></trkpt><trkpt lat="44.4196428604861" lon="8.91598741186557"><ele>81.0</ele><time>2026-04-24T14:12:28.001Z</time></trkpt><trkpt lat="44.41957329791017" lon="8.915979504473393"><ele>81.0</ele><time>2026-04-24T14:12:29.001Z</time></trkpt><trkpt lat="44.41949379929633" lon="8.915964752809824"><ele>80.33333333333333</ele><time>2026-04-24T14:12:30.001Z</time></trkpt><trkpt lat="44.419417693767016" lon="8.915955771591525"><ele>79.66666666666667</ele><time>2026-04-24T14:12:31.001Z</time></trkpt><trkpt lat="44.41933340912938" lon="8.91594607655192"><ele>79.0</ele><time>2026-04-24T14:12:32.001Z</time></trkpt><trkpt lat="44.41924019024535" lon="8.915952755002229"><ele>78.33333333333334</ele><time>2026-04-24T14:12:33.002Z</time></trkpt><trkpt lat="44.419155796324226" lon="8.915941946736908"><ele>77.66666666666667</ele><time>2026-04-24T14:12:34.002Z</time></trkpt><trkpt lat="44.41906991147727" lon="8.915937998532918"><ele>77.0</ele><time>2026-04-24T14:12:35.002Z</time></trkpt><trkpt lat="44.41899692746912" lon="8.915909498090143"><ele>80.71428571428571</ele><time>2026-04-24T14:12:36.002Z</time></trkpt><trkpt lat="44.41894407809536" lon="8.915858679247602"><ele>84.42857142857143</ele><time>2026-04-24T14:12:37.002Z</time></trkpt><trkpt lat="44.41889318553009" lon="8.915791114432176"><ele>88.14285714285714</ele><time>2026-04-24T14:12:38.002Z</time></trkpt><trkpt lat="44.41885455024609" lon="8.915708017526914"><ele>91.85714285714286</ele><time>2026-04-24T14:12:39.002Z</time></trkpt><trkpt lat="44.418831716052814" lon="8.915620020019315"><ele>95.57142857142857</ele><time>2026-04-24T14:12:40.002Z</time></trkpt><trkpt lat="44.41883102225285" lon="8.915531043590493"><ele>99.28571428571428</ele><time>2026-04-24T14:12:41.002Z</time></trkpt><trkpt lat="44.4188302105293" lon="8.915438672884004"><ele>103.0</ele><time>2026-04-24T14:12:42.002Z</time></trkpt><trkpt lat="44.41885694114843" lon="8.915347070289256"><ele>103.0</ele><time>2026-04-24T14:12:43.002Z</time></trkpt><trkpt lat="44.418914997624725" lon="8.915219565556704"><ele>103.0</ele><time>2026-04-24T14:12:45.002Z</time></trkpt><trkpt lat="44.418953531863636" lon="8.915142745360894"><ele>103.0</ele><time>2026-04-24T14:12:47.002Z</time></trkpt><trkpt lat="44.41902593046924" lon="8.915077580486862"><ele>103.0</ele><time>2026-04-24T14:12:49.001Z</time></trkpt><trkpt lat="44.41911449783273" lon="8.914962937263772"><ele>103.0</ele><time>2026-04-24T14:12:51.001Z</time></trkpt><trkpt lat="44.419145798111174" lon="8.91486321863118"><ele>103.66666666666667</ele><time>2026-04-24T14:12:52.001Z</time></trkpt><trkpt lat="44.419202493401535" lon="8.914797267536061"><ele>104.33333333333334</ele><time>2026-04-24T14:12:53.001Z</time></trkpt><trkpt lat="44.419252667923494" lon="8.91470787538594"><ele>105.0</ele><time>2026-04-24T14:12:54.001Z</time></trkpt><trkpt lat="44.41929819084807" lon="8.914625428375391"><ele>105.66666666666666</ele><time>2026-04-24T14:12:55.001Z</time></trkpt><trkpt lat="44.41936563929091" lon="8.914537758641439"><ele>106.33333333333333</ele><time>2026-04-24T14:12:57.001Z</time></trkpt><trkpt lat="44.419412653080336" lon="8.914445413391498"><ele>107.0</ele><time>2026-04-24T14:13:06.001Z</time></trkpt><trkpt lat="44.41945261324428" lon="8.91432419222361"><ele>106.99999999999999</ele><time>2026-04-24T14:13:08.001Z</time></trkpt><trkpt lat="44.41950524352673" lon="8.914263966739671"><ele>107.0</ele><time>2026-04-24T14:13:09.001Z</time></trkpt><trkpt lat="44.419552868238036" lon="8.914178098049353"><ele>107.0</ele><time>2026-04-24T14:13:10.001Z</time></trkpt><trkpt lat="44.419588309488105" lon="8.914085216631499"><ele>107.0</ele><time>2026-04-24T14:13:11.001Z</time></trkpt><trkpt lat="44.41964537287918" lon="8.914007632934734"><ele>106.99999999999999</ele><time>2026-04-24T14:13:12.001Z</time></trkpt><trkpt lat="44.41970116796805" lon="8.913941288219734"><ele>107.0</ele><time>2026-04-24T14:13:13.001Z</time></trkpt><trkpt lat="44.41982089641397" lon="8.913858251535059"><ele>107.83333333333333</ele><time>2026-04-24T14:13:15.001Z</time></trkpt><trkpt lat="44.41989351475747" lon="8.91382092968274"><ele>108.66666666666666</ele><time>2026-04-24T14:13:16.001Z</time></trkpt><trkpt lat="44.419958580689986" lon="8.91378604417612"><ele>109.5</ele><time>2026-04-24T14:13:17.001Z</time></trkpt><trkpt lat="44.42002502492469" lon="8.91372904300342"><ele>110.33333333333334</ele><time>2026-04-24T14:13:18.001Z</time></trkpt><trkpt lat="44.42008341593028" lon="8.913658326463263"><ele>111.16666666666667</ele><time>2026-04-24T14:13:19.001Z</time></trkpt><trkpt lat="44.42012767911143" lon="8.913573828612387"><ele>112.0</ele><time>2026-04-24T14:13:20.001Z</time></trkpt><trkpt lat="44.4201640630852" lon="8.913485853018164"><ele>111.66666666666667</ele><time>2026-04-24T14:13:21.001Z</time></trkpt><trkpt lat="44.420184093299326" lon="8.913396599473916"><ele>111.33333333333334</ele><time>2026-04-24T14:13:22.001Z</time></trkpt><trkpt lat="44.42018669185967" lon="8.91330593652506"><ele>111.0</ele><time>2026-04-24T14:13:23.001Z</time></trkpt><trkpt lat="44.420180005138015" lon="8.913208373158437"><ele>110.66666666666666</ele><time>2026-04-24T14:13:24.001Z</time></trkpt><trkpt lat="44.42013625558508" lon="8.913027965502188"><ele>110.33333333333333</ele><time>2026-04-24T14:13:26.001Z</time></trkpt><trkpt lat="44.420096587610644" lon="8.91293999472418"><ele>110.0</ele><time>2026-04-24T14:13:27.001Z</time></trkpt><trkpt lat="44.420052976714175" lon="8.912862407807832"><ele>109.99999999999999</ele><time>2026-04-24T14:13:28.001Z</time></trkpt><trkpt lat="44.42000994771588" lon="8.912797529379917"><ele>110.0</ele><time>2026-04-24T14:13:29.001Z</time></trkpt><trkpt lat="44.41995448536224" lon="8.912702991078941"><ele>110.0</ele><time>2026-04-24T14:13:30.001Z</time></trkpt><trkpt lat="44.419884053148074" lon="8.912650170932757"><ele>110.0</ele><time>2026-04-24T14:13:31.001Z</time></trkpt><trkpt lat="44.419837767249646" lon="8.912588466011401"><ele>110.0</ele><time>2026-04-24T14:13:32.001Z</time></trkpt><trkpt lat="44.41979219015739" lon="8.91251456149102"><ele>109.99999999999999</ele><time>2026-04-24T14:13:33.001Z</time></trkpt><trkpt lat="44.41973607692458" lon="8.91244047780313"><ele>110.0</ele><time>2026-04-24T14:13:34.001Z</time></trkpt><trkpt lat="44.4196895200145" lon="8.912364433467463"><ele>108.83333333333333</ele><time>2026-04-24T14:13:35.001Z</time></trkpt><trkpt lat="44.41964663738535" lon="8.912292621368772"><ele>107.66666666666666</ele><time>2026-04-24T14:13:36.001Z</time></trkpt><trkpt lat="44.41958371828602" lon="8.912231866635345"><ele>106.5</ele><time>2026-04-24T14:13:38.001Z</time></trkpt><trkpt lat="44.41953764198873" lon="8.912171056493074"><ele>105.33333333333334</ele><time>2026-04-24T14:13:41.001Z</time></trkpt><trkpt lat="44.41947834847215" lon="8.912093306912078"><ele>104.16666666666667</ele><time>2026-04-24T14:13:43.001Z</time></trkpt><trkpt lat="44.41939984635406" lon="8.911991736920942"><ele>103.0</ele><time>2026-04-24T14:13:45.001Z</time></trkpt><trkpt lat="44.41931833084781" lon="8.911897694274128"><ele>103.00000000000001</ele><time>2026-04-24T14:13:56.001Z</time></trkpt><trkpt lat="44.41925660252908" lon="8.911811267641808"><ele>103.0</ele><time>2026-04-24T14:13:58.001Z</time></trkpt><trkpt lat="44.41921270706608" lon="8.911741459940094"><ele>103.0</ele><time>2026-04-24T14:14:01.001Z</time></trkpt><trkpt lat="44.419142967681324" lon="8.911625753372256"><ele>103.0</ele><time>2026-04-24T14:14:05.001Z</time></trkpt><trkpt lat="44.41909845595227" lon="8.911549962707234"><ele>103.00000000000001</ele><time>2026-04-24T14:14:06.001Z</time></trkpt><trkpt lat="44.41904323087158" lon="8.911482530369028"><ele>103.0</ele><time>2026-04-24T14:14:07.001Z</time></trkpt><trkpt lat="44.41900342978721" lon="8.911404725234828"><ele>102.85714285714285</ele><time>2026-04-24T14:14:08.001Z</time></trkpt><trkpt lat="44.41895209873535" lon="8.91132704241801"><ele>102.71428571428571</ele><time>2026-04-24T14:14:09.001Z</time></trkpt><trkpt lat="44.418913753834765" lon="8.911234149888244"><ele>102.57142857142857</ele><time>2026-04-24T14:14:10.001Z</time></trkpt><trkpt lat="44.41888359811386" lon="8.911145210768176"><ele>102.42857142857142</ele><time>2026-04-24T14:14:11.001Z</time></trkpt><trkpt lat="44.4188706927501" lon="8.91103941298843"><ele>102.28571428571429</ele><time>2026-04-24T14:14:12.001Z</time></trkpt><trkpt lat="44.41886588182785" lon="8.91094409061278"><ele>102.14285714285714</ele><time>2026-04-24T14:14:13.001Z</time></trkpt><trkpt lat="44.41887446146344" lon="8.910845829263472"><ele>102.0</ele><time>2026-04-24T14:14:14.001Z</time></trkpt><trkpt lat="44.41890148409484" lon="8.910754822456372"><ele>101.5</ele><time>2026-04-24T14:14:15.001Z</time></trkpt><trkpt lat="44.41894496515023" lon="8.910658214577765"><ele>101.0</ele><time>2026-04-24T14:14:16.001Z</time></trkpt><trkpt lat="44.418999333676716" lon="8.91057311865056"><ele>100.5</ele><time>2026-04-24T14:14:17.001Z</time></trkpt><trkpt lat="44.419064170617176" lon="8.91049849950002"><ele>100.0</ele><time>2026-04-24T14:14:18.001Z</time></trkpt><trkpt lat="44.41913461679" lon="8.910443043469497"><ele>99.5</ele><time>2026-04-24T14:14:19.001Z</time></trkpt><trkpt lat="44.41920070455438" lon="8.910403602227479"><ele>99.0</ele><time>2026-04-24T14:14:20.001Z</time></trkpt><trkpt lat="44.419281836627334" lon="8.910372677581748"><ele>99.0</ele><time>2026-04-24T14:14:21.001Z</time></trkpt><trkpt lat="44.41936666755826" lon="8.91033777965522"><ele>99.0</ele><time>2026-04-24T14:14:22.001Z</time></trkpt><trkpt lat="44.419450185791085" lon="8.910304538416378"><ele>99.0</ele><time>2026-04-24T14:14:23.001Z</time></trkpt><trkpt lat="44.41952663203904" lon="8.910273574934056"><ele>99.0</ele><time>2026-04-24T14:14:24.001Z</time></trkpt><trkpt lat="44.41959663038676" lon="8.91023939593132"><ele>99.0</ele><time>2026-04-24T14:14:25.001Z</time></trkpt><trkpt lat="44.419660464236244" lon="8.910211347159919"><ele>99.0</ele><time>2026-04-24T14:14:26.001Z</time></trkpt><trkpt lat="44.41975648369488" lon="8.910168131762507"><ele>98.83333333333333</ele><time>2026-04-24T14:14:28.001Z</time></trkpt><trkpt lat="44.419818642183024" lon="8.910131568461242"><ele>98.66666666666666</ele><time>2026-04-24T14:14:35.001Z</time></trkpt><trkpt lat="44.419880360962175" lon="8.91009458914516"><ele>98.5</ele><time>2026-04-24T14:14:38.001Z</time></trkpt><trkpt lat="44.41994523017268" lon="8.91005464346825"><ele>98.33333333333333</ele><time>2026-04-24T14:14:42.001Z</time></trkpt><trkpt lat="44.42001754286666" lon="8.910033762458891"><ele>98.16666666666666</ele><time>2026-04-24T14:14:52.001Z</time></trkpt><trkpt lat="44.42009494612867" lon="8.909935210095657"><ele>98.0</ele><time>2026-04-24T14:14:55.001Z</time></trkpt><trkpt lat="44.42012834011191" lon="8.909820023971383"><ele>97.99999999999999</ele><time>2026-04-24T14:14:57.001Z</time></trkpt><trkpt lat="44.42013427376638" lon="8.90967905805309"><ele>98.0</ele><time>2026-04-24T14:14:59.001Z</time></trkpt><trkpt lat="44.420107238725365" lon="8.909545531970172"><ele>98.0</ele><time>2026-04-24T14:15:01.001Z</time></trkpt><trkpt lat="44.4200903828323" lon="8.909451845946625"><ele>98.0</ele><time>2026-04-24T14:15:03.001Z</time></trkpt><trkpt lat="44.42007253318046" lon="8.909327450028165"><ele>97.99999999999999</ele><time>2026-04-24T14:15:05.001Z</time></trkpt><trkpt lat="44.4200609110452" lon="8.909227346980478"><ele>98.0</ele><time>2026-04-24T14:15:07.001Z</time></trkpt><trkpt lat="44.420043616394416" lon="8.909127901955863"><ele>97.99999999999999</ele><time>2026-04-24T14:15:12.001Z</time></trkpt><trkpt lat="44.420012152895126" lon="8.909018384714535"><ele>98.0</ele><time>2026-04-24T14:15:15.001Z</time></trkpt><trkpt lat="44.4200231931464" lon="8.90892450790474"><ele>98.0</ele><time>2026-04-24T14:15:22.001Z</time></trkpt><trkpt lat="44.41998732868044" lon="8.908828982719116"><ele>98.0</ele><time>2026-04-24T14:15:24.001Z</time></trkpt><trkpt lat="44.41997560609422" lon="8.908708323897976"><ele>97.99999999999999</ele><time>2026-04-24T14:15:26.001Z</time></trkpt><trkpt lat="44.41995160169388" lon="8.908557941169219"><ele>98.0</ele><time>2026-04-24T14:15:28.001Z</time></trkpt><trkpt lat="44.41992673559609" lon="8.908406285628473"><ele>98.0</ele><time>2026-04-24T14:15:30.001Z</time></trkpt><trkpt lat="44.41990594154093" lon="8.90832119706316"><ele>98.0</ele><time>2026-04-24T14:15:31.001Z</time></trkpt><trkpt lat="44.4198887399251" lon="8.908149495962038"><ele>98.0</ele><time>2026-04-24T14:15:33.001Z</time></trkpt><trkpt lat="44.4198481710092" lon="8.908010088450004"><ele>98.0</ele><time>2026-04-24T14:15:35.001Z</time></trkpt><trkpt lat="44.41982687795089" lon="8.90785926747899"><ele>98.0</ele><time>2026-04-24T14:15:37.001Z</time></trkpt><trkpt lat="44.41981426800289" lon="8.907730367410123"><ele>98.0</ele><time>2026-04-24T14:15:39.001Z</time></trkpt><trkpt lat="44.419792435413775" lon="8.907608181913362"><ele>98.0</ele><time>2026-04-24T14:15:41.001Z</time></trkpt><trkpt lat="44.4197664973854" lon="8.907484317570667"><ele>98.0</ele><time>2026-04-24T14:15:43.001Z</time></trkpt><trkpt lat="44.41967847435165" lon="8.907379505242504"><ele>98.0</ele><time>2026-04-24T14:15:45.001Z</time></trkpt><trkpt lat="44.41958472765516" lon="8.907400149645683"><ele>98.0</ele><time>2026-04-24T14:15:46.001Z</time></trkpt><trkpt lat="44.419520430937006" lon="8.907471251923338"><ele>96.66666666666666</ele><time>2026-04-24T14:15:47.001Z</time></trkpt><trkpt lat="44.41945500991192" lon="8.907501230141241"><ele>95.33333333333333</ele><time>2026-04-24T14:15:48.001Z</time></trkpt><trkpt lat="44.4193487487454" lon="8.907554081627723"><ele>94.0</ele><time>2026-04-24T14:15:50.001Z</time></trkpt><trkpt lat="44.419250860015865" lon="8.907587438768214"><ele>92.66666666666666</ele><time>2026-04-24T14:15:52.001Z</time></trkpt><trkpt lat="44.419170899272146" lon="8.907619748127503"><ele>91.33333333333333</ele><time>2026-04-24T14:15:54.001Z</time></trkpt><trkpt lat="44.41909272463897" lon="8.907658756727807"><ele>90.0</ele><time>2026-04-24T14:15:57.001Z</time></trkpt><trkpt lat="44.419023613002544" lon="8.907686816874998"><ele>89.4</ele><time>2026-04-24T14:15:59.001Z</time></trkpt><trkpt lat="44.41892256849996" lon="8.907734181297549"><ele>88.8</ele><time>2026-04-24T14:16:01.001Z</time></trkpt><trkpt lat="44.41883304764046" lon="8.907829922401943"><ele>88.19999999999999</ele><time>2026-04-24T14:16:03.001Z</time></trkpt><trkpt lat="44.41878929445911" lon="8.907967302301525"><ele>87.6</ele><time>2026-04-24T14:16:05.001Z</time></trkpt><trkpt lat="44.418777885538034" lon="8.908061154287914"><ele>87.0</ele><time>2026-04-24T14:16:06.001Z</time></trkpt><trkpt lat="44.4187711051391" lon="8.908150619231616"><ele>84.0</ele><time>2026-04-24T14:16:07.001Z</time></trkpt><trkpt lat="44.41876785687877" lon="8.908251375542608"><ele>81.0</ele><time>2026-04-24T14:16:08.001Z</time></trkpt><trkpt lat="44.41875764436443" lon="8.908350130572888"><ele>78.0</ele><time>2026-04-24T14:16:09.001Z</time></trkpt><trkpt lat="44.418749556484286" lon="8.908462345148843"><ele>75.0</ele><time>2026-04-24T14:16:10.001Z</time></trkpt><trkpt lat="44.418746520954" lon="8.908568771181535"><ele>72.0</ele><time>2026-04-24T14:16:11.001Z</time></trkpt><trkpt lat="44.41874463139264" lon="8.90868054359851"><ele>69.0</ele><time>2026-04-24T14:16:12.001Z</time></trkpt><trkpt lat="44.41875043491213" lon="8.908791636529607"><ele>68.0</ele><time>2026-04-24T14:16:13.001Z</time></trkpt><trkpt lat="44.41875777845759" lon="8.908899100909778"><ele>67.0</ele><time>2026-04-24T14:16:14.001Z</time></trkpt><trkpt lat="44.41879010336971" lon="8.909008646359533"><ele>66.0</ele><time>2026-04-24T14:16:15.001Z</time></trkpt><trkpt lat="44.41879716023923" lon="8.909130248720006"><ele>65.0</ele><time>2026-04-24T14:16:16.001Z</time></trkpt><trkpt lat="44.418839962654836" lon="8.909235320586339"><ele>64.0</ele><time>2026-04-24T14:16:17.001Z</time></trkpt><trkpt lat="44.41885883200767" lon="8.90934324229541"><ele>63.0</ele><time>2026-04-24T14:16:18.001Z</time></trkpt><trkpt lat="44.41889736933782" lon="8.909449631147192"><ele>67.33333333333333</ele><time>2026-04-24T14:16:19.001Z</time></trkpt><trkpt lat="44.4189255509814" lon="8.9095607446544"><ele>71.66666666666667</ele><time>2026-04-24T14:16:20.001Z</time></trkpt><trkpt lat="44.41894759892818" lon="8.90966499416367"><ele>76.0</ele><time>2026-04-24T14:16:21.001Z</time></trkpt><trkpt lat="44.41895830919132" lon="8.909764055879656"><ele>80.33333333333334</ele><time>2026-04-24T14:16:22.001Z</time></trkpt><trkpt lat="44.41897367568464" lon="8.909862090778677"><ele>84.66666666666667</ele><time>2026-04-24T14:16:23.001Z</time></trkpt><trkpt lat="44.418940753299225" lon="8.909941213016864"><ele>89.0</ele><time>2026-04-24T14:16:24.001Z</time></trkpt><trkpt lat="44.41884566547921" lon="8.910082622699415"><ele>88.83333333333334</ele><time>2026-04-24T14:16:26.001Z</time></trkpt><trkpt lat="44.41877191519376" lon="8.910099539609448"><ele>88.66666666666667</ele><time>2026-04-24T14:16:27.001Z</time></trkpt><trkpt lat="44.418671211367254" lon="8.910080571856321"><ele>88.5</ele><time>2026-04-24T14:16:29.001Z</time></trkpt><trkpt lat="44.41861452301913" lon="8.91001874276536"><ele>88.33333333333333</ele><time>2026-04-24T14:16:37.001Z</time></trkpt><trkpt lat="44.41856100669945" lon="8.909922926327987"><ele>88.16666666666666</ele><time>2026-04-24T14:16:40.001Z</time></trkpt><trkpt lat="44.418534816479635" lon="8.909798083967578"><ele>88.0</ele><time>2026-04-24T14:16:42.001Z</time></trkpt><trkpt lat="44.41849947671249" lon="8.909646745101902"><ele>85.33333333333333</ele><time>2026-04-24T14:16:44.001Z</time></trkpt><trkpt lat="44.41848278884477" lon="8.90956082875387"><ele>82.66666666666666</ele><time>2026-04-24T14:16:45.001Z</time></trkpt><trkpt lat="44.41847031161332" lon="8.909468512523041"><ele>80.0</ele><time>2026-04-24T14:16:46.001Z</time></trkpt><trkpt lat="44.418452576122704" lon="8.909290928754865"><ele>77.33333333333333</ele><time>2026-04-24T14:16:48.001Z</time></trkpt><trkpt lat="44.41844730635722" lon="8.909189684735711"><ele>74.66666666666667</ele><time>2026-04-24T14:16:49.001Z</time></trkpt><trkpt lat="44.41844314652761" lon="8.9090816609425"><ele>72.0</ele><time>2026-04-24T14:16:50.001Z</time></trkpt><trkpt lat="44.41844475162205" lon="8.90897809257046"><ele>71.5</ele><time>2026-04-24T14:16:51.001Z</time></trkpt><trkpt lat="44.41844931738865" lon="8.908865025164099"><ele>71.0</ele><time>2026-04-24T14:16:52.001Z</time></trkpt><trkpt lat="44.41845986100327" lon="8.90875303425707"><ele>70.5</ele><time>2026-04-24T14:16:53.001Z</time></trkpt><trkpt lat="44.4184726687171" lon="8.908653971612996"><ele>70.0</ele><time>2026-04-24T14:16:54.001Z</time></trkpt><trkpt lat="44.41848170722507" lon="8.908543578602256"><ele>69.5</ele><time>2026-04-24T14:16:55.001Z</time></trkpt><trkpt lat="44.41850441082716" lon="8.908447830312978"><ele>69.0</ele><time>2026-04-24T14:16:56.001Z</time></trkpt><trkpt lat="44.418503581019586" lon="8.908286622979471"><ele>69.0</ele><time>2026-04-24T14:16:58.001Z</time></trkpt><trkpt lat="44.41848325267226" lon="8.908189120047455"><ele>69.0</ele><time>2026-04-24T14:16:59.001Z</time></trkpt><trkpt lat="44.418446806343454" lon="8.90811529414559"><ele>69.0</ele><time>2026-04-24T14:17:00.001Z</time></trkpt><trkpt lat="44.418336323398854" lon="8.90801810772653"><ele>69.0</ele><time>2026-04-24T14:17:02.001Z</time></trkpt><trkpt lat="44.418206215487515" lon="8.908015859080376"><ele>69.0</ele><time>2026-04-24T14:17:04.001Z</time></trkpt><trkpt lat="44.4181442751485" lon="8.908053255162194"><ele>69.0</ele><time>2026-04-24T14:17:05.001Z</time></trkpt><trkpt lat="44.418088702014025" lon="8.908106487961367"><ele>69.0</ele><time>2026-04-24T14:17:06.001Z</time></trkpt><trkpt lat="44.418052113836026" lon="8.9081864206764"><ele>69.0</ele><time>2026-04-24T14:17:07.001Z</time></trkpt><trkpt lat="44.41802852809759" lon="8.908273584529363"><ele>69.0</ele><time>2026-04-24T14:17:08.001Z</time></trkpt><trkpt lat="44.41802147347007" lon="8.908370702228675"><ele>69.0</ele><time>2026-04-24T14:17:09.001Z</time></trkpt><trkpt lat="44.4180178281675" lon="8.908564781334443"><ele>69.0</ele><time>2026-04-24T14:17:11.001Z</time></trkpt><trkpt lat="44.418038945080454" lon="8.90867155552496"><ele>69.60000000000001</ele><time>2026-04-24T14:17:12.001Z</time></trkpt><trkpt lat="44.41804998220926" lon="8.908793079545836"><ele>70.2</ele><time>2026-04-24T14:17:13.001Z</time></trkpt><trkpt lat="44.41807651462095" lon="8.908919205622365"><ele>70.80000000000001</ele><time>2026-04-24T14:17:14Z</time></trkpt><trkpt lat="44.41811914648082" lon="8.909041919992013"><ele>71.4</ele><time>2026-04-24T14:17:15Z</time></trkpt><trkpt lat="44.41813888828591" lon="8.909153956293384"><ele>72.0</ele><time>2026-04-24T14:17:16Z</time></trkpt><trkpt lat="44.41817288646863" lon="8.909272247827351"><ele>72.0</ele><time>2026-04-24T14:17:17Z</time></trkpt><trkpt lat="44.41819909598859" lon="8.909376626472909"><ele>72.0</ele><time>2026-04-24T14:17:18Z</time></trkpt><trkpt lat="44.418194953249504" lon="8.909550838807837"><ele>72.0</ele><time>2026-04-24T14:17:20Z</time></trkpt><trkpt lat="44.41817907822804" lon="8.90963632565784"><ele>72.0</ele><time>2026-04-24T14:17:23Z</time></trkpt><trkpt lat="44.41815066651798" lon="8.909722241842037"><ele>72.0</ele><time>2026-04-24T14:17:44.001Z</time></trkpt><trkpt lat="44.41809316486846" lon="8.909784497354448"><ele>72.0</ele><time>2026-04-24T14:17:46.001Z</time></trkpt><trkpt lat="44.41803885160725" lon="8.909844898717367"><ele>72.33333333333333</ele><time>2026-04-24T14:17:48.001Z</time></trkpt><trkpt lat="44.41797660177133" lon="8.909914177619552"><ele>72.66666666666667</ele><time>2026-04-24T14:17:51.001Z</time></trkpt><trkpt lat="44.417914783093124" lon="8.909981385139357"><ele>73.0</ele><time>2026-04-24T14:18:00.001Z</time></trkpt><trkpt lat="44.417853652636865" lon="8.91004784436584"><ele>73.33333333333334</ele><time>2026-04-24T14:18:02.001Z</time></trkpt><trkpt lat="44.41779830182414" lon="8.910108018161127"><ele>73.66666666666667</ele><time>2026-04-24T14:18:04.001Z</time></trkpt><trkpt lat="44.41770732900974" lon="8.9102178565599"><ele>74.0</ele><time>2026-04-24T14:18:06.001Z</time></trkpt><trkpt lat="44.41761388344118" lon="8.910334048369407"><ele>74.0</ele><time>2026-04-24T14:18:08.001Z</time></trkpt><trkpt lat="44.417515360123566" lon="8.91039642812917"><ele>74.0</ele><time>2026-04-24T14:18:10.001Z</time></trkpt><trkpt lat="44.41744234812249" lon="8.910359532912384"><ele>74.0</ele><time>2026-04-24T14:18:12.001Z</time></trkpt><trkpt lat="44.417317190805726" lon="8.910337265854771"><ele>74.0</ele><time>2026-04-24T14:18:14.001Z</time></trkpt><trkpt lat="44.41724977451767" lon="8.910325271639158"><ele>74.0</ele><time>2026-04-24T14:18:15.001Z</time></trkpt><trkpt lat="44.41717998386583" lon="8.91031285505177"><ele>72.33333333333334</ele><time>2026-04-24T14:18:16.001Z</time></trkpt><trkpt lat="44.41710705782739" lon="8.910299880316412"><ele>70.66666666666667</ele><time>2026-04-24T14:18:17.001Z</time></trkpt><trkpt lat="44.41702325554848" lon="8.910285332248943"><ele>69.0</ele><time>2026-04-24T14:18:18.001Z</time></trkpt><trkpt lat="44.41694259259977" lon="8.910271210789508"><ele>67.33333333333333</ele><time>2026-04-24T14:18:19.001Z</time></trkpt><trkpt lat="44.41686266110736" lon="8.910256425900377"><ele>65.66666666666666</ele><time>2026-04-24T14:18:20.001Z</time></trkpt><trkpt lat="44.41678255071633" lon="8.91024227408643"><ele>64.0</ele><time>2026-04-24T14:18:21.001Z</time></trkpt><trkpt lat="44.41669749189457" lon="8.910243325296834"><ele>64.0</ele><time>2026-04-24T14:18:22.001Z</time></trkpt><trkpt lat="44.41662947595419" lon="8.91021800401597"><ele>63.99999999999999</ele><time>2026-04-24T14:18:23.001Z</time></trkpt><trkpt lat="44.41656479116604" lon="8.910214654879265"><ele>64.0</ele><time>2026-04-24T14:18:27.001Z</time></trkpt><trkpt lat="44.41650327780494" lon="8.910191024738454"><ele>64.0</ele><time>2026-04-24T14:18:32.001Z</time></trkpt><trkpt lat="44.41642287253788" lon="8.910175927656399"><ele>63.99999999999999</ele><time>2026-04-24T14:18:34.001Z</time></trkpt><trkpt lat="44.41633613612846" lon="8.910153374674723"><ele>64.0</ele><time>2026-04-24T14:18:36.001Z</time></trkpt><trkpt lat="44.41627273722287" lon="8.910149568676145"><ele>64.0</ele><time>2026-04-24T14:18:38.001Z</time></trkpt><trkpt lat="44.416200379334704" lon="8.910135627969886"><ele>63.666666666666664</ele><time>2026-04-24T14:18:40.001Z</time></trkpt><trkpt lat="44.416123933591244" lon="8.910129817429988"><ele>63.33333333333333</ele><time>2026-04-24T14:18:42.001Z</time></trkpt><trkpt lat="44.41602101392387" lon="8.910108535959928"><ele>63.0</ele><time>2026-04-24T14:18:44.001Z</time></trkpt><trkpt lat="44.415955085034255" lon="8.910102718694818"><ele>62.66666666666667</ele><time>2026-04-24T14:18:45.001Z</time></trkpt><trkpt lat="44.415889486681934" lon="8.910092195209824"><ele>62.333333333333336</ele><time>2026-04-24T14:18:46.001Z</time></trkpt><trkpt lat="44.41582342364653" lon="8.91007620092924"><ele>62.0</ele><time>2026-04-24T14:18:47.001Z</time></trkpt><trkpt lat="44.41574523632551" lon="8.910049731599827"><ele>58.16666666666667</ele><time>2026-04-24T14:18:48.001Z</time></trkpt><trkpt lat="44.415668078972054" lon="8.910035547822524"><ele>54.333333333333336</ele><time>2026-04-24T14:18:49.001Z</time></trkpt><trkpt lat="44.415589731535135" lon="8.910033930457402"><ele>50.5</ele><time>2026-04-24T14:18:50.001Z</time></trkpt><trkpt lat="44.415511236542564" lon="8.910013067488341"><ele>46.66666666666667</ele><time>2026-04-24T14:18:51.001Z</time></trkpt><trkpt lat="44.41543891270823" lon="8.90999463493678"><ele>42.833333333333336</ele><time>2026-04-24T14:18:52.001Z</time></trkpt><trkpt lat="44.415361193667636" lon="8.909989011812556"><ele>39.0</ele><time>2026-04-24T14:18:53.001Z</time></trkpt><trkpt lat="44.41528855340099" lon="8.909980272841196"><ele>39.0</ele><time>2026-04-24T14:18:54.001Z</time></trkpt><trkpt lat="44.415223291089916" lon="8.909944138141013"><ele>39.0</ele><time>2026-04-24T14:18:55.001Z</time></trkpt><trkpt lat="44.415096703298914" lon="8.90990266911889"><ele>39.0</ele><time>2026-04-24T14:18:57.001Z</time></trkpt><trkpt lat="44.41503294923278" lon="8.909851826142935"><ele>39.0</ele><time>2026-04-24T14:18:58.001Z</time></trkpt><trkpt lat="44.41494918709379" lon="8.909820187976761"><ele>39.0</ele><time>2026-04-24T14:19:00.001Z</time></trkpt><trkpt lat="44.41487821778528" lon="8.909767503010736"><ele>39.0</ele><time>2026-04-24T14:19:03.001Z</time></trkpt><trkpt lat="44.414780313870246" lon="8.909717897573904"><ele>39.0</ele><time>2026-04-24T14:19:06.001Z</time></trkpt><trkpt lat="44.41467294600292" lon="8.90966627046536"><ele>39.0</ele><time>2026-04-24T14:19:08Z</time></trkpt><trkpt lat="44.41456479079361" lon="8.909592121043698"><ele>39.0</ele><time>2026-04-24T14:19:10Z</time></trkpt><trkpt lat="44.41450320160536" lon="8.90956608528496"><ele>39.0</ele><time>2026-04-24T14:19:11Z</time></trkpt><trkpt lat="44.41443758955966" lon="8.909530259184233"><ele>39.0</ele><time>2026-04-24T14:19:12Z</time></trkpt><trkpt lat="44.414374556431675" lon="8.909495666006624"><ele>39.0</ele><time>2026-04-24T14:19:13Z</time></trkpt><trkpt lat="44.41430439281934" lon="8.909458847715943"><ele>36.2</ele><time>2026-04-24T14:19:14Z</time></trkpt><trkpt lat="44.41423803959082" lon="8.909423926632972"><ele>33.4</ele><time>2026-04-24T14:19:15Z</time></trkpt><trkpt lat="44.414173791904965" lon="8.909390340772637"><ele>30.6</ele><time>2026-04-24T14:19:16Z</time></trkpt><trkpt lat="44.41405823335024" lon="8.90933779298977"><ele>27.8</ele><time>2026-04-24T14:19:18Z</time></trkpt><trkpt lat="44.413948944245746" lon="8.90932179370487"><ele>25.0</ele><time>2026-04-24T14:19:20Z</time></trkpt><trkpt lat="44.413846526815874" lon="8.909369354829543"><ele>23.000000000000004</ele><time>2026-04-24T14:19:22Z</time></trkpt><trkpt lat="44.41375595883769" lon="8.909427539557646"><ele>21.0</ele><time>2026-04-24T14:19:24Z</time></trkpt><trkpt lat="44.41367635757625" lon="8.909464209437001"><ele>19.0</ele><time>2026-04-24T14:19:26Z</time></trkpt><trkpt lat="44.41361641236962" lon="8.909510008519927"><ele>17.0</ele><time>2026-04-24T14:19:30Z</time></trkpt><trkpt lat="44.41354769411676" lon="8.909555609726512"><ele>15.0</ele><time>2026-04-24T14:19:46Z</time></trkpt><trkpt lat="44.41346425137893" lon="8.90952366677492"><ele>13.0</ele><time>2026-04-24T14:19:49Z</time></trkpt><trkpt lat="44.41338328620057" lon="8.909512216709429"><ele>12.999999999999998</ele><time>2026-04-24T14:19:51Z</time></trkpt><trkpt lat="44.413292098536786" lon="8.90953079645465"><ele>13.0</ele><time>2026-04-24T14:19:53Z</time></trkpt><trkpt lat="44.41322988420587" lon="8.909556486639177"><ele>13.0</ele><time>2026-04-24T14:19:54Z</time></trkpt><trkpt lat="44.41315048834099" lon="8.90959074990951"><ele>13.0</ele><time>2026-04-24T14:19:55Z</time></trkpt><trkpt lat="44.4130799374073" lon="8.909623613812014"><ele>12.999999999999998</ele><time>2026-04-24T14:19:56Z</time></trkpt><trkpt lat="44.41298542665818" lon="8.909662584102097"><ele>13.0</ele><time>2026-04-24T14:19:58Z</time></trkpt><trkpt lat="44.41291487885418" lon="8.909646050795073"><ele>12.200000000000001</ele><time>2026-04-24T14:21:17Z</time></trkpt><trkpt lat="44.4128449455765" lon="8.909665291434123"><ele>11.4</ele><time>2026-04-24T14:21:19Z</time></trkpt><trkpt lat="44.412725693239096" lon="8.909655599751863"><ele>10.600000000000001</ele><time>2026-04-24T14:21:21Z</time></trkpt><trkpt lat="44.41268416910736" lon="8.909728897207922"><ele>9.8</ele><time>2026-04-24T14:21:22Z</time></trkpt><trkpt lat="44.41260103780501" lon="8.90957643982505"><ele>9.0</ele><time>2026-04-24T14:21:23Z</time></trkpt><trkpt lat="44.412531216976916" lon="8.90952499352301"><ele>9.0</ele><time>2026-04-24T14:21:24Z</time></trkpt><trkpt lat="44.412454421792056" lon="8.909466444370457"><ele>9.0</ele><time>2026-04-24T14:21:25Z</time></trkpt><trkpt lat="44.412370194640665" lon="8.90940158595262"><ele>9.0</ele><time>2026-04-24T14:21:26Z</time></trkpt><trkpt lat="44.412289598872775" lon="8.909335408720914"><ele>9.0</ele><time>2026-04-24T14:21:27Z</time></trkpt><trkpt lat="44.412207402937256" lon="8.909260678896544"><ele>9.0</ele><time>2026-04-24T14:21:28Z</time></trkpt><trkpt lat="44.41213043834314" lon="8.909192156731539"><ele>8.8</ele><time>2026-04-24T14:21:29Z</time></trkpt><trkpt lat="44.412051541760164" lon="8.909116748205038"><ele>8.600000000000001</ele><time>2026-04-24T14:21:30Z</time></trkpt><trkpt lat="44.41197216145588" lon="8.909037448398601"><ele>8.4</ele><time>2026-04-24T14:21:31Z</time></trkpt><trkpt lat="44.411885746928895" lon="8.908951422553251"><ele>8.200000000000001</ele><time>2026-04-24T14:21:32Z</time></trkpt><trkpt lat="44.411802085353365" lon="8.908865419801545"><ele>8.0</ele><time>2026-04-24T14:21:33Z</time></trkpt><trkpt lat="44.41171764513766" lon="8.908784682924649"><ele>8.0</ele><time>2026-04-24T14:21:34Z</time></trkpt><trkpt lat="44.41163873986915" lon="8.908700827866882"><ele>8.0</ele><time>2026-04-24T14:21:35Z</time></trkpt><trkpt lat="44.41155305064014" lon="8.908614386221405"><ele>8.0</ele><time>2026-04-24T14:21:36Z</time></trkpt><trkpt lat="44.41146856133908" lon="8.9085228773649"><ele>8.0</ele><time>2026-04-24T14:21:37Z</time></trkpt><trkpt lat="44.411384627234376" lon="8.908442659983768"><ele>8.0</ele><time>2026-04-24T14:21:38Z</time></trkpt><trkpt lat="44.41131597196573" lon="8.908342117048795"><ele>8.4</ele><time>2026-04-24T14:21:39Z</time></trkpt><trkpt lat="44.41124120750176" lon="8.90826297765617"><ele>8.8</ele><time>2026-04-24T14:21:40Z</time></trkpt><trkpt lat="44.41115590607632" lon="8.908185645251768"><ele>9.2</ele><time>2026-04-24T14:21:41Z</time></trkpt><trkpt lat="44.41107205182741" lon="8.908102100852416"><ele>9.6</ele><time>2026-04-24T14:21:42Z</time></trkpt><trkpt lat="44.410995301992195" lon="8.908023123553505"><ele>10.0</ele><time>2026-04-24T14:21:43Z</time></trkpt><trkpt lat="44.41090944761381" lon="8.907931284188654"><ele>10.0</ele><time>2026-04-24T14:21:44Z</time></trkpt><trkpt lat="44.411016948306205" lon="8.907740902857443"><ele>10.0</ele><time>2026-04-24T14:21:45Z</time></trkpt><trkpt lat="44.410636037836696" lon="8.908018712477677"><ele>10.0</ele><time>2026-04-24T14:21:46Z</time></trkpt><trkpt lat="44.41053650148093" lon="8.907948861658376"><ele>10.0</ele><time>2026-04-24T14:21:47Z</time></trkpt><trkpt lat="44.41043120153025" lon="8.907882151300145"><ele>10.0</ele><time>2026-04-24T14:21:48Z</time></trkpt><trkpt lat="44.410338968998786" lon="8.907807376554098"><ele>10.0</ele><time>2026-04-24T14:21:49Z</time></trkpt><trkpt lat="44.41024839825568" lon="8.907725579385497"><ele>10.0</ele><time>2026-04-24T14:21:50Z</time></trkpt><trkpt lat="44.41014849735808" lon="8.907657122350486"><ele>10.2</ele><time>2026-04-24T14:21:51Z</time></trkpt><trkpt lat="44.4100523176363" lon="8.907592961384585"><ele>10.4</ele><time>2026-04-24T14:21:52Z</time></trkpt><trkpt lat="44.40996027808295" lon="8.907525075912694"><ele>10.600000000000001</ele><time>2026-04-24T14:21:53Z</time></trkpt><trkpt lat="44.4098671683092" lon="8.907456472713815"><ele>10.8</ele><time>2026-04-24T14:21:54Z</time></trkpt><trkpt lat="44.40977048995048" lon="8.907382449458336"><ele>11.0</ele><time>2026-04-24T14:21:55Z</time></trkpt><trkpt lat="44.40968070361514" lon="8.907306375994857"><ele>10.200000000000001</ele><time>2026-04-24T14:21:56Z</time></trkpt><trkpt lat="44.409587677258536" lon="8.907229175906005"><ele>9.4</ele><time>2026-04-24T14:21:57Z</time></trkpt><trkpt lat="44.40950109770798" lon="8.90714879139012"><ele>8.6</ele><time>2026-04-24T14:21:58Z</time></trkpt><trkpt lat="44.40941694837465" lon="8.907056020605193"><ele>7.8</ele><time>2026-04-24T14:21:59Z</time></trkpt><trkpt lat="44.40933266372307" lon="8.906958883254326"><ele>7.0</ele><time>2026-04-24T14:22:00Z</time></trkpt><trkpt lat="44.40925325794382" lon="8.906867803073455"><ele>7.0</ele><time>2026-04-24T14:22:01Z</time></trkpt><trkpt lat="44.40917152534353" lon="8.906781038901885"><ele>6.999999999999999</ele><time>2026-04-24T14:22:02Z</time></trkpt><trkpt lat="44.409080924169196" lon="8.906705158520444"><ele>6.999999999999999</ele><time>2026-04-24T14:22:03Z</time></trkpt><trkpt lat="44.40899531850453" lon="8.906640000160298"><ele>7.0</ele><time>2026-04-24T14:22:04Z</time></trkpt><trkpt lat="44.40890265546484" lon="8.906584193723184"><ele>7.0</ele><time>2026-04-24T14:22:05Z</time></trkpt><trkpt lat="44.40880422185402" lon="8.90653237486395"><ele>7.6</ele><time>2026-04-24T14:22:06Z</time></trkpt><trkpt lat="44.40869786438645" lon="8.906500156779769"><ele>8.2</ele><time>2026-04-24T14:22:07Z</time></trkpt><trkpt lat="44.408583285777816" lon="8.906475557207315"><ele>8.8</ele><time>2026-04-24T14:22:08Z</time></trkpt><trkpt lat="44.40848463095498" lon="8.906432344963902"><ele>9.4</ele><time>2026-04-24T14:22:09Z</time></trkpt><trkpt lat="44.40839781792993" lon="8.906404272260941"><ele>10.0</ele><time>2026-04-24T14:22:10Z</time></trkpt><trkpt lat="44.40831112680832" lon="8.906384661453624"><ele>10.0</ele><time>2026-04-24T14:22:11Z</time></trkpt><trkpt lat="44.408221587440735" lon="8.90634095614148"><ele>10.0</ele><time>2026-04-24T14:22:12Z</time></trkpt><trkpt lat="44.40812424536827" lon="8.906311144130717"><ele>10.0</ele><time>2026-04-24T14:22:13Z</time></trkpt><trkpt lat="44.40802376992723" lon="8.906277587716534"><ele>10.0</ele><time>2026-04-24T14:22:14Z</time></trkpt><trkpt lat="44.40793372289189" lon="8.906234727527844"><ele>10.0</ele><time>2026-04-24T14:22:15Z</time></trkpt><trkpt lat="44.407841772820625" lon="8.906190845294914"><ele>10.5</ele><time>2026-04-24T14:22:16Z</time></trkpt><trkpt lat="44.407763121153764" lon="8.906128949105627"><ele>11.0</ele><time>2026-04-24T14:22:17Z</time></trkpt><trkpt lat="44.40769008251163" lon="8.906060271019905"><ele>11.5</ele><time>2026-04-24T14:22:18Z</time></trkpt><trkpt lat="44.407632448475184" lon="8.905970988282066"><ele>12.0</ele><time>2026-04-24T14:22:19Z</time></trkpt><trkpt lat="44.407582374657906" lon="8.905870127521837"><ele>12.499999999999998</ele><time>2026-04-24T14:22:20Z</time></trkpt><trkpt lat="44.40754025196672" lon="8.90575218646038"><ele>13.0</ele><time>2026-04-24T14:22:21Z</time></trkpt><trkpt lat="44.40750180092662" lon="8.905624654263747"><ele>13.4</ele><time>2026-04-24T14:22:22Z</time></trkpt><trkpt lat="44.40745714437461" lon="8.90549556758427"><ele>13.8</ele><time>2026-04-24T14:22:23Z</time></trkpt><trkpt lat="44.407413524370384" lon="8.905359043839525"><ele>14.2</ele><time>2026-04-24T14:22:24Z</time></trkpt><trkpt lat="44.407374168138716" lon="8.905229499102782"><ele>14.6</ele><time>2026-04-24T14:22:25Z</time></trkpt><trkpt lat="44.40732880595579" lon="8.905094157339907"><ele>15.0</ele><time>2026-04-24T14:22:26Z</time></trkpt><trkpt lat="44.407292404530274" lon="8.90493699276716"><ele>15.0</ele><time>2026-04-24T14:22:27Z</time></trkpt><trkpt lat="44.40724090772337" lon="8.904776681241001"><ele>15.0</ele><time>2026-04-24T14:22:28Z</time></trkpt><trkpt lat="44.40719164166533" lon="8.904626913350754"><ele>15.0</ele><time>2026-04-24T14:22:29Z</time></trkpt><trkpt lat="44.407161880467136" lon="8.904455192547076"><ele>15.0</ele><time>2026-04-24T14:22:30Z</time></trkpt><trkpt lat="44.407107831763085" lon="8.904289849380824"><ele>15.5</ele><time>2026-04-24T14:22:31Z</time></trkpt><trkpt lat="44.40705551862218" lon="8.904131922657177"><ele>16.0</ele><time>2026-04-24T14:22:32Z</time></trkpt><trkpt lat="44.407004058439696" lon="8.90397471874852"><ele>16.5</ele><time>2026-04-24T14:22:33Z</time></trkpt><trkpt lat="44.40695491817611" lon="8.903828104020281"><ele>17.0</ele><time>2026-04-24T14:22:34Z</time></trkpt><trkpt lat="44.4069411314918" lon="8.903655877413156"><ele>17.0</ele><time>2026-04-24T14:22:35Z</time></trkpt><trkpt lat="44.40689918188199" lon="8.9035277588807"><ele>17.0</ele><time>2026-04-24T14:22:36Z</time></trkpt><trkpt lat="44.406852728599404" lon="8.903385751524707"><ele>17.0</ele><time>2026-04-24T14:22:37Z</time></trkpt><trkpt lat="44.40680988590946" lon="8.903253734616884"><ele>17.0</ele><time>2026-04-24T14:22:38Z</time></trkpt><trkpt lat="44.406758428446096" lon="8.903069912273184"><ele>17.4</ele><time>2026-04-24T14:22:39Z</time></trkpt><trkpt lat="44.406671688339195" lon="8.902895077487374"><ele>17.799999999999997</ele><time>2026-04-24T14:22:40Z</time></trkpt><trkpt lat="44.40664434348442" lon="8.902779896558966"><ele>18.2</ele><time>2026-04-24T14:22:41Z</time></trkpt><trkpt lat="44.40662336636439" lon="8.902664915663534"><ele>18.599999999999998</ele><time>2026-04-24T14:22:42Z</time></trkpt><trkpt lat="44.40661423581974" lon="8.902539843834122"><ele>19.0</ele><time>2026-04-24T14:22:43.001Z</time></trkpt><trkpt lat="44.40662118545487" lon="8.90243034333687"><ele>17.5</ele><time>2026-04-24T14:22:44.001Z</time></trkpt><trkpt lat="44.40663544636209" lon="8.902317968390584"><ele>16.0</ele><time>2026-04-24T14:22:45.001Z</time></trkpt><trkpt lat="44.40665569824939" lon="8.9022183404307"><ele>14.5</ele><time>2026-04-24T14:22:46.001Z</time></trkpt><trkpt lat="44.40668080393236" lon="8.902115669683935"><ele>13.0</ele><time>2026-04-24T14:22:47.001Z</time></trkpt><trkpt lat="44.406710753227124" lon="8.902006885902695"><ele>11.5</ele><time>2026-04-24T14:22:48.001Z</time></trkpt><trkpt lat="44.40673839909935" lon="8.901901203745958"><ele>10.0</ele><time>2026-04-24T14:22:49.001Z</time></trkpt><trkpt lat="44.40676411388406" lon="8.901797493046756"><ele>9.166666666666668</ele><time>2026-04-24T14:22:50.001Z</time></trkpt><trkpt lat="44.4067875237126" lon="8.901702665432941"><ele>8.333333333333334</ele><time>2026-04-24T14:22:51.001Z</time></trkpt><trkpt lat="44.40681391317862" lon="8.90159753013605"><ele>7.5</ele><time>2026-04-24T14:22:52.001Z</time></trkpt><trkpt lat="44.40683558702911" lon="8.90149055713956"><ele>6.666666666666667</ele><time>2026-04-24T14:22:53.001Z</time></trkpt><trkpt lat="44.40684740968526" lon="8.901380192486782"><ele>5.833333333333334</ele><time>2026-04-24T14:22:54.001Z</time></trkpt><trkpt lat="44.406860297335015" lon="8.901270746424712"><ele>5.0</ele><time>2026-04-24T14:22:55.001Z</time></trkpt><trkpt lat="44.40687328414773" lon="8.90115495230909"><ele>5.0</ele><time>2026-04-24T14:22:56.001Z</time></trkpt><trkpt lat="44.40688575975707" lon="8.901037581997345"><ele>5.0</ele><time>2026-04-24T14:22:57.001Z</time></trkpt><trkpt lat="44.40690219643495" lon="8.900916570610713"><ele>5.0</ele><time>2026-04-24T14:22:58.001Z</time></trkpt><trkpt lat="44.406918041196604" lon="8.900791700774617"><ele>5.0</ele><time>2026-04-24T14:22:59.001Z</time></trkpt><trkpt lat="44.40693625020692" lon="8.900652138043803"><ele>5.0</ele><time>2026-04-24T14:23:00.001Z</time></trkpt><trkpt lat="44.40695659438168" lon="8.900501636226503"><ele>5.6</ele><time>2026-04-24T14:23:01.001Z</time></trkpt><trkpt lat="44.40697561634525" lon="8.900352345104896"><ele>6.2</ele><time>2026-04-24T14:23:02.001Z</time></trkpt><trkpt lat="44.40699873944103" lon="8.900199710324477"><ele>6.800000000000001</ele><time>2026-04-24T14:23:03.001Z</time></trkpt><trkpt lat="44.407018753391974" lon="8.900069357726377"><ele>7.4</ele><time>2026-04-24T14:23:04.001Z</time></trkpt><trkpt lat="44.40703298070789" lon="8.899954108618235"><ele>8.0</ele><time>2026-04-24T14:23:05.001Z</time></trkpt><trkpt lat="44.40704661554276" lon="8.899846622182809"><ele>7.999999999999999</ele><time>2026-04-24T14:23:06.001Z</time></trkpt><trkpt lat="44.40706007309866" lon="8.899755167251527"><ele>8.0</ele><time>2026-04-24T14:23:07.001Z</time></trkpt><trkpt lat="44.407082623100315" lon="8.899589522770725"><ele>8.0</ele><time>2026-04-24T14:23:09.001Z</time></trkpt><trkpt lat="44.40710419347625" lon="8.899448530709423"><ele>8.0</ele><time>2026-04-24T14:23:11.001Z</time></trkpt><trkpt lat="44.40711984088372" lon="8.899338693125987"><ele>7.999999999999999</ele><time>2026-04-24T14:23:13.001Z</time></trkpt><trkpt lat="44.40713768962082" lon="8.899238330972358"><ele>8.0</ele><time>2026-04-24T14:23:16.001Z</time></trkpt><trkpt lat="44.40715226885807" lon="8.89913355153134"><ele>9.666666666666666</ele><time>2026-04-24T14:23:26Z</time></trkpt><trkpt lat="44.40716812281111" lon="8.899009585031639"><ele>11.333333333333332</ele><time>2026-04-24T14:23:29Z</time></trkpt><trkpt lat="44.407176341276" lon="8.898918034012778"><ele>13.0</ele><time>2026-04-24T14:23:31Z</time></trkpt><trkpt lat="44.40719355449469" lon="8.898812342688982"><ele>14.666666666666666</ele><time>2026-04-24T14:23:33Z</time></trkpt><trkpt lat="44.407213412802875" lon="8.898705705021932"><ele>16.333333333333332</ele><time>2026-04-24T14:23:35Z</time></trkpt><trkpt lat="44.40723827975768" lon="8.898611088910231"><ele>18.0</ele><time>2026-04-24T14:23:37Z</time></trkpt><trkpt lat="44.407237404994234" lon="8.898485522576966"><ele>17.857142857142858</ele><time>2026-04-24T14:23:39Z</time></trkpt><trkpt lat="44.40726202945271" lon="8.898389830819458"><ele>17.714285714285715</ele><time>2026-04-24T14:23:41Z</time></trkpt><trkpt lat="44.40728772034531" lon="8.898289996308975"><ele>17.57142857142857</ele><time>2026-04-24T14:23:43Z</time></trkpt><trkpt lat="44.407309938889426" lon="8.898203654573248"><ele>17.42857142857143</ele><time>2026-04-24T14:23:45Z</time></trkpt><trkpt lat="44.407332095876036" lon="8.898117551649616"><ele>17.285714285714285</ele><time>2026-04-24T14:23:48Z</time></trkpt><trkpt lat="44.407394762487264" lon="8.898068908241632"><ele>17.142857142857142</ele><time>2026-04-24T14:24:18Z</time></trkpt><trkpt lat="44.40741579573881" lon="8.89797131877179"><ele>17.0</ele><time>2026-04-24T14:24:23Z</time></trkpt><trkpt lat="44.40741984919438" lon="8.89787106622391"><ele>17.0</ele><time>2026-04-24T14:24:26Z</time></trkpt><trkpt lat="44.407413834143256" lon="8.897751407027684"><ele>17.0</ele><time>2026-04-24T14:24:28Z</time></trkpt><trkpt lat="44.40741341927524" lon="8.897624988119254"><ele>17.0</ele><time>2026-04-24T14:24:30Z</time></trkpt><trkpt lat="44.407426301041866" lon="8.89748724736944"><ele>17.0</ele><time>2026-04-24T14:24:32Z</time></trkpt><trkpt lat="44.40744419363586" lon="8.897360731856363"><ele>17.0</ele><time>2026-04-24T14:24:34Z</time></trkpt><trkpt lat="44.407481035507296" lon="8.897206917551001"><ele>16.0</ele><time>2026-04-24T14:24:36Z</time></trkpt><trkpt lat="44.4075276947978" lon="8.897023078398842"><ele>15.0</ele><time>2026-04-24T14:24:38Z</time></trkpt><trkpt lat="44.40755777433331" lon="8.896922225974581"><ele>14.0</ele><time>2026-04-24T14:24:39Z</time></trkpt><trkpt lat="44.407606035649145" lon="8.896826913515602"><ele>13.0</ele><time>2026-04-24T14:24:40Z</time></trkpt><trkpt lat="44.4076385605751" lon="8.89672495496685"><ele>12.0</ele><time>2026-04-24T14:24:41Z</time></trkpt><trkpt lat="44.40767652477705" lon="8.896605944860013"><ele>11.0</ele><time>2026-04-24T14:24:42Z</time></trkpt><trkpt lat="44.40771916325193" lon="8.896470503846386"><ele>10.0</ele><time>2026-04-24T14:24:43Z</time></trkpt><trkpt lat="44.40777180435376" lon="8.89632360686072"><ele>9.0</ele><time>2026-04-24T14:24:44Z</time></trkpt><trkpt lat="44.40782283363495" lon="8.896181207503796"><ele>8.0</ele><time>2026-04-24T14:24:45Z</time></trkpt><trkpt lat="44.407871883494686" lon="8.896043246833715"><ele>7.0</ele><time>2026-04-24T14:24:46Z</time></trkpt><trkpt lat="44.40791565550194" lon="8.895913666203889"><ele>6.8</ele><time>2026-04-24T14:24:47Z</time></trkpt><trkpt lat="44.40795688905318" lon="8.895782886625513"><ele>6.6</ele><time>2026-04-24T14:24:48Z</time></trkpt><trkpt lat="44.4080000813648" lon="8.895638183708229"><ele>6.3999999999999995</ele><time>2026-04-24T14:24:49Z</time></trkpt><trkpt lat="44.408036617327376" lon="8.89550558551651"><ele>6.199999999999999</ele><time>2026-04-24T14:24:50Z</time></trkpt><trkpt lat="44.408070747466894" lon="8.895376997578971"><ele>6.0</ele><time>2026-04-24T14:24:51Z</time></trkpt><trkpt lat="44.40810578963273" lon="8.895233191099924"><ele>6.6</ele><time>2026-04-24T14:24:52Z</time></trkpt><trkpt lat="44.408137523115464" lon="8.895095447977448"><ele>7.199999999999999</ele><time>2026-04-24T14:24:53Z</time></trkpt><trkpt lat="44.40816964822713" lon="8.89495592429578"><ele>7.800000000000001</ele><time>2026-04-24T14:24:54Z</time></trkpt><trkpt lat="44.408202809860605" lon="8.894811899440539"><ele>8.4</ele><time>2026-04-24T14:24:55Z</time></trkpt><trkpt lat="44.40823615313663" lon="8.894666614575902"><ele>9.0</ele><time>2026-04-24T14:24:56Z</time></trkpt><trkpt lat="44.40826202545469" lon="8.894511868133419"><ele>9.0</ele><time>2026-04-24T14:24:57Z</time></trkpt><trkpt lat="44.408304595210744" lon="8.894345302597378"><ele>9.0</ele><time>2026-04-24T14:24:58Z</time></trkpt><trkpt lat="44.40835025099634" lon="8.894168716709633"><ele>9.0</ele><time>2026-04-24T14:24:59Z</time></trkpt><trkpt lat="44.40838934785909" lon="8.894001636318265"><ele>9.0</ele><time>2026-04-24T14:25:00Z</time></trkpt><trkpt lat="44.40842915169845" lon="8.893852009182968"><ele>8.4</ele><time>2026-04-24T14:25:01Z</time></trkpt><trkpt lat="44.4084619004058" lon="8.89370801831596"><ele>7.800000000000001</ele><time>2026-04-24T14:25:02Z</time></trkpt><trkpt lat="44.40849389484452" lon="8.89355888664276"><ele>7.199999999999999</ele><time>2026-04-24T14:25:03Z</time></trkpt><trkpt lat="44.40852723440696" lon="8.893414787677829"><ele>6.6</ele><time>2026-04-24T14:25:04Z</time></trkpt><trkpt lat="44.408564939535175" lon="8.893269059519167"><ele>6.0</ele><time>2026-04-24T14:25:05Z</time></trkpt><trkpt lat="44.40859755424544" lon="8.893115592364632"><ele>6.0</ele><time>2026-04-24T14:25:06Z</time></trkpt><trkpt lat="44.4086369702058" lon="8.892966095924058"><ele>6.0</ele><time>2026-04-24T14:25:07Z</time></trkpt><trkpt lat="44.40867189705747" lon="8.892811738026483"><ele>6.0</ele><time>2026-04-24T14:25:08Z</time></trkpt><trkpt lat="44.40871020597274" lon="8.892656858819791"><ele>6.0</ele><time>2026-04-24T14:25:09Z</time></trkpt><trkpt lat="44.40875024307483" lon="8.892499142557606"><ele>5.75</ele><time>2026-04-24T14:25:10Z</time></trkpt><trkpt lat="44.40878947091087" lon="8.892341114149941"><ele>5.5</ele><time>2026-04-24T14:25:11Z</time></trkpt><trkpt lat="44.40882967464258" lon="8.892182685300362"><ele>5.25</ele><time>2026-04-24T14:25:12Z</time></trkpt><trkpt lat="44.4088707224078" lon="8.892022030408775"><ele>5.0</ele><time>2026-04-24T14:25:13Z</time></trkpt><trkpt lat="44.408911436763084" lon="8.89186209588177"><ele>5.6</ele><time>2026-04-24T14:25:14Z</time></trkpt><trkpt lat="44.408948357110305" lon="8.891714371165904"><ele>6.2</ele><time>2026-04-24T14:25:15Z</time></trkpt><trkpt lat="44.408984100045586" lon="8.891572589158107"><ele>6.800000000000001</ele><time>2026-04-24T14:25:16Z</time></trkpt><trkpt lat="44.409018394694904" lon="8.891432284582166"><ele>7.4</ele><time>2026-04-24T14:25:17Z</time></trkpt><trkpt lat="44.40905117435184" lon="8.891300688144158"><ele>8.0</ele><time>2026-04-24T14:25:18Z</time></trkpt><trkpt lat="44.40908381393412" lon="8.891170924975071"><ele>8.0</ele><time>2026-04-24T14:25:19Z</time></trkpt><trkpt lat="44.409114730937" lon="8.891038032345508"><ele>8.0</ele><time>2026-04-24T14:25:20Z</time></trkpt><trkpt lat="44.40914589017917" lon="8.890903935583255"><ele>8.0</ele><time>2026-04-24T14:25:21Z</time></trkpt><trkpt lat="44.409176043151575" lon="8.890767306961022"><ele>8.0</ele><time>2026-04-24T14:25:22Z</time></trkpt><trkpt lat="44.4092070310803" lon="8.89063273336508"><ele>8.0</ele><time>2026-04-24T14:25:23Z</time></trkpt><trkpt lat="44.409241880217586" lon="8.890498107899857"><ele>7.800000000000001</ele><time>2026-04-24T14:25:24Z</time></trkpt><trkpt lat="44.40927419558403" lon="8.890361156561703"><ele>7.6000000000000005</ele><time>2026-04-24T14:25:25Z</time></trkpt><trkpt lat="44.40930728069988" lon="8.890228602618892"><ele>7.3999999999999995</ele><time>2026-04-24T14:25:26Z</time></trkpt><trkpt lat="44.40933921487175" lon="8.890094648520334"><ele>7.199999999999999</ele><time>2026-04-24T14:25:27Z</time></trkpt><trkpt lat="44.409371449764706" lon="8.889957556058242"><ele>7.0</ele><time>2026-04-24T14:25:28Z</time></trkpt><trkpt lat="44.409403736844766" lon="8.889820580478087"><ele>6.6</ele><time>2026-04-24T14:25:29Z</time></trkpt><trkpt lat="44.409438550615164" lon="8.889686142206914"><ele>6.199999999999999</ele><time>2026-04-24T14:25:30Z</time></trkpt><trkpt lat="44.40947018954979" lon="8.889546788249312"><ele>5.8</ele><time>2026-04-24T14:25:31Z</time></trkpt><trkpt lat="44.409504318176076" lon="8.889408709638058"><ele>5.4</ele><time>2026-04-24T14:25:32Z</time></trkpt><trkpt lat="44.4095379831339" lon="8.889270731406066"><ele>5.0</ele><time>2026-04-24T14:25:33Z</time></trkpt><trkpt lat="44.409571179766324" lon="8.889128161953662"><ele>5.0</ele><time>2026-04-24T14:25:34Z</time></trkpt><trkpt lat="44.40960460381735" lon="8.88898747368122"><ele>5.0</ele><time>2026-04-24T14:25:35Z</time></trkpt><trkpt lat="44.40963810112876" lon="8.888845981053555"><ele>5.0</ele><time>2026-04-24T14:25:36Z</time></trkpt><trkpt lat="44.40967104579309" lon="8.888703415627942"><ele>5.0</ele><time>2026-04-24T14:25:37Z</time></trkpt><trkpt lat="44.40970512323102" lon="8.888560054086232"><ele>5.0</ele><time>2026-04-24T14:25:38Z</time></trkpt><trkpt lat="44.40974017096132" lon="8.8884143983517"><ele>5.6</ele><time>2026-04-24T14:25:39Z</time></trkpt><trkpt lat="44.40977459019505" lon="8.8882752861736"><ele>6.2</ele><time>2026-04-24T14:25:40Z</time></trkpt><trkpt lat="44.40980483330349" lon="8.888144455503328"><ele>6.800000000000001</ele><time>2026-04-24T14:25:41Z</time></trkpt><trkpt lat="44.4098372983623" lon="8.888010360979283"><ele>7.4</ele><time>2026-04-24T14:25:42Z</time></trkpt><trkpt lat="44.409870165268444" lon="8.887872692776623"><ele>8.0</ele><time>2026-04-24T14:25:43Z</time></trkpt><trkpt lat="44.40990320177596" lon="8.887731253481862"><ele>7.800000000000001</ele><time>2026-04-24T14:25:44Z</time></trkpt><trkpt lat="44.40993583798069" lon="8.887587118782264"><ele>7.6000000000000005</ele><time>2026-04-24T14:25:45Z</time></trkpt><trkpt lat="44.409965743592835" lon="8.887443799632116"><ele>7.3999999999999995</ele><time>2026-04-24T14:25:46Z</time></trkpt><trkpt lat="44.40999622495344" lon="8.887300306762507"><ele>7.199999999999999</ele><time>2026-04-24T14:25:47Z</time></trkpt><trkpt lat="44.410025911221446" lon="8.887157156891842"><ele>7.0</ele><time>2026-04-24T14:25:48Z</time></trkpt><trkpt lat="44.4100563158901" lon="8.887012123329427"><ele>7.0</ele><time>2026-04-24T14:25:49Z</time></trkpt><trkpt lat="44.41008585149599" lon="8.886862980390942"><ele>7.0</ele><time>2026-04-24T14:25:50Z</time></trkpt><trkpt lat="44.410115247536" lon="8.886713265556102"><ele>7.0</ele><time>2026-04-24T14:25:51Z</time></trkpt><trkpt lat="44.41014495813355" lon="8.886556202515777"><ele>7.0</ele><time>2026-04-24T14:25:52Z</time></trkpt><trkpt lat="44.41017464182363" lon="8.886400384618307"><ele>6.75</ele><time>2026-04-24T14:25:53Z</time></trkpt><trkpt lat="44.41020528226754" lon="8.88624234367254"><ele>6.5</ele><time>2026-04-24T14:25:54Z</time></trkpt><trkpt lat="44.41023332483888" lon="8.886080626876522"><ele>6.25</ele><time>2026-04-24T14:25:55Z</time></trkpt><trkpt lat="44.410260478520854" lon="8.885919957073904"><ele>6.0</ele><time>2026-04-24T14:25:56Z</time></trkpt><trkpt lat="44.41028771416369" lon="8.885765817948926"><ele>5.5</ele><time>2026-04-24T14:25:57Z</time></trkpt><trkpt lat="44.41031743001581" lon="8.88560757727287"><ele>5.0</ele><time>2026-04-24T14:25:58Z</time></trkpt><trkpt lat="44.41034939250091" lon="8.885442966401635"><ele>4.5</ele><time>2026-04-24T14:25:59Z</time></trkpt><trkpt lat="44.41038081591736" lon="8.88527954289187"><ele>4.0</ele><time>2026-04-24T14:26:00Z</time></trkpt><trkpt lat="44.41041312221288" lon="8.885120665889872"><ele>4.0</ele><time>2026-04-24T14:26:01Z</time></trkpt><trkpt lat="44.41044762959865" lon="8.8849618735995"><ele>4.0</ele><time>2026-04-24T14:26:02Z</time></trkpt><trkpt lat="44.41048215752951" lon="8.884798225218248"><ele>4.0</ele><time>2026-04-24T14:26:03Z</time></trkpt><trkpt lat="44.41051952959776" lon="8.88463623267641"><ele>4.0</ele><time>2026-04-24T14:26:04Z</time></trkpt><trkpt lat="44.410553521555414" lon="8.88447317425458"><ele>4.75</ele><time>2026-04-24T14:26:05Z</time></trkpt><trkpt lat="44.41058646410014" lon="8.884309172076943"><ele>5.5</ele><time>2026-04-24T14:26:06Z</time></trkpt><trkpt lat="44.4106195254624" lon="8.88414561299887"><ele>6.25</ele><time>2026-04-24T14:26:07Z</time></trkpt><trkpt lat="44.410655146976836" lon="8.883968610650607"><ele>7.0</ele><time>2026-04-24T14:26:08Z</time></trkpt><trkpt lat="44.410692716564895" lon="8.883791022594654"><ele>7.0</ele><time>2026-04-24T14:26:09Z</time></trkpt><trkpt lat="44.41073053999097" lon="8.88361038245772"><ele>7.0</ele><time>2026-04-24T14:26:10Z</time></trkpt><trkpt lat="44.41076785058243" lon="8.883445952779741"><ele>7.0</ele><time>2026-04-24T14:26:11Z</time></trkpt><trkpt lat="44.410804908067504" lon="8.883272984334841"><ele>7.0</ele><time>2026-04-24T14:26:12Z</time></trkpt><trkpt lat="44.41084466285366" lon="8.883097620710375"><ele>7.25</ele><time>2026-04-24T14:26:13Z</time></trkpt><trkpt lat="44.41088490517796" lon="8.882917109566334"><ele>7.5</ele><time>2026-04-24T14:26:14Z</time></trkpt><trkpt lat="44.41092736535828" lon="8.882730788908432"><ele>7.75</ele><time>2026-04-24T14:26:15Z</time></trkpt><trkpt lat="44.41097210276574" lon="8.882543593528862"><ele>8.0</ele><time>2026-04-24T14:26:16Z</time></trkpt><trkpt lat="44.411013143937566" lon="8.88236736507037"><ele>8.25</ele><time>2026-04-24T14:26:17Z</time></trkpt><trkpt lat="44.41105527191657" lon="8.882195930407876"><ele>8.5</ele><time>2026-04-24T14:26:18Z</time></trkpt><trkpt lat="44.411100733808766" lon="8.88202245393282"><ele>8.75</ele><time>2026-04-24T14:26:19Z</time></trkpt><trkpt lat="44.411145239286405" lon="8.881839585039446"><ele>9.0</ele><time>2026-04-24T14:26:20Z</time></trkpt><trkpt lat="44.411191271694236" lon="8.881650935791955"><ele>8.25</ele><time>2026-04-24T14:26:21Z</time></trkpt><trkpt lat="44.411234682609646" lon="8.881469033165423"><ele>7.5</ele><time>2026-04-24T14:26:22Z</time></trkpt><trkpt lat="44.411278143523205" lon="8.881292351824882"><ele>6.75</ele><time>2026-04-24T14:26:23Z</time></trkpt><trkpt lat="44.411322537491046" lon="8.881111895148704"><ele>6.0</ele><time>2026-04-24T14:26:24Z</time></trkpt><trkpt lat="44.411367416244076" lon="8.88093448368133"><ele>7.0</ele><time>2026-04-24T14:26:25Z</time></trkpt><trkpt lat="44.41141412291209" lon="8.880749563253769"><ele>8.0</ele><time>2026-04-24T14:26:26Z</time></trkpt><trkpt lat="44.41146168344154" lon="8.880557612085031"><ele>9.0</ele><time>2026-04-24T14:26:27Z</time></trkpt><trkpt lat="44.41151177160286" lon="8.880360840720083"><ele>10.0</ele><time>2026-04-24T14:26:28Z</time></trkpt><trkpt lat="44.41155868738237" lon="8.880174387702045"><ele>9.5</ele><time>2026-04-24T14:26:29Z</time></trkpt><trkpt lat="44.41161077700709" lon="8.879995019978754"><ele>9.0</ele><time>2026-04-24T14:26:30Z</time></trkpt><trkpt lat="44.41165771206744" lon="8.879806310269172"><ele>8.5</ele><time>2026-04-24T14:26:31Z</time></trkpt><trkpt lat="44.411704672356876" lon="8.879615602141486"><ele>8.0</ele><time>2026-04-24T14:26:32Z</time></trkpt><trkpt lat="44.411752272294756" lon="8.87942818780108"><ele>7.25</ele><time>2026-04-24T14:26:33Z</time></trkpt><trkpt lat="44.411799266254256" lon="8.879243294784928"><ele>6.5</ele><time>2026-04-24T14:26:34Z</time></trkpt><trkpt lat="44.411848578717915" lon="8.879056623880697"><ele>5.75</ele><time>2026-04-24T14:26:35Z</time></trkpt><trkpt lat="44.41189803146477" lon="8.878863562420689"><ele>5.0</ele><time>2026-04-24T14:26:36Z</time></trkpt><trkpt lat="44.411944875083684" lon="8.878678595546297"><ele>5.0</ele><time>2026-04-24T14:26:37Z</time></trkpt><trkpt lat="44.41199116535187" lon="8.878497956240247"><ele>5.0</ele><time>2026-04-24T14:26:38Z</time></trkpt><trkpt lat="44.412035235068636" lon="8.878315043478727"><ele>5.0</ele><time>2026-04-24T14:26:39Z</time></trkpt><trkpt lat="44.412081820704444" lon="8.878131848433247"><ele>5.0</ele><time>2026-04-24T14:26:40Z</time></trkpt><trkpt lat="44.412129303694826" lon="8.877946797678986"><ele>5.0</ele><time>2026-04-24T14:26:41Z</time></trkpt><trkpt lat="44.41217798338268" lon="8.877758940905323"><ele>5.0</ele><time>2026-04-24T14:26:42Z</time></trkpt><trkpt lat="44.41222419179405" lon="8.877581404110526"><ele>5.0</ele><time>2026-04-24T14:26:43Z</time></trkpt><trkpt lat="44.412270958725394" lon="8.877402907964358"><ele>5.0</ele><time>2026-04-24T14:26:44Z</time></trkpt><trkpt lat="44.412317020620996" lon="8.877218556249023"><ele>5.0</ele><time>2026-04-24T14:26:45Z</time></trkpt><trkpt lat="44.41236568506662" lon="8.877033373194568"><ele>5.0</ele><time>2026-04-24T14:26:46Z</time></trkpt><trkpt lat="44.41241149266146" lon="8.876853169620041"><ele>5.0</ele><time>2026-04-24T14:26:47Z</time></trkpt><trkpt lat="44.41245645545971" lon="8.876676132165606"><ele>5.0</ele><time>2026-04-24T14:26:48Z</time></trkpt><trkpt lat="44.412500132946995" lon="8.8764967550177"><ele>6.0</ele><time>2026-04-24T14:26:49Z</time></trkpt><trkpt lat="44.41254428390781" lon="8.876315785485009"><ele>7.0</ele><time>2026-04-24T14:26:50Z</time></trkpt><trkpt lat="44.4125833597758" lon="8.876145982935114"><ele>8.0</ele><time>2026-04-24T14:26:51Z</time></trkpt><trkpt lat="44.41261827108377" lon="8.875969909883723"><ele>9.0</ele><time>2026-04-24T14:26:52Z</time></trkpt><trkpt lat="44.41265317693313" lon="8.875789768575498"><ele>9.0</ele><time>2026-04-24T14:26:53Z</time></trkpt><trkpt lat="44.41268880429903" lon="8.875602999542242"><ele>9.0</ele><time>2026-04-24T14:26:54Z</time></trkpt><trkpt lat="44.412721783156364" lon="8.875424941476723"><ele>9.0</ele><time>2026-04-24T14:26:55Z</time></trkpt><trkpt lat="44.41275254928684" lon="8.875240065377426"><ele>9.0</ele><time>2026-04-24T14:26:56Z</time></trkpt><trkpt lat="44.412778265601474" lon="8.875048302848429"><ele>9.0</ele><time>2026-04-24T14:26:57Z</time></trkpt><trkpt lat="44.41279940799962" lon="8.874862278385352"><ele>9.0</ele><time>2026-04-24T14:26:58Z</time></trkpt><trkpt lat="44.41282000704017" lon="8.874678246113014"><ele>9.0</ele><time>2026-04-24T14:26:59Z</time></trkpt><trkpt lat="44.41283741852249" lon="8.87449810206846"><ele>9.0</ele><time>2026-04-24T14:27:00Z</time></trkpt><trkpt lat="44.412853816420466" lon="8.874313999938279"><ele>8.5</ele><time>2026-04-24T14:27:01Z</time></trkpt><trkpt lat="44.412867399953086" lon="8.874140352701504"><ele>8.0</ele><time>2026-04-24T14:27:02Z</time></trkpt><trkpt lat="44.4128819529268" lon="8.873961954115707"><ele>7.5</ele><time>2026-04-24T14:27:03Z</time></trkpt><trkpt lat="44.412898148394504" lon="8.873783804169806"><ele>7.0</ele><time>2026-04-24T14:27:04Z</time></trkpt><trkpt lat="44.41291271447826" lon="8.8736139852691"><ele>7.0</ele><time>2026-04-24T14:27:05Z</time></trkpt><trkpt lat="44.412925122460656" lon="8.873441493205128"><ele>7.0</ele><time>2026-04-24T14:27:06Z</time></trkpt><trkpt lat="44.412940018183484" lon="8.87326419820214"><ele>7.0</ele><time>2026-04-24T14:27:07Z</time></trkpt><trkpt lat="44.41295324397493" lon="8.873092702956546"><ele>7.0</ele><time>2026-04-24T14:27:08Z</time></trkpt><trkpt lat="44.41296930249519" lon="8.872929676081732"><ele>6.75</ele><time>2026-04-24T14:27:09Z</time></trkpt><trkpt lat="44.41298646388554" lon="8.872767868583711"><ele>6.5</ele><time>2026-04-24T14:27:10Z</time></trkpt><trkpt lat="44.41300348894583" lon="8.872595730016283"><ele>6.25</ele><time>2026-04-24T14:27:11Z</time></trkpt><trkpt lat="44.41301982468655" lon="8.872418306644871"><ele>6.0</ele><time>2026-04-24T14:27:12Z</time></trkpt><trkpt lat="44.41303762774021" lon="8.872244754629305"><ele>5.75</ele><time>2026-04-24T14:27:13Z</time></trkpt><trkpt lat="44.41306080087411" lon="8.872068349348076"><ele>5.5</ele><time>2026-04-24T14:27:14Z</time></trkpt><trkpt lat="44.41308631597026" lon="8.871892382247804"><ele>5.25</ele><time>2026-04-24T14:27:15Z</time></trkpt><trkpt lat="44.41311499584417" lon="8.871718591416004"><ele>5.0</ele><time>2026-04-24T14:27:16Z</time></trkpt><trkpt lat="44.41314274425897" lon="8.871538801344112"><ele>5.0</ele><time>2026-04-24T14:27:17Z</time></trkpt><trkpt lat="44.41317251365578" lon="8.871370558672036"><ele>5.0</ele><time>2026-04-24T14:27:18Z</time></trkpt><trkpt lat="44.41320594898313" lon="8.87119645047507"><ele>5.0</ele><time>2026-04-24T14:27:19Z</time></trkpt><trkpt lat="44.41324244454561" lon="8.87102367828787"><ele>5.0</ele><time>2026-04-24T14:27:20Z</time></trkpt><trkpt lat="44.413277736284066" lon="8.870855615347562"><ele>5.0</ele><time>2026-04-24T14:27:21Z</time></trkpt><trkpt lat="44.413316985634744" lon="8.870673431488"><ele>5.0</ele><time>2026-04-24T14:27:22Z</time></trkpt><trkpt lat="44.41335640180635" lon="8.87049166663408"><ele>5.0</ele><time>2026-04-24T14:27:23Z</time></trkpt><trkpt lat="44.41339666404007" lon="8.870322963805336"><ele>5.0</ele><time>2026-04-24T14:27:24Z</time></trkpt><trkpt lat="44.41343906624237" lon="8.87014882989997"><ele>4.75</ele><time>2026-04-24T14:27:25Z</time></trkpt><trkpt lat="44.4134816369045" lon="8.869966471196074"><ele>4.5</ele><time>2026-04-24T14:27:26Z</time></trkpt><trkpt lat="44.41352579463604" lon="8.869795616765037"><ele>4.25</ele><time>2026-04-24T14:27:27Z</time></trkpt><trkpt lat="44.41357242006443" lon="8.869610860086553"><ele>4.0</ele><time>2026-04-24T14:27:28Z</time></trkpt><trkpt lat="44.413624170171396" lon="8.86942544514704"><ele>3.75</ele><time>2026-04-24T14:27:29.001Z</time></trkpt><trkpt lat="44.41367477273608" lon="8.869250812447692"><ele>3.5</ele><time>2026-04-24T14:27:30.001Z</time></trkpt><trkpt lat="44.413722273956175" lon="8.869079720722787"><ele>3.25</ele><time>2026-04-24T14:27:31Z</time></trkpt><trkpt lat="44.4137733609098" lon="8.868903497944492"><ele>3.0</ele><time>2026-04-24T14:27:32Z</time></trkpt><trkpt lat="44.41381936279767" lon="8.868739764011146"><ele>3.5</ele><time>2026-04-24T14:27:33Z</time></trkpt><trkpt lat="44.41386201655992" lon="8.868587541985626"><ele>4.0</ele><time>2026-04-24T14:27:34Z</time></trkpt><trkpt lat="44.413904555340594" lon="8.86843079844716"><ele>4.5</ele><time>2026-04-24T14:27:35Z</time></trkpt><trkpt lat="44.413943055510536" lon="8.868275188819155"><ele>5.0</ele><time>2026-04-24T14:27:36Z</time></trkpt><trkpt lat="44.41397815800004" lon="8.868121727068639"><ele>5.4</ele><time>2026-04-24T14:27:37Z</time></trkpt><trkpt lat="44.41401580320179" lon="8.867978134012112"><ele>5.8</ele><time>2026-04-24T14:27:38Z</time></trkpt><trkpt lat="44.41404964060787" lon="8.86783142897735"><ele>6.199999999999999</ele><time>2026-04-24T14:27:39Z</time></trkpt><trkpt lat="44.414084872406335" lon="8.867692758615972"><ele>6.6</ele><time>2026-04-24T14:27:40Z</time></trkpt><trkpt lat="44.41411846142191" lon="8.867557991634863"><ele>7.0</ele><time>2026-04-24T14:27:41Z</time></trkpt><trkpt lat="44.414149340441796" lon="8.86742976670496"><ele>7.6</ele><time>2026-04-24T14:27:42Z</time></trkpt><trkpt lat="44.414180025247035" lon="8.86729273092056"><ele>8.2</ele><time>2026-04-24T14:27:43Z</time></trkpt><trkpt lat="44.41419558270774" lon="8.867162625733993"><ele>8.8</ele><time>2026-04-24T14:27:44Z</time></trkpt><trkpt lat="44.4142201008977" lon="8.867037331457754"><ele>9.4</ele><time>2026-04-24T14:27:45Z</time></trkpt><trkpt lat="44.414236927067286" lon="8.866910971380557"><ele>10.0</ele><time>2026-04-24T14:27:46Z</time></trkpt><trkpt lat="44.414257529202956" lon="8.866790609634378"><ele>10.666666666666668</ele><time>2026-04-24T14:27:47Z</time></trkpt><trkpt lat="44.41427590545497" lon="8.866670098091593"><ele>11.333333333333334</ele><time>2026-04-24T14:27:48Z</time></trkpt><trkpt lat="44.41429683703028" lon="8.866552159720133"><ele>12.0</ele><time>2026-04-24T14:27:49Z</time></trkpt><trkpt lat="44.41432092607316" lon="8.86643157112908"><ele>12.666666666666668</ele><time>2026-04-24T14:27:50Z</time></trkpt><trkpt lat="44.414350653510915" lon="8.866322899995161"><ele>13.333333333333334</ele><time>2026-04-24T14:27:51Z</time></trkpt><trkpt lat="44.41438932706662" lon="8.866225096863584"><ele>14.0</ele><time>2026-04-24T14:27:52Z</time></trkpt><trkpt lat="44.41443708049742" lon="8.866144447700465"><ele>14.000000000000002</ele><time>2026-04-24T14:27:53Z</time></trkpt><trkpt lat="44.414504054064885" lon="8.866083701323573"><ele>14.0</ele><time>2026-04-24T14:27:54Z</time></trkpt><trkpt lat="44.41458277435964" lon="8.86603882162293"><ele>14.0</ele><time>2026-04-24T14:27:55Z</time></trkpt><trkpt lat="44.41467119864842" lon="8.866008829884162"><ele>14.0</ele><time>2026-04-24T14:27:56Z</time></trkpt><trkpt lat="44.41476140982544" lon="8.865979442424825"><ele>14.000000000000002</ele><time>2026-04-24T14:27:57Z</time></trkpt><trkpt lat="44.41482777351682" lon="8.865957199751202"><ele>14.0</ele><time>2026-04-24T14:27:58Z</time></trkpt><trkpt lat="44.41493096107758" lon="8.865844372218666"><ele>12.666666666666668</ele><time>2026-04-24T14:28:00Z</time></trkpt><trkpt lat="44.41500893706111" lon="8.865750138373548"><ele>11.333333333333334</ele><time>2026-04-24T14:28:02Z</time></trkpt><trkpt lat="44.41505782041205" lon="8.865678190146772"><ele>10.0</ele><time>2026-04-24T14:28:04Z</time></trkpt><trkpt lat="44.41511577727321" lon="8.865628994012734"><ele>8.666666666666668</ele><time>2026-04-24T14:28:08Z</time></trkpt><trkpt lat="44.41516909000165" lon="8.86557597747089"><ele>7.333333333333334</ele><time>2026-04-24T14:29:13Z</time></trkpt><trkpt lat="44.41526381021382" lon="8.865528428575841"><ele>6.0</ele><time>2026-04-24T14:29:15.001Z</time></trkpt><trkpt lat="44.415344756083094" lon="8.865431829183848"><ele>6.0</ele><time>2026-04-24T14:29:17.001Z</time></trkpt><trkpt lat="44.41536647589978" lon="8.865268682090802"><ele>6.0</ele><time>2026-04-24T14:29:19.001Z</time></trkpt><trkpt lat="44.415364955490276" lon="8.865172114435769"><ele>6.0</ele><time>2026-04-24T14:29:20.001Z</time></trkpt><trkpt lat="44.415355106138165" lon="8.865061341056853"><ele>6.0</ele><time>2026-04-24T14:29:21.001Z</time></trkpt><trkpt lat="44.41535739488053" lon="8.864928876528303"><ele>6.0</ele><time>2026-04-24T14:29:22.001Z</time></trkpt><trkpt lat="44.41535753301518" lon="8.864802404528055"><ele>6.0</ele><time>2026-04-24T14:29:23.001Z</time></trkpt><trkpt lat="44.4153618233133" lon="8.864694732591618"><ele>6.0</ele><time>2026-04-24T14:29:24.001Z</time></trkpt><trkpt lat="44.41536354466921" lon="8.864583737485164"><ele>6.0</ele><time>2026-04-24T14:29:25.001Z</time></trkpt><trkpt lat="44.41537255554775" lon="8.864451200063183"><ele>6.0</ele><time>2026-04-24T14:29:26.001Z</time></trkpt><trkpt lat="44.41538047230138" lon="8.864326771628685"><ele>6.0</ele><time>2026-04-24T14:29:27.001Z</time></trkpt><trkpt lat="44.415391509233935" lon="8.864209503548036"><ele>6.0</ele><time>2026-04-24T14:29:28.001Z</time></trkpt><trkpt lat="44.41540447365355" lon="8.864090550410975"><ele>6.0</ele><time>2026-04-24T14:29:29.001Z</time></trkpt><trkpt lat="44.41541082099091" lon="8.863962564683181"><ele>6.0</ele><time>2026-04-24T14:29:30.001Z</time></trkpt><trkpt lat="44.41542554225189" lon="8.863827240625058"><ele>6.0</ele><time>2026-04-24T14:29:31.001Z</time></trkpt><trkpt lat="44.41544081355138" lon="8.863690347655059"><ele>6.0</ele><time>2026-04-24T14:29:32.001Z</time></trkpt><trkpt lat="44.415453481959354" lon="8.8635550507978"><ele>6.0</ele><time>2026-04-24T14:29:33.001Z</time></trkpt><trkpt lat="44.41546448321583" lon="8.863408466022413"><ele>6.4</ele><time>2026-04-24T14:29:34.001Z</time></trkpt><trkpt lat="44.415479704768" lon="8.863258687308015"><ele>6.8</ele><time>2026-04-24T14:29:35.001Z</time></trkpt><trkpt lat="44.41549179094198" lon="8.863118687716257"><ele>7.200000000000001</ele><time>2026-04-24T14:29:36.001Z</time></trkpt><trkpt lat="44.4155073554186" lon="8.86296225946006"><ele>7.6000000000000005</ele><time>2026-04-24T14:29:37Z</time></trkpt><trkpt lat="44.41552208548226" lon="8.862806670481266"><ele>8.0</ele><time>2026-04-24T14:29:38Z</time></trkpt><trkpt lat="44.41553404257859" lon="8.862661864945581"><ele>9.8</ele><time>2026-04-24T14:29:39Z</time></trkpt><trkpt lat="44.415548079447134" lon="8.862502315820747"><ele>11.600000000000001</ele><time>2026-04-24T14:29:40Z</time></trkpt><trkpt lat="44.41556166006221" lon="8.862355799399795"><ele>13.399999999999999</ele><time>2026-04-24T14:29:41Z</time></trkpt><trkpt lat="44.41557349930193" lon="8.862203230925358"><ele>15.2</ele><time>2026-04-24T14:29:42Z</time></trkpt><trkpt lat="44.41559223771221" lon="8.862057698278706"><ele>17.0</ele><time>2026-04-24T14:29:43Z</time></trkpt><trkpt lat="44.41561870916185" lon="8.861930097325565"><ele>17.0</ele><time>2026-04-24T14:29:44Z</time></trkpt><trkpt lat="44.41564697650063" lon="8.86180557762466"><ele>17.0</ele><time>2026-04-24T14:29:45Z</time></trkpt><trkpt lat="44.41568565640183" lon="8.861658217594043"><ele>17.0</ele><time>2026-04-24T14:29:46Z</time></trkpt><trkpt lat="44.415732487576754" lon="8.861524283757529"><ele>17.0</ele><time>2026-04-24T14:29:47Z</time></trkpt><trkpt lat="44.41578326815648" lon="8.861399390129538"><ele>17.0</ele><time>2026-04-24T14:29:48Z</time></trkpt><trkpt lat="44.41584063204146" lon="8.861284116862052"><ele>15.8</ele><time>2026-04-24T14:29:49Z</time></trkpt><trkpt lat="44.415899481132186" lon="8.861158276761797"><ele>14.6</ele><time>2026-04-24T14:29:50Z</time></trkpt><trkpt lat="44.41596448468195" lon="8.861041288628522"><ele>13.4</ele><time>2026-04-24T14:29:51Z</time></trkpt><trkpt lat="44.41602796407493" lon="8.86092935945614"><ele>12.200000000000001</ele><time>2026-04-24T14:29:52Z</time></trkpt><trkpt lat="44.41609683633796" lon="8.860820051087604"><ele>11.0</ele><time>2026-04-24T14:29:53Z</time></trkpt><trkpt lat="44.41616580013971" lon="8.860707224775723"><ele>10.4</ele><time>2026-04-24T14:29:54Z</time></trkpt><trkpt lat="44.41624053032567" lon="8.860599342110874"><ele>9.8</ele><time>2026-04-24T14:29:55Z</time></trkpt><trkpt lat="44.41632235041429" lon="8.860493943408022"><ele>9.200000000000001</ele><time>2026-04-24T14:29:56Z</time></trkpt><trkpt lat="44.416406062550685" lon="8.860407540202411"><ele>8.600000000000001</ele><time>2026-04-24T14:29:57Z</time></trkpt><trkpt lat="44.41649004081889" lon="8.860308883884809"><ele>8.0</ele><time>2026-04-24T14:29:58Z</time></trkpt><trkpt lat="44.41657287890829" lon="8.860223564848656"><ele>7.6000000000000005</ele><time>2026-04-24T14:29:59Z</time></trkpt><trkpt lat="44.41666198272554" lon="8.860136399737291"><ele>7.200000000000001</ele><time>2026-04-24T14:30:00Z</time></trkpt><trkpt lat="44.416754772531164" lon="8.860050168033318"><ele>6.8</ele><time>2026-04-24T14:30:01Z</time></trkpt><trkpt lat="44.416846445259225" lon="8.859973288164484"><ele>6.4</ele><time>2026-04-24T14:30:02Z</time></trkpt><trkpt lat="44.41694011124718" lon="8.859892144897334"><ele>6.0</ele><time>2026-04-24T14:30:03Z</time></trkpt><trkpt lat="44.41703515994834" lon="8.859814388188573"><ele>6.0</ele><time>2026-04-24T14:30:04Z</time></trkpt><trkpt lat="44.417123881181425" lon="8.859752143127356"><ele>6.0</ele><time>2026-04-24T14:30:05Z</time></trkpt><trkpt lat="44.41721690533049" lon="8.859692373277557"><ele>6.0</ele><time>2026-04-24T14:30:06Z</time></trkpt><trkpt lat="44.41730368850111" lon="8.859643191950212"><ele>6.0</ele><time>2026-04-24T14:30:07Z</time></trkpt><trkpt lat="44.41737801974834" lon="8.859603567011058"><ele>6.0</ele><time>2026-04-24T14:30:08Z</time></trkpt><trkpt lat="44.41744540631599" lon="8.85956755413235"><ele>6.0</ele><time>2026-04-24T14:30:09Z</time></trkpt><trkpt lat="44.41754490816064" lon="8.859520332824118"><ele>8.0</ele><time>2026-04-24T14:30:11Z</time></trkpt><trkpt lat="44.41761228899372" lon="8.85949277586175"><ele>10.0</ele><time>2026-04-24T14:30:13Z</time></trkpt><trkpt lat="44.41769970484566" lon="8.859419073844933"><ele>12.0</ele><time>2026-04-24T14:30:40Z</time></trkpt><trkpt lat="44.41776154273183" lon="8.859390762748916"><ele>14.0</ele><time>2026-04-24T14:30:41Z</time></trkpt><trkpt lat="44.417836789351895" lon="8.859357007250956"><ele>16.0</ele><time>2026-04-24T14:30:42Z</time></trkpt><trkpt lat="44.41791545788534" lon="8.85934442598929"><ele>18.0</ele><time>2026-04-24T14:30:43Z</time></trkpt><trkpt lat="44.41799608853724" lon="8.859288900948705"><ele>16.6</ele><time>2026-04-24T14:30:44Z</time></trkpt><trkpt lat="44.41809057207311" lon="8.859266542854934"><ele>15.200000000000001</ele><time>2026-04-24T14:30:45Z</time></trkpt><trkpt lat="44.41818221768403" lon="8.859253265755944"><ele>13.8</ele><time>2026-04-24T14:30:46Z</time></trkpt><trkpt lat="44.41827732086999" lon="8.859243206654698"><ele>12.4</ele><time>2026-04-24T14:30:47Z</time></trkpt><trkpt lat="44.41837269049983" lon="8.859241618891465"><ele>11.0</ele><time>2026-04-24T14:30:48Z</time></trkpt><trkpt lat="44.418470914357485" lon="8.859244534516629"><ele>11.0</ele><time>2026-04-24T14:30:49Z</time></trkpt><trkpt lat="44.418570207534785" lon="8.859251438576113"><ele>11.0</ele><time>2026-04-24T14:30:50Z</time></trkpt><trkpt lat="44.418661659697406" lon="8.859256577213"><ele>11.0</ele><time>2026-04-24T14:30:51Z</time></trkpt><trkpt lat="44.418750278155805" lon="8.859259101542342"><ele>11.0</ele><time>2026-04-24T14:30:52Z</time></trkpt><trkpt lat="44.418830689306844" lon="8.859256690588948"><ele>11.0</ele><time>2026-04-24T14:30:53Z</time></trkpt><trkpt lat="44.41890095238637" lon="8.859253319599432"><ele>11.0</ele><time>2026-04-24T14:30:54Z</time></trkpt><trkpt lat="44.41902704449489" lon="8.859237111724532"><ele>11.4</ele><time>2026-04-24T14:30:56Z</time></trkpt><trkpt lat="44.419107508316124" lon="8.859223357725957"><ele>11.8</ele><time>2026-04-24T14:30:58Z</time></trkpt><trkpt lat="44.419214909596754" lon="8.859200153488391"><ele>12.200000000000001</ele><time>2026-04-24T14:31:00Z</time></trkpt><trkpt lat="44.419316601654145" lon="8.85916282214915"><ele>12.600000000000001</ele><time>2026-04-24T14:31:02Z</time></trkpt><trkpt lat="44.41937369108081" lon="8.859078761371974"><ele>13.0</ele><time>2026-04-24T14:31:04Z</time></trkpt><trkpt lat="44.41937731036469" lon="8.858965921637147"><ele>12.999999999999998</ele><time>2026-04-24T14:31:06Z</time></trkpt><trkpt lat="44.41938038343499" lon="8.858861628614049"><ele>13.0</ele><time>2026-04-24T14:31:08Z</time></trkpt><trkpt lat="44.41941383554737" lon="8.858705912117038"><ele>13.0</ele><time>2026-04-24T14:31:10Z</time></trkpt><trkpt lat="44.41944381365577" lon="8.858624856795208"><ele>13.0</ele><time>2026-04-24T14:31:11Z</time></trkpt><trkpt lat="44.41948425232558" lon="8.858538160956073"><ele>12.999999999999998</ele><time>2026-04-24T14:31:12Z</time></trkpt><trkpt lat="44.41952870127466" lon="8.858437503103337"><ele>13.0</ele><time>2026-04-24T14:31:13Z</time></trkpt><trkpt lat="44.41957673783524" lon="8.858330957038177"><ele>11.4</ele><time>2026-04-24T14:31:14Z</time></trkpt><trkpt lat="44.41962856120276" lon="8.85821960592996"><ele>9.8</ele><time>2026-04-24T14:31:15Z</time></trkpt><trkpt lat="44.41968299327342" lon="8.858114040954622"><ele>8.2</ele><time>2026-04-24T14:31:16Z</time></trkpt><trkpt lat="44.41974308008926" lon="8.858002955620483"><ele>6.6</ele><time>2026-04-24T14:31:17Z</time></trkpt><trkpt lat="44.41980363220543" lon="8.857884657613486"><ele>5.0</ele><time>2026-04-24T14:31:18Z</time></trkpt><trkpt lat="44.41986663370198" lon="8.857758786618179"><ele>5.0</ele><time>2026-04-24T14:31:19Z</time></trkpt><trkpt lat="44.41992847665898" lon="8.857635055765734"><ele>5.0</ele><time>2026-04-24T14:31:20Z</time></trkpt><trkpt lat="44.419984104426746" lon="8.857516946018837"><ele>5.0</ele><time>2026-04-24T14:31:21Z</time></trkpt><trkpt lat="44.42003660133322" lon="8.857390640607797"><ele>5.0</ele><time>2026-04-24T14:31:22Z</time></trkpt><trkpt lat="44.42008621334723" lon="8.857254537306474"><ele>5.0</ele><time>2026-04-24T14:31:23Z</time></trkpt><trkpt lat="44.42013469192289" lon="8.85711880933929"><ele>5.0</ele><time>2026-04-24T14:31:24Z</time></trkpt><trkpt lat="44.42018303771186" lon="8.856985636253258"><ele>5.0</ele><time>2026-04-24T14:31:25Z</time></trkpt><trkpt lat="44.42022556114241" lon="8.856856687870966"><ele>5.0</ele><time>2026-04-24T14:31:26Z</time></trkpt><trkpt lat="44.42027164179856" lon="8.856724426246211"><ele>5.0</ele><time>2026-04-24T14:31:27Z</time></trkpt><trkpt lat="44.42031127540188" lon="8.856588349085166"><ele>5.0</ele><time>2026-04-24T14:31:28Z</time></trkpt><trkpt lat="44.42035325392425" lon="8.856448299435815"><ele>5.2</ele><time>2026-04-24T14:31:29Z</time></trkpt><trkpt lat="44.42039496356717" lon="8.856306857964647"><ele>5.4</ele><time>2026-04-24T14:31:30Z</time></trkpt><trkpt lat="44.42043749741693" lon="8.856166958536164"><ele>5.6</ele><time>2026-04-24T14:31:31Z</time></trkpt><trkpt lat="44.42047682892247" lon="8.856027397068422"><ele>5.8</ele><time>2026-04-24T14:31:32Z</time></trkpt><trkpt lat="44.42051550917284" lon="8.855892324911684"><ele>6.0</ele><time>2026-04-24T14:31:33Z</time></trkpt><trkpt lat="44.42055531641322" lon="8.855752466609472"><ele>6.0</ele><time>2026-04-24T14:31:34Z</time></trkpt><trkpt lat="44.420596362563295" lon="8.855611139033048"><ele>6.0</ele><time>2026-04-24T14:31:35Z</time></trkpt><trkpt lat="44.420635149314606" lon="8.855463560269325"><ele>6.0</ele><time>2026-04-24T14:31:36Z</time></trkpt><trkpt lat="44.4206763323498" lon="8.85531756478686"><ele>6.0</ele><time>2026-04-24T14:31:37Z</time></trkpt><trkpt lat="44.42071821735718" lon="8.85516639351042"><ele>6.0</ele><time>2026-04-24T14:31:38Z</time></trkpt><trkpt lat="44.42075502294592" lon="8.855024011977264"><ele>6.0</ele><time>2026-04-24T14:31:39Z</time></trkpt><trkpt lat="44.420794553118284" lon="8.854884710875933"><ele>6.0</ele><time>2026-04-24T14:31:40.001Z</time></trkpt><trkpt lat="44.420833859767285" lon="8.854743122807516"><ele>6.0</ele><time>2026-04-24T14:31:41.001Z</time></trkpt><trkpt lat="44.42087207568886" lon="8.854594991071972"><ele>6.0</ele><time>2026-04-24T14:31:42.001Z</time></trkpt><trkpt lat="44.420907496085185" lon="8.854456934326796"><ele>6.0</ele><time>2026-04-24T14:31:43Z</time></trkpt><trkpt lat="44.42094522210758" lon="8.854316503726066"><ele>6.199999999999999</ele><time>2026-04-24T14:31:44Z</time></trkpt><trkpt lat="44.420983147389485" lon="8.854171939094833"><ele>6.3999999999999995</ele><time>2026-04-24T14:31:45Z</time></trkpt><trkpt lat="44.42101964402396" lon="8.854021657089124"><ele>6.6</ele><time>2026-04-24T14:31:46Z</time></trkpt><trkpt lat="44.42105640388142" lon="8.853869361339264"><ele>6.8</ele><time>2026-04-24T14:31:47Z</time></trkpt><trkpt lat="44.4210990430643" lon="8.853726253579909"><ele>7.0</ele><time>2026-04-24T14:31:48Z</time></trkpt><trkpt lat="44.421139716713654" lon="8.8535779400244"><ele>7.0</ele><time>2026-04-24T14:31:49Z</time></trkpt><trkpt lat="44.42118173539594" lon="8.853431183229853"><ele>6.999999999999999</ele><time>2026-04-24T14:31:50Z</time></trkpt><trkpt lat="44.42122159730448" lon="8.853294644202585"><ele>6.999999999999999</ele><time>2026-04-24T14:31:51Z</time></trkpt><trkpt lat="44.421260809265206" lon="8.853163033953752"><ele>7.0</ele><time>2026-04-24T14:31:52Z</time></trkpt><trkpt lat="44.42129682869335" lon="8.853040949196204"><ele>7.0</ele><time>2026-04-24T14:31:53Z</time></trkpt><trkpt lat="44.42133251523782" lon="8.852924062004364"><ele>7.0</ele><time>2026-04-24T14:31:54Z</time></trkpt><trkpt lat="44.421371080570914" lon="8.8527898054897"><ele>6.999999999999999</ele><time>2026-04-24T14:31:55Z</time></trkpt><trkpt lat="44.42141142757151" lon="8.85265142488991"><ele>6.999999999999999</ele><time>2026-04-24T14:31:56Z</time></trkpt><trkpt lat="44.421452114966385" lon="8.852519074998554"><ele>7.0</ele><time>2026-04-24T14:31:57Z</time></trkpt><trkpt lat="44.42148726748306" lon="8.852390964177024"><ele>7.0</ele><time>2026-04-24T14:31:58Z</time></trkpt><trkpt lat="44.421522128259554" lon="8.852273075911851"><ele>6.833333333333334</ele><time>2026-04-24T14:31:59Z</time></trkpt><trkpt lat="44.42155043297841" lon="8.852167416164182"><ele>6.666666666666667</ele><time>2026-04-24T14:32:00Z</time></trkpt><trkpt lat="44.42157283360479" lon="8.85205875216887"><ele>6.5</ele><time>2026-04-24T14:32:01Z</time></trkpt><trkpt lat="44.42159864013263" lon="8.851964965746104"><ele>6.333333333333334</ele><time>2026-04-24T14:32:02Z</time></trkpt><trkpt lat="44.42162373481389" lon="8.851878576369572"><ele>6.166666666666667</ele><time>2026-04-24T14:32:03Z</time></trkpt><trkpt lat="44.42166928553057" lon="8.851730649637835"><ele>6.0</ele><time>2026-04-24T14:32:05Z</time></trkpt><trkpt lat="44.42169083763665" lon="8.851647425236646"><ele>6.5</ele><time>2026-04-24T14:32:06Z</time></trkpt><trkpt lat="44.42172318568362" lon="8.851517420773893"><ele>7.0</ele><time>2026-04-24T14:32:08Z</time></trkpt><trkpt lat="44.42174138044655" lon="8.851429248118393"><ele>7.5</ele><time>2026-04-24T14:32:10Z</time></trkpt><trkpt lat="44.42176220514257" lon="8.85134179942264"><ele>8.0</ele><time>2026-04-24T14:32:12Z</time></trkpt><trkpt lat="44.42178719699986" lon="8.851232774889157"><ele>8.5</ele><time>2026-04-24T14:32:15Z</time></trkpt><trkpt lat="44.42181939262908" lon="8.85112765168938"><ele>9.0</ele><time>2026-04-24T14:32:18Z</time></trkpt><trkpt lat="44.42184450115698" lon="8.851042439835592"><ele>9.0</ele><time>2026-04-24T14:32:20Z</time></trkpt><trkpt lat="44.42186769889266" lon="8.850959849434455"><ele>9.0</ele><time>2026-04-24T14:32:22Z</time></trkpt><trkpt lat="44.42188983000122" lon="8.850863125808477"><ele>9.0</ele><time>2026-04-24T14:32:25Z</time></trkpt><trkpt lat="44.421914077521585" lon="8.850777943002912"><ele>9.0</ele><time>2026-04-24T14:32:27Z</time></trkpt><trkpt lat="44.42194293594343" lon="8.850689902908416"><ele>9.0</ele><time>2026-04-24T14:32:29Z</time></trkpt><trkpt lat="44.42197510899767" lon="8.850568876134533"><ele>9.0</ele><time>2026-04-24T14:32:32Z</time></trkpt><trkpt lat="44.42200735426969" lon="8.850451631840842"><ele>9.0</ele><time>2026-04-24T14:32:35Z</time></trkpt><trkpt lat="44.42202351749708" lon="8.850364057272166"><ele>9.0</ele><time>2026-04-24T14:32:38Z</time></trkpt><trkpt lat="44.42204800234657" lon="8.85025207515586"><ele>9.0</ele><time>2026-04-24T14:32:58Z</time></trkpt><trkpt lat="44.42207624440117" lon="8.850171071136979"><ele>9.0</ele><time>2026-04-24T14:33:00Z</time></trkpt><trkpt lat="44.42209377942864" lon="8.850074019273034"><ele>9.0</ele><time>2026-04-24T14:33:02Z</time></trkpt><trkpt lat="44.422126218703596" lon="8.849968150313106"><ele>9.0</ele><time>2026-04-24T14:33:04Z</time></trkpt><trkpt lat="44.42216363135629" lon="8.849855350133732"><ele>8.833333333333334</ele><time>2026-04-24T14:33:06Z</time></trkpt><trkpt lat="44.422187789620466" lon="8.849737964014274"><ele>8.666666666666666</ele><time>2026-04-24T14:33:08Z</time></trkpt><trkpt lat="44.422217709594996" lon="8.849638309218172"><ele>8.5</ele><time>2026-04-24T14:33:10Z</time></trkpt><trkpt lat="44.422247328344675" lon="8.849530164645143"><ele>8.333333333333332</ele><time>2026-04-24T14:33:13Z</time></trkpt><trkpt lat="44.42226922386859" lon="8.849429697281334"><ele>8.166666666666666</ele><time>2026-04-24T14:33:16Z</time></trkpt><trkpt lat="44.42229356122214" lon="8.84934779049132"><ele>8.0</ele><time>2026-04-24T14:33:19Z</time></trkpt><trkpt lat="44.42226994618653" lon="8.84924643512189"><ele>7.7142857142857135</ele><time>2026-04-24T14:33:44Z</time></trkpt><trkpt lat="44.42229024186573" lon="8.849154888723893"><ele>7.428571428571428</ele><time>2026-04-24T14:33:47Z</time></trkpt><trkpt lat="44.42232360620194" lon="8.849038451215863"><ele>7.142857142857142</ele><time>2026-04-24T14:33:50Z</time></trkpt><trkpt lat="44.42235937713325" lon="8.848954021810059"><ele>6.857142857142857</ele><time>2026-04-24T14:33:52Z</time></trkpt><trkpt lat="44.422383516118224" lon="8.848866998127686"><ele>6.571428571428571</ele><time>2026-04-24T14:33:55Z</time></trkpt><trkpt lat="44.42241684345958" lon="8.848781613235603"><ele>6.285714285714285</ele><time>2026-04-24T14:34:02Z</time></trkpt><trkpt lat="44.42244528943975" lon="8.848695682023"><ele>6.0</ele><time>2026-04-24T14:34:06Z</time></trkpt><trkpt lat="44.422475962330914" lon="8.848604753033664"><ele>6.0</ele><time>2026-04-24T14:34:09Z</time></trkpt><trkpt lat="44.422510671384885" lon="8.848498117699707"><ele>6.0</ele><time>2026-04-24T14:34:15Z</time></trkpt><trkpt lat="44.42254518673451" lon="8.848407812009885"><ele>6.0</ele><time>2026-04-24T14:34:23Z</time></trkpt><trkpt lat="44.42257632654315" lon="8.848311339018435"><ele>6.0</ele><time>2026-04-24T14:34:27Z</time></trkpt><trkpt lat="44.422607749581374" lon="8.848204799750185"><ele>6.0</ele><time>2026-04-24T14:34:32Z</time></trkpt><trkpt lat="44.422638507886454" lon="8.848110968404757"><ele>6.0</ele><time>2026-04-24T14:34:35Z</time></trkpt><trkpt lat="44.42266219510898" lon="8.848021210532027"><ele>5.833333333333333</ele><time>2026-04-24T14:34:38Z</time></trkpt><trkpt lat="44.42268091474989" lon="8.84792482524387"><ele>5.666666666666667</ele><time>2026-04-24T14:34:42Z</time></trkpt><trkpt lat="44.42270890583987" lon="8.847818714549554"><ele>5.5</ele><time>2026-04-24T14:34:46Z</time></trkpt><trkpt lat="44.42273425192733" lon="8.847723064615897"><ele>5.333333333333334</ele><time>2026-04-24T14:34:50Z</time></trkpt><trkpt lat="44.422767446576934" lon="8.84763537842216"><ele>5.166666666666667</ele><time>2026-04-24T14:34:54Z</time></trkpt><trkpt lat="44.422776088200024" lon="8.84743728736151"><ele>5.0</ele><time>2026-04-24T14:35:36Z</time></trkpt><trkpt lat="44.42280485034164" lon="8.84732569826213"><ele>5.0</ele><time>2026-04-24T14:35:42Z</time></trkpt><trkpt lat="44.422831139633296" lon="8.847221004613674"><ele>5.0</ele><time>2026-04-24T14:35:46.001Z</time></trkpt><trkpt lat="44.422858591105324" lon="8.847112744584782"><ele>5.0</ele><time>2026-04-24T14:35:48.001Z</time></trkpt><trkpt lat="44.4228832139505" lon="8.84700813790122"><ele>5.0</ele><time>2026-04-24T14:35:50.001Z</time></trkpt><trkpt lat="44.42291313783526" lon="8.846907987563844"><ele>5.0</ele><time>2026-04-24T14:35:52.001Z</time></trkpt><trkpt lat="44.42294024946132" lon="8.846827473547345"><ele>5.0</ele><time>2026-04-24T14:35:54.001Z</time></trkpt><trkpt lat="44.4229817848199" lon="8.84673716975477"><ele>5.833333333333334</ele><time>2026-04-24T14:36:12Z</time></trkpt><trkpt lat="44.4230147500008" lon="8.846623753799953"><ele>6.666666666666667</ele><time>2026-04-24T14:36:16Z</time></trkpt><trkpt lat="44.42304404154153" lon="8.846504023712212"><ele>7.5</ele><time>2026-04-24T14:36:26Z</time></trkpt><trkpt lat="44.42306873786045" lon="8.846412268588244"><ele>8.333333333333334</ele><time>2026-04-24T14:36:29Z</time></trkpt><trkpt lat="44.4230874145352" lon="8.846302965344215"><ele>9.166666666666668</ele><time>2026-04-24T14:36:48Z</time></trkpt><trkpt lat="44.42311204312352" lon="8.846200330001714"><ele>10.0</ele><time>2026-04-24T14:36:51Z</time></trkpt><trkpt lat="44.423137444936806" lon="8.846119411108601"><ele>10.0</ele><time>2026-04-24T14:36:53Z</time></trkpt><trkpt lat="44.42317076648374" lon="8.84602393496072"><ele>10.0</ele><time>2026-04-24T14:36:55Z</time></trkpt><trkpt lat="44.423203690557045" lon="8.84589059922988"><ele>10.0</ele><time>2026-04-24T14:36:57Z</time></trkpt><trkpt lat="44.423235967048846" lon="8.845760105236488"><ele>10.0</ele><time>2026-04-24T14:36:59Z</time></trkpt><trkpt lat="44.423273967312966" lon="8.845641238057794"><ele>10.0</ele><time>2026-04-24T14:37:01Z</time></trkpt><trkpt lat="44.423302346962" lon="8.845553211840333"><ele>10.0</ele><time>2026-04-24T14:37:02Z</time></trkpt><trkpt lat="44.42332688982143" lon="8.84546250331442"><ele>10.0</ele><time>2026-04-24T14:37:03Z</time></trkpt><trkpt lat="44.423347789659246" lon="8.845373561210133"><ele>10.0</ele><time>2026-04-24T14:37:04Z</time></trkpt><trkpt lat="44.42338086704819" lon="8.845243150797055"><ele>10.0</ele><time>2026-04-24T14:37:06Z</time></trkpt><trkpt lat="44.42341521875221" lon="8.845106583807107"><ele>10.0</ele><time>2026-04-24T14:37:08Z</time></trkpt><trkpt lat="44.423446898876406" lon="8.8449619805589"><ele>10.0</ele><time>2026-04-24T14:37:10Z</time></trkpt><trkpt lat="44.42348722737942" lon="8.844796094620067"><ele>9.857142857142858</ele><time>2026-04-24T14:37:12Z</time></trkpt><trkpt lat="44.42351288132419" lon="8.84470326717394"><ele>9.714285714285715</ele><time>2026-04-24T14:37:13Z</time></trkpt><trkpt lat="44.42353634526497" lon="8.844611561458493"><ele>9.571428571428573</ele><time>2026-04-24T14:37:14Z</time></trkpt><trkpt lat="44.42356289589298" lon="8.844520544030802"><ele>9.428571428571429</ele><time>2026-04-24T14:37:15Z</time></trkpt><trkpt lat="44.42359168553803" lon="8.844432402627486"><ele>9.285714285714286</ele><time>2026-04-24T14:37:16Z</time></trkpt><trkpt lat="44.42361772582826" lon="8.844332165206959"><ele>9.142857142857144</ele><time>2026-04-24T14:37:17Z</time></trkpt><trkpt lat="44.423653758263285" lon="8.844252461385697"><ele>9.0</ele><time>2026-04-24T14:37:18Z</time></trkpt><trkpt lat="44.42375375495008" lon="8.844135851000877"><ele>9.333333333333334</ele><time>2026-04-24T14:37:20Z</time></trkpt><trkpt lat="44.42382137993448" lon="8.844089964138849"><ele>9.666666666666666</ele><time>2026-04-24T14:37:21Z</time></trkpt><trkpt lat="44.42388916316071" lon="8.844065315454511"><ele>10.0</ele><time>2026-04-24T14:37:22Z</time></trkpt><trkpt lat="44.42395852972388" lon="8.844060300407435"><ele>10.333333333333332</ele><time>2026-04-24T14:37:23Z</time></trkpt><trkpt lat="44.424034160508874" lon="8.844062442694925"><ele>10.666666666666666</ele><time>2026-04-24T14:37:24Z</time></trkpt><trkpt lat="44.42411766830133" lon="8.844075359396957"><ele>11.0</ele><time>2026-04-24T14:37:25Z</time></trkpt><trkpt lat="44.42420034233209" lon="8.84408393277113"><ele>11.0</ele><time>2026-04-24T14:37:26Z</time></trkpt><trkpt lat="44.424282518164866" lon="8.844090752147762"><ele>11.0</ele><time>2026-04-24T14:37:27Z</time></trkpt><trkpt lat="44.424358321966494" lon="8.844095915357963"><ele>11.0</ele><time>2026-04-24T14:37:28Z</time></trkpt><trkpt lat="44.42442449277745" lon="8.844111613416084"><ele>11.0</ele><time>2026-04-24T14:37:29Z</time></trkpt><trkpt lat="44.42451162475157" lon="8.84411418863942"><ele>11.0</ele><time>2026-04-24T14:37:31Z</time></trkpt><trkpt lat="44.42458001203805" lon="8.844124436304927"><ele>11.0</ele><time>2026-04-24T14:37:34Z</time></trkpt><trkpt lat="44.42471266488976" lon="8.8441455369654"><ele>10.8</ele><time>2026-04-24T14:38:09Z</time></trkpt><trkpt lat="44.424822921482075" lon="8.844150131630919"><ele>10.600000000000001</ele><time>2026-04-24T14:38:11Z</time></trkpt><trkpt lat="44.42493666202267" lon="8.844156554827741"><ele>10.4</ele><time>2026-04-24T14:38:13Z</time></trkpt><trkpt lat="44.42506160288548" lon="8.84418089532612"><ele>10.2</ele><time>2026-04-24T14:38:15Z</time></trkpt><trkpt lat="44.425130925100724" lon="8.84419077674808"><ele>10.0</ele><time>2026-04-24T14:38:16Z</time></trkpt><trkpt lat="44.42521351226487" lon="8.844204530456132"><ele>10.0</ele><time>2026-04-24T14:38:17Z</time></trkpt><trkpt lat="44.42529346781451" lon="8.84421330864416"><ele>10.0</ele><time>2026-04-24T14:38:18Z</time></trkpt><trkpt lat="44.4253674465101" lon="8.844223029218051"><ele>10.0</ele><time>2026-04-24T14:38:19Z</time></trkpt><trkpt lat="44.425440485062666" lon="8.84423827183203"><ele>10.0</ele><time>2026-04-24T14:38:20Z</time></trkpt><trkpt lat="44.42551049331404" lon="8.844250367069955"><ele>10.0</ele><time>2026-04-24T14:38:21Z</time></trkpt><trkpt lat="44.42562758348612" lon="8.84425365373549"><ele>10.0</ele><time>2026-04-24T14:38:23Z</time></trkpt><trkpt lat="44.42569248488723" lon="8.844254021374358"><ele>9.6</ele><time>2026-04-24T14:38:24Z</time></trkpt><trkpt lat="44.425809729474445" lon="8.844224823525272"><ele>9.2</ele><time>2026-04-24T14:38:26Z</time></trkpt><trkpt lat="44.425901480063764" lon="8.844136460641609"><ele>8.8</ele><time>2026-04-24T14:38:28Z</time></trkpt><trkpt lat="44.425948167534166" lon="8.84400752856269"><ele>8.4</ele><time>2026-04-24T14:38:30Z</time></trkpt><trkpt lat="44.425977063690134" lon="8.843890000731761"><ele>8.0</ele><time>2026-04-24T14:38:32Z</time></trkpt><trkpt lat="44.42597399152396" lon="8.843786956692883"><ele>7.999999999999999</ele><time>2026-04-24T14:38:38Z</time></trkpt><trkpt lat="44.42594117555926" lon="8.843705058570938"><ele>8.0</ele><time>2026-04-24T14:39:01Z</time></trkpt><trkpt lat="44.42596810245498" lon="8.84358772982124"><ele>8.0</ele><time>2026-04-24T14:39:03Z</time></trkpt><trkpt lat="44.42600779095827" lon="8.843432415166639"><ele>8.0</ele><time>2026-04-24T14:39:05Z</time></trkpt><trkpt lat="44.426033454676435" lon="8.8433381579471"><ele>7.999999999999999</ele><time>2026-04-24T14:39:06Z</time></trkpt><trkpt lat="44.42609935739296" lon="8.843272126388353"><ele>8.0</ele><time>2026-04-24T14:39:07Z</time></trkpt><trkpt lat="44.42612210947193" lon="8.843179894041599"><ele>7.999999999999999</ele><time>2026-04-24T14:39:08Z</time></trkpt><trkpt lat="44.426162175748416" lon="8.84302037826683"><ele>8.0</ele><time>2026-04-24T14:39:10Z</time></trkpt><trkpt lat="44.426187233380574" lon="8.842922191270006"><ele>8.0</ele><time>2026-04-24T14:39:11Z</time></trkpt><trkpt lat="44.4262133788376" lon="8.842819741533111"><ele>8.0</ele><time>2026-04-24T14:39:12Z</time></trkpt><trkpt lat="44.4262402772976" lon="8.842714341051817"><ele>7.999999999999999</ele><time>2026-04-24T14:39:13Z</time></trkpt><trkpt lat="44.42626841406006" lon="8.84260408847812"><ele>8.0</ele><time>2026-04-24T14:39:14Z</time></trkpt><trkpt lat="44.42629824598365" lon="8.842487193320931"><ele>8.5</ele><time>2026-04-24T14:39:15Z</time></trkpt><trkpt lat="44.42633015389117" lon="8.842362163676782"><ele>9.0</ele><time>2026-04-24T14:39:16Z</time></trkpt><trkpt lat="44.42634393695177" lon="8.842241081245195"><ele>9.5</ele><time>2026-04-24T14:39:17Z</time></trkpt><trkpt lat="44.4263694108859" lon="8.842136539060824"><ele>10.0</ele><time>2026-04-24T14:39:18Z</time></trkpt><trkpt lat="44.42639642438841" lon="8.842030212396324"><ele>10.5</ele><time>2026-04-24T14:39:19Z</time></trkpt><trkpt lat="44.42643632224742" lon="8.84194079734712"><ele>11.0</ele><time>2026-04-24T14:39:20Z</time></trkpt><trkpt lat="44.42645792546121" lon="8.841857263583465"><ele>10.8</ele><time>2026-04-24T14:39:21Z</time></trkpt><trkpt lat="44.42649735471257" lon="8.841701738184327"><ele>10.600000000000001</ele><time>2026-04-24T14:39:23Z</time></trkpt><trkpt lat="44.42651191373078" lon="8.841592057886254"><ele>10.4</ele><time>2026-04-24T14:39:24Z</time></trkpt><trkpt lat="44.426544795340455" lon="8.84146545979725"><ele>10.2</ele><time>2026-04-24T14:39:25Z</time></trkpt><trkpt lat="44.426576692131526" lon="8.841339881782686"><ele>10.0</ele><time>2026-04-24T14:39:26Z</time></trkpt><trkpt lat="44.426609501504046" lon="8.841205162302971"><ele>10.0</ele><time>2026-04-24T14:39:27Z</time></trkpt><trkpt lat="44.426658869241734" lon="8.841066720601065"><ele>10.0</ele><time>2026-04-24T14:39:28Z</time></trkpt><trkpt lat="44.42668111849542" lon="8.840930079269326"><ele>10.0</ele><time>2026-04-24T14:39:29Z</time></trkpt><trkpt lat="44.42673062865146" lon="8.840795932111511"><ele>10.0</ele><time>2026-04-24T14:39:30Z</time></trkpt><trkpt lat="44.426768378639096" lon="8.840652394667801"><ele>10.0</ele><time>2026-04-24T14:39:31Z</time></trkpt><trkpt lat="44.426815816732784" lon="8.840518671823482"><ele>9.8</ele><time>2026-04-24T14:39:32Z</time></trkpt><trkpt lat="44.42684870948131" lon="8.840404034163962"><ele>9.6</ele><time>2026-04-24T14:39:33Z</time></trkpt><trkpt lat="44.42686989192699" lon="8.840287954588733"><ele>9.4</ele><time>2026-04-24T14:39:34Z</time></trkpt><trkpt lat="44.42689970451955" lon="8.840170558406522"><ele>9.2</ele><time>2026-04-24T14:39:35Z</time></trkpt><trkpt lat="44.42693335191919" lon="8.840045340996198"><ele>9.0</ele><time>2026-04-24T14:39:36Z</time></trkpt><trkpt lat="44.42697037650557" lon="8.83991104495047"><ele>9.0</ele><time>2026-04-24T14:39:37Z</time></trkpt><trkpt lat="44.427007391883926" lon="8.839774340515877"><ele>9.0</ele><time>2026-04-24T14:39:38Z</time></trkpt><trkpt lat="44.42704454724865" lon="8.839626871920819"><ele>9.0</ele><time>2026-04-24T14:39:39Z</time></trkpt><trkpt lat="44.42708218513043" lon="8.839471161792618"><ele>9.0</ele><time>2026-04-24T14:39:40Z</time></trkpt><trkpt lat="44.42711122848449" lon="8.839328136206992"><ele>9.0</ele><time>2026-04-24T14:39:41Z</time></trkpt><trkpt lat="44.42715465987082" lon="8.839190088842267"><ele>9.6</ele><time>2026-04-24T14:39:42Z</time></trkpt><trkpt lat="44.42720115484883" lon="8.839038653512862"><ele>10.2</ele><time>2026-04-24T14:39:43Z</time></trkpt><trkpt lat="44.42723445002976" lon="8.83888450623084"><ele>10.799999999999999</ele><time>2026-04-24T14:39:44Z</time></trkpt><trkpt lat="44.42725485211608" lon="8.83874910267217"><ele>11.4</ele><time>2026-04-24T14:39:45Z</time></trkpt><trkpt lat="44.42727026535787" lon="8.838603593684121"><ele>12.0</ele><time>2026-04-24T14:39:46Z</time></trkpt><trkpt lat="44.427282757552774" lon="8.83845746886874"><ele>12.2</ele><time>2026-04-24T14:39:47Z</time></trkpt><trkpt lat="44.427275935428575" lon="8.838307317388042"><ele>12.399999999999999</ele><time>2026-04-24T14:39:48Z</time></trkpt><trkpt lat="44.42728642766082" lon="8.838177550169407"><ele>12.600000000000001</ele><time>2026-04-24T14:39:49Z</time></trkpt><trkpt lat="44.427292716919744" lon="8.838047837797532"><ele>12.8</ele><time>2026-04-24T14:39:50Z</time></trkpt><trkpt lat="44.427309489029945" lon="8.837915024730414"><ele>13.0</ele><time>2026-04-24T14:39:51Z</time></trkpt><trkpt lat="44.42731411669556" lon="8.837791048439891"><ele>12.999999999999998</ele><time>2026-04-24T14:39:52.001Z</time></trkpt><trkpt lat="44.42731823089648" lon="8.83768002774903"><ele>13.0</ele><time>2026-04-24T14:39:53.001Z</time></trkpt><trkpt lat="44.42732424132269" lon="8.837571678618172"><ele>13.0</ele><time>2026-04-24T14:39:54.001Z</time></trkpt><trkpt lat="44.4273402400979" lon="8.837459373276594"><ele>13.0</ele><time>2026-04-24T14:39:55.001Z</time></trkpt><trkpt lat="44.42734732940186" lon="8.83734239403779"><ele>12.999999999999998</ele><time>2026-04-24T14:39:56.001Z</time></trkpt><trkpt lat="44.42735506818552" lon="8.837224130820935"><ele>13.0</ele><time>2026-04-24T14:39:57.001Z</time></trkpt><trkpt lat="44.427364433978624" lon="8.837100399917851"><ele>12.4</ele><time>2026-04-24T14:39:58.001Z</time></trkpt><trkpt lat="44.427373390462506" lon="8.836970965713672"><ele>11.8</ele><time>2026-04-24T14:39:59.001Z</time></trkpt><trkpt lat="44.42738292205085" lon="8.836835200163149"><ele>11.2</ele><time>2026-04-24T14:40:00.001Z</time></trkpt><trkpt lat="44.427391389533625" lon="8.836700269474733"><ele>10.6</ele><time>2026-04-24T14:40:01.001Z</time></trkpt><trkpt lat="44.42740381121952" lon="8.836555588397683"><ele>10.0</ele><time>2026-04-24T14:40:02.001Z</time></trkpt><trkpt lat="44.42741584803059" lon="8.836402142877583"><ele>9.6</ele><time>2026-04-24T14:40:03.001Z</time></trkpt><trkpt lat="44.4274288221171" lon="8.836249960324556"><ele>9.2</ele><time>2026-04-24T14:40:04.001Z</time></trkpt><trkpt lat="44.42744241236149" lon="8.836111556438535"><ele>8.8</ele><time>2026-04-24T14:40:05.001Z</time></trkpt><trkpt lat="44.427454289971294" lon="8.83597192003629"><ele>8.4</ele><time>2026-04-24T14:40:06.001Z</time></trkpt><trkpt lat="44.42746577478695" lon="8.835826010168054"><ele>8.0</ele><time>2026-04-24T14:40:07Z</time></trkpt><trkpt lat="44.4274727786429" lon="8.83567653289165"><ele>7.999999999999999</ele><time>2026-04-24T14:40:08Z</time></trkpt><trkpt lat="44.42748242858457" lon="8.835543365488334"><ele>8.0</ele><time>2026-04-24T14:40:09Z</time></trkpt><trkpt lat="44.427491375790844" lon="8.835410741876904"><ele>8.0</ele><time>2026-04-24T14:40:10Z</time></trkpt><trkpt lat="44.42749916126602" lon="8.835286875145709"><ele>8.0</ele><time>2026-04-24T14:40:11Z</time></trkpt><trkpt lat="44.42750473899111" lon="8.835175179917705"><ele>7.999999999999999</ele><time>2026-04-24T14:40:12Z</time></trkpt><trkpt lat="44.427498105970564" lon="8.835071554015014"><ele>8.0</ele><time>2026-04-24T14:40:13Z</time></trkpt><trkpt lat="44.42748544354825" lon="8.834962897064845"><ele>8.333333333333332</ele><time>2026-04-24T14:40:14Z</time></trkpt><trkpt lat="44.42746541359424" lon="8.834865533887704"><ele>8.666666666666666</ele><time>2026-04-24T14:40:15Z</time></trkpt><trkpt lat="44.427434108772864" lon="8.834768496172755"><ele>9.0</ele><time>2026-04-24T14:40:16Z</time></trkpt><trkpt lat="44.427391835114385" lon="8.834669149029093"><ele>9.333333333333334</ele><time>2026-04-24T14:40:17Z</time></trkpt><trkpt lat="44.42734212005854" lon="8.83456679639183"><ele>9.666666666666668</ele><time>2026-04-24T14:40:18Z</time></trkpt><trkpt lat="44.42728473008125" lon="8.83445910849362"><ele>10.0</ele><time>2026-04-24T14:40:19Z</time></trkpt><trkpt lat="44.42722345575622" lon="8.834349316321145"><ele>10.4</ele><time>2026-04-24T14:40:20Z</time></trkpt><trkpt lat="44.427159329689076" lon="8.834243731035997"><ele>10.8</ele><time>2026-04-24T14:40:21Z</time></trkpt><trkpt lat="44.4270915552816" lon="8.834130597784426"><ele>11.2</ele><time>2026-04-24T14:40:22Z</time></trkpt><trkpt lat="44.42701868157174" lon="8.83401223578702"><ele>11.6</ele><time>2026-04-24T14:40:23Z</time></trkpt><trkpt lat="44.42694385711807" lon="8.833887786139766"><ele>12.0</ele><time>2026-04-24T14:40:24Z</time></trkpt><trkpt lat="44.42687345067082" lon="8.833770951893852"><ele>11.75</ele><time>2026-04-24T14:40:25Z</time></trkpt><trkpt lat="44.426800894662826" lon="8.833652243589672"><ele>11.5</ele><time>2026-04-24T14:40:26Z</time></trkpt><trkpt lat="44.42672722051739" lon="8.83352504653517"><ele>11.25</ele><time>2026-04-24T14:40:27Z</time></trkpt><trkpt lat="44.42665106064276" lon="8.833392905005216"><ele>11.0</ele><time>2026-04-24T14:40:28Z</time></trkpt><trkpt lat="44.42657778997297" lon="8.83326357594295"><ele>11.0</ele><time>2026-04-24T14:40:29Z</time></trkpt><trkpt lat="44.4265052719815" lon="8.833133670127419"><ele>11.0</ele><time>2026-04-24T14:40:30Z</time></trkpt><trkpt lat="44.4264349367923" lon="8.833007525208716"><ele>11.0</ele><time>2026-04-24T14:40:31Z</time></trkpt><trkpt lat="44.42637172025995" lon="8.83287746666817"><ele>11.0</ele><time>2026-04-24T14:40:32Z</time></trkpt><trkpt lat="44.42630752523363" lon="8.832755552806246"><ele>10.200000000000001</ele><time>2026-04-24T14:40:33Z</time></trkpt><trkpt lat="44.42624152142907" lon="8.832634471790353"><ele>9.4</ele><time>2026-04-24T14:40:34Z</time></trkpt><trkpt lat="44.42618334167134" lon="8.832517825875346"><ele>8.6</ele><time>2026-04-24T14:40:35Z</time></trkpt><trkpt lat="44.42613720973312" lon="8.832406795689153"><ele>7.8</ele><time>2026-04-24T14:40:36Z</time></trkpt><trkpt lat="44.42610708860305" lon="8.832289094060563"><ele>7.0</ele><time>2026-04-24T14:40:37Z</time></trkpt><trkpt lat="44.42609308920299" lon="8.832165276213162"><ele>7.0</ele><time>2026-04-24T14:40:38Z</time></trkpt><trkpt lat="44.42609263409148" lon="8.832037508470227"><ele>6.999999999999999</ele><time>2026-04-24T14:40:39Z</time></trkpt><trkpt lat="44.426099696350775" lon="8.831901912386442"><ele>6.999999999999999</ele><time>2026-04-24T14:40:40Z</time></trkpt><trkpt lat="44.42611284084642" lon="8.831757378000692"><ele>7.0</ele><time>2026-04-24T14:40:41Z</time></trkpt><trkpt lat="44.426126860348155" lon="8.831607564772694"><ele>7.0</ele><time>2026-04-24T14:40:42Z</time></trkpt><trkpt lat="44.42614022102186" lon="8.831465221912774"><ele>7.0</ele><time>2026-04-24T14:40:43Z</time></trkpt><trkpt lat="44.42615041793522" lon="8.831314059340803"><ele>6.999999999999999</ele><time>2026-04-24T14:40:44Z</time></trkpt><trkpt lat="44.42616049667036" lon="8.831156922586123"><ele>6.999999999999999</ele><time>2026-04-24T14:40:45Z</time></trkpt><trkpt lat="44.426171756987706" lon="8.831006022409053"><ele>7.0</ele><time>2026-04-24T14:40:46Z</time></trkpt><trkpt lat="44.4261816743869" lon="8.830853188666914"><ele>7.0</ele><time>2026-04-24T14:40:47Z</time></trkpt><trkpt lat="44.42619175368198" lon="8.830709245705375"><ele>6.8</ele><time>2026-04-24T14:40:48Z</time></trkpt><trkpt lat="44.42620041498648" lon="8.830567006303124"><ele>6.6</ele><time>2026-04-24T14:40:49Z</time></trkpt><trkpt lat="44.42621017030686" lon="8.83042990961869"><ele>6.3999999999999995</ele><time>2026-04-24T14:40:50Z</time></trkpt><trkpt lat="44.42622118147829" lon="8.830296936530557"><ele>6.199999999999999</ele><time>2026-04-24T14:40:51Z</time></trkpt><trkpt lat="44.42622609754665" lon="8.830178609684305"><ele>6.0</ele><time>2026-04-24T14:40:52Z</time></trkpt><trkpt lat="44.426235637160524" lon="8.830056023214302"><ele>6.0</ele><time>2026-04-24T14:40:53Z</time></trkpt><trkpt lat="44.42623822587952" lon="8.829948657969386"><ele>6.0</ele><time>2026-04-24T14:40:54Z</time></trkpt><trkpt lat="44.426241542757104" lon="8.829797404642607"><ele>6.0</ele><time>2026-04-24T14:40:56Z</time></trkpt><trkpt lat="44.42623974023213" lon="8.829654047377156"><ele>6.0</ele><time>2026-04-24T14:40:58Z</time></trkpt><trkpt lat="44.426232683394836" lon="8.82954126174313"><ele>6.0</ele><time>2026-04-24T14:41:00Z</time></trkpt><trkpt lat="44.42622974041542" lon="8.829444535162034"><ele>6.0</ele><time>2026-04-24T14:41:02Z</time></trkpt><trkpt lat="44.42621592587122" lon="8.829336526114643"><ele>6.5</ele><time>2026-04-24T14:41:04Z</time></trkpt><trkpt lat="44.42618918322495" lon="8.829171225480799"><ele>7.0</ele><time>2026-04-24T14:41:06Z</time></trkpt><trkpt lat="44.42621082545901" lon="8.828982590586222"><ele>7.5</ele><time>2026-04-24T14:41:08Z</time></trkpt><trkpt lat="44.42612184779856" lon="8.82889520163614"><ele>8.0</ele><time>2026-04-24T14:41:09Z</time></trkpt><trkpt lat="44.426089124199" lon="8.828785395751277"><ele>8.0</ele><time>2026-04-24T14:41:10Z</time></trkpt><trkpt lat="44.42605362566746" lon="8.828667815633048"><ele>8.0</ele><time>2026-04-24T14:41:11Z</time></trkpt><trkpt lat="44.426016795917725" lon="8.828542661032815"><ele>8.0</ele><time>2026-04-24T14:41:12Z</time></trkpt><trkpt lat="44.42610457587089" lon="8.828371072307458"><ele>8.0</ele><time>2026-04-24T14:41:13Z</time></trkpt><trkpt lat="44.425945777027465" lon="8.828297376284116"><ele>7.4</ele><time>2026-04-24T14:41:14Z</time></trkpt><trkpt lat="44.42590693127093" lon="8.828162185395438"><ele>6.800000000000001</ele><time>2026-04-24T14:41:15Z</time></trkpt><trkpt lat="44.42587149465265" lon="8.828027184691122"><ele>6.2</ele><time>2026-04-24T14:41:16Z</time></trkpt><trkpt lat="44.42583483155439" lon="8.827895531429128"><ele>5.6</ele><time>2026-04-24T14:41:17Z</time></trkpt><trkpt lat="44.425795137989596" lon="8.827758991405632"><ele>5.0</ele><time>2026-04-24T14:41:18Z</time></trkpt><trkpt lat="44.425758726141765" lon="8.827625750708197"><ele>5.0</ele><time>2026-04-24T14:41:19Z</time></trkpt><trkpt lat="44.42572424184474" lon="8.827495626056049"><ele>5.0</ele><time>2026-04-24T14:41:20Z</time></trkpt><trkpt lat="44.42569745853178" lon="8.827376901218596"><ele>5.0</ele><time>2026-04-24T14:41:21Z</time></trkpt><trkpt lat="44.42565174329595" lon="8.827289294122746"><ele>5.0</ele><time>2026-04-24T14:41:22Z</time></trkpt><trkpt lat="44.42561975428362" lon="8.827173424494669"><ele>5.0</ele><time>2026-04-24T14:41:23Z</time></trkpt><trkpt lat="44.42560917152354" lon="8.827055611398631"><ele>5.0</ele><time>2026-04-24T14:41:24Z</time></trkpt><trkpt lat="44.425590160297695" lon="8.826935725002492"><ele>5.2</ele><time>2026-04-24T14:41:25Z</time></trkpt><trkpt lat="44.42556376277172" lon="8.826804921199408"><ele>5.4</ele><time>2026-04-24T14:41:26Z</time></trkpt><trkpt lat="44.425542100877806" lon="8.826682366518346"><ele>5.6</ele><time>2026-04-24T14:41:27Z</time></trkpt><trkpt lat="44.42552192771934" lon="8.826565193500779"><ele>5.8</ele><time>2026-04-24T14:41:28Z</time></trkpt><trkpt lat="44.425502016517434" lon="8.82643791853756"><ele>6.0</ele><time>2026-04-24T14:41:29Z</time></trkpt><trkpt lat="44.425479213533634" lon="8.826305586690737"><ele>5.666666666666667</ele><time>2026-04-24T14:41:30Z</time></trkpt><trkpt lat="44.42545709542309" lon="8.826179803329907"><ele>5.333333333333333</ele><time>2026-04-24T14:41:31Z</time></trkpt><trkpt lat="44.42543739581265" lon="8.826063832180687"><ele>5.0</ele><time>2026-04-24T14:41:32Z</time></trkpt><trkpt lat="44.42541763721383" lon="8.825953297918815"><ele>4.666666666666666</ele><time>2026-04-24T14:41:33Z</time></trkpt><trkpt lat="44.42539681629575" lon="8.825836722628013"><ele>4.333333333333333</ele><time>2026-04-24T14:41:34Z</time></trkpt><trkpt lat="44.42537562335871" lon="8.825717961534878"><ele>4.0</ele><time>2026-04-24T14:41:35Z</time></trkpt><trkpt lat="44.42535751161118" lon="8.825598956187468"><ele>3.9999999999999996</ele><time>2026-04-24T14:41:36Z</time></trkpt><trkpt lat="44.42533750618543" lon="8.825483613588418"><ele>4.0</ele><time>2026-04-24T14:41:37Z</time></trkpt><trkpt lat="44.42532082303952" lon="8.825375535902612"><ele>4.0</ele><time>2026-04-24T14:41:38Z</time></trkpt><trkpt lat="44.42530451983702" lon="8.825276512075177"><ele>4.0</ele><time>2026-04-24T14:41:39Z</time></trkpt><trkpt lat="44.425288635090126" lon="8.825184850680794"><ele>3.9999999999999996</ele><time>2026-04-24T14:41:40Z</time></trkpt><trkpt lat="44.42526299214959" lon="8.825033430171672"><ele>4.0</ele><time>2026-04-24T14:41:42Z</time></trkpt><trkpt lat="44.425237054215984" lon="8.824897065470617"><ele>3.9999999999999996</ele><time>2026-04-24T14:41:44Z</time></trkpt><trkpt lat="44.425207445406045" lon="8.824728552911603"><ele>4.0</ele><time>2026-04-24T14:41:46Z</time></trkpt><trkpt lat="44.42519100293516" lon="8.82463223661482"><ele>4.0</ele><time>2026-04-24T14:41:47Z</time></trkpt><trkpt lat="44.42517063125254" lon="8.82451787858389"><ele>4.0</ele><time>2026-04-24T14:41:48Z</time></trkpt><trkpt lat="44.425154563592024" lon="8.824411341143234"><ele>3.9999999999999996</ele><time>2026-04-24T14:41:49Z</time></trkpt><trkpt lat="44.425136415660106" lon="8.824295911886969"><ele>4.0</ele><time>2026-04-24T14:41:50Z</time></trkpt><trkpt lat="44.42511811554369" lon="8.824173629014435"><ele>4.166666666666666</ele><time>2026-04-24T14:41:51Z</time></trkpt><trkpt lat="44.425101376635126" lon="8.824052353050227"><ele>4.333333333333333</ele><time>2026-04-24T14:41:52Z</time></trkpt><trkpt lat="44.425087672099" lon="8.823942775133755"><ele>4.5</ele><time>2026-04-24T14:41:53Z</time></trkpt><trkpt lat="44.42507335926443" lon="8.823827358406406"><ele>4.666666666666667</ele><time>2026-04-24T14:41:54Z</time></trkpt><trkpt lat="44.42505983855068" lon="8.823708419657134"><ele>4.833333333333334</ele><time>2026-04-24T14:41:55Z</time></trkpt><trkpt lat="44.42504804039182" lon="8.823601134556576"><ele>5.0</ele><time>2026-04-24T14:41:56Z</time></trkpt><trkpt lat="44.425037143492105" lon="8.823492797435192"><ele>5.0</ele><time>2026-04-24T14:41:57Z</time></trkpt><trkpt lat="44.42502407901659" lon="8.823379476939683"><ele>5.0</ele><time>2026-04-24T14:41:58Z</time></trkpt><trkpt lat="44.42501188553515" lon="8.823262063812402"><ele>5.0</ele><time>2026-04-24T14:41:59Z</time></trkpt><trkpt lat="44.424998824546954" lon="8.823138357662687"><ele>5.0</ele><time>2026-04-24T14:42:00Z</time></trkpt><trkpt lat="44.42498561420787" lon="8.823000826242449"><ele>5.0</ele><time>2026-04-24T14:42:01Z</time></trkpt><trkpt lat="44.42497856108365" lon="8.822867546213214"><ele>5.0</ele><time>2026-04-24T14:42:02Z</time></trkpt><trkpt lat="44.42497061253358" lon="8.822736865715987"><ele>5.0</ele><time>2026-04-24T14:42:03Z</time></trkpt><trkpt lat="44.42495937432291" lon="8.822610500961405"><ele>5.0</ele><time>2026-04-24T14:42:04Z</time></trkpt><trkpt lat="44.42495216883574" lon="8.822487136956143"><ele>5.0</ele><time>2026-04-24T14:42:05Z</time></trkpt><trkpt lat="44.42494529415022" lon="8.822352667625399"><ele>5.0</ele><time>2026-04-24T14:42:06Z</time></trkpt><trkpt lat="44.42493867589177" lon="8.822228572349584"><ele>5.0</ele><time>2026-04-24T14:42:07Z</time></trkpt><trkpt lat="44.424937389950905" lon="8.822102544770042"><ele>5.0</ele><time>2026-04-24T14:42:08Z</time></trkpt><trkpt lat="44.424929585626984" lon="8.82199013831704"><ele>5.0</ele><time>2026-04-24T14:42:09Z</time></trkpt><trkpt lat="44.42492299647192" lon="8.821891101139478"><ele>5.0</ele><time>2026-04-24T14:42:10Z</time></trkpt><trkpt lat="44.42491620630293" lon="8.821802532555498"><ele>5.0</ele><time>2026-04-24T14:42:11Z</time></trkpt><trkpt lat="44.42490698670899" lon="8.821641132086068"><ele>5.0</ele><time>2026-04-24T14:42:13Z</time></trkpt><trkpt lat="44.42490059627854" lon="8.821496341294877"><ele>5.0</ele><time>2026-04-24T14:42:15Z</time></trkpt><trkpt lat="44.42489371939457" lon="8.821352954911989"><ele>5.0</ele><time>2026-04-24T14:42:17Z</time></trkpt><trkpt lat="44.42488161652944" lon="8.821209781138805"><ele>5.0</ele><time>2026-04-24T14:42:19Z</time></trkpt><trkpt lat="44.42487420261546" lon="8.821107270474677"><ele>5.0</ele><time>2026-04-24T14:42:20Z</time></trkpt><trkpt lat="44.42486436719073" lon="8.820989552979468"><ele>5.0</ele><time>2026-04-24T14:42:21Z</time></trkpt><trkpt lat="44.424860241299555" lon="8.820890680244412"><ele>5.0</ele><time>2026-04-24T14:42:22Z</time></trkpt><trkpt lat="44.42485339977224" lon="8.820751135640519"><ele>5.5</ele><time>2026-04-24T14:42:24Z</time></trkpt><trkpt lat="44.42484525451587" lon="8.820648568628297"><ele>6.0</ele><time>2026-04-24T14:42:28Z</time></trkpt><trkpt lat="44.424839168788345" lon="8.820545482053125"><ele>6.5</ele><time>2026-04-24T14:42:31Z</time></trkpt><trkpt lat="44.4248354365454" lon="8.820441778305522"><ele>7.0</ele><time>2026-04-24T14:42:33Z</time></trkpt><trkpt lat="44.42482968117243" lon="8.82033922078284"><ele>7.499999999999999</ele><time>2026-04-24T14:42:35Z</time></trkpt><trkpt lat="44.42482254631921" lon="8.820248381578038"><ele>8.0</ele><time>2026-04-24T14:42:37Z</time></trkpt><trkpt lat="44.424811749228105" lon="8.82010387016579"><ele>8.166666666666666</ele><time>2026-04-24T14:43:08Z</time></trkpt><trkpt lat="44.42480350297722" lon="8.819948731681631"><ele>8.333333333333332</ele><time>2026-04-24T14:43:10Z</time></trkpt><trkpt lat="44.42479682269001" lon="8.81985871129191"><ele>8.5</ele><time>2026-04-24T14:43:11Z</time></trkpt><trkpt lat="44.42478777776124" lon="8.819765704033218"><ele>8.666666666666666</ele><time>2026-04-24T14:43:12Z</time></trkpt><trkpt lat="44.42478168882482" lon="8.819669962431432"><ele>8.833333333333334</ele><time>2026-04-24T14:43:13Z</time></trkpt><trkpt lat="44.42477151638189" lon="8.819562003336957"><ele>9.0</ele><time>2026-04-24T14:43:14Z</time></trkpt><trkpt lat="44.42475962294387" lon="8.819464555446475"><ele>9.000000000000002</ele><time>2026-04-24T14:43:15Z</time></trkpt><trkpt lat="44.42475232843291" lon="8.819374384568443"><ele>9.0</ele><time>2026-04-24T14:43:16Z</time></trkpt><trkpt lat="44.42474381069092" lon="8.81927277171656"><ele>9.0</ele><time>2026-04-24T14:43:17Z</time></trkpt><trkpt lat="44.42473311237122" lon="8.819159626080115"><ele>9.0</ele><time>2026-04-24T14:43:18Z</time></trkpt><trkpt lat="44.424726853307895" lon="8.819061535196472"><ele>9.0</ele><time>2026-04-24T14:43:19Z</time></trkpt><trkpt lat="44.4247211423996" lon="8.818968175425013"><ele>9.000000000000002</ele><time>2026-04-24T14:43:20Z</time></trkpt><trkpt lat="44.424717904259246" lon="8.818878724280092"><ele>9.0</ele><time>2026-04-24T14:43:21Z</time></trkpt><trkpt lat="44.42471467224566" lon="8.818789311202075"><ele>8.666666666666666</ele><time>2026-04-24T14:43:22Z</time></trkpt><trkpt lat="44.42471787796493" lon="8.81865173083419"><ele>8.333333333333334</ele><time>2026-04-24T14:43:24Z</time></trkpt><trkpt lat="44.42473071602274" lon="8.818559710729193"><ele>8.0</ele><time>2026-04-24T14:43:26Z</time></trkpt><trkpt lat="44.42474554764617" lon="8.818471869757413"><ele>7.666666666666667</ele><time>2026-04-24T14:43:34Z</time></trkpt><trkpt lat="44.42476923514817" lon="8.8183616386537"><ele>7.333333333333334</ele><time>2026-04-24T14:43:36Z</time></trkpt><trkpt lat="44.4247940209273" lon="8.81825820130042"><ele>7.0</ele><time>2026-04-24T14:43:38Z</time></trkpt><trkpt lat="44.424818510223055" lon="8.818158553252456"><ele>7.000000000000001</ele><time>2026-04-24T14:43:40Z</time></trkpt><trkpt lat="44.424840306924786" lon="8.818064613676421"><ele>7.0</ele><time>2026-04-24T14:43:42Z</time></trkpt><trkpt lat="44.42486751977685" lon="8.817956245292068"><ele>7.0</ele><time>2026-04-24T14:43:44Z</time></trkpt><trkpt lat="44.424887619649034" lon="8.817842075947944"><ele>7.0</ele><time>2026-04-24T14:43:46Z</time></trkpt><trkpt lat="44.424912460623084" lon="8.817742392006418"><ele>7.000000000000001</ele><time>2026-04-24T14:43:48Z</time></trkpt><trkpt lat="44.42493256729036" lon="8.817648828012242"><ele>7.0</ele><time>2026-04-24T14:43:50Z</time></trkpt><trkpt lat="44.42494502716421" lon="8.817553597315671"><ele>6.833333333333334</ele><time>2026-04-24T14:43:52Z</time></trkpt><trkpt lat="44.42496063028198" lon="8.817456578781487"><ele>6.666666666666667</ele><time>2026-04-24T14:43:54Z</time></trkpt><trkpt lat="44.42497351801003" lon="8.817338925936538"><ele>6.5</ele><time>2026-04-24T14:43:59Z</time></trkpt><trkpt lat="44.42498675694753" lon="8.817221523861997"><ele>6.333333333333334</ele><time>2026-04-24T14:44:03Z</time></trkpt><trkpt lat="44.42500114405568" lon="8.8171086361398"><ele>6.166666666666667</ele><time>2026-04-24T14:44:06Z</time></trkpt><trkpt lat="44.42499643039121" lon="8.817007857627152"><ele>6.0</ele><time>2026-04-24T14:44:08Z</time></trkpt><trkpt lat="44.42499574847858" lon="8.816888213090444"><ele>6.4</ele><time>2026-04-24T14:44:10Z</time></trkpt><trkpt lat="44.42499308903147" lon="8.816776857960742"><ele>6.8</ele><time>2026-04-24T14:44:12Z</time></trkpt><trkpt lat="44.42498003637035" lon="8.816630161994267"><ele>7.200000000000001</ele><time>2026-04-24T14:44:14Z</time></trkpt><trkpt lat="44.424966510542426" lon="8.816500409160584"><ele>7.6000000000000005</ele><time>2026-04-24T14:44:16Z</time></trkpt><trkpt lat="44.42494541419481" lon="8.816339938996636"><ele>8.0</ele><time>2026-04-24T14:44:18Z</time></trkpt><trkpt lat="44.42491170046916" lon="8.816158619798683"><ele>7.999999999999999</ele><time>2026-04-24T14:44:20Z</time></trkpt><trkpt lat="44.4248892083245" lon="8.816059034552191"><ele>8.0</ele><time>2026-04-24T14:44:21Z</time></trkpt><trkpt lat="44.42487213677785" lon="8.815960964603752"><ele>8.0</ele><time>2026-04-24T14:44:22Z</time></trkpt><trkpt lat="44.42485153015066" lon="8.815854514409503"><ele>8.0</ele><time>2026-04-24T14:44:23Z</time></trkpt><trkpt lat="44.424832918236625" lon="8.815741915979146"><ele>7.999999999999999</ele><time>2026-04-24T14:44:24Z</time></trkpt><trkpt lat="44.42480671257934" lon="8.815635740021118"><ele>8.0</ele><time>2026-04-24T14:44:25Z</time></trkpt><trkpt lat="44.42478954785487" lon="8.815536414009685"><ele>8.333333333333332</ele><time>2026-04-24T14:44:26Z</time></trkpt><trkpt lat="44.42475138624697" lon="8.815369100725416"><ele>8.666666666666666</ele><time>2026-04-24T14:44:28Z</time></trkpt><trkpt lat="44.424731462844235" lon="8.815274966767896"><ele>9.0</ele><time>2026-04-24T14:44:29Z</time></trkpt><trkpt lat="44.424713621296995" lon="8.815184417891343"><ele>9.333333333333334</ele><time>2026-04-24T14:44:30Z</time></trkpt><trkpt lat="44.42469845452596" lon="8.815085955573986"><ele>9.666666666666668</ele><time>2026-04-24T14:44:31Z</time></trkpt><trkpt lat="44.42468613786021" lon="8.814996586403394"><ele>10.0</ele><time>2026-04-24T14:44:32Z</time></trkpt><trkpt lat="44.42468722214011" lon="8.814833031766916"><ele>10.0</ele><time>2026-04-24T14:44:34Z</time></trkpt><trkpt lat="44.424700796840675" lon="8.814667724056365"><ele>10.0</ele><time>2026-04-24T14:44:36Z</time></trkpt><trkpt lat="44.42472297103717" lon="8.814494169200957"><ele>10.0</ele><time>2026-04-24T14:44:38Z</time></trkpt><trkpt lat="44.42479215347448" lon="8.814442537558302"><ele>10.0</ele><time>2026-04-24T14:44:39Z</time></trkpt><trkpt lat="44.42477253839083" lon="8.814272018084383"><ele>10.0</ele><time>2026-04-24T14:44:41Z</time></trkpt><trkpt lat="44.4247813918075" lon="8.814181985504252"><ele>9.666666666666668</ele><time>2026-04-24T14:44:42Z</time></trkpt><trkpt lat="44.424793784570824" lon="8.814088640328317"><ele>9.333333333333334</ele><time>2026-04-24T14:44:43Z</time></trkpt><trkpt lat="44.424804937076765" lon="8.813989651058032"><ele>9.0</ele><time>2026-04-24T14:44:44Z</time></trkpt><trkpt lat="44.424817609813296" lon="8.813893841247129"><ele>8.666666666666666</ele><time>2026-04-24T14:44:45Z</time></trkpt><trkpt lat="44.42483129383477" lon="8.813804655686255"><ele>8.333333333333332</ele><time>2026-04-24T14:44:46Z</time></trkpt><trkpt lat="44.424850472854146" lon="8.813658996071304"><ele>8.0</ele><time>2026-04-24T14:44:48Z</time></trkpt><trkpt lat="44.42486350347956" lon="8.813535304489482"><ele>8.0</ele><time>2026-04-24T14:44:51Z</time></trkpt><trkpt lat="44.424870804618536" lon="8.813434097399783"><ele>7.999999999999999</ele><time>2026-04-24T14:44:54Z</time></trkpt><trkpt lat="44.424871207050096" lon="8.813327457420339"><ele>8.0</ele><time>2026-04-24T14:44:57Z</time></trkpt><trkpt lat="44.42487127837834" lon="8.813204714607965"><ele>8.0</ele><time>2026-04-24T14:44:59Z</time></trkpt><trkpt lat="44.42486188438777" lon="8.81310097518405"><ele>7.999999999999999</ele><time>2026-04-24T14:45:01Z</time></trkpt><trkpt lat="44.42484682932177" lon="8.813007833403878"><ele>8.0</ele><time>2026-04-24T14:45:03Z</time></trkpt><trkpt lat="44.424822596162976" lon="8.812922524598852"><ele>8.0</ele><time>2026-04-24T14:45:05Z</time></trkpt><trkpt lat="44.42479520314902" lon="8.812828266923523"><ele>7.999999999999999</ele><time>2026-04-24T14:45:08Z</time></trkpt><trkpt lat="44.424757166722536" lon="8.812737873668809"><ele>8.0</ele><time>2026-04-24T14:45:11Z</time></trkpt><trkpt lat="44.42473331698413" lon="8.812653606944792"><ele>8.0</ele><time>2026-04-24T14:45:13Z</time></trkpt><trkpt lat="44.42470009542549" lon="8.81256042809104"><ele>8.0</ele><time>2026-04-24T14:45:17Z</time></trkpt><trkpt lat="44.42465323956358" lon="8.812430682477055"><ele>7.999999999999999</ele><time>2026-04-24T14:45:21Z</time></trkpt><trkpt lat="44.42461039057054" lon="8.81231105930547"><ele>8.0</ele><time>2026-04-24T14:45:23Z</time></trkpt><trkpt lat="44.42456857969348" lon="8.81219627398667"><ele>7.4</ele><time>2026-04-24T14:45:25Z</time></trkpt><trkpt lat="44.42453033386071" lon="8.812090341416251"><ele>6.800000000000001</ele><time>2026-04-24T14:45:27Z</time></trkpt><trkpt lat="44.424493002312516" lon="8.811984043230282"><ele>6.2</ele><time>2026-04-24T14:45:29Z</time></trkpt><trkpt lat="44.42445736369635" lon="8.811873082855517"><ele>5.6</ele><time>2026-04-24T14:45:31Z</time></trkpt><trkpt lat="44.424417386281725" lon="8.81175986819329"><ele>5.0</ele><time>2026-04-24T14:45:33Z</time></trkpt><trkpt lat="44.42435784553234" lon="8.811602247475701"><ele>5.0</ele><time>2026-04-24T14:45:35Z</time></trkpt><trkpt lat="44.42432798422294" lon="8.811521618478787"><ele>5.0</ele><time>2026-04-24T14:45:36Z</time></trkpt><trkpt lat="44.42429848523763" lon="8.811438527529017"><ele>5.0</ele><time>2026-04-24T14:45:37Z</time></trkpt><trkpt lat="44.42426619185006" lon="8.811353970350579"><ele>5.0</ele><time>2026-04-24T14:45:38Z</time></trkpt><trkpt lat="44.42423261292682" lon="8.811267324513558"><ele>5.0</ele><time>2026-04-24T14:45:39Z</time></trkpt><trkpt lat="44.424180782763166" lon="8.811121163176965"><ele>5.0</ele><time>2026-04-24T14:45:41Z</time></trkpt><trkpt lat="44.42412672730277" lon="8.810968581618793"><ele>5.5</ele><time>2026-04-24T14:45:43Z</time></trkpt><trkpt lat="44.42409822001232" lon="8.81087543175888"><ele>6.0</ele><time>2026-04-24T14:45:44Z</time></trkpt><trkpt lat="44.424064634819224" lon="8.81077469048238"><ele>6.5</ele><time>2026-04-24T14:45:45Z</time></trkpt><trkpt lat="44.42402959665367" lon="8.81067402028273"><ele>7.0</ele><time>2026-04-24T14:45:46Z</time></trkpt><trkpt lat="44.42399241767981" lon="8.810568381382343"><ele>7.499999999999999</ele><time>2026-04-24T14:45:47Z</time></trkpt><trkpt lat="44.4239541579063" lon="8.8104578345186"><ele>8.0</ele><time>2026-04-24T14:45:48Z</time></trkpt><trkpt lat="44.42391858562318" lon="8.810355294002315"><ele>7.999999999999999</ele><time>2026-04-24T14:45:49Z</time></trkpt><trkpt lat="44.42388589611742" lon="8.810254875547939"><ele>8.0</ele><time>2026-04-24T14:45:50Z</time></trkpt><trkpt lat="44.42385034640127" lon="8.810145867775931"><ele>8.0</ele><time>2026-04-24T14:45:51Z</time></trkpt><trkpt lat="44.423812276554294" lon="8.810031983542482"><ele>8.0</ele><time>2026-04-24T14:45:52Z</time></trkpt><trkpt lat="44.42377807788105" lon="8.809926988246643"><ele>7.999999999999999</ele><time>2026-04-24T14:45:53Z</time></trkpt><trkpt lat="44.42374478269196" lon="8.80981811626163"><ele>8.0</ele><time>2026-04-24T14:45:54Z</time></trkpt><trkpt lat="44.423712122739246" lon="8.80971083220251"><ele>8.166666666666666</ele><time>2026-04-24T14:45:55Z</time></trkpt><trkpt lat="44.423682484400445" lon="8.80961005950051"><ele>8.333333333333332</ele><time>2026-04-24T14:45:56Z</time></trkpt><trkpt lat="44.423657592892006" lon="8.80950090718136"><ele>8.5</ele><time>2026-04-24T14:45:57Z</time></trkpt><trkpt lat="44.42363250487607" lon="8.809386392520043"><ele>8.666666666666666</ele><time>2026-04-24T14:45:58Z</time></trkpt><trkpt lat="44.423607936704634" lon="8.80926497162519"><ele>8.833333333333334</ele><time>2026-04-24T14:45:59Z</time></trkpt><trkpt lat="44.42358146693344" lon="8.809151403993994"><ele>9.0</ele><time>2026-04-24T14:46:00Z</time></trkpt><trkpt lat="44.42355316147486" lon="8.80904406023794"><ele>9.0</ele><time>2026-04-24T14:46:01Z</time></trkpt><trkpt lat="44.4235180024907" lon="8.808932508684645"><ele>9.0</ele><time>2026-04-24T14:46:02Z</time></trkpt><trkpt lat="44.42348174123296" lon="8.808826033565202"><ele>9.0</ele><time>2026-04-24T14:46:03Z</time></trkpt><trkpt lat="44.423444981276354" lon="8.808724441473798"><ele>9.0</ele><time>2026-04-24T14:46:04Z</time></trkpt><trkpt lat="44.42340548288789" lon="8.808615508700003"><ele>9.0</ele><time>2026-04-24T14:46:05Z</time></trkpt><trkpt lat="44.42336284229667" lon="8.808500847794056"><ele>9.0</ele><time>2026-04-24T14:46:06Z</time></trkpt><trkpt lat="44.42332129274171" lon="8.808389617251585"><ele>10.166666666666666</ele><time>2026-04-24T14:46:07Z</time></trkpt><trkpt lat="44.423291627457616" lon="8.808276100177398"><ele>11.333333333333332</ele><time>2026-04-24T14:46:08Z</time></trkpt><trkpt lat="44.42326062825631" lon="8.8081746799267"><ele>12.5</ele><time>2026-04-24T14:46:09Z</time></trkpt><trkpt lat="44.42323334387055" lon="8.808076200707884"><ele>13.666666666666666</ele><time>2026-04-24T14:46:10Z</time></trkpt><trkpt lat="44.42321654768069" lon="8.807978422634974"><ele>14.833333333333332</ele><time>2026-04-24T14:46:11Z</time></trkpt><trkpt lat="44.423213094498735" lon="8.807879637231045"><ele>16.0</ele><time>2026-04-24T14:46:12Z</time></trkpt><trkpt lat="44.42321365235298" lon="8.807778854331827"><ele>15.999999999999998</ele><time>2026-04-24T14:46:13Z</time></trkpt><trkpt lat="44.42322822102702" lon="8.807675618027318"><ele>16.0</ele><time>2026-04-24T14:46:14Z</time></trkpt><trkpt lat="44.42324925571966" lon="8.807579726835797"><ele>16.0</ele><time>2026-04-24T14:46:15Z</time></trkpt><trkpt lat="44.4232805622058" lon="8.807481845024956"><ele>16.0</ele><time>2026-04-24T14:46:16Z</time></trkpt><trkpt lat="44.42332411443053" lon="8.80739310230899"><ele>15.999999999999998</ele><time>2026-04-24T14:46:17Z</time></trkpt><trkpt lat="44.423378460970696" lon="8.807295850692213"><ele>16.0</ele><time>2026-04-24T14:46:18Z</time></trkpt><trkpt lat="44.423443870164306" lon="8.807207256787875"><ele>15.999999999999998</ele><time>2026-04-24T14:46:19Z</time></trkpt><trkpt lat="44.42350874745316" lon="8.807120378665573"><ele>16.0</ele><time>2026-04-24T14:46:20.001Z</time></trkpt><trkpt lat="44.42356607082968" lon="8.807044485090174"><ele>16.0</ele><time>2026-04-24T14:46:21.001Z</time></trkpt><trkpt lat="44.42362499386106" lon="8.806966058768419"><ele>16.0</ele><time>2026-04-24T14:46:22.001Z</time></trkpt><trkpt lat="44.42368276966431" lon="8.806882320464105"><ele>15.999999999999998</ele><time>2026-04-24T14:46:23.001Z</time></trkpt><trkpt lat="44.423713894849385" lon="8.80679027674596"><ele>16.0</ele><time>2026-04-24T14:46:24.001Z</time></trkpt><trkpt lat="44.42376043960792" lon="8.806715963758071"><ele>14.999999999999998</ele><time>2026-04-24T14:46:25Z</time></trkpt><trkpt lat="44.42379577681138" lon="8.806627906580184"><ele>14.0</ele><time>2026-04-24T14:46:26Z</time></trkpt><trkpt lat="44.42382273074031" lon="8.806524815525192"><ele>13.0</ele><time>2026-04-24T14:46:27Z</time></trkpt><trkpt lat="44.42383744477114" lon="8.80642726205003"><ele>12.0</ele><time>2026-04-24T14:46:28Z</time></trkpt><trkpt lat="44.42384409226042" lon="8.806318876671718"><ele>11.0</ele><time>2026-04-24T14:46:29Z</time></trkpt><trkpt lat="44.42384601958377" lon="8.80620028192099"><ele>10.0</ele><time>2026-04-24T14:46:30Z</time></trkpt><trkpt lat="44.42384568115934" lon="8.806070038802956"><ele>12.0</ele><time>2026-04-24T14:46:31Z</time></trkpt><trkpt lat="44.423844818245286" lon="8.805934075754152"><ele>14.0</ele><time>2026-04-24T14:46:32Z</time></trkpt><trkpt lat="44.42384747468917" lon="8.805792318056845"><ele>16.0</ele><time>2026-04-24T14:46:33Z</time></trkpt><trkpt lat="44.42385053636795" lon="8.805642321457158"><ele>18.0</ele><time>2026-04-24T14:46:34Z</time></trkpt><trkpt lat="44.42385590689167" lon="8.805486144842842"><ele>20.0</ele><time>2026-04-24T14:46:35Z</time></trkpt><trkpt lat="44.423863912535346" lon="8.805337429525727"><ele>20.0</ele><time>2026-04-24T14:46:36Z</time></trkpt><trkpt lat="44.42387574393028" lon="8.805184864623705"><ele>20.0</ele><time>2026-04-24T14:46:37Z</time></trkpt><trkpt lat="44.42389070269014" lon="8.805027795316485"><ele>20.0</ele><time>2026-04-24T14:46:38Z</time></trkpt><trkpt lat="44.42390830628013" lon="8.804876966428694"><ele>20.0</ele><time>2026-04-24T14:46:39Z</time></trkpt><trkpt lat="44.42392700025164" lon="8.804721970967652"><ele>20.0</ele><time>2026-04-24T14:46:40Z</time></trkpt><trkpt lat="44.423946453155544" lon="8.804573289409232"><ele>18.4</ele><time>2026-04-24T14:46:41Z</time></trkpt><trkpt lat="44.4239672068452" lon="8.804424147910566"><ele>16.8</ele><time>2026-04-24T14:46:42Z</time></trkpt><trkpt lat="44.4239893120714" lon="8.804270044085456"><ele>15.2</ele><time>2026-04-24T14:46:43Z</time></trkpt><trkpt lat="44.42401475567601" lon="8.80412350138599"><ele>13.6</ele><time>2026-04-24T14:46:44Z</time></trkpt><trkpt lat="44.424038800530575" lon="8.803978634284139"><ele>12.0</ele><time>2026-04-24T14:46:45Z</time></trkpt><trkpt lat="44.4240616006608" lon="8.803828082519287"><ele>11.2</ele><time>2026-04-24T14:46:46Z</time></trkpt><trkpt lat="44.424088942842275" lon="8.803670260609284"><ele>10.399999999999999</ele><time>2026-04-24T14:46:47Z</time></trkpt><trkpt lat="44.424115881152765" lon="8.803522607274196"><ele>9.600000000000001</ele><time>2026-04-24T14:46:48Z</time></trkpt><trkpt lat="44.424136007258056" lon="8.803404318138785"><ele>8.8</ele><time>2026-04-24T14:46:49Z</time></trkpt><trkpt lat="44.42415277114059" lon="8.803298967885663"><ele>8.0</ele><time>2026-04-24T14:46:50Z</time></trkpt><trkpt lat="44.4241823215755" lon="8.803157926879836"><ele>8.0</ele><time>2026-04-24T14:46:52Z</time></trkpt><trkpt lat="44.42419912480571" lon="8.80306844018139"><ele>8.0</ele><time>2026-04-24T14:46:55Z</time></trkpt><trkpt lat="44.42421474370807" lon="8.802936322994764"><ele>8.0</ele><time>2026-04-24T14:47:27Z</time></trkpt><trkpt lat="44.4242447053661" lon="8.80276043999005"><ele>8.0</ele><time>2026-04-24T14:47:29Z</time></trkpt><trkpt lat="44.42426179551086" lon="8.802646707753386"><ele>8.0</ele><time>2026-04-24T14:47:30Z</time></trkpt><trkpt lat="44.4242846059012" lon="8.802529805648577"><ele>7.6000000000000005</ele><time>2026-04-24T14:47:31Z</time></trkpt><trkpt lat="44.4243106674781" lon="8.802399731593257"><ele>7.200000000000001</ele><time>2026-04-24T14:47:32Z</time></trkpt><trkpt lat="44.424336655056884" lon="8.802252503624208"><ele>6.8</ele><time>2026-04-24T14:47:33Z</time></trkpt><trkpt lat="44.42436032474894" lon="8.802110175264874"><ele>6.4</ele><time>2026-04-24T14:47:34Z</time></trkpt><trkpt lat="44.42438769973022" lon="8.801973695472155"><ele>6.0</ele><time>2026-04-24T14:47:35Z</time></trkpt><trkpt lat="44.42441778923363" lon="8.801838921647908"><ele>5.2</ele><time>2026-04-24T14:47:36Z</time></trkpt><trkpt lat="44.42443462340979" lon="8.801703320468617"><ele>4.3999999999999995</ele><time>2026-04-24T14:47:37Z</time></trkpt><trkpt lat="44.424461054180696" lon="8.801560383104649"><ele>3.6</ele><time>2026-04-24T14:47:38Z</time></trkpt><trkpt lat="44.42448276565779" lon="8.801436995386632"><ele>2.8</ele><time>2026-04-24T14:47:39Z</time></trkpt><trkpt lat="44.42450317336177" lon="8.801308530125832"><ele>2.0</ele><time>2026-04-24T14:47:40Z</time></trkpt><trkpt lat="44.42452183139264" lon="8.801177142584846"><ele>2.0</ele><time>2026-04-24T14:47:41Z</time></trkpt><trkpt lat="44.42453899830884" lon="8.801029302957255"><ele>2.0</ele><time>2026-04-24T14:47:42Z</time></trkpt><trkpt lat="44.42456631849848" lon="8.800870942485624"><ele>2.0</ele><time>2026-04-24T14:47:43Z</time></trkpt><trkpt lat="44.424584551429035" lon="8.80073217538742"><ele>2.0</ele><time>2026-04-24T14:47:44Z</time></trkpt><trkpt lat="44.424607336729984" lon="8.800599106296227"><ele>2.0</ele><time>2026-04-24T14:47:45Z</time></trkpt><trkpt lat="44.42463031092218" lon="8.80046933226735"><ele>4.333333333333333</ele><time>2026-04-24T14:47:46Z</time></trkpt><trkpt lat="44.42465787280601" lon="8.80035804707165"><ele>6.666666666666666</ele><time>2026-04-24T14:47:47Z</time></trkpt><trkpt lat="44.42467728448555" lon="8.80025063695212"><ele>9.0</ele><time>2026-04-24T14:47:48Z</time></trkpt><trkpt lat="44.424694529311715" lon="8.800148614761289"><ele>11.333333333333332</ele><time>2026-04-24T14:47:49Z</time></trkpt><trkpt lat="44.42470847359493" lon="8.800051142412721"><ele>13.666666666666666</ele><time>2026-04-24T14:47:50Z</time></trkpt><trkpt lat="44.42472841345504" lon="8.799963855447878"><ele>16.0</ele><time>2026-04-24T14:47:51Z</time></trkpt><trkpt lat="44.42474759519938" lon="8.799819991705961"><ele>16.0</ele><time>2026-04-24T14:47:53Z</time></trkpt><trkpt lat="44.424766395258914" lon="8.799716048344795"><ele>16.0</ele><time>2026-04-24T14:47:55Z</time></trkpt><trkpt lat="44.42477865159532" lon="8.799612766938298"><ele>16.0</ele><time>2026-04-24T14:48:04Z</time></trkpt><trkpt lat="44.42480157413853" lon="8.79950975613359"><ele>16.0</ele><time>2026-04-24T14:48:06Z</time></trkpt><trkpt lat="44.42482913287021" lon="8.799351228175633"><ele>16.0</ele><time>2026-04-24T14:48:08Z</time></trkpt><trkpt lat="44.42485869427196" lon="8.79919048389879"><ele>15.857142857142856</ele><time>2026-04-24T14:48:10Z</time></trkpt><trkpt lat="44.42487224702936" lon="8.79910299460952"><ele>15.714285714285712</ele><time>2026-04-24T14:48:11Z</time></trkpt><trkpt lat="44.42488571406226" lon="8.799016638016697"><ele>15.571428571428571</ele><time>2026-04-24T14:48:12Z</time></trkpt><trkpt lat="44.42490057496784" lon="8.798923369256833"><ele>15.428571428571427</ele><time>2026-04-24T14:48:13Z</time></trkpt><trkpt lat="44.42491672209606" lon="8.798834065251121"><ele>15.285714285714285</ele><time>2026-04-24T14:48:14Z</time></trkpt><trkpt lat="44.42493493537301" lon="8.798733501190686"><ele>15.142857142857142</ele><time>2026-04-24T14:48:15Z</time></trkpt><trkpt lat="44.424951959183616" lon="8.798638038527317"><ele>15.0</ele><time>2026-04-24T14:48:16Z</time></trkpt><trkpt lat="44.424971557445495" lon="8.798534844380542"><ele>13.833333333333334</ele><time>2026-04-24T14:48:17Z</time></trkpt><trkpt lat="44.42499243078442" lon="8.798421709758557"><ele>12.666666666666666</ele><time>2026-04-24T14:48:18Z</time></trkpt><trkpt lat="44.425011737498316" lon="8.798313577535751"><ele>11.5</ele><time>2026-04-24T14:48:19Z</time></trkpt><trkpt lat="44.4250341744367" lon="8.798195831791096"><ele>10.333333333333332</ele><time>2026-04-24T14:48:20Z</time></trkpt><trkpt lat="44.42505659752457" lon="8.798086695633351"><ele>9.166666666666666</ele><time>2026-04-24T14:48:21Z</time></trkpt><trkpt lat="44.425075064084936" lon="8.797984424623442"><ele>8.0</ele><time>2026-04-24T14:48:22Z</time></trkpt><trkpt lat="44.42509352431602" lon="8.797891727009445"><ele>7.999999999999999</ele><time>2026-04-24T14:48:23Z</time></trkpt><trkpt lat="44.42512298355983" lon="8.797718838910985"><ele>8.0</ele><time>2026-04-24T14:48:25Z</time></trkpt><trkpt lat="44.42514206467881" lon="8.797619493020798"><ele>8.0</ele><time>2026-04-24T14:48:26Z</time></trkpt><trkpt lat="44.42515983753981" lon="8.797525018206375"><ele>8.0</ele><time>2026-04-24T14:48:27Z</time></trkpt><trkpt lat="44.42517518830933" lon="8.79743447609888"><ele>7.999999999999999</ele><time>2026-04-24T14:48:28Z</time></trkpt><trkpt lat="44.42519394978406" lon="8.79733904324499"><ele>8.0</ele><time>2026-04-24T14:48:29Z</time></trkpt><trkpt lat="44.42520941360691" lon="8.79724077959807"><ele>7.833333333333333</ele><time>2026-04-24T14:48:30Z</time></trkpt><trkpt lat="44.425224476997904" lon="8.797147769779874"><ele>7.666666666666666</ele><time>2026-04-24T14:48:31Z</time></trkpt><trkpt lat="44.425242433948235" lon="8.797048256092525"><ele>7.5</ele><time>2026-04-24T14:48:32Z</time></trkpt><trkpt lat="44.4252601845167" lon="8.79694829573292"><ele>7.333333333333334</ele><time>2026-04-24T14:48:33Z</time></trkpt><trkpt lat="44.42527984127702" lon="8.796836093969821"><ele>7.166666666666667</ele><time>2026-04-24T14:48:34Z</time></trkpt><trkpt lat="44.42530253034931" lon="8.79671926701248"><ele>7.0</ele><time>2026-04-24T14:48:35Z</time></trkpt><trkpt lat="44.42532439440381" lon="8.796604377211246"><ele>7.000000000000001</ele><time>2026-04-24T14:48:36Z</time></trkpt><trkpt lat="44.425349372659134" lon="8.7964809002095"><ele>7.0</ele><time>2026-04-24T14:48:37Z</time></trkpt><trkpt lat="44.42537305481198" lon="8.796368578866552"><ele>7.0</ele><time>2026-04-24T14:48:38Z</time></trkpt><trkpt lat="44.42539728705088" lon="8.79625128532381"><ele>7.0</ele><time>2026-04-24T14:48:39Z</time></trkpt><trkpt lat="44.42541869591232" lon="8.796134660209468"><ele>7.000000000000001</ele><time>2026-04-24T14:48:40Z</time></trkpt><trkpt lat="44.42542546122156" lon="8.7960106185063"><ele>7.0</ele><time>2026-04-24T14:48:41Z</time></trkpt><trkpt lat="44.425460778536106" lon="8.795896990887945"><ele>7.166666666666667</ele><time>2026-04-24T14:48:42Z</time></trkpt><trkpt lat="44.425469202172266" lon="8.79579247334395"><ele>7.333333333333334</ele><time>2026-04-24T14:48:43Z</time></trkpt><trkpt lat="44.42548691569266" lon="8.795681829767753"><ele>7.5</ele><time>2026-04-24T14:48:44Z</time></trkpt><trkpt lat="44.425503027992654" lon="8.795567001597682"><ele>7.666666666666666</ele><time>2026-04-24T14:48:45Z</time></trkpt><trkpt lat="44.425520728649026" lon="8.79545888817281"><ele>7.833333333333333</ele><time>2026-04-24T14:48:46Z</time></trkpt><trkpt lat="44.425535487477674" lon="8.79536227329341"><ele>8.0</ele><time>2026-04-24T14:48:47Z</time></trkpt><trkpt lat="44.425550161206026" lon="8.795270549201032"><ele>8.600000000000001</ele><time>2026-04-24T14:48:48Z</time></trkpt><trkpt lat="44.42556073197797" lon="8.795140776172587"><ele>9.200000000000001</ele><time>2026-04-24T14:48:50Z</time></trkpt><trkpt lat="44.425555677290774" lon="8.795046143204395"><ele>9.8</ele><time>2026-04-24T14:48:52Z</time></trkpt><trkpt lat="44.42554946998618" lon="8.794919481919987"><ele>10.4</ele><time>2026-04-24T14:48:54Z</time></trkpt><trkpt lat="44.42556896563815" lon="8.794777553081946"><ele>11.0</ele><time>2026-04-24T14:48:56Z</time></trkpt><trkpt lat="44.425598042238605" lon="8.794597813475782"><ele>11.0</ele><time>2026-04-24T14:48:58Z</time></trkpt><trkpt lat="44.42561789765824" lon="8.794506503334853"><ele>11.0</ele><time>2026-04-24T14:48:59Z</time></trkpt><trkpt lat="44.42564012024165" lon="8.794403119807408"><ele>11.0</ele><time>2026-04-24T14:49:00Z</time></trkpt><trkpt lat="44.42566498226543" lon="8.794293804981809"><ele>11.0</ele><time>2026-04-24T14:49:01Z</time></trkpt><trkpt lat="44.42569074408477" lon="8.794179987285451"><ele>11.0</ele><time>2026-04-24T14:49:02Z</time></trkpt><trkpt lat="44.42571221383588" lon="8.794079935830498"><ele>11.0</ele><time>2026-04-24T14:49:03Z</time></trkpt><trkpt lat="44.42574410715945" lon="8.793929248217594"><ele>10.200000000000001</ele><time>2026-04-24T14:49:05Z</time></trkpt><trkpt lat="44.42577274050826" lon="8.793784009222877"><ele>9.4</ele><time>2026-04-24T14:49:07Z</time></trkpt><trkpt lat="44.4257890548181" lon="8.793692160501243"><ele>8.6</ele><time>2026-04-24T14:49:08Z</time></trkpt><trkpt lat="44.42582031726846" lon="8.793516107862532"><ele>7.8</ele><time>2026-04-24T14:49:10Z</time></trkpt><trkpt lat="44.42583954052498" lon="8.793410828152336"><ele>7.0</ele><time>2026-04-24T14:49:11Z</time></trkpt><trkpt lat="44.425859110434025" lon="8.793304787692463"><ele>6.833333333333334</ele><time>2026-04-24T14:49:12Z</time></trkpt><trkpt lat="44.42587968332987" lon="8.7931906238796"><ele>6.666666666666667</ele><time>2026-04-24T14:49:13Z</time></trkpt><trkpt lat="44.42590177832485" lon="8.793087572968906"><ele>6.5</ele><time>2026-04-24T14:49:14Z</time></trkpt><trkpt lat="44.42592266094828" lon="8.792980133476513"><ele>6.333333333333334</ele><time>2026-04-24T14:49:15Z</time></trkpt><trkpt lat="44.42593937751244" lon="8.792873266569968"><ele>6.166666666666667</ele><time>2026-04-24T14:49:16Z</time></trkpt><trkpt lat="44.425959042757476" lon="8.792766966896043"><ele>6.0</ele><time>2026-04-24T14:49:17Z</time></trkpt><trkpt lat="44.42597545034692" lon="8.792660712172264"><ele>5.833333333333333</ele><time>2026-04-24T14:49:18Z</time></trkpt><trkpt lat="44.425995389630145" lon="8.792556168732595"><ele>5.666666666666667</ele><time>2026-04-24T14:49:19Z</time></trkpt><trkpt lat="44.426016199024765" lon="8.792447405251842"><ele>5.5</ele><time>2026-04-24T14:49:20Z</time></trkpt><trkpt lat="44.4260361229604" lon="8.79234755205234"><ele>5.333333333333334</ele><time>2026-04-24T14:49:21Z</time></trkpt><trkpt lat="44.42605449743585" lon="8.792246953937353"><ele>5.166666666666667</ele><time>2026-04-24T14:49:22Z</time></trkpt><trkpt lat="44.426073229257746" lon="8.792136980483885"><ele>5.0</ele><time>2026-04-24T14:49:23Z</time></trkpt><trkpt lat="44.426094543208706" lon="8.792022783290767"><ele>5.0</ele><time>2026-04-24T14:49:24Z</time></trkpt><trkpt lat="44.426116802960635" lon="8.791912335334816"><ele>5.0</ele><time>2026-04-24T14:49:25Z</time></trkpt><trkpt lat="44.42613564600768" lon="8.791803072500372"><ele>5.0</ele><time>2026-04-24T14:49:26Z</time></trkpt><trkpt lat="44.42615546481723" lon="8.79168871625929"><ele>5.0</ele><time>2026-04-24T14:49:27Z</time></trkpt><trkpt lat="44.42617552022763" lon="8.79158151515739"><ele>5.0</ele><time>2026-04-24T14:49:28Z</time></trkpt><trkpt lat="44.42619602242496" lon="8.791459050763498"><ele>5.0</ele><time>2026-04-24T14:49:29Z</time></trkpt><trkpt lat="44.42621519197724" lon="8.791358223306416"><ele>4.833333333333334</ele><time>2026-04-24T14:49:30Z</time></trkpt><trkpt lat="44.42623243892293" lon="8.791272217913821"><ele>4.666666666666667</ele><time>2026-04-24T14:49:31Z</time></trkpt><trkpt lat="44.42626296731283" lon="8.791110308569277"><ele>4.5</ele><time>2026-04-24T14:49:33Z</time></trkpt><trkpt lat="44.42628048176139" lon="8.791012676997036"><ele>4.333333333333333</ele><time>2026-04-24T14:49:34Z</time></trkpt><trkpt lat="44.42629638524287" lon="8.790921800077728"><ele>4.166666666666666</ele><time>2026-04-24T14:49:35Z</time></trkpt><trkpt lat="44.42632138379952" lon="8.790769112328125"><ele>4.0</ele><time>2026-04-24T14:49:37Z</time></trkpt><trkpt lat="44.426342670680235" lon="8.790609685757167"><ele>4.666666666666666</ele><time>2026-04-24T14:49:39Z</time></trkpt><trkpt lat="44.426354671104114" lon="8.7904784511062"><ele>5.333333333333333</ele><time>2026-04-24T14:49:41Z</time></trkpt><trkpt lat="44.42635277642895" lon="8.790372248981473"><ele>6.0</ele><time>2026-04-24T14:49:43Z</time></trkpt><trkpt lat="44.426346280327785" lon="8.79025485323666"><ele>6.666666666666666</ele><time>2026-04-24T14:49:46Z</time></trkpt><trkpt lat="44.42632752876495" lon="8.790146132644361"><ele>7.333333333333333</ele><time>2026-04-24T14:49:48Z</time></trkpt><trkpt lat="44.426326658659626" lon="8.790009721704799"><ele>8.0</ele><time>2026-04-24T14:49:50Z</time></trkpt><trkpt lat="44.42635227429029" lon="8.789836200808045"><ele>8.0</ele><time>2026-04-24T14:49:52Z</time></trkpt><trkpt lat="44.426364929763864" lon="8.789747883968277"><ele>7.999999999999999</ele><time>2026-04-24T14:49:53Z</time></trkpt><trkpt lat="44.42637923252933" lon="8.789650883883382"><ele>8.0</ele><time>2026-04-24T14:49:54Z</time></trkpt><trkpt lat="44.426393140711085" lon="8.789547084258619"><ele>8.0</ele><time>2026-04-24T14:49:55Z</time></trkpt><trkpt lat="44.42640478676328" lon="8.7894516565465"><ele>7.999999999999999</ele><time>2026-04-24T14:49:56Z</time></trkpt><trkpt lat="44.42641684473957" lon="8.789349851747593"><ele>8.0</ele><time>2026-04-24T14:49:57Z</time></trkpt><trkpt lat="44.42642989063514" lon="8.789242334815944"><ele>8.0</ele><time>2026-04-24T14:49:58Z</time></trkpt><trkpt lat="44.426443828917705" lon="8.789140087139176"><ele>7.666666666666666</ele><time>2026-04-24T14:49:59Z</time></trkpt><trkpt lat="44.42645653431972" lon="8.789047185247881"><ele>7.333333333333333</ele><time>2026-04-24T14:50:00Z</time></trkpt><trkpt lat="44.42646804446082" lon="8.788954530599446"><ele>7.0</ele><time>2026-04-24T14:50:01Z</time></trkpt><trkpt lat="44.426486997019126" lon="8.788821371209124"><ele>6.666666666666666</ele><time>2026-04-24T14:50:03Z</time></trkpt><trkpt lat="44.42649978477898" lon="8.788730263290743"><ele>6.333333333333333</ele><time>2026-04-24T14:50:06Z</time></trkpt><trkpt lat="44.42651300968369" lon="8.788595234203772"><ele>6.0</ele><time>2026-04-24T14:50:36.001Z</time></trkpt><trkpt lat="44.42652932705398" lon="8.78845002840429"><ele>5.857142857142857</ele><time>2026-04-24T14:50:38Z</time></trkpt><trkpt lat="44.42654084770648" lon="8.788357822240124"><ele>5.714285714285714</ele><time>2026-04-24T14:50:39Z</time></trkpt><trkpt lat="44.42655270818743" lon="8.788257609926951"><ele>5.571428571428571</ele><time>2026-04-24T14:50:40Z</time></trkpt><trkpt lat="44.426566749676354" lon="8.788147341731058"><ele>5.428571428571429</ele><time>2026-04-24T14:50:41Z</time></trkpt><trkpt lat="44.426580021657735" lon="8.78804760725488"><ele>5.285714285714286</ele><time>2026-04-24T14:50:42Z</time></trkpt><trkpt lat="44.42659293175375" lon="8.787950747237215"><ele>5.142857142857142</ele><time>2026-04-24T14:50:43Z</time></trkpt><trkpt lat="44.426605802681514" lon="8.78785758477577"><ele>5.0</ele><time>2026-04-24T14:50:44Z</time></trkpt><trkpt lat="44.42664502028423" lon="8.787698936088992"><ele>5.2</ele><time>2026-04-24T14:50:46Z</time></trkpt><trkpt lat="44.4267103157937" lon="8.787584394085131"><ele>5.4</ele><time>2026-04-24T14:50:48Z</time></trkpt><trkpt lat="44.426730869308464" lon="8.787481718896228"><ele>5.6</ele><time>2026-04-24T14:50:49Z</time></trkpt><trkpt lat="44.426790661369175" lon="8.787334939764296"><ele>5.8</ele><time>2026-04-24T14:50:51Z</time></trkpt><trkpt lat="44.42683724403204" lon="8.787177765369494"><ele>6.0</ele><time>2026-04-24T14:50:53Z</time></trkpt><trkpt lat="44.42685954754045" lon="8.787031374425618"><ele>6.0</ele><time>2026-04-24T14:50:55Z</time></trkpt><trkpt lat="44.42686761293534" lon="8.786914953632332"><ele>6.0</ele><time>2026-04-24T14:50:57Z</time></trkpt><trkpt lat="44.42687802709995" lon="8.786805964532563"><ele>6.0</ele><time>2026-04-24T14:50:59Z</time></trkpt><trkpt lat="44.42687165643685" lon="8.786716037052923"><ele>6.0</ele><time>2026-04-24T14:51:01Z</time></trkpt><trkpt lat="44.42686729287828" lon="8.786624843645184"><ele>6.0</ele><time>2026-04-24T14:51:03Z</time></trkpt><trkpt lat="44.426870219036296" lon="8.786496524798562"><ele>6.0</ele><time>2026-04-24T14:51:05Z</time></trkpt><trkpt lat="44.426872748071574" lon="8.786338008531484"><ele>5.75</ele><time>2026-04-24T14:51:07Z</time></trkpt><trkpt lat="44.42687411358313" lon="8.786187916663408"><ele>5.5</ele><time>2026-04-24T14:51:09Z</time></trkpt><trkpt lat="44.4268743339973" lon="8.786023415538429"><ele>5.25</ele><time>2026-04-24T14:51:11Z</time></trkpt><trkpt lat="44.426876528246034" lon="8.785878583313162"><ele>5.0</ele><time>2026-04-24T14:51:13Z</time></trkpt><trkpt lat="44.42687957110623" lon="8.785705568777082"><ele>5.4</ele><time>2026-04-24T14:51:15Z</time></trkpt><trkpt lat="44.42688444224172" lon="8.785600699240954"><ele>5.8</ele><time>2026-04-24T14:51:16Z</time></trkpt><trkpt lat="44.4268981849177" lon="8.785446265359628"><ele>6.199999999999999</ele><time>2026-04-24T14:51:18Z</time></trkpt><trkpt lat="44.42691171627466" lon="8.785298139989994"><ele>6.6</ele><time>2026-04-24T14:51:20Z</time></trkpt><trkpt lat="44.42692947937566" lon="8.785152407326445"><ele>7.0</ele><time>2026-04-24T14:51:22Z</time></trkpt><trkpt lat="44.42694629016472" lon="8.785010354343372"><ele>7.000000000000001</ele><time>2026-04-24T14:51:24Z</time></trkpt><trkpt lat="44.426962957302344" lon="8.78489720324938"><ele>7.0</ele><time>2026-04-24T14:51:26Z</time></trkpt><trkpt lat="44.42697707214382" lon="8.784786217856166"><ele>7.0</ele><time>2026-04-24T14:51:28Z</time></trkpt><trkpt lat="44.42699419079512" lon="8.78469354608188"><ele>7.0</ele><time>2026-04-24T14:51:31Z</time></trkpt><trkpt lat="44.42700941486924" lon="8.784584786539309"><ele>7.000000000000001</ele><time>2026-04-24T14:51:55Z</time></trkpt><trkpt lat="44.42704415641473" lon="8.784452638061891"><ele>7.0</ele><time>2026-04-24T14:51:57Z</time></trkpt><trkpt lat="44.42708094836123" lon="8.784272220658814"><ele>7.0</ele><time>2026-04-24T14:51:59Z</time></trkpt><trkpt lat="44.42709568583161" lon="8.784180740468702"><ele>7.0</ele><time>2026-04-24T14:52:00Z</time></trkpt><trkpt lat="44.427110714202115" lon="8.784092490118214"><ele>7.0</ele><time>2026-04-24T14:52:01Z</time></trkpt><trkpt lat="44.42712477504483" lon="8.78399896238807"><ele>7.0</ele><time>2026-04-24T14:52:02Z</time></trkpt><trkpt lat="44.42713687030335" lon="8.78390051106169"><ele>7.0</ele><time>2026-04-24T14:52:03Z</time></trkpt><trkpt lat="44.4271469424442" lon="8.783788613783996"><ele>7.0</ele><time>2026-04-24T14:52:04Z</time></trkpt><trkpt lat="44.427161269189675" lon="8.783695954277723"><ele>7.0</ele><time>2026-04-24T14:52:05Z</time></trkpt><trkpt lat="44.4271844622278" lon="8.783532215750935"><ele>7.571428571428571</ele><time>2026-04-24T14:52:07Z</time></trkpt><trkpt lat="44.42719663504895" lon="8.783437279338177"><ele>8.142857142857142</ele><time>2026-04-24T14:52:08Z</time></trkpt><trkpt lat="44.42721028839029" lon="8.783351199252943"><ele>8.714285714285715</ele><time>2026-04-24T14:52:09Z</time></trkpt><trkpt lat="44.4272207645803" lon="8.783260573896927"><ele>9.285714285714285</ele><time>2026-04-24T14:52:10Z</time></trkpt><trkpt lat="44.4272365560892" lon="8.783163981001143"><ele>9.857142857142858</ele><time>2026-04-24T14:52:11Z</time></trkpt><trkpt lat="44.427250567493736" lon="8.78305956784369"><ele>10.428571428571429</ele><time>2026-04-24T14:52:12Z</time></trkpt><trkpt lat="44.42726206452653" lon="8.782961657427375"><ele>11.0</ele><time>2026-04-24T14:52:13Z</time></trkpt><trkpt lat="44.42727446497737" lon="8.78285834785005"><ele>11.0</ele><time>2026-04-24T14:52:14Z</time></trkpt><trkpt lat="44.427284867841564" lon="8.782755112222524"><ele>11.0</ele><time>2026-04-24T14:52:15Z</time></trkpt><trkpt lat="44.427294931804695" lon="8.782655455625745"><ele>11.0</ele><time>2026-04-24T14:52:16Z</time></trkpt><trkpt lat="44.42730841108248" lon="8.78253975371826"><ele>11.0</ele><time>2026-04-24T14:52:17Z</time></trkpt><trkpt lat="44.427322150241906" lon="8.782405388736397"><ele>11.0</ele><time>2026-04-24T14:52:18Z</time></trkpt><trkpt lat="44.42733924964859" lon="8.782261429495822"><ele>11.0</ele><time>2026-04-24T14:52:19Z</time></trkpt><trkpt lat="44.427355352094125" lon="8.782133136751936"><ele>11.4</ele><time>2026-04-24T14:52:20Z</time></trkpt><trkpt lat="44.42736835264697" lon="8.78199260021368"><ele>11.8</ele><time>2026-04-24T14:52:21Z</time></trkpt><trkpt lat="44.42738197193892" lon="8.781859054057447"><ele>12.200000000000001</ele><time>2026-04-24T14:52:22Z</time></trkpt><trkpt lat="44.42739219058091" lon="8.781733503682899"><ele>12.600000000000001</ele><time>2026-04-24T14:52:23Z</time></trkpt><trkpt lat="44.427403872486614" lon="8.781598509388363"><ele>13.0</ele><time>2026-04-24T14:52:24Z</time></trkpt><trkpt lat="44.427410927163706" lon="8.78146751528904"><ele>13.2</ele><time>2026-04-24T14:52:25Z</time></trkpt><trkpt lat="44.42741608118373" lon="8.781325430394581"><ele>13.4</ele><time>2026-04-24T14:52:26Z</time></trkpt><trkpt lat="44.427422323332394" lon="8.78118423489782"><ele>13.599999999999998</ele><time>2026-04-24T14:52:27Z</time></trkpt><trkpt lat="44.4274240755612" lon="8.78104525389342"><ele>13.799999999999999</ele><time>2026-04-24T14:52:28Z</time></trkpt><trkpt lat="44.42742825307878" lon="8.780908720750373"><ele>14.0</ele><time>2026-04-24T14:52:29Z</time></trkpt><trkpt lat="44.42742947751641" lon="8.78076608392155"><ele>13.2</ele><time>2026-04-24T14:52:30Z</time></trkpt><trkpt lat="44.427430296096155" lon="8.780630454263704"><ele>12.399999999999999</ele><time>2026-04-24T14:52:31Z</time></trkpt><trkpt lat="44.42742590350632" lon="8.780486433896957"><ele>11.6</ele><time>2026-04-24T14:52:32.001Z</time></trkpt><trkpt lat="44.427421671294184" lon="8.780355464847093"><ele>10.8</ele><time>2026-04-24T14:52:33.001Z</time></trkpt><trkpt lat="44.42741838342927" lon="8.780229512624567"><ele>10.0</ele><time>2026-04-24T14:52:34.001Z</time></trkpt><trkpt lat="44.42741279725102" lon="8.78009954048607"><ele>9.5</ele><time>2026-04-24T14:52:35.001Z</time></trkpt><trkpt lat="44.42740679290806" lon="8.779984448639508"><ele>9.0</ele><time>2026-04-24T14:52:36.001Z</time></trkpt><trkpt lat="44.42739926795053" lon="8.779859400425327"><ele>8.5</ele><time>2026-04-24T14:52:37.001Z</time></trkpt><trkpt lat="44.42739270253614" lon="8.779741485015428"><ele>8.0</ele><time>2026-04-24T14:52:38.001Z</time></trkpt><trkpt lat="44.42738604985873" lon="8.779632706772148"><ele>7.500000000000001</ele><time>2026-04-24T14:52:39.001Z</time></trkpt><trkpt lat="44.42737886947068" lon="8.77953594852309"><ele>7.0</ele><time>2026-04-24T14:52:40.001Z</time></trkpt><trkpt lat="44.427370246971996" lon="8.77944226954735"><ele>7.666666666666667</ele><time>2026-04-24T14:52:41.001Z</time></trkpt><trkpt lat="44.42736131327235" lon="8.779336054537431"><ele>8.333333333333334</ele><time>2026-04-24T14:52:42.001Z</time></trkpt><trkpt lat="44.42735191324996" lon="8.779235334222205"><ele>9.0</ele><time>2026-04-24T14:52:43Z</time></trkpt><trkpt lat="44.4273445684366" lon="8.779141136992235"><ele>9.666666666666666</ele><time>2026-04-24T14:52:44Z</time></trkpt><trkpt lat="44.42733679436569" lon="8.779042802506824"><ele>10.333333333333332</ele><time>2026-04-24T14:52:45Z</time></trkpt><trkpt lat="44.427321800151454" lon="8.778882187479539"><ele>11.0</ele><time>2026-04-24T14:52:47Z</time></trkpt><trkpt lat="44.42730599896008" lon="8.77876852341075"><ele>11.0</ele><time>2026-04-24T14:52:49Z</time></trkpt><trkpt lat="44.42728588125359" lon="8.778670826715862"><ele>11.0</ele><time>2026-04-24T14:52:52Z</time></trkpt><trkpt lat="44.42726509985291" lon="8.778566832384028"><ele>11.0</ele><time>2026-04-24T14:52:57Z</time></trkpt><trkpt lat="44.42723829203745" lon="8.778401921694261"><ele>11.0</ele><time>2026-04-24T14:52:59Z</time></trkpt><trkpt lat="44.42722230535694" lon="8.77830603716614"><ele>11.0</ele><time>2026-04-24T14:53:00Z</time></trkpt><trkpt lat="44.42721211376576" lon="8.77820270267054"><ele>11.0</ele><time>2026-04-24T14:53:01Z</time></trkpt><trkpt lat="44.4272074996965" lon="8.77808709904585"><ele>11.200000000000001</ele><time>2026-04-24T14:53:02Z</time></trkpt><trkpt lat="44.42720931319656" lon="8.777962709349667"><ele>11.4</ele><time>2026-04-24T14:53:03Z</time></trkpt><trkpt lat="44.42721581098844" lon="8.777836504636918"><ele>11.6</ele><time>2026-04-24T14:53:04Z</time></trkpt><trkpt lat="44.42721761155585" lon="8.777715566717385"><ele>11.8</ele><time>2026-04-24T14:53:05Z</time></trkpt><trkpt lat="44.42721905899054" lon="8.777583707074317"><ele>12.0</ele><time>2026-04-24T14:53:06Z</time></trkpt><trkpt lat="44.42721920830689" lon="8.777457966720347"><ele>11.0</ele><time>2026-04-24T14:53:07Z</time></trkpt><trkpt lat="44.4272178570989" lon="8.777329032944545"><ele>10.0</ele><time>2026-04-24T14:53:08Z</time></trkpt><trkpt lat="44.42721182912542" lon="8.777191490042668"><ele>9.0</ele><time>2026-04-24T14:53:09Z</time></trkpt><trkpt lat="44.4272083050504" lon="8.777068726099117"><ele>8.0</ele><time>2026-04-24T14:53:10Z</time></trkpt><trkpt lat="44.42720623308198" lon="8.776940357796398"><ele>7.0</ele><time>2026-04-24T14:53:11Z</time></trkpt><trkpt lat="44.42720273704214" lon="8.776803232186406"><ele>6.500000000000001</ele><time>2026-04-24T14:53:12Z</time></trkpt><trkpt lat="44.42719815009388" lon="8.776670152208407"><ele>6.0</ele><time>2026-04-24T14:53:13Z</time></trkpt><trkpt lat="44.42719478331555" lon="8.7765527034807"><ele>5.5</ele><time>2026-04-24T14:53:14Z</time></trkpt><trkpt lat="44.427193058527926" lon="8.776430512898472"><ele>5.0</ele><time>2026-04-24T14:53:15Z</time></trkpt><trkpt lat="44.427192761893274" lon="8.776319106143243"><ele>4.5</ele><time>2026-04-24T14:53:16Z</time></trkpt><trkpt lat="44.42719424139746" lon="8.776205494760326"><ele>4.0</ele><time>2026-04-24T14:53:17Z</time></trkpt><trkpt lat="44.42719522948098" lon="8.776092279686944"><ele>4.166666666666666</ele><time>2026-04-24T14:53:18Z</time></trkpt><trkpt lat="44.42719862872424" lon="8.77597513499246"><ele>4.333333333333333</ele><time>2026-04-24T14:53:19Z</time></trkpt><trkpt lat="44.42720406846837" lon="8.77587200456157"><ele>4.5</ele><time>2026-04-24T14:53:20Z</time></trkpt><trkpt lat="44.427211321206414" lon="8.7757690931586"><ele>4.666666666666667</ele><time>2026-04-24T14:53:21Z</time></trkpt><trkpt lat="44.42722119741958" lon="8.775657828753884"><ele>4.833333333333334</ele><time>2026-04-24T14:53:22Z</time></trkpt><trkpt lat="44.427230560218476" lon="8.775547596850862"><ele>5.0</ele><time>2026-04-24T14:53:23Z</time></trkpt><trkpt lat="44.42724145043953" lon="8.775440794098236"><ele>5.0</ele><time>2026-04-24T14:53:24Z</time></trkpt><trkpt lat="44.42725431082596" lon="8.775337341020704"><ele>5.0</ele><time>2026-04-24T14:53:25Z</time></trkpt><trkpt lat="44.42726681742708" lon="8.775245583989957"><ele>5.0</ele><time>2026-04-24T14:53:26Z</time></trkpt><trkpt lat="44.42729076310757" lon="8.775088893578722"><ele>5.0</ele><time>2026-04-24T14:53:28Z</time></trkpt><trkpt lat="44.42731095136417" lon="8.774972553652997"><ele>5.0</ele><time>2026-04-24T14:53:30Z</time></trkpt><trkpt lat="44.42732636975804" lon="8.77487123194025"><ele>5.0</ele><time>2026-04-24T14:53:32Z</time></trkpt><trkpt lat="44.427342462724035" lon="8.774767089126385"><ele>5.0</ele><time>2026-04-24T14:53:34Z</time></trkpt><trkpt lat="44.42736120305459" lon="8.774668097108718"><ele>5.0</ele><time>2026-04-24T14:53:37Z</time></trkpt><trkpt lat="44.42736994561131" lon="8.774579531933183"><ele>5.0</ele><time>2026-04-24T14:54:01Z</time></trkpt><trkpt lat="44.42739340041201" lon="8.774481124952855"><ele>5.0</ele><time>2026-04-24T14:54:03Z</time></trkpt><trkpt lat="44.427420410399165" lon="8.77434350692323"><ele>5.0</ele><time>2026-04-24T14:54:05Z</time></trkpt><trkpt lat="44.42744188312679" lon="8.774238409585994"><ele>5.0</ele><time>2026-04-24T14:54:07Z</time></trkpt><trkpt lat="44.42746549307297" lon="8.77411375021326"><ele>5.0</ele><time>2026-04-24T14:54:09Z</time></trkpt><trkpt lat="44.42749226536953" lon="8.7739673877846"><ele>5.0</ele><time>2026-04-24T14:54:11Z</time></trkpt><trkpt lat="44.427522641261454" lon="8.77380022067965"><ele>5.0</ele><time>2026-04-24T14:54:13Z</time></trkpt><trkpt lat="44.42754299200268" lon="8.773701426335007"><ele>5.0</ele><time>2026-04-24T14:54:14Z</time></trkpt><trkpt lat="44.42756428792312" lon="8.773590646804847"><ele>5.0</ele><time>2026-04-24T14:54:15Z</time></trkpt><trkpt lat="44.4275855954559" lon="8.773483058007713"><ele>4.666666666666667</ele><time>2026-04-24T14:54:16Z</time></trkpt><trkpt lat="44.427607696090305" lon="8.7733730054862"><ele>4.333333333333334</ele><time>2026-04-24T14:54:17Z</time></trkpt><trkpt lat="44.42762733110252" lon="8.773253772284793"><ele>4.0</ele><time>2026-04-24T14:54:18Z</time></trkpt><trkpt lat="44.42764799163077" lon="8.773144362162418"><ele>3.666666666666667</ele><time>2026-04-24T14:54:19Z</time></trkpt><trkpt lat="44.42766793328359" lon="8.773028323895796"><ele>3.3333333333333335</ele><time>2026-04-24T14:54:20Z</time></trkpt><trkpt lat="44.42768943647013" lon="8.772903084613246"><ele>3.0</ele><time>2026-04-24T14:54:21Z</time></trkpt><trkpt lat="44.42771175373479" lon="8.772785895446239"><ele>3.1666666666666665</ele><time>2026-04-24T14:54:22Z</time></trkpt><trkpt lat="44.42773108773284" lon="8.772684814292179"><ele>3.333333333333333</ele><time>2026-04-24T14:54:23Z</time></trkpt><trkpt lat="44.4277439211432" lon="8.77258404680474"><ele>3.5</ele><time>2026-04-24T14:54:24Z</time></trkpt><trkpt lat="44.42775546816809" lon="8.77249159758457"><ele>3.6666666666666665</ele><time>2026-04-24T14:54:25Z</time></trkpt><trkpt lat="44.42778299261962" lon="8.772309592446"><ele>3.833333333333333</ele><time>2026-04-24T14:54:27Z</time></trkpt><trkpt lat="44.427794371750196" lon="8.772203949665899"><ele>4.0</ele><time>2026-04-24T14:54:28Z</time></trkpt><trkpt lat="44.42780366993723" lon="8.772106951584538"><ele>3.9999999999999996</ele><time>2026-04-24T14:54:29Z</time></trkpt><trkpt lat="44.42782117785314" lon="8.771963731528883"><ele>4.0</ele><time>2026-04-24T14:54:31Z</time></trkpt><trkpt lat="44.42783801366411" lon="8.77185339824246"><ele>4.0</ele><time>2026-04-24T14:54:33Z</time></trkpt><trkpt lat="44.42784565108861" lon="8.77174760637265"><ele>4.0</ele><time>2026-04-24T14:54:37Z</time></trkpt><trkpt lat="44.42785097511086" lon="8.771653715378607"><ele>3.9999999999999996</ele><time>2026-04-24T14:54:39.001Z</time></trkpt><trkpt lat="44.42786149632075" lon="8.771564700127193"><ele>4.0</ele><time>2026-04-24T14:54:42.001Z</time></trkpt><trkpt lat="44.42787298792051" lon="8.771455493048677"><ele>4.0</ele><time>2026-04-24T14:54:46.001Z</time></trkpt><trkpt lat="44.42788136524834" lon="8.771325603465288"><ele>4.0</ele><time>2026-04-24T14:54:50Z</time></trkpt><trkpt lat="44.42789501781978" lon="8.771204917748118"><ele>4.0</ele><time>2026-04-24T14:54:52Z</time></trkpt><trkpt lat="44.42790369633821" lon="8.771066702808456"><ele>4.0</ele><time>2026-04-24T14:54:54Z</time></trkpt><trkpt lat="44.427910773400775" lon="8.77086999397812"><ele>4.0</ele><time>2026-04-24T14:54:56Z</time></trkpt><trkpt lat="44.42791253328049" lon="8.7707601602495"><ele>3.9999999999999996</ele><time>2026-04-24T14:54:57Z</time></trkpt><trkpt lat="44.427916874834324" lon="8.77064811637872"><ele>4.0</ele><time>2026-04-24T14:54:58Z</time></trkpt><trkpt lat="44.427923810941415" lon="8.770534845519617"><ele>4.0</ele><time>2026-04-24T14:54:59Z</time></trkpt><trkpt lat="44.427930655968865" lon="8.770415330346088"><ele>4.0</ele><time>2026-04-24T14:55:00Z</time></trkpt><trkpt lat="44.42793549894466" lon="8.770285518581842"><ele>3.9999999999999996</ele><time>2026-04-24T14:55:01Z</time></trkpt><trkpt lat="44.42793990217965" lon="8.77016545316743"><ele>4.0</ele><time>2026-04-24T14:55:02Z</time></trkpt><trkpt lat="44.42794491767994" lon="8.770048106167394"><ele>3.833333333333333</ele><time>2026-04-24T14:55:03Z</time></trkpt><trkpt lat="44.42794434430425" lon="8.769921551889684"><ele>3.6666666666666665</ele><time>2026-04-24T14:55:04Z</time></trkpt><trkpt lat="44.42796767227917" lon="8.769807465735852"><ele>3.5</ele><time>2026-04-24T14:55:05Z</time></trkpt><trkpt lat="44.42797577616653" lon="8.769684382019209"><ele>3.333333333333333</ele><time>2026-04-24T14:55:06Z</time></trkpt><trkpt lat="44.427980630311694" lon="8.769562820798052"><ele>3.1666666666666665</ele><time>2026-04-24T14:55:07Z</time></trkpt><trkpt lat="44.4279676417892" lon="8.769447168993377"><ele>3.0</ele><time>2026-04-24T14:55:08Z</time></trkpt><trkpt lat="44.427976147688184" lon="8.769335353752428"><ele>4.0</ele><time>2026-04-24T14:55:09Z</time></trkpt><trkpt lat="44.427983391332305" lon="8.769216083133783"><ele>5.0</ele><time>2026-04-24T14:55:10Z</time></trkpt><trkpt lat="44.42798770881077" lon="8.769096304868674"><ele>6.0</ele><time>2026-04-24T14:55:11Z</time></trkpt><trkpt lat="44.42799368904343" lon="8.768975921535477"><ele>7.0</ele><time>2026-04-24T14:55:12Z</time></trkpt><trkpt lat="44.427998403377764" lon="8.768863929941753"><ele>8.0</ele><time>2026-04-24T14:55:13Z</time></trkpt><trkpt lat="44.42800873476019" lon="8.768746590198086"><ele>9.0</ele><time>2026-04-24T14:55:14Z</time></trkpt><trkpt lat="44.428015532175735" lon="8.768626567821732"><ele>9.5</ele><time>2026-04-24T14:55:15Z</time></trkpt><trkpt lat="44.42802268005626" lon="8.76851409999289"><ele>10.0</ele><time>2026-04-24T14:55:16Z</time></trkpt><trkpt lat="44.428030424070656" lon="8.768397612300932"><ele>10.5</ele><time>2026-04-24T14:55:17Z</time></trkpt><trkpt lat="44.42803581269571" lon="8.76827322203925"><ele>11.0</ele><time>2026-04-24T14:55:18Z</time></trkpt><trkpt lat="44.428042608280805" lon="8.768150426388447"><ele>11.5</ele><time>2026-04-24T14:55:19Z</time></trkpt><trkpt lat="44.42805001698153" lon="8.768033713937692"><ele>12.0</ele><time>2026-04-24T14:55:20Z</time></trkpt><trkpt lat="44.42805558708063" lon="8.767912634903476"><ele>12.0</ele><time>2026-04-24T14:55:21Z</time></trkpt><trkpt lat="44.42806306186366" lon="8.767784783814419"><ele>12.0</ele><time>2026-04-24T14:55:22Z</time></trkpt><trkpt lat="44.42806795103079" lon="8.76765863734843"><ele>12.0</ele><time>2026-04-24T14:55:23Z</time></trkpt><trkpt lat="44.42807496085172" lon="8.76754026707763"><ele>12.0</ele><time>2026-04-24T14:55:24Z</time></trkpt><trkpt lat="44.428082113532476" lon="8.767413957026308"><ele>12.0</ele><time>2026-04-24T14:55:25Z</time></trkpt><trkpt lat="44.42808430604364" lon="8.767282614906179"><ele>11.4</ele><time>2026-04-24T14:55:26Z</time></trkpt><trkpt lat="44.428088723436204" lon="8.767166664839628"><ele>10.799999999999999</ele><time>2026-04-24T14:55:27Z</time></trkpt><trkpt lat="44.42809228361879" lon="8.767039922053586"><ele>10.2</ele><time>2026-04-24T14:55:28Z</time></trkpt><trkpt lat="44.428100556432696" lon="8.76691124304287"><ele>9.6</ele><time>2026-04-24T14:55:29Z</time></trkpt><trkpt lat="44.42810551214152" lon="8.766771193939613"><ele>9.0</ele><time>2026-04-24T14:55:30Z</time></trkpt><trkpt lat="44.428107855711815" lon="8.766631302914423"><ele>8.6</ele><time>2026-04-24T14:55:31Z</time></trkpt><trkpt lat="44.428110949607145" lon="8.766501530994745"><ele>8.2</ele><time>2026-04-24T14:55:32Z</time></trkpt><trkpt lat="44.42811702071725" lon="8.766369027129203"><ele>7.799999999999999</ele><time>2026-04-24T14:55:33Z</time></trkpt><trkpt lat="44.428129906372895" lon="8.766241703782848"><ele>7.3999999999999995</ele><time>2026-04-24T14:55:34Z</time></trkpt><trkpt lat="44.428135488156954" lon="8.766104796024083"><ele>7.0</ele><time>2026-04-24T14:55:35Z</time></trkpt><trkpt lat="44.4281399835248" lon="8.765975325938593"><ele>7.0</ele><time>2026-04-24T14:55:36Z</time></trkpt><trkpt lat="44.42814663050532" lon="8.765843357849294"><ele>6.999999999999999</ele><time>2026-04-24T14:55:37Z</time></trkpt><trkpt lat="44.42815177842023" lon="8.76570288953288"><ele>6.999999999999999</ele><time>2026-04-24T14:55:38Z</time></trkpt><trkpt lat="44.42815747925486" lon="8.765564874984383"><ele>7.0</ele><time>2026-04-24T14:55:39Z</time></trkpt><trkpt lat="44.42816379569194" lon="8.765428421591869"><ele>7.0</ele><time>2026-04-24T14:55:40Z</time></trkpt><trkpt lat="44.42816909173899" lon="8.765283130381135"><ele>7.0</ele><time>2026-04-24T14:55:41Z</time></trkpt><trkpt lat="44.42817567981612" lon="8.765132196871043"><ele>6.999999999999999</ele><time>2026-04-24T14:55:42Z</time></trkpt><trkpt lat="44.4281838805093" lon="8.76498606339224"><ele>6.999999999999999</ele><time>2026-04-24T14:55:43Z</time></trkpt><trkpt lat="44.42819223317743" lon="8.764839207548633"><ele>7.0</ele><time>2026-04-24T14:55:44Z</time></trkpt><trkpt lat="44.428197403125075" lon="8.764698188162207"><ele>7.0</ele><time>2026-04-24T14:55:45Z</time></trkpt><trkpt lat="44.42820376814377" lon="8.76455663067971"><ele>7.0</ele><time>2026-04-24T14:55:46Z</time></trkpt><trkpt lat="44.428212338128425" lon="8.764411765833803"><ele>6.999999999999999</ele><time>2026-04-24T14:55:47Z</time></trkpt><trkpt lat="44.42821929396856" lon="8.764260293285574"><ele>6.999999999999999</ele><time>2026-04-24T14:55:48Z</time></trkpt><trkpt lat="44.42822660702291" lon="8.764104551344326"><ele>7.0</ele><time>2026-04-24T14:55:49Z</time></trkpt><trkpt lat="44.428232581744055" lon="8.763948670975113"><ele>7.0</ele><time>2026-04-24T14:55:50Z</time></trkpt><trkpt lat="44.42823838961456" lon="8.763789649899563"><ele>7.0</ele><time>2026-04-24T14:55:51Z</time></trkpt><trkpt lat="44.428242973326086" lon="8.763633137977113"><ele>6.999999999999999</ele><time>2026-04-24T14:55:52Z</time></trkpt><trkpt lat="44.42825019019653" lon="8.76348807791117"><ele>6.999999999999999</ele><time>2026-04-24T14:55:53Z</time></trkpt><trkpt lat="44.428259665606554" lon="8.763338161814207"><ele>7.0</ele><time>2026-04-24T14:55:54Z</time></trkpt><trkpt lat="44.42826511241937" lon="8.76319216136917"><ele>7.0</ele><time>2026-04-24T14:55:55Z</time></trkpt><trkpt lat="44.428275081587906" lon="8.763050144799513"><ele>6.8</ele><time>2026-04-24T14:55:56Z</time></trkpt><trkpt lat="44.42829073327595" lon="8.7629030943418"><ele>6.6</ele><time>2026-04-24T14:55:57Z</time></trkpt><trkpt lat="44.428306011103565" lon="8.76276267447071"><ele>6.3999999999999995</ele><time>2026-04-24T14:55:58Z</time></trkpt><trkpt lat="44.42832732273329" lon="8.762623990121154"><ele>6.199999999999999</ele><time>2026-04-24T14:55:59Z</time></trkpt><trkpt lat="44.42835318826788" lon="8.76248000301349"><ele>6.0</ele><time>2026-04-24T14:56:00Z</time></trkpt><trkpt lat="44.42838157878783" lon="8.76234263066407"><ele>6.4</ele><time>2026-04-24T14:56:01Z</time></trkpt><trkpt lat="44.428407304438764" lon="8.762219070060702"><ele>6.8</ele><time>2026-04-24T14:56:02Z</time></trkpt><trkpt lat="44.42843535283689" lon="8.762094716481036"><ele>7.200000000000001</ele><time>2026-04-24T14:56:03Z</time></trkpt><trkpt lat="44.42846167567487" lon="8.76196685656196"><ele>7.6000000000000005</ele><time>2026-04-24T14:56:04Z</time></trkpt><trkpt lat="44.42848578126787" lon="8.761850366583802"><ele>8.0</ele><time>2026-04-24T14:56:05Z</time></trkpt><trkpt lat="44.42851052468812" lon="8.76173931949458"><ele>7.999999999999999</ele><time>2026-04-24T14:56:06Z</time></trkpt><trkpt lat="44.42853154884209" lon="8.761633746237724"><ele>8.0</ele><time>2026-04-24T14:56:07Z</time></trkpt><trkpt lat="44.428551627408375" lon="8.761535307839305"><ele>8.0</ele><time>2026-04-24T14:56:08Z</time></trkpt><trkpt lat="44.42857077059529" lon="8.761431182961319"><ele>8.0</ele><time>2026-04-24T14:56:09Z</time></trkpt><trkpt lat="44.42858576085929" lon="8.761340314583958"><ele>7.999999999999999</ele><time>2026-04-24T14:56:10Z</time></trkpt><trkpt lat="44.42860166755339" lon="8.761249026510542"><ele>8.0</ele><time>2026-04-24T14:56:11Z</time></trkpt><trkpt lat="44.42862890396504" lon="8.761086138019676"><ele>7.6000000000000005</ele><time>2026-04-24T14:56:13Z</time></trkpt><trkpt lat="44.42865030397294" lon="8.760922100700835"><ele>7.200000000000001</ele><time>2026-04-24T14:56:15Z</time></trkpt><trkpt lat="44.428674060968014" lon="8.760775127642262"><ele>6.8</ele><time>2026-04-24T14:56:17Z</time></trkpt><trkpt lat="44.428693910091674" lon="8.76063027201136"><ele>6.4</ele><time>2026-04-24T14:56:19Z</time></trkpt><trkpt lat="44.42871502398358" lon="8.760469198295628"><ele>6.0</ele><time>2026-04-24T14:56:21Z</time></trkpt><trkpt lat="44.428728688872994" lon="8.760382689182938"><ele>6.0</ele><time>2026-04-24T14:56:22Z</time></trkpt><trkpt lat="44.428740915492526" lon="8.760294031909583"><ele>6.0</ele><time>2026-04-24T14:56:23Z</time></trkpt><trkpt lat="44.428761729495946" lon="8.76013930157918"><ele>6.0</ele><time>2026-04-24T14:56:25Z</time></trkpt><trkpt lat="44.42877097530267" lon="8.760047626388412"><ele>6.0</ele><time>2026-04-24T14:56:26Z</time></trkpt><trkpt lat="44.42878863054654" lon="8.759954365812138"><ele>6.0</ele><time>2026-04-24T14:56:27Z</time></trkpt><trkpt lat="44.428804072598986" lon="8.759857876620107"><ele>6.0</ele><time>2026-04-24T14:56:28Z</time></trkpt><trkpt lat="44.42881967710184" lon="8.759754248632893"><ele>8.5</ele><time>2026-04-24T14:56:29Z</time></trkpt><trkpt lat="44.428834350295986" lon="8.759644770919538"><ele>11.0</ele><time>2026-04-24T14:56:30Z</time></trkpt><trkpt lat="44.428848528283126" lon="8.759530044639817"><ele>13.5</ele><time>2026-04-24T14:56:31Z</time></trkpt><trkpt lat="44.42885783916669" lon="8.759421317694434"><ele>16.0</ele><time>2026-04-24T14:56:32Z</time></trkpt><trkpt lat="44.42887073505258" lon="8.759310554437713"><ele>18.5</ele><time>2026-04-24T14:56:33Z</time></trkpt><trkpt lat="44.42888350376099" lon="8.759212805543319"><ele>21.0</ele><time>2026-04-24T14:56:34Z</time></trkpt><trkpt lat="44.42888849812909" lon="8.759109637631726"><ele>21.0</ele><time>2026-04-24T14:56:35Z</time></trkpt><trkpt lat="44.4288912614494" lon="8.759018298950727"><ele>21.0</ele><time>2026-04-24T14:56:36Z</time></trkpt><trkpt lat="44.42888816592044" lon="8.758841217358649"><ele>21.0</ele><time>2026-04-24T14:56:38Z</time></trkpt><trkpt lat="44.428887229587396" lon="8.75875214769589"><ele>21.0</ele><time>2026-04-24T14:56:39Z</time></trkpt><trkpt lat="44.42887100170812" lon="8.758579607049866"><ele>21.0</ele><time>2026-04-24T14:56:41Z</time></trkpt><trkpt lat="44.4288498993463" lon="8.75848472261439"><ele>20.333333333333332</ele><time>2026-04-24T14:56:42Z</time></trkpt><trkpt lat="44.42881891312638" lon="8.758386294835725"><ele>19.666666666666668</ele><time>2026-04-24T14:56:43Z</time></trkpt><trkpt lat="44.42877737366055" lon="8.758287056329985"><ele>19.0</ele><time>2026-04-24T14:56:44Z</time></trkpt><trkpt lat="44.428726724758505" lon="8.758189428670496"><ele>18.333333333333336</ele><time>2026-04-24T14:56:45Z</time></trkpt><trkpt lat="44.428667973757314" lon="8.758090002457735"><ele>17.666666666666668</ele><time>2026-04-24T14:56:46Z</time></trkpt><trkpt lat="44.428601117598724" lon="8.757991761093747"><ele>17.0</ele><time>2026-04-24T14:56:47Z</time></trkpt><trkpt lat="44.4285377273026" lon="8.75789713306153"><ele>15.333333333333334</ele><time>2026-04-24T14:56:48Z</time></trkpt><trkpt lat="44.42848375613066" lon="8.75780754324719"><ele>13.666666666666668</ele><time>2026-04-24T14:56:49Z</time></trkpt><trkpt lat="44.42844310611593" lon="8.75772029066425"><ele>12.0</ele><time>2026-04-24T14:56:50Z</time></trkpt><trkpt lat="44.428412153170314" lon="8.757625435667144"><ele>10.333333333333334</ele><time>2026-04-24T14:56:51Z</time></trkpt><trkpt lat="44.42839707678764" lon="8.757526579545011"><ele>8.666666666666668</ele><time>2026-04-24T14:56:52.001Z</time></trkpt><trkpt lat="44.42839600849246" lon="8.757429176079642"><ele>7.0</ele><time>2026-04-24T14:56:53.001Z</time></trkpt><trkpt lat="44.42842578366991" lon="8.757265296287443"><ele>7.000000000000001</ele><time>2026-04-24T14:56:55Z</time></trkpt><trkpt lat="44.42845770793153" lon="8.757140765153213"><ele>7.0</ele><time>2026-04-24T14:56:57Z</time></trkpt><trkpt lat="44.42847476418311" lon="8.757034311192449"><ele>7.0</ele><time>2026-04-24T14:57:00Z</time></trkpt><trkpt lat="44.42848593696524" lon="8.756943103633208"><ele>7.0</ele><time>2026-04-24T14:57:11Z</time></trkpt><trkpt lat="44.428493444096596" lon="8.75685454796419"><ele>7.000000000000001</ele><time>2026-04-24T14:57:14Z</time></trkpt><trkpt lat="44.42849906032634" lon="8.756737640949646"><ele>7.0</ele><time>2026-04-24T14:57:17Z</time></trkpt><trkpt lat="44.428500062616855" lon="8.75663703174014"><ele>6.857142857142857</ele><time>2026-04-24T14:57:19Z</time></trkpt><trkpt lat="44.42850094895964" lon="8.756548062163999"><ele>6.714285714285714</ele><time>2026-04-24T14:57:23Z</time></trkpt><trkpt lat="44.428488836481385" lon="8.756453364021594"><ele>6.571428571428571</ele><time>2026-04-24T14:57:31Z</time></trkpt><trkpt lat="44.42849677583877" lon="8.756335263543836"><ele>6.428571428571429</ele><time>2026-04-24T14:57:34Z</time></trkpt><trkpt lat="44.42850215250895" lon="8.75623708408742"><ele>6.285714285714286</ele><time>2026-04-24T14:57:37Z</time></trkpt><trkpt lat="44.428502587988774" lon="8.75611063831682"><ele>6.142857142857142</ele><time>2026-04-24T14:57:41Z</time></trkpt><trkpt lat="44.42851024791719" lon="8.756019704286766"><ele>6.0</ele><time>2026-04-24T14:57:44Z</time></trkpt><trkpt lat="44.428494069507735" lon="8.755928123622885"><ele>5.999999999999999</ele><time>2026-04-24T14:58:01Z</time></trkpt><trkpt lat="44.42849665913657" lon="8.755832816113383"><ele>6.0</ele><time>2026-04-24T14:58:03Z</time></trkpt><trkpt lat="44.42849037996785" lon="8.75572563144632"><ele>6.0</ele><time>2026-04-24T14:58:05Z</time></trkpt><trkpt lat="44.42848465600447" lon="8.755634184199085"><ele>6.0</ele><time>2026-04-24T14:58:07Z</time></trkpt><trkpt lat="44.42848813386809" lon="8.755531391780732"><ele>6.0</ele><time>2026-04-24T14:58:09Z</time></trkpt><trkpt lat="44.4284830194519" lon="8.755426301432102"><ele>5.999999999999999</ele><time>2026-04-24T14:58:13Z</time></trkpt><trkpt lat="44.42847709076171" lon="8.755313417571063"><ele>6.0</ele><time>2026-04-24T14:58:17Z</time></trkpt><trkpt lat="44.428476016347545" lon="8.755204082141155"><ele>5.8</ele><time>2026-04-24T14:58:20Z</time></trkpt><trkpt lat="44.42847927834664" lon="8.755093869408926"><ele>5.6</ele><time>2026-04-24T14:58:22Z</time></trkpt><trkpt lat="44.428467061167964" lon="8.754947999825042"><ele>5.4</ele><time>2026-04-24T14:58:24Z</time></trkpt><trkpt lat="44.42846545432725" lon="8.754798607779284"><ele>5.2</ele><time>2026-04-24T14:58:26Z</time></trkpt><trkpt lat="44.42845692917683" lon="8.754640418857226"><ele>5.0</ele><time>2026-04-24T14:58:28Z</time></trkpt><trkpt lat="44.42845300582372" lon="8.754476121489663"><ele>5.0</ele><time>2026-04-24T14:58:30Z</time></trkpt><trkpt lat="44.42844449728789" lon="8.7543800526944"><ele>5.0</ele><time>2026-04-24T14:58:31Z</time></trkpt><trkpt lat="44.42843449896299" lon="8.7542076765979"><ele>5.0</ele><time>2026-04-24T14:58:33Z</time></trkpt><trkpt lat="44.428430442720696" lon="8.754115769952207"><ele>5.0</ele><time>2026-04-24T14:58:34Z</time></trkpt><trkpt lat="44.4284241907188" lon="8.754020971050668"><ele>5.0</ele><time>2026-04-24T14:58:35Z</time></trkpt><trkpt lat="44.42841585570101" lon="8.753842659029024"><ele>5.6</ele><time>2026-04-24T14:58:37Z</time></trkpt><trkpt lat="44.428414451371694" lon="8.753751687199108"><ele>6.2</ele><time>2026-04-24T14:58:38Z</time></trkpt><trkpt lat="44.428402270443726" lon="8.753580081129892"><ele>6.800000000000001</ele><time>2026-04-24T14:58:40Z</time></trkpt><trkpt lat="44.4284053326663" lon="8.753416770255395"><ele>7.4</ele><time>2026-04-24T14:58:42Z</time></trkpt><trkpt lat="44.428397971196304" lon="8.753261781439258"><ele>8.0</ele><time>2026-04-24T14:58:44.001Z</time></trkpt><trkpt lat="44.42839070070295" lon="8.753134579378825"><ele>8.166666666666666</ele><time>2026-04-24T14:58:46.001Z</time></trkpt><trkpt lat="44.428385515107884" lon="8.75304385197126"><ele>8.333333333333332</ele><time>2026-04-24T14:58:48.001Z</time></trkpt><trkpt lat="44.428344454481575" lon="8.752976262568964"><ele>8.5</ele><time>2026-04-24T14:59:02Z</time></trkpt><trkpt lat="44.428323327848325" lon="8.752848370088696"><ele>8.666666666666666</ele><time>2026-04-24T14:59:04Z</time></trkpt><trkpt lat="44.42830840253197" lon="8.752720317105677"><ele>8.833333333333334</ele><time>2026-04-24T14:59:06Z</time></trkpt><trkpt lat="44.42829332745648" lon="8.752561530530489"><ele>9.0</ele><time>2026-04-24T14:59:08Z</time></trkpt><trkpt lat="44.42831336915555" lon="8.752474376426711"><ele>9.0</ele><time>2026-04-24T14:59:09Z</time></trkpt><trkpt lat="44.428284382123024" lon="8.752333877010914"><ele>9.0</ele><time>2026-04-24T14:59:11Z</time></trkpt><trkpt lat="44.4282898310416" lon="8.752194372403586"><ele>9.0</ele><time>2026-04-24T14:59:13Z</time></trkpt><trkpt lat="44.42830014640055" lon="8.752048581398823"><ele>9.0</ele><time>2026-04-24T14:59:15Z</time></trkpt><trkpt lat="44.428311727008655" lon="8.751902566958067"><ele>9.0</ele><time>2026-04-24T14:59:17Z</time></trkpt><trkpt lat="44.42831746977324" lon="8.75178029896357"><ele>8.666666666666666</ele><time>2026-04-24T14:59:19Z</time></trkpt><trkpt lat="44.42832609557687" lon="8.751678823585658"><ele>8.333333333333334</ele><time>2026-04-24T14:59:21Z</time></trkpt><trkpt lat="44.42833250781063" lon="8.751590426777293"><ele>8.0</ele><time>2026-04-24T14:59:23Z</time></trkpt><trkpt lat="44.42833550275931" lon="8.751481589840989"><ele>7.666666666666667</ele><time>2026-04-24T14:59:30Z</time></trkpt><trkpt lat="44.42834283359749" lon="8.751353133794147"><ele>7.333333333333334</ele><time>2026-04-24T14:59:33Z</time></trkpt><trkpt lat="44.42835659506609" lon="8.751237354326099"><ele>7.0</ele><time>2026-04-24T14:59:35Z</time></trkpt><trkpt lat="44.42838527209354" lon="8.751117264182488"><ele>7.166666666666667</ele><time>2026-04-24T14:59:37Z</time></trkpt><trkpt lat="44.42840098598147" lon="8.750983820810761"><ele>7.333333333333334</ele><time>2026-04-24T14:59:39Z</time></trkpt><trkpt lat="44.42841470484226" lon="8.750865227332062"><ele>7.5</ele><time>2026-04-24T14:59:41Z</time></trkpt><trkpt lat="44.42843031539789" lon="8.750730281093873"><ele>7.666666666666666</ele><time>2026-04-24T14:59:43Z</time></trkpt><trkpt lat="44.42844390279295" lon="8.750610002337897"><ele>7.833333333333333</ele><time>2026-04-24T14:59:45Z</time></trkpt><trkpt lat="44.42845718628285" lon="8.750502347609384"><ele>8.0</ele><time>2026-04-24T14:59:47Z</time></trkpt><trkpt lat="44.42846802488987" lon="8.750401530565721"><ele>7.999999999999999</ele><time>2026-04-24T14:59:51Z</time></trkpt><trkpt lat="44.42847864552306" lon="8.750307596298263"><ele>8.0</ele><time>2026-04-24T14:59:56Z</time></trkpt><trkpt lat="44.42849279428912" lon="8.750182457554402"><ele>8.0</ele><time>2026-04-24T15:00:00Z</time></trkpt><trkpt lat="44.42850559397244" lon="8.750064547397708"><ele>8.0</ele><time>2026-04-24T15:00:02Z</time></trkpt><trkpt lat="44.428518431407426" lon="8.749934728825547"><ele>7.999999999999999</ele><time>2026-04-24T15:00:04Z</time></trkpt><trkpt lat="44.42853121821982" lon="8.749800082585542"><ele>8.0</ele><time>2026-04-24T15:00:06Z</time></trkpt><trkpt lat="44.42853804599899" lon="8.74970945287745"><ele>7.999999999999999</ele><time>2026-04-24T15:00:07Z</time></trkpt><trkpt lat="44.42854439093329" lon="8.749621178070754"><ele>8.0</ele><time>2026-04-24T15:00:08Z</time></trkpt><trkpt lat="44.42855310566868" lon="8.749461317658453"><ele>8.0</ele><time>2026-04-24T15:00:10Z</time></trkpt><trkpt lat="44.428558053506684" lon="8.749356895362991"><ele>8.0</ele><time>2026-04-24T15:00:14Z</time></trkpt><trkpt lat="44.42854843845558" lon="8.749241162031886"><ele>7.999999999999999</ele><time>2026-04-24T15:00:16Z</time></trkpt><trkpt lat="44.428568889936464" lon="8.749128196267312"><ele>8.0</ele><time>2026-04-24T15:00:18Z</time></trkpt><trkpt lat="44.42857470193375" lon="8.74900553544618"><ele>8.0</ele><time>2026-04-24T15:00:20Z</time></trkpt><trkpt lat="44.42858006577098" lon="8.74888239059374"><ele>8.0</ele><time>2026-04-24T15:00:22Z</time></trkpt><trkpt lat="44.42858537220178" lon="8.748712664249744"><ele>8.0</ele><time>2026-04-24T15:00:24Z</time></trkpt><trkpt lat="44.42858965451316" lon="8.748533641138861"><ele>8.0</ele><time>2026-04-24T15:00:26Z</time></trkpt><trkpt lat="44.42859172338914" lon="8.748431318134617"><ele>8.0</ele><time>2026-04-24T15:00:27Z</time></trkpt><trkpt lat="44.42859311357" lon="8.74833644746971"><ele>8.0</ele><time>2026-04-24T15:00:28Z</time></trkpt><trkpt lat="44.42859460868255" lon="8.748231750890936"><ele>7.999999999999999</ele><time>2026-04-24T15:00:29Z</time></trkpt><trkpt lat="44.428596092067245" lon="8.748127875404878"><ele>8.0</ele><time>2026-04-24T15:00:30Z</time></trkpt><trkpt lat="44.42859746242914" lon="8.748031914468797"><ele>8.0</ele><time>2026-04-24T15:00:31Z</time></trkpt><trkpt lat="44.42859892730003" lon="8.747929335338869"><ele>7.999999999999999</ele><time>2026-04-24T15:00:32Z</time></trkpt><trkpt lat="44.428600389028624" lon="8.747826974375549"><ele>8.0</ele><time>2026-04-24T15:00:33Z</time></trkpt><trkpt lat="44.428602029945495" lon="8.747733982964444"><ele>8.0</ele><time>2026-04-24T15:00:34Z</time></trkpt><trkpt lat="44.42860376146361" lon="8.747627999521043"><ele>7.666666666666666</ele><time>2026-04-24T15:00:35Z</time></trkpt><trkpt lat="44.42860559188927" lon="8.747528049984302"><ele>7.333333333333333</ele><time>2026-04-24T15:00:36Z</time></trkpt><trkpt lat="44.42860749801312" lon="8.747429834297774"><ele>7.0</ele><time>2026-04-24T15:00:37Z</time></trkpt><trkpt lat="44.4286108775631" lon="8.747247330505582"><ele>6.666666666666666</ele><time>2026-04-24T15:00:39Z</time></trkpt><trkpt lat="44.42861262107904" lon="8.747149749565622"><ele>6.333333333333333</ele><time>2026-04-24T15:00:40Z</time></trkpt><trkpt lat="44.42861513195465" lon="8.747035111089017"><ele>6.0</ele><time>2026-04-24T15:00:41Z</time></trkpt><trkpt lat="44.428617261263" lon="8.746937893807965"><ele>6.333333333333333</ele><time>2026-04-24T15:00:42Z</time></trkpt><trkpt lat="44.42861954663802" lon="8.746839771786794"><ele>6.666666666666666</ele><time>2026-04-24T15:00:43Z</time></trkpt><trkpt lat="44.42862344854614" lon="8.746747431863147"><ele>7.0</ele><time>2026-04-24T15:00:44Z</time></trkpt><trkpt lat="44.428619755014026" lon="8.746604014062932"><ele>7.333333333333333</ele><time>2026-04-24T15:00:46Z</time></trkpt><trkpt lat="44.42861313501073" lon="8.746495964109556"><ele>7.666666666666666</ele><time>2026-04-24T15:00:48.001Z</time></trkpt><trkpt lat="44.42859495386898" lon="8.746383122547423"><ele>8.0</ele><time>2026-04-24T15:00:50.001Z</time></trkpt><trkpt lat="44.42856195676671" lon="8.746271466061975"><ele>8.0</ele><time>2026-04-24T15:00:52.001Z</time></trkpt><trkpt lat="44.428515984209376" lon="8.746147058667288"><ele>8.0</ele><time>2026-04-24T15:00:54.001Z</time></trkpt><trkpt lat="44.42847470746134" lon="8.746037869875943"><ele>8.0</ele><time>2026-04-24T15:00:56.001Z</time></trkpt><trkpt lat="44.42842991384904" lon="8.745927025463278"><ele>8.0</ele><time>2026-04-24T15:00:58.001Z</time></trkpt><trkpt lat="44.42838009666202" lon="8.74580440485261"><ele>8.0</ele><time>2026-04-24T15:01:00.001Z</time></trkpt><trkpt lat="44.428313722168525" lon="8.745684210256755"><ele>8.285714285714285</ele><time>2026-04-24T15:01:02.001Z</time></trkpt><trkpt lat="44.42828196582321" lon="8.745601640831381"><ele>8.571428571428571</ele><time>2026-04-24T15:01:03.001Z</time></trkpt><trkpt lat="44.428247776176306" lon="8.745516331692324"><ele>8.857142857142858</ele><time>2026-04-24T15:01:04.001Z</time></trkpt><trkpt lat="44.42821264576731" lon="8.745428097906466"><ele>9.142857142857142</ele><time>2026-04-24T15:01:05.001Z</time></trkpt><trkpt lat="44.428180734474694" lon="8.745340524001035"><ele>9.428571428571429</ele><time>2026-04-24T15:01:06.001Z</time></trkpt><trkpt lat="44.42814763111651" lon="8.745247384982022"><ele>9.714285714285714</ele><time>2026-04-24T15:01:07Z</time></trkpt><trkpt lat="44.42811195320238" lon="8.745160717428567"><ele>10.0</ele><time>2026-04-24T15:01:08Z</time></trkpt><trkpt lat="44.428074146977394" lon="8.745060713795715"><ele>11.2</ele><time>2026-04-24T15:01:09Z</time></trkpt><trkpt lat="44.42803271231765" lon="8.744953423509934"><ele>12.4</ele><time>2026-04-24T15:01:10Z</time></trkpt><trkpt lat="44.42798762828919" lon="8.74484002231889"><ele>13.600000000000001</ele><time>2026-04-24T15:01:11Z</time></trkpt><trkpt lat="44.42794528747471" lon="8.744733862046964"><ele>14.8</ele><time>2026-04-24T15:01:12Z</time></trkpt><trkpt lat="44.4279016520357" lon="8.744623471476519"><ele>16.0</ele><time>2026-04-24T15:01:13Z</time></trkpt><trkpt lat="44.42785470718168" lon="8.744504411760785"><ele>14.200000000000001</ele><time>2026-04-24T15:01:14Z</time></trkpt><trkpt lat="44.427816833139325" lon="8.74437039868932"><ele>12.400000000000002</ele><time>2026-04-24T15:01:15Z</time></trkpt><trkpt lat="44.42776983636905" lon="8.744249856126533"><ele>10.6</ele><time>2026-04-24T15:01:16Z</time></trkpt><trkpt lat="44.427720712217514" lon="8.744123339695738"><ele>8.8</ele><time>2026-04-24T15:01:17Z</time></trkpt><trkpt lat="44.42767328704296" lon="8.744001779311745"><ele>7.0</ele><time>2026-04-24T15:01:18Z</time></trkpt><trkpt lat="44.42763007504275" lon="8.743891018069007"><ele>7.000000000000001</ele><time>2026-04-24T15:01:19Z</time></trkpt><trkpt lat="44.42758807972311" lon="8.743783375519943"><ele>7.0</ele><time>2026-04-24T15:01:20Z</time></trkpt><trkpt lat="44.427549041936075" lon="8.743686125141474"><ele>7.0</ele><time>2026-04-24T15:01:21Z</time></trkpt><trkpt lat="44.42750912020823" lon="8.743587392605564"><ele>7.0</ele><time>2026-04-24T15:01:22Z</time></trkpt><trkpt lat="44.427473107988796" lon="8.743497410902345"><ele>7.000000000000001</ele><time>2026-04-24T15:01:23Z</time></trkpt><trkpt lat="44.42742807186536" lon="8.743415676216005"><ele>7.0</ele><time>2026-04-24T15:01:24Z</time></trkpt><trkpt lat="44.427409958835305" lon="8.74332172698139"><ele>6.833333333333334</ele><time>2026-04-24T15:01:25Z</time></trkpt><trkpt lat="44.42738425283288" lon="8.743220473908275"><ele>6.666666666666667</ele><time>2026-04-24T15:01:26Z</time></trkpt><trkpt lat="44.42737976507941" lon="8.743106116575122"><ele>6.5</ele><time>2026-04-24T15:01:27Z</time></trkpt><trkpt lat="44.42734984454933" lon="8.742989303018796"><ele>6.333333333333334</ele><time>2026-04-24T15:01:28Z</time></trkpt><trkpt lat="44.42733917786062" lon="8.742861477031006"><ele>6.166666666666667</ele><time>2026-04-24T15:01:29Z</time></trkpt><trkpt lat="44.42732814440146" lon="8.742725933128739"><ele>6.0</ele><time>2026-04-24T15:01:30Z</time></trkpt><trkpt lat="44.42731849566077" lon="8.742606338379696"><ele>5.833333333333333</ele><time>2026-04-24T15:01:31Z</time></trkpt><trkpt lat="44.42730515496282" lon="8.742487522239053"><ele>5.666666666666667</ele><time>2026-04-24T15:01:32Z</time></trkpt><trkpt lat="44.4272923692407" lon="8.742366601594687"><ele>5.5</ele><time>2026-04-24T15:01:33Z</time></trkpt><trkpt lat="44.42728231856754" lon="8.742254240919284"><ele>5.333333333333334</ele><time>2026-04-24T15:01:34Z</time></trkpt><trkpt lat="44.4272678899342" lon="8.742155360412246"><ele>5.166666666666667</ele><time>2026-04-24T15:01:35Z</time></trkpt><trkpt lat="44.427249068696" lon="8.742062169026733"><ele>5.0</ele><time>2026-04-24T15:01:36Z</time></trkpt><trkpt lat="44.42724134544256" lon="8.74195563556074"><ele>4.833333333333334</ele><time>2026-04-24T15:01:37Z</time></trkpt><trkpt lat="44.427201927906296" lon="8.741854334912645"><ele>4.666666666666667</ele><time>2026-04-24T15:01:38Z</time></trkpt><trkpt lat="44.42715402774883" lon="8.741768515714455"><ele>4.5</ele><time>2026-04-24T15:01:39Z</time></trkpt><trkpt lat="44.42708788224084" lon="8.741706751118766"><ele>4.333333333333333</ele><time>2026-04-24T15:01:40Z</time></trkpt><trkpt lat="44.42703504570202" lon="8.74163451593987"><ele>4.166666666666666</ele><time>2026-04-24T15:01:41Z</time></trkpt><trkpt lat="44.42699032389197" lon="8.741565321181596"><ele>4.0</ele><time>2026-04-24T15:01:42Z</time></trkpt><trkpt lat="44.42693831497151" lon="8.74149301579946"><ele>4.0</ele><time>2026-04-24T15:01:43Z</time></trkpt><trkpt lat="44.42688334291642" lon="8.741420562361641"><ele>4.0</ele><time>2026-04-24T15:01:44Z</time></trkpt><trkpt lat="44.42681815977211" lon="8.741341221917043"><ele>4.0</ele><time>2026-04-24T15:01:45Z</time></trkpt><trkpt lat="44.42675585169137" lon="8.741247847883981"><ele>4.0</ele><time>2026-04-24T15:01:46Z</time></trkpt><trkpt lat="44.42667963804691" lon="8.741146407159263"><ele>4.0</ele><time>2026-04-24T15:01:47Z</time></trkpt><trkpt lat="44.42660369572225" lon="8.74106372538108"><ele>6.666666666666666</ele><time>2026-04-24T15:01:48Z</time></trkpt><trkpt lat="44.42653258656814" lon="8.740980994400173"><ele>9.333333333333334</ele><time>2026-04-24T15:01:49Z</time></trkpt><trkpt lat="44.42646788754518" lon="8.740895142412153"><ele>12.0</ele><time>2026-04-24T15:01:50Z</time></trkpt><trkpt lat="44.426422661803336" lon="8.740812209646167"><ele>14.666666666666668</ele><time>2026-04-24T15:01:51Z</time></trkpt><trkpt lat="44.42638914517682" lon="8.740710917433429"><ele>17.333333333333336</ele><time>2026-04-24T15:01:52Z</time></trkpt><trkpt lat="44.426359147255376" lon="8.740600842939434"><ele>20.0</ele><time>2026-04-24T15:01:53Z</time></trkpt><trkpt lat="44.42632683940417" lon="8.740493946044133"><ele>18.4</ele><time>2026-04-24T15:01:54Z</time></trkpt><trkpt lat="44.42628853381737" lon="8.740395324164245"><ele>16.8</ele><time>2026-04-24T15:01:55Z</time></trkpt><trkpt lat="44.426235766196015" lon="8.740298311598684"><ele>15.2</ele><time>2026-04-24T15:01:56Z</time></trkpt><trkpt lat="44.4261740578362" lon="8.740203131164941"><ele>13.6</ele><time>2026-04-24T15:01:57Z</time></trkpt><trkpt lat="44.42610036442288" lon="8.740108155055337"><ele>12.0</ele><time>2026-04-24T15:01:58Z</time></trkpt><trkpt lat="44.4260288832178" lon="8.740013801785576"><ele>12.0</ele><time>2026-04-24T15:01:59Z</time></trkpt><trkpt lat="44.425956016385854" lon="8.73991528987342"><ele>12.0</ele><time>2026-04-24T15:02:00Z</time></trkpt><trkpt lat="44.4258836158147" lon="8.739817490372054"><ele>12.0</ele><time>2026-04-24T15:02:01Z</time></trkpt><trkpt lat="44.42581850236804" lon="8.739720091590838"><ele>12.0</ele><time>2026-04-24T15:02:02Z</time></trkpt><trkpt lat="44.425757109303646" lon="8.739609014979123"><ele>12.0</ele><time>2026-04-24T15:02:03Z</time></trkpt><trkpt lat="44.425697419392684" lon="8.739492705502867"><ele>12.0</ele><time>2026-04-24T15:02:04Z</time></trkpt><trkpt lat="44.425639328112794" lon="8.739385746527205"><ele>12.0</ele><time>2026-04-24T15:02:05Z</time></trkpt><trkpt lat="44.425574961719335" lon="8.739279923592122"><ele>12.0</ele><time>2026-04-24T15:02:06Z</time></trkpt><trkpt lat="44.425505401766834" lon="8.739178610858781"><ele>12.0</ele><time>2026-04-24T15:02:07Z</time></trkpt><trkpt lat="44.425429585438245" lon="8.739084676648325"><ele>12.0</ele><time>2026-04-24T15:02:08Z</time></trkpt><trkpt lat="44.425345375093144" lon="8.738990316679548"><ele>11.8</ele><time>2026-04-24T15:02:09Z</time></trkpt><trkpt lat="44.42526587553411" lon="8.73889806216875"><ele>11.6</ele><time>2026-04-24T15:02:10Z</time></trkpt><trkpt lat="44.425177635504795" lon="8.73879628034513"><ele>11.4</ele><time>2026-04-24T15:02:11Z</time></trkpt><trkpt lat="44.425095974250425" lon="8.738698586099716"><ele>11.200000000000001</ele><time>2026-04-24T15:02:12Z</time></trkpt><trkpt lat="44.425021857445635" lon="8.738599638006232"><ele>11.0</ele><time>2026-04-24T15:02:13Z</time></trkpt><trkpt lat="44.42494748229554" lon="8.738493708960554"><ele>14.0</ele><time>2026-04-24T15:02:14Z</time></trkpt><trkpt lat="44.42488288872379" lon="8.73839175534817"><ele>17.0</ele><time>2026-04-24T15:02:15Z</time></trkpt><trkpt lat="44.424824251869765" lon="8.738296518760235"><ele>20.0</ele><time>2026-04-24T15:02:16Z</time></trkpt><trkpt lat="44.42476954520008" lon="8.738193245597452"><ele>23.0</ele><time>2026-04-24T15:02:17Z</time></trkpt><trkpt lat="44.42472277493805" lon="8.738080650924749"><ele>26.0</ele><time>2026-04-24T15:02:18Z</time></trkpt><trkpt lat="44.42468270771702" lon="8.73796796923256"><ele>25.999999999999996</ele><time>2026-04-24T15:02:19Z</time></trkpt><trkpt lat="44.42465123946202" lon="8.737870086259518"><ele>26.0</ele><time>2026-04-24T15:02:20Z</time></trkpt><trkpt lat="44.424606761201595" lon="8.737788306861153"><ele>26.0</ele><time>2026-04-24T15:02:21Z</time></trkpt><trkpt lat="44.42454679147845" lon="8.737722636744094"><ele>26.0</ele><time>2026-04-24T15:02:22Z</time></trkpt><trkpt lat="44.42447680986231" lon="8.737674983133399"><ele>25.999999999999996</ele><time>2026-04-24T15:02:23Z</time></trkpt><trkpt lat="44.42439637247297" lon="8.737651774263805"><ele>26.0</ele><time>2026-04-24T15:02:24Z</time></trkpt><trkpt lat="44.424308383543746" lon="8.737651598339571"><ele>24.999999999999996</ele><time>2026-04-24T15:02:25Z</time></trkpt><trkpt lat="44.42421800690406" lon="8.737669034947269"><ele>24.0</ele><time>2026-04-24T15:02:26Z</time></trkpt><trkpt lat="44.42412188565671" lon="8.73769631613113"><ele>23.0</ele><time>2026-04-24T15:02:27Z</time></trkpt><trkpt lat="44.424036300620685" lon="8.737716978071367"><ele>22.0</ele><time>2026-04-24T15:02:28Z</time></trkpt><trkpt lat="44.42395964477647" lon="8.737721853334923"><ele>21.0</ele><time>2026-04-24T15:02:29Z</time></trkpt><trkpt lat="44.42388894160403" lon="8.737699135083368"><ele>20.0</ele><time>2026-04-24T15:02:30Z</time></trkpt><trkpt lat="44.42382383325875" lon="8.737646418751357"><ele>18.6</ele><time>2026-04-24T15:02:31Z</time></trkpt><trkpt lat="44.42376260383841" lon="8.737573640848385"><ele>17.2</ele><time>2026-04-24T15:02:32Z</time></trkpt><trkpt lat="44.42369910992457" lon="8.737489151323823"><ele>15.8</ele><time>2026-04-24T15:02:33Z</time></trkpt><trkpt lat="44.423629985403835" lon="8.737405697475914"><ele>14.4</ele><time>2026-04-24T15:02:34Z</time></trkpt><trkpt lat="44.42355297643661" lon="8.73730870243359"><ele>13.0</ele><time>2026-04-24T15:02:35Z</time></trkpt><trkpt lat="44.42347182425703" lon="8.737204765874798"><ele>13.0</ele><time>2026-04-24T15:02:36Z</time></trkpt><trkpt lat="44.42338645730846" lon="8.737092778668112"><ele>13.0</ele><time>2026-04-24T15:02:37Z</time></trkpt><trkpt lat="44.42330710275551" lon="8.73698557467025"><ele>13.0</ele><time>2026-04-24T15:02:38Z</time></trkpt><trkpt lat="44.423218977604655" lon="8.73687532340535"><ele>13.0</ele><time>2026-04-24T15:02:39Z</time></trkpt><trkpt lat="44.423137463940755" lon="8.73677106181427"><ele>11.200000000000001</ele><time>2026-04-24T15:02:40Z</time></trkpt><trkpt lat="44.42306393601476" lon="8.736666441702507"><ele>9.4</ele><time>2026-04-24T15:02:41Z</time></trkpt><trkpt lat="44.42300569740848" lon="8.736566542065681"><ele>7.6000000000000005</ele><time>2026-04-24T15:02:42Z</time></trkpt><trkpt lat="44.42296461448536" lon="8.736463159375194"><ele>5.800000000000001</ele><time>2026-04-24T15:02:43Z</time></trkpt><trkpt lat="44.422934943169004" lon="8.736345062173775"><ele>4.0</ele><time>2026-04-24T15:02:44Z</time></trkpt><trkpt lat="44.42291703441897" lon="8.736224063904139"><ele>3.9999999999999996</ele><time>2026-04-24T15:02:45Z</time></trkpt><trkpt lat="44.42289031986657" lon="8.736114985497032"><ele>4.0</ele><time>2026-04-24T15:02:46Z</time></trkpt><trkpt lat="44.42286037271078" lon="8.736011013019437"><ele>4.0</ele><time>2026-04-24T15:02:47Z</time></trkpt><trkpt lat="44.42281205560522" lon="8.73590582721317"><ele>4.0</ele><time>2026-04-24T15:02:48Z</time></trkpt><trkpt lat="44.42275403093579" lon="8.735803386328946"><ele>3.9999999999999996</ele><time>2026-04-24T15:02:49Z</time></trkpt><trkpt lat="44.422686426537666" lon="8.735701202940051"><ele>4.0</ele><time>2026-04-24T15:02:50Z</time></trkpt><trkpt lat="44.42261499746271" lon="8.735589196737328"><ele>5.800000000000001</ele><time>2026-04-24T15:02:51Z</time></trkpt><trkpt lat="44.42254875366963" lon="8.735479935288865"><ele>7.6000000000000005</ele><time>2026-04-24T15:02:52Z</time></trkpt><trkpt lat="44.42247908790543" lon="8.735370172373063"><ele>9.4</ele><time>2026-04-24T15:02:53Z</time></trkpt><trkpt lat="44.4224171042544" lon="8.735263714014321"><ele>11.200000000000001</ele><time>2026-04-24T15:02:54.001Z</time></trkpt><trkpt lat="44.422360893503196" lon="8.73516040044561"><ele>13.0</ele><time>2026-04-24T15:02:55.001Z</time></trkpt><trkpt lat="44.42231363051099" lon="8.735048981076634"><ele>15.0</ele><time>2026-04-24T15:02:56.001Z</time></trkpt><trkpt lat="44.42227955633416" lon="8.734936969102867"><ele>17.0</ele><time>2026-04-24T15:02:57.001Z</time></trkpt><trkpt lat="44.42226228760822" lon="8.734820420550303"><ele>19.0</ele><time>2026-04-24T15:02:58.001Z</time></trkpt><trkpt lat="44.42225875696425" lon="8.734707619620417"><ele>21.0</ele><time>2026-04-24T15:02:59.001Z</time></trkpt><trkpt lat="44.42227657604097" lon="8.734596795839925"><ele>23.000000000000004</ele><time>2026-04-24T15:03:00.001Z</time></trkpt><trkpt lat="44.422303965108846" lon="8.734480209870966"><ele>25.0</ele><time>2026-04-24T15:03:01.001Z</time></trkpt><trkpt lat="44.42232512135135" lon="8.734351876441503"><ele>27.333333333333336</ele><time>2026-04-24T15:03:02.001Z</time></trkpt><trkpt lat="44.42233466456855" lon="8.734227072748743"><ele>29.666666666666668</ele><time>2026-04-24T15:03:03.001Z</time></trkpt><trkpt lat="44.422333534010406" lon="8.734096256688485"><ele>32.0</ele><time>2026-04-24T15:03:04.001Z</time></trkpt><trkpt lat="44.4223230507703" lon="8.733974295019081"><ele>34.333333333333336</ele><time>2026-04-24T15:03:05.001Z</time></trkpt><trkpt lat="44.42230012992558" lon="8.73385708039459"><ele>36.666666666666664</ele><time>2026-04-24T15:03:06.001Z</time></trkpt><trkpt lat="44.42226781692018" lon="8.733746746284261"><ele>39.0</ele><time>2026-04-24T15:03:07.001Z</time></trkpt><trkpt lat="44.422220216214804" lon="8.733634773363772"><ele>42.4</ele><time>2026-04-24T15:03:08.001Z</time></trkpt><trkpt lat="44.422162547411546" lon="8.73352202516018"><ele>45.8</ele><time>2026-04-24T15:03:09.001Z</time></trkpt><trkpt lat="44.422099940774366" lon="8.73341113437012"><ele>49.199999999999996</ele><time>2026-04-24T15:03:10.001Z</time></trkpt><trkpt lat="44.422043542778184" lon="8.733302619208025"><ele>52.599999999999994</ele><time>2026-04-24T15:03:11.001Z</time></trkpt><trkpt lat="44.42199011148139" lon="8.7332001720745"><ele>56.0</ele><time>2026-04-24T15:03:12.001Z</time></trkpt><trkpt lat="44.421939587456215" lon="8.733101581039683"><ele>47.0</ele><time>2026-04-24T15:03:13Z</time></trkpt><trkpt lat="44.42190151244793" lon="8.732984849491002"><ele>37.99999999999999</ele><time>2026-04-24T15:03:14Z</time></trkpt><trkpt lat="44.42188324590422" lon="8.73287067991628"><ele>29.0</ele><time>2026-04-24T15:03:15Z</time></trkpt><trkpt lat="44.42187514020757" lon="8.732749659988267"><ele>20.0</ele><time>2026-04-24T15:03:16Z</time></trkpt><trkpt lat="44.421877383388576" lon="8.732613971545959"><ele>11.0</ele><time>2026-04-24T15:03:17Z</time></trkpt><trkpt lat="44.42188642551249" lon="8.732484750271219"><ele>11.0</ele><time>2026-04-24T15:03:18Z</time></trkpt><trkpt lat="44.42188905803878" lon="8.732361297087358"><ele>11.0</ele><time>2026-04-24T15:03:19Z</time></trkpt><trkpt lat="44.4218786538063" lon="8.732233231435094"><ele>11.0</ele><time>2026-04-24T15:03:20Z</time></trkpt><trkpt lat="44.421858893738325" lon="8.732106063992171"><ele>11.0</ele><time>2026-04-24T15:03:21Z</time></trkpt><trkpt lat="44.42182176123784" lon="8.731987534593022"><ele>11.0</ele><time>2026-04-24T15:03:22Z</time></trkpt><trkpt lat="44.421779062349536" lon="8.731863677625325"><ele>12.0</ele><time>2026-04-24T15:03:23Z</time></trkpt><trkpt lat="44.42172718450516" lon="8.731750864547278"><ele>13.0</ele><time>2026-04-24T15:03:24Z</time></trkpt><trkpt lat="44.421670184065405" lon="8.731635423977048"><ele>14.000000000000002</ele><time>2026-04-24T15:03:25Z</time></trkpt><trkpt lat="44.421618924439805" lon="8.731519360715708"><ele>15.0</ele><time>2026-04-24T15:03:26Z</time></trkpt><trkpt lat="44.42157839144395" lon="8.731400945236748"><ele>16.0</ele><time>2026-04-24T15:03:27Z</time></trkpt><trkpt lat="44.42155521362713" lon="8.731287623071509"><ele>16.0</ele><time>2026-04-24T15:03:28Z</time></trkpt><trkpt lat="44.421546730331464" lon="8.731154281938101"><ele>16.0</ele><time>2026-04-24T15:03:29Z</time></trkpt><trkpt lat="44.421550977840006" lon="8.73102636729251"><ele>16.0</ele><time>2026-04-24T15:03:30Z</time></trkpt><trkpt lat="44.421546978075874" lon="8.730891373797737"><ele>16.0</ele><time>2026-04-24T15:03:31Z</time></trkpt><trkpt lat="44.42153808046373" lon="8.730766673074674"><ele>16.0</ele><time>2026-04-24T15:03:32Z</time></trkpt><trkpt lat="44.42151246003306" lon="8.730648094046476"><ele>14.8</ele><time>2026-04-24T15:03:33Z</time></trkpt><trkpt lat="44.42147102023794" lon="8.730527927404282"><ele>13.600000000000001</ele><time>2026-04-24T15:03:34Z</time></trkpt><trkpt lat="44.42141194952549" lon="8.73041351967031"><ele>12.4</ele><time>2026-04-24T15:03:35Z</time></trkpt><trkpt lat="44.42134691628798" lon="8.730303035352778"><ele>11.2</ele><time>2026-04-24T15:03:36Z</time></trkpt><trkpt lat="44.421269446564196" lon="8.73018903722208"><ele>10.0</ele><time>2026-04-24T15:03:37Z</time></trkpt><trkpt lat="44.421185994469504" lon="8.730069851858255"><ele>10.0</ele><time>2026-04-24T15:03:38Z</time></trkpt><trkpt lat="44.42109502452951" lon="8.729938802844822"><ele>10.0</ele><time>2026-04-24T15:03:39Z</time></trkpt><trkpt lat="44.420993040006074" lon="8.729805764074573"><ele>10.0</ele><time>2026-04-24T15:03:40Z</time></trkpt><trkpt lat="44.42089719469162" lon="8.72965604616426"><ele>10.0</ele><time>2026-04-24T15:03:41Z</time></trkpt><trkpt lat="44.42079578891201" lon="8.729503552280129"><ele>9.25</ele><time>2026-04-24T15:03:42Z</time></trkpt><trkpt lat="44.42068740600202" lon="8.729345014020923"><ele>8.5</ele><time>2026-04-24T15:03:43Z</time></trkpt><trkpt lat="44.42058846228616" lon="8.729204757802464"><ele>7.75</ele><time>2026-04-24T15:03:44Z</time></trkpt><trkpt lat="44.42048851877874" lon="8.729061161320011"><ele>7.0</ele><time>2026-04-24T15:03:45Z</time></trkpt><trkpt lat="44.420389991730296" lon="8.72892486225451"><ele>7.0</ele><time>2026-04-24T15:03:46Z</time></trkpt><trkpt lat="44.42028909986299" lon="8.72878987699462"><ele>7.0</ele><time>2026-04-24T15:03:47Z</time></trkpt><trkpt lat="44.42019256569227" lon="8.728669887876734"><ele>7.0</ele><time>2026-04-24T15:03:48Z</time></trkpt><trkpt lat="44.42008694088734" lon="8.728552956343268"><ele>7.0</ele><time>2026-04-24T15:03:49Z</time></trkpt><trkpt lat="44.419971270040286" lon="8.728432528478608"><ele>6.0</ele><time>2026-04-24T15:03:50Z</time></trkpt><trkpt lat="44.41985930353703" lon="8.728309626295525"><ele>5.0</ele><time>2026-04-24T15:03:51Z</time></trkpt><trkpt lat="44.419739188813246" lon="8.728179860781763"><ele>4.0</ele><time>2026-04-24T15:03:52Z</time></trkpt><trkpt lat="44.419621101046886" lon="8.728058641487314"><ele>3.0</ele><time>2026-04-24T15:03:53Z</time></trkpt><trkpt lat="44.41949929024978" lon="8.727936203091005"><ele>3.0</ele><time>2026-04-24T15:03:54Z</time></trkpt><trkpt lat="44.419376979197054" lon="8.727812474135604"><ele>3.0</ele><time>2026-04-24T15:03:55Z</time></trkpt><trkpt lat="44.419258672010336" lon="8.72768833218083"><ele>3.0</ele><time>2026-04-24T15:03:56Z</time></trkpt><trkpt lat="44.41913611306579" lon="8.72756568563048"><ele>3.0</ele><time>2026-04-24T15:03:57Z</time></trkpt><trkpt lat="44.419019121531086" lon="8.72745231296605"><ele>3.25</ele><time>2026-04-24T15:03:58Z</time></trkpt><trkpt lat="44.41889768940765" lon="8.72733316490177"><ele>3.5</ele><time>2026-04-24T15:03:59Z</time></trkpt><trkpt lat="44.41877663700879" lon="8.727212125686112"><ele>3.75</ele><time>2026-04-24T15:04:00Z</time></trkpt><trkpt lat="44.41865934635973" lon="8.727089177947821"><ele>4.0</ele><time>2026-04-24T15:04:01Z</time></trkpt><trkpt lat="44.41854789906805" lon="8.726961415189072"><ele>9.25</ele><time>2026-04-24T15:04:02Z</time></trkpt><trkpt lat="44.41843882003262" lon="8.726826876691124"><ele>14.5</ele><time>2026-04-24T15:04:03Z</time></trkpt><trkpt lat="44.418334025228894" lon="8.726680584995758"><ele>19.75</ele><time>2026-04-24T15:04:04Z</time></trkpt><trkpt lat="44.41823684128645" lon="8.726541435279984"><ele>25.0</ele><time>2026-04-24T15:04:05Z</time></trkpt><trkpt lat="44.418143582227536" lon="8.726400396824888"><ele>25.0</ele><time>2026-04-24T15:04:06Z</time></trkpt><trkpt lat="44.41804372020802" lon="8.726253875658253"><ele>25.0</ele><time>2026-04-24T15:04:07Z</time></trkpt><trkpt lat="44.41794904145127" lon="8.72610684036831"><ele>25.0</ele><time>2026-04-24T15:04:08Z</time></trkpt><trkpt lat="44.41785650864761" lon="8.725955852283532"><ele>25.0</ele><time>2026-04-24T15:04:09.019Z</time></trkpt><trkpt lat="44.41776708635542" lon="8.725809470074203"><ele>23.25</ele><time>2026-04-24T15:04:10.02Z</time></trkpt><trkpt lat="44.41768624603204" lon="8.7256572033773"><ele>21.5</ele><time>2026-04-24T15:04:11.019Z</time></trkpt><trkpt lat="44.417611161358174" lon="8.725499409816953"><ele>19.75</ele><time>2026-04-24T15:04:12.018Z</time></trkpt><trkpt lat="44.417536229934946" lon="8.725347589666274"><ele>18.0</ele><time>2026-04-24T15:04:13.018Z</time></trkpt><trkpt lat="44.41721804553961" lon="8.724619482718722"><ele>12.0</ele><time>2026-04-24T15:04:17.625Z</time></trkpt><trkpt lat="44.41710921775237" lon="8.724112546931808"><ele>6.0</ele><time>2026-04-24T15:04:21Z</time></trkpt><trkpt lat="44.417077532307296" lon="8.723942838480932"><ele>6.0</ele><time>2026-04-24T15:04:22Z</time></trkpt><trkpt lat="44.41703488493587" lon="8.723775187396361"><ele>6.0</ele><time>2026-04-24T15:04:23Z</time></trkpt><trkpt lat="44.41701330043094" lon="8.723609035671686"><ele>6.0</ele><time>2026-04-24T15:04:24Z</time></trkpt><trkpt lat="44.41698479063977" lon="8.723446351809848"><ele>6.0</ele><time>2026-04-24T15:04:25Z</time></trkpt><trkpt lat="44.41695475376148" lon="8.723271535230685"><ele>7.0</ele><time>2026-04-24T15:04:26Z</time></trkpt><trkpt lat="44.41693310567662" lon="8.723089454667607"><ele>8.0</ele><time>2026-04-24T15:04:27Z</time></trkpt><trkpt lat="44.4168995186486" lon="8.722913971402383"><ele>9.0</ele><time>2026-04-24T15:04:28Z</time></trkpt><trkpt lat="44.41686747939892" lon="8.722740052967088"><ele>10.0</ele><time>2026-04-24T15:04:29Z</time></trkpt><trkpt lat="44.41683925849705" lon="8.722570499562982"><ele>11.25</ele><time>2026-04-24T15:04:30Z</time></trkpt><trkpt lat="44.416808200972014" lon="8.722398621194564"><ele>12.5</ele><time>2026-04-24T15:04:31Z</time></trkpt><trkpt lat="44.41677181339743" lon="8.72221913113452"><ele>13.75</ele><time>2026-04-24T15:04:32Z</time></trkpt><trkpt lat="44.4167390342843" lon="8.722047506309709"><ele>15.0</ele><time>2026-04-24T15:04:33Z</time></trkpt><trkpt lat="44.41670705970006" lon="8.72186856752427"><ele>15.25</ele><time>2026-04-24T15:04:34Z</time></trkpt><trkpt lat="44.41667376870751" lon="8.721704882552942"><ele>15.5</ele><time>2026-04-24T15:04:35Z</time></trkpt><trkpt lat="44.416642136004526" lon="8.72152670188957"><ele>15.75</ele><time>2026-04-24T15:04:36Z</time></trkpt><trkpt lat="44.416614998384915" lon="8.721353036579147"><ele>16.0</ele><time>2026-04-24T15:04:37Z</time></trkpt><trkpt lat="44.416590231968804" lon="8.721186665905142"><ele>18.75</ele><time>2026-04-24T15:04:38Z</time></trkpt><trkpt lat="44.41656626086463" lon="8.721014037586647"><ele>21.5</ele><time>2026-04-24T15:04:39Z</time></trkpt><trkpt lat="44.41654841622765" lon="8.720836695832622"><ele>24.25</ele><time>2026-04-24T15:04:40Z</time></trkpt><trkpt lat="44.41653335331303" lon="8.72066952917934"><ele>27.0</ele><time>2026-04-24T15:04:41Z</time></trkpt><trkpt lat="44.41652284796613" lon="8.72049575707196"><ele>27.0</ele><time>2026-04-24T15:04:42Z</time></trkpt><trkpt lat="44.41651745062858" lon="8.720317890159675"><ele>27.0</ele><time>2026-04-24T15:04:43Z</time></trkpt><trkpt lat="44.41651026763082" lon="8.720135516784532"><ele>27.0</ele><time>2026-04-24T15:04:44Z</time></trkpt><trkpt lat="44.416504115398254" lon="8.71995410309673"><ele>27.0</ele><time>2026-04-24T15:04:45Z</time></trkpt><trkpt lat="44.41649627095333" lon="8.719768359554577"><ele>27.25</ele><time>2026-04-24T15:04:46Z</time></trkpt><trkpt lat="44.416486636359444" lon="8.719576655282207"><ele>27.5</ele><time>2026-04-24T15:04:47Z</time></trkpt><trkpt lat="44.4164787402117" lon="8.719374884087884"><ele>27.75</ele><time>2026-04-24T15:04:48Z</time></trkpt><trkpt lat="44.416469800705826" lon="8.719176726227188"><ele>28.0</ele><time>2026-04-24T15:04:49Z</time></trkpt><trkpt lat="44.416459933557775" lon="8.71898438990005"><ele>29.25</ele><time>2026-04-24T15:04:50Z</time></trkpt><trkpt lat="44.416447652201846" lon="8.718783398397735"><ele>30.5</ele><time>2026-04-24T15:04:51Z</time></trkpt><trkpt lat="44.41643207385694" lon="8.718574962071413"><ele>31.75</ele><time>2026-04-24T15:04:52Z</time></trkpt><trkpt lat="44.416425105756225" lon="8.71836310691383"><ele>33.0</ele><time>2026-04-24T15:04:53Z</time></trkpt><trkpt lat="44.416419657583695" lon="8.71814647331964"><ele>35.5</ele><time>2026-04-24T15:04:54Z</time></trkpt><trkpt lat="44.41640970079191" lon="8.71794424593908"><ele>38.0</ele><time>2026-04-24T15:04:55.02Z</time></trkpt><trkpt lat="44.41640530159895" lon="8.7177387772207"><ele>40.5</ele><time>2026-04-24T15:04:56.014Z</time></trkpt><trkpt lat="44.41640697317686" lon="8.717530045211964"><ele>43.0</ele><time>2026-04-24T15:04:57.015Z</time></trkpt><trkpt lat="44.416407858365815" lon="8.717326016453665"><ele>44.0</ele><time>2026-04-24T15:04:58.016Z</time></trkpt><trkpt lat="44.416407933438784" lon="8.717142022845122"><ele>45.0</ele><time>2026-04-24T15:04:59Z</time></trkpt><trkpt lat="44.416389002379816" lon="8.716909497549924"><ele>46.0</ele><time>2026-04-24T15:05:00Z</time></trkpt><trkpt lat="44.41636995344893" lon="8.716699246761266"><ele>42.75</ele><time>2026-04-24T15:05:01Z</time></trkpt><trkpt lat="44.41635269776928" lon="8.716479974791932"><ele>39.5</ele><time>2026-04-24T15:05:02Z</time></trkpt><trkpt lat="44.41633805167859" lon="8.716269791444407"><ele>36.25</ele><time>2026-04-24T15:05:03.001Z</time></trkpt><trkpt lat="44.41632349098923" lon="8.716077741714853"><ele>33.0</ele><time>2026-04-24T15:05:04.001Z</time></trkpt><trkpt lat="44.41631041710119" lon="8.715879625760705"><ele>25.5</ele><time>2026-04-24T15:05:05.001Z</time></trkpt><trkpt lat="44.41629995856325" lon="8.715676278973163"><ele>18.0</ele><time>2026-04-24T15:05:06.001Z</time></trkpt><trkpt lat="44.4162873278188" lon="8.715495859503749"><ele>10.5</ele><time>2026-04-24T15:05:07.001Z</time></trkpt><trkpt lat="44.416269398116306" lon="8.715304863109457"><ele>3.0</ele><time>2026-04-24T15:05:08.001Z</time></trkpt><trkpt lat="44.41624587639203" lon="8.715108263522094"><ele>3.0</ele><time>2026-04-24T15:05:09.001Z</time></trkpt><trkpt lat="44.416220664531174" lon="8.714916010971393"><ele>3.0</ele><time>2026-04-24T15:05:10.001Z</time></trkpt><trkpt lat="44.41619562743783" lon="8.71472039748293"><ele>3.0</ele><time>2026-04-24T15:05:11.001Z</time></trkpt><trkpt lat="44.416170039634274" lon="8.714531687654386"><ele>3.0</ele><time>2026-04-24T15:05:12.001Z</time></trkpt><trkpt lat="44.4161382041207" lon="8.714351233472643"><ele>3.25</ele><time>2026-04-24T15:05:13.001Z</time></trkpt><trkpt lat="44.41610324038005" lon="8.71416483533529"><ele>3.5</ele><time>2026-04-24T15:05:14.001Z</time></trkpt><trkpt lat="44.41606435218082" lon="8.713976911717824"><ele>3.75</ele><time>2026-04-24T15:05:15.001Z</time></trkpt><trkpt lat="44.416018182011854" lon="8.713784162007647"><ele>4.0</ele><time>2026-04-24T15:05:16.001Z</time></trkpt><trkpt lat="44.415967459478324" lon="8.713588332267333"><ele>4.333333333333333</ele><time>2026-04-24T15:05:17.001Z</time></trkpt><trkpt lat="44.41591909510804" lon="8.713390162516763"><ele>4.666666666666667</ele><time>2026-04-24T15:05:18.001Z</time></trkpt><trkpt lat="44.41586450947026" lon="8.713192247011875"><ele>5.0</ele><time>2026-04-24T15:05:19Z</time></trkpt><trkpt lat="44.41580868345895" lon="8.712991802956507"><ele>5.0</ele><time>2026-04-24T15:05:20Z</time></trkpt><trkpt lat="44.415745229102846" lon="8.712792625644866"><ele>5.0</ele><time>2026-04-24T15:05:21Z</time></trkpt><trkpt lat="44.41568217129085" lon="8.712604987163425"><ele>5.0</ele><time>2026-04-24T15:05:22Z</time></trkpt><trkpt lat="44.41561637042401" lon="8.712417880325138"><ele>4.75</ele><time>2026-04-24T15:05:23Z</time></trkpt><trkpt lat="44.41555014531357" lon="8.712238780181917"><ele>4.5</ele><time>2026-04-24T15:05:24Z</time></trkpt><trkpt lat="44.41548133820667" lon="8.71206087238873"><ele>4.25</ele><time>2026-04-24T15:05:25Z</time></trkpt><trkpt lat="44.41541951197085" lon="8.711895330882333"><ele>4.0</ele><time>2026-04-24T15:05:26Z</time></trkpt><trkpt lat="44.415359754639404" lon="8.711730510802848"><ele>4.0</ele><time>2026-04-24T15:05:27Z</time></trkpt><trkpt lat="44.41530593641123" lon="8.711577588710146"><ele>4.0</ele><time>2026-04-24T15:05:28Z</time></trkpt><trkpt lat="44.41525981495788" lon="8.71141791258517"><ele>4.0</ele><time>2026-04-24T15:05:29Z</time></trkpt><trkpt lat="44.41522229912063" lon="8.711256033981707"><ele>4.0</ele><time>2026-04-24T15:05:30Z</time></trkpt><trkpt lat="44.41519180419723" lon="8.711096618032114"><ele>6.0</ele><time>2026-04-24T15:05:31Z</time></trkpt><trkpt lat="44.41517373809564" lon="8.710929683479161"><ele>8.0</ele><time>2026-04-24T15:05:32Z</time></trkpt><trkpt lat="44.41515440217806" lon="8.710761892195931"><ele>10.0</ele><time>2026-04-24T15:05:33Z</time></trkpt><trkpt lat="44.4151274185422" lon="8.710630923743537"><ele>12.0</ele><time>2026-04-24T15:05:34Z</time></trkpt><trkpt lat="44.415099281013035" lon="8.710478013549253"><ele>12.0</ele><time>2026-04-24T15:05:35Z</time></trkpt><trkpt lat="44.41506804038642" lon="8.710330152739909"><ele>12.0</ele><time>2026-04-24T15:05:36Z</time></trkpt><trkpt lat="44.41503398422918" lon="8.710170146090212"><ele>12.0</ele><time>2026-04-24T15:05:37Z</time></trkpt><trkpt lat="44.414989383569186" lon="8.71003988626683"><ele>12.0</ele><time>2026-04-24T15:05:38Z</time></trkpt><trkpt lat="44.41493030521776" lon="8.709912981113407"><ele>12.0</ele><time>2026-04-24T15:05:39Z</time></trkpt><trkpt lat="44.41486417971699" lon="8.709787990483687"><ele>11.75</ele><time>2026-04-24T15:05:40Z</time></trkpt><trkpt lat="44.414789273453984" lon="8.709669624956387"><ele>11.5</ele><time>2026-04-24T15:05:41Z</time></trkpt><trkpt lat="44.41470426175192" lon="8.709556068806727"><ele>11.25</ele><time>2026-04-24T15:05:42Z</time></trkpt><trkpt lat="44.41460883716516" lon="8.709453403910022"><ele>11.0</ele><time>2026-04-24T15:05:43Z</time></trkpt><trkpt lat="44.414526514568884" lon="8.709344601748914"><ele>11.0</ele><time>2026-04-24T15:05:44Z</time></trkpt><trkpt lat="44.414443690533716" lon="8.70923859299422"><ele>11.0</ele><time>2026-04-24T15:05:45Z</time></trkpt><trkpt lat="44.414370737562706" lon="8.709130510510228"><ele>11.0</ele><time>2026-04-24T15:05:46Z</time></trkpt><trkpt lat="44.41431372151808" lon="8.709014126214015"><ele>11.0</ele><time>2026-04-24T15:05:47Z</time></trkpt><trkpt lat="44.414270823168856" lon="8.708891300148537"><ele>11.0</ele><time>2026-04-24T15:05:48Z</time></trkpt><trkpt lat="44.414239952667565" lon="8.708763937408685"><ele>11.0</ele><time>2026-04-24T15:05:49Z</time></trkpt><trkpt lat="44.41421587994103" lon="8.708631690393673"><ele>11.0</ele><time>2026-04-24T15:05:50Z</time></trkpt><trkpt lat="44.41420420014418" lon="8.708502448013515"><ele>11.0</ele><time>2026-04-24T15:05:51Z</time></trkpt><trkpt lat="44.414200755617784" lon="8.708380728428763"><ele>11.0</ele><time>2026-04-24T15:05:52Z</time></trkpt><trkpt lat="44.414210488959405" lon="8.70826921484789"><ele>11.0</ele><time>2026-04-24T15:05:53Z</time></trkpt><trkpt lat="44.414228168274555" lon="8.708151657092811"><ele>11.0</ele><time>2026-04-24T15:05:54Z</time></trkpt><trkpt lat="44.41425854827215" lon="8.708034782530184"><ele>11.600000000000001</ele><time>2026-04-24T15:05:55Z</time></trkpt><trkpt lat="44.414295067579054" lon="8.70791444134217"><ele>12.2</ele><time>2026-04-24T15:05:56Z</time></trkpt><trkpt lat="44.414342508202" lon="8.707813109048908"><ele>12.799999999999999</ele><time>2026-04-24T15:05:57Z</time></trkpt><trkpt lat="44.414399012951414" lon="8.707706635395997"><ele>13.399999999999999</ele><time>2026-04-24T15:05:58Z</time></trkpt><trkpt lat="44.41446332014867" lon="8.707583627056684"><ele>14.0</ele><time>2026-04-24T15:05:59Z</time></trkpt><trkpt lat="44.41452241052906" lon="8.707461522465776"><ele>14.0</ele><time>2026-04-24T15:06:00Z</time></trkpt><trkpt lat="44.414581562081516" lon="8.707327250392323"><ele>13.999999999999998</ele><time>2026-04-24T15:06:01Z</time></trkpt><trkpt lat="44.41463577781468" lon="8.707208888718723"><ele>13.999999999999998</ele><time>2026-04-24T15:06:02Z</time></trkpt><trkpt lat="44.41468241827389" lon="8.707087556400882"><ele>14.0</ele><time>2026-04-24T15:06:03Z</time></trkpt><trkpt lat="44.41471970252439" lon="8.706958472134081"><ele>14.0</ele><time>2026-04-24T15:06:04Z</time></trkpt><trkpt lat="44.41474649488039" lon="8.706814827492863"><ele>20.0</ele><time>2026-04-24T15:06:05Z</time></trkpt><trkpt lat="44.414765868071996" lon="8.706657284255481"><ele>26.0</ele><time>2026-04-24T15:06:06Z</time></trkpt><trkpt lat="44.41478188536414" lon="8.706493463298726"><ele>32.0</ele><time>2026-04-24T15:06:07Z</time></trkpt><trkpt lat="44.41479279967312" lon="8.70633858074437"><ele>38.0</ele><time>2026-04-24T15:06:08Z</time></trkpt><trkpt lat="44.41480330116055" lon="8.706185062647387"><ele>37.6</ele><time>2026-04-24T15:06:09Z</time></trkpt><trkpt lat="44.4148118188057" lon="8.706033469714487"><ele>37.199999999999996</ele><time>2026-04-24T15:06:10Z</time></trkpt><trkpt lat="44.4148125466773" lon="8.705878378931653"><ele>36.8</ele><time>2026-04-24T15:06:11Z</time></trkpt><trkpt lat="44.414804528146284" lon="8.705725535234656"><ele>36.4</ele><time>2026-04-24T15:06:12Z</time></trkpt><trkpt lat="44.41478555023717" lon="8.705566247525999"><ele>36.0</ele><time>2026-04-24T15:06:13Z</time></trkpt><trkpt lat="44.41476368219881" lon="8.705415087903146"><ele>36.0</ele><time>2026-04-24T15:06:14Z</time></trkpt><trkpt lat="44.414731665270736" lon="8.70526393037526"><ele>36.0</ele><time>2026-04-24T15:06:15Z</time></trkpt><trkpt lat="44.41469249962976" lon="8.70512965257307"><ele>36.0</ele><time>2026-04-24T15:06:16Z</time></trkpt><trkpt lat="44.41464438401362" lon="8.704995505463973"><ele>36.0</ele><time>2026-04-24T15:06:17Z</time></trkpt><trkpt lat="44.414592097446075" lon="8.704867993843875"><ele>36.0</ele><time>2026-04-24T15:06:18Z</time></trkpt><trkpt lat="44.414525299708224" lon="8.704740646875603"><ele>31.25</ele><time>2026-04-24T15:06:19Z</time></trkpt><trkpt lat="44.41444991154959" lon="8.70461626158885"><ele>26.5</ele><time>2026-04-24T15:06:20Z</time></trkpt><trkpt lat="44.41436942403935" lon="8.704493699520354"><ele>21.75</ele><time>2026-04-24T15:06:21Z</time></trkpt><trkpt lat="44.414294966281915" lon="8.704372670333596"><ele>17.0</ele><time>2026-04-24T15:06:22Z</time></trkpt><trkpt lat="44.414218198824784" lon="8.704253911884258"><ele>17.0</ele><time>2026-04-24T15:06:23Z</time></trkpt><trkpt lat="44.41414538424688" lon="8.704144404747252"><ele>17.0</ele><time>2026-04-24T15:06:24Z</time></trkpt><trkpt lat="44.41407601439958" lon="8.704050427647905"><ele>17.0</ele><time>2026-04-24T15:06:25Z</time></trkpt><trkpt lat="44.41399718378261" lon="8.703965877964865"><ele>17.0</ele><time>2026-04-24T15:06:26Z</time></trkpt><trkpt lat="44.41390654743908" lon="8.703892047155202"><ele>17.0</ele><time>2026-04-24T15:06:27Z</time></trkpt><trkpt lat="44.41380976956256" lon="8.703832224781532"><ele>14.75</ele><time>2026-04-24T15:06:28Z</time></trkpt><trkpt lat="44.41370642973704" lon="8.703780392481729"><ele>12.5</ele><time>2026-04-24T15:06:29Z</time></trkpt><trkpt lat="44.41359865489011" lon="8.703749137753341"><ele>10.25</ele><time>2026-04-24T15:06:30Z</time></trkpt><trkpt lat="44.41348116607411" lon="8.703734213358956"><ele>8.0</ele><time>2026-04-24T15:06:31Z</time></trkpt><trkpt lat="44.413363068988225" lon="8.703728899941057"><ele>8.0</ele><time>2026-04-24T15:06:32Z</time></trkpt><trkpt lat="44.41324957661005" lon="8.703720817432055"><ele>8.0</ele><time>2026-04-24T15:06:33Z</time></trkpt><trkpt lat="44.413139661485204" lon="8.703711287288648"><ele>8.0</ele><time>2026-04-24T15:06:34Z</time></trkpt><trkpt lat="44.41302986654512" lon="8.703706282152037"><ele>8.0</ele><time>2026-04-24T15:06:35Z</time></trkpt><trkpt lat="44.41292668975204" lon="8.703695966639634"><ele>8.0</ele><time>2026-04-24T15:06:36Z</time></trkpt><trkpt lat="44.412839319466094" lon="8.703666158783662"><ele>6.833333333333333</ele><time>2026-04-24T15:06:37Z</time></trkpt><trkpt lat="44.412760102879275" lon="8.703618270573347"><ele>5.666666666666666</ele><time>2026-04-24T15:06:38Z</time></trkpt><trkpt lat="44.4126942814436" lon="8.703557305302814"><ele>4.5</ele><time>2026-04-24T15:06:39Z</time></trkpt><trkpt lat="44.412633127377106" lon="8.703484795166261"><ele>3.333333333333333</ele><time>2026-04-24T15:06:40Z</time></trkpt><trkpt lat="44.412578987952024" lon="8.703400537837796"><ele>2.1666666666666665</ele><time>2026-04-24T15:06:41Z</time></trkpt><trkpt lat="44.41253976731967" lon="8.703299854081283"><ele>1.0</ele><time>2026-04-24T15:06:42Z</time></trkpt><trkpt lat="44.41250722820342" lon="8.703185616863445"><ele>4.4</ele><time>2026-04-24T15:06:43Z</time></trkpt><trkpt lat="44.41247796085328" lon="8.703056874238866"><ele>7.800000000000001</ele><time>2026-04-24T15:06:44Z</time></trkpt><trkpt lat="44.41245533477501" lon="8.702926871894952"><ele>11.200000000000001</ele><time>2026-04-24T15:06:45Z</time></trkpt><trkpt lat="44.41242468201115" lon="8.702790394618567"><ele>14.6</ele><time>2026-04-24T15:06:46Z</time></trkpt><trkpt lat="44.412382690398886" lon="8.702649428234839"><ele>18.0</ele><time>2026-04-24T15:06:47Z</time></trkpt><trkpt lat="44.41232754439461" lon="8.702509538112963"><ele>14.25</ele><time>2026-04-24T15:06:48Z</time></trkpt><trkpt lat="44.41226727319742" lon="8.702372713005303"><ele>10.5</ele><time>2026-04-24T15:06:49Z</time></trkpt><trkpt lat="44.412196956710034" lon="8.702230500704628"><ele>6.75</ele><time>2026-04-24T15:06:50Z</time></trkpt><trkpt lat="44.4121289870211" lon="8.702104153620928"><ele>3.0</ele><time>2026-04-24T15:06:51Z</time></trkpt><trkpt lat="44.41205446878886" lon="8.701974216762347"><ele>5.5</ele><time>2026-04-24T15:06:52Z</time></trkpt><trkpt lat="44.411972868848736" lon="8.701841563696185"><ele>8.0</ele><time>2026-04-24T15:06:53Z</time></trkpt><trkpt lat="44.411894096455775" lon="8.701706300781334"><ele>10.5</ele><time>2026-04-24T15:06:54Z</time></trkpt><trkpt lat="44.411813584896954" lon="8.701571383624945"><ele>13.0</ele><time>2026-04-24T15:06:55Z</time></trkpt><trkpt lat="44.41173860054362" lon="8.70143342884128"><ele>13.0</ele><time>2026-04-24T15:06:56Z</time></trkpt><trkpt lat="44.41166521520776" lon="8.701297721674477"><ele>13.0</ele><time>2026-04-24T15:06:57Z</time></trkpt><trkpt lat="44.41159327019267" lon="8.70115976178608"><ele>13.0</ele><time>2026-04-24T15:06:58Z</time></trkpt><trkpt lat="44.41152109010088" lon="8.701021525429521"><ele>13.0</ele><time>2026-04-24T15:06:59Z</time></trkpt><trkpt lat="44.41145520809279" lon="8.70088331040528"><ele>12.4</ele><time>2026-04-24T15:07:00Z</time></trkpt><trkpt lat="44.41139186926545" lon="8.700752145073972"><ele>11.8</ele><time>2026-04-24T15:07:01Z</time></trkpt><trkpt lat="44.41133055246736" lon="8.700616709611856"><ele>11.2</ele><time>2026-04-24T15:07:02Z</time></trkpt><trkpt lat="44.41127212931284" lon="8.700484251075315"><ele>10.6</ele><time>2026-04-24T15:07:03Z</time></trkpt><trkpt lat="44.41121607672486" lon="8.700358256815901"><ele>10.0</ele><time>2026-04-24T15:07:04Z</time></trkpt><trkpt lat="44.41115719327318" lon="8.700231717806338"><ele>10.0</ele><time>2026-04-24T15:07:05Z</time></trkpt><trkpt lat="44.41109923467772" lon="8.700109280303183"><ele>10.0</ele><time>2026-04-24T15:07:06.001Z</time></trkpt><trkpt lat="44.41104252801695" lon="8.699986525181266"><ele>10.0</ele><time>2026-04-24T15:07:07.001Z</time></trkpt><trkpt lat="44.41099143944549" lon="8.699853702169818"><ele>10.0</ele><time>2026-04-24T15:07:08.001Z</time></trkpt><trkpt lat="44.410943049159116" lon="8.699713552805324"><ele>10.0</ele><time>2026-04-24T15:07:09.001Z</time></trkpt><trkpt lat="44.4108966045365" lon="8.699565164990707"><ele>14.5</ele><time>2026-04-24T15:07:10.001Z</time></trkpt><trkpt lat="44.410851110051915" lon="8.699412261056457"><ele>19.0</ele><time>2026-04-24T15:07:11.001Z</time></trkpt><trkpt lat="44.41080736117502" lon="8.699256478766328"><ele>23.5</ele><time>2026-04-24T15:07:12.001Z</time></trkpt><trkpt lat="44.41076995621601" lon="8.699097999164765"><ele>28.0</ele><time>2026-04-24T15:07:13.001Z</time></trkpt><trkpt lat="44.41073334418023" lon="8.698939662430968"><ele>28.0</ele><time>2026-04-24T15:07:14.001Z</time></trkpt><trkpt lat="44.41069670979429" lon="8.6987749006029"><ele>28.0</ele><time>2026-04-24T15:07:15.001Z</time></trkpt><trkpt lat="44.41065944256793" lon="8.698613179997466"><ele>28.0</ele><time>2026-04-24T15:07:16.001Z</time></trkpt><trkpt lat="44.410624516655666" lon="8.698450062889806"><ele>28.0</ele><time>2026-04-24T15:07:17.001Z</time></trkpt><trkpt lat="44.41059443617156" lon="8.698291691451814"><ele>31.25</ele><time>2026-04-24T15:07:18.001Z</time></trkpt><trkpt lat="44.41056677913114" lon="8.698137401215437"><ele>34.5</ele><time>2026-04-24T15:07:19.001Z</time></trkpt><trkpt lat="44.41054805072148" lon="8.697980476221645"><ele>37.75</ele><time>2026-04-24T15:07:20.001Z</time></trkpt><trkpt lat="44.41054231346156" lon="8.697822895274953"><ele>41.0</ele><time>2026-04-24T15:07:21.001Z</time></trkpt><trkpt lat="44.41053551855957" lon="8.697657008826468"><ele>42.75</ele><time>2026-04-24T15:07:22.001Z</time></trkpt><trkpt lat="44.41051792208187" lon="8.697482174368435"><ele>44.5</ele><time>2026-04-24T15:07:23.001Z</time></trkpt><trkpt lat="44.410496263842155" lon="8.697308311899711"><ele>46.25</ele><time>2026-04-24T15:07:24.001Z</time></trkpt><trkpt lat="44.41047499938484" lon="8.697133735842955"><ele>48.0</ele><time>2026-04-24T15:07:25Z</time></trkpt><trkpt lat="44.4104496547177" lon="8.696971402689616"><ele>41.5</ele><time>2026-04-24T15:07:26Z</time></trkpt><trkpt lat="44.410422235226264" lon="8.69681189507709"><ele>35.0</ele><time>2026-04-24T15:07:27Z</time></trkpt><trkpt lat="44.410385472184714" lon="8.69664357575174"><ele>28.5</ele><time>2026-04-24T15:07:28Z</time></trkpt><trkpt lat="44.410341364650186" lon="8.696473700611419"><ele>22.0</ele><time>2026-04-24T15:07:29.02Z</time></trkpt><trkpt lat="44.41029275089507" lon="8.69630770359759"><ele>22.0</ele><time>2026-04-24T15:07:30.02Z</time></trkpt><trkpt lat="44.41024143744665" lon="8.69615239074672"><ele>22.0</ele><time>2026-04-24T15:07:31.014Z</time></trkpt><trkpt lat="44.4101861229579" lon="8.69600117342858"><ele>22.0</ele><time>2026-04-24T15:07:32.02Z</time></trkpt><trkpt lat="44.41012787534055" lon="8.69585729383505"><ele>22.0</ele><time>2026-04-24T15:07:33.02Z</time></trkpt><trkpt lat="44.410068335327416" lon="8.695723029160394"><ele>26.0</ele><time>2026-04-24T15:07:34.021Z</time></trkpt><trkpt lat="44.410001046840804" lon="8.695592219486022"><ele>30.0</ele><time>2026-04-24T15:07:35.021Z</time></trkpt><trkpt lat="44.40993098486786" lon="8.695461373638114"><ele>34.0</ele><time>2026-04-24T15:07:36.02Z</time></trkpt><trkpt lat="44.40974872563445" lon="8.695107819520585"><ele>35.0</ele><time>2026-04-24T15:07:38Z</time></trkpt><trkpt lat="44.40967283170895" lon="8.694959428249382"><ele>36.0</ele><time>2026-04-24T15:07:39Z</time></trkpt><trkpt lat="44.409570410703125" lon="8.694790186017965"><ele>37.0</ele><time>2026-04-24T15:07:40Z</time></trkpt><trkpt lat="44.40949825675814" lon="8.694636663526099"><ele>38.0</ele><time>2026-04-24T15:07:41Z</time></trkpt><trkpt lat="44.40941974336206" lon="8.694495970219773"><ele>31.75</ele><time>2026-04-24T15:07:42Z</time></trkpt><trkpt lat="44.40934166504085" lon="8.694351724251158"><ele>25.5</ele><time>2026-04-24T15:07:43Z</time></trkpt><trkpt lat="44.40928602994465" lon="8.694180115949504"><ele>19.25</ele><time>2026-04-24T15:07:44Z</time></trkpt><trkpt lat="44.40920748940997" lon="8.694029827342098"><ele>13.0</ele><time>2026-04-24T15:07:45Z</time></trkpt><trkpt lat="44.40913345402516" lon="8.69388904320327"><ele>13.0</ele><time>2026-04-24T15:07:46Z</time></trkpt><trkpt lat="44.40906528337876" lon="8.69375404295894"><ele>13.0</ele><time>2026-04-24T15:07:47Z</time></trkpt><trkpt lat="44.408994620374614" lon="8.693613478502485"><ele>13.0</ele><time>2026-04-24T15:07:48Z</time></trkpt><trkpt lat="44.408921939339095" lon="8.69347628076061"><ele>13.0</ele><time>2026-04-24T15:07:49Z</time></trkpt><trkpt lat="44.40885320307215" lon="8.693340953365524"><ele>11.75</ele><time>2026-04-24T15:07:50Z</time></trkpt><trkpt lat="44.40878104487217" lon="8.693207058569545"><ele>10.5</ele><time>2026-04-24T15:07:51Z</time></trkpt><trkpt lat="44.40870919408539" lon="8.693071036167343"><ele>9.25</ele><time>2026-04-24T15:07:52Z</time></trkpt><trkpt lat="44.40864355095524" lon="8.69294108118678"><ele>8.0</ele><time>2026-04-24T15:07:53Z</time></trkpt><trkpt lat="44.40857100614298" lon="8.692807818123999"><ele>10.0</ele><time>2026-04-24T15:07:54Z</time></trkpt><trkpt lat="44.408497367033355" lon="8.692671865991255"><ele>12.0</ele><time>2026-04-24T15:07:55Z</time></trkpt><trkpt lat="44.40842953333002" lon="8.692542317269801"><ele>14.0</ele><time>2026-04-24T15:07:56Z</time></trkpt><trkpt lat="44.40835847743547" lon="8.692403596343603"><ele>16.0</ele><time>2026-04-24T15:07:57Z</time></trkpt><trkpt lat="44.40828203755204" lon="8.69226175677937"><ele>16.0</ele><time>2026-04-24T15:07:58Z</time></trkpt><trkpt lat="44.40821213996729" lon="8.692127518023474"><ele>16.0</ele><time>2026-04-24T15:07:59Z</time></trkpt><trkpt lat="44.40813928840868" lon="8.691991287112355"><ele>16.0</ele><time>2026-04-24T15:08:00Z</time></trkpt><trkpt lat="44.4080709934437" lon="8.691863539275477"><ele>16.0</ele><time>2026-04-24T15:08:01Z</time></trkpt><trkpt lat="44.40800130163666" lon="8.691729493554062"><ele>13.8</ele><time>2026-04-24T15:08:02Z</time></trkpt><trkpt lat="44.40793359096526" lon="8.691602424682989"><ele>11.600000000000001</ele><time>2026-04-24T15:08:03Z</time></trkpt><trkpt lat="44.407870952766345" lon="8.691481519019083"><ele>9.4</ele><time>2026-04-24T15:08:04Z</time></trkpt><trkpt lat="44.40780941029654" lon="8.69136632218331"><ele>7.2</ele><time>2026-04-24T15:08:05Z</time></trkpt><trkpt lat="44.4077527191157" lon="8.691256062472887"><ele>5.0</ele><time>2026-04-24T15:08:06Z</time></trkpt><trkpt lat="44.40769597307965" lon="8.69114523185485"><ele>5.333333333333334</ele><time>2026-04-24T15:08:07Z</time></trkpt><trkpt lat="44.40764636333931" lon="8.691048100563737"><ele>5.666666666666667</ele><time>2026-04-24T15:08:08Z</time></trkpt><trkpt lat="44.40759612740298" lon="8.690948182318326"><ele>6.0</ele><time>2026-04-24T15:08:09Z</time></trkpt><trkpt lat="44.40755236754458" lon="8.690866181573316"><ele>6.333333333333334</ele><time>2026-04-24T15:08:10Z</time></trkpt><trkpt lat="44.407509925373425" lon="8.690786419803983"><ele>6.666666666666667</ele><time>2026-04-24T15:08:11Z</time></trkpt><trkpt lat="44.40746761795004" lon="8.690707362704273"><ele>7.0</ele><time>2026-04-24T15:08:12Z</time></trkpt><trkpt lat="44.40739906311132" lon="8.6905807183448"><ele>7.000000000000001</ele><time>2026-04-24T15:08:14Z</time></trkpt><trkpt lat="44.40734842083956" lon="8.690478871606588"><ele>7.0</ele><time>2026-04-24T15:08:16Z</time></trkpt><trkpt lat="44.40731078982498" lon="8.690400666304251"><ele>7.0</ele><time>2026-04-24T15:08:18Z</time></trkpt><trkpt lat="44.407263587195544" lon="8.6903234698897"><ele>7.0</ele><time>2026-04-24T15:08:22Z</time></trkpt><trkpt lat="44.40720567267498" lon="8.690250342608373"><ele>7.000000000000001</ele><time>2026-04-24T15:08:35Z</time></trkpt><trkpt lat="44.40715465918795" lon="8.690164854104271"><ele>7.0</ele><time>2026-04-24T15:08:37Z</time></trkpt><trkpt lat="44.40708625353424" lon="8.690032126120524"><ele>6.500000000000001</ele><time>2026-04-24T15:08:39Z</time></trkpt><trkpt lat="44.407044805802734" lon="8.689949831702254"><ele>6.0</ele><time>2026-04-24T15:08:40Z</time></trkpt><trkpt lat="44.40700121858492" lon="8.689868341042276"><ele>5.5</ele><time>2026-04-24T15:08:41Z</time></trkpt><trkpt lat="44.40695654261575" lon="8.6897766247139"><ele>5.0</ele><time>2026-04-24T15:08:42Z</time></trkpt><trkpt lat="44.40690740015376" lon="8.689680309390107"><ele>4.5</ele><time>2026-04-24T15:08:43Z</time></trkpt><trkpt lat="44.40686285826154" lon="8.689588697154202"><ele>4.0</ele><time>2026-04-24T15:08:44Z</time></trkpt><trkpt lat="44.40681223448314" lon="8.689495451300175"><ele>5.0</ele><time>2026-04-24T15:08:45Z</time></trkpt><trkpt lat="44.4067571750783" lon="8.689391771776796"><ele>6.0</ele><time>2026-04-24T15:08:46Z</time></trkpt><trkpt lat="44.406701225208735" lon="8.689287784857212"><ele>7.0</ele><time>2026-04-24T15:08:47Z</time></trkpt><trkpt lat="44.40664072462587" lon="8.689191371212356"><ele>8.0</ele><time>2026-04-24T15:08:48Z</time></trkpt><trkpt lat="44.40657249816342" lon="8.689097236830982"><ele>9.0</ele><time>2026-04-24T15:08:49Z</time></trkpt><trkpt lat="44.40649746116821" lon="8.689010495592264"><ele>9.0</ele><time>2026-04-24T15:08:50Z</time></trkpt><trkpt lat="44.40641447025328" lon="8.68893139878052"><ele>9.0</ele><time>2026-04-24T15:08:51Z</time></trkpt><trkpt lat="44.40633414527673" lon="8.688858274012235"><ele>9.0</ele><time>2026-04-24T15:08:52Z</time></trkpt><trkpt lat="44.406249109441035" lon="8.688781799245522"><ele>9.0</ele><time>2026-04-24T15:08:53Z</time></trkpt><trkpt lat="44.4061668917008" lon="8.688711038409362"><ele>9.0</ele><time>2026-04-24T15:08:54Z</time></trkpt><trkpt lat="44.40608547101522" lon="8.688629208991749"><ele>8.4</ele><time>2026-04-24T15:08:55Z</time></trkpt><trkpt lat="44.40600874821104" lon="8.688543909653548"><ele>7.800000000000001</ele><time>2026-04-24T15:08:56Z</time></trkpt><trkpt lat="44.40593837060074" lon="8.688455294868133"><ele>7.199999999999999</ele><time>2026-04-24T15:08:57Z</time></trkpt><trkpt lat="44.40586811796403" lon="8.68836028593432"><ele>6.6</ele><time>2026-04-24T15:08:58Z</time></trkpt><trkpt lat="44.405803509722595" lon="8.688261367623229"><ele>6.0</ele><time>2026-04-24T15:08:59Z</time></trkpt><trkpt lat="44.405741279068636" lon="8.688152032423769"><ele>6.0</ele><time>2026-04-24T15:09:00.001Z</time></trkpt><trkpt lat="44.405677845479225" lon="8.688034530535663"><ele>6.0</ele><time>2026-04-24T15:09:01.001Z</time></trkpt><trkpt lat="44.405617041334956" lon="8.687930447986066"><ele>6.0</ele><time>2026-04-24T15:09:02.001Z</time></trkpt><trkpt lat="44.40555471759324" lon="8.687817000556148"><ele>6.0</ele><time>2026-04-24T15:09:03.001Z</time></trkpt><trkpt lat="44.40549454226896" lon="8.687697086459584"><ele>6.0</ele><time>2026-04-24T15:09:04.001Z</time></trkpt><trkpt lat="44.40543532795082" lon="8.68758475092783"><ele>5.8</ele><time>2026-04-24T15:09:05.001Z</time></trkpt><trkpt lat="44.40537412226216" lon="8.687470714633237"><ele>5.6</ele><time>2026-04-24T15:09:06.001Z</time></trkpt><trkpt lat="44.40531419218431" lon="8.687366068807632"><ele>5.4</ele><time>2026-04-24T15:09:07.001Z</time></trkpt><trkpt lat="44.40525036207906" lon="8.687271433474256"><ele>5.2</ele><time>2026-04-24T15:09:08.001Z</time></trkpt><trkpt lat="44.40517920982654" lon="8.68718200961697"><ele>5.0</ele><time>2026-04-24T15:09:09.001Z</time></trkpt><trkpt lat="44.40510558586879" lon="8.687096015654769"><ele>5.0</ele><time>2026-04-24T15:09:10.001Z</time></trkpt><trkpt lat="44.405029083075625" lon="8.687016569746039"><ele>5.0</ele><time>2026-04-24T15:09:11.001Z</time></trkpt><trkpt lat="44.4049491144235" lon="8.68694225661249"><ele>5.0</ele><time>2026-04-24T15:09:12.001Z</time></trkpt><trkpt lat="44.40486772452544" lon="8.68686222272153"><ele>5.0</ele><time>2026-04-24T15:09:13.001Z</time></trkpt><trkpt lat="44.404784634781265" lon="8.686782868698382"><ele>5.0</ele><time>2026-04-24T15:09:14.001Z</time></trkpt><trkpt lat="44.40470162631857" lon="8.68670304050157"><ele>5.0</ele><time>2026-04-24T15:09:15.001Z</time></trkpt><trkpt lat="44.404611148458216" lon="8.686621730024155"><ele>5.0</ele><time>2026-04-24T15:09:16.001Z</time></trkpt><trkpt lat="44.40453643295598" lon="8.686543216832218"><ele>5.0</ele><time>2026-04-24T15:09:17.001Z</time></trkpt><trkpt lat="44.40445146529826" lon="8.68646412914187"><ele>5.0</ele><time>2026-04-24T15:09:18.001Z</time></trkpt><trkpt lat="44.40437244959435" lon="8.686392263966024"><ele>5.0</ele><time>2026-04-24T15:09:19.001Z</time></trkpt><trkpt lat="44.404295841327745" lon="8.68631768472341"><ele>5.0</ele><time>2026-04-24T15:09:20.001Z</time></trkpt><trkpt lat="44.4042209561826" lon="8.686246426662295"><ele>5.0</ele><time>2026-04-24T15:09:21.001Z</time></trkpt><trkpt lat="44.40414900064312" lon="8.686175549792397"><ele>5.0</ele><time>2026-04-24T15:09:22.001Z</time></trkpt><trkpt lat="44.40407474475972" lon="8.686103469033842"><ele>5.0</ele><time>2026-04-24T15:09:23.001Z</time></trkpt><trkpt lat="44.40400596322495" lon="8.68604351693171"><ele>5.0</ele><time>2026-04-24T15:09:24.001Z</time></trkpt><trkpt lat="44.40393167380055" lon="8.685980277697121"><ele>5.0</ele><time>2026-04-24T15:09:25.001Z</time></trkpt><trkpt lat="44.40386220864973" lon="8.685918080656956"><ele>5.166666666666667</ele><time>2026-04-24T15:09:26.001Z</time></trkpt><trkpt lat="44.40379566125477" lon="8.685858258129691"><ele>5.333333333333334</ele><time>2026-04-24T15:09:27.001Z</time></trkpt><trkpt lat="44.40372885673071" lon="8.685804391513189"><ele>5.5</ele><time>2026-04-24T15:09:28.001Z</time></trkpt><trkpt lat="44.40366812281497" lon="8.68575791472635"><ele>5.666666666666667</ele><time>2026-04-24T15:09:29.001Z</time></trkpt><trkpt lat="44.403609408564904" lon="8.685719050429284"><ele>5.833333333333333</ele><time>2026-04-24T15:09:30.001Z</time></trkpt><trkpt lat="44.40350381409069" lon="8.68566158411197"><ele>6.0</ele><time>2026-04-24T15:09:32Z</time></trkpt><trkpt lat="44.40342289873614" lon="8.685624961492426"><ele>6.0</ele><time>2026-04-24T15:09:34Z</time></trkpt><trkpt lat="44.40335174444388" lon="8.685594132320844"><ele>6.0</ele><time>2026-04-24T15:09:36Z</time></trkpt><trkpt lat="44.40326246057233" lon="8.685566752866096"><ele>6.0</ele><time>2026-04-24T15:10:41Z</time></trkpt><trkpt lat="44.403187097520714" lon="8.685551301254229"><ele>6.0</ele><time>2026-04-24T15:10:43Z</time></trkpt><trkpt lat="44.403073262525616" lon="8.685545880590805"><ele>6.0</ele><time>2026-04-24T15:10:45Z</time></trkpt><trkpt lat="44.40294973864561" lon="8.685541295339167"><ele>5.666666666666667</ele><time>2026-04-24T15:10:47Z</time></trkpt><trkpt lat="44.40288002813592" lon="8.685540742765332"><ele>5.333333333333333</ele><time>2026-04-24T15:10:48Z</time></trkpt><trkpt lat="44.402804841159785" lon="8.685534008783922"><ele>5.0</ele><time>2026-04-24T15:10:49Z</time></trkpt><trkpt lat="44.40272627917484" lon="8.685529172630817"><ele>4.666666666666666</ele><time>2026-04-24T15:10:50Z</time></trkpt><trkpt lat="44.402648458450706" lon="8.68552526735126"><ele>4.333333333333333</ele><time>2026-04-24T15:10:51Z</time></trkpt><trkpt lat="44.402568839955265" lon="8.685519728429924"><ele>4.0</ele><time>2026-04-24T15:10:52Z</time></trkpt><trkpt lat="44.402490820709595" lon="8.685511118370782"><ele>3.9999999999999996</ele><time>2026-04-24T15:10:53Z</time></trkpt><trkpt lat="44.40240198472073" lon="8.685508773206427"><ele>4.0</ele><time>2026-04-24T15:10:54Z</time></trkpt><trkpt lat="44.40231607404769" lon="8.685502497223242"><ele>4.0</ele><time>2026-04-24T15:10:55Z</time></trkpt><trkpt lat="44.402233849710655" lon="8.685496589052754"><ele>4.0</ele><time>2026-04-24T15:10:56Z</time></trkpt><trkpt lat="44.402147461427944" lon="8.685494827459392"><ele>3.9999999999999996</ele><time>2026-04-24T15:10:57Z</time></trkpt><trkpt lat="44.40205634445228" lon="8.68548802002349"><ele>4.0</ele><time>2026-04-24T15:10:58Z</time></trkpt><trkpt lat="44.401964414698845" lon="8.685481154872816"><ele>4.2</ele><time>2026-04-24T15:10:59Z</time></trkpt><trkpt lat="44.401868356888656" lon="8.685473250893468"><ele>4.4</ele><time>2026-04-24T15:11:00Z</time></trkpt><trkpt lat="44.40177120366494" lon="8.685465877435238"><ele>4.6</ele><time>2026-04-24T15:11:01Z</time></trkpt><trkpt lat="44.40166856125942" lon="8.685461227808789"><ele>4.8</ele><time>2026-04-24T15:11:02Z</time></trkpt><trkpt lat="44.401575418592905" lon="8.685454407765658"><ele>5.0</ele><time>2026-04-24T15:11:03Z</time></trkpt><trkpt lat="44.40147737026951" lon="8.685449255157947"><ele>5.0</ele><time>2026-04-24T15:11:04Z</time></trkpt><trkpt lat="44.40137665770199" lon="8.68544630632044"><ele>5.0</ele><time>2026-04-24T15:11:05Z</time></trkpt><trkpt lat="44.40128856441345" lon="8.685437573036369"><ele>5.0</ele><time>2026-04-24T15:11:06Z</time></trkpt><trkpt lat="44.4012036005013" lon="8.68543265930063"><ele>5.0</ele><time>2026-04-24T15:11:07Z</time></trkpt><trkpt lat="44.401125077490796" lon="8.685424240353893"><ele>5.0</ele><time>2026-04-24T15:11:08Z</time></trkpt><trkpt lat="44.4010432511322" lon="8.68540563216144"><ele>5.0</ele><time>2026-04-24T15:11:09Z</time></trkpt><trkpt lat="44.40095980406036" lon="8.685383631762289"><ele>5.0</ele><time>2026-04-24T15:11:10Z</time></trkpt><trkpt lat="44.40088028416156" lon="8.68535789265472"><ele>5.0</ele><time>2026-04-24T15:11:11Z</time></trkpt><trkpt lat="44.40080301527147" lon="8.685327595656858"><ele>5.0</ele><time>2026-04-24T15:11:12Z</time></trkpt><trkpt lat="44.40073369217097" lon="8.68529884641484"><ele>5.0</ele><time>2026-04-24T15:11:13Z</time></trkpt><trkpt lat="44.400657276713694" lon="8.6852681046453"><ele>5.0</ele><time>2026-04-24T15:11:14Z</time></trkpt><trkpt lat="44.400584303805076" lon="8.685228914510262"><ele>5.0</ele><time>2026-04-24T15:11:15Z</time></trkpt><trkpt lat="44.40051882310172" lon="8.685185997217323"><ele>5.666666666666667</ele><time>2026-04-24T15:11:16Z</time></trkpt><trkpt lat="44.400460865573265" lon="8.685124492270317"><ele>6.333333333333334</ele><time>2026-04-24T15:11:17Z</time></trkpt><trkpt lat="44.400408963302965" lon="8.685060769648887"><ele>7.0</ele><time>2026-04-24T15:11:18Z</time></trkpt><trkpt lat="44.400341360762546" lon="8.684912312021675"><ele>7.666666666666667</ele><time>2026-04-24T15:11:20Z</time></trkpt><trkpt lat="44.400322552683775" lon="8.68482288804178"><ele>8.333333333333334</ele><time>2026-04-24T15:11:21Z</time></trkpt><trkpt lat="44.40031520377222" lon="8.684719581426174"><ele>9.0</ele><time>2026-04-24T15:11:22Z</time></trkpt><trkpt lat="44.400318318984844" lon="8.684611061888676"><ele>9.0</ele><time>2026-04-24T15:11:23Z</time></trkpt><trkpt lat="44.400331297369505" lon="8.684488727250406"><ele>9.0</ele><time>2026-04-24T15:11:24Z</time></trkpt><trkpt lat="44.40035194254683" lon="8.684362821491154"><ele>9.0</ele><time>2026-04-24T15:11:25Z</time></trkpt><trkpt lat="44.40037874408391" lon="8.684226352191214"><ele>9.0</ele><time>2026-04-24T15:11:26Z</time></trkpt><trkpt lat="44.40040308587903" lon="8.68410137631103"><ele>9.0</ele><time>2026-04-24T15:11:27Z</time></trkpt><trkpt lat="44.40042530340501" lon="8.68396952719225"><ele>9.2</ele><time>2026-04-24T15:11:28Z</time></trkpt><trkpt lat="44.4004472840605" lon="8.683830728942018"><ele>9.4</ele><time>2026-04-24T15:11:29Z</time></trkpt><trkpt lat="44.40047054657995" lon="8.683680084222821"><ele>9.6</ele><time>2026-04-24T15:11:30.001Z</time></trkpt><trkpt lat="44.40049611867114" lon="8.683524299757577"><ele>9.8</ele><time>2026-04-24T15:11:31.001Z</time></trkpt><trkpt lat="44.4005231682664" lon="8.683366170723222"><ele>10.0</ele><time>2026-04-24T15:11:32.001Z</time></trkpt><trkpt lat="44.40054479723807" lon="8.683220582900026"><ele>10.0</ele><time>2026-04-24T15:11:33.001Z</time></trkpt><trkpt lat="44.40056917186288" lon="8.683071642012905"><ele>10.0</ele><time>2026-04-24T15:11:34.001Z</time></trkpt><trkpt lat="44.4005941220598" lon="8.682920473341087"><ele>10.0</ele><time>2026-04-24T15:11:35.001Z</time></trkpt><trkpt lat="44.40061837040273" lon="8.682776788524603"><ele>10.0</ele><time>2026-04-24T15:11:36.001Z</time></trkpt><trkpt lat="44.40064298855807" lon="8.68262701875739"><ele>10.0</ele><time>2026-04-24T15:11:37Z</time></trkpt><trkpt lat="44.4006625463078" lon="8.682492533613278"><ele>10.0</ele><time>2026-04-24T15:11:38Z</time></trkpt><trkpt lat="44.40069658189045" lon="8.682371447539712"><ele>10.0</ele><time>2026-04-24T15:11:39Z</time></trkpt><trkpt lat="44.4007063849158" lon="8.682251131303156"><ele>10.0</ele><time>2026-04-24T15:11:40Z</time></trkpt><trkpt lat="44.400703006458784" lon="8.682130952340772"><ele>10.0</ele><time>2026-04-24T15:11:41Z</time></trkpt><trkpt lat="44.400688626312025" lon="8.682019023507191"><ele>10.0</ele><time>2026-04-24T15:11:42Z</time></trkpt><trkpt lat="44.400661760775485" lon="8.68190079080984"><ele>10.0</ele><time>2026-04-24T15:11:43Z</time></trkpt><trkpt lat="44.40062746896725" lon="8.681784997764554"><ele>10.0</ele><time>2026-04-24T15:11:44Z</time></trkpt><trkpt lat="44.40056423377583" lon="8.681676830428847"><ele>10.0</ele><time>2026-04-24T15:11:45Z</time></trkpt><trkpt lat="44.40052759525078" lon="8.681569220815913"><ele>10.0</ele><time>2026-04-24T15:11:46Z</time></trkpt><trkpt lat="44.40050039865346" lon="8.681451120142128"><ele>10.0</ele><time>2026-04-24T15:11:47Z</time></trkpt><trkpt lat="44.40049341055063" lon="8.68133755697064"><ele>10.0</ele><time>2026-04-24T15:11:48Z</time></trkpt><trkpt lat="44.40049590122566" lon="8.681221837647714"><ele>10.0</ele><time>2026-04-24T15:11:49Z</time></trkpt><trkpt lat="44.40050526937006" lon="8.681105194581386"><ele>10.333333333333334</ele><time>2026-04-24T15:11:50Z</time></trkpt><trkpt lat="44.40054863807929" lon="8.680988058340116"><ele>10.666666666666668</ele><time>2026-04-24T15:11:51Z</time></trkpt><trkpt lat="44.400564438091244" lon="8.680877251902832"><ele>11.0</ele><time>2026-04-24T15:11:52Z</time></trkpt><trkpt lat="44.40057571241991" lon="8.680779747219832"><ele>11.333333333333334</ele><time>2026-04-24T15:11:53Z</time></trkpt><trkpt lat="44.400579921923246" lon="8.680671402554719"><ele>11.666666666666666</ele><time>2026-04-24T15:11:54Z</time></trkpt><trkpt lat="44.40057381845304" lon="8.680575866936936"><ele>12.0</ele><time>2026-04-24T15:11:55Z</time></trkpt><trkpt lat="44.40055547251828" lon="8.68043777829324"><ele>12.0</ele><time>2026-04-24T15:11:57Z</time></trkpt><trkpt lat="44.40055366499284" lon="8.680289303497775"><ele>12.0</ele><time>2026-04-24T15:11:59Z</time></trkpt><trkpt lat="44.40057376746746" lon="8.680127525519657"><ele>12.0</ele><time>2026-04-24T15:12:01Z</time></trkpt><trkpt lat="44.40057122550644" lon="8.68003208789296"><ele>12.0</ele><time>2026-04-24T15:12:02Z</time></trkpt><trkpt lat="44.4005640931288" lon="8.679936814364309"><ele>12.0</ele><time>2026-04-24T15:12:03Z</time></trkpt><trkpt lat="44.40056896622641" lon="8.679832272163008"><ele>12.0</ele><time>2026-04-24T15:12:04Z</time></trkpt><trkpt lat="44.400586827932884" lon="8.679729967236046"><ele>12.333333333333334</ele><time>2026-04-24T15:12:05Z</time></trkpt><trkpt lat="44.400621498908286" lon="8.67963000268018"><ele>12.666666666666668</ele><time>2026-04-24T15:12:06Z</time></trkpt><trkpt lat="44.40066411238561" lon="8.679529184229471"><ele>13.0</ele><time>2026-04-24T15:12:07Z</time></trkpt><trkpt lat="44.40071033906404" lon="8.679426497398264"><ele>13.333333333333334</ele><time>2026-04-24T15:12:08Z</time></trkpt><trkpt lat="44.40076467223299" lon="8.679320360559322"><ele>13.666666666666668</ele><time>2026-04-24T15:12:09Z</time></trkpt><trkpt lat="44.40082116190134" lon="8.679210699927195"><ele>14.0</ele><time>2026-04-24T15:12:10Z</time></trkpt><trkpt lat="44.400882575452194" lon="8.679091987780756"><ele>16.2</ele><time>2026-04-24T15:12:11Z</time></trkpt><trkpt lat="44.40093975846583" lon="8.67897600078314"><ele>18.4</ele><time>2026-04-24T15:12:12Z</time></trkpt><trkpt lat="44.40099615533101" lon="8.678849123733665"><ele>20.6</ele><time>2026-04-24T15:12:13Z</time></trkpt><trkpt lat="44.40104269676676" lon="8.678725096917608"><ele>22.8</ele><time>2026-04-24T15:12:14Z</time></trkpt><trkpt lat="44.40111044593795" lon="8.678606587303882"><ele>25.0</ele><time>2026-04-24T15:12:15Z</time></trkpt><trkpt lat="44.401160747353124" lon="8.678465866828402"><ele>23.8</ele><time>2026-04-24T15:12:16Z</time></trkpt><trkpt lat="44.40119319392732" lon="8.678331117632176"><ele>22.6</ele><time>2026-04-24T15:12:17Z</time></trkpt><trkpt lat="44.4012453181543" lon="8.678214838908533"><ele>21.4</ele><time>2026-04-24T15:12:18Z</time></trkpt><trkpt lat="44.401319733683046" lon="8.678129666240208"><ele>20.2</ele><time>2026-04-24T15:12:19Z</time></trkpt><trkpt lat="44.401387987786876" lon="8.678027568969334"><ele>19.0</ele><time>2026-04-24T15:12:20Z</time></trkpt><trkpt lat="44.40145081536441" lon="8.677915216671467"><ele>19.0</ele><time>2026-04-24T15:12:21Z</time></trkpt><trkpt lat="44.40150313149257" lon="8.67779440335237"><ele>19.0</ele><time>2026-04-24T15:12:22Z</time></trkpt><trkpt lat="44.40152089212026" lon="8.677647362774275"><ele>19.0</ele><time>2026-04-24T15:12:23Z</time></trkpt><trkpt lat="44.40155364857513" lon="8.677506857644477"><ele>19.0</ele><time>2026-04-24T15:12:24Z</time></trkpt><trkpt lat="44.40158250209828" lon="8.677365484958168"><ele>19.0</ele><time>2026-04-24T15:12:25Z</time></trkpt><trkpt lat="44.4016070346547" lon="8.677212735635438"><ele>20.2</ele><time>2026-04-24T15:12:26Z</time></trkpt><trkpt lat="44.401623069940186" lon="8.677070175728137"><ele>21.4</ele><time>2026-04-24T15:12:27Z</time></trkpt><trkpt lat="44.40164032486458" lon="8.676925033180815"><ele>22.6</ele><time>2026-04-24T15:12:28Z</time></trkpt><trkpt lat="44.40165393068591" lon="8.676775412797534"><ele>23.8</ele><time>2026-04-24T15:12:29Z</time></trkpt><trkpt lat="44.40166661742531" lon="8.67663729450949"><ele>25.0</ele><time>2026-04-24T15:12:30Z</time></trkpt><trkpt lat="44.4016919765064" lon="8.676501376593164"><ele>26.8</ele><time>2026-04-24T15:12:31Z</time></trkpt><trkpt lat="44.401692931151494" lon="8.676387039914005"><ele>28.6</ele><time>2026-04-24T15:12:32Z</time></trkpt><trkpt lat="44.40167908377468" lon="8.676261022749197"><ele>30.4</ele><time>2026-04-24T15:12:33Z</time></trkpt><trkpt lat="44.40164944996563" lon="8.676130236720558"><ele>32.2</ele><time>2026-04-24T15:12:34Z</time></trkpt><trkpt lat="44.40160264430224" lon="8.67600955519691"><ele>34.0</ele><time>2026-04-24T15:12:35Z</time></trkpt><trkpt lat="44.401574249699514" lon="8.675879639842629"><ele>34.2</ele><time>2026-04-24T15:12:36Z</time></trkpt><trkpt lat="44.4015477003824" lon="8.675744062790107"><ele>34.4</ele><time>2026-04-24T15:12:37Z</time></trkpt><trkpt lat="44.40153491687014" lon="8.67559862606993"><ele>34.6</ele><time>2026-04-24T15:12:38Z</time></trkpt><trkpt lat="44.401530820406414" lon="8.675465249423823"><ele>34.8</ele><time>2026-04-24T15:12:39Z</time></trkpt><trkpt lat="44.401538867710705" lon="8.675330763811026"><ele>35.0</ele><time>2026-04-24T15:12:40Z</time></trkpt><trkpt lat="44.401565649274275" lon="8.675196736492333"><ele>35.5</ele><time>2026-04-24T15:12:41Z</time></trkpt><trkpt lat="44.401603739041" lon="8.675065424697747"><ele>36.0</ele><time>2026-04-24T15:12:42Z</time></trkpt><trkpt lat="44.40164424466151" lon="8.67494410575706"><ele>36.5</ele><time>2026-04-24T15:12:43Z</time></trkpt><trkpt lat="44.40169747370434" lon="8.674851106776034"><ele>37.0</ele><time>2026-04-24T15:12:44Z</time></trkpt><trkpt lat="44.401726620391635" lon="8.674732662815021"><ele>37.5</ele><time>2026-04-24T15:12:45Z</time></trkpt><trkpt lat="44.401740960436655" lon="8.67462985145994"><ele>38.0</ele><time>2026-04-24T15:12:46Z</time></trkpt><trkpt lat="44.40173462589332" lon="8.674513623357432"><ele>38.33333333333333</ele><time>2026-04-24T15:12:47Z</time></trkpt><trkpt lat="44.40170744562384" lon="8.674403162444795"><ele>38.666666666666664</ele><time>2026-04-24T15:12:48Z</time></trkpt><trkpt lat="44.40167235998864" lon="8.674296300750468"><ele>39.0</ele><time>2026-04-24T15:12:49Z</time></trkpt><trkpt lat="44.401613435184004" lon="8.67419580674761"><ele>39.333333333333336</ele><time>2026-04-24T15:12:50Z</time></trkpt><trkpt lat="44.401564272232676" lon="8.674103557828994"><ele>39.66666666666667</ele><time>2026-04-24T15:12:51Z</time></trkpt><trkpt lat="44.401535829937" lon="8.67400486132198"><ele>40.0</ele><time>2026-04-24T15:12:52Z</time></trkpt><trkpt lat="44.40152177401062" lon="8.673888086669637"><ele>40.0</ele><time>2026-04-24T15:12:53Z</time></trkpt><trkpt lat="44.40150415316413" lon="8.673751339848229"><ele>40.0</ele><time>2026-04-24T15:12:54Z</time></trkpt><trkpt lat="44.401487049013824" lon="8.673613808915507"><ele>40.0</ele><time>2026-04-24T15:12:55Z</time></trkpt><trkpt lat="44.40146876233984" lon="8.67347066080434"><ele>40.0</ele><time>2026-04-24T15:12:56Z</time></trkpt><trkpt lat="44.40143439334376" lon="8.673330054657413"><ele>40.0</ele><time>2026-04-24T15:12:57Z</time></trkpt><trkpt lat="44.401426189628886" lon="8.673183129013728"><ele>40.0</ele><time>2026-04-24T15:12:58Z</time></trkpt><trkpt lat="44.401407801784096" lon="8.673049912493868"><ele>40.0</ele><time>2026-04-24T15:12:59Z</time></trkpt><trkpt lat="44.401392173208784" lon="8.672930731695297"><ele>40.0</ele><time>2026-04-24T15:13:00Z</time></trkpt><trkpt lat="44.4013732828141" lon="8.672830458843125"><ele>40.0</ele><time>2026-04-24T15:13:01Z</time></trkpt><trkpt lat="44.401353558100006" lon="8.672727730453325"><ele>40.0</ele><time>2026-04-24T15:13:02Z</time></trkpt><trkpt lat="44.40130723489964" lon="8.672625066328626"><ele>40.0</ele><time>2026-04-24T15:13:03Z</time></trkpt><trkpt lat="44.40124741873674" lon="8.672538674983226"><ele>42.6</ele><time>2026-04-24T15:13:04Z</time></trkpt><trkpt lat="44.401159608864546" lon="8.672462179441657"><ele>45.2</ele><time>2026-04-24T15:13:05Z</time></trkpt><trkpt lat="44.40108583135932" lon="8.672371792765523"><ele>47.8</ele><time>2026-04-24T15:13:06Z</time></trkpt><trkpt lat="44.401009022065885" lon="8.672277511420763"><ele>50.4</ele><time>2026-04-24T15:13:07Z</time></trkpt><trkpt lat="44.400963434486385" lon="8.67215572927771"><ele>53.0</ele><time>2026-04-24T15:13:08Z</time></trkpt><trkpt lat="44.4009117268937" lon="8.672039262420611"><ele>52.16666666666667</ele><time>2026-04-24T15:13:09Z</time></trkpt><trkpt lat="44.40086369608515" lon="8.671925494424586"><ele>51.333333333333336</ele><time>2026-04-24T15:13:10Z</time></trkpt><trkpt lat="44.400829352024196" lon="8.671820771471136"><ele>50.5</ele><time>2026-04-24T15:13:11Z</time></trkpt><trkpt lat="44.400807204863746" lon="8.671720191170154"><ele>49.66666666666667</ele><time>2026-04-24T15:13:12Z</time></trkpt><trkpt lat="44.40079636000869" lon="8.671611947934442"><ele>48.833333333333336</ele><time>2026-04-24T15:13:13Z</time></trkpt><trkpt lat="44.400793193945155" lon="8.671497985498075"><ele>48.0</ele><time>2026-04-24T15:13:14Z</time></trkpt><trkpt lat="44.40079322337556" lon="8.6713855578515"><ele>48.0</ele><time>2026-04-24T15:13:15Z</time></trkpt><trkpt lat="44.40078724094292" lon="8.671281257514483"><ele>48.0</ele><time>2026-04-24T15:13:16Z</time></trkpt><trkpt lat="44.40077795344009" lon="8.671181182404284"><ele>48.0</ele><time>2026-04-24T15:13:17Z</time></trkpt><trkpt lat="44.4007576776693" lon="8.671026198087256"><ele>48.0</ele><time>2026-04-24T15:13:19Z</time></trkpt><trkpt lat="44.400719664387076" lon="8.670854511726057"><ele>48.0</ele><time>2026-04-24T15:13:21Z</time></trkpt><trkpt lat="44.40068568945009" lon="8.670753175471972"><ele>47.666666666666664</ele><time>2026-04-24T15:13:22Z</time></trkpt><trkpt lat="44.4006507114837" lon="8.670648029571423"><ele>47.333333333333336</ele><time>2026-04-24T15:13:23Z</time></trkpt><trkpt lat="44.400593672209965" lon="8.670550410278983"><ele>47.0</ele><time>2026-04-24T15:13:24Z</time></trkpt><trkpt lat="44.400554759389465" lon="8.670446543318148"><ele>46.66666666666667</ele><time>2026-04-24T15:13:25.001Z</time></trkpt><trkpt lat="44.40051610587797" lon="8.670333650215015"><ele>46.333333333333336</ele><time>2026-04-24T15:13:26.001Z</time></trkpt><trkpt lat="44.40047685251317" lon="8.67021207650079"><ele>46.0</ele><time>2026-04-24T15:13:27.001Z</time></trkpt><trkpt lat="44.40044598057692" lon="8.670100026110557"><ele>47.16666666666667</ele><time>2026-04-24T15:13:28.001Z</time></trkpt><trkpt lat="44.40041928522294" lon="8.66998718655999"><ele>48.333333333333336</ele><time>2026-04-24T15:13:29.001Z</time></trkpt><trkpt lat="44.400398964602815" lon="8.66988674354998"><ele>49.5</ele><time>2026-04-24T15:13:30.001Z</time></trkpt><trkpt lat="44.40039163025137" lon="8.669788755780255"><ele>50.66666666666667</ele><time>2026-04-24T15:13:31.001Z</time></trkpt><trkpt lat="44.400394547242556" lon="8.66968763134578"><ele>51.833333333333336</ele><time>2026-04-24T15:13:32.001Z</time></trkpt><trkpt lat="44.400406556049205" lon="8.669594086420501"><ele>53.0</ele><time>2026-04-24T15:13:33.001Z</time></trkpt><trkpt lat="44.400441450365946" lon="8.669463304760553"><ele>52.8</ele><time>2026-04-24T15:13:35.001Z</time></trkpt><trkpt lat="44.40047315443208" lon="8.669363884241202"><ele>52.599999999999994</ele><time>2026-04-24T15:13:38.001Z</time></trkpt><trkpt lat="44.40050896389763" lon="8.669266166687137"><ele>52.400000000000006</ele><time>2026-04-24T15:13:40.001Z</time></trkpt><trkpt lat="44.40052652394855" lon="8.66912136577883"><ele>52.2</ele><time>2026-04-24T15:13:42.001Z</time></trkpt><trkpt lat="44.40047338791718" lon="8.668972224126835"><ele>52.0</ele><time>2026-04-24T15:13:44Z</time></trkpt><trkpt lat="44.40042758630224" lon="8.668898750703965"><ele>53.71428571428571</ele><time>2026-04-24T15:13:45Z</time></trkpt><trkpt lat="44.4003781239764" lon="8.668842558676246"><ele>55.42857142857143</ele><time>2026-04-24T15:13:46Z</time></trkpt><trkpt lat="44.40035853988247" lon="8.668741490068426"><ele>57.14285714285714</ele><time>2026-04-24T15:13:47Z</time></trkpt><trkpt lat="44.40034228601964" lon="8.668648895306205"><ele>58.857142857142854</ele><time>2026-04-24T15:13:48Z</time></trkpt><trkpt lat="44.400341442390776" lon="8.66854243593461"><ele>60.57142857142857</ele><time>2026-04-24T15:13:49Z</time></trkpt><trkpt lat="44.400339984070484" lon="8.668431403421124"><ele>62.285714285714285</ele><time>2026-04-24T15:13:50Z</time></trkpt><trkpt lat="44.40033901713143" lon="8.668311681214806"><ele>64.0</ele><time>2026-04-24T15:13:51Z</time></trkpt><trkpt lat="44.400344174212776" lon="8.668181139000671"><ele>65.8</ele><time>2026-04-24T15:13:52Z</time></trkpt><trkpt lat="44.400341020596514" lon="8.668042860792898"><ele>67.60000000000001</ele><time>2026-04-24T15:13:53Z</time></trkpt><trkpt lat="44.40033551278378" lon="8.667915930190206"><ele>69.4</ele><time>2026-04-24T15:13:54Z</time></trkpt><trkpt lat="44.40034584892366" lon="8.667778775676075"><ele>71.2</ele><time>2026-04-24T15:13:55Z</time></trkpt><trkpt lat="44.40033039040927" lon="8.667643243538864"><ele>73.0</ele><time>2026-04-24T15:13:56Z</time></trkpt><trkpt lat="44.400308224662126" lon="8.667512923603324"><ele>73.0</ele><time>2026-04-24T15:13:57Z</time></trkpt><trkpt lat="44.400279126026206" lon="8.667381414897038"><ele>73.0</ele><time>2026-04-24T15:13:58Z</time></trkpt><trkpt lat="44.40024328255223" lon="8.6672501108655"><ele>73.0</ele><time>2026-04-24T15:13:59Z</time></trkpt><trkpt lat="44.40018391708132" lon="8.667135016294413"><ele>73.0</ele><time>2026-04-24T15:14:00Z</time></trkpt><trkpt lat="44.40014927079127" lon="8.666995656134489"><ele>73.0</ele><time>2026-04-24T15:14:01Z</time></trkpt><trkpt lat="44.40009780757329" lon="8.666861696141359"><ele>71.25</ele><time>2026-04-24T15:14:02Z</time></trkpt><trkpt lat="44.400028789467356" lon="8.666735401889335"><ele>69.5</ele><time>2026-04-24T15:14:03Z</time></trkpt><trkpt lat="44.39997929278903" lon="8.666583566102144"><ele>67.75</ele><time>2026-04-24T15:14:04Z</time></trkpt><trkpt lat="44.399920169634804" lon="8.666439072294917"><ele>66.0</ele><time>2026-04-24T15:14:05Z</time></trkpt><trkpt lat="44.39986024571127" lon="8.666299152944342"><ele>66.0</ele><time>2026-04-24T15:14:06Z</time></trkpt><trkpt lat="44.399807718987596" lon="8.66615284140447"><ele>66.0</ele><time>2026-04-24T15:14:07Z</time></trkpt><trkpt lat="44.399749328674545" lon="8.666011534034228"><ele>66.0</ele><time>2026-04-24T15:14:08Z</time></trkpt><trkpt lat="44.39969519839062" lon="8.66586927699944"><ele>66.0</ele><time>2026-04-24T15:14:09Z</time></trkpt><trkpt lat="44.39964202036701" lon="8.66572884158076"><ele>67.5</ele><time>2026-04-24T15:14:10Z</time></trkpt><trkpt lat="44.39958641831295" lon="8.665582428694565"><ele>69.0</ele><time>2026-04-24T15:14:11Z</time></trkpt><trkpt lat="44.399531223295156" lon="8.665440924257915"><ele>70.5</ele><time>2026-04-24T15:14:12Z</time></trkpt><trkpt lat="44.39947444260476" lon="8.665297642291812"><ele>72.0</ele><time>2026-04-24T15:14:13Z</time></trkpt><trkpt lat="44.399418716258765" lon="8.665157831048791"><ele>72.6</ele><time>2026-04-24T15:14:14Z</time></trkpt><trkpt lat="44.39936963158462" lon="8.665023303044299"><ele>73.2</ele><time>2026-04-24T15:14:15Z</time></trkpt><trkpt lat="44.39931572772418" lon="8.664886424755156"><ele>73.8</ele><time>2026-04-24T15:14:16Z</time></trkpt><trkpt lat="44.39926296081553" lon="8.664748157879036"><ele>74.4</ele><time>2026-04-24T15:14:17Z</time></trkpt><trkpt lat="44.39921011392493" lon="8.664606518122486"><ele>75.0</ele><time>2026-04-24T15:14:18Z</time></trkpt><trkpt lat="44.3991610589191" lon="8.664474949710218"><ele>76.6</ele><time>2026-04-24T15:14:19Z</time></trkpt><trkpt lat="44.39910695937168" lon="8.664343411473057"><ele>78.2</ele><time>2026-04-24T15:14:20Z</time></trkpt><trkpt lat="44.39905887288766" lon="8.664205984830705"><ele>79.80000000000001</ele><time>2026-04-24T15:14:21Z</time></trkpt><trkpt lat="44.39900929491798" lon="8.664082589835138"><ele>81.4</ele><time>2026-04-24T15:14:22Z</time></trkpt><trkpt lat="44.39896040241527" lon="8.663957707276934"><ele>83.0</ele><time>2026-04-24T15:14:23Z</time></trkpt><trkpt lat="44.39891447124666" lon="8.663835386199073"><ele>83.0</ele><time>2026-04-24T15:14:24Z</time></trkpt><trkpt lat="44.39886977437538" lon="8.663728165067388"><ele>83.0</ele><time>2026-04-24T15:14:25Z</time></trkpt><trkpt lat="44.398820551181295" lon="8.66362503982702"><ele>83.0</ele><time>2026-04-24T15:14:26Z</time></trkpt><trkpt lat="44.39876621106252" lon="8.66352978046565"><ele>83.0</ele><time>2026-04-24T15:14:27Z</time></trkpt><trkpt lat="44.39871862191022" lon="8.663447513987759"><ele>83.0</ele><time>2026-04-24T15:14:28Z</time></trkpt><trkpt lat="44.39866308122188" lon="8.663381210567971"><ele>83.0</ele><time>2026-04-24T15:14:29Z</time></trkpt><trkpt lat="44.39859214034544" lon="8.66332544298544"><ele>81.33333333333334</ele><time>2026-04-24T15:14:30Z</time></trkpt><trkpt lat="44.39851765581737" lon="8.663276435298407"><ele>79.66666666666667</ele><time>2026-04-24T15:14:31Z</time></trkpt><trkpt lat="44.39843373992445" lon="8.663242774366609"><ele>78.0</ele><time>2026-04-24T15:14:32Z</time></trkpt><trkpt lat="44.39834711482876" lon="8.663221860179608"><ele>76.33333333333333</ele><time>2026-04-24T15:14:33Z</time></trkpt><trkpt lat="44.3982674080523" lon="8.663218450528142"><ele>74.66666666666666</ele><time>2026-04-24T15:14:34Z</time></trkpt><trkpt lat="44.39818696971903" lon="8.663207244965285"><ele>73.0</ele><time>2026-04-24T15:14:35Z</time></trkpt><trkpt lat="44.39810898920789" lon="8.663208164419752"><ele>73.0</ele><time>2026-04-24T15:14:36Z</time></trkpt><trkpt lat="44.39804049531865" lon="8.663225322098159"><ele>73.0</ele><time>2026-04-24T15:14:37Z</time></trkpt><trkpt lat="44.397966098453544" lon="8.663263612225212"><ele>73.0</ele><time>2026-04-24T15:14:38Z</time></trkpt><trkpt lat="44.39788965054595" lon="8.663317010679187"><ele>73.0</ele><time>2026-04-24T15:14:39Z</time></trkpt><trkpt lat="44.39781636878371" lon="8.663370631030926"><ele>73.0</ele><time>2026-04-24T15:14:40Z</time></trkpt><trkpt lat="44.39773561768055" lon="8.663395479316065"><ele>73.0</ele><time>2026-04-24T15:14:41Z</time></trkpt><trkpt lat="44.39765375066672" lon="8.663401782258507"><ele>71.33333333333333</ele><time>2026-04-24T15:14:42Z</time></trkpt><trkpt lat="44.39756963491727" lon="8.663390861693188"><ele>69.66666666666666</ele><time>2026-04-24T15:14:43Z</time></trkpt><trkpt lat="44.39748238173536" lon="8.663362297223038"><ele>68.0</ele><time>2026-04-24T15:14:44Z</time></trkpt><trkpt lat="44.397395351339746" lon="8.663324055792806"><ele>66.33333333333333</ele><time>2026-04-24T15:14:45Z</time></trkpt><trkpt lat="44.397304294110995" lon="8.663288177820244"><ele>64.66666666666667</ele><time>2026-04-24T15:14:46Z</time></trkpt><trkpt lat="44.3972175217268" lon="8.663264930347175"><ele>63.0</ele><time>2026-04-24T15:14:47Z</time></trkpt><trkpt lat="44.39713652588866" lon="8.663257241079172"><ele>62.285714285714285</ele><time>2026-04-24T15:14:48Z</time></trkpt><trkpt lat="44.39706463242099" lon="8.663266970316421"><ele>61.57142857142857</ele><time>2026-04-24T15:14:49Z</time></trkpt><trkpt lat="44.39699816433423" lon="8.663296413673299"><ele>60.85714285714286</ele><time>2026-04-24T15:14:50Z</time></trkpt><trkpt lat="44.3969382910592" lon="8.663348167818048"><ele>60.142857142857146</ele><time>2026-04-24T15:14:51Z</time></trkpt><trkpt lat="44.39688004793865" lon="8.663405813993984"><ele>59.42857142857143</ele><time>2026-04-24T15:14:52Z</time></trkpt><trkpt lat="44.396853267098656" lon="8.663517301094286"><ele>58.71428571428572</ele><time>2026-04-24T15:14:53Z</time></trkpt><trkpt lat="44.39683101289055" lon="8.663621450131219"><ele>58.00000000000001</ele><time>2026-04-24T15:14:54Z</time></trkpt><trkpt lat="44.396817192317165" lon="8.663735129755565"><ele>57.99999999999999</ele><time>2026-04-24T15:14:55Z</time></trkpt><trkpt lat="44.39681201658688" lon="8.663864307254627"><ele>58.0</ele><time>2026-04-24T15:14:56Z</time></trkpt><trkpt lat="44.39680062434218" lon="8.663983197659807"><ele>58.0</ele><time>2026-04-24T15:14:57Z</time></trkpt><trkpt lat="44.39677591058132" lon="8.66409222357475"><ele>58.0</ele><time>2026-04-24T15:14:58Z</time></trkpt><trkpt lat="44.39672914005005" lon="8.66418460923418"><ele>57.99999999999999</ele><time>2026-04-24T15:14:59Z</time></trkpt><trkpt lat="44.396670159620115" lon="8.66425894415871"><ele>58.0</ele><time>2026-04-24T15:15:00Z</time></trkpt><trkpt lat="44.39659491184981" lon="8.664313357157647"><ele>58.0</ele><time>2026-04-24T15:15:01Z</time></trkpt><trkpt lat="44.39650852735977" lon="8.664351387461675"><ele>58.0</ele><time>2026-04-24T15:15:02Z</time></trkpt><trkpt lat="44.39641400945374" lon="8.664384113006099"><ele>58.0</ele><time>2026-04-24T15:15:03Z</time></trkpt><trkpt lat="44.396306671761835" lon="8.66442153243533"><ele>58.0</ele><time>2026-04-24T15:15:04Z</time></trkpt><trkpt lat="44.39619966416039" lon="8.664463618415471"><ele>58.0</ele><time>2026-04-24T15:15:05Z</time></trkpt><trkpt lat="44.39608881316866" lon="8.664503909968664"><ele>58.75</ele><time>2026-04-24T15:15:06Z</time></trkpt><trkpt lat="44.39596516107919" lon="8.664538539243342"><ele>59.5</ele><time>2026-04-24T15:15:07Z</time></trkpt><trkpt lat="44.395843344976974" lon="8.664577673607363"><ele>60.25</ele><time>2026-04-24T15:15:08Z</time></trkpt><trkpt lat="44.39572089044158" lon="8.664619837552738"><ele>61.0</ele><time>2026-04-24T15:15:09Z</time></trkpt><trkpt lat="44.39559968585874" lon="8.664655415561016"><ele>57.0</ele><time>2026-04-24T15:15:10Z</time></trkpt><trkpt lat="44.39547478067816" lon="8.664694039332133"><ele>53.0</ele><time>2026-04-24T15:15:11Z</time></trkpt><trkpt lat="44.39534990986965" lon="8.664736090315714"><ele>49.0</ele><time>2026-04-24T15:15:12Z</time></trkpt><trkpt lat="44.39523026230472" lon="8.664779118878501"><ele>45.0</ele><time>2026-04-24T15:15:13Z</time></trkpt><trkpt lat="44.39511227218627" lon="8.664815977144306"><ele>45.0</ele><time>2026-04-24T15:15:14Z</time></trkpt><trkpt lat="44.39499852035867" lon="8.66484801757036"><ele>45.0</ele><time>2026-04-24T15:15:15Z</time></trkpt><trkpt lat="44.39488054194778" lon="8.664886618394934"><ele>45.0</ele><time>2026-04-24T15:15:16Z</time></trkpt><trkpt lat="44.394760590333675" lon="8.664920426822693"><ele>45.0</ele><time>2026-04-24T15:15:17Z</time></trkpt><trkpt lat="44.394640482080014" lon="8.664954312028662"><ele>43.0</ele><time>2026-04-24T15:15:18Z</time></trkpt><trkpt lat="44.39452081825077" lon="8.664984360485192"><ele>41.0</ele><time>2026-04-24T15:15:19Z</time></trkpt><trkpt lat="44.39440476698372" lon="8.665005155774232"><ele>39.0</ele><time>2026-04-24T15:15:20Z</time></trkpt><trkpt lat="44.39428508061083" lon="8.665015705080577"><ele>37.0</ele><time>2026-04-24T15:15:21Z</time></trkpt><trkpt lat="44.3941773719805" lon="8.665027046428644"><ele>37.0</ele><time>2026-04-24T15:15:22Z</time></trkpt><trkpt lat="44.394063523169365" lon="8.665029546451791"><ele>37.0</ele><time>2026-04-24T15:15:23Z</time></trkpt><trkpt lat="44.393951918673" lon="8.665028814962833"><ele>37.0</ele><time>2026-04-24T15:15:24Z</time></trkpt><trkpt lat="44.39384481626433" lon="8.66502830625633"><ele>37.0</ele><time>2026-04-24T15:15:25Z</time></trkpt><trkpt lat="44.39373300379902" lon="8.665032927715657"><ele>37.0</ele><time>2026-04-24T15:15:26Z</time></trkpt><trkpt lat="44.393623932009945" lon="8.665031431599834"><ele>34.800000000000004</ele><time>2026-04-24T15:15:27Z</time></trkpt><trkpt lat="44.393511885578164" lon="8.665032178076395"><ele>32.6</ele><time>2026-04-24T15:15:28Z</time></trkpt><trkpt lat="44.393397575587436" lon="8.665033759954344"><ele>30.400000000000002</ele><time>2026-04-24T15:15:29Z</time></trkpt><trkpt lat="44.39328654758961" lon="8.665035709482076"><ele>28.200000000000003</ele><time>2026-04-24T15:15:30Z</time></trkpt><trkpt lat="44.393176200379386" lon="8.665041830408954"><ele>26.0</ele><time>2026-04-24T15:15:31Z</time></trkpt><trkpt lat="44.393068681371325" lon="8.665043995537465"><ele>24.0</ele><time>2026-04-24T15:15:32Z</time></trkpt><trkpt lat="44.39295905589435" lon="8.665051657701413"><ele>22.0</ele><time>2026-04-24T15:15:33Z</time></trkpt><trkpt lat="44.39285720107351" lon="8.665063516310596"><ele>20.0</ele><time>2026-04-24T15:15:34Z</time></trkpt><trkpt lat="44.392754810637776" lon="8.66508569211771"><ele>18.0</ele><time>2026-04-24T15:15:35Z</time></trkpt><trkpt lat="44.392657072899866" lon="8.665112652584211"><ele>16.0</ele><time>2026-04-24T15:15:36Z</time></trkpt><trkpt lat="44.392569856406766" lon="8.66515075741656"><ele>16.0</ele><time>2026-04-24T15:15:37Z</time></trkpt><trkpt lat="44.392481494402034" lon="8.665198690998539"><ele>16.0</ele><time>2026-04-24T15:15:38Z</time></trkpt><trkpt lat="44.39239920126725" lon="8.665266567706759"><ele>16.0</ele><time>2026-04-24T15:15:39Z</time></trkpt><trkpt lat="44.39231600306048" lon="8.665338948895636"><ele>16.0</ele><time>2026-04-24T15:15:40Z</time></trkpt><trkpt lat="44.39222525495576" lon="8.665414762086783"><ele>16.0</ele><time>2026-04-24T15:15:41Z</time></trkpt><trkpt lat="44.39214181313448" lon="8.665484265112177"><ele>15.4</ele><time>2026-04-24T15:15:42Z</time></trkpt><trkpt lat="44.392055563391004" lon="8.665548413352253"><ele>14.8</ele><time>2026-04-24T15:15:43Z</time></trkpt><trkpt lat="44.391972369742874" lon="8.665595852532578"><ele>14.200000000000001</ele><time>2026-04-24T15:15:44Z</time></trkpt><trkpt lat="44.391887161120245" lon="8.665631833374293"><ele>13.600000000000001</ele><time>2026-04-24T15:15:45Z</time></trkpt><trkpt lat="44.391800451559654" lon="8.66564836781901"><ele>13.0</ele><time>2026-04-24T15:15:46.001Z</time></trkpt><trkpt lat="44.39171141845188" lon="8.6656465070725"><ele>13.0</ele><time>2026-04-24T15:15:47.001Z</time></trkpt><trkpt lat="44.39162466623666" lon="8.665629227225436"><ele>13.0</ele><time>2026-04-24T15:15:48.001Z</time></trkpt><trkpt lat="44.39152881751889" lon="8.665589388738505"><ele>13.0</ele><time>2026-04-24T15:15:49Z</time></trkpt><trkpt lat="44.391448336667" lon="8.665533946809632"><ele>13.0</ele><time>2026-04-24T15:15:50Z</time></trkpt><trkpt lat="44.39137001174075" lon="8.665476532732805"><ele>13.0</ele><time>2026-04-24T15:15:51Z</time></trkpt><trkpt lat="44.39129681402557" lon="8.665406207058108"><ele>11.999999999999998</ele><time>2026-04-24T15:15:52Z</time></trkpt><trkpt lat="44.39122093805301" lon="8.665313265050571"><ele>11.0</ele><time>2026-04-24T15:15:53Z</time></trkpt><trkpt lat="44.39116654905453" lon="8.66521896614824"><ele>10.0</ele><time>2026-04-24T15:15:54Z</time></trkpt><trkpt lat="44.39112093892766" lon="8.665120838577872"><ele>9.0</ele><time>2026-04-24T15:15:55Z</time></trkpt><trkpt lat="44.39108130615158" lon="8.665010505912617"><ele>8.0</ele><time>2026-04-24T15:15:56Z</time></trkpt><trkpt lat="44.39105468824192" lon="8.66489526880433"><ele>7.0</ele><time>2026-04-24T15:15:57Z</time></trkpt><trkpt lat="44.391041341367945" lon="8.664762450307649"><ele>6.6</ele><time>2026-04-24T15:15:58Z</time></trkpt><trkpt lat="44.39103698667296" lon="8.664625286637254"><ele>6.199999999999999</ele><time>2026-04-24T15:15:59Z</time></trkpt><trkpt lat="44.391032963174126" lon="8.6644853873191"><ele>5.8</ele><time>2026-04-24T15:16:00Z</time></trkpt><trkpt lat="44.39102860614098" lon="8.664345234338912"><ele>5.4</ele><time>2026-04-24T15:16:01Z</time></trkpt><trkpt lat="44.39102036019988" lon="8.66419611058713"><ele>5.0</ele><time>2026-04-24T15:16:02Z</time></trkpt><trkpt lat="44.39102018368915" lon="8.664045947717334"><ele>5.0</ele><time>2026-04-24T15:16:03Z</time></trkpt><trkpt lat="44.39101299160342" lon="8.663897859962645"><ele>5.0</ele><time>2026-04-24T15:16:04Z</time></trkpt><trkpt lat="44.39100584321599" lon="8.66374962842999"><ele>5.0</ele><time>2026-04-24T15:16:05Z</time></trkpt><trkpt lat="44.390998237947834" lon="8.663599956010378"><ele>5.0</ele><time>2026-04-24T15:16:06Z</time></trkpt><trkpt lat="44.390996572775066" lon="8.663445641792393"><ele>5.0</ele><time>2026-04-24T15:16:07Z</time></trkpt><trkpt lat="44.391004875228354" lon="8.66329015914448"><ele>5.75</ele><time>2026-04-24T15:16:08Z</time></trkpt><trkpt lat="44.39099964483838" lon="8.663129075013345"><ele>6.5</ele><time>2026-04-24T15:16:09Z</time></trkpt><trkpt lat="44.39099256834127" lon="8.66296520407507"><ele>7.25</ele><time>2026-04-24T15:16:10Z</time></trkpt><trkpt lat="44.39098777086266" lon="8.662803614425604"><ele>8.0</ele><time>2026-04-24T15:16:11Z</time></trkpt><trkpt lat="44.39098290205725" lon="8.662650329834198"><ele>8.5</ele><time>2026-04-24T15:16:12Z</time></trkpt><trkpt lat="44.390979374838196" lon="8.662492417416988"><ele>9.0</ele><time>2026-04-24T15:16:13Z</time></trkpt><trkpt lat="44.390971120928356" lon="8.662329243203832"><ele>9.5</ele><time>2026-04-24T15:16:14Z</time></trkpt><trkpt lat="44.39096501068231" lon="8.662172368525177"><ele>10.0</ele><time>2026-04-24T15:16:15Z</time></trkpt><trkpt lat="44.390958177575264" lon="8.662011524370927"><ele>9.75</ele><time>2026-04-24T15:16:16Z</time></trkpt><trkpt lat="44.39095511542138" lon="8.661849310220042"><ele>9.5</ele><time>2026-04-24T15:16:17Z</time></trkpt><trkpt lat="44.39094855685843" lon="8.6616789577285"><ele>9.25</ele><time>2026-04-24T15:16:18Z</time></trkpt><trkpt lat="44.39094413459263" lon="8.661517021326992"><ele>9.0</ele><time>2026-04-24T15:16:19Z</time></trkpt><trkpt lat="44.390939947443215" lon="8.66135495060642"><ele>9.0</ele><time>2026-04-24T15:16:20Z</time></trkpt><trkpt lat="44.39093634538316" lon="8.661187407054465"><ele>9.0</ele><time>2026-04-24T15:16:21Z</time></trkpt><trkpt lat="44.39093189942637" lon="8.661018895592727"><ele>9.0</ele><time>2026-04-24T15:16:22Z</time></trkpt><trkpt lat="44.39092613878391" lon="8.66084910467188"><ele>9.0</ele><time>2026-04-24T15:16:23Z</time></trkpt><trkpt lat="44.39092130536808" lon="8.660676066546678"><ele>8.75</ele><time>2026-04-24T15:16:24Z</time></trkpt><trkpt lat="44.39091611261866" lon="8.660513337663645"><ele>8.5</ele><time>2026-04-24T15:16:25Z</time></trkpt><trkpt lat="44.39091387091615" lon="8.66035781807159"><ele>8.25</ele><time>2026-04-24T15:16:26Z</time></trkpt><trkpt lat="44.390910304147454" lon="8.66019772766247"><ele>8.0</ele><time>2026-04-24T15:16:27Z</time></trkpt><trkpt lat="44.39090685982236" lon="8.660041304913603"><ele>8.0</ele><time>2026-04-24T15:16:28Z</time></trkpt><trkpt lat="44.390903381619246" lon="8.659885457940195"><ele>8.0</ele><time>2026-04-24T15:16:29Z</time></trkpt><trkpt lat="44.39089916953349" lon="8.659735871974998"><ele>8.0</ele><time>2026-04-24T15:16:30Z</time></trkpt><trkpt lat="44.39089365384369" lon="8.659586136776243"><ele>8.0</ele><time>2026-04-24T15:16:31Z</time></trkpt><trkpt lat="44.390888661615335" lon="8.659434023204062"><ele>8.0</ele><time>2026-04-24T15:16:32Z</time></trkpt><trkpt lat="44.39088621117946" lon="8.659288204433462"><ele>7.6000000000000005</ele><time>2026-04-24T15:16:33Z</time></trkpt><trkpt lat="44.39088421057587" lon="8.659144489317251"><ele>7.200000000000001</ele><time>2026-04-24T15:16:34Z</time></trkpt><trkpt lat="44.39088160899385" lon="8.65900240351384"><ele>6.8</ele><time>2026-04-24T15:16:35Z</time></trkpt><trkpt lat="44.39087531338749" lon="8.658858071247735"><ele>6.4</ele><time>2026-04-24T15:16:36Z</time></trkpt><trkpt lat="44.390869128290426" lon="8.65871329901961"><ele>6.0</ele><time>2026-04-24T15:16:37Z</time></trkpt><trkpt lat="44.390867033686696" lon="8.658565432373742"><ele>6.0</ele><time>2026-04-24T15:16:38Z</time></trkpt><trkpt lat="44.390861074278064" lon="8.658407441238516"><ele>6.0</ele><time>2026-04-24T15:16:39Z</time></trkpt><trkpt lat="44.39085712938803" lon="8.658256840474134"><ele>6.0</ele><time>2026-04-24T15:16:40Z</time></trkpt><trkpt lat="44.39085163105068" lon="8.658099717897054"><ele>6.0</ele><time>2026-04-24T15:16:41Z</time></trkpt><trkpt lat="44.39084876633102" lon="8.657945025656618"><ele>6.0</ele><time>2026-04-24T15:16:42Z</time></trkpt><trkpt lat="44.39084217604941" lon="8.657784150908522"><ele>6.25</ele><time>2026-04-24T15:16:43Z</time></trkpt><trkpt lat="44.39083554680878" lon="8.657627583273637"><ele>6.5</ele><time>2026-04-24T15:16:44Z</time></trkpt><trkpt lat="44.3908428494311" lon="8.657465331975876"><ele>6.75</ele><time>2026-04-24T15:16:45Z</time></trkpt><trkpt lat="44.39083777786153" lon="8.657295963288066"><ele>7.0</ele><time>2026-04-24T15:16:46Z</time></trkpt><trkpt lat="44.390833920055115" lon="8.657130884390485"><ele>7.0</ele><time>2026-04-24T15:16:47Z</time></trkpt><trkpt lat="44.39083249284464" lon="8.656969938840502"><ele>7.0</ele><time>2026-04-24T15:16:48Z</time></trkpt><trkpt lat="44.39082590971168" lon="8.656802011726311"><ele>7.0</ele><time>2026-04-24T15:16:49Z</time></trkpt><trkpt lat="44.39082125082299" lon="8.656630829323808"><ele>7.0</ele><time>2026-04-24T15:16:50Z</time></trkpt><trkpt lat="44.39081495007818" lon="8.656462223529934"><ele>7.75</ele><time>2026-04-24T15:16:51Z</time></trkpt><trkpt lat="44.39081085837493" lon="8.656294847681492"><ele>8.5</ele><time>2026-04-24T15:16:52Z</time></trkpt><trkpt lat="44.39080609755886" lon="8.65612663593692"><ele>9.25</ele><time>2026-04-24T15:16:53Z</time></trkpt><trkpt lat="44.3908013933076" lon="8.655961852979543"><ele>10.0</ele><time>2026-04-24T15:16:54Z</time></trkpt><trkpt lat="44.390794449204655" lon="8.655801204867187"><ele>10.0</ele><time>2026-04-24T15:16:55Z</time></trkpt><trkpt lat="44.39078767954018" lon="8.655640443101648"><ele>10.0</ele><time>2026-04-24T15:16:56Z</time></trkpt><trkpt lat="44.3907798151948" lon="8.65547829043948"><ele>10.0</ele><time>2026-04-24T15:16:57Z</time></trkpt><trkpt lat="44.390772295527974" lon="8.655315320787183"><ele>10.0</ele><time>2026-04-24T15:16:58Z</time></trkpt><trkpt lat="44.390761699566646" lon="8.655150770306326"><ele>10.0</ele><time>2026-04-24T15:16:59Z</time></trkpt><trkpt lat="44.39074950848218" lon="8.654988395608816"><ele>10.0</ele><time>2026-04-24T15:17:00Z</time></trkpt><trkpt lat="44.390739171656705" lon="8.654825197647874"><ele>10.0</ele><time>2026-04-24T15:17:01Z</time></trkpt><trkpt lat="44.39072780613258" lon="8.654670661784095"><ele>10.0</ele><time>2026-04-24T15:17:02Z</time></trkpt><trkpt lat="44.390720400097116" lon="8.654510546781"><ele>10.5</ele><time>2026-04-24T15:17:03Z</time></trkpt><trkpt lat="44.39070912160391" lon="8.654348358301528"><ele>11.0</ele><time>2026-04-24T15:17:04Z</time></trkpt><trkpt lat="44.39069633779327" lon="8.654184982115178"><ele>11.5</ele><time>2026-04-24T15:17:05Z</time></trkpt><trkpt lat="44.390682517908175" lon="8.654023940423144"><ele>12.0</ele><time>2026-04-24T15:17:06Z</time></trkpt><trkpt lat="44.39066725236163" lon="8.653859901255107"><ele>12.0</ele><time>2026-04-24T15:17:07Z</time></trkpt><trkpt lat="44.39064967389061" lon="8.653700734673986"><ele>12.0</ele><time>2026-04-24T15:17:08Z</time></trkpt><trkpt lat="44.390634755367" lon="8.653543076405857"><ele>12.0</ele><time>2026-04-24T15:17:09Z</time></trkpt><trkpt lat="44.390616240659895" lon="8.653384702672016"><ele>12.0</ele><time>2026-04-24T15:17:10Z</time></trkpt><trkpt lat="44.390595189371204" lon="8.653220088591379"><ele>12.0</ele><time>2026-04-24T15:17:11Z</time></trkpt><trkpt lat="44.39057600104309" lon="8.653055999616962"><ele>12.0</ele><time>2026-04-24T15:17:12Z</time></trkpt><trkpt lat="44.390554761486314" lon="8.652892113658504"><ele>12.0</ele><time>2026-04-24T15:17:13Z</time></trkpt><trkpt lat="44.39053216110457" lon="8.652724633449006"><ele>12.0</ele><time>2026-04-24T15:17:14Z</time></trkpt><trkpt lat="44.39051252480228" lon="8.652562143214599"><ele>10.0</ele><time>2026-04-24T15:17:15Z</time></trkpt><trkpt lat="44.39049246424838" lon="8.652400506180124"><ele>8.0</ele><time>2026-04-24T15:17:16Z</time></trkpt><trkpt lat="44.390471770814784" lon="8.65223739813216"><ele>6.0</ele><time>2026-04-24T15:17:17Z</time></trkpt><trkpt lat="44.3904480321808" lon="8.652074489699636"><ele>4.0</ele><time>2026-04-24T15:17:18Z</time></trkpt><trkpt lat="44.390420892641316" lon="8.65190584746047"><ele>3.5</ele><time>2026-04-24T15:17:19Z</time></trkpt><trkpt lat="44.39039550789764" lon="8.651736421194045"><ele>3.0</ele><time>2026-04-24T15:17:20Z</time></trkpt><trkpt lat="44.39037040665687" lon="8.651570518588983"><ele>2.5</ele><time>2026-04-24T15:17:21Z</time></trkpt><trkpt lat="44.39034337246251" lon="8.651402965843786"><ele>2.0</ele><time>2026-04-24T15:17:22Z</time></trkpt><trkpt lat="44.39032125144073" lon="8.651240176808601"><ele>2.8</ele><time>2026-04-24T15:17:23Z</time></trkpt><trkpt lat="44.390298526942765" lon="8.651082558924363"><ele>3.6</ele><time>2026-04-24T15:17:24Z</time></trkpt><trkpt lat="44.39027854630538" lon="8.650937314652095"><ele>4.3999999999999995</ele><time>2026-04-24T15:17:25Z</time></trkpt><trkpt lat="44.39025511213265" lon="8.650791170768505"><ele>5.2</ele><time>2026-04-24T15:17:26Z</time></trkpt><trkpt lat="44.390231626379425" lon="8.65064527661495"><ele>6.0</ele><time>2026-04-24T15:17:27Z</time></trkpt><trkpt lat="44.39021382962924" lon="8.650508893214516"><ele>6.0</ele><time>2026-04-24T15:17:28Z</time></trkpt><trkpt lat="44.39019557832638" lon="8.650384958579519"><ele>6.0</ele><time>2026-04-24T15:17:29Z</time></trkpt><trkpt lat="44.39018381477612" lon="8.65025984991559"><ele>6.0</ele><time>2026-04-24T15:17:30Z</time></trkpt><trkpt lat="44.390168336663855" lon="8.65012783887617"><ele>6.0</ele><time>2026-04-24T15:17:31Z</time></trkpt><trkpt lat="44.39014815415993" lon="8.64999482620569"><ele>6.0</ele><time>2026-04-24T15:17:32Z</time></trkpt><trkpt lat="44.390129605031575" lon="8.649854125784438"><ele>6.0</ele><time>2026-04-24T15:17:33Z</time></trkpt><trkpt lat="44.39010881175741" lon="8.649710416054932"><ele>6.0</ele><time>2026-04-24T15:17:34Z</time></trkpt><trkpt lat="44.39008642097547" lon="8.6495630134835"><ele>6.0</ele><time>2026-04-24T15:17:35Z</time></trkpt><trkpt lat="44.39006441122209" lon="8.64942063558563"><ele>6.0</ele><time>2026-04-24T15:17:36Z</time></trkpt><trkpt lat="44.39004024670186" lon="8.64927116275509"><ele>6.0</ele><time>2026-04-24T15:17:37Z</time></trkpt><trkpt lat="44.39001383348156" lon="8.64912638237659"><ele>6.4</ele><time>2026-04-24T15:17:38Z</time></trkpt><trkpt lat="44.389984623077616" lon="8.64898671952872"><ele>6.8</ele><time>2026-04-24T15:17:39Z</time></trkpt><trkpt lat="44.389954866190344" lon="8.64885806084774"><ele>7.200000000000001</ele><time>2026-04-24T15:17:40Z</time></trkpt><trkpt lat="44.389927451768145" lon="8.648739232761042"><ele>7.6000000000000005</ele><time>2026-04-24T15:17:41Z</time></trkpt><trkpt lat="44.389900439323505" lon="8.648627878127561"><ele>8.0</ele><time>2026-04-24T15:17:42Z</time></trkpt><trkpt lat="44.389875181982056" lon="8.648525889997067"><ele>8.333333333333332</ele><time>2026-04-24T15:17:43Z</time></trkpt><trkpt lat="44.38985406976333" lon="8.648428175720811"><ele>8.666666666666666</ele><time>2026-04-24T15:17:44Z</time></trkpt><trkpt lat="44.38983126686624" lon="8.648340678250111"><ele>9.0</ele><time>2026-04-24T15:17:45Z</time></trkpt><trkpt lat="44.389806665132205" lon="8.648243524643755"><ele>9.333333333333334</ele><time>2026-04-24T15:17:46Z</time></trkpt><trkpt lat="44.38978068698618" lon="8.648134416084378"><ele>9.666666666666668</ele><time>2026-04-24T15:17:47Z</time></trkpt><trkpt lat="44.38974931906073" lon="8.648025527568354"><ele>10.0</ele><time>2026-04-24T15:17:48Z</time></trkpt><trkpt lat="44.38972196489085" lon="8.647927264916957"><ele>10.0</ele><time>2026-04-24T15:17:49Z</time></trkpt><trkpt lat="44.38969960753077" lon="8.647837161302357"><ele>10.0</ele><time>2026-04-24T15:17:50Z</time></trkpt><trkpt lat="44.389679676234174" lon="8.647752038481372"><ele>10.0</ele><time>2026-04-24T15:17:51Z</time></trkpt><trkpt lat="44.38964651798135" lon="8.647603607465198"><ele>10.0</ele><time>2026-04-24T15:17:53Z</time></trkpt><trkpt lat="44.389605942578186" lon="8.647443437502163"><ele>10.0</ele><time>2026-04-24T15:17:55Z</time></trkpt><trkpt lat="44.38957216303337" lon="8.64729422887673"><ele>9.166666666666668</ele><time>2026-04-24T15:17:57Z</time></trkpt><trkpt lat="44.389542503407455" lon="8.647173496857837"><ele>8.333333333333334</ele><time>2026-04-24T15:17:59Z</time></trkpt><trkpt lat="44.38950869781961" lon="8.647049192707335"><ele>7.5</ele><time>2026-04-24T15:18:01Z</time></trkpt><trkpt lat="44.38946328203689" lon="8.64689824713542"><ele>6.666666666666667</ele><time>2026-04-24T15:18:03Z</time></trkpt><trkpt lat="44.3894424202054" lon="8.646810755000015"><ele>5.833333333333334</ele><time>2026-04-24T15:18:04Z</time></trkpt><trkpt lat="44.389418458583705" lon="8.646724097569813"><ele>5.0</ele><time>2026-04-24T15:18:05Z</time></trkpt><trkpt lat="44.38939591260626" lon="8.64663879812203"><ele>5.0</ele><time>2026-04-24T15:18:06Z</time></trkpt><trkpt lat="44.38937312983774" lon="8.646550916442683"><ele>5.0</ele><time>2026-04-24T15:18:07Z</time></trkpt><trkpt lat="44.38935006799022" lon="8.646465220409432"><ele>5.0</ele><time>2026-04-24T15:18:08Z</time></trkpt><trkpt lat="44.38932535846515" lon="8.646382595155881"><ele>5.0</ele><time>2026-04-24T15:18:09Z</time></trkpt><trkpt lat="44.38930283581187" lon="8.646295812905304"><ele>5.0</ele><time>2026-04-24T15:18:10Z</time></trkpt><trkpt lat="44.38925946572413" lon="8.646131160569977"><ele>5.0</ele><time>2026-04-24T15:18:12Z</time></trkpt><trkpt lat="44.38923135703475" lon="8.646039797375723"><ele>5.333333333333334</ele><time>2026-04-24T15:18:13Z</time></trkpt><trkpt lat="44.38919969896959" lon="8.645940625811603"><ele>5.666666666666667</ele><time>2026-04-24T15:18:14Z</time></trkpt><trkpt lat="44.38916439003237" lon="8.645836625876877"><ele>6.0</ele><time>2026-04-24T15:18:15Z</time></trkpt><trkpt lat="44.38912894024759" lon="8.645730495084607"><ele>6.333333333333334</ele><time>2026-04-24T15:18:16Z</time></trkpt><trkpt lat="44.38909310549189" lon="8.64562517499734"><ele>6.666666666666667</ele><time>2026-04-24T15:18:17Z</time></trkpt><trkpt lat="44.38905905493401" lon="8.645524197406516"><ele>7.0</ele><time>2026-04-24T15:18:18Z</time></trkpt><trkpt lat="44.38902476699283" lon="8.645427905471939"><ele>7.0</ele><time>2026-04-24T15:18:19Z</time></trkpt><trkpt lat="44.38899203251426" lon="8.645332607741537"><ele>7.0</ele><time>2026-04-24T15:18:20Z</time></trkpt><trkpt lat="44.38895943291585" lon="8.64524533486171"><ele>7.0</ele><time>2026-04-24T15:18:21Z</time></trkpt><trkpt lat="44.38892468147345" lon="8.645155329473916"><ele>7.0</ele><time>2026-04-24T15:18:22Z</time></trkpt><trkpt lat="44.38888735294228" lon="8.645062485547834"><ele>7.0</ele><time>2026-04-24T15:18:23Z</time></trkpt><trkpt lat="44.388855660824994" lon="8.644975917643466"><ele>7.0</ele><time>2026-04-24T15:18:24Z</time></trkpt><trkpt lat="44.38881888600288" lon="8.644886899000381"><ele>7.0</ele><time>2026-04-24T15:18:25Z</time></trkpt><trkpt lat="44.388788427618735" lon="8.644803541910088"><ele>6.833333333333334</ele><time>2026-04-24T15:18:26Z</time></trkpt><trkpt lat="44.38875285372932" lon="8.644724357857449"><ele>6.666666666666667</ele><time>2026-04-24T15:18:27Z</time></trkpt><trkpt lat="44.38869101991686" lon="8.644587579890361"><ele>6.5</ele><time>2026-04-24T15:18:29Z</time></trkpt><trkpt lat="44.388644492305865" lon="8.644484878548154"><ele>6.333333333333334</ele><time>2026-04-24T15:18:31Z</time></trkpt><trkpt lat="44.38859964540608" lon="8.644396223031517"><ele>6.166666666666667</ele><time>2026-04-24T15:18:33Z</time></trkpt><trkpt lat="44.38854549739809" lon="8.644300787626557"><ele>6.0</ele><time>2026-04-24T15:18:35Z</time></trkpt><trkpt lat="44.388467420621915" lon="8.64417313350342"><ele>6.0</ele><time>2026-04-24T15:18:37Z</time></trkpt><trkpt lat="44.388379821753084" lon="8.644044848223697"><ele>6.0</ele><time>2026-04-24T15:18:39Z</time></trkpt><trkpt lat="44.388326513747984" lon="8.64397291442358"><ele>6.0</ele><time>2026-04-24T15:18:40Z</time></trkpt><trkpt lat="44.38826870821784" lon="8.64389876336004"><ele>6.0</ele><time>2026-04-24T15:18:41Z</time></trkpt><trkpt lat="44.38821376250539" lon="8.643829658842504"><ele>6.0</ele><time>2026-04-24T15:18:42Z</time></trkpt><trkpt lat="44.38815366954633" lon="8.643752541263837"><ele>6.0</ele><time>2026-04-24T15:18:43Z</time></trkpt><trkpt lat="44.38809085837215" lon="8.643666008827141"><ele>6.166666666666667</ele><time>2026-04-24T15:18:44Z</time></trkpt><trkpt lat="44.388035759937225" lon="8.643579764655486"><ele>6.333333333333334</ele><time>2026-04-24T15:18:45Z</time></trkpt><trkpt lat="44.38799098397491" lon="8.64349202057745"><ele>6.5</ele><time>2026-04-24T15:18:46Z</time></trkpt><trkpt lat="44.38794405683739" lon="8.64339929979574"><ele>6.666666666666667</ele><time>2026-04-24T15:18:47Z</time></trkpt><trkpt lat="44.387900424567036" lon="8.6433089291707"><ele>6.833333333333334</ele><time>2026-04-24T15:18:48Z</time></trkpt><trkpt lat="44.387866309528604" lon="8.643224676657145"><ele>7.0</ele><time>2026-04-24T15:18:49Z</time></trkpt><trkpt lat="44.387809140567136" lon="8.64308769196076"><ele>6.666666666666667</ele><time>2026-04-24T15:18:51Z</time></trkpt><trkpt lat="44.387763918346955" lon="8.642976091152361"><ele>6.333333333333334</ele><time>2026-04-24T15:18:53Z</time></trkpt><trkpt lat="44.38772663861912" lon="8.642879953285497"><ele>6.0</ele><time>2026-04-24T15:18:55Z</time></trkpt><trkpt lat="44.38768296343301" lon="8.642754414311662"><ele>5.666666666666667</ele><time>2026-04-24T15:18:57Z</time></trkpt><trkpt lat="44.387648407222606" lon="8.64266749192556"><ele>5.333333333333334</ele><time>2026-04-24T15:19:00Z</time></trkpt><trkpt lat="44.3876093758457" lon="8.64258238291847"><ele>5.0</ele><time>2026-04-24T15:19:02Z</time></trkpt><trkpt lat="44.387561418563436" lon="8.642438891709107"><ele>5.0</ele><time>2026-04-24T15:19:04Z</time></trkpt><trkpt lat="44.38753410572772" lon="8.642350071665195"><ele>5.0</ele><time>2026-04-24T15:19:05Z</time></trkpt><trkpt lat="44.387502703844206" lon="8.642251307758794"><ele>5.0</ele><time>2026-04-24T15:19:06Z</time></trkpt><trkpt lat="44.387470657783496" lon="8.642140968434884"><ele>5.0</ele><time>2026-04-24T15:19:07Z</time></trkpt><trkpt lat="44.387436681821185" lon="8.642028043294701"><ele>5.0</ele><time>2026-04-24T15:19:08Z</time></trkpt><trkpt lat="44.38740287774887" lon="8.641914374642168"><ele>5.0</ele><time>2026-04-24T15:19:09Z</time></trkpt><trkpt lat="44.38736551210286" lon="8.641797659529768"><ele>5.8</ele><time>2026-04-24T15:19:10Z</time></trkpt><trkpt lat="44.38733369134451" lon="8.641682943153798"><ele>6.6</ele><time>2026-04-24T15:19:11Z</time></trkpt><trkpt lat="44.38729894690445" lon="8.641563615582617"><ele>7.4</ele><time>2026-04-24T15:19:12Z</time></trkpt><trkpt lat="44.38726518136369" lon="8.64144416161553"><ele>8.2</ele><time>2026-04-24T15:19:13Z</time></trkpt><trkpt lat="44.38722813094761" lon="8.641328462100686"><ele>9.0</ele><time>2026-04-24T15:19:14Z</time></trkpt><trkpt lat="44.387194462694275" lon="8.641205988963371"><ele>7.6000000000000005</ele><time>2026-04-24T15:19:15Z</time></trkpt><trkpt lat="44.38715819951305" lon="8.641077272311025"><ele>6.2</ele><time>2026-04-24T15:19:16Z</time></trkpt><trkpt lat="44.38712199035904" lon="8.640953014449611"><ele>4.800000000000001</ele><time>2026-04-24T15:19:17Z</time></trkpt><trkpt lat="44.38708260316197" lon="8.640828424544818"><ele>3.4000000000000004</ele><time>2026-04-24T15:19:18Z</time></trkpt><trkpt lat="44.387039801842384" lon="8.640703448656513"><ele>2.0</ele><time>2026-04-24T15:19:19Z</time></trkpt><trkpt lat="44.386996254924235" lon="8.640579592772799"><ele>2.0</ele><time>2026-04-24T15:19:20Z</time></trkpt><trkpt lat="44.38695487915389" lon="8.64046714094165"><ele>2.0</ele><time>2026-04-24T15:19:21Z</time></trkpt><trkpt lat="44.38690477579798" lon="8.640349543575093"><ele>2.0</ele><time>2026-04-24T15:19:22Z</time></trkpt><trkpt lat="44.38685511128649" lon="8.64022784409015"><ele>2.0</ele><time>2026-04-24T15:19:23Z</time></trkpt><trkpt lat="44.38680486809219" lon="8.64010322986261"><ele>2.0</ele><time>2026-04-24T15:19:24Z</time></trkpt><trkpt lat="44.3867563669139" lon="8.639984286241027"><ele>2.4000000000000004</ele><time>2026-04-24T15:19:25Z</time></trkpt><trkpt lat="44.3867046970025" lon="8.639862834594695"><ele>2.8000000000000003</ele><time>2026-04-24T15:19:26Z</time></trkpt><trkpt lat="44.38665174524946" lon="8.63973850358003"><ele>3.2</ele><time>2026-04-24T15:19:27Z</time></trkpt><trkpt lat="44.38660116222788" lon="8.639621759288014"><ele>3.6</ele><time>2026-04-24T15:19:28Z</time></trkpt><trkpt lat="44.38654606291359" lon="8.639505046338929"><ele>4.0</ele><time>2026-04-24T15:19:29Z</time></trkpt><trkpt lat="44.38648832612912" lon="8.639393395192563"><ele>4.0</ele><time>2026-04-24T15:19:30Z</time></trkpt><trkpt lat="44.386426702485736" lon="8.63928684653154"><ele>4.0</ele><time>2026-04-24T15:19:31Z</time></trkpt><trkpt lat="44.386357678472905" lon="8.639183258531574"><ele>4.0</ele><time>2026-04-24T15:19:32Z</time></trkpt><trkpt lat="44.38628260858864" lon="8.639077699201865"><ele>4.0</ele><time>2026-04-24T15:19:33Z</time></trkpt><trkpt lat="44.38620613703579" lon="8.638981390967711"><ele>4.0</ele><time>2026-04-24T15:19:34Z</time></trkpt><trkpt lat="44.386129369602216" lon="8.638884541797157"><ele>4.2</ele><time>2026-04-24T15:19:35Z</time></trkpt><trkpt lat="44.386047470117525" lon="8.638786800556707"><ele>4.4</ele><time>2026-04-24T15:19:36Z</time></trkpt><trkpt lat="44.38596273322973" lon="8.638692473031757"><ele>4.6</ele><time>2026-04-24T15:19:37Z</time></trkpt><trkpt lat="44.3858771059629" lon="8.638611668547135"><ele>4.8</ele><time>2026-04-24T15:19:38Z</time></trkpt><trkpt lat="44.385788510482165" lon="8.63853161642099"><ele>5.0</ele><time>2026-04-24T15:19:39Z</time></trkpt><trkpt lat="44.385699777135336" lon="8.638457205863727"><ele>5.0</ele><time>2026-04-24T15:19:40Z</time></trkpt><trkpt lat="44.38561073917564" lon="8.638384673878999"><ele>5.0</ele><time>2026-04-24T15:19:41Z</time></trkpt><trkpt lat="44.385515588773046" lon="8.638313737875333"><ele>5.0</ele><time>2026-04-24T15:19:42Z</time></trkpt><trkpt lat="44.38542432286981" lon="8.638249952976658"><ele>5.0</ele><time>2026-04-24T15:19:43Z</time></trkpt><trkpt lat="44.385333536882406" lon="8.638181016581473"><ele>5.0</ele><time>2026-04-24T15:19:44Z</time></trkpt><trkpt lat="44.38524177836474" lon="8.638113969406275"><ele>4.8</ele><time>2026-04-24T15:19:45Z</time></trkpt><trkpt lat="44.38515089358589" lon="8.63805179714108"><ele>4.6</ele><time>2026-04-24T15:19:46Z</time></trkpt><trkpt lat="44.385061098064014" lon="8.63798962324067"><ele>4.4</ele><time>2026-04-24T15:19:47Z</time></trkpt><trkpt lat="44.38497505421378" lon="8.637932551951849"><ele>4.2</ele><time>2026-04-24T15:19:48Z</time></trkpt><trkpt lat="44.38488579762897" lon="8.637873750914402"><ele>4.0</ele><time>2026-04-24T15:19:49Z</time></trkpt><trkpt lat="44.38480478645565" lon="8.637823708231677"><ele>4.5</ele><time>2026-04-24T15:19:50Z</time></trkpt><trkpt lat="44.38472696976179" lon="8.637769413873551"><ele>5.0</ele><time>2026-04-24T15:19:51Z</time></trkpt><trkpt lat="44.384653316896056" lon="8.637718336865332"><ele>5.5</ele><time>2026-04-24T15:19:52Z</time></trkpt><trkpt lat="44.384574508178815" lon="8.637665435714915"><ele>6.0</ele><time>2026-04-24T15:19:53Z</time></trkpt><trkpt lat="44.384493503301954" lon="8.6376136542165"><ele>6.500000000000001</ele><time>2026-04-24T15:19:54Z</time></trkpt><trkpt lat="44.38441031981503" lon="8.637566662585755"><ele>7.0</ele><time>2026-04-24T15:19:55Z</time></trkpt><trkpt lat="44.384333931991435" lon="8.637521829628517"><ele>7.166666666666667</ele><time>2026-04-24T15:19:56Z</time></trkpt><trkpt lat="44.38425740009018" lon="8.637478147961943"><ele>7.333333333333334</ele><time>2026-04-24T15:19:57Z</time></trkpt><trkpt lat="44.38417797736782" lon="8.637431620356327"><ele>7.5</ele><time>2026-04-24T15:19:58Z</time></trkpt><trkpt lat="44.38410272339183" lon="8.63739164050903"><ele>7.666666666666666</ele><time>2026-04-24T15:19:59Z</time></trkpt><trkpt lat="44.384021970532395" lon="8.637349751272005"><ele>7.833333333333333</ele><time>2026-04-24T15:20:00Z</time></trkpt><trkpt lat="44.38393385896282" lon="8.637301196219605"><ele>8.0</ele><time>2026-04-24T15:20:01Z</time></trkpt><trkpt lat="44.38384087079129" lon="8.637251134740891"><ele>6.6000000000000005</ele><time>2026-04-24T15:20:02Z</time></trkpt><trkpt lat="44.38375370098805" lon="8.63720833518094"><ele>5.200000000000001</ele><time>2026-04-24T15:20:03Z</time></trkpt><trkpt lat="44.38366782679309" lon="8.637163302375539"><ele>3.8000000000000003</ele><time>2026-04-24T15:20:04Z</time></trkpt><trkpt lat="44.38357969951885" lon="8.637123163739236"><ele>2.4000000000000004</ele><time>2026-04-24T15:20:05Z</time></trkpt><trkpt lat="44.3834920978829" lon="8.637077416293542"><ele>1.0</ele><time>2026-04-24T15:20:06Z</time></trkpt><trkpt lat="44.38339797637861" lon="8.63702613024833"><ele>1.0</ele><time>2026-04-24T15:20:07Z</time></trkpt><trkpt lat="44.38330014576135" lon="8.636973808009321"><ele>1.0</ele><time>2026-04-24T15:20:08Z</time></trkpt><trkpt lat="44.383207796779665" lon="8.636924704573335"><ele>1.0</ele><time>2026-04-24T15:20:09Z</time></trkpt><trkpt lat="44.38311660033447" lon="8.636877067953362"><ele>1.0</ele><time>2026-04-24T15:20:10Z</time></trkpt><trkpt lat="44.3830205030886" lon="8.636826777662636"><ele>1.0</ele><time>2026-04-24T15:20:11Z</time></trkpt><trkpt lat="44.38292783354812" lon="8.63677692036597"><ele>1.6</ele><time>2026-04-24T15:20:12Z</time></trkpt><trkpt lat="44.38283037054997" lon="8.636723672052764"><ele>2.2</ele><time>2026-04-24T15:20:13Z</time></trkpt><trkpt lat="44.3827300380065" lon="8.636668608443719"><ele>2.8000000000000003</ele><time>2026-04-24T15:20:14Z</time></trkpt><trkpt lat="44.38262556697375" lon="8.636610766604903"><ele>3.4000000000000004</ele><time>2026-04-24T15:20:15Z</time></trkpt><trkpt lat="44.382526424573044" lon="8.636554784696695"><ele>4.0</ele><time>2026-04-24T15:20:16Z</time></trkpt><trkpt lat="44.38242521153952" lon="8.636494894776515"><ele>3.9999999999999996</ele><time>2026-04-24T15:20:17Z</time></trkpt><trkpt lat="44.38234139403099" lon="8.636448592006039"><ele>4.0</ele><time>2026-04-24T15:20:18Z</time></trkpt><trkpt lat="44.382278672249875" lon="8.636409196914343"><ele>4.0</ele><time>2026-04-24T15:20:19Z</time></trkpt><trkpt lat="44.38219537587076" lon="8.63635863120412"><ele>4.0</ele><time>2026-04-24T15:20:21Z</time></trkpt><trkpt lat="44.38212559940713" lon="8.636315253374123"><ele>3.9999999999999996</ele><time>2026-04-24T15:20:23Z</time></trkpt><trkpt lat="44.38202232184179" lon="8.636256937966525"><ele>4.0</ele><time>2026-04-24T15:20:25Z</time></trkpt><trkpt lat="44.381913466168484" lon="8.636194051457586"><ele>3.9999999999999996</ele><time>2026-04-24T15:20:27Z</time></trkpt><trkpt lat="44.38185471951991" lon="8.636153197308388"><ele>4.0</ele><time>2026-04-24T15:20:28Z</time></trkpt><trkpt lat="44.3817877086862" lon="8.63611283678339"><ele>4.0</ele><time>2026-04-24T15:20:29Z</time></trkpt><trkpt lat="44.381713855894105" lon="8.636070304076288"><ele>4.0</ele><time>2026-04-24T15:20:30Z</time></trkpt><trkpt lat="44.38163697105512" lon="8.636022994444454"><ele>3.9999999999999996</ele><time>2026-04-24T15:20:31Z</time></trkpt><trkpt lat="44.38155412913432" lon="8.635971447803747"><ele>4.0</ele><time>2026-04-24T15:20:32Z</time></trkpt><trkpt lat="44.38147324727772" lon="8.635905840096935"><ele>4.0</ele><time>2026-04-24T15:20:33Z</time></trkpt><trkpt lat="44.38139220774989" lon="8.635831807415284"><ele>4.0</ele><time>2026-04-24T15:20:34Z</time></trkpt><trkpt lat="44.38132476685346" lon="8.63574435501643"><ele>4.0</ele><time>2026-04-24T15:20:35Z</time></trkpt><trkpt lat="44.381260640933384" lon="8.635646976905571"><ele>4.0</ele><time>2026-04-24T15:20:36Z</time></trkpt><trkpt lat="44.38120864752481" lon="8.635537212539012"><ele>4.0</ele><time>2026-04-24T15:20:37Z</time></trkpt><trkpt lat="44.381167090272" lon="8.635415448946032"><ele>4.2</ele><time>2026-04-24T15:20:38Z</time></trkpt><trkpt lat="44.38113848182167" lon="8.635281548197854"><ele>4.4</ele><time>2026-04-24T15:20:39Z</time></trkpt><trkpt lat="44.38112487629836" lon="8.635148980150449"><ele>4.6</ele><time>2026-04-24T15:20:40Z</time></trkpt><trkpt lat="44.38112527277328" lon="8.635008953009603"><ele>4.8</ele><time>2026-04-24T15:20:41Z</time></trkpt><trkpt lat="44.38113144943681" lon="8.63486218831704"><ele>5.0</ele><time>2026-04-24T15:20:42Z</time></trkpt><trkpt lat="44.3811443381594" lon="8.634708493870402"><ele>5.0</ele><time>2026-04-24T15:20:43Z</time></trkpt><trkpt lat="44.38115996473061" lon="8.634554334732854"><ele>5.0</ele><time>2026-04-24T15:20:44Z</time></trkpt><trkpt lat="44.38116987433046" lon="8.634421747296825"><ele>5.0</ele><time>2026-04-24T15:20:45Z</time></trkpt><trkpt lat="44.381176418801" lon="8.634282896907711"><ele>5.0</ele><time>2026-04-24T15:20:46Z</time></trkpt><trkpt lat="44.38118410751668" lon="8.634141496045526"><ele>5.0</ele><time>2026-04-24T15:20:47Z</time></trkpt><trkpt lat="44.38119426619203" lon="8.633994303719025"><ele>4.8</ele><time>2026-04-24T15:20:48Z</time></trkpt><trkpt lat="44.38119792035855" lon="8.633842181454735"><ele>4.6</ele><time>2026-04-24T15:20:49Z</time></trkpt><trkpt lat="44.381210290181066" lon="8.633688782503466"><ele>4.4</ele><time>2026-04-24T15:20:50Z</time></trkpt><trkpt lat="44.381220147522164" lon="8.633529791236944"><ele>4.2</ele><time>2026-04-24T15:20:51Z</time></trkpt><trkpt lat="44.38122703789123" lon="8.633379548209945"><ele>4.0</ele><time>2026-04-24T15:20:52Z</time></trkpt><trkpt lat="44.38123990220691" lon="8.633231304976748"><ele>4.4</ele><time>2026-04-24T15:20:53Z</time></trkpt><trkpt lat="44.381248867509754" lon="8.633087518508573"><ele>4.800000000000001</ele><time>2026-04-24T15:20:54Z</time></trkpt><trkpt lat="44.38126146467047" lon="8.632954967416204"><ele>5.199999999999999</ele><time>2026-04-24T15:20:55Z</time></trkpt><trkpt lat="44.381278848689064" lon="8.63283231522599"><ele>5.6</ele><time>2026-04-24T15:20:56Z</time></trkpt><trkpt lat="44.38127884868878" lon="8.632712646743927"><ele>6.0</ele><time>2026-04-24T15:20:57Z</time></trkpt><trkpt lat="44.38126720855097" lon="8.632592817290249"><ele>6.0</ele><time>2026-04-24T15:20:58Z</time></trkpt><trkpt lat="44.38122940287631" lon="8.63247592427166"><ele>6.0</ele><time>2026-04-24T15:20:59Z</time></trkpt><trkpt lat="44.381174276903955" lon="8.632384409747536"><ele>6.0</ele><time>2026-04-24T15:21:00Z</time></trkpt><trkpt lat="44.381116758568545" lon="8.632288705265454"><ele>6.0</ele><time>2026-04-24T15:21:01Z</time></trkpt><trkpt lat="44.3810517649657" lon="8.632198259805008"><ele>6.0</ele><time>2026-04-24T15:21:02Z</time></trkpt><trkpt lat="44.380975466319676" lon="8.63211113612255"><ele>6.0</ele><time>2026-04-24T15:21:03Z</time></trkpt><trkpt lat="44.38090188805525" lon="8.632025514039487"><ele>6.0</ele><time>2026-04-24T15:21:04Z</time></trkpt><trkpt lat="44.38082530800981" lon="8.631939872450289"><ele>6.0</ele><time>2026-04-24T15:21:05Z</time></trkpt><trkpt lat="44.3807550446543" lon="8.631843557000927"><ele>6.0</ele><time>2026-04-24T15:21:06Z</time></trkpt><trkpt lat="44.380692045227256" lon="8.631747242076646"><ele>6.0</ele><time>2026-04-24T15:21:07Z</time></trkpt><trkpt lat="44.380633619524204" lon="8.63163548117617"><ele>6.0</ele><time>2026-04-24T15:21:08Z</time></trkpt><trkpt lat="44.380583016072826" lon="8.631516423859152"><ele>6.0</ele><time>2026-04-24T15:21:09Z</time></trkpt><trkpt lat="44.380543979221905" lon="8.631391642381448"><ele>6.0</ele><time>2026-04-24T15:21:10Z</time></trkpt><trkpt lat="44.380492132592956" lon="8.631262151775754"><ele>6.0</ele><time>2026-04-24T15:21:11Z</time></trkpt><trkpt lat="44.380435237697704" lon="8.63113482052641"><ele>6.0</ele><time>2026-04-24T15:21:12Z</time></trkpt><trkpt lat="44.38037078826417" lon="8.63100647578188"><ele>7.5</ele><time>2026-04-24T15:21:13Z</time></trkpt><trkpt lat="44.38030302620737" lon="8.630872651561845"><ele>9.0</ele><time>2026-04-24T15:21:14Z</time></trkpt><trkpt lat="44.38022953192634" lon="8.63073540813692"><ele>10.5</ele><time>2026-04-24T15:21:15Z</time></trkpt><trkpt lat="44.380163188454766" lon="8.630607271408811"><ele>12.0</ele><time>2026-04-24T15:21:16Z</time></trkpt><trkpt lat="44.38009254406362" lon="8.63048066441424"><ele>12.0</ele><time>2026-04-24T15:21:17Z</time></trkpt><trkpt lat="44.380030283136946" lon="8.630367497546453"><ele>12.0</ele><time>2026-04-24T15:21:18Z</time></trkpt><trkpt lat="44.379966110290205" lon="8.63025856288185"><ele>12.0</ele><time>2026-04-24T15:21:19Z</time></trkpt><trkpt lat="44.37990294899582" lon="8.630163804768845"><ele>12.0</ele><time>2026-04-24T15:21:20Z</time></trkpt><trkpt lat="44.37983507527054" lon="8.630079435899214"><ele>12.0</ele><time>2026-04-24T15:21:21Z</time></trkpt><trkpt lat="44.37975570984312" lon="8.630007488272213"><ele>11.8</ele><time>2026-04-24T15:21:22Z</time></trkpt><trkpt lat="44.37966791183341" lon="8.629934893254687"><ele>11.6</ele><time>2026-04-24T15:21:23Z</time></trkpt><trkpt lat="44.37957480696797" lon="8.629861982369878"><ele>11.4</ele><time>2026-04-24T15:21:24Z</time></trkpt><trkpt lat="44.37947678526136" lon="8.629789328177255"><ele>11.200000000000001</ele><time>2026-04-24T15:21:25Z</time></trkpt><trkpt lat="44.37937402619787" lon="8.629717353929614"><ele>11.0</ele><time>2026-04-24T15:21:26Z</time></trkpt><trkpt lat="44.37926681296805" lon="8.62964270323095"><ele>11.0</ele><time>2026-04-24T15:21:27Z</time></trkpt><trkpt lat="44.37916150657622" lon="8.629566230996844"><ele>11.0</ele><time>2026-04-24T15:21:28Z</time></trkpt><trkpt lat="44.37906314960205" lon="8.629491069210554"><ele>11.0</ele><time>2026-04-24T15:21:29Z</time></trkpt><trkpt lat="44.37895840563203" lon="8.629412492211705"><ele>11.0</ele><time>2026-04-24T15:21:30Z</time></trkpt><trkpt lat="44.378856242143" lon="8.62932917517478"><ele>12.75</ele><time>2026-04-24T15:21:31Z</time></trkpt><trkpt lat="44.37875516644407" lon="8.62923986241464"><ele>14.5</ele><time>2026-04-24T15:21:32Z</time></trkpt><trkpt lat="44.37865906675853" lon="8.629157361844603"><ele>16.25</ele><time>2026-04-24T15:21:33Z</time></trkpt><trkpt lat="44.37856129759547" lon="8.629072306554137"><ele>18.0</ele><time>2026-04-24T15:21:34Z</time></trkpt><trkpt lat="44.378462371544394" lon="8.628987573495762"><ele>18.0</ele><time>2026-04-24T15:21:35Z</time></trkpt><trkpt lat="44.37836458537191" lon="8.628908107842916"><ele>18.0</ele><time>2026-04-24T15:21:36Z</time></trkpt><trkpt lat="44.3782685863947" lon="8.628837240332162"><ele>18.0</ele><time>2026-04-24T15:21:37Z</time></trkpt><trkpt lat="44.37817037321051" lon="8.628772571453032"><ele>18.0</ele><time>2026-04-24T15:21:38Z</time></trkpt><trkpt lat="44.37806964416446" lon="8.628723123205718"><ele>18.0</ele><time>2026-04-24T15:21:39Z</time></trkpt><trkpt lat="44.37796434494316" lon="8.628687980910987"><ele>16.2</ele><time>2026-04-24T15:21:40Z</time></trkpt><trkpt lat="44.3778544286932" lon="8.628662261698674"><ele>14.4</ele><time>2026-04-24T15:21:41Z</time></trkpt><trkpt lat="44.37774438914299" lon="8.628643093624103"><ele>12.600000000000001</ele><time>2026-04-24T15:21:42Z</time></trkpt><trkpt lat="44.37763383632871" lon="8.62862454419315"><ele>10.8</ele><time>2026-04-24T15:21:43Z</time></trkpt><trkpt lat="44.37753464969139" lon="8.62861220094567"><ele>9.0</ele><time>2026-04-24T15:21:44Z</time></trkpt><trkpt lat="44.37744726760366" lon="8.628590796546552"><ele>11.666666666666668</ele><time>2026-04-24T15:21:45Z</time></trkpt><trkpt lat="44.37735741459425" lon="8.628558750691331"><ele>14.333333333333334</ele><time>2026-04-24T15:21:46Z</time></trkpt><trkpt lat="44.37727988599095" lon="8.628514901549261"><ele>17.0</ele><time>2026-04-24T15:21:47Z</time></trkpt><trkpt lat="44.3772089828753" lon="8.628455338340704"><ele>19.666666666666668</ele><time>2026-04-24T15:21:48Z</time></trkpt><trkpt lat="44.37714681689338" lon="8.628384002736107"><ele>22.333333333333336</ele><time>2026-04-24T15:21:49Z</time></trkpt><trkpt lat="44.37710073520666" lon="8.628300305822169"><ele>25.0</ele><time>2026-04-24T15:21:50Z</time></trkpt><trkpt lat="44.377072925730936" lon="8.628192955155328"><ele>25.0</ele><time>2026-04-24T15:21:51Z</time></trkpt><trkpt lat="44.37705524416516" lon="8.628072874500056"><ele>25.0</ele><time>2026-04-24T15:21:52Z</time></trkpt><trkpt lat="44.37704354377137" lon="8.627944212147776"><ele>25.0</ele><time>2026-04-24T15:21:53Z</time></trkpt><trkpt lat="44.377030257538344" lon="8.627809787875165"><ele>25.0</ele><time>2026-04-24T15:21:54Z</time></trkpt><trkpt lat="44.377015282508" lon="8.627676193181832"><ele>25.0</ele><time>2026-04-24T15:21:55Z</time></trkpt><trkpt lat="44.37699031669265" lon="8.627559058295851"><ele>27.333333333333336</ele><time>2026-04-24T15:21:56Z</time></trkpt><trkpt lat="44.376962963500034" lon="8.627459892204758"><ele>29.666666666666668</ele><time>2026-04-24T15:21:57Z</time></trkpt><trkpt lat="44.3769227601533" lon="8.62737426964642"><ele>32.0</ele><time>2026-04-24T15:21:58Z</time></trkpt><trkpt lat="44.3768685974695" lon="8.627317019493198"><ele>34.333333333333336</ele><time>2026-04-24T15:21:59Z</time></trkpt><trkpt lat="44.37679431660964" lon="8.627278476911174"><ele>36.666666666666664</ele><time>2026-04-24T15:22:00Z</time></trkpt><trkpt lat="44.37671216414599" lon="8.62726174296705"><ele>39.0</ele><time>2026-04-24T15:22:01Z</time></trkpt><trkpt lat="44.37662188599717" lon="8.627262045666802"><ele>39.0</ele><time>2026-04-24T15:22:02Z</time></trkpt><trkpt lat="44.37652611098057" lon="8.627269206895136"><ele>39.0</ele><time>2026-04-24T15:22:03Z</time></trkpt><trkpt lat="44.37642773699329" lon="8.627277340727199"><ele>39.0</ele><time>2026-04-24T15:22:04Z</time></trkpt><trkpt lat="44.37632145228476" lon="8.627296104740022"><ele>39.0</ele><time>2026-04-24T15:22:05Z</time></trkpt><trkpt lat="44.37621806452522" lon="8.627325553436714"><ele>39.0</ele><time>2026-04-24T15:22:06Z</time></trkpt><trkpt lat="44.37610914841806" lon="8.627357753671253"><ele>38.0</ele><time>2026-04-24T15:22:07Z</time></trkpt><trkpt lat="44.3760072309954" lon="8.627380784517257"><ele>37.0</ele><time>2026-04-24T15:22:08Z</time></trkpt><trkpt lat="44.37591042240194" lon="8.627391594698322"><ele>36.0</ele><time>2026-04-24T15:22:09Z</time></trkpt><trkpt lat="44.37581353203709" lon="8.62738816720887"><ele>35.0</ele><time>2026-04-24T15:22:10Z</time></trkpt><trkpt lat="44.37571710910119" lon="8.627365922158598"><ele>34.0</ele><time>2026-04-24T15:22:11Z</time></trkpt><trkpt lat="44.37562175960626" lon="8.627327275365106"><ele>34.0</ele><time>2026-04-24T15:22:12Z</time></trkpt><trkpt lat="44.37552539202877" lon="8.627277866508498"><ele>34.0</ele><time>2026-04-24T15:22:13Z</time></trkpt><trkpt lat="44.375433222813236" lon="8.62722645656935"><ele>34.0</ele><time>2026-04-24T15:22:14Z</time></trkpt><trkpt lat="44.37534583829703" lon="8.6271821786957"><ele>34.0</ele><time>2026-04-24T15:22:15Z</time></trkpt><trkpt lat="44.375253583577056" lon="8.627147366826607"><ele>34.0</ele><time>2026-04-24T15:22:16Z</time></trkpt><trkpt lat="44.375163599842345" lon="8.627116484563393"><ele>33.333333333333336</ele><time>2026-04-24T15:22:17Z</time></trkpt><trkpt lat="44.37507975409625" lon="8.627084562605623"><ele>32.66666666666667</ele><time>2026-04-24T15:22:18Z</time></trkpt><trkpt lat="44.37500254517579" lon="8.62704233983159"><ele>32.0</ele><time>2026-04-24T15:22:19Z</time></trkpt><trkpt lat="44.37493942019507" lon="8.626988564709908"><ele>31.333333333333336</ele><time>2026-04-24T15:22:20Z</time></trkpt><trkpt lat="44.37488683049344" lon="8.626909633627601"><ele>30.666666666666668</ele><time>2026-04-24T15:22:21Z</time></trkpt><trkpt lat="44.37485110165086" lon="8.626815099326041"><ele>30.0</ele><time>2026-04-24T15:22:22Z</time></trkpt><trkpt lat="44.37481688803321" lon="8.62670588244662"><ele>30.0</ele><time>2026-04-24T15:22:23Z</time></trkpt><trkpt lat="44.374800248890566" lon="8.626608972432223"><ele>30.0</ele><time>2026-04-24T15:22:24Z</time></trkpt><trkpt lat="44.37480230675911" lon="8.626520501904626"><ele>30.0</ele><time>2026-04-24T15:22:25Z</time></trkpt><trkpt lat="44.37487473360443" lon="8.62636863213749"><ele>30.0</ele><time>2026-04-24T15:22:27Z</time></trkpt><trkpt lat="44.37494380503758" lon="8.62630006642576"><ele>30.0</ele><time>2026-04-24T15:22:28Z</time></trkpt><trkpt lat="44.37503188369784" lon="8.626250128288694"><ele>30.0</ele><time>2026-04-24T15:22:29Z</time></trkpt><trkpt lat="44.37510274481881" lon="8.626174134905664"><ele>28.4</ele><time>2026-04-24T15:22:30Z</time></trkpt><trkpt lat="44.37517248770074" lon="8.626085712309406"><ele>26.8</ele><time>2026-04-24T15:22:31Z</time></trkpt><trkpt lat="44.3752219548038" lon="8.62595760936527"><ele>25.200000000000003</ele><time>2026-04-24T15:22:32Z</time></trkpt><trkpt lat="44.37528747921006" lon="8.625853379553316"><ele>23.6</ele><time>2026-04-24T15:22:33Z</time></trkpt><trkpt lat="44.37535361671229" lon="8.625757734309198"><ele>22.0</ele><time>2026-04-24T15:22:34Z</time></trkpt><trkpt lat="44.37542583190674" lon="8.62567187405775"><ele>22.0</ele><time>2026-04-24T15:22:35Z</time></trkpt><trkpt lat="44.37550381108096" lon="8.625611844915465"><ele>22.0</ele><time>2026-04-24T15:22:36Z</time></trkpt><trkpt lat="44.3755652256904" lon="8.625517594706531"><ele>22.0</ele><time>2026-04-24T15:22:37Z</time></trkpt><trkpt lat="44.37561573820892" lon="8.625400538344122"><ele>22.0</ele><time>2026-04-24T15:22:38Z</time></trkpt><trkpt lat="44.37564857534728" lon="8.6252786330216"><ele>22.0</ele><time>2026-04-24T15:22:39Z</time></trkpt><trkpt lat="44.37569378690912" lon="8.625169349845086"><ele>24.6</ele><time>2026-04-24T15:22:40Z</time></trkpt><trkpt lat="44.375747332106386" lon="8.625074950590566"><ele>27.200000000000003</ele><time>2026-04-24T15:22:41Z</time></trkpt><trkpt lat="44.37578281868348" lon="8.624954477030744"><ele>29.8</ele><time>2026-04-24T15:22:42Z</time></trkpt><trkpt lat="44.37580369647477" lon="8.62482740481662"><ele>32.4</ele><time>2026-04-24T15:22:43Z</time></trkpt><trkpt lat="44.37581685277709" lon="8.624692676616787"><ele>35.0</ele><time>2026-04-24T15:22:44Z</time></trkpt><trkpt lat="44.37582635236801" lon="8.624558714165692"><ele>35.5</ele><time>2026-04-24T15:22:45Z</time></trkpt><trkpt lat="44.375833769124384" lon="8.624435243597539"><ele>36.0</ele><time>2026-04-24T15:22:46Z</time></trkpt><trkpt lat="44.37583946269864" lon="8.62430986481764"><ele>36.5</ele><time>2026-04-24T15:22:47Z</time></trkpt><trkpt lat="44.37584442293331" lon="8.624189959488865"><ele>37.0</ele><time>2026-04-24T15:22:48Z</time></trkpt><trkpt lat="44.37584221374007" lon="8.624067876381552"><ele>37.5</ele><time>2026-04-24T15:22:49Z</time></trkpt><trkpt lat="44.37582627527134" lon="8.623956315546568"><ele>38.0</ele><time>2026-04-24T15:22:50Z</time></trkpt><trkpt lat="44.37578851446352" lon="8.623849389124803"><ele>38.0</ele><time>2026-04-24T15:22:51Z</time></trkpt><trkpt lat="44.375735708585" lon="8.623764143973967"><ele>38.0</ele><time>2026-04-24T15:22:52Z</time></trkpt><trkpt lat="44.375659678522496" lon="8.623725241995311"><ele>38.0</ele><time>2026-04-24T15:22:53Z</time></trkpt><trkpt lat="44.37558393527112" lon="8.623683880765197"><ele>38.0</ele><time>2026-04-24T15:22:54Z</time></trkpt><trkpt lat="44.37550749956743" lon="8.623668351426911"><ele>38.0</ele><time>2026-04-24T15:22:55Z</time></trkpt><trkpt lat="44.37543064749932" lon="8.62367797648132"><ele>38.0</ele><time>2026-04-24T15:22:56Z</time></trkpt><trkpt lat="44.37535098012512" lon="8.623708687384351"><ele>38.5</ele><time>2026-04-24T15:22:57Z</time></trkpt><trkpt lat="44.375275375664756" lon="8.623760415105659"><ele>39.0</ele><time>2026-04-24T15:22:58Z</time></trkpt><trkpt lat="44.37520621914538" lon="8.623823590221827"><ele>39.5</ele><time>2026-04-24T15:22:59Z</time></trkpt><trkpt lat="44.375143980805504" lon="8.623899441830519"><ele>40.0</ele><time>2026-04-24T15:23:00Z</time></trkpt><trkpt lat="44.37509601158202" lon="8.623977600100279"><ele>40.5</ele><time>2026-04-24T15:23:01Z</time></trkpt><trkpt lat="44.37505723324911" lon="8.624069860683955"><ele>41.0</ele><time>2026-04-24T15:23:02Z</time></trkpt><trkpt lat="44.375030253251765" lon="8.624176313435582"><ele>41.0</ele><time>2026-04-24T15:23:03Z</time></trkpt><trkpt lat="44.37500449380463" lon="8.624287426397645"><ele>41.0</ele><time>2026-04-24T15:23:04Z</time></trkpt><trkpt lat="44.374981773759814" lon="8.624402756249061"><ele>41.0</ele><time>2026-04-24T15:23:05Z</time></trkpt><trkpt lat="44.37494941915693" lon="8.624507462135753"><ele>41.0</ele><time>2026-04-24T15:23:06Z</time></trkpt><trkpt lat="44.374909606027614" lon="8.62459535647422"><ele>41.0</ele><time>2026-04-24T15:23:07Z</time></trkpt><trkpt lat="44.37485660618947" lon="8.624672820016865"><ele>41.0</ele><time>2026-04-24T15:23:08Z</time></trkpt><trkpt lat="44.374789655367366" lon="8.62473321460816"><ele>40.33333333333333</ele><time>2026-04-24T15:23:09Z</time></trkpt><trkpt lat="44.37471636588455" lon="8.624783166313323"><ele>39.666666666666664</ele><time>2026-04-24T15:23:10Z</time></trkpt><trkpt lat="44.37463638724406" lon="8.624824258435856"><ele>39.0</ele><time>2026-04-24T15:23:11Z</time></trkpt><trkpt lat="44.37455444986912" lon="8.624853178320217"><ele>38.333333333333336</ele><time>2026-04-24T15:23:12Z</time></trkpt><trkpt lat="44.37447001840991" lon="8.624863572293785"><ele>37.66666666666667</ele><time>2026-04-24T15:23:13Z</time></trkpt><trkpt lat="44.37437381413345" lon="8.624869557597973"><ele>37.0</ele><time>2026-04-24T15:23:14Z</time></trkpt><trkpt lat="44.374275909406975" lon="8.624867152100498"><ele>37.0</ele><time>2026-04-24T15:23:15Z</time></trkpt><trkpt lat="44.37417378174088" lon="8.624863313020995"><ele>37.0</ele><time>2026-04-24T15:23:16Z</time></trkpt><trkpt lat="44.37406655698555" lon="8.62486367736828"><ele>37.0</ele><time>2026-04-24T15:23:17Z</time></trkpt><trkpt lat="44.37396012412149" lon="8.624854407375823"><ele>37.0</ele><time>2026-04-24T15:23:18Z</time></trkpt><trkpt lat="44.373853422149516" lon="8.624855824943522"><ele>37.0</ele><time>2026-04-24T15:23:19Z</time></trkpt><trkpt lat="44.373743091628064" lon="8.624855150132689"><ele>35.66666666666667</ele><time>2026-04-24T15:23:20Z</time></trkpt><trkpt lat="44.37364296638935" lon="8.62485105313975"><ele>34.333333333333336</ele><time>2026-04-24T15:23:21Z</time></trkpt><trkpt lat="44.37355651538284" lon="8.624838838011874"><ele>33.0</ele><time>2026-04-24T15:23:22Z</time></trkpt><trkpt lat="44.373470935573096" lon="8.624811971541778"><ele>31.666666666666664</ele><time>2026-04-24T15:23:23Z</time></trkpt><trkpt lat="44.37339397866537" lon="8.624769253537352"><ele>30.333333333333332</ele><time>2026-04-24T15:23:24Z</time></trkpt><trkpt lat="44.373321522660156" lon="8.624714416731182"><ele>29.0</ele><time>2026-04-24T15:23:25Z</time></trkpt><trkpt lat="44.373258274186675" lon="8.624644189456347"><ele>28.999999999999996</ele><time>2026-04-24T15:23:26Z</time></trkpt><trkpt lat="44.37320524071034" lon="8.624565506233669"><ele>29.0</ele><time>2026-04-24T15:23:27Z</time></trkpt><trkpt lat="44.37315590928883" lon="8.62446955657899"><ele>29.0</ele><time>2026-04-24T15:23:28Z</time></trkpt><trkpt lat="44.37309320119412" lon="8.624369804847074"><ele>29.0</ele><time>2026-04-24T15:23:29Z</time></trkpt><trkpt lat="44.373028840990386" lon="8.624265762291234"><ele>28.999999999999996</ele><time>2026-04-24T15:23:30Z</time></trkpt><trkpt lat="44.37296794714411" lon="8.624167260943409"><ele>29.0</ele><time>2026-04-24T15:23:31Z</time></trkpt><trkpt lat="44.372908207104764" lon="8.62407180498497"><ele>29.999999999999996</ele><time>2026-04-24T15:23:32Z</time></trkpt><trkpt lat="44.372848434129324" lon="8.62398649995913"><ele>31.0</ele><time>2026-04-24T15:23:33Z</time></trkpt><trkpt lat="44.372786535181866" lon="8.623910418160515"><ele>32.0</ele><time>2026-04-24T15:23:34Z</time></trkpt><trkpt lat="44.37272541673231" lon="8.623862379119004"><ele>33.0</ele><time>2026-04-24T15:23:35Z</time></trkpt><trkpt lat="44.37265412753865" lon="8.623831853903123"><ele>34.0</ele><time>2026-04-24T15:23:36Z</time></trkpt><trkpt lat="44.372566852980576" lon="8.62381082229796"><ele>35.0</ele><time>2026-04-24T15:23:37Z</time></trkpt><trkpt lat="44.37248346058143" lon="8.623802857017727"><ele>35.0</ele><time>2026-04-24T15:23:38Z</time></trkpt><trkpt lat="44.37240630030174" lon="8.623794340891866"><ele>35.0</ele><time>2026-04-24T15:23:39Z</time></trkpt><trkpt lat="44.37234192679584" lon="8.623768846301063"><ele>35.0</ele><time>2026-04-24T15:23:40Z</time></trkpt><trkpt lat="44.37228741126446" lon="8.62371471194946"><ele>35.0</ele><time>2026-04-24T15:23:41Z</time></trkpt><trkpt lat="44.372246648906824" lon="8.623616012392231"><ele>35.0</ele><time>2026-04-24T15:23:42Z</time></trkpt><trkpt lat="44.37225452887982" lon="8.623432027050209"><ele>35.0</ele><time>2026-04-24T15:23:44Z</time></trkpt><trkpt lat="44.37227180612264" lon="8.623317631367101"><ele>37.2</ele><time>2026-04-24T15:23:45Z</time></trkpt><trkpt lat="44.37229571816938" lon="8.623200269880362"><ele>39.4</ele><time>2026-04-24T15:23:46Z</time></trkpt><trkpt lat="44.37232785119499" lon="8.62307402637654"><ele>41.599999999999994</ele><time>2026-04-24T15:23:47Z</time></trkpt><trkpt lat="44.37236959988734" lon="8.622946423536344"><ele>43.8</ele><time>2026-04-24T15:23:48Z</time></trkpt><trkpt lat="44.37242103242305" lon="8.622818752453693"><ele>46.0</ele><time>2026-04-24T15:23:49Z</time></trkpt><trkpt lat="44.37245842972572" lon="8.622687437355266"><ele>46.0</ele><time>2026-04-24T15:23:50Z</time></trkpt><trkpt lat="44.372523142112094" lon="8.622558980958937"><ele>46.0</ele><time>2026-04-24T15:23:51Z</time></trkpt><trkpt lat="44.372576264541806" lon="8.62242245377861"><ele>46.0</ele><time>2026-04-24T15:23:52Z</time></trkpt><trkpt lat="44.37262745772803" lon="8.622295648452699"><ele>46.0</ele><time>2026-04-24T15:23:53Z</time></trkpt><trkpt lat="44.37269042877907" lon="8.622173246869725"><ele>46.0</ele><time>2026-04-24T15:23:54Z</time></trkpt><trkpt lat="44.372739755090635" lon="8.622045965933104"><ele>45.66666666666667</ele><time>2026-04-24T15:23:55Z</time></trkpt><trkpt lat="44.37278151633961" lon="8.621953321860827"><ele>45.333333333333336</ele><time>2026-04-24T15:23:56Z</time></trkpt><trkpt lat="44.37281153161922" lon="8.621843839252618"><ele>45.0</ele><time>2026-04-24T15:23:57Z</time></trkpt><trkpt lat="44.37282984202566" lon="8.621721271535366"><ele>44.666666666666664</ele><time>2026-04-24T15:23:58Z</time></trkpt><trkpt lat="44.37285821960449" lon="8.621596954695795"><ele>44.33333333333333</ele><time>2026-04-24T15:23:59Z</time></trkpt><trkpt lat="44.3728743698855" lon="8.621458414631997"><ele>44.0</ele><time>2026-04-24T15:24:00Z</time></trkpt><trkpt lat="44.372891384020996" lon="8.621313779778763"><ele>44.0</ele><time>2026-04-24T15:24:01Z</time></trkpt><trkpt lat="44.37291050871994" lon="8.621166689098773"><ele>44.0</ele><time>2026-04-24T15:24:02Z</time></trkpt><trkpt lat="44.37293295194556" lon="8.621019110621372"><ele>44.0</ele><time>2026-04-24T15:24:03Z</time></trkpt><trkpt lat="44.37295117293195" lon="8.620881554114003"><ele>44.0</ele><time>2026-04-24T15:24:04Z</time></trkpt><trkpt lat="44.37296914856522" lon="8.620744443284087"><ele>44.0</ele><time>2026-04-24T15:24:05Z</time></trkpt><trkpt lat="44.37298186559884" lon="8.62062295899351"><ele>45.166666666666664</ele><time>2026-04-24T15:24:06Z</time></trkpt><trkpt lat="44.37299437546265" lon="8.620499795603578"><ele>46.33333333333333</ele><time>2026-04-24T15:24:07Z</time></trkpt><trkpt lat="44.3729976639679" lon="8.620376470383452"><ele>47.5</ele><time>2026-04-24T15:24:08Z</time></trkpt><trkpt lat="44.37300813018482" lon="8.620265719658374"><ele>48.666666666666664</ele><time>2026-04-24T15:24:09Z</time></trkpt><trkpt lat="44.37298745992878" lon="8.62015540141595"><ele>49.833333333333336</ele><time>2026-04-24T15:24:10Z</time></trkpt><trkpt lat="44.3729363918023" lon="8.620062011800023"><ele>51.0</ele><time>2026-04-24T15:24:11Z</time></trkpt><trkpt lat="44.372889959107624" lon="8.61997318959427"><ele>54.0</ele><time>2026-04-24T15:24:12Z</time></trkpt><trkpt lat="44.37283301783209" lon="8.619906080371857"><ele>57.0</ele><time>2026-04-24T15:24:13Z</time></trkpt><trkpt lat="44.37276332322315" lon="8.61982591757237"><ele>59.99999999999999</ele><time>2026-04-24T15:24:14Z</time></trkpt><trkpt lat="44.37267305597984" lon="8.619796191509604"><ele>63.0</ele><time>2026-04-24T15:24:15Z</time></trkpt><trkpt lat="44.37258168578693" lon="8.619738876861092"><ele>66.0</ele><time>2026-04-24T15:24:16Z</time></trkpt><trkpt lat="44.372482815093385" lon="8.619685862826367"><ele>66.0</ele><time>2026-04-24T15:24:17Z</time></trkpt><trkpt lat="44.372388369199555" lon="8.619636425410519"><ele>66.0</ele><time>2026-04-24T15:24:18Z</time></trkpt><trkpt lat="44.37229737958682" lon="8.619579275627133"><ele>66.0</ele><time>2026-04-24T15:24:19Z</time></trkpt><trkpt lat="44.372212004211065" lon="8.619517758077897"><ele>66.0</ele><time>2026-04-24T15:24:20Z</time></trkpt><trkpt lat="44.37213053479548" lon="8.619441986211909"><ele>66.0</ele><time>2026-04-24T15:24:21Z</time></trkpt><trkpt lat="44.37205726030057" lon="8.619352262896877"><ele>65.8</ele><time>2026-04-24T15:24:22Z</time></trkpt><trkpt lat="44.37199107097577" lon="8.619244533023076"><ele>65.6</ele><time>2026-04-24T15:24:23Z</time></trkpt><trkpt lat="44.371936251076576" lon="8.619124064206153"><ele>65.4</ele><time>2026-04-24T15:24:24Z</time></trkpt><trkpt lat="44.371881322213916" lon="8.618996280924724"><ele>65.2</ele><time>2026-04-24T15:24:25Z</time></trkpt><trkpt lat="44.371832080494485" lon="8.618859000887353"><ele>65.0</ele><time>2026-04-24T15:24:26Z</time></trkpt><trkpt lat="44.37178123105178" lon="8.618712920988731"><ele>66.25</ele><time>2026-04-24T15:24:27Z</time></trkpt><trkpt lat="44.37173134470743" lon="8.618564304859751"><ele>67.5</ele><time>2026-04-24T15:24:28Z</time></trkpt><trkpt lat="44.371686691806254" lon="8.618413510222135"><ele>68.75</ele><time>2026-04-24T15:24:29Z</time></trkpt><trkpt lat="44.37163866873267" lon="8.618249956402504"><ele>70.0</ele><time>2026-04-24T15:24:30Z</time></trkpt><trkpt lat="44.371588711290016" lon="8.61808121874048"><ele>70.0</ele><time>2026-04-24T15:24:31Z</time></trkpt><trkpt lat="44.37153697314492" lon="8.617917004615487"><ele>70.0</ele><time>2026-04-24T15:24:32Z</time></trkpt><trkpt lat="44.37149050421598" lon="8.617758919678415"><ele>70.0</ele><time>2026-04-24T15:24:33Z</time></trkpt><trkpt lat="44.37143778025977" lon="8.617596012236012"><ele>70.0</ele><time>2026-04-24T15:24:34Z</time></trkpt><trkpt lat="44.37138398552502" lon="8.617440723669437"><ele>69.4</ele><time>2026-04-24T15:24:35Z</time></trkpt><trkpt lat="44.37133455518901" lon="8.617293320861895"><ele>68.8</ele><time>2026-04-24T15:24:36Z</time></trkpt><trkpt lat="44.37129041007033" lon="8.617159277735977"><ele>68.2</ele><time>2026-04-24T15:24:37Z</time></trkpt><trkpt lat="44.37124720374943" lon="8.6170388454778"><ele>67.6</ele><time>2026-04-24T15:24:38Z</time></trkpt><trkpt lat="44.37120098750047" lon="8.61692338413263"><ele>67.0</ele><time>2026-04-24T15:24:39Z</time></trkpt><trkpt lat="44.37114440783876" lon="8.616809618360707"><ele>67.0</ele><time>2026-04-24T15:24:40Z</time></trkpt><trkpt lat="44.3710797770744" lon="8.616697438877193"><ele>67.0</ele><time>2026-04-24T15:24:41Z</time></trkpt><trkpt lat="44.371008829718754" lon="8.616600870202875"><ele>67.0</ele><time>2026-04-24T15:24:42Z</time></trkpt><trkpt lat="44.370943552951246" lon="8.616508292329941"><ele>67.0</ele><time>2026-04-24T15:24:43Z</time></trkpt><trkpt lat="44.3708904040503" lon="8.616410012547966"><ele>67.0</ele><time>2026-04-24T15:24:44Z</time></trkpt><trkpt lat="44.37084791409506" lon="8.61631360522321"><ele>67.0</ele><time>2026-04-24T15:24:45Z</time></trkpt><trkpt lat="44.370818934586865" lon="8.616205140374806"><ele>67.0</ele><time>2026-04-24T15:24:46Z</time></trkpt><trkpt lat="44.37080264971742" lon="8.616085402824812"><ele>67.0</ele><time>2026-04-24T15:24:47Z</time></trkpt><trkpt lat="44.37079869666361" lon="8.615956981073378"><ele>67.0</ele><time>2026-04-24T15:24:48Z</time></trkpt><trkpt lat="44.370793180661835" lon="8.615823203435093"><ele>67.0</ele><time>2026-04-24T15:24:49Z</time></trkpt><trkpt lat="44.37078323184342" lon="8.615683985834519"><ele>68.0</ele><time>2026-04-24T15:24:50Z</time></trkpt><trkpt lat="44.370776026158865" lon="8.615557107599146"><ele>69.0</ele><time>2026-04-24T15:24:51Z</time></trkpt><trkpt lat="44.37076316627444" lon="8.615427030069812"><ele>70.0</ele><time>2026-04-24T15:24:52Z</time></trkpt><trkpt lat="44.37075309584013" lon="8.61530393110668"><ele>71.0</ele><time>2026-04-24T15:24:53Z</time></trkpt><trkpt lat="44.37075225914367" lon="8.615187720613795"><ele>72.0</ele><time>2026-04-24T15:24:54Z</time></trkpt><trkpt lat="44.37072036307624" lon="8.615075953561476"><ele>73.0</ele><time>2026-04-24T15:24:55Z</time></trkpt><trkpt lat="44.37067225818159" lon="8.614972628528516"><ele>74.0</ele><time>2026-04-24T15:24:56Z</time></trkpt><trkpt lat="44.37060390243351" lon="8.614906252684893"><ele>75.0</ele><time>2026-04-24T15:24:57Z</time></trkpt><trkpt lat="44.37053565574284" lon="8.614834448656769"><ele>76.0</ele><time>2026-04-24T15:24:58Z</time></trkpt><trkpt lat="44.37045809420256" lon="8.614770317784542"><ele>77.0</ele><time>2026-04-24T15:24:59Z</time></trkpt><trkpt lat="44.37037235392024" lon="8.614706792245627"><ele>78.0</ele><time>2026-04-24T15:25:00Z</time></trkpt><trkpt lat="44.37028162713773" lon="8.61464064649518"><ele>77.6</ele><time>2026-04-24T15:25:01Z</time></trkpt><trkpt lat="44.370192520877396" lon="8.614563898178561"><ele>77.19999999999999</ele><time>2026-04-24T15:25:02Z</time></trkpt><trkpt lat="44.37011051221319" lon="8.614481497949791"><ele>76.8</ele><time>2026-04-24T15:25:03Z</time></trkpt><trkpt lat="44.37003229867921" lon="8.614386734830893"><ele>76.39999999999999</ele><time>2026-04-24T15:25:04Z</time></trkpt><trkpt lat="44.3699531233445" lon="8.614287180293626"><ele>76.0</ele><time>2026-04-24T15:25:05Z</time></trkpt><trkpt lat="44.36986582220474" lon="8.614182081566975"><ele>76.0</ele><time>2026-04-24T15:25:06Z</time></trkpt><trkpt lat="44.36978113729178" lon="8.6140741491622"><ele>76.0</ele><time>2026-04-24T15:25:07Z</time></trkpt><trkpt lat="44.36969645121487" lon="8.613966410243183"><ele>76.0</ele><time>2026-04-24T15:25:08Z</time></trkpt><trkpt lat="44.36961620736014" lon="8.613861133996256"><ele>76.0</ele><time>2026-04-24T15:25:09Z</time></trkpt><trkpt lat="44.36954758488838" lon="8.613754426003123"><ele>76.0</ele><time>2026-04-24T15:25:10Z</time></trkpt><trkpt lat="44.36948499970367" lon="8.613641197618522"><ele>75.39999999999999</ele><time>2026-04-24T15:25:11Z</time></trkpt><trkpt lat="44.369429543893226" lon="8.613519282331039"><ele>74.8</ele><time>2026-04-24T15:25:12Z</time></trkpt><trkpt lat="44.36938188024351" lon="8.613390543767618"><ele>74.19999999999999</ele><time>2026-04-24T15:25:13Z</time></trkpt><trkpt lat="44.36933520195893" lon="8.613250203100636"><ele>73.6</ele><time>2026-04-24T15:25:14Z</time></trkpt><trkpt lat="44.36928877842965" lon="8.613101910414315"><ele>73.0</ele><time>2026-04-24T15:25:15Z</time></trkpt><trkpt lat="44.36924089295022" lon="8.612948549755139"><ele>73.5</ele><time>2026-04-24T15:25:16Z</time></trkpt><trkpt lat="44.3691952034934" lon="8.612798361773049"><ele>74.0</ele><time>2026-04-24T15:25:17Z</time></trkpt><trkpt lat="44.36915348744668" lon="8.61264981116679"><ele>74.5</ele><time>2026-04-24T15:25:18Z</time></trkpt><trkpt lat="44.36911123668331" lon="8.612502549941292"><ele>75.0</ele><time>2026-04-24T15:25:19Z</time></trkpt><trkpt lat="44.3690675853934" lon="8.612343258695363"><ele>75.0</ele><time>2026-04-24T15:25:20Z</time></trkpt><trkpt lat="44.36902369264948" lon="8.612194243708506"><ele>75.0</ele><time>2026-04-24T15:25:21Z</time></trkpt><trkpt lat="44.36898444519166" lon="8.61204822292794"><ele>75.0</ele><time>2026-04-24T15:25:22Z</time></trkpt><trkpt lat="44.36895136026841" lon="8.611905124204087"><ele>75.0</ele><time>2026-04-24T15:25:23Z</time></trkpt><trkpt lat="44.36892696649596" lon="8.61176870270642"><ele>75.0</ele><time>2026-04-24T15:25:24Z</time></trkpt><trkpt lat="44.36891305073789" lon="8.611627143218314"><ele>76.0</ele><time>2026-04-24T15:25:25Z</time></trkpt><trkpt lat="44.368903669524386" lon="8.611478218044011"><ele>77.0</ele><time>2026-04-24T15:25:26Z</time></trkpt><trkpt lat="44.36889694463267" lon="8.611319907142617"><ele>78.0</ele><time>2026-04-24T15:25:27Z</time></trkpt><trkpt lat="44.36889467639423" lon="8.611153294967034"><ele>79.0</ele><time>2026-04-24T15:25:28Z</time></trkpt><trkpt lat="44.36889713347995" lon="8.610979426281213"><ele>79.25</ele><time>2026-04-24T15:25:29Z</time></trkpt><trkpt lat="44.36890074641622" lon="8.610814318506579"><ele>79.5</ele><time>2026-04-24T15:25:30Z</time></trkpt><trkpt lat="44.36891045474407" lon="8.610646882325886"><ele>79.75</ele><time>2026-04-24T15:25:31Z</time></trkpt><trkpt lat="44.36891827708889" lon="8.610479856655381"><ele>80.0</ele><time>2026-04-24T15:25:32Z</time></trkpt><trkpt lat="44.368927868439116" lon="8.610319323075771"><ele>80.4</ele><time>2026-04-24T15:25:33Z</time></trkpt><trkpt lat="44.368935444898504" lon="8.610160596267187"><ele>80.8</ele><time>2026-04-24T15:25:34Z</time></trkpt><trkpt lat="44.368941545557846" lon="8.610006548675118"><ele>81.19999999999999</ele><time>2026-04-24T15:25:35Z</time></trkpt><trkpt lat="44.368949543822545" lon="8.609852008913263"><ele>81.6</ele><time>2026-04-24T15:25:36Z</time></trkpt><trkpt lat="44.36895512766497" lon="8.609704646802511"><ele>82.0</ele><time>2026-04-24T15:25:37Z</time></trkpt><trkpt lat="44.368956213920704" lon="8.609553967328544"><ele>82.19999999999999</ele><time>2026-04-24T15:25:38Z</time></trkpt><trkpt lat="44.36895028912137" lon="8.609396487562767"><ele>82.4</ele><time>2026-04-24T15:25:39Z</time></trkpt><trkpt lat="44.36893647865051" lon="8.609250271841965"><ele>82.6</ele><time>2026-04-24T15:25:40Z</time></trkpt><trkpt lat="44.36891513278766" lon="8.60909323919749"><ele>82.80000000000001</ele><time>2026-04-24T15:25:41Z</time></trkpt><trkpt lat="44.36888903221553" lon="8.608936038936925"><ele>83.0</ele><time>2026-04-24T15:25:42Z</time></trkpt><trkpt lat="44.3688653642723" lon="8.608769373673884"><ele>79.0</ele><time>2026-04-24T15:25:43Z</time></trkpt><trkpt lat="44.3688420571084" lon="8.608609547509554"><ele>75.0</ele><time>2026-04-24T15:25:44Z</time></trkpt><trkpt lat="44.3688192598846" lon="8.60845229210083"><ele>71.0</ele><time>2026-04-24T15:25:45Z</time></trkpt><trkpt lat="44.368792598815986" lon="8.608290091661415"><ele>67.0</ele><time>2026-04-24T15:25:46Z</time></trkpt><trkpt lat="44.36877164842441" lon="8.608128241940674"><ele>67.0</ele><time>2026-04-24T15:25:47Z</time></trkpt><trkpt lat="44.36874942000403" lon="8.607958894318797"><ele>67.0</ele><time>2026-04-24T15:25:48Z</time></trkpt><trkpt lat="44.36872674928047" lon="8.607789595596353"><ele>67.0</ele><time>2026-04-24T15:25:49Z</time></trkpt><trkpt lat="44.368704195877704" lon="8.607631118509659"><ele>67.0</ele><time>2026-04-24T15:25:50Z</time></trkpt><trkpt lat="44.36868431373224" lon="8.607486476643073"><ele>68.0</ele><time>2026-04-24T15:25:51Z</time></trkpt><trkpt lat="44.368659675601904" lon="8.607335917274478"><ele>69.0</ele><time>2026-04-24T15:25:52Z</time></trkpt><trkpt lat="44.368629167328145" lon="8.607197096649925"><ele>70.0</ele><time>2026-04-24T15:25:53Z</time></trkpt><trkpt lat="44.36859167110691" lon="8.607061720061447"><ele>71.0</ele><time>2026-04-24T15:25:54Z</time></trkpt><trkpt lat="44.36854650993082" lon="8.606940379854034"><ele>72.0</ele><time>2026-04-24T15:25:55Z</time></trkpt><trkpt lat="44.368494377537644" lon="8.606824551431494"><ele>72.8</ele><time>2026-04-24T15:25:56Z</time></trkpt><trkpt lat="44.368426393645045" lon="8.606719375832059"><ele>73.6</ele><time>2026-04-24T15:25:57Z</time></trkpt><trkpt lat="44.36834816284464" lon="8.60662130651877"><ele>74.39999999999999</ele><time>2026-04-24T15:25:58Z</time></trkpt><trkpt lat="44.368260266803844" lon="8.606538106447035"><ele>75.2</ele><time>2026-04-24T15:25:59Z</time></trkpt><trkpt lat="44.36816866840916" lon="8.606444472544034"><ele>76.0</ele><time>2026-04-24T15:26:00Z</time></trkpt><trkpt lat="44.368070455588544" lon="8.606358327107131"><ele>74.75</ele><time>2026-04-24T15:26:01Z</time></trkpt><trkpt lat="44.3679781448996" lon="8.606264570766967"><ele>73.5</ele><time>2026-04-24T15:26:02Z</time></trkpt><trkpt lat="44.367884142854415" lon="8.606169561733472"><ele>72.25</ele><time>2026-04-24T15:26:03Z</time></trkpt><trkpt lat="44.36780158297479" lon="8.60606697379036"><ele>71.0</ele><time>2026-04-24T15:26:04Z</time></trkpt><trkpt lat="44.367723078007856" lon="8.60595331333778"><ele>71.0</ele><time>2026-04-24T15:26:05Z</time></trkpt><trkpt lat="44.36764811872096" lon="8.605829324358156"><ele>71.0</ele><time>2026-04-24T15:26:06Z</time></trkpt><trkpt lat="44.36757268860197" lon="8.60569675041004"><ele>71.0</ele><time>2026-04-24T15:26:07Z</time></trkpt><trkpt lat="44.36750124982246" lon="8.605558711613298"><ele>71.0</ele><time>2026-04-24T15:26:08Z</time></trkpt><trkpt lat="44.36743482795377" lon="8.605430136536858"><ele>72.5</ele><time>2026-04-24T15:26:09Z</time></trkpt><trkpt lat="44.36736192278897" lon="8.60529786963202"><ele>74.0</ele><time>2026-04-24T15:26:10Z</time></trkpt><trkpt lat="44.367290526819566" lon="8.605158375872328"><ele>75.5</ele><time>2026-04-24T15:26:11Z</time></trkpt><trkpt lat="44.367222076379186" lon="8.605016574798997"><ele>77.0</ele><time>2026-04-24T15:26:12Z</time></trkpt><trkpt lat="44.36716016902645" lon="8.604880184504363"><ele>76.0</ele><time>2026-04-24T15:26:13Z</time></trkpt><trkpt lat="44.36709702391329" lon="8.60474433846465"><ele>75.0</ele><time>2026-04-24T15:26:14Z</time></trkpt><trkpt lat="44.36704144113173" lon="8.604614212170935"><ele>74.0</ele><time>2026-04-24T15:26:15Z</time></trkpt><trkpt lat="44.36698575573516" lon="8.604483084385427"><ele>73.0</ele><time>2026-04-24T15:26:16Z</time></trkpt><trkpt lat="44.36692869170483" lon="8.604367706001401"><ele>72.0</ele><time>2026-04-24T15:26:17Z</time></trkpt><trkpt lat="44.366863876450935" lon="8.604253476107212"><ele>72.0</ele><time>2026-04-24T15:26:18Z</time></trkpt><trkpt lat="44.3667900152757" lon="8.604146570781726"><ele>72.0</ele><time>2026-04-24T15:26:19Z</time></trkpt><trkpt lat="44.36671313686885" lon="8.604045248468728"><ele>72.0</ele><time>2026-04-24T15:26:20Z</time></trkpt><trkpt lat="44.3666259318121" lon="8.603940656271572"><ele>72.0</ele><time>2026-04-24T15:26:21Z</time></trkpt><trkpt lat="44.36654088860635" lon="8.603830968322848"><ele>72.0</ele><time>2026-04-24T15:26:22Z</time></trkpt><trkpt lat="44.36645897849561" lon="8.603727341007096"><ele>73.2</ele><time>2026-04-24T15:26:23Z</time></trkpt><trkpt lat="44.36637588201633" lon="8.603623249398431"><ele>74.4</ele><time>2026-04-24T15:26:24Z</time></trkpt><trkpt lat="44.366293715165114" lon="8.603515469531022"><ele>75.6</ele><time>2026-04-24T15:26:25Z</time></trkpt><trkpt lat="44.366215389290886" lon="8.603407831896089"><ele>76.8</ele><time>2026-04-24T15:26:26Z</time></trkpt><trkpt lat="44.36614422237738" lon="8.603313337998012"><ele>78.0</ele><time>2026-04-24T15:26:27Z</time></trkpt><trkpt lat="44.36608489566928" lon="8.603215282340662"><ele>75.8</ele><time>2026-04-24T15:26:28Z</time></trkpt><trkpt lat="44.36602875458306" lon="8.60310239440013"><ele>73.6</ele><time>2026-04-24T15:26:29Z</time></trkpt><trkpt lat="44.36598689908118" lon="8.602991542348825"><ele>71.4</ele><time>2026-04-24T15:26:30Z</time></trkpt><trkpt lat="44.36595326688002" lon="8.60287479037635"><ele>69.2</ele><time>2026-04-24T15:26:31Z</time></trkpt><trkpt lat="44.36593349108856" lon="8.602750588532299"><ele>67.0</ele><time>2026-04-24T15:26:32Z</time></trkpt><trkpt lat="44.365923603141" lon="8.602625192405995"><ele>67.0</ele><time>2026-04-24T15:26:33Z</time></trkpt><trkpt lat="44.36591365289495" lon="8.602490650325064"><ele>67.0</ele><time>2026-04-24T15:26:34Z</time></trkpt><trkpt lat="44.365897027490846" lon="8.60235911919297"><ele>67.0</ele><time>2026-04-24T15:26:35Z</time></trkpt><trkpt lat="44.36587703380342" lon="8.602230592101598"><ele>67.0</ele><time>2026-04-24T15:26:36Z</time></trkpt><trkpt lat="44.365848683681726" lon="8.602112514267327"><ele>67.0</ele><time>2026-04-24T15:26:37Z</time></trkpt><trkpt lat="44.36580399226826" lon="8.601991160062132"><ele>68.8</ele><time>2026-04-24T15:26:38Z</time></trkpt><trkpt lat="44.36575389755089" lon="8.601859963020916"><ele>70.6</ele><time>2026-04-24T15:26:39Z</time></trkpt><trkpt lat="44.36570385750517" lon="8.601737817162672"><ele>72.39999999999999</ele><time>2026-04-24T15:26:40Z</time></trkpt><trkpt lat="44.36564802990794" lon="8.601607511276818"><ele>74.2</ele><time>2026-04-24T15:26:41Z</time></trkpt><trkpt lat="44.36559933066519" lon="8.60148693419097"><ele>76.0</ele><time>2026-04-24T15:26:42Z</time></trkpt><trkpt lat="44.365550936491026" lon="8.601375173025842"><ele>75.57142857142857</ele><time>2026-04-24T15:26:43Z</time></trkpt><trkpt lat="44.36551546426751" lon="8.601276574970852"><ele>75.14285714285715</ele><time>2026-04-24T15:26:44Z</time></trkpt><trkpt lat="44.36549226387127" lon="8.601184288650613"><ele>74.71428571428572</ele><time>2026-04-24T15:26:45Z</time></trkpt><trkpt lat="44.36548463981989" lon="8.601084941183338"><ele>74.28571428571428</ele><time>2026-04-24T15:26:46Z</time></trkpt><trkpt lat="44.365502098453824" lon="8.600992949246937"><ele>73.85714285714286</ele><time>2026-04-24T15:26:47Z</time></trkpt><trkpt lat="44.36553679681219" lon="8.60091215722518"><ele>73.42857142857143</ele><time>2026-04-24T15:26:48Z</time></trkpt><trkpt lat="44.36559698926296" lon="8.600838028292733"><ele>73.0</ele><time>2026-04-24T15:26:49Z</time></trkpt><trkpt lat="44.36566916267097" lon="8.600782020917348"><ele>73.0</ele><time>2026-04-24T15:26:50Z</time></trkpt><trkpt lat="44.36574885846139" lon="8.60074048692507"><ele>73.0</ele><time>2026-04-24T15:26:51Z</time></trkpt><trkpt lat="44.36580941828403" lon="8.600695167223103"><ele>73.0</ele><time>2026-04-24T15:26:52Z</time></trkpt><trkpt lat="44.36586437810139" lon="8.600627627113544"><ele>73.0</ele><time>2026-04-24T15:26:53Z</time></trkpt><trkpt lat="44.36589757543694" lon="8.600544225608944"><ele>73.0</ele><time>2026-04-24T15:26:54Z</time></trkpt><trkpt lat="44.36590901841529" lon="8.600448143023531"><ele>73.0</ele><time>2026-04-24T15:26:55Z</time></trkpt><trkpt lat="44.365898334158636" lon="8.600347310063347"><ele>73.0</ele><time>2026-04-24T15:26:56Z</time></trkpt><trkpt lat="44.3658148715416" lon="8.600196573299957"><ele>73.2</ele><time>2026-04-24T15:26:58Z</time></trkpt><trkpt lat="44.365740397227704" lon="8.60013788948929"><ele>73.4</ele><time>2026-04-24T15:26:59Z</time></trkpt><trkpt lat="44.36565880221822" lon="8.600084287333248"><ele>73.60000000000001</ele><time>2026-04-24T15:27:00Z</time></trkpt><trkpt lat="44.365572681799584" lon="8.600028092970817"><ele>73.8</ele><time>2026-04-24T15:27:01Z</time></trkpt><trkpt lat="44.36548786132418" lon="8.599971344444207"><ele>74.0</ele><time>2026-04-24T15:27:02Z</time></trkpt><trkpt lat="44.365410010942654" lon="8.599918093513322"><ele>71.66666666666667</ele><time>2026-04-24T15:27:03Z</time></trkpt><trkpt lat="44.36533171407748" lon="8.599880459968446"><ele>69.33333333333334</ele><time>2026-04-24T15:27:04Z</time></trkpt><trkpt lat="44.36525464923529" lon="8.599858484294243"><ele>67.0</ele><time>2026-04-24T15:27:05Z</time></trkpt><trkpt lat="44.365165718257856" lon="8.599855094404438"><ele>64.66666666666667</ele><time>2026-04-24T15:27:06Z</time></trkpt><trkpt lat="44.36507617366737" lon="8.599861574259984"><ele>62.333333333333336</ele><time>2026-04-24T15:27:07Z</time></trkpt><trkpt lat="44.364992335817675" lon="8.599861987405069"><ele>60.0</ele><time>2026-04-24T15:27:08Z</time></trkpt><trkpt lat="44.364919051239625" lon="8.59985224174598"><ele>60.0</ele><time>2026-04-24T15:27:09Z</time></trkpt><trkpt lat="44.36485442583364" lon="8.599822774605522"><ele>60.0</ele><time>2026-04-24T15:27:10Z</time></trkpt><trkpt lat="44.364799896154956" lon="8.599771888314592"><ele>60.0</ele><time>2026-04-24T15:27:11Z</time></trkpt><trkpt lat="44.364756262618265" lon="8.59968385144784"><ele>60.0</ele><time>2026-04-24T15:27:12Z</time></trkpt><trkpt lat="44.36472955669792" lon="8.599575136886987"><ele>60.0</ele><time>2026-04-24T15:27:13Z</time></trkpt><trkpt lat="44.36470561947639" lon="8.599452792147227"><ele>60.0</ele><time>2026-04-24T15:27:14Z</time></trkpt><trkpt lat="44.36467881735627" lon="8.599328841995987"><ele>56.4</ele><time>2026-04-24T15:27:15Z</time></trkpt><trkpt lat="44.3646458365635" lon="8.599203853042267"><ele>52.8</ele><time>2026-04-24T15:27:16Z</time></trkpt><trkpt lat="44.36460669016804" lon="8.599093166194827"><ele>49.2</ele><time>2026-04-24T15:27:17Z</time></trkpt><trkpt lat="44.36455806681889" lon="8.598989592256535"><ele>45.6</ele><time>2026-04-24T15:27:18Z</time></trkpt><trkpt lat="44.36449444909638" lon="8.598901204966262"><ele>42.0</ele><time>2026-04-24T15:27:19Z</time></trkpt><trkpt lat="44.36441725339482" lon="8.598824465195397"><ele>42.0</ele><time>2026-04-24T15:27:20Z</time></trkpt><trkpt lat="44.36433427558864" lon="8.598759376204443"><ele>42.0</ele><time>2026-04-24T15:27:21Z</time></trkpt><trkpt lat="44.364248806962244" lon="8.598696281360937"><ele>42.0</ele><time>2026-04-24T15:27:22Z</time></trkpt><trkpt lat="44.364165494741364" lon="8.598627207165825"><ele>42.0</ele><time>2026-04-24T15:27:23Z</time></trkpt><trkpt lat="44.36408586681777" lon="8.598547177955352"><ele>42.0</ele><time>2026-04-24T15:27:24Z</time></trkpt><trkpt lat="44.36401678080587" lon="8.598443958807705"><ele>40.6</ele><time>2026-04-24T15:27:25Z</time></trkpt><trkpt lat="44.36394281969673" lon="8.598328416060271"><ele>39.2</ele><time>2026-04-24T15:27:26Z</time></trkpt><trkpt lat="44.36387113210326" lon="8.598229311265237"><ele>37.8</ele><time>2026-04-24T15:27:27Z</time></trkpt><trkpt lat="44.3638007120879" lon="8.59814073290605"><ele>36.4</ele><time>2026-04-24T15:27:28Z</time></trkpt><trkpt lat="44.3637353091676" lon="8.598063734649186"><ele>35.0</ele><time>2026-04-24T15:27:29Z</time></trkpt><trkpt lat="44.363667616167994" lon="8.598007423209536"><ele>35.0</ele><time>2026-04-24T15:27:30Z</time></trkpt><trkpt lat="44.363582268346995" lon="8.597968613930592"><ele>35.0</ele><time>2026-04-24T15:27:31Z</time></trkpt><trkpt lat="44.363486251793006" lon="8.597940992150571"><ele>35.0</ele><time>2026-04-24T15:27:32Z</time></trkpt><trkpt lat="44.36339738552037" lon="8.597920504320967"><ele>35.0</ele><time>2026-04-24T15:27:33Z</time></trkpt><trkpt lat="44.36330374393339" lon="8.597896117589787"><ele>35.0</ele><time>2026-04-24T15:27:34Z</time></trkpt><trkpt lat="44.36321953443905" lon="8.597865032909333"><ele>32.166666666666664</ele><time>2026-04-24T15:27:35Z</time></trkpt><trkpt lat="44.363147468879134" lon="8.597828850411965"><ele>29.333333333333332</ele><time>2026-04-24T15:27:36Z</time></trkpt><trkpt lat="44.36308796825814" lon="8.597773677138278"><ele>26.5</ele><time>2026-04-24T15:27:37Z</time></trkpt><trkpt lat="44.363048218676035" lon="8.597694942044733"><ele>23.666666666666664</ele><time>2026-04-24T15:27:38Z</time></trkpt><trkpt lat="44.36301818634042" lon="8.5975879587715"><ele>20.833333333333332</ele><time>2026-04-24T15:27:39Z</time></trkpt><trkpt lat="44.36300575147791" lon="8.597468840558902"><ele>18.0</ele><time>2026-04-24T15:27:40Z</time></trkpt><trkpt lat="44.36299612504377" lon="8.597351019476529"><ele>18.0</ele><time>2026-04-24T15:27:41Z</time></trkpt><trkpt lat="44.36297905154742" lon="8.597225177423603"><ele>18.0</ele><time>2026-04-24T15:27:42Z</time></trkpt><trkpt lat="44.36294699903027" lon="8.597096758587991"><ele>18.0</ele><time>2026-04-24T15:27:43Z</time></trkpt><trkpt lat="44.362908792526056" lon="8.596979360344193"><ele>18.0</ele><time>2026-04-24T15:27:44Z</time></trkpt><trkpt lat="44.36286077057887" lon="8.596852584019743"><ele>18.0</ele><time>2026-04-24T15:27:45Z</time></trkpt><trkpt lat="44.36280201478017" lon="8.596731487901954"><ele>20.0</ele><time>2026-04-24T15:27:46Z</time></trkpt><trkpt lat="44.362748760661844" lon="8.596595298678363"><ele>22.0</ele><time>2026-04-24T15:27:47Z</time></trkpt><trkpt lat="44.36268614410566" lon="8.59644324772565"><ele>24.0</ele><time>2026-04-24T15:27:48Z</time></trkpt><trkpt lat="44.362628354718666" lon="8.59630090178324"><ele>26.0</ele><time>2026-04-24T15:27:49Z</time></trkpt><trkpt lat="44.36257040231353" lon="8.59615716115027"><ele>29.0</ele><time>2026-04-24T15:27:50Z</time></trkpt><trkpt lat="44.36251142803755" lon="8.596013697268436"><ele>32.0</ele><time>2026-04-24T15:27:51Z</time></trkpt><trkpt lat="44.36245476576605" lon="8.595873170393007"><ele>35.0</ele><time>2026-04-24T15:27:52Z</time></trkpt><trkpt lat="44.36239337317512" lon="8.595728320576034"><ele>38.0</ele><time>2026-04-24T15:27:53Z</time></trkpt><trkpt lat="44.362338770580074" lon="8.595596923005433"><ele>38.0</ele><time>2026-04-24T15:27:54Z</time></trkpt><trkpt lat="44.36228238850871" lon="8.59546907960836"><ele>38.0</ele><time>2026-04-24T15:27:55Z</time></trkpt><trkpt lat="44.36222033863283" lon="8.595344347424078"><ele>38.0</ele><time>2026-04-24T15:27:56Z</time></trkpt><trkpt lat="44.36215794992501" lon="8.595221308070398"><ele>38.0</ele><time>2026-04-24T15:27:57Z</time></trkpt><trkpt lat="44.36208424931258" lon="8.59509191670247"><ele>38.0</ele><time>2026-04-24T15:27:58Z</time></trkpt><trkpt lat="44.36201080399741" lon="8.594968960992734"><ele>38.0</ele><time>2026-04-24T15:27:59Z</time></trkpt><trkpt lat="44.36193065199741" lon="8.594845387565414"><ele>38.0</ele><time>2026-04-24T15:28:00Z</time></trkpt><trkpt lat="44.361854323979024" lon="8.594727043323838"><ele>38.0</ele><time>2026-04-24T15:28:01Z</time></trkpt><trkpt lat="44.361785015723505" lon="8.594612287662065"><ele>38.0</ele><time>2026-04-24T15:28:02Z</time></trkpt><trkpt lat="44.36171665049584" lon="8.594491269643582"><ele>38.0</ele><time>2026-04-24T15:28:03Z</time></trkpt><trkpt lat="44.36165468512033" lon="8.594380497829789"><ele>38.0</ele><time>2026-04-24T15:28:04Z</time></trkpt><trkpt lat="44.36159606609987" lon="8.59426190031781"><ele>38.0</ele><time>2026-04-24T15:28:05Z</time></trkpt><trkpt lat="44.361551769876904" lon="8.594139521056134"><ele>38.0</ele><time>2026-04-24T15:28:06Z</time></trkpt><trkpt lat="44.36151682382428" lon="8.594013232755252"><ele>38.0</ele><time>2026-04-24T15:28:07Z</time></trkpt><trkpt lat="44.3614927350631" lon="8.593878498755746"><ele>38.0</ele><time>2026-04-24T15:28:08Z</time></trkpt><trkpt lat="44.361476872795045" lon="8.593730066803108"><ele>38.0</ele><time>2026-04-24T15:28:09Z</time></trkpt><trkpt lat="44.36146107213918" lon="8.593575217784513"><ele>38.0</ele><time>2026-04-24T15:28:10Z</time></trkpt><trkpt lat="44.36144853044492" lon="8.593430897826622"><ele>38.0</ele><time>2026-04-24T15:28:11Z</time></trkpt><trkpt lat="44.361435593277186" lon="8.593299131256188"><ele>38.0</ele><time>2026-04-24T15:28:12Z</time></trkpt><trkpt lat="44.3614206705459" lon="8.593186093874671"><ele>38.599999999999994</ele><time>2026-04-24T15:28:13Z</time></trkpt><trkpt lat="44.361394560530854" lon="8.593075806994301"><ele>39.199999999999996</ele><time>2026-04-24T15:28:14Z</time></trkpt><trkpt lat="44.361352479094734" lon="8.592967904168963"><ele>39.8</ele><time>2026-04-24T15:28:15Z</time></trkpt><trkpt lat="44.361291613836364" lon="8.592855382076214"><ele>40.4</ele><time>2026-04-24T15:28:16Z</time></trkpt><trkpt lat="44.36123028746042" lon="8.592732464468316"><ele>41.0</ele><time>2026-04-24T15:28:17Z</time></trkpt><trkpt lat="44.36117713615226" lon="8.592604183569726"><ele>36.0</ele><time>2026-04-24T15:28:18Z</time></trkpt><trkpt lat="44.36112289789045" lon="8.592468913673303"><ele>31.0</ele><time>2026-04-24T15:28:19Z</time></trkpt><trkpt lat="44.36107751760278" lon="8.5923328525521"><ele>26.0</ele><time>2026-04-24T15:28:20Z</time></trkpt><trkpt lat="44.361036161178255" lon="8.592202598789205"><ele>21.0</ele><time>2026-04-24T15:28:21Z</time></trkpt><trkpt lat="44.36099663259954" lon="8.592076993031545"><ele>16.0</ele><time>2026-04-24T15:28:22Z</time></trkpt><trkpt lat="44.360959743988694" lon="8.591953177214144"><ele>16.0</ele><time>2026-04-24T15:28:23Z</time></trkpt><trkpt lat="44.360937060748064" lon="8.591832131844763"><ele>16.0</ele><time>2026-04-24T15:28:24Z</time></trkpt><trkpt lat="44.36092651140632" lon="8.591704362789866"><ele>16.0</ele><time>2026-04-24T15:28:25Z</time></trkpt><trkpt lat="44.360922407381445" lon="8.591561109073012"><ele>16.0</ele><time>2026-04-24T15:28:26Z</time></trkpt><trkpt lat="44.360914158001705" lon="8.591421932913294"><ele>16.0</ele><time>2026-04-24T15:28:27Z</time></trkpt><trkpt lat="44.36089843554099" lon="8.591283509568745"><ele>15.4</ele><time>2026-04-24T15:28:28Z</time></trkpt><trkpt lat="44.36087854919781" lon="8.591140020842372"><ele>14.8</ele><time>2026-04-24T15:28:29Z</time></trkpt><trkpt lat="44.360852433883174" lon="8.590989424820075"><ele>14.200000000000001</ele><time>2026-04-24T15:28:30Z</time></trkpt><trkpt lat="44.36083308800619" lon="8.59084774226703"><ele>13.600000000000001</ele><time>2026-04-24T15:28:31Z</time></trkpt><trkpt lat="44.36081936981209" lon="8.590709464618211"><ele>13.0</ele><time>2026-04-24T15:28:32Z</time></trkpt><trkpt lat="44.36080955157446" lon="8.590568718507281"><ele>13.0</ele><time>2026-04-24T15:28:33Z</time></trkpt><trkpt lat="44.36080913997479" lon="8.590427849935132"><ele>13.0</ele><time>2026-04-24T15:28:34Z</time></trkpt><trkpt lat="44.36081459322091" lon="8.590285649952987"><ele>13.0</ele><time>2026-04-24T15:28:35Z</time></trkpt><trkpt lat="44.36082460030622" lon="8.590141032167036"><ele>13.0</ele><time>2026-04-24T15:28:36Z</time></trkpt><trkpt lat="44.36084054859666" lon="8.589988009650806"><ele>13.0</ele><time>2026-04-24T15:28:37Z</time></trkpt><trkpt lat="44.36085571684847" lon="8.589826141129622"><ele>12.200000000000001</ele><time>2026-04-24T15:28:38Z</time></trkpt><trkpt lat="44.3608685868912" lon="8.589671585902865"><ele>11.4</ele><time>2026-04-24T15:28:39Z</time></trkpt><trkpt lat="44.360884241340116" lon="8.58951113029268"><ele>10.600000000000001</ele><time>2026-04-24T15:28:40Z</time></trkpt><trkpt lat="44.36090102299665" lon="8.589353213776919"><ele>9.8</ele><time>2026-04-24T15:28:41Z</time></trkpt><trkpt lat="44.360912236611554" lon="8.589202865706481"><ele>9.0</ele><time>2026-04-24T15:28:42Z</time></trkpt><trkpt lat="44.360922412557635" lon="8.589045442660701"><ele>9.0</ele><time>2026-04-24T15:28:43Z</time></trkpt><trkpt lat="44.36092797633932" lon="8.588896820254378"><ele>9.0</ele><time>2026-04-24T15:28:44Z</time></trkpt><trkpt lat="44.36092956313799" lon="8.588741830698538"><ele>9.0</ele><time>2026-04-24T15:28:45Z</time></trkpt><trkpt lat="44.36092693453301" lon="8.588592385885123"><ele>9.0</ele><time>2026-04-24T15:28:46Z</time></trkpt><trkpt lat="44.36090854878708" lon="8.58845788441923"><ele>9.0</ele><time>2026-04-24T15:28:47Z</time></trkpt><trkpt lat="44.36087813172386" lon="8.588323658554673"><ele>9.6</ele><time>2026-04-24T15:28:48Z</time></trkpt><trkpt lat="44.36084022302159" lon="8.588186004306186"><ele>10.2</ele><time>2026-04-24T15:28:49Z</time></trkpt><trkpt lat="44.3607973976833" lon="8.588033042777283"><ele>10.799999999999999</ele><time>2026-04-24T15:28:50Z</time></trkpt><trkpt lat="44.36078191200216" lon="8.587887518510154"><ele>11.4</ele><time>2026-04-24T15:28:51Z</time></trkpt><trkpt lat="44.3607345989148" lon="8.587739844347077"><ele>12.0</ele><time>2026-04-24T15:28:52Z</time></trkpt><trkpt lat="44.360685711544015" lon="8.587593210488373"><ele>12.0</ele><time>2026-04-24T15:28:53Z</time></trkpt><trkpt lat="44.36063707244352" lon="8.587444144269732"><ele>12.0</ele><time>2026-04-24T15:28:54Z</time></trkpt><trkpt lat="44.36058948085109" lon="8.587295124523557"><ele>12.0</ele><time>2026-04-24T15:28:55Z</time></trkpt><trkpt lat="44.360537153786964" lon="8.587145612848381"><ele>12.0</ele><time>2026-04-24T15:28:56Z</time></trkpt><trkpt lat="44.360486781714954" lon="8.586999209875023"><ele>10.25</ele><time>2026-04-24T15:28:57Z</time></trkpt><trkpt lat="44.36044634619064" lon="8.586846789866497"><ele>8.5</ele><time>2026-04-24T15:28:58Z</time></trkpt><trkpt lat="44.36041225715844" lon="8.586686349945676"><ele>6.75</ele><time>2026-04-24T15:28:59Z</time></trkpt><trkpt lat="44.36038225344161" lon="8.586515016159574"><ele>5.0</ele><time>2026-04-24T15:29:00Z</time></trkpt><trkpt lat="44.36035522617973" lon="8.586353534485125"><ele>5.0</ele><time>2026-04-24T15:29:01Z</time></trkpt><trkpt lat="44.36032923813132" lon="8.586198550829467"><ele>5.0</ele><time>2026-04-24T15:29:02Z</time></trkpt><trkpt lat="44.360305986120885" lon="8.586042079681919"><ele>5.0</ele><time>2026-04-24T15:29:03Z</time></trkpt><trkpt lat="44.360283546727835" lon="8.585879968000778"><ele>5.0</ele><time>2026-04-24T15:29:04Z</time></trkpt><trkpt lat="44.36026680302038" lon="8.585717037213822"><ele>5.0</ele><time>2026-04-24T15:29:05Z</time></trkpt><trkpt lat="44.360247702963434" lon="8.585558014637517"><ele>5.0</ele><time>2026-04-24T15:29:06Z</time></trkpt><trkpt lat="44.360235487907715" lon="8.5854048196952"><ele>5.0</ele><time>2026-04-24T15:29:07Z</time></trkpt><trkpt lat="44.360219840869235" lon="8.585254181786416"><ele>5.0</ele><time>2026-04-24T15:29:08Z</time></trkpt><trkpt lat="44.36020660747402" lon="8.585103973789263"><ele>5.0</ele><time>2026-04-24T15:29:09Z</time></trkpt><trkpt lat="44.36019433873898" lon="8.584946765327858"><ele>5.0</ele><time>2026-04-24T15:29:10Z</time></trkpt><trkpt lat="44.360177814567265" lon="8.584791964902955"><ele>5.0</ele><time>2026-04-24T15:29:11Z</time></trkpt><trkpt lat="44.36016228462969" lon="8.584640495034986"><ele>5.0</ele><time>2026-04-24T15:29:12Z</time></trkpt><trkpt lat="44.360149030448966" lon="8.584481930968689"><ele>5.0</ele><time>2026-04-24T15:29:13Z</time></trkpt><trkpt lat="44.36013578934511" lon="8.584341384821544"><ele>5.0</ele><time>2026-04-24T15:29:14Z</time></trkpt><trkpt lat="44.36012247832958" lon="8.58419528599631"><ele>5.6</ele><time>2026-04-24T15:29:15Z</time></trkpt><trkpt lat="44.3601102402946" lon="8.584048625755752"><ele>6.2</ele><time>2026-04-24T15:29:16Z</time></trkpt><trkpt lat="44.360098028198436" lon="8.583901371659543"><ele>6.800000000000001</ele><time>2026-04-24T15:29:17Z</time></trkpt><trkpt lat="44.36008467634205" lon="8.583754584716496"><ele>7.4</ele><time>2026-04-24T15:29:18Z</time></trkpt><trkpt lat="44.36008146326894" lon="8.583614976308189"><ele>8.0</ele><time>2026-04-24T15:29:19Z</time></trkpt><trkpt lat="44.360065712466344" lon="8.583475518499164"><ele>7.999999999999999</ele><time>2026-04-24T15:29:20Z</time></trkpt><trkpt lat="44.36005376427851" lon="8.583336684204182"><ele>8.0</ele><time>2026-04-24T15:29:21Z</time></trkpt><trkpt lat="44.36003958805859" lon="8.583207652616704"><ele>8.0</ele><time>2026-04-24T15:29:22Z</time></trkpt><trkpt lat="44.360029466247724" lon="8.583080953655655"><ele>8.0</ele><time>2026-04-24T15:29:23Z</time></trkpt><trkpt lat="44.36001969297406" lon="8.582960348593836"><ele>7.999999999999999</ele><time>2026-04-24T15:29:24Z</time></trkpt><trkpt lat="44.360011606571256" lon="8.582865062794253"><ele>8.0</ele><time>2026-04-24T15:29:25Z</time></trkpt><trkpt lat="44.36000631734053" lon="8.582774747081036"><ele>7.833333333333333</ele><time>2026-04-24T15:29:27Z</time></trkpt><trkpt lat="44.36000208400875" lon="8.582667432277784"><ele>7.666666666666666</ele><time>2026-04-24T15:29:31Z</time></trkpt><trkpt lat="44.35998605864452" lon="8.582530144774092"><ele>7.5</ele><time>2026-04-24T15:29:33Z</time></trkpt><trkpt lat="44.35997712572085" lon="8.582441681179375"><ele>7.333333333333334</ele><time>2026-04-24T15:29:34Z</time></trkpt><trkpt lat="44.35996979524515" lon="8.582347425028932"><ele>7.166666666666667</ele><time>2026-04-24T15:29:35Z</time></trkpt><trkpt lat="44.35996039414529" lon="8.58224254605349"><ele>7.0</ele><time>2026-04-24T15:29:36Z</time></trkpt><trkpt lat="44.359948416112154" lon="8.582126718639469"><ele>7.166666666666667</ele><time>2026-04-24T15:29:37Z</time></trkpt><trkpt lat="44.359937184496886" lon="8.582013615278356"><ele>7.333333333333334</ele><time>2026-04-24T15:29:38Z</time></trkpt><trkpt lat="44.35992577091214" lon="8.581898800587608"><ele>7.5</ele><time>2026-04-24T15:29:39Z</time></trkpt><trkpt lat="44.35991230881929" lon="8.5817793108652"><ele>7.666666666666666</ele><time>2026-04-24T15:29:40Z</time></trkpt><trkpt lat="44.35989914598711" lon="8.581654650723944"><ele>7.833333333333333</ele><time>2026-04-24T15:29:41Z</time></trkpt><trkpt lat="44.35988454552362" lon="8.581526983963162"><ele>8.0</ele><time>2026-04-24T15:29:42Z</time></trkpt><trkpt lat="44.35986782856647" lon="8.581400555431859"><ele>8.0</ele><time>2026-04-24T15:29:43Z</time></trkpt><trkpt lat="44.359851579609746" lon="8.581279680989384"><ele>8.0</ele><time>2026-04-24T15:29:44Z</time></trkpt><trkpt lat="44.359834326864565" lon="8.5811550714203"><ele>8.0</ele><time>2026-04-24T15:29:45Z</time></trkpt><trkpt lat="44.35981832976054" lon="8.58102661128774"><ele>8.0</ele><time>2026-04-24T15:29:46Z</time></trkpt><trkpt lat="44.35980614002835" lon="8.58089959561553"><ele>8.0</ele><time>2026-04-24T15:29:47Z</time></trkpt><trkpt lat="44.35979060466473" lon="8.580764833528644"><ele>8.600000000000001</ele><time>2026-04-24T15:29:48Z</time></trkpt><trkpt lat="44.359776317264505" lon="8.580640991888872"><ele>9.200000000000001</ele><time>2026-04-24T15:29:49Z</time></trkpt><trkpt lat="44.35975694271844" lon="8.580512609360733"><ele>9.8</ele><time>2026-04-24T15:29:50Z</time></trkpt><trkpt lat="44.35973958364027" lon="8.580381304658745"><ele>10.4</ele><time>2026-04-24T15:29:51Z</time></trkpt><trkpt lat="44.35971798919875" lon="8.580248021313043"><ele>11.0</ele><time>2026-04-24T15:29:52Z</time></trkpt><trkpt lat="44.35969143223598" lon="8.580118340598611"><ele>10.666666666666666</ele><time>2026-04-24T15:29:53Z</time></trkpt><trkpt lat="44.35966769002512" lon="8.580001362922074"><ele>10.333333333333332</ele><time>2026-04-24T15:29:54Z</time></trkpt><trkpt lat="44.35964327609889" lon="8.579888955558959"><ele>10.0</ele><time>2026-04-24T15:29:55Z</time></trkpt><trkpt lat="44.359615683797884" lon="8.579776944354062"><ele>9.666666666666666</ele><time>2026-04-24T15:29:56Z</time></trkpt><trkpt lat="44.359590161913324" lon="8.579662658183791"><ele>9.333333333333334</ele><time>2026-04-24T15:29:57Z</time></trkpt><trkpt lat="44.35956287668099" lon="8.579548229007889"><ele>9.0</ele><time>2026-04-24T15:29:58Z</time></trkpt><trkpt lat="44.35953543257137" lon="8.579425978662716"><ele>9.0</ele><time>2026-04-24T15:29:59Z</time></trkpt><trkpt lat="44.35950556973835" lon="8.579302107830125"><ele>9.0</ele><time>2026-04-24T15:30:00Z</time></trkpt><trkpt lat="44.359479454874865" lon="8.579183930187561"><ele>9.0</ele><time>2026-04-24T15:30:01Z</time></trkpt><trkpt lat="44.35945724484941" lon="8.579070879119794"><ele>9.0</ele><time>2026-04-24T15:30:02Z</time></trkpt><trkpt lat="44.35943288043711" lon="8.578955406678642"><ele>9.0</ele><time>2026-04-24T15:30:03Z</time></trkpt><trkpt lat="44.35941215505823" lon="8.578832635303506"><ele>9.0</ele><time>2026-04-24T15:30:04Z</time></trkpt><trkpt lat="44.35939670998232" lon="8.578718023511529"><ele>8.5</ele><time>2026-04-24T15:30:05Z</time></trkpt><trkpt lat="44.359390485940494" lon="8.578613721077504"><ele>8.0</ele><time>2026-04-24T15:30:06Z</time></trkpt><trkpt lat="44.35938730570969" lon="8.578503176929019"><ele>7.5</ele><time>2026-04-24T15:30:07Z</time></trkpt><trkpt lat="44.35939159153397" lon="8.578399875630785"><ele>7.0</ele><time>2026-04-24T15:30:08Z</time></trkpt><trkpt lat="44.359396312969984" lon="8.57830550500538"><ele>6.5</ele><time>2026-04-24T15:30:09Z</time></trkpt><trkpt lat="44.35940564058062" lon="8.578160808406638"><ele>6.0</ele><time>2026-04-24T15:30:11Z</time></trkpt><trkpt lat="44.35940761260587" lon="8.578062764248077"><ele>6.0</ele><time>2026-04-24T15:30:13Z</time></trkpt><trkpt lat="44.35940152872948" lon="8.577974194464137"><ele>6.0</ele><time>2026-04-24T15:30:16Z</time></trkpt><trkpt lat="44.35940119081252" lon="8.577875842292718"><ele>6.0</ele><time>2026-04-24T15:30:19Z</time></trkpt><trkpt lat="44.35938497402043" lon="8.577737786765224"><ele>6.0</ele><time>2026-04-24T15:30:22Z</time></trkpt><trkpt lat="44.3593757731566" lon="8.577640608972033"><ele>6.0</ele><time>2026-04-24T15:30:24Z</time></trkpt><trkpt lat="44.35937731189932" lon="8.577552272102508"><ele>6.0</ele><time>2026-04-24T15:30:30.001Z</time></trkpt><trkpt lat="44.35941518670367" lon="8.577437595697003"><ele>5.6</ele><time>2026-04-24T15:30:35Z</time></trkpt><trkpt lat="44.35942352540291" lon="8.577339367705575"><ele>5.199999999999999</ele><time>2026-04-24T15:30:37Z</time></trkpt><trkpt lat="44.35937440002765" lon="8.577241617638515"><ele>4.800000000000001</ele><time>2026-04-24T15:30:39Z</time></trkpt><trkpt lat="44.359300626225654" lon="8.577147510871724"><ele>4.4</ele><time>2026-04-24T15:30:41Z</time></trkpt><trkpt lat="44.35924309365785" lon="8.577011244308283"><ele>4.0</ele><time>2026-04-24T15:30:43Z</time></trkpt><trkpt lat="44.35920960029068" lon="8.576866269492434"><ele>4.666666666666666</ele><time>2026-04-24T15:30:45Z</time></trkpt><trkpt lat="44.35917761788078" lon="8.576694529483175"><ele>5.333333333333333</ele><time>2026-04-24T15:30:47Z</time></trkpt><trkpt lat="44.35915873516882" lon="8.576605634317659"><ele>6.0</ele><time>2026-04-24T15:30:48Z</time></trkpt><trkpt lat="44.35913742785439" lon="8.576511178902281"><ele>6.666666666666666</ele><time>2026-04-24T15:30:49Z</time></trkpt><trkpt lat="44.359120671967865" lon="8.576413434533691"><ele>7.333333333333333</ele><time>2026-04-24T15:30:50Z</time></trkpt><trkpt lat="44.3591024424943" lon="8.576317713771049"><ele>8.0</ele><time>2026-04-24T15:30:51Z</time></trkpt><trkpt lat="44.359085876863006" lon="8.5762316535214"><ele>8.5</ele><time>2026-04-24T15:30:52Z</time></trkpt><trkpt lat="44.35906525875307" lon="8.576145586176516"><ele>9.0</ele><time>2026-04-24T15:30:53Z</time></trkpt><trkpt lat="44.3590461912807" lon="8.576053447524329"><ele>9.5</ele><time>2026-04-24T15:30:54Z</time></trkpt><trkpt lat="44.3590213585123" lon="8.575891881684804"><ele>10.0</ele><time>2026-04-24T15:30:56Z</time></trkpt><trkpt lat="44.35900221587385" lon="8.57580532682548"><ele>10.5</ele><time>2026-04-24T15:30:57Z</time></trkpt><trkpt lat="44.35898426716614" lon="8.575709605460807"><ele>11.0</ele><time>2026-04-24T15:30:58Z</time></trkpt><trkpt lat="44.358967941337056" lon="8.575613369413725"><ele>11.0</ele><time>2026-04-24T15:30:59Z</time></trkpt><trkpt lat="44.358952249966954" lon="8.575522095506328"><ele>11.0</ele><time>2026-04-24T15:31:00Z</time></trkpt><trkpt lat="44.35893387220377" lon="8.575428098724661"><ele>11.0</ele><time>2026-04-24T15:31:01Z</time></trkpt><trkpt lat="44.358901835134496" lon="8.575259136052438"><ele>11.0</ele><time>2026-04-24T15:31:03Z</time></trkpt><trkpt lat="44.35888239890822" lon="8.57516786398218"><ele>11.0</ele><time>2026-04-24T15:31:04Z</time></trkpt><trkpt lat="44.358864454739994" lon="8.575077192660018"><ele>11.0</ele><time>2026-04-24T15:31:05Z</time></trkpt><trkpt lat="44.35884622085186" lon="8.574989898062142"><ele>9.833333333333332</ele><time>2026-04-24T15:31:06Z</time></trkpt><trkpt lat="44.3588325082056" lon="8.574902586455202"><ele>8.666666666666666</ele><time>2026-04-24T15:31:07Z</time></trkpt><trkpt lat="44.35880653056066" lon="8.57477349977602"><ele>7.5</ele><time>2026-04-24T15:31:09Z</time></trkpt><trkpt lat="44.358788768146255" lon="8.574681599311944"><ele>6.333333333333333</ele><time>2026-04-24T15:31:13Z</time></trkpt><trkpt lat="44.35877680802585" lon="8.574568392999291"><ele>5.166666666666666</ele><time>2026-04-24T15:31:19Z</time></trkpt><trkpt lat="44.35876236247722" lon="8.574474791022748"><ele>4.0</ele><time>2026-04-24T15:31:21Z</time></trkpt><trkpt lat="44.358739956875866" lon="8.574348712283486"><ele>4.0</ele><time>2026-04-24T15:31:23Z</time></trkpt><trkpt lat="44.358712054457" lon="8.574220860744742"><ele>4.0</ele><time>2026-04-24T15:31:25Z</time></trkpt><trkpt lat="44.35868620449698" lon="8.574067782402908"><ele>4.0</ele><time>2026-04-24T15:31:27Z</time></trkpt><trkpt lat="44.358669514798095" lon="8.573981582547301"><ele>4.0</ele><time>2026-04-24T15:31:28Z</time></trkpt><trkpt lat="44.35863185650476" lon="8.57382181582991"><ele>4.0</ele><time>2026-04-24T15:31:30Z</time></trkpt><trkpt lat="44.358607399787715" lon="8.573733721823135"><ele>4.571428571428571</ele><time>2026-04-24T15:31:31Z</time></trkpt><trkpt lat="44.35858203652775" lon="8.573635519973191"><ele>5.142857142857142</ele><time>2026-04-24T15:31:32Z</time></trkpt><trkpt lat="44.3585622471023" lon="8.57353556209328"><ele>5.7142857142857135</ele><time>2026-04-24T15:31:33Z</time></trkpt><trkpt lat="44.35853832576958" lon="8.5734436142225"><ele>6.285714285714286</ele><time>2026-04-24T15:31:34Z</time></trkpt><trkpt lat="44.358514702994064" lon="8.573349961019678"><ele>6.857142857142856</ele><time>2026-04-24T15:31:35Z</time></trkpt><trkpt lat="44.35848915358065" lon="8.573254409451657"><ele>7.428571428571428</ele><time>2026-04-24T15:31:36Z</time></trkpt><trkpt lat="44.35846104645376" lon="8.573161711247433"><ele>8.0</ele><time>2026-04-24T15:31:37Z</time></trkpt><trkpt lat="44.35843853977009" lon="8.573075119338393"><ele>7.999999999999999</ele><time>2026-04-24T15:31:38Z</time></trkpt><trkpt lat="44.358409713966225" lon="8.572986953625072"><ele>8.0</ele><time>2026-04-24T15:31:39Z</time></trkpt><trkpt lat="44.358380796435256" lon="8.572898768444134"><ele>8.0</ele><time>2026-04-24T15:31:40Z</time></trkpt><trkpt lat="44.3583518614141" lon="8.5728091434683"><ele>8.0</ele><time>2026-04-24T15:31:41Z</time></trkpt><trkpt lat="44.35831736478475" lon="8.572725956728558"><ele>7.999999999999999</ele><time>2026-04-24T15:31:42Z</time></trkpt><trkpt lat="44.35825645067844" lon="8.57256923532079"><ele>8.0</ele><time>2026-04-24T15:31:44Z</time></trkpt><trkpt lat="44.35822181183017" lon="8.57248512857197"><ele>7.800000000000001</ele><time>2026-04-24T15:31:45Z</time></trkpt><trkpt lat="44.35818819718068" lon="8.572403902971248"><ele>7.6000000000000005</ele><time>2026-04-24T15:31:46Z</time></trkpt><trkpt lat="44.3581388766199" lon="8.572273329577747"><ele>7.3999999999999995</ele><time>2026-04-24T15:31:48Z</time></trkpt><trkpt lat="44.3580944171315" lon="8.572159179957701"><ele>7.199999999999999</ele><time>2026-04-24T15:31:50Z</time></trkpt><trkpt lat="44.35805628852357" lon="8.572059381869177"><ele>7.0</ele><time>2026-04-24T15:31:52Z</time></trkpt><trkpt lat="44.35799756395612" lon="8.571939991232009"><ele>7.0</ele><time>2026-04-24T15:31:54Z</time></trkpt><trkpt lat="44.35793917173684" lon="8.571799671951082"><ele>6.999999999999999</ele><time>2026-04-24T15:31:56Z</time></trkpt><trkpt lat="44.357880544963095" lon="8.571640742812551"><ele>6.999999999999999</ele><time>2026-04-24T15:31:58Z</time></trkpt><trkpt lat="44.357843011557456" lon="8.571551301935463"><ele>7.0</ele><time>2026-04-24T15:31:59Z</time></trkpt><trkpt lat="44.35780587729366" lon="8.571465456528218"><ele>7.0</ele><time>2026-04-24T15:32:00Z</time></trkpt><trkpt lat="44.357768134304784" lon="8.571377986047198"><ele>7.000000000000001</ele><time>2026-04-24T15:32:01Z</time></trkpt><trkpt lat="44.35772545348829" lon="8.571286296733248"><ele>7.0</ele><time>2026-04-24T15:32:02Z</time></trkpt><trkpt lat="44.35768261468705" lon="8.571192782723225"><ele>7.0</ele><time>2026-04-24T15:32:03Z</time></trkpt><trkpt lat="44.357639565099845" lon="8.571100304850198"><ele>7.0</ele><time>2026-04-24T15:32:04Z</time></trkpt><trkpt lat="44.35760205143532" lon="8.571005894201031"><ele>7.000000000000001</ele><time>2026-04-24T15:32:05Z</time></trkpt><trkpt lat="44.357565759062645" lon="8.57092203956368"><ele>7.0</ele><time>2026-04-24T15:32:06Z</time></trkpt><trkpt lat="44.35750065722304" lon="8.570782189207463"><ele>7.166666666666667</ele><time>2026-04-24T15:32:08Z</time></trkpt><trkpt lat="44.357453957723294" lon="8.570671168005314"><ele>7.333333333333334</ele><time>2026-04-24T15:32:10Z</time></trkpt><trkpt lat="44.35739587924569" lon="8.57054458566923"><ele>7.5</ele><time>2026-04-24T15:32:12Z</time></trkpt><trkpt lat="44.35735958461256" lon="8.570466796434372"><ele>7.666666666666666</ele><time>2026-04-24T15:32:13Z</time></trkpt><trkpt lat="44.35732880942842" lon="8.57038919272554"><ele>7.833333333333333</ele><time>2026-04-24T15:32:14Z</time></trkpt><trkpt lat="44.35729407448926" lon="8.570303914352436"><ele>8.0</ele><time>2026-04-24T15:32:15Z</time></trkpt><trkpt lat="44.35725292082797" lon="8.570211820066092"><ele>7.999999999999999</ele><time>2026-04-24T15:32:16Z</time></trkpt><trkpt lat="44.35720776547466" lon="8.57011209963947"><ele>8.0</ele><time>2026-04-24T15:32:17Z</time></trkpt><trkpt lat="44.35716246018117" lon="8.570007556157796"><ele>8.0</ele><time>2026-04-24T15:32:18Z</time></trkpt><trkpt lat="44.357122335574694" lon="8.569908205101298"><ele>8.0</ele><time>2026-04-24T15:32:19Z</time></trkpt><trkpt lat="44.35707574912599" lon="8.569805094651032"><ele>7.999999999999999</ele><time>2026-04-24T15:32:20Z</time></trkpt><trkpt lat="44.35703245197042" lon="8.56970250419698"><ele>8.0</ele><time>2026-04-24T15:32:21Z</time></trkpt><trkpt lat="44.35699101043171" lon="8.569601312270688"><ele>7.666666666666666</ele><time>2026-04-24T15:32:22Z</time></trkpt><trkpt lat="44.35695285906537" lon="8.569505457740505"><ele>7.333333333333333</ele><time>2026-04-24T15:32:23Z</time></trkpt><trkpt lat="44.356911032181294" lon="8.569407403037506"><ele>7.0</ele><time>2026-04-24T15:32:24Z</time></trkpt><trkpt lat="44.35687131088761" lon="8.569318096671745"><ele>6.666666666666666</ele><time>2026-04-24T15:32:25Z</time></trkpt><trkpt lat="44.35683370120073" lon="8.569237928979765"><ele>6.333333333333333</ele><time>2026-04-24T15:32:26Z</time></trkpt><trkpt lat="44.35678971476952" lon="8.569157498535827"><ele>6.0</ele><time>2026-04-24T15:32:27Z</time></trkpt><trkpt lat="44.3567448877605" lon="8.569075648509989"><ele>6.0</ele><time>2026-04-24T15:32:28Z</time></trkpt><trkpt lat="44.35669612929224" lon="8.568984210316131"><ele>6.0</ele><time>2026-04-24T15:32:29Z</time></trkpt><trkpt lat="44.35664774320983" lon="8.568885807993686"><ele>6.0</ele><time>2026-04-24T15:32:30Z</time></trkpt><trkpt lat="44.35660361200002" lon="8.56879543311565"><ele>6.0</ele><time>2026-04-24T15:32:31Z</time></trkpt><trkpt lat="44.35655996750008" lon="8.568699900992415"><ele>6.0</ele><time>2026-04-24T15:32:32Z</time></trkpt><trkpt lat="44.3565137054253" lon="8.568602033520731"><ele>6.0</ele><time>2026-04-24T15:32:33Z</time></trkpt><trkpt lat="44.35646393123732" lon="8.56850037020544"><ele>5.833333333333333</ele><time>2026-04-24T15:32:34Z</time></trkpt><trkpt lat="44.35641174063119" lon="8.568402983580436"><ele>5.666666666666667</ele><time>2026-04-24T15:32:35Z</time></trkpt><trkpt lat="44.35636083515223" lon="8.568313327571953"><ele>5.5</ele><time>2026-04-24T15:32:36Z</time></trkpt><trkpt lat="44.35631209327588" lon="8.568217198549103"><ele>5.333333333333334</ele><time>2026-04-24T15:32:37Z</time></trkpt><trkpt lat="44.356265948951936" lon="8.56812422669846"><ele>5.166666666666667</ele><time>2026-04-24T15:32:38Z</time></trkpt><trkpt lat="44.3562143125738" lon="8.5680358240353"><ele>5.0</ele><time>2026-04-24T15:32:39Z</time></trkpt><trkpt lat="44.35617508066939" lon="8.567930016082974"><ele>5.4</ele><time>2026-04-24T15:32:40Z</time></trkpt><trkpt lat="44.356119233486226" lon="8.567826204988659"><ele>5.8</ele><time>2026-04-24T15:32:41Z</time></trkpt><trkpt lat="44.356056727416046" lon="8.56771679381148"><ele>6.199999999999999</ele><time>2026-04-24T15:32:42Z</time></trkpt><trkpt lat="44.35599217009797" lon="8.56760929497357"><ele>6.6</ele><time>2026-04-24T15:32:43Z</time></trkpt><trkpt lat="44.35592527842744" lon="8.567501891700253"><ele>7.0</ele><time>2026-04-24T15:32:44Z</time></trkpt><trkpt lat="44.35585239220468" lon="8.567389482741728"><ele>7.0</ele><time>2026-04-24T15:32:45Z</time></trkpt><trkpt lat="44.35577322454265" lon="8.567273579185448"><ele>6.999999999999999</ele><time>2026-04-24T15:32:46Z</time></trkpt><trkpt lat="44.35568674335047" lon="8.567152840651747"><ele>6.999999999999999</ele><time>2026-04-24T15:32:47Z</time></trkpt><trkpt lat="44.35560426938886" lon="8.56704585941517"><ele>7.0</ele><time>2026-04-24T15:32:48Z</time></trkpt><trkpt lat="44.35553083659816" lon="8.566950605938054"><ele>7.0</ele><time>2026-04-24T15:32:49Z</time></trkpt><trkpt lat="44.35545443562354" lon="8.566862015915717"><ele>6.6</ele><time>2026-04-24T15:32:50Z</time></trkpt><trkpt lat="44.35538370553835" lon="8.56676983431288"><ele>6.199999999999999</ele><time>2026-04-24T15:32:51Z</time></trkpt><trkpt lat="44.35531260165288" lon="8.566680670283484"><ele>5.8</ele><time>2026-04-24T15:32:52Z</time></trkpt><trkpt lat="44.35523563088694" lon="8.56658357584704"><ele>5.4</ele><time>2026-04-24T15:32:53Z</time></trkpt><trkpt lat="44.355162633772714" lon="8.566490994308209"><ele>5.0</ele><time>2026-04-24T15:32:54Z</time></trkpt><trkpt lat="44.355085286741335" lon="8.566393343764721"><ele>5.0</ele><time>2026-04-24T15:32:55Z</time></trkpt><trkpt lat="44.35500603390274" lon="8.56629244878607"><ele>5.0</ele><time>2026-04-24T15:32:56Z</time></trkpt><trkpt lat="44.354931505867455" lon="8.566197997560119"><ele>5.0</ele><time>2026-04-24T15:32:57Z</time></trkpt><trkpt lat="44.35486223456253" lon="8.566104673172893"><ele>5.0</ele><time>2026-04-24T15:32:58Z</time></trkpt><trkpt lat="44.354796324606006" lon="8.566020594524115"><ele>5.0</ele><time>2026-04-24T15:32:59Z</time></trkpt><trkpt lat="44.354733108217" lon="8.565938134921025"><ele>5.0</ele><time>2026-04-24T15:33:00Z</time></trkpt><trkpt lat="44.35467069017949" lon="8.565862082270765"><ele>5.0</ele><time>2026-04-24T15:33:01Z</time></trkpt><trkpt lat="44.3546110003628" lon="8.565786074333998"><ele>5.0</ele><time>2026-04-24T15:33:02Z</time></trkpt><trkpt lat="44.35455111072058" lon="8.565711859750285"><ele>5.0</ele><time>2026-04-24T15:33:03Z</time></trkpt><trkpt lat="44.35449339552356" lon="8.56564239737049"><ele>5.0</ele><time>2026-04-24T15:33:04Z</time></trkpt><trkpt lat="44.35443595673504" lon="8.565581451539646"><ele>5.0</ele><time>2026-04-24T15:33:05Z</time></trkpt><trkpt lat="44.35438424867497" lon="8.565529136507218"><ele>5.0</ele><time>2026-04-24T15:33:06Z</time></trkpt><trkpt lat="44.354320260354584" lon="8.565463837210014"><ele>5.0</ele><time>2026-04-24T15:33:08Z</time></trkpt><trkpt lat="44.354258563887946" lon="8.56541263377826"><ele>5.0</ele><time>2026-04-24T15:33:11Z</time></trkpt><trkpt lat="44.354191490656376" lon="8.565352947716802"><ele>5.0</ele><time>2026-04-24T15:33:15Z</time></trkpt><trkpt lat="44.35411813023806" lon="8.56528155455028"><ele>5.0</ele><time>2026-04-24T15:33:17Z</time></trkpt><trkpt lat="44.35400239379809" lon="8.565208922447251"><ele>5.0</ele><time>2026-04-24T15:33:19Z</time></trkpt><trkpt lat="44.353941229567134" lon="8.565167607809737"><ele>5.166666666666667</ele><time>2026-04-24T15:33:20Z</time></trkpt><trkpt lat="44.35387204016866" lon="8.565124814427662"><ele>5.333333333333334</ele><time>2026-04-24T15:33:21Z</time></trkpt><trkpt lat="44.35379471284781" lon="8.565085682890999"><ele>5.5</ele><time>2026-04-24T15:33:22Z</time></trkpt><trkpt lat="44.35372225468611" lon="8.565047436230175"><ele>5.666666666666667</ele><time>2026-04-24T15:33:23Z</time></trkpt><trkpt lat="44.3536424830277" lon="8.565021606806654"><ele>5.833333333333333</ele><time>2026-04-24T15:33:24Z</time></trkpt><trkpt lat="44.35355461545098" lon="8.565006248391725"><ele>6.0</ele><time>2026-04-24T15:33:25Z</time></trkpt><trkpt lat="44.35346473941177" lon="8.564993153177717"><ele>6.0</ele><time>2026-04-24T15:33:26Z</time></trkpt><trkpt lat="44.35337293445424" lon="8.564972942924747"><ele>6.0</ele><time>2026-04-24T15:33:27Z</time></trkpt><trkpt lat="44.353277458337004" lon="8.564943833489462"><ele>6.0</ele><time>2026-04-24T15:33:28Z</time></trkpt><trkpt lat="44.353192746780785" lon="8.564913358106757"><ele>6.0</ele><time>2026-04-24T15:33:29Z</time></trkpt><trkpt lat="44.353102232458305" lon="8.564887874190763"><ele>6.0</ele><time>2026-04-24T15:33:30Z</time></trkpt><trkpt lat="44.353011926874224" lon="8.564871628563747"><ele>7.666666666666666</ele><time>2026-04-24T15:33:31Z</time></trkpt><trkpt lat="44.352933411768205" lon="8.564868505500431"><ele>9.333333333333332</ele><time>2026-04-24T15:33:32Z</time></trkpt><trkpt lat="44.35285277486917" lon="8.56487774762868"><ele>11.0</ele><time>2026-04-24T15:33:33Z</time></trkpt><trkpt lat="44.352774065905585" lon="8.564903942411341"><ele>12.666666666666666</ele><time>2026-04-24T15:33:34Z</time></trkpt><trkpt lat="44.35269053447558" lon="8.564942430099277"><ele>14.333333333333332</ele><time>2026-04-24T15:33:35Z</time></trkpt><trkpt lat="44.3526021738545" lon="8.564991459077156"><ele>16.0</ele><time>2026-04-24T15:33:36Z</time></trkpt><trkpt lat="44.35250819739146" lon="8.565043491757912"><ele>16.0</ele><time>2026-04-24T15:33:37Z</time></trkpt><trkpt lat="44.35241639043677" lon="8.565096008837875"><ele>16.0</ele><time>2026-04-24T15:33:38Z</time></trkpt><trkpt lat="44.35231826004805" lon="8.565141272203478"><ele>16.0</ele><time>2026-04-24T15:33:39Z</time></trkpt><trkpt lat="44.3522270369171" lon="8.565173580482469"><ele>16.0</ele><time>2026-04-24T15:33:40Z</time></trkpt><trkpt lat="44.35213075252293" lon="8.565187670130385"><ele>16.0</ele><time>2026-04-24T15:33:41Z</time></trkpt><trkpt lat="44.35203461662028" lon="8.565198364895343"><ele>18.0</ele><time>2026-04-24T15:33:42Z</time></trkpt><trkpt lat="44.351944169868155" lon="8.565212150031611"><ele>20.0</ele><time>2026-04-24T15:33:43Z</time></trkpt><trkpt lat="44.35185875824963" lon="8.56523342927529"><ele>22.0</ele><time>2026-04-24T15:33:44Z</time></trkpt><trkpt lat="44.35177672604022" lon="8.565262484395356"><ele>24.0</ele><time>2026-04-24T15:33:45Z</time></trkpt><trkpt lat="44.35169164332362" lon="8.56529750795016"><ele>26.000000000000004</ele><time>2026-04-24T15:33:46Z</time></trkpt><trkpt lat="44.351612119407235" lon="8.565326718038571"><ele>28.0</ele><time>2026-04-24T15:33:47Z</time></trkpt><trkpt lat="44.35153658185005" lon="8.565334471033365"><ele>28.0</ele><time>2026-04-24T15:33:48Z</time></trkpt><trkpt lat="44.35145705199585" lon="8.565314594986441"><ele>28.0</ele><time>2026-04-24T15:33:49Z</time></trkpt><trkpt lat="44.351381099362584" lon="8.565290873767843"><ele>28.0</ele><time>2026-04-24T15:33:50Z</time></trkpt><trkpt lat="44.351316923481484" lon="8.565277167375038"><ele>28.0</ele><time>2026-04-24T15:33:51Z</time></trkpt><trkpt lat="44.3512459269678" lon="8.565289676027268"><ele>28.0</ele><time>2026-04-24T15:33:52Z</time></trkpt><trkpt lat="44.35117783623521" lon="8.56532797174074"><ele>28.0</ele><time>2026-04-24T15:33:53Z</time></trkpt><trkpt lat="44.351117771840116" lon="8.565393703615154"><ele>28.0</ele><time>2026-04-24T15:33:54Z</time></trkpt><trkpt lat="44.35106548544626" lon="8.56548746034235"><ele>25.599999999999998</ele><time>2026-04-24T15:33:55Z</time></trkpt><trkpt lat="44.351015444415026" lon="8.565596676212238"><ele>23.199999999999996</ele><time>2026-04-24T15:33:56Z</time></trkpt><trkpt lat="44.35096295934595" lon="8.56571066059924"><ele>20.8</ele><time>2026-04-24T15:33:57Z</time></trkpt><trkpt lat="44.35090119411658" lon="8.565827942334579"><ele>18.4</ele><time>2026-04-24T15:33:58Z</time></trkpt><trkpt lat="44.350830919755914" lon="8.565943896774362"><ele>16.0</ele><time>2026-04-24T15:33:59Z</time></trkpt><trkpt lat="44.35076293517529" lon="8.566050069870812"><ele>16.0</ele><time>2026-04-24T15:34:00Z</time></trkpt><trkpt lat="44.35069150759399" lon="8.566156871659505"><ele>16.0</ele><time>2026-04-24T15:34:01Z</time></trkpt><trkpt lat="44.35062261660449" lon="8.566260181301145"><ele>16.0</ele><time>2026-04-24T15:34:02Z</time></trkpt><trkpt lat="44.35055073156539" lon="8.566358279569215"><ele>16.0</ele><time>2026-04-24T15:34:03Z</time></trkpt><trkpt lat="44.350477621539945" lon="8.566445780881113"><ele>16.0</ele><time>2026-04-24T15:34:04Z</time></trkpt><trkpt lat="44.350395159975726" lon="8.566520887876816"><ele>17.200000000000003</ele><time>2026-04-24T15:34:05Z</time></trkpt><trkpt lat="44.350308756937935" lon="8.566588417764438"><ele>18.400000000000002</ele><time>2026-04-24T15:34:06Z</time></trkpt><trkpt lat="44.35021733326912" lon="8.566652832156281"><ele>19.6</ele><time>2026-04-24T15:34:07Z</time></trkpt><trkpt lat="44.350127442568635" lon="8.566710712841024"><ele>20.8</ele><time>2026-04-24T15:34:08Z</time></trkpt><trkpt lat="44.3500323754523" lon="8.566764738656984"><ele>22.0</ele><time>2026-04-24T15:34:09Z</time></trkpt><trkpt lat="44.349936188392746" lon="8.5668162953228"><ele>22.0</ele><time>2026-04-24T15:34:10Z</time></trkpt><trkpt lat="44.349840580436364" lon="8.56686179906961"><ele>22.0</ele><time>2026-04-24T15:34:11Z</time></trkpt><trkpt lat="44.34975237019832" lon="8.566894233559948"><ele>22.0</ele><time>2026-04-24T15:34:12Z</time></trkpt><trkpt lat="44.349663253504396" lon="8.566915490956763"><ele>22.0</ele><time>2026-04-24T15:34:13Z</time></trkpt><trkpt lat="44.349574144249985" lon="8.56691358390244"><ele>22.0</ele><time>2026-04-24T15:34:14Z</time></trkpt><trkpt lat="44.34948765600066" lon="8.566904946775812"><ele>21.833333333333332</ele><time>2026-04-24T15:34:15Z</time></trkpt><trkpt lat="44.3494099643052" lon="8.5668937724562"><ele>21.666666666666664</ele><time>2026-04-24T15:34:16Z</time></trkpt><trkpt lat="44.34933690849214" lon="8.566868015717615"><ele>21.5</ele><time>2026-04-24T15:34:17Z</time></trkpt><trkpt lat="44.349259316093466" lon="8.566825601854264"><ele>21.333333333333332</ele><time>2026-04-24T15:34:18Z</time></trkpt><trkpt lat="44.349185964154515" lon="8.566773628654467"><ele>21.166666666666668</ele><time>2026-04-24T15:34:19Z</time></trkpt><trkpt lat="44.34911276753411" lon="8.566721882661513"><ele>21.0</ele><time>2026-04-24T15:34:20Z</time></trkpt><trkpt lat="44.34904633176934" lon="8.566666713812248"><ele>21.0</ele><time>2026-04-24T15:34:21Z</time></trkpt><trkpt lat="44.34898904556912" lon="8.566605266164695"><ele>21.0</ele><time>2026-04-24T15:34:22Z</time></trkpt><trkpt lat="44.34894090874802" lon="8.566537511030427"><ele>21.0</ele><time>2026-04-24T15:34:23Z</time></trkpt><trkpt lat="44.348910959503876" lon="8.566454478084216"><ele>21.0</ele><time>2026-04-24T15:34:24Z</time></trkpt><trkpt lat="44.348892355134446" lon="8.56634562071417"><ele>21.0</ele><time>2026-04-24T15:34:25Z</time></trkpt><trkpt lat="44.348884631252645" lon="8.56623521462211"><ele>21.0</ele><time>2026-04-24T15:34:26Z</time></trkpt><trkpt lat="44.348882206890785" lon="8.566116165662088"><ele>17.8</ele><time>2026-04-24T15:34:27Z</time></trkpt><trkpt lat="44.34886998167135" lon="8.566003156680603"><ele>14.600000000000001</ele><time>2026-04-24T15:34:28Z</time></trkpt><trkpt lat="44.34885030636171" lon="8.56587817808347"><ele>11.4</ele><time>2026-04-24T15:34:29Z</time></trkpt><trkpt lat="44.34881819377806" lon="8.565747534281789"><ele>8.2</ele><time>2026-04-24T15:34:30Z</time></trkpt><trkpt lat="44.348786753299045" lon="8.56562717365836"><ele>5.0</ele><time>2026-04-24T15:34:31Z</time></trkpt><trkpt lat="44.34875316338707" lon="8.565499066770734"><ele>5.0</ele><time>2026-04-24T15:34:32Z</time></trkpt><trkpt lat="44.34872171605216" lon="8.565372386506732"><ele>5.0</ele><time>2026-04-24T15:34:33Z</time></trkpt><trkpt lat="44.34868938111928" lon="8.56525320885134"><ele>5.0</ele><time>2026-04-24T15:34:34Z</time></trkpt><trkpt lat="44.34865671257175" lon="8.565134501355812"><ele>5.0</ele><time>2026-04-24T15:34:35Z</time></trkpt><trkpt lat="44.348624218618646" lon="8.565011686279965"><ele>5.0</ele><time>2026-04-24T15:34:36Z</time></trkpt><trkpt lat="44.34858717669134" lon="8.564908277301955"><ele>5.5</ele><time>2026-04-24T15:34:37Z</time></trkpt><trkpt lat="44.34853809594014" lon="8.564801882845716"><ele>6.0</ele><time>2026-04-24T15:34:38Z</time></trkpt><trkpt lat="44.34848089783653" lon="8.564713065352032"><ele>6.5</ele><time>2026-04-24T15:34:39Z</time></trkpt><trkpt lat="44.348414936439966" lon="8.564639422193219"><ele>7.0</ele><time>2026-04-24T15:34:40Z</time></trkpt><trkpt lat="44.348338549352945" lon="8.564581130175435"><ele>7.499999999999999</ele><time>2026-04-24T15:34:41Z</time></trkpt><trkpt lat="44.34825669453857" lon="8.564540908090018"><ele>8.0</ele><time>2026-04-24T15:34:42Z</time></trkpt><trkpt lat="44.348172743353196" lon="8.564521891176112"><ele>10.0</ele><time>2026-04-24T15:34:43Z</time></trkpt><trkpt lat="44.34808240771996" lon="8.56451466981252"><ele>12.0</ele><time>2026-04-24T15:34:44Z</time></trkpt><trkpt lat="44.347991193839846" lon="8.564514030763672"><ele>14.0</ele><time>2026-04-24T15:34:45Z</time></trkpt><trkpt lat="44.34789698916137" lon="8.564517161052164"><ele>16.0</ele><time>2026-04-24T15:34:46Z</time></trkpt><trkpt lat="44.34780429944155" lon="8.564512215626294"><ele>18.0</ele><time>2026-04-24T15:34:47Z</time></trkpt><trkpt lat="44.34770707007325" lon="8.564505161048302"><ele>20.2</ele><time>2026-04-24T15:34:48Z</time></trkpt><trkpt lat="44.34762297648748" lon="8.564492820162004"><ele>22.4</ele><time>2026-04-24T15:34:49Z</time></trkpt><trkpt lat="44.34753511524016" lon="8.564467794968511"><ele>24.599999999999998</ele><time>2026-04-24T15:34:50Z</time></trkpt><trkpt lat="44.347446342557134" lon="8.564430641036656"><ele>26.8</ele><time>2026-04-24T15:34:51Z</time></trkpt><trkpt lat="44.3473509600198" lon="8.564386065094112"><ele>29.0</ele><time>2026-04-24T15:34:52Z</time></trkpt><trkpt lat="44.347260397009784" lon="8.564342651707236"><ele>26.599999999999998</ele><time>2026-04-24T15:34:53Z</time></trkpt><trkpt lat="44.347159438263795" lon="8.564297174212326"><ele>24.2</ele><time>2026-04-24T15:34:54Z</time></trkpt><trkpt lat="44.3470687725987" lon="8.564255873292893"><ele>21.799999999999997</ele><time>2026-04-24T15:34:55Z</time></trkpt><trkpt lat="44.346972645606584" lon="8.564210264558467"><ele>19.4</ele><time>2026-04-24T15:34:56Z</time></trkpt><trkpt lat="44.346879931361364" lon="8.564164854063494"><ele>17.0</ele><time>2026-04-24T15:34:57Z</time></trkpt><trkpt lat="44.346796506453664" lon="8.564121693964955"><ele>17.0</ele><time>2026-04-24T15:34:58Z</time></trkpt><trkpt lat="44.346718395899764" lon="8.564074757216613"><ele>17.0</ele><time>2026-04-24T15:34:59Z</time></trkpt><trkpt lat="44.346656310228106" lon="8.564028903932014"><ele>17.0</ele><time>2026-04-24T15:35:00Z</time></trkpt><trkpt lat="44.34657974443745" lon="8.56391560983707"><ele>17.0</ele><time>2026-04-24T15:35:02Z</time></trkpt><trkpt lat="44.34656440799555" lon="8.563829844822422"><ele>17.0</ele><time>2026-04-24T15:35:03Z</time></trkpt><trkpt lat="44.34655667236259" lon="8.563734271699609"><ele>17.0</ele><time>2026-04-24T15:35:04Z</time></trkpt><trkpt lat="44.346548272536786" lon="8.56361896986912"><ele>17.666666666666668</ele><time>2026-04-24T15:35:05Z</time></trkpt><trkpt lat="44.346537347059815" lon="8.563508934265105"><ele>18.333333333333336</ele><time>2026-04-24T15:35:06Z</time></trkpt><trkpt lat="44.34652939538495" lon="8.563401713952132"><ele>19.0</ele><time>2026-04-24T15:35:07Z</time></trkpt><trkpt lat="44.34653128214665" lon="8.563297870831354"><ele>19.666666666666668</ele><time>2026-04-24T15:35:08Z</time></trkpt><trkpt lat="44.34655238360164" lon="8.563200858033895"><ele>20.333333333333332</ele><time>2026-04-24T15:35:09Z</time></trkpt><trkpt lat="44.346592310665464" lon="8.563103913503626"><ele>21.0</ele><time>2026-04-24T15:35:10Z</time></trkpt><trkpt lat="44.34664270377452" lon="8.563009429691357"><ele>21.0</ele><time>2026-04-24T15:35:11Z</time></trkpt><trkpt lat="44.34669470320831" lon="8.562909501235877"><ele>21.0</ele><time>2026-04-24T15:35:12Z</time></trkpt><trkpt lat="44.34674147784953" lon="8.56281656297809"><ele>21.0</ele><time>2026-04-24T15:35:13Z</time></trkpt><trkpt lat="44.34678678102879" lon="8.562724364169377"><ele>21.0</ele><time>2026-04-24T15:35:14Z</time></trkpt><trkpt lat="44.34681688655199" lon="8.562633223161196"><ele>21.0</ele><time>2026-04-24T15:35:15Z</time></trkpt><trkpt lat="44.34682844737443" lon="8.56253742252446"><ele>21.0</ele><time>2026-04-24T15:35:16Z</time></trkpt><trkpt lat="44.34681963607184" lon="8.56244022926224"><ele>20.666666666666668</ele><time>2026-04-24T15:35:17Z</time></trkpt><trkpt lat="44.34678481426765" lon="8.562339038313075"><ele>20.333333333333332</ele><time>2026-04-24T15:35:18Z</time></trkpt><trkpt lat="44.346732823520696" lon="8.562253908653348"><ele>20.0</ele><time>2026-04-24T15:35:19Z</time></trkpt><trkpt lat="44.34666684784616" lon="8.562180665589208"><ele>19.666666666666664</ele><time>2026-04-24T15:35:20Z</time></trkpt><trkpt lat="44.34658778022102" lon="8.562111204230597"><ele>19.333333333333332</ele><time>2026-04-24T15:35:21Z</time></trkpt><trkpt lat="44.34651626962106" lon="8.562036104961706"><ele>19.0</ele><time>2026-04-24T15:35:22Z</time></trkpt><trkpt lat="44.3464561181378" lon="8.561956635567238"><ele>19.666666666666664</ele><time>2026-04-24T15:35:23Z</time></trkpt><trkpt lat="44.3464017024186" lon="8.561868052126396"><ele>20.333333333333332</ele><time>2026-04-24T15:35:24Z</time></trkpt><trkpt lat="44.34635043509015" lon="8.561772553492991"><ele>21.0</ele><time>2026-04-24T15:35:25Z</time></trkpt><trkpt lat="44.34631045579548" lon="8.561672669529237"><ele>21.666666666666668</ele><time>2026-04-24T15:35:26Z</time></trkpt><trkpt lat="44.34628121326208" lon="8.561557253176275"><ele>22.333333333333336</ele><time>2026-04-24T15:35:27Z</time></trkpt><trkpt lat="44.34625395065628" lon="8.561432719689222"><ele>23.0</ele><time>2026-04-24T15:35:28Z</time></trkpt><trkpt lat="44.346226503285465" lon="8.56129730052302"><ele>20.75</ele><time>2026-04-24T15:35:29Z</time></trkpt><trkpt lat="44.34620370429428" lon="8.561153624590771"><ele>18.5</ele><time>2026-04-24T15:35:30Z</time></trkpt><trkpt lat="44.34617553546681" lon="8.560997761015944"><ele>16.25</ele><time>2026-04-24T15:35:31Z</time></trkpt><trkpt lat="44.34614746021312" lon="8.56083612767662"><ele>14.0</ele><time>2026-04-24T15:35:32Z</time></trkpt><trkpt lat="44.34611976022696" lon="8.560664508923175"><ele>14.0</ele><time>2026-04-24T15:35:33Z</time></trkpt><trkpt lat="44.34608808653402" lon="8.560490428597213"><ele>14.0</ele><time>2026-04-24T15:35:34Z</time></trkpt><trkpt lat="44.346063414230834" lon="8.560328868766014"><ele>14.0</ele><time>2026-04-24T15:35:35Z</time></trkpt><trkpt lat="44.34603615258667" lon="8.5601601736579"><ele>14.0</ele><time>2026-04-24T15:35:36Z</time></trkpt><trkpt lat="44.34601104951563" lon="8.559991918804133"><ele>14.0</ele><time>2026-04-24T15:35:37Z</time></trkpt><trkpt lat="44.34598975355895" lon="8.559819966877846"><ele>14.0</ele><time>2026-04-24T15:35:38Z</time></trkpt><trkpt lat="44.345976611804005" lon="8.559660437553864"><ele>14.0</ele><time>2026-04-24T15:35:39Z</time></trkpt><trkpt lat="44.34595582187557" lon="8.55949558211841"><ele>14.0</ele><time>2026-04-24T15:35:40Z</time></trkpt><trkpt lat="44.34593635245595" lon="8.559328390834215"><ele>14.399999999999999</ele><time>2026-04-24T15:35:41Z</time></trkpt><trkpt lat="44.34592010049521" lon="8.559166273888142"><ele>14.799999999999999</ele><time>2026-04-24T15:35:42Z</time></trkpt><trkpt lat="44.34590064766748" lon="8.559012161545963"><ele>15.200000000000001</ele><time>2026-04-24T15:35:43Z</time></trkpt><trkpt lat="44.345879928760155" lon="8.558870298599354"><ele>15.600000000000001</ele><time>2026-04-24T15:35:44Z</time></trkpt><trkpt lat="44.34585387259346" lon="8.558736963946071"><ele>16.0</ele><time>2026-04-24T15:35:45Z</time></trkpt><trkpt lat="44.34582604199156" lon="8.558611034256751"><ele>15.999999999999998</ele><time>2026-04-24T15:35:46Z</time></trkpt><trkpt lat="44.34578851224459" lon="8.55850520926433"><ele>16.0</ele><time>2026-04-24T15:35:47Z</time></trkpt><trkpt lat="44.34574113170566" lon="8.558405008312901"><ele>16.0</ele><time>2026-04-24T15:35:48Z</time></trkpt><trkpt lat="44.34568168937192" lon="8.558319290166226"><ele>16.0</ele><time>2026-04-24T15:35:49Z</time></trkpt><trkpt lat="44.34560651285965" lon="8.558243115451809"><ele>15.999999999999998</ele><time>2026-04-24T15:35:50Z</time></trkpt><trkpt lat="44.34552749194539" lon="8.558173497530698"><ele>16.0</ele><time>2026-04-24T15:35:51Z</time></trkpt><trkpt lat="44.34543818855849" lon="8.55810764468824"><ele>14.600000000000001</ele><time>2026-04-24T15:35:52Z</time></trkpt><trkpt lat="44.345351435761934" lon="8.558039545670075"><ele>13.200000000000001</ele><time>2026-04-24T15:35:53Z</time></trkpt><trkpt lat="44.34526774322105" lon="8.55796711216885"><ele>11.8</ele><time>2026-04-24T15:35:54Z</time></trkpt><trkpt lat="44.34519174489937" lon="8.55788830668349"><ele>10.4</ele><time>2026-04-24T15:35:55Z</time></trkpt><trkpt lat="44.345125149028405" lon="8.557812252811845"><ele>9.0</ele><time>2026-04-24T15:35:56Z</time></trkpt><trkpt lat="44.34506960699956" lon="8.557729399626352"><ele>9.0</ele><time>2026-04-24T15:35:57Z</time></trkpt><trkpt lat="44.34502825846855" lon="8.55764651039691"><ele>9.0</ele><time>2026-04-24T15:35:58Z</time></trkpt><trkpt lat="44.3450059024601" lon="8.557551379231313"><ele>9.0</ele><time>2026-04-24T15:35:59Z</time></trkpt><trkpt lat="44.344992384386565" lon="8.557440183929431"><ele>9.0</ele><time>2026-04-24T15:36:00Z</time></trkpt><trkpt lat="44.34498721472733" lon="8.55732240831523"><ele>9.0</ele><time>2026-04-24T15:36:01Z</time></trkpt><trkpt lat="44.344977503526714" lon="8.557193374784509"><ele>9.0</ele><time>2026-04-24T15:36:02Z</time></trkpt><trkpt lat="44.34497240199912" lon="8.557056395327484"><ele>9.8</ele><time>2026-04-24T15:36:03Z</time></trkpt><trkpt lat="44.34496802557377" lon="8.556912126534783"><ele>10.600000000000001</ele><time>2026-04-24T15:36:04Z</time></trkpt><trkpt lat="44.344969157980955" lon="8.556766230597935"><ele>11.4</ele><time>2026-04-24T15:36:05Z</time></trkpt><trkpt lat="44.34497780624488" lon="8.556621057420031"><ele>12.200000000000001</ele><time>2026-04-24T15:36:06Z</time></trkpt><trkpt lat="44.3449873473953" lon="8.556469374972004"><ele>13.0</ele><time>2026-04-24T15:36:07Z</time></trkpt><trkpt lat="44.34500215166264" lon="8.556316353921641"><ele>13.0</ele><time>2026-04-24T15:36:08Z</time></trkpt><trkpt lat="44.34501712402276" lon="8.55616742734031"><ele>13.0</ele><time>2026-04-24T15:36:09Z</time></trkpt><trkpt lat="44.345033043671805" lon="8.556009698062514"><ele>13.0</ele><time>2026-04-24T15:36:10Z</time></trkpt><trkpt lat="44.3450465262785" lon="8.55585568625644"><ele>13.0</ele><time>2026-04-24T15:36:11Z</time></trkpt><trkpt lat="44.345054426030565" lon="8.555701639973735"><ele>13.0</ele><time>2026-04-24T15:36:12Z</time></trkpt><trkpt lat="44.345055391564735" lon="8.555547495786321"><ele>13.0</ele><time>2026-04-24T15:36:13Z</time></trkpt><trkpt lat="44.34505334810106" lon="8.555388510989536"><ele>13.0</ele><time>2026-04-24T15:36:14Z</time></trkpt><trkpt lat="44.34504626545035" lon="8.555234086892149"><ele>13.0</ele><time>2026-04-24T15:36:15Z</time></trkpt><trkpt lat="44.34504194190976" lon="8.555087863097677"><ele>13.0</ele><time>2026-04-24T15:36:16Z</time></trkpt><trkpt lat="44.34503438963626" lon="8.554938691112943"><ele>13.0</ele><time>2026-04-24T15:36:17Z</time></trkpt><trkpt lat="44.345029040369575" lon="8.554786079026815"><ele>11.75</ele><time>2026-04-24T15:36:18Z</time></trkpt><trkpt lat="44.3450302214417" lon="8.554626599736995"><ele>10.5</ele><time>2026-04-24T15:36:19Z</time></trkpt><trkpt lat="44.34503049518678" lon="8.554466900781723"><ele>9.25</ele><time>2026-04-24T15:36:20Z</time></trkpt><trkpt lat="44.3450350443603" lon="8.554311419934193"><ele>8.0</ele><time>2026-04-24T15:36:21Z</time></trkpt><trkpt lat="44.34504430166373" lon="8.554157398889338"><ele>8.0</ele><time>2026-04-24T15:36:22Z</time></trkpt><trkpt lat="44.34504843640915" lon="8.553988217675077"><ele>8.0</ele><time>2026-04-24T15:36:23Z</time></trkpt><trkpt lat="44.34505246910852" lon="8.553818508613377"><ele>8.0</ele><time>2026-04-24T15:36:24Z</time></trkpt><trkpt lat="44.34506041014168" lon="8.553659940465359"><ele>8.0</ele><time>2026-04-24T15:36:25Z</time></trkpt><trkpt lat="44.34506813763382" lon="8.55349418333769"><ele>8.0</ele><time>2026-04-24T15:36:26Z</time></trkpt><trkpt lat="44.345075080605284" lon="8.553324279619034"><ele>8.0</ele><time>2026-04-24T15:36:27Z</time></trkpt><trkpt lat="44.34507489283877" lon="8.553162155059242"><ele>8.0</ele><time>2026-04-24T15:36:28Z</time></trkpt><trkpt lat="44.34507083400366" lon="8.552995216393606"><ele>8.0</ele><time>2026-04-24T15:36:29Z</time></trkpt><trkpt lat="44.34506048295621" lon="8.552823646602864"><ele>8.0</ele><time>2026-04-24T15:36:30Z</time></trkpt><trkpt lat="44.34504985821834" lon="8.552649088039004"><ele>8.0</ele><time>2026-04-24T15:36:31Z</time></trkpt><trkpt lat="44.34503212103334" lon="8.552480205886011"><ele>8.0</ele><time>2026-04-24T15:36:32Z</time></trkpt><trkpt lat="44.345011417904146" lon="8.552313642001913"><ele>8.0</ele><time>2026-04-24T15:36:33Z</time></trkpt><trkpt lat="44.34498820080491" lon="8.552153102057881"><ele>8.25</ele><time>2026-04-24T15:36:34Z</time></trkpt><trkpt lat="44.34496057234692" lon="8.551996480753665"><ele>8.5</ele><time>2026-04-24T15:36:35Z</time></trkpt><trkpt lat="44.344926477379985" lon="8.551825878149733"><ele>8.75</ele><time>2026-04-24T15:36:36Z</time></trkpt><trkpt lat="44.34489394890366" lon="8.551672220748138"><ele>9.0</ele><time>2026-04-24T15:36:37Z</time></trkpt><trkpt lat="44.3448602474037" lon="8.5515263261239"><ele>9.0</ele><time>2026-04-24T15:36:38Z</time></trkpt><trkpt lat="44.34481518746174" lon="8.55137627524089"><ele>9.0</ele><time>2026-04-24T15:36:39Z</time></trkpt><trkpt lat="44.344765336573744" lon="8.551235459780182"><ele>9.0</ele><time>2026-04-24T15:36:40Z</time></trkpt><trkpt lat="44.34471889849782" lon="8.551102811421462"><ele>9.0</ele><time>2026-04-24T15:36:41Z</time></trkpt><trkpt lat="44.34466955383878" lon="8.55096071050512"><ele>9.0</ele><time>2026-04-24T15:36:42Z</time></trkpt><trkpt lat="44.34461040691955" lon="8.550822475483857"><ele>8.5</ele><time>2026-04-24T15:36:43Z</time></trkpt><trkpt lat="44.34454673368093" lon="8.550686688681811"><ele>8.0</ele><time>2026-04-24T15:36:44Z</time></trkpt><trkpt lat="44.344477905370205" lon="8.550549974515734"><ele>7.5</ele><time>2026-04-24T15:36:45Z</time></trkpt><trkpt lat="44.34440989924902" lon="8.550422742810735"><ele>7.0</ele><time>2026-04-24T15:36:46Z</time></trkpt><trkpt lat="44.34433608983378" lon="8.550293226722808"><ele>9.75</ele><time>2026-04-24T15:36:47Z</time></trkpt><trkpt lat="44.344264855573016" lon="8.55017140950797"><ele>12.5</ele><time>2026-04-24T15:36:48Z</time></trkpt><trkpt lat="44.34418703098808" lon="8.55004645869049"><ele>15.25</ele><time>2026-04-24T15:36:49Z</time></trkpt><trkpt lat="44.34411446555182" lon="8.549925771480288"><ele>18.0</ele><time>2026-04-24T15:36:50Z</time></trkpt><trkpt lat="44.344031283056495" lon="8.549800461951982"><ele>18.0</ele><time>2026-04-24T15:36:51Z</time></trkpt><trkpt lat="44.34394893278412" lon="8.549679656574137"><ele>18.0</ele><time>2026-04-24T15:36:52Z</time></trkpt><trkpt lat="44.3438732621976" lon="8.549570081087186"><ele>18.0</ele><time>2026-04-24T15:36:53Z</time></trkpt><trkpt lat="44.343801312676206" lon="8.54946086947268"><ele>18.0</ele><time>2026-04-24T15:36:54Z</time></trkpt><trkpt lat="44.343717683497474" lon="8.549357825256111"><ele>18.0</ele><time>2026-04-24T15:36:55Z</time></trkpt><trkpt lat="44.34363271859076" lon="8.549253682422266"><ele>17.4</ele><time>2026-04-24T15:36:56Z</time></trkpt><trkpt lat="44.34354786647907" lon="8.549161409318685"><ele>16.8</ele><time>2026-04-24T15:36:57Z</time></trkpt><trkpt lat="44.34346666674973" lon="8.54906197798267"><ele>16.2</ele><time>2026-04-24T15:36:58Z</time></trkpt><trkpt lat="44.34338560321573" lon="8.548965448278109"><ele>15.6</ele><time>2026-04-24T15:36:59Z</time></trkpt><trkpt lat="44.34330003038262" lon="8.548868541431569"><ele>15.0</ele><time>2026-04-24T15:37:00Z</time></trkpt><trkpt lat="44.34321717915666" lon="8.548769609830451"><ele>14.2</ele><time>2026-04-24T15:37:01Z</time></trkpt><trkpt lat="44.3431353614282" lon="8.548671161999321"><ele>13.4</ele><time>2026-04-24T15:37:02Z</time></trkpt><trkpt lat="44.34305840105065" lon="8.548572777425735"><ele>12.600000000000001</ele><time>2026-04-24T15:37:03Z</time></trkpt><trkpt lat="44.34299176239225" lon="8.548485299360856"><ele>11.8</ele><time>2026-04-24T15:37:04Z</time></trkpt><trkpt lat="44.34294000035402" lon="8.548387026578975"><ele>11.0</ele><time>2026-04-24T15:37:05Z</time></trkpt><trkpt lat="44.34289800732719" lon="8.5482856424734"><ele>11.0</ele><time>2026-04-24T15:37:06Z</time></trkpt><trkpt lat="44.34285717651268" lon="8.548166316172452"><ele>11.0</ele><time>2026-04-24T15:37:07Z</time></trkpt><trkpt lat="44.342823173510084" lon="8.54805983145497"><ele>11.0</ele><time>2026-04-24T15:37:08Z</time></trkpt><trkpt lat="44.342799646813084" lon="8.54795854090767"><ele>11.0</ele><time>2026-04-24T15:37:09Z</time></trkpt><trkpt lat="44.34278747912062" lon="8.547852919337549"><ele>11.0</ele><time>2026-04-24T15:37:10Z</time></trkpt><trkpt lat="44.34278305914175" lon="8.547736288051311"><ele>11.0</ele><time>2026-04-24T15:37:11Z</time></trkpt><trkpt lat="44.34277599680685" lon="8.547616320935667"><ele>11.666666666666666</ele><time>2026-04-24T15:37:12Z</time></trkpt><trkpt lat="44.34276112315348" lon="8.547507137705763"><ele>12.333333333333332</ele><time>2026-04-24T15:37:13Z</time></trkpt><trkpt lat="44.34273830281002" lon="8.547396757308226"><ele>13.0</ele><time>2026-04-24T15:37:14Z</time></trkpt><trkpt lat="44.34270568312405" lon="8.54727647778862"><ele>13.666666666666666</ele><time>2026-04-24T15:37:15Z</time></trkpt><trkpt lat="44.34268747001675" lon="8.547160335395182"><ele>14.333333333333334</ele><time>2026-04-24T15:37:16Z</time></trkpt><trkpt lat="44.342680390300714" lon="8.547044153065077"><ele>15.0</ele><time>2026-04-24T15:37:17Z</time></trkpt><trkpt lat="44.342688470658565" lon="8.546929608132693"><ele>15.0</ele><time>2026-04-24T15:37:18Z</time></trkpt><trkpt lat="44.342708235192354" lon="8.546821235364206"><ele>15.0</ele><time>2026-04-24T15:37:19Z</time></trkpt><trkpt lat="44.34273827379755" lon="8.54670246127578"><ele>15.0</ele><time>2026-04-24T15:37:20Z</time></trkpt><trkpt lat="44.34277444580768" lon="8.546580338520505"><ele>15.0</ele><time>2026-04-24T15:37:21Z</time></trkpt><trkpt lat="44.34281097251943" lon="8.546468176782565"><ele>15.0</ele><time>2026-04-24T15:37:22Z</time></trkpt><trkpt lat="44.342845070585575" lon="8.546356726657555"><ele>15.0</ele><time>2026-04-24T15:37:23Z</time></trkpt><trkpt lat="44.342862449059545" lon="8.54624843406048"><ele>14.333333333333334</ele><time>2026-04-24T15:37:24Z</time></trkpt><trkpt lat="44.3428694742326" lon="8.546142885470454"><ele>13.666666666666666</ele><time>2026-04-24T15:37:25Z</time></trkpt><trkpt lat="44.342866705031454" lon="8.546039809642853"><ele>13.0</ele><time>2026-04-24T15:37:26Z</time></trkpt><trkpt lat="44.34285370476448" lon="8.545937759579115"><ele>12.333333333333332</ele><time>2026-04-24T15:37:27Z</time></trkpt><trkpt lat="44.342830364135324" lon="8.545838914857537"><ele>11.666666666666666</ele><time>2026-04-24T15:37:28Z</time></trkpt><trkpt lat="44.342797784986935" lon="8.545737839005914"><ele>11.0</ele><time>2026-04-24T15:37:29Z</time></trkpt><trkpt lat="44.34275527597883" lon="8.545640317608896"><ele>11.0</ele><time>2026-04-24T15:37:30Z</time></trkpt><trkpt lat="44.342712804905844" lon="8.545539500817064"><ele>11.0</ele><time>2026-04-24T15:37:31Z</time></trkpt><trkpt lat="44.34267067816186" lon="8.545430633183042"><ele>11.0</ele><time>2026-04-24T15:37:32Z</time></trkpt><trkpt lat="44.34262282995598" lon="8.545315232932435"><ele>11.0</ele><time>2026-04-24T15:37:33Z</time></trkpt><trkpt lat="44.34258073432498" lon="8.545193788914048"><ele>11.0</ele><time>2026-04-24T15:37:34Z</time></trkpt><trkpt lat="44.34253189873373" lon="8.545068727086752"><ele>10.600000000000001</ele><time>2026-04-24T15:37:35Z</time></trkpt><trkpt lat="44.34248502679733" lon="8.544941708605487"><ele>10.200000000000001</ele><time>2026-04-24T15:37:36Z</time></trkpt><trkpt lat="44.342430693724275" lon="8.544817150584079"><ele>9.8</ele><time>2026-04-24T15:37:37Z</time></trkpt><trkpt lat="44.34238030116812" lon="8.544700189282777"><ele>9.4</ele><time>2026-04-24T15:37:38Z</time></trkpt><trkpt lat="44.342325115467084" lon="8.544579823552079"><ele>9.0</ele><time>2026-04-24T15:37:39Z</time></trkpt><trkpt lat="44.34226722562645" lon="8.544464516723039"><ele>8.6</ele><time>2026-04-24T15:37:40Z</time></trkpt><trkpt lat="44.342210557874104" lon="8.544354085213957"><ele>8.2</ele><time>2026-04-24T15:37:41Z</time></trkpt><trkpt lat="44.342151945737754" lon="8.544240905433378"><ele>7.799999999999999</ele><time>2026-04-24T15:37:42Z</time></trkpt><trkpt lat="44.34208937546533" lon="8.544123884957587"><ele>7.3999999999999995</ele><time>2026-04-24T15:37:43Z</time></trkpt><trkpt lat="44.34203400759936" lon="8.544014424982528"><ele>7.0</ele><time>2026-04-24T15:37:44Z</time></trkpt><trkpt lat="44.34198168611123" lon="8.54390992938534"><ele>7.000000000000001</ele><time>2026-04-24T15:37:45Z</time></trkpt><trkpt lat="44.34192653138505" lon="8.543808293568468"><ele>7.0</ele><time>2026-04-24T15:37:46Z</time></trkpt><trkpt lat="44.34187772622674" lon="8.543712789844701"><ele>7.0</ele><time>2026-04-24T15:37:47Z</time></trkpt><trkpt lat="44.341827234581025" lon="8.54362618037451"><ele>7.0</ele><time>2026-04-24T15:37:48Z</time></trkpt><trkpt lat="44.34177455337193" lon="8.543557153929793"><ele>7.000000000000001</ele><time>2026-04-24T15:37:49Z</time></trkpt><trkpt lat="44.341715415617756" lon="8.54349522077536"><ele>7.0</ele><time>2026-04-24T15:37:50Z</time></trkpt><trkpt lat="44.34165559072701" lon="8.543444309079275"><ele>7.500000000000001</ele><time>2026-04-24T15:37:51Z</time></trkpt><trkpt lat="44.34158541852938" lon="8.543413997787153"><ele>8.0</ele><time>2026-04-24T15:37:52Z</time></trkpt><trkpt lat="44.34151609558563" lon="8.543401977359652"><ele>8.5</ele><time>2026-04-24T15:37:53Z</time></trkpt><trkpt lat="44.34144573546219" lon="8.543406912088521"><ele>9.0</ele><time>2026-04-24T15:37:54Z</time></trkpt><trkpt lat="44.34137217832174" lon="8.543430375495069"><ele>9.5</ele><time>2026-04-24T15:37:55Z</time></trkpt><trkpt lat="44.34128751412277" lon="8.543465239311965"><ele>10.0</ele><time>2026-04-24T15:37:56Z</time></trkpt><trkpt lat="44.341204474660366" lon="8.543501705900113"><ele>10.333333333333334</ele><time>2026-04-24T15:37:57Z</time></trkpt><trkpt lat="44.34112394007971" lon="8.543532296234757"><ele>10.666666666666668</ele><time>2026-04-24T15:37:58Z</time></trkpt><trkpt lat="44.34104538909646" lon="8.54355904143509"><ele>11.0</ele><time>2026-04-24T15:37:59Z</time></trkpt><trkpt lat="44.34097459812229" lon="8.543583564885514"><ele>11.333333333333334</ele><time>2026-04-24T15:38:00Z</time></trkpt><trkpt lat="44.34090731788423" lon="8.54360039453815"><ele>11.666666666666666</ele><time>2026-04-24T15:38:01Z</time></trkpt><trkpt lat="44.34078828922973" lon="8.54355517393014"><ele>12.0</ele><time>2026-04-24T15:38:03Z</time></trkpt><trkpt lat="44.34072516508728" lon="8.543497576154738"><ele>12.0</ele><time>2026-04-24T15:38:04Z</time></trkpt><trkpt lat="44.34066078682933" lon="8.543426476605132"><ele>12.0</ele><time>2026-04-24T15:38:05Z</time></trkpt><trkpt lat="44.34059534633944" lon="8.54334673926763"><ele>12.0</ele><time>2026-04-24T15:38:06Z</time></trkpt><trkpt lat="44.34052062085654" lon="8.54326784025893"><ele>12.0</ele><time>2026-04-24T15:38:07Z</time></trkpt><trkpt lat="44.340446927742825" lon="8.543183575988923"><ele>12.0</ele><time>2026-04-24T15:38:08Z</time></trkpt><trkpt lat="44.34036382316583" lon="8.54309204142922"><ele>12.6</ele><time>2026-04-24T15:38:09Z</time></trkpt><trkpt lat="44.34028596331237" lon="8.54301504851294"><ele>13.2</ele><time>2026-04-24T15:38:10Z</time></trkpt><trkpt lat="44.340208993401134" lon="8.542944490711783"><ele>13.8</ele><time>2026-04-24T15:38:11Z</time></trkpt><trkpt lat="44.340141686143156" lon="8.542862460818178"><ele>14.4</ele><time>2026-04-24T15:38:12Z</time></trkpt><trkpt lat="44.34007261978662" lon="8.542804074826861"><ele>15.0</ele><time>2026-04-24T15:38:13Z</time></trkpt><trkpt lat="44.33996046746623" lon="8.542738935456782"><ele>15.0</ele><time>2026-04-24T15:38:15Z</time></trkpt><trkpt lat="44.339843933539775" lon="8.542781638306705"><ele>15.0</ele><time>2026-04-24T15:38:17Z</time></trkpt><trkpt lat="44.33978896289438" lon="8.54284601303209"><ele>15.0</ele><time>2026-04-24T15:38:18Z</time></trkpt><trkpt lat="44.33972815246373" lon="8.542913836902667"><ele>15.0</ele><time>2026-04-24T15:38:19Z</time></trkpt><trkpt lat="44.33966431886608" lon="8.542981896003376"><ele>15.0</ele><time>2026-04-24T15:38:20Z</time></trkpt><trkpt lat="44.33959192458583" lon="8.543033569903812"><ele>15.0</ele><time>2026-04-24T15:38:21Z</time></trkpt><trkpt lat="44.33950924543872" lon="8.543067582737795"><ele>14.666666666666666</ele><time>2026-04-24T15:38:22Z</time></trkpt><trkpt lat="44.33942381860227" lon="8.543082859918208"><ele>14.333333333333332</ele><time>2026-04-24T15:38:23Z</time></trkpt><trkpt lat="44.33934056770791" lon="8.543075970071591"><ele>14.0</ele><time>2026-04-24T15:38:24Z</time></trkpt><trkpt lat="44.33926291207736" lon="8.543061096728929"><ele>13.666666666666666</ele><time>2026-04-24T15:38:25Z</time></trkpt><trkpt lat="44.33918795391872" lon="8.54302412920624"><ele>13.333333333333332</ele><time>2026-04-24T15:38:26Z</time></trkpt><trkpt lat="44.33911320609534" lon="8.54296866554166"><ele>13.0</ele><time>2026-04-24T15:38:27Z</time></trkpt><trkpt lat="44.33903164587239" lon="8.542908880695297"><ele>13.8</ele><time>2026-04-24T15:38:28Z</time></trkpt><trkpt lat="44.33895669041446" lon="8.542836891780707"><ele>14.600000000000001</ele><time>2026-04-24T15:38:29Z</time></trkpt><trkpt lat="44.338872574027086" lon="8.542754816260075"><ele>15.399999999999999</ele><time>2026-04-24T15:38:30Z</time></trkpt><trkpt lat="44.338783299472155" lon="8.54267303350126"><ele>16.2</ele><time>2026-04-24T15:38:31Z</time></trkpt><trkpt lat="44.338697088291575" lon="8.542585470953773"><ele>17.0</ele><time>2026-04-24T15:38:32Z</time></trkpt><trkpt lat="44.338604865009046" lon="8.542493889398504"><ele>17.0</ele><time>2026-04-24T15:38:33Z</time></trkpt><trkpt lat="44.33851470873964" lon="8.542399858072589"><ele>17.0</ele><time>2026-04-24T15:38:34Z</time></trkpt><trkpt lat="44.338418877831224" lon="8.542305766018067"><ele>17.0</ele><time>2026-04-24T15:38:35Z</time></trkpt><trkpt lat="44.3383300149187" lon="8.542215209602393"><ele>17.0</ele><time>2026-04-24T15:38:36Z</time></trkpt><trkpt lat="44.33824098190678" lon="8.542129004173042"><ele>17.0</ele><time>2026-04-24T15:38:37Z</time></trkpt><trkpt lat="44.33815783059081" lon="8.542051604198077"><ele>19.2</ele><time>2026-04-24T15:38:38Z</time></trkpt><trkpt lat="44.33807305556512" lon="8.541980481401731"><ele>21.4</ele><time>2026-04-24T15:38:39Z</time></trkpt><trkpt lat="44.33799009655041" lon="8.541920767401436"><ele>23.599999999999998</ele><time>2026-04-24T15:38:40Z</time></trkpt><trkpt lat="44.337910914650585" lon="8.541877183576382"><ele>25.799999999999997</ele><time>2026-04-24T15:38:41Z</time></trkpt><trkpt lat="44.33782301219184" lon="8.541848278230805"><ele>28.0</ele><time>2026-04-24T15:38:42Z</time></trkpt><trkpt lat="44.337729278563536" lon="8.541837425133302"><ele>28.0</ele><time>2026-04-24T15:38:43Z</time></trkpt><trkpt lat="44.337638893417434" lon="8.541845663886434"><ele>27.999999999999996</ele><time>2026-04-24T15:38:44Z</time></trkpt><trkpt lat="44.33755051561872" lon="8.541873392355983"><ele>27.999999999999996</ele><time>2026-04-24T15:38:45Z</time></trkpt><trkpt lat="44.337459674191685" lon="8.541918693796934"><ele>28.0</ele><time>2026-04-24T15:38:46Z</time></trkpt><trkpt lat="44.33736801598971" lon="8.541979914988982"><ele>28.0</ele><time>2026-04-24T15:38:47Z</time></trkpt><trkpt lat="44.33727442423366" lon="8.542039583023456"><ele>24.799999999999997</ele><time>2026-04-24T15:38:48Z</time></trkpt><trkpt lat="44.337179716996836" lon="8.54209658044626"><ele>21.599999999999998</ele><time>2026-04-24T15:38:49Z</time></trkpt><trkpt lat="44.3370798114523" lon="8.542147879615449"><ele>18.4</ele><time>2026-04-24T15:38:50Z</time></trkpt><trkpt lat="44.33698304112406" lon="8.54217887871864"><ele>15.2</ele><time>2026-04-24T15:38:51Z</time></trkpt><trkpt lat="44.336881029801596" lon="8.542197392964274"><ele>12.0</ele><time>2026-04-24T15:38:52Z</time></trkpt><trkpt lat="44.336777513311105" lon="8.542209234032455"><ele>12.0</ele><time>2026-04-24T15:38:53Z</time></trkpt><trkpt lat="44.33666927281232" lon="8.54221709684326"><ele>12.0</ele><time>2026-04-24T15:38:54Z</time></trkpt><trkpt lat="44.336564145447866" lon="8.542220979150972"><ele>12.0</ele><time>2026-04-24T15:38:55Z</time></trkpt><trkpt lat="44.33646729999842" lon="8.542219594564697"><ele>12.0</ele><time>2026-04-24T15:38:56Z</time></trkpt><trkpt lat="44.336382538414576" lon="8.542208409293977"><ele>12.0</ele><time>2026-04-24T15:38:57Z</time></trkpt><trkpt lat="44.33630717206064" lon="8.542180530356873"><ele>12.5</ele><time>2026-04-24T15:38:58Z</time></trkpt><trkpt lat="44.33623448037009" lon="8.542139387599907"><ele>13.0</ele><time>2026-04-24T15:38:59Z</time></trkpt><trkpt lat="44.33617362379825" lon="8.54207929742387"><ele>13.5</ele><time>2026-04-24T15:39:00Z</time></trkpt><trkpt lat="44.33611920547023" lon="8.542001028651333"><ele>14.0</ele><time>2026-04-24T15:39:01Z</time></trkpt><trkpt lat="44.336072338692546" lon="8.541908006247917"><ele>14.5</ele><time>2026-04-24T15:39:02Z</time></trkpt><trkpt lat="44.33602839549763" lon="8.54179994949859"><ele>15.0</ele><time>2026-04-24T15:39:03Z</time></trkpt><trkpt lat="44.33598163132284" lon="8.541679885523797"><ele>15.0</ele><time>2026-04-24T15:39:04Z</time></trkpt><trkpt lat="44.335941406483144" lon="8.541550908598472"><ele>15.0</ele><time>2026-04-24T15:39:05Z</time></trkpt><trkpt lat="44.33589612579324" lon="8.541412028294866"><ele>15.0</ele><time>2026-04-24T15:39:06Z</time></trkpt><trkpt lat="44.33584726496647" lon="8.54125894620226"><ele>15.0</ele><time>2026-04-24T15:39:07Z</time></trkpt><trkpt lat="44.33580188508384" lon="8.541108085279138"><ele>15.0</ele><time>2026-04-24T15:39:08Z</time></trkpt><trkpt lat="44.33575322844149" lon="8.540952472862285"><ele>18.0</ele><time>2026-04-24T15:39:09Z</time></trkpt><trkpt lat="44.33570705652082" lon="8.540792031115355"><ele>21.0</ele><time>2026-04-24T15:39:10Z</time></trkpt><trkpt lat="44.33565739731642" lon="8.540626331049234"><ele>24.0</ele><time>2026-04-24T15:39:11Z</time></trkpt><trkpt lat="44.33560954034929" lon="8.54046701931057"><ele>27.0</ele><time>2026-04-24T15:39:12Z</time></trkpt><trkpt lat="44.33556336436537" lon="8.540307800513638"><ele>22.0</ele><time>2026-04-24T15:39:13Z</time></trkpt><trkpt lat="44.33551646075637" lon="8.540145680573145"><ele>17.0</ele><time>2026-04-24T15:39:14Z</time></trkpt><trkpt lat="44.33547112203134" lon="8.539979262025119"><ele>12.0</ele><time>2026-04-24T15:39:15Z</time></trkpt><trkpt lat="44.33542788536581" lon="8.539805502739538"><ele>7.0</ele><time>2026-04-24T15:39:16Z</time></trkpt><trkpt lat="44.33539329100498" lon="8.539644757455296"><ele>6.5</ele><time>2026-04-24T15:39:17Z</time></trkpt><trkpt lat="44.335361918176254" lon="8.539485230193307"><ele>6.0</ele><time>2026-04-24T15:39:18Z</time></trkpt><trkpt lat="44.33532975854599" lon="8.53932772998745"><ele>5.5</ele><time>2026-04-24T15:39:19Z</time></trkpt><trkpt lat="44.33529735480894" lon="8.539164070055978"><ele>5.0</ele><time>2026-04-24T15:39:20Z</time></trkpt><trkpt lat="44.335260187144875" lon="8.538996909268615"><ele>5.0</ele><time>2026-04-24T15:39:21Z</time></trkpt><trkpt lat="44.335227426572665" lon="8.538842191210486"><ele>5.0</ele><time>2026-04-24T15:39:22Z</time></trkpt><trkpt lat="44.33519802872264" lon="8.538690338478563"><ele>5.0</ele><time>2026-04-24T15:39:23Z</time></trkpt><trkpt lat="44.33516484202011" lon="8.538539155404731"><ele>5.0</ele><time>2026-04-24T15:39:24Z</time></trkpt><trkpt lat="44.33513373182259" lon="8.538383474623695"><ele>5.0</ele><time>2026-04-24T15:39:25Z</time></trkpt><trkpt lat="44.33509763560702" lon="8.53822539619173"><ele>5.0</ele><time>2026-04-24T15:39:26Z</time></trkpt><trkpt lat="44.33506318828655" lon="8.538062722614395"><ele>5.0</ele><time>2026-04-24T15:39:27Z</time></trkpt><trkpt lat="44.33502804247074" lon="8.537902866165906"><ele>5.0</ele><time>2026-04-24T15:39:28Z</time></trkpt><trkpt lat="44.33499589601829" lon="8.537745935032609"><ele>8.5</ele><time>2026-04-24T15:39:29Z</time></trkpt><trkpt lat="44.3349671427904" lon="8.537590753919211"><ele>12.0</ele><time>2026-04-24T15:39:30Z</time></trkpt><trkpt lat="44.3349319078239" lon="8.537426501488847"><ele>15.5</ele><time>2026-04-24T15:39:31Z</time></trkpt><trkpt lat="44.33489503875243" lon="8.537255474141315"><ele>19.0</ele><time>2026-04-24T15:39:32Z</time></trkpt><trkpt lat="44.33485957794487" lon="8.537083411856964"><ele>21.0</ele><time>2026-04-24T15:39:33Z</time></trkpt><trkpt lat="44.33482858855504" lon="8.536917362691796"><ele>23.0</ele><time>2026-04-24T15:39:34Z</time></trkpt><trkpt lat="44.33478946751321" lon="8.536742456362731"><ele>25.0</ele><time>2026-04-24T15:39:35Z</time></trkpt><trkpt lat="44.33475343566357" lon="8.536561333221329"><ele>27.0</ele><time>2026-04-24T15:39:36Z</time></trkpt><trkpt lat="44.33472318143365" lon="8.536377811334988"><ele>22.0</ele><time>2026-04-24T15:39:37Z</time></trkpt><trkpt lat="44.33469577473691" lon="8.536185679282081"><ele>17.0</ele><time>2026-04-24T15:39:38Z</time></trkpt><trkpt lat="44.33466108493016" lon="8.535981785250831"><ele>12.0</ele><time>2026-04-24T15:39:39Z</time></trkpt><trkpt lat="44.33463335696705" lon="8.535784789820369"><ele>7.0</ele><time>2026-04-24T15:39:40Z</time></trkpt><trkpt lat="44.33460367222376" lon="8.535583253179901"><ele>8.5</ele><time>2026-04-24T15:39:41Z</time></trkpt><trkpt lat="44.33457918906252" lon="8.535385142223348"><ele>10.0</ele><time>2026-04-24T15:39:42Z</time></trkpt><trkpt lat="44.334551031925685" lon="8.53518251909338"><ele>11.5</ele><time>2026-04-24T15:39:43Z</time></trkpt><trkpt lat="44.33452770160018" lon="8.534984874715104"><ele>13.0</ele><time>2026-04-24T15:39:44Z</time></trkpt><trkpt lat="44.33450708286339" lon="8.53479257829612"><ele>13.0</ele><time>2026-04-24T15:39:45Z</time></trkpt><trkpt lat="44.334492618589614" lon="8.534604869715837"><ele>13.0</ele><time>2026-04-24T15:39:46Z</time></trkpt><trkpt lat="44.33447928237233" lon="8.534421343843785"><ele>13.0</ele><time>2026-04-24T15:39:47Z</time></trkpt><trkpt lat="44.33446356932207" lon="8.534240392588524"><ele>13.0</ele><time>2026-04-24T15:39:48Z</time></trkpt><trkpt lat="44.33444213364698" lon="8.534060695070371"><ele>13.25</ele><time>2026-04-24T15:39:49Z</time></trkpt><trkpt lat="44.334422407533616" lon="8.533892277369327"><ele>13.5</ele><time>2026-04-24T15:39:50Z</time></trkpt><trkpt lat="44.33439795887119" lon="8.533734588734086"><ele>13.75</ele><time>2026-04-24T15:39:51Z</time></trkpt><trkpt lat="44.334377139069" lon="8.533583069179116"><ele>14.0</ele><time>2026-04-24T15:39:52Z</time></trkpt><trkpt lat="44.334339917333246" lon="8.533425451059372"><ele>14.75</ele><time>2026-04-24T15:39:53Z</time></trkpt><trkpt lat="44.33430068355448" lon="8.533270108330187"><ele>15.5</ele><time>2026-04-24T15:39:54Z</time></trkpt><trkpt lat="44.334254086953294" lon="8.533110726342326"><ele>16.25</ele><time>2026-04-24T15:39:55Z</time></trkpt><trkpt lat="44.334198444572905" lon="8.532947521499338"><ele>17.0</ele><time>2026-04-24T15:39:56Z</time></trkpt><trkpt lat="44.33415267264964" lon="8.532780872286178"><ele>17.0</ele><time>2026-04-24T15:39:57Z</time></trkpt><trkpt lat="44.33410179680957" lon="8.532607877394673"><ele>17.0</ele><time>2026-04-24T15:39:58Z</time></trkpt><trkpt lat="44.33404580650019" lon="8.53242859377767"><ele>17.0</ele><time>2026-04-24T15:39:59Z</time></trkpt><trkpt lat="44.333996699311854" lon="8.532255246472726"><ele>17.0</ele><time>2026-04-24T15:40:00Z</time></trkpt><trkpt lat="44.33394826098425" lon="8.532079876514086"><ele>14.5</ele><time>2026-04-24T15:40:01Z</time></trkpt><trkpt lat="44.333897836662594" lon="8.531896555928876"><ele>12.0</ele><time>2026-04-24T15:40:02Z</time></trkpt><trkpt lat="44.33385610058867" lon="8.531717229663874"><ele>9.5</ele><time>2026-04-24T15:40:03Z</time></trkpt><trkpt lat="44.33382198271488" lon="8.53153825364875"><ele>7.0</ele><time>2026-04-24T15:40:04Z</time></trkpt><trkpt lat="44.3337845917137" lon="8.531361029150524"><ele>8.0</ele><time>2026-04-24T15:40:05Z</time></trkpt><trkpt lat="44.333741547133634" lon="8.531179448360593"><ele>9.0</ele><time>2026-04-24T15:40:06Z</time></trkpt><trkpt lat="44.33369752915424" lon="8.530992402168785"><ele>10.0</ele><time>2026-04-24T15:40:07Z</time></trkpt><trkpt lat="44.333653456920494" lon="8.530800052532994"><ele>11.0</ele><time>2026-04-24T15:40:08Z</time></trkpt><trkpt lat="44.33360626051459" lon="8.530620158980893"><ele>11.0</ele><time>2026-04-24T15:40:09Z</time></trkpt><trkpt lat="44.333563831568945" lon="8.53043936754986"><ele>11.0</ele><time>2026-04-24T15:40:10Z</time></trkpt><trkpt lat="44.333520004624184" lon="8.530270336629911"><ele>11.0</ele><time>2026-04-24T15:40:11Z</time></trkpt><trkpt lat="44.33347712284611" lon="8.530112299697148"><ele>11.0</ele><time>2026-04-24T15:40:12Z</time></trkpt><trkpt lat="44.33343443644661" lon="8.529954479718045"><ele>11.75</ele><time>2026-04-24T15:40:13Z</time></trkpt><trkpt lat="44.33338502996337" lon="8.529799871236598"><ele>12.5</ele><time>2026-04-24T15:40:14Z</time></trkpt><trkpt lat="44.33333590734154" lon="8.529659165861741"><ele>13.25</ele><time>2026-04-24T15:40:15Z</time></trkpt><trkpt lat="44.333277661459924" lon="8.529520092501613"><ele>14.0</ele><time>2026-04-24T15:40:16Z</time></trkpt><trkpt lat="44.33321134705113" lon="8.529385148500724"><ele>11.75</ele><time>2026-04-24T15:40:17Z</time></trkpt><trkpt lat="44.33313809887254" lon="8.529249964316115"><ele>9.5</ele><time>2026-04-24T15:40:18Z</time></trkpt><trkpt lat="44.33306182856297" lon="8.529122257103287"><ele>7.25</ele><time>2026-04-24T15:40:19Z</time></trkpt><trkpt lat="44.332981591001044" lon="8.528996683967284"><ele>5.0</ele><time>2026-04-24T15:40:20Z</time></trkpt><trkpt lat="44.33289394958569" lon="8.528870809819425"><ele>5.0</ele><time>2026-04-24T15:40:21Z</time></trkpt><trkpt lat="44.33280506847745" lon="8.528746437149541"><ele>5.0</ele><time>2026-04-24T15:40:22Z</time></trkpt><trkpt lat="44.332725272875564" lon="8.528628384144186"><ele>5.0</ele><time>2026-04-24T15:40:23Z</time></trkpt><trkpt lat="44.33265314156894" lon="8.528510789428418"><ele>5.0</ele><time>2026-04-24T15:40:24Z</time></trkpt><trkpt lat="44.33258502159638" lon="8.52839152383207"><ele>6.8</ele><time>2026-04-24T15:40:25Z</time></trkpt><trkpt lat="44.33252949595993" lon="8.528269298194905"><ele>8.6</ele><time>2026-04-24T15:40:26Z</time></trkpt><trkpt lat="44.33248461054292" lon="8.528148771331113"><ele>10.399999999999999</ele><time>2026-04-24T15:40:27Z</time></trkpt><trkpt lat="44.33245789522025" lon="8.528032844973646"><ele>12.2</ele><time>2026-04-24T15:40:28Z</time></trkpt><trkpt lat="44.33244375191" lon="8.527905043876142"><ele>14.0</ele><time>2026-04-24T15:40:29Z</time></trkpt><trkpt lat="44.3324400791421" lon="8.527765531903263"><ele>15.0</ele><time>2026-04-24T15:40:30Z</time></trkpt><trkpt lat="44.33244165139989" lon="8.52762715774517"><ele>16.0</ele><time>2026-04-24T15:40:31Z</time></trkpt><trkpt lat="44.3324423728047" lon="8.527472850431124"><ele>17.0</ele><time>2026-04-24T15:40:32Z</time></trkpt><trkpt lat="44.33244076460733" lon="8.527305754639526"><ele>18.0</ele><time>2026-04-24T15:40:33Z</time></trkpt><trkpt lat="44.33243533512087" lon="8.52713051986452"><ele>19.0</ele><time>2026-04-24T15:40:34Z</time></trkpt><trkpt lat="44.33243784939488" lon="8.52695094188962"><ele>20.0</ele><time>2026-04-24T15:40:35Z</time></trkpt><trkpt lat="44.33243558940098" lon="8.526765601364263"><ele>21.0</ele><time>2026-04-24T15:40:36Z</time></trkpt><trkpt lat="44.33243214513081" lon="8.526582508062974"><ele>22.0</ele><time>2026-04-24T15:40:37Z</time></trkpt><trkpt lat="44.33242924416394" lon="8.526395318032407"><ele>21.5</ele><time>2026-04-24T15:40:38Z</time></trkpt><trkpt lat="44.332426330637624" lon="8.526204244842821"><ele>21.0</ele><time>2026-04-24T15:40:39Z</time></trkpt><trkpt lat="44.33242444227062" lon="8.52602234711044"><ele>20.5</ele><time>2026-04-24T15:40:40Z</time></trkpt><trkpt lat="44.33242544999873" lon="8.525838257351847"><ele>20.0</ele><time>2026-04-24T15:40:41Z</time></trkpt><trkpt lat="44.33242372796115" lon="8.52566726258879"><ele>20.0</ele><time>2026-04-24T15:40:42Z</time></trkpt><trkpt lat="44.33242669062055" lon="8.525500489129069"><ele>20.0</ele><time>2026-04-24T15:40:43Z</time></trkpt><trkpt lat="44.33242612892119" lon="8.52533124138324"><ele>20.0</ele><time>2026-04-24T15:40:44Z</time></trkpt><trkpt lat="44.3324245557635" lon="8.525164805948343"><ele>20.0</ele><time>2026-04-24T15:40:45Z</time></trkpt><trkpt lat="44.33242368620935" lon="8.525006229902564"><ele>21.5</ele><time>2026-04-24T15:40:46Z</time></trkpt><trkpt lat="44.33242556788267" lon="8.524854987842119"><ele>23.0</ele><time>2026-04-24T15:40:47Z</time></trkpt><trkpt lat="44.33242403566099" lon="8.524696640600773"><ele>24.5</ele><time>2026-04-24T15:40:48Z</time></trkpt><trkpt lat="44.33241848575327" lon="8.524526855041806"><ele>26.0</ele><time>2026-04-24T15:40:49Z</time></trkpt><trkpt lat="44.33241550260009" lon="8.524358290669472"><ele>29.75</ele><time>2026-04-24T15:40:50Z</time></trkpt><trkpt lat="44.332413551053186" lon="8.524178977005915"><ele>33.5</ele><time>2026-04-24T15:40:51.021Z</time></trkpt><trkpt lat="44.33240940521212" lon="8.52399999055632"><ele>37.25</ele><time>2026-04-24T15:40:52.019Z</time></trkpt><trkpt lat="44.33240527956496" lon="8.523818086281253"><ele>41.0</ele><time>2026-04-24T15:40:53.02Z</time></trkpt><trkpt lat="44.33240057609024" lon="8.523633829508473"><ele>44.0</ele><time>2026-04-24T15:40:54.022Z</time></trkpt><trkpt lat="44.332428800854416" lon="8.523459723912099"><ele>47.0</ele><time>2026-04-24T15:40:55.019Z</time></trkpt><trkpt lat="44.33242946645076" lon="8.523280950213747"><ele>50.0</ele><time>2026-04-24T15:40:56.017Z</time></trkpt><trkpt lat="44.33242859710555" lon="8.523101612204817"><ele>53.0</ele><time>2026-04-24T15:40:57.019Z</time></trkpt><trkpt lat="44.33243013532057" lon="8.522916434888094"><ele>54.0</ele><time>2026-04-24T15:40:58.022Z</time></trkpt><trkpt lat="44.33242987527022" lon="8.522729476719045"><ele>55.0</ele><time>2026-04-24T15:40:59.02Z</time></trkpt><trkpt lat="44.3324487910784" lon="8.520817512278406"><ele>48.4</ele><time>2026-04-24T15:41:09.873Z</time></trkpt><trkpt lat="44.332375665911705" lon="8.520721929467573"><ele>41.8</ele><time>2026-04-24T15:41:11Z</time></trkpt><trkpt lat="44.33239911501361" lon="8.520596574198443"><ele>35.2</ele><time>2026-04-24T15:41:12Z</time></trkpt><trkpt lat="44.33239819978463" lon="8.520482362380406"><ele>28.6</ele><time>2026-04-24T15:41:13Z</time></trkpt><trkpt lat="44.332388552055065" lon="8.52029717856618"><ele>22.0</ele><time>2026-04-24T15:41:15Z</time></trkpt><trkpt lat="44.33243118894371" lon="8.520143433741005"><ele>21.333333333333332</ele><time>2026-04-24T15:41:17Z</time></trkpt><trkpt lat="44.3324852480538" lon="8.520021986507537"><ele>20.666666666666664</ele><time>2026-04-24T15:41:19Z</time></trkpt><trkpt lat="44.332483788606446" lon="8.51989878417614"><ele>20.0</ele><time>2026-04-24T15:41:21Z</time></trkpt><trkpt lat="44.33244713527452" lon="8.51982024935647"><ele>19.333333333333332</ele><time>2026-04-24T15:41:22Z</time></trkpt><trkpt lat="44.332396303772995" lon="8.519753688698545"><ele>18.666666666666668</ele><time>2026-04-24T15:41:23Z</time></trkpt><trkpt lat="44.33234390133548" lon="8.519692624325822"><ele>18.0</ele><time>2026-04-24T15:41:24Z</time></trkpt><trkpt lat="44.33231433429352" lon="8.519614180790189"><ele>17.0</ele><time>2026-04-24T15:41:25Z</time></trkpt><trkpt lat="44.33228463671314" lon="8.519515747376781"><ele>16.0</ele><time>2026-04-24T15:41:26Z</time></trkpt><trkpt lat="44.33225118790277" lon="8.519406076961129"><ele>15.0</ele><time>2026-04-24T15:41:27Z</time></trkpt><trkpt lat="44.332218145613055" lon="8.519284336442432"><ele>14.0</ele><time>2026-04-24T15:41:28Z</time></trkpt><trkpt lat="44.332176305418734" lon="8.519153165690614"><ele>13.0</ele><time>2026-04-24T15:41:29Z</time></trkpt><trkpt lat="44.33214198157708" lon="8.519022511160932"><ele>12.4</ele><time>2026-04-24T15:41:30Z</time></trkpt><trkpt lat="44.33210428443597" lon="8.518885181712236"><ele>11.8</ele><time>2026-04-24T15:41:31Z</time></trkpt><trkpt lat="44.33206703263448" lon="8.518754419631096"><ele>11.2</ele><time>2026-04-24T15:41:32Z</time></trkpt><trkpt lat="44.332029152109584" lon="8.518627109777956"><ele>10.6</ele><time>2026-04-24T15:41:33Z</time></trkpt><trkpt lat="44.33199369023531" lon="8.518496553655272"><ele>10.0</ele><time>2026-04-24T15:41:34Z</time></trkpt><trkpt lat="44.33195881860055" lon="8.518363895879599"><ele>10.0</ele><time>2026-04-24T15:41:35Z</time></trkpt><trkpt lat="44.331920990193154" lon="8.518232715433676"><ele>10.0</ele><time>2026-04-24T15:41:36Z</time></trkpt><trkpt lat="44.331877319048175" lon="8.518103668886539"><ele>10.0</ele><time>2026-04-24T15:41:37Z</time></trkpt><trkpt lat="44.33184125020245" lon="8.51797508662638"><ele>10.0</ele><time>2026-04-24T15:41:38Z</time></trkpt><trkpt lat="44.331805011932545" lon="8.517844346842933"><ele>10.0</ele><time>2026-04-24T15:41:39Z</time></trkpt><trkpt lat="44.33176674199895" lon="8.51770697079534"><ele>10.8</ele><time>2026-04-24T15:41:40Z</time></trkpt><trkpt lat="44.331725652629416" lon="8.51756771365274"><ele>11.6</ele><time>2026-04-24T15:41:41Z</time></trkpt><trkpt lat="44.33168347977034" lon="8.517425429885941"><ele>12.399999999999999</ele><time>2026-04-24T15:41:42Z</time></trkpt><trkpt lat="44.331644925985614" lon="8.517290831097185"><ele>13.2</ele><time>2026-04-24T15:41:43Z</time></trkpt><trkpt lat="44.3316069211919" lon="8.51716361893139"><ele>14.0</ele><time>2026-04-24T15:41:44Z</time></trkpt><trkpt lat="44.33157214111865" lon="8.517035623553376"><ele>14.2</ele><time>2026-04-24T15:41:45Z</time></trkpt><trkpt lat="44.33153229054887" lon="8.516902614867496"><ele>14.399999999999999</ele><time>2026-04-24T15:41:46Z</time></trkpt><trkpt lat="44.33148722276996" lon="8.516775219458891"><ele>14.6</ele><time>2026-04-24T15:41:47Z</time></trkpt><trkpt lat="44.33144600189388" lon="8.516652266748153"><ele>14.8</ele><time>2026-04-24T15:41:48Z</time></trkpt><trkpt lat="44.331407161419875" lon="8.516521198427407"><ele>15.0</ele><time>2026-04-24T15:41:49Z</time></trkpt><trkpt lat="44.33138316973683" lon="8.516389416010021"><ele>14.166666666666666</ele><time>2026-04-24T15:41:50Z</time></trkpt><trkpt lat="44.33135117701904" lon="8.516262542763627"><ele>13.333333333333334</ele><time>2026-04-24T15:41:51Z</time></trkpt><trkpt lat="44.33132327390817" lon="8.516148729771798"><ele>12.5</ele><time>2026-04-24T15:41:52Z</time></trkpt><trkpt lat="44.331298140960335" lon="8.516054506526139"><ele>11.666666666666668</ele><time>2026-04-24T15:41:53Z</time></trkpt><trkpt lat="44.33127916794493" lon="8.51596979510472"><ele>10.833333333333334</ele><time>2026-04-24T15:41:54Z</time></trkpt><trkpt lat="44.331242014830075" lon="8.515827822250577"><ele>10.0</ele><time>2026-04-24T15:41:56Z</time></trkpt><trkpt lat="44.33119375177263" lon="8.515677018879007"><ele>9.8</ele><time>2026-04-24T15:41:58Z</time></trkpt><trkpt lat="44.33114280801252" lon="8.515524356079531"><ele>9.6</ele><time>2026-04-24T15:42:00Z</time></trkpt><trkpt lat="44.33109484115869" lon="8.515394470349266"><ele>9.4</ele><time>2026-04-24T15:42:02Z</time></trkpt><trkpt lat="44.33104813630577" lon="8.515264735707426"><ele>9.2</ele><time>2026-04-24T15:42:04Z</time></trkpt><trkpt lat="44.33101543907708" lon="8.515125279713969"><ele>9.0</ele><time>2026-04-24T15:42:06Z</time></trkpt><trkpt lat="44.33098658171686" lon="8.515024579852648"><ele>9.0</ele><time>2026-04-24T15:42:08Z</time></trkpt><trkpt lat="44.33093956755044" lon="8.51491816008672"><ele>9.0</ele><time>2026-04-24T15:42:10Z</time></trkpt><trkpt lat="44.330918425450754" lon="8.514834417709517"><ele>9.0</ele><time>2026-04-24T15:42:11Z</time></trkpt><trkpt lat="44.33087083209368" lon="8.514672679617911"><ele>9.0</ele><time>2026-04-24T15:42:13Z</time></trkpt><trkpt lat="44.330820887646794" lon="8.514495251314873"><ele>9.0</ele><time>2026-04-24T15:42:15Z</time></trkpt><trkpt lat="44.33079215243257" lon="8.514401544334746"><ele>9.0</ele><time>2026-04-24T15:42:16Z</time></trkpt><trkpt lat="44.330781613927705" lon="8.514312541179153"><ele>9.0</ele><time>2026-04-24T15:42:17Z</time></trkpt><trkpt lat="44.33074160056982" lon="8.514164773902772"><ele>9.0</ele><time>2026-04-24T15:42:19Z</time></trkpt><trkpt lat="44.33070236977003" lon="8.5140371109359"><ele>9.0</ele><time>2026-04-24T15:42:21Z</time></trkpt><trkpt lat="44.3306719727106" lon="8.513931370751882"><ele>9.0</ele><time>2026-04-24T15:42:23Z</time></trkpt><trkpt lat="44.330644192346234" lon="8.513840162485499"><ele>9.0</ele><time>2026-04-24T15:42:25Z</time></trkpt><trkpt lat="44.330618542273754" lon="8.51372774461017"><ele>9.0</ele><time>2026-04-24T15:42:27Z</time></trkpt><trkpt lat="44.33057413515622" lon="8.513605556284936"><ele>9.0</ele><time>2026-04-24T15:42:29Z</time></trkpt><trkpt lat="44.330548562325895" lon="8.513504038248623"><ele>9.0</ele><time>2026-04-24T15:42:31Z</time></trkpt><trkpt lat="44.33051785523547" lon="8.513415578231427"><ele>9.0</ele><time>2026-04-24T15:42:34Z</time></trkpt><trkpt lat="44.33049573457068" lon="8.513315670697503"><ele>9.0</ele><time>2026-04-24T15:42:40Z</time></trkpt><trkpt lat="44.33046791780709" lon="8.513232049488803"><ele>9.0</ele><time>2026-04-24T15:42:47Z</time></trkpt><trkpt lat="44.3305013306785" lon="8.513132198129375"><ele>8.714285714285715</ele><time>2026-04-24T15:42:50Z</time></trkpt><trkpt lat="44.330497430292944" lon="8.513039929495552"><ele>8.428571428571429</ele><time>2026-04-24T15:43:00Z</time></trkpt><trkpt lat="44.33047205541231" lon="8.512950330989947"><ele>8.142857142857142</ele><time>2026-04-24T15:43:03Z</time></trkpt><trkpt lat="44.330435023627466" lon="8.512866594074804"><ele>7.857142857142858</ele><time>2026-04-24T15:43:09Z</time></trkpt><trkpt lat="44.33038015996747" lon="8.512796315107005"><ele>7.571428571428571</ele><time>2026-04-24T15:43:14Z</time></trkpt><trkpt lat="44.330330545271444" lon="8.51270536144839"><ele>7.285714285714286</ele><time>2026-04-24T15:43:17Z</time></trkpt><trkpt lat="44.33029854884284" lon="8.51260916622073"><ele>7.0</ele><time>2026-04-24T15:43:20Z</time></trkpt><trkpt lat="44.33027253430445" lon="8.512509815004998"><ele>7.0</ele><time>2026-04-24T15:43:23Z</time></trkpt><trkpt lat="44.33024141005509" lon="8.512416157405136"><ele>7.0</ele><time>2026-04-24T15:43:28Z</time></trkpt><trkpt lat="44.33021157989104" lon="8.512320719169738"><ele>7.0</ele><time>2026-04-24T15:43:34Z</time></trkpt><trkpt lat="44.33018566087126" lon="8.512236325635643"><ele>7.0</ele><time>2026-04-24T15:43:36Z</time></trkpt><trkpt lat="44.33015419998772" lon="8.512141135579142"><ele>7.0</ele><time>2026-04-24T15:43:38Z</time></trkpt><trkpt lat="44.330116850881375" lon="8.51202926696707"><ele>7.0</ele><time>2026-04-24T15:43:41Z</time></trkpt><trkpt lat="44.33009366961451" lon="8.51194090407412"><ele>7.0</ele><time>2026-04-24T15:44:15Z</time></trkpt><trkpt lat="44.33006802798054" lon="8.511831414749796"><ele>6.857142857142857</ele><time>2026-04-24T15:44:19Z</time></trkpt><trkpt lat="44.330032744493515" lon="8.51172614475864"><ele>6.714285714285714</ele><time>2026-04-24T15:44:22Z</time></trkpt><trkpt lat="44.330013372864975" lon="8.511627785351582"><ele>6.571428571428571</ele><time>2026-04-24T15:44:26Z</time></trkpt><trkpt lat="44.32999607940787" lon="8.511540439474864"><ele>6.428571428571429</ele><time>2026-04-24T15:44:39Z</time></trkpt><trkpt lat="44.32995207330095" lon="8.511444859258194"><ele>6.285714285714286</ele><time>2026-04-24T15:44:45Z</time></trkpt><trkpt lat="44.329944449426876" lon="8.51135226162897"><ele>6.142857142857142</ele><time>2026-04-24T15:44:48Z</time></trkpt><trkpt lat="44.32991058367106" lon="8.511272504308506"><ele>6.0</ele><time>2026-04-24T15:44:50Z</time></trkpt><trkpt lat="44.329888021114755" lon="8.511186632380737"><ele>5.666666666666667</ele><time>2026-04-24T15:44:52Z</time></trkpt><trkpt lat="44.32985756455538" lon="8.511085142553725"><ele>5.333333333333333</ele><time>2026-04-24T15:44:54Z</time></trkpt><trkpt lat="44.329829808909345" lon="8.510975543278517"><ele>5.0</ele><time>2026-04-24T15:44:56Z</time></trkpt><trkpt lat="44.32979626636546" lon="8.510873072351076"><ele>4.666666666666666</ele><time>2026-04-24T15:44:59Z</time></trkpt><trkpt lat="44.32976501538468" lon="8.510774959258923"><ele>4.333333333333333</ele><time>2026-04-24T15:45:39Z</time></trkpt><trkpt lat="44.32973448694011" lon="8.510670235745676"><ele>4.0</ele><time>2026-04-24T15:45:42Z</time></trkpt><trkpt lat="44.32969941569774" lon="8.510552031084424"><ele>3.9999999999999996</ele><time>2026-04-24T15:45:45Z</time></trkpt><trkpt lat="44.329673923954765" lon="8.510433721159108"><ele>4.0</ele><time>2026-04-24T15:45:48Z</time></trkpt><trkpt lat="44.329644830512514" lon="8.510340550873188"><ele>4.0</ele><time>2026-04-24T15:45:50Z</time></trkpt><trkpt lat="44.329604611273346" lon="8.51021765595351"><ele>4.0</ele><time>2026-04-24T15:45:53Z</time></trkpt><trkpt lat="44.32957830944692" lon="8.510122208064738"><ele>3.9999999999999996</ele><time>2026-04-24T15:45:56Z</time></trkpt><trkpt lat="44.32955342822064" lon="8.510040956011473"><ele>4.0</ele><time>2026-04-24T15:45:59Z</time></trkpt><trkpt lat="44.3295203261713" lon="8.509928213176476"><ele>4.142857142857142</ele><time>2026-04-24T15:46:02Z</time></trkpt><trkpt lat="44.32948972405102" lon="8.509827820412466"><ele>4.285714285714286</ele><time>2026-04-24T15:46:04Z</time></trkpt><trkpt lat="44.329471142013034" lon="8.509734809088904"><ele>4.428571428571429</ele><time>2026-04-24T15:46:07Z</time></trkpt><trkpt lat="44.32944593104007" lon="8.509641612213123"><ele>4.571428571428571</ele><time>2026-04-24T15:46:14Z</time></trkpt><trkpt lat="44.32942336421965" lon="8.50955806536922"><ele>4.714285714285714</ele><time>2026-04-24T15:46:16Z</time></trkpt><trkpt lat="44.329397598632646" lon="8.509463456579114"><ele>4.857142857142857</ele><time>2026-04-24T15:46:18Z</time></trkpt><trkpt lat="44.32936314643394" lon="8.509348443968392"><ele>5.0</ele><time>2026-04-24T15:46:20Z</time></trkpt><trkpt lat="44.32933549470764" lon="8.509241775663215"><ele>4.5</ele><time>2026-04-24T15:46:22Z</time></trkpt><trkpt lat="44.32931266546147" lon="8.509150875502797"><ele>4.0</ele><time>2026-04-24T15:46:24Z</time></trkpt><trkpt lat="44.32927651247471" lon="8.509045778014034"><ele>3.5</ele><time>2026-04-24T15:46:27Z</time></trkpt><trkpt lat="44.32923401948004" lon="8.508967416242818"><ele>3.0</ele><time>2026-04-24T15:46:35Z</time></trkpt><trkpt lat="44.32920423564825" lon="8.508857376942094"><ele>2.5</ele><time>2026-04-24T15:46:39Z</time></trkpt><trkpt lat="44.32918738042486" lon="8.508747048629221"><ele>2.0</ele><time>2026-04-24T15:46:42Z</time></trkpt><trkpt lat="44.32914809556654" lon="8.508667393721039"><ele>1.9999999999999998</ele><time>2026-04-24T15:46:45Z</time></trkpt><trkpt lat="44.329127044444036" lon="8.508569381072983"><ele>2.0</ele><time>2026-04-24T15:46:48Z</time></trkpt><trkpt lat="44.32909025226663" lon="8.508449604467025"><ele>2.0</ele><time>2026-04-24T15:46:51Z</time></trkpt><trkpt lat="44.32905675132097" lon="8.508340100038449"><ele>2.0</ele><time>2026-04-24T15:46:54Z</time></trkpt><trkpt lat="44.32902893646879" lon="8.508247766044247"><ele>1.9999999999999998</ele><time>2026-04-24T15:46:57Z</time></trkpt><trkpt lat="44.32900249429182" lon="8.508148232283604"><ele>2.0</ele><time>2026-04-24T15:47:01Z</time></trkpt><trkpt lat="44.328979077552994" lon="8.508055123763645"><ele>1.9999999999999998</ele><time>2026-04-24T15:47:04Z</time></trkpt><trkpt lat="44.3289497306685" lon="8.507965699910745"><ele>2.0</ele><time>2026-04-24T15:47:08Z</time></trkpt><trkpt lat="44.328923914569764" lon="8.507881365932006"><ele>2.0</ele><time>2026-04-24T15:47:12Z</time></trkpt><trkpt lat="44.32888939635245" lon="8.507770957854452"><ele>2.0</ele><time>2026-04-24T15:47:16Z</time></trkpt><trkpt lat="44.32885987434163" lon="8.507663647409828"><ele>1.9999999999999998</ele><time>2026-04-24T15:47:19Z</time></trkpt><trkpt lat="44.328843829383715" lon="8.507564793214687"><ele>2.0</ele><time>2026-04-24T15:47:25Z</time></trkpt><trkpt lat="44.328818582818194" lon="8.507456727612542"><ele>2.333333333333333</ele><time>2026-04-24T15:48:13Z</time></trkpt><trkpt lat="44.32879291406221" lon="8.507371206775012"><ele>2.6666666666666665</ele><time>2026-04-24T15:48:16Z</time></trkpt><trkpt lat="44.32876444618552" lon="8.507279370978319"><ele>3.0</ele><time>2026-04-24T15:48:29Z</time></trkpt><trkpt lat="44.32872329602997" lon="8.507151976256411"><ele>3.333333333333333</ele><time>2026-04-24T15:48:31Z</time></trkpt><trkpt lat="44.32868187561707" lon="8.507035223405008"><ele>3.6666666666666665</ele><time>2026-04-24T15:48:33Z</time></trkpt><trkpt lat="44.32863797253372" lon="8.5068913578876"><ele>4.0</ele><time>2026-04-24T15:48:35Z</time></trkpt><trkpt lat="44.32860691585947" lon="8.50680534746953"><ele>4.166666666666666</ele><time>2026-04-24T15:48:36Z</time></trkpt><trkpt lat="44.328575104373975" lon="8.506714393798497"><ele>4.333333333333333</ele><time>2026-04-24T15:48:37Z</time></trkpt><trkpt lat="44.32854050800977" lon="8.506614771986223"><ele>4.5</ele><time>2026-04-24T15:48:38Z</time></trkpt><trkpt lat="44.32850185651622" lon="8.506514158443396"><ele>4.666666666666667</ele><time>2026-04-24T15:48:39Z</time></trkpt><trkpt lat="44.3284662354513" lon="8.506412860388693"><ele>4.833333333333334</ele><time>2026-04-24T15:48:40Z</time></trkpt><trkpt lat="44.3284352518341" lon="8.50632490543366"><ele>5.0</ele><time>2026-04-24T15:48:41Z</time></trkpt><trkpt lat="44.32840689695912" lon="8.50624231170384"><ele>5.2</ele><time>2026-04-24T15:48:42Z</time></trkpt><trkpt lat="44.32837854210626" lon="8.506158498987332"><ele>5.4</ele><time>2026-04-24T15:48:43Z</time></trkpt><trkpt lat="44.328324050821834" lon="8.506005238875428"><ele>5.6</ele><time>2026-04-24T15:48:45Z</time></trkpt><trkpt lat="44.32827633702306" lon="8.50587188821195"><ele>5.8</ele><time>2026-04-24T15:48:47Z</time></trkpt><trkpt lat="44.328233300868604" lon="8.505759852452782"><ele>6.0</ele><time>2026-04-24T15:48:49Z</time></trkpt><trkpt lat="44.3281935587163" lon="8.505661848255679"><ele>6.0</ele><time>2026-04-24T15:48:51Z</time></trkpt><trkpt lat="44.328157592669314" lon="8.505562596204147"><ele>6.0</ele><time>2026-04-24T15:48:54Z</time></trkpt><trkpt lat="44.32810696069701" lon="8.505467258261538"><ele>6.0</ele><time>2026-04-24T15:49:23Z</time></trkpt><trkpt lat="44.32806145991384" lon="8.505350410753293"><ele>6.0</ele><time>2026-04-24T15:49:25Z</time></trkpt><trkpt lat="44.3280185666608" lon="8.505243479421159"><ele>6.0</ele><time>2026-04-24T15:49:27Z</time></trkpt><trkpt lat="44.327973893991285" lon="8.505135806828422"><ele>6.0</ele><time>2026-04-24T15:49:29Z</time></trkpt><trkpt lat="44.32793435244541" lon="8.505042641741433"><ele>5.833333333333333</ele><time>2026-04-24T15:49:31Z</time></trkpt><trkpt lat="44.327891309447054" lon="8.504952002790628"><ele>5.666666666666667</ele><time>2026-04-24T15:49:33Z</time></trkpt><trkpt lat="44.32784238165164" lon="8.504850854065923"><ele>5.5</ele><time>2026-04-24T15:49:35Z</time></trkpt><trkpt lat="44.32779896942822" lon="8.50475523717143"><ele>5.333333333333334</ele><time>2026-04-24T15:49:37Z</time></trkpt><trkpt lat="44.32776115215729" lon="8.504663224824915"><ele>5.166666666666667</ele><time>2026-04-24T15:49:39Z</time></trkpt><trkpt lat="44.3277218027966" lon="8.504557643097183"><ele>5.0</ele><time>2026-04-24T15:49:41Z</time></trkpt><trkpt lat="44.32768071537996" lon="8.504454114612672"><ele>5.333333333333334</ele><time>2026-04-24T15:49:43Z</time></trkpt><trkpt lat="44.327641858036635" lon="8.504355655390148"><ele>5.666666666666667</ele><time>2026-04-24T15:49:45Z</time></trkpt><trkpt lat="44.327605072756484" lon="8.504253660331901"><ele>6.0</ele><time>2026-04-24T15:49:47Z</time></trkpt><trkpt lat="44.32756480548402" lon="8.504155163449967"><ele>6.333333333333334</ele><time>2026-04-24T15:49:49Z</time></trkpt><trkpt lat="44.327517935090306" lon="8.504038005633557"><ele>6.666666666666667</ele><time>2026-04-24T15:49:51Z</time></trkpt><trkpt lat="44.32748275562371" lon="8.503947963011464"><ele>7.0</ele><time>2026-04-24T15:49:53Z</time></trkpt><trkpt lat="44.32744677962873" lon="8.50385576407873"><ele>7.0</ele><time>2026-04-24T15:49:55Z</time></trkpt><trkpt lat="44.327412343616054" lon="8.503767626851737"><ele>6.999999999999999</ele><time>2026-04-24T15:49:57Z</time></trkpt><trkpt lat="44.32736947209079" lon="8.503661916928174"><ele>6.999999999999999</ele><time>2026-04-24T15:49:59Z</time></trkpt><trkpt lat="44.32732699254451" lon="8.503554080502797"><ele>7.0</ele><time>2026-04-24T15:50:01Z</time></trkpt><trkpt lat="44.32727720591472" lon="8.503433989815225"><ele>7.0</ele><time>2026-04-24T15:50:03Z</time></trkpt><trkpt lat="44.32722477932679" lon="8.503307432537223"><ele>6.8</ele><time>2026-04-24T15:50:05Z</time></trkpt><trkpt lat="44.3271752366601" lon="8.503179985786955"><ele>6.6</ele><time>2026-04-24T15:50:07Z</time></trkpt><trkpt lat="44.32713516225677" lon="8.503075779938795"><ele>6.3999999999999995</ele><time>2026-04-24T15:50:09Z</time></trkpt><trkpt lat="44.327089639496705" lon="8.502965403333752"><ele>6.199999999999999</ele><time>2026-04-24T15:50:11Z</time></trkpt><trkpt lat="44.32703781363823" lon="8.502835410191327"><ele>6.0</ele><time>2026-04-24T15:50:13Z</time></trkpt><trkpt lat="44.326991282671614" lon="8.50270662796905"><ele>6.0</ele><time>2026-04-24T15:50:15Z</time></trkpt><trkpt lat="44.32694671963185" lon="8.50258086583159"><ele>6.0</ele><time>2026-04-24T15:50:17Z</time></trkpt><trkpt lat="44.326908664158175" lon="8.50246667365833"><ele>6.0</ele><time>2026-04-24T15:50:19Z</time></trkpt><trkpt lat="44.32687262513557" lon="8.502345270326428"><ele>6.0</ele><time>2026-04-24T15:50:21Z</time></trkpt><trkpt lat="44.326832657404985" lon="8.502211125421482"><ele>6.0</ele><time>2026-04-24T15:50:23Z</time></trkpt><trkpt lat="44.3268036340073" lon="8.502109391106995"><ele>6.6</ele><time>2026-04-24T15:50:25Z</time></trkpt><trkpt lat="44.3267785111577" lon="8.502026906536878"><ele>7.199999999999999</ele><time>2026-04-24T15:50:29Z</time></trkpt><trkpt lat="44.326736588167876" lon="8.50189919339307"><ele>7.800000000000001</ele><time>2026-04-24T15:50:32Z</time></trkpt><trkpt lat="44.32670099111736" lon="8.501784680182999"><ele>8.4</ele><time>2026-04-24T15:50:34Z</time></trkpt><trkpt lat="44.326646852932015" lon="8.501632752613693"><ele>9.0</ele><time>2026-04-24T15:50:36Z</time></trkpt><trkpt lat="44.326590132662254" lon="8.50150412145264"><ele>9.0</ele><time>2026-04-24T15:50:38Z</time></trkpt><trkpt lat="44.32652394860113" lon="8.501369483472006"><ele>9.0</ele><time>2026-04-24T15:50:40Z</time></trkpt><trkpt lat="44.326481892425" lon="8.50130162812275"><ele>9.0</ele><time>2026-04-24T15:50:41Z</time></trkpt><trkpt lat="44.326401274254" lon="8.501160645856679"><ele>9.0</ele><time>2026-04-24T15:50:43Z</time></trkpt><trkpt lat="44.3263288952394" lon="8.501038548040682"><ele>9.0</ele><time>2026-04-24T15:50:45Z</time></trkpt><trkpt lat="44.32625436182966" lon="8.500923186317667"><ele>8.666666666666666</ele><time>2026-04-24T15:50:47Z</time></trkpt><trkpt lat="44.32618373323559" lon="8.500822123520884"><ele>8.333333333333334</ele><time>2026-04-24T15:50:49Z</time></trkpt><trkpt lat="44.32612341093007" lon="8.500732108732688"><ele>8.0</ele><time>2026-04-24T15:50:51Z</time></trkpt><trkpt lat="44.326072396565614" lon="8.500661121618583"><ele>7.666666666666667</ele><time>2026-04-24T15:50:53Z</time></trkpt><trkpt lat="44.32602404361612" lon="8.500595562029622"><ele>7.333333333333334</ele><time>2026-04-24T15:50:55Z</time></trkpt><trkpt lat="44.32596194803344" lon="8.50051510429099"><ele>7.0</ele><time>2026-04-24T15:50:57Z</time></trkpt><trkpt lat="44.32587649817905" lon="8.50042028934278"><ele>7.199999999999999</ele><time>2026-04-24T15:50:59Z</time></trkpt><trkpt lat="44.325779277454856" lon="8.500315797536604"><ele>7.3999999999999995</ele><time>2026-04-24T15:51:01Z</time></trkpt><trkpt lat="44.325686277642646" lon="8.500220352193098"><ele>7.6000000000000005</ele><time>2026-04-24T15:51:03Z</time></trkpt><trkpt lat="44.325588720085015" lon="8.500128970572419"><ele>7.800000000000001</ele><time>2026-04-24T15:51:05Z</time></trkpt><trkpt lat="44.32553061497307" lon="8.500075720336579"><ele>8.0</ele><time>2026-04-24T15:51:06Z</time></trkpt><trkpt lat="44.325467848012046" lon="8.500020699402995"><ele>7.499999999999999</ele><time>2026-04-24T15:51:07Z</time></trkpt><trkpt lat="44.32539462915348" lon="8.499961464399934"><ele>7.0</ele><time>2026-04-24T15:51:08Z</time></trkpt><trkpt lat="44.32532651788684" lon="8.499907722512003"><ele>6.5</ele><time>2026-04-24T15:51:09Z</time></trkpt><trkpt lat="44.32525647087115" lon="8.499854556701768"><ele>6.0</ele><time>2026-04-24T15:51:10Z</time></trkpt><trkpt lat="44.3251854973136" lon="8.499800666149882"><ele>5.5</ele><time>2026-04-24T15:51:11Z</time></trkpt><trkpt lat="44.32511861380419" lon="8.499751336994478"><ele>5.0</ele><time>2026-04-24T15:51:12Z</time></trkpt><trkpt lat="44.32504298618836" lon="8.499700246420812"><ele>5.0</ele><time>2026-04-24T15:51:13Z</time></trkpt><trkpt lat="44.32496420945807" lon="8.499648667897832"><ele>5.0</ele><time>2026-04-24T15:51:14Z</time></trkpt><trkpt lat="44.32487777173735" lon="8.49959422928068"><ele>5.0</ele><time>2026-04-24T15:51:15Z</time></trkpt><trkpt lat="44.32478462277484" lon="8.499536462644462"><ele>5.0</ele><time>2026-04-24T15:51:16Z</time></trkpt><trkpt lat="44.32468729953722" lon="8.499481168591103"><ele>5.0</ele><time>2026-04-24T15:51:17Z</time></trkpt><trkpt lat="44.32458795696097" lon="8.499417575781221"><ele>8.75</ele><time>2026-04-24T15:51:18Z</time></trkpt><trkpt lat="44.32448013676193" lon="8.499351841524518"><ele>12.5</ele><time>2026-04-24T15:51:19Z</time></trkpt><trkpt lat="44.32436789589877" lon="8.49927892423238"><ele>16.25</ele><time>2026-04-24T15:51:20Z</time></trkpt><trkpt lat="44.324256458179114" lon="8.499209564675375"><ele>20.0</ele><time>2026-04-24T15:51:21Z</time></trkpt><trkpt lat="44.32414278042855" lon="8.499140619240475"><ele>20.0</ele><time>2026-04-24T15:51:22Z</time></trkpt><trkpt lat="44.324024414614" lon="8.49906429785598"><ele>20.0</ele><time>2026-04-24T15:51:23Z</time></trkpt><trkpt lat="44.32391157256527" lon="8.49899408931876"><ele>20.0</ele><time>2026-04-24T15:51:24Z</time></trkpt><trkpt lat="44.32380006370553" lon="8.498925604396808"><ele>20.0</ele><time>2026-04-24T15:51:25Z</time></trkpt><trkpt lat="44.32368558991375" lon="8.498854501448266"><ele>16.75</ele><time>2026-04-24T15:51:26Z</time></trkpt><trkpt lat="44.32357512310158" lon="8.498788377788742"><ele>13.5</ele><time>2026-04-24T15:51:27Z</time></trkpt><trkpt lat="44.32347265271162" lon="8.498726274799507"><ele>10.25</ele><time>2026-04-24T15:51:28Z</time></trkpt><trkpt lat="44.3233699259106" lon="8.498670463440094"><ele>7.0</ele><time>2026-04-24T15:51:29Z</time></trkpt><trkpt lat="44.32326578193243" lon="8.498614999598516"><ele>8.0</ele><time>2026-04-24T15:51:30Z</time></trkpt><trkpt lat="44.32316520100269" lon="8.498560626779133"><ele>9.0</ele><time>2026-04-24T15:51:31Z</time></trkpt><trkpt lat="44.32306631809721" lon="8.498511600658853"><ele>10.0</ele><time>2026-04-24T15:51:32Z</time></trkpt><trkpt lat="44.32296400589135" lon="8.49846462159085"><ele>11.0</ele><time>2026-04-24T15:51:33Z</time></trkpt><trkpt lat="44.322862217883085" lon="8.498407574154298"><ele>12.0</ele><time>2026-04-24T15:51:34Z</time></trkpt><trkpt lat="44.3227621159005" lon="8.498344895025634"><ele>12.0</ele><time>2026-04-24T15:51:35Z</time></trkpt><trkpt lat="44.322666262208244" lon="8.498281964184828"><ele>12.0</ele><time>2026-04-24T15:51:36Z</time></trkpt><trkpt lat="44.3225727742554" lon="8.498209659071986"><ele>12.0</ele><time>2026-04-24T15:51:37Z</time></trkpt><trkpt lat="44.322484307506656" lon="8.49812503628836"><ele>12.0</ele><time>2026-04-24T15:51:38Z</time></trkpt><trkpt lat="44.32239717442385" lon="8.498032609294198"><ele>12.0</ele><time>2026-04-24T15:51:39Z</time></trkpt><trkpt lat="44.32231341535481" lon="8.497926568884994"><ele>11.25</ele><time>2026-04-24T15:51:40Z</time></trkpt><trkpt lat="44.32223211239766" lon="8.49781228140862"><ele>10.5</ele><time>2026-04-24T15:51:41Z</time></trkpt><trkpt lat="44.32215663197325" lon="8.497704270542519"><ele>9.75</ele><time>2026-04-24T15:51:42Z</time></trkpt><trkpt lat="44.32207874372068" lon="8.49758146265954"><ele>9.0</ele><time>2026-04-24T15:51:43Z</time></trkpt><trkpt lat="44.32200627893026" lon="8.4974634474024"><ele>9.0</ele><time>2026-04-24T15:51:44Z</time></trkpt><trkpt lat="44.321934014482586" lon="8.497344936781811"><ele>9.0</ele><time>2026-04-24T15:51:45Z</time></trkpt><trkpt lat="44.32185959367523" lon="8.497221733161545"><ele>9.0</ele><time>2026-04-24T15:51:46Z</time></trkpt><trkpt lat="44.32179254862597" lon="8.497114600012052"><ele>9.0</ele><time>2026-04-24T15:51:47Z</time></trkpt><trkpt lat="44.32172865132598" lon="8.49699999690476"><ele>9.0</ele><time>2026-04-24T15:51:48Z</time></trkpt><trkpt lat="44.32167246108262" lon="8.496889260857756"><ele>9.2</ele><time>2026-04-24T15:51:49Z</time></trkpt><trkpt lat="44.321613729378434" lon="8.49676703454589"><ele>9.4</ele><time>2026-04-24T15:51:50Z</time></trkpt><trkpt lat="44.321559672236475" lon="8.496644512055303"><ele>9.6</ele><time>2026-04-24T15:51:51Z</time></trkpt><trkpt lat="44.32150460452388" lon="8.496515776742509"><ele>9.8</ele><time>2026-04-24T15:51:52Z</time></trkpt><trkpt lat="44.321453609557295" lon="8.496396849172054"><ele>10.0</ele><time>2026-04-24T15:51:53Z</time></trkpt><trkpt lat="44.32139798492602" lon="8.496273786579634"><ele>9.8</ele><time>2026-04-24T15:51:54Z</time></trkpt><trkpt lat="44.32134168365599" lon="8.496145834243643"><ele>9.6</ele><time>2026-04-24T15:51:55Z</time></trkpt><trkpt lat="44.32128559603531" lon="8.496027125160333"><ele>9.4</ele><time>2026-04-24T15:51:56Z</time></trkpt><trkpt lat="44.32122247801224" lon="8.495910217438015"><ele>9.2</ele><time>2026-04-24T15:51:57Z</time></trkpt><trkpt lat="44.32116724835338" lon="8.495802647102353"><ele>9.0</ele><time>2026-04-24T15:51:58Z</time></trkpt><trkpt lat="44.32110697469635" lon="8.495696169344194"><ele>9.0</ele><time>2026-04-24T15:51:59Z</time></trkpt><trkpt lat="44.321050426102424" lon="8.495597997037011"><ele>9.0</ele><time>2026-04-24T15:52:00Z</time></trkpt><trkpt lat="44.320986082552565" lon="8.495506116313102"><ele>9.0</ele><time>2026-04-24T15:52:01Z</time></trkpt><trkpt lat="44.32092661682944" lon="8.495429435022233"><ele>9.0</ele><time>2026-04-24T15:52:02Z</time></trkpt><trkpt lat="44.320857045815586" lon="8.495362942098213"><ele>9.0</ele><time>2026-04-24T15:52:03Z</time></trkpt><trkpt lat="44.32077776757432" lon="8.495305963992266"><ele>9.0</ele><time>2026-04-24T15:52:04Z</time></trkpt><trkpt lat="44.320689416616695" lon="8.495252325560894"><ele>10.0</ele><time>2026-04-24T15:52:05Z</time></trkpt><trkpt lat="44.32059235562653" lon="8.495206168607753"><ele>11.0</ele><time>2026-04-24T15:52:06Z</time></trkpt><trkpt lat="44.32049205090928" lon="8.495162405367216"><ele>11.999999999999998</ele><time>2026-04-24T15:52:07Z</time></trkpt><trkpt lat="44.32038696803987" lon="8.495104154839963"><ele>13.0</ele><time>2026-04-24T15:52:08Z</time></trkpt><trkpt lat="44.320274250000224" lon="8.495043396052166"><ele>14.0</ele><time>2026-04-24T15:52:09Z</time></trkpt><trkpt lat="44.32016247128394" lon="8.494994647856656"><ele>14.0</ele><time>2026-04-24T15:52:10Z</time></trkpt><trkpt lat="44.32005604310818" lon="8.49493976479148"><ele>13.999999999999998</ele><time>2026-04-24T15:52:11Z</time></trkpt><trkpt lat="44.319964763760545" lon="8.494881789976558"><ele>13.999999999999998</ele><time>2026-04-24T15:52:12Z</time></trkpt><trkpt lat="44.31987675341033" lon="8.49481488488478"><ele>14.0</ele><time>2026-04-24T15:52:13Z</time></trkpt><trkpt lat="44.319801746881154" lon="8.494737386152988"><ele>14.0</ele><time>2026-04-24T15:52:14Z</time></trkpt><trkpt lat="44.31972604458507" lon="8.49464258446006"><ele>14.399999999999999</ele><time>2026-04-24T15:52:15Z</time></trkpt><trkpt lat="44.319654828095466" lon="8.494533182699854"><ele>14.799999999999999</ele><time>2026-04-24T15:52:16Z</time></trkpt><trkpt lat="44.31957989537912" lon="8.49441662516476"><ele>15.200000000000001</ele><time>2026-04-24T15:52:17Z</time></trkpt><trkpt lat="44.31950045543405" lon="8.494295932351672"><ele>15.600000000000001</ele><time>2026-04-24T15:52:18Z</time></trkpt><trkpt lat="44.319424576196724" lon="8.494184635631871"><ele>16.0</ele><time>2026-04-24T15:52:19Z</time></trkpt><trkpt lat="44.31934129647728" lon="8.494065269196017"><ele>16.0</ele><time>2026-04-24T15:52:20Z</time></trkpt><trkpt lat="44.31925859072774" lon="8.493956733817491"><ele>16.0</ele><time>2026-04-24T15:52:21Z</time></trkpt><trkpt lat="44.31917410783594" lon="8.4938568515365"><ele>16.0</ele><time>2026-04-24T15:52:22Z</time></trkpt><trkpt lat="44.31907862735452" lon="8.493758660083943"><ele>16.0</ele><time>2026-04-24T15:52:23Z</time></trkpt><trkpt lat="44.318974627685144" lon="8.493661027824395"><ele>17.75</ele><time>2026-04-24T15:52:24Z</time></trkpt><trkpt lat="44.31886786900897" lon="8.493570033121639"><ele>19.5</ele><time>2026-04-24T15:52:25Z</time></trkpt><trkpt lat="44.31876898122601" lon="8.493485073549548"><ele>21.25</ele><time>2026-04-24T15:52:26Z</time></trkpt><trkpt lat="44.31866491946102" lon="8.493397308985923"><ele>23.0</ele><time>2026-04-24T15:52:27Z</time></trkpt><trkpt lat="44.31855561640431" lon="8.493309308546733"><ele>23.0</ele><time>2026-04-24T15:52:28Z</time></trkpt><trkpt lat="44.31844157461562" lon="8.49321512493305"><ele>23.0</ele><time>2026-04-24T15:52:29Z</time></trkpt><trkpt lat="44.318333066270775" lon="8.493121164873694"><ele>23.0</ele><time>2026-04-24T15:52:30Z</time></trkpt><trkpt lat="44.31821846105718" lon="8.493025680889321"><ele>23.0</ele><time>2026-04-24T15:52:31Z</time></trkpt><trkpt lat="44.31809282458819" lon="8.492920372774055"><ele>21.25</ele><time>2026-04-24T15:52:32Z</time></trkpt><trkpt lat="44.31797954022061" lon="8.492826147983394"><ele>19.5</ele><time>2026-04-24T15:52:33Z</time></trkpt><trkpt lat="44.31786610282134" lon="8.492733603325624"><ele>17.75</ele><time>2026-04-24T15:52:34Z</time></trkpt><trkpt lat="44.31775307579564" lon="8.49264370519681"><ele>16.0</ele><time>2026-04-24T15:52:35Z</time></trkpt><trkpt lat="44.31764925296407" lon="8.492557641362286"><ele>16.0</ele><time>2026-04-24T15:52:36Z</time></trkpt><trkpt lat="44.31754407491846" lon="8.492440186739284"><ele>16.0</ele><time>2026-04-24T15:52:37Z</time></trkpt><trkpt lat="44.31744522947213" lon="8.492274037115575"><ele>16.0</ele><time>2026-04-24T15:52:39Z</time></trkpt><trkpt lat="44.317365919744624" lon="8.492181515692282"><ele>16.0</ele><time>2026-04-24T15:52:40Z</time></trkpt><trkpt lat="44.31728302781752" lon="8.492089098771954"><ele>14.999999999999998</ele><time>2026-04-24T15:52:41Z</time></trkpt><trkpt lat="44.31720547125633" lon="8.492001075314372"><ele>14.0</ele><time>2026-04-24T15:52:42Z</time></trkpt><trkpt lat="44.31713225590295" lon="8.491910781269063"><ele>13.0</ele><time>2026-04-24T15:52:43Z</time></trkpt><trkpt lat="44.317066239139244" lon="8.491832940847965"><ele>12.0</ele><time>2026-04-24T15:52:44Z</time></trkpt><trkpt lat="44.31700674537683" lon="8.491763943070096"><ele>11.0</ele><time>2026-04-24T15:52:45Z</time></trkpt><trkpt lat="44.31695665549031" lon="8.491702918296395"><ele>10.0</ele><time>2026-04-24T15:52:46Z</time></trkpt><trkpt lat="44.316867193264876" lon="8.49160004704005"><ele>10.0</ele><time>2026-04-24T15:52:48Z</time></trkpt><trkpt lat="44.31680669122362" lon="8.491531349398421"><ele>10.0</ele><time>2026-04-24T15:52:50Z</time></trkpt><trkpt lat="44.316748149213154" lon="8.491472989622295"><ele>10.0</ele><time>2026-04-24T15:52:53Z</time></trkpt><trkpt lat="44.31668745487616" lon="8.491403902592634"><ele>10.0</ele><time>2026-04-24T15:53:19Z</time></trkpt><trkpt lat="44.31662152845108" lon="8.491351930539158"><ele>10.0</ele><time>2026-04-24T15:53:30Z</time></trkpt><trkpt lat="44.31656325393299" lon="8.491274658149276"><ele>10.0</ele><time>2026-04-24T15:53:32Z</time></trkpt><trkpt lat="44.31649066495622" lon="8.491189672157981"><ele>10.333333333333334</ele><time>2026-04-24T15:53:34Z</time></trkpt><trkpt lat="44.316403064166906" lon="8.491095044459334"><ele>10.666666666666668</ele><time>2026-04-24T15:53:36Z</time></trkpt><trkpt lat="44.31634749436617" lon="8.491033388134491"><ele>11.0</ele><time>2026-04-24T15:53:37Z</time></trkpt><trkpt lat="44.316292339361404" lon="8.490969093053774"><ele>11.333333333333334</ele><time>2026-04-24T15:53:38Z</time></trkpt><trkpt lat="44.316231624104624" lon="8.49090704952732"><ele>11.666666666666666</ele><time>2026-04-24T15:53:39Z</time></trkpt><trkpt lat="44.316166321397105" lon="8.490840803591178"><ele>12.0</ele><time>2026-04-24T15:53:40Z</time></trkpt><trkpt lat="44.31609434032077" lon="8.49077235997633"><ele>12.0</ele><time>2026-04-24T15:53:41Z</time></trkpt><trkpt lat="44.31602683234026" lon="8.490715938036518"><ele>12.0</ele><time>2026-04-24T15:53:42Z</time></trkpt><trkpt lat="44.31595254077257" lon="8.490651061262833"><ele>12.0</ele><time>2026-04-24T15:53:43Z</time></trkpt><trkpt lat="44.31588117876977" lon="8.490598668482036"><ele>12.0</ele><time>2026-04-24T15:53:44Z</time></trkpt><trkpt lat="44.31580976174628" lon="8.490547088650567"><ele>12.0</ele><time>2026-04-24T15:53:45Z</time></trkpt><trkpt lat="44.31573737568974" lon="8.490499106535509"><ele>12.0</ele><time>2026-04-24T15:53:46Z</time></trkpt><trkpt lat="44.31566759564556" lon="8.490457674808622"><ele>12.5</ele><time>2026-04-24T15:53:47Z</time></trkpt><trkpt lat="44.31560290230288" lon="8.490420645713632"><ele>13.0</ele><time>2026-04-24T15:53:48Z</time></trkpt><trkpt lat="44.31553368854065" lon="8.490385086983048"><ele>13.5</ele><time>2026-04-24T15:53:49Z</time></trkpt><trkpt lat="44.315459040820606" lon="8.49034806494181"><ele>14.0</ele><time>2026-04-24T15:53:50Z</time></trkpt><trkpt lat="44.31539169335264" lon="8.490316355314373"><ele>14.5</ele><time>2026-04-24T15:53:51Z</time></trkpt><trkpt lat="44.3153294965066" lon="8.490285720447975"><ele>15.0</ele><time>2026-04-24T15:53:52Z</time></trkpt><trkpt lat="44.3152280127765" lon="8.490219087684467"><ele>15.0</ele><time>2026-04-24T15:53:54Z</time></trkpt><trkpt lat="44.315139608734164" lon="8.49013889037148"><ele>15.0</ele><time>2026-04-24T15:53:56Z</time></trkpt><trkpt lat="44.315065946535036" lon="8.490062619524325"><ele>15.0</ele><time>2026-04-24T15:53:58Z</time></trkpt><trkpt lat="44.31497469305516" lon="8.489942629860089"><ele>15.0</ele><time>2026-04-24T15:54:00Z</time></trkpt><trkpt lat="44.31492740448641" lon="8.48986895037943"><ele>15.0</ele><time>2026-04-24T15:54:01Z</time></trkpt><trkpt lat="44.31486137595109" lon="8.48974929573531"><ele>15.0</ele><time>2026-04-24T15:54:03Z</time></trkpt><trkpt lat="44.314805535411644" lon="8.489612833252018"><ele>15.0</ele><time>2026-04-24T15:54:05Z</time></trkpt><trkpt lat="44.314747272735005" lon="8.489467380453561"><ele>15.0</ele><time>2026-04-24T15:54:07Z</time></trkpt><trkpt lat="44.31471598811096" lon="8.489385284561013"><ele>15.0</ele><time>2026-04-24T15:54:08Z</time></trkpt><trkpt lat="44.31466274104588" lon="8.489249165083146"><ele>15.0</ele><time>2026-04-24T15:54:10Z</time></trkpt><trkpt lat="44.31459990584575" lon="8.489111614112364"><ele>13.2</ele><time>2026-04-24T15:54:12Z</time></trkpt><trkpt lat="44.314530245003816" lon="8.488984786534683"><ele>11.4</ele><time>2026-04-24T15:54:14Z</time></trkpt><trkpt lat="44.314455746028905" lon="8.488867737607766"><ele>9.6</ele><time>2026-04-24T15:54:16Z</time></trkpt><trkpt lat="44.31437322401918" lon="8.488749567185785"><ele>7.8</ele><time>2026-04-24T15:54:18Z</time></trkpt><trkpt lat="44.3143232233708" lon="8.488682066545968"><ele>6.0</ele><time>2026-04-24T15:54:19Z</time></trkpt><trkpt lat="44.314276628527516" lon="8.488617313996912"><ele>6.0</ele><time>2026-04-24T15:54:20Z</time></trkpt><trkpt lat="44.31422899299655" lon="8.488547867670206"><ele>6.0</ele><time>2026-04-24T15:54:21Z</time></trkpt><trkpt lat="44.314130709196654" lon="8.488421266008633"><ele>6.0</ele><time>2026-04-24T15:54:23Z</time></trkpt><trkpt lat="44.31407558086975" lon="8.488350586502827"><ele>6.0</ele><time>2026-04-24T15:54:24Z</time></trkpt><trkpt lat="44.314024934242916" lon="8.488275742522625"><ele>6.0</ele><time>2026-04-24T15:54:25Z</time></trkpt><trkpt lat="44.313971387335506" lon="8.488198277317606"><ele>6.0</ele><time>2026-04-24T15:54:26Z</time></trkpt><trkpt lat="44.31392045313496" lon="8.488124815900234"><ele>5.166666666666667</ele><time>2026-04-24T15:54:27Z</time></trkpt><trkpt lat="44.31386673793895" lon="8.488048906501467"><ele>4.333333333333333</ele><time>2026-04-24T15:54:28Z</time></trkpt><trkpt lat="44.313814240501976" lon="8.487979960130106"><ele>3.5</ele><time>2026-04-24T15:54:29Z</time></trkpt><trkpt lat="44.31376428608943" lon="8.487919956205936"><ele>2.6666666666666665</ele><time>2026-04-24T15:54:30Z</time></trkpt><trkpt lat="44.31370433473866" lon="8.487859179481777"><ele>1.8333333333333333</ele><time>2026-04-24T15:54:31Z</time></trkpt><trkpt lat="44.31365047909137" lon="8.487810157849996"><ele>1.0</ele><time>2026-04-24T15:54:32Z</time></trkpt><trkpt lat="44.3135486572281" lon="8.487741850164534"><ele>4.8</ele><time>2026-04-24T15:54:34Z</time></trkpt><trkpt lat="44.31345633215792" lon="8.487694651038991"><ele>8.6</ele><time>2026-04-24T15:54:36Z</time></trkpt><trkpt lat="44.31337292857181" lon="8.487661669521978"><ele>12.4</ele><time>2026-04-24T15:54:38Z</time></trkpt><trkpt lat="44.31327564232342" lon="8.487646077884826"><ele>16.2</ele><time>2026-04-24T15:54:40Z</time></trkpt><trkpt lat="44.313176693920425" lon="8.487637761088859"><ele>20.0</ele><time>2026-04-24T15:54:42Z</time></trkpt><trkpt lat="44.31306894625609" lon="8.487635655927592"><ele>20.0</ele><time>2026-04-24T15:54:44Z</time></trkpt><trkpt lat="44.31296446156498" lon="8.487649208767412"><ele>20.0</ele><time>2026-04-24T15:54:46Z</time></trkpt><trkpt lat="44.31287897126962" lon="8.48765530720711"><ele>20.0</ele><time>2026-04-24T15:54:48Z</time></trkpt><trkpt lat="44.312805694937325" lon="8.487654918221525"><ele>20.0</ele><time>2026-04-24T15:54:50Z</time></trkpt><trkpt lat="44.31274002236056" lon="8.487658103156894"><ele>20.0</ele><time>2026-04-24T15:54:53Z</time></trkpt><trkpt lat="44.31265535875466" lon="8.487660236578723"><ele>20.0</ele><time>2026-04-24T15:55:04Z</time></trkpt><trkpt lat="44.31257464260673" lon="8.487655691226363"><ele>20.0</ele><time>2026-04-24T15:55:06Z</time></trkpt><trkpt lat="44.3124999625068" lon="8.487636847929545"><ele>20.0</ele><time>2026-04-24T15:55:08Z</time></trkpt><trkpt lat="44.312404777684996" lon="8.487596353149236"><ele>20.0</ele><time>2026-04-24T15:55:10Z</time></trkpt><trkpt lat="44.3123134468352" lon="8.487532957441791"><ele>20.0</ele><time>2026-04-24T15:55:12Z</time></trkpt><trkpt lat="44.31222729439503" lon="8.48744831785773"><ele>20.0</ele><time>2026-04-24T15:55:14Z</time></trkpt><trkpt lat="44.31215212949124" lon="8.487339128300738"><ele>17.8</ele><time>2026-04-24T15:55:16Z</time></trkpt><trkpt lat="44.31208906917677" lon="8.487212325705134"><ele>15.6</ele><time>2026-04-24T15:55:18Z</time></trkpt><trkpt lat="44.31202945518663" lon="8.487103497087439"><ele>13.4</ele><time>2026-04-24T15:55:20Z</time></trkpt><trkpt lat="44.31196594922104" lon="8.486986071782693"><ele>11.2</ele><time>2026-04-24T15:55:22Z</time></trkpt><trkpt lat="44.311904393283065" lon="8.486873021637882"><ele>9.0</ele><time>2026-04-24T15:55:24Z</time></trkpt><trkpt lat="44.311842706292715" lon="8.486770274104192"><ele>9.0</ele><time>2026-04-24T15:55:26Z</time></trkpt><trkpt lat="44.31177847471838" lon="8.486662520382156"><ele>9.0</ele><time>2026-04-24T15:55:28Z</time></trkpt><trkpt lat="44.311717983412876" lon="8.486570166320412"><ele>9.0</ele><time>2026-04-24T15:55:30Z</time></trkpt><trkpt lat="44.31164720505476" lon="8.48646931543853"><ele>9.0</ele><time>2026-04-24T15:55:32Z</time></trkpt><trkpt lat="44.311594587590754" lon="8.486395934699546"><ele>9.0</ele><time>2026-04-24T15:55:34Z</time></trkpt><trkpt lat="44.311533644680125" lon="8.486317843842404"><ele>9.0</ele><time>2026-04-24T15:55:36Z</time></trkpt><trkpt lat="44.31147867507349" lon="8.486244924256354"><ele>9.0</ele><time>2026-04-24T15:55:38Z</time></trkpt><trkpt lat="44.31142159602498" lon="8.486178755167286"><ele>9.0</ele><time>2026-04-24T15:55:40Z</time></trkpt><trkpt lat="44.31134978604635" lon="8.486103555185077"><ele>9.0</ele><time>2026-04-24T15:55:43Z</time></trkpt><trkpt lat="44.31127626398676" lon="8.486028911531255"><ele>9.0</ele><time>2026-04-24T15:55:46Z</time></trkpt><trkpt lat="44.31120991308865" lon="8.485976534715773"><ele>9.0</ele><time>2026-04-24T15:55:49Z</time></trkpt><trkpt lat="44.3111402434772" lon="8.48591658295865"><ele>9.0</ele><time>2026-04-24T15:55:52Z</time></trkpt><trkpt lat="44.311079535744604" lon="8.485862083058239"><ele>9.0</ele><time>2026-04-24T15:55:54Z</time></trkpt><trkpt lat="44.31102096267049" lon="8.485814715002013"><ele>9.0</ele><time>2026-04-24T15:55:56Z</time></trkpt><trkpt lat="44.31095638794396" lon="8.485761608500205"><ele>9.0</ele><time>2026-04-24T15:55:58Z</time></trkpt><trkpt lat="44.31087410298735" lon="8.485689962742807"><ele>9.0</ele><time>2026-04-24T15:56:00Z</time></trkpt><trkpt lat="44.310779901402356" lon="8.485611204018074"><ele>9.0</ele><time>2026-04-24T15:56:02Z</time></trkpt><trkpt lat="44.31068378521723" lon="8.485533411072016"><ele>9.0</ele><time>2026-04-24T15:56:04Z</time></trkpt><trkpt lat="44.31059597704172" lon="8.485458492231134"><ele>9.0</ele><time>2026-04-24T15:56:06Z</time></trkpt><trkpt lat="44.31050353571405" lon="8.485379467411795"><ele>9.0</ele><time>2026-04-24T15:56:08Z</time></trkpt><trkpt lat="44.31040479813273" lon="8.48529830260928"><ele>9.0</ele><time>2026-04-24T15:56:10Z</time></trkpt><trkpt lat="44.31032332329795" lon="8.485225337612697"><ele>9.0</ele><time>2026-04-24T15:56:12Z</time></trkpt><trkpt lat="44.31025169387024" lon="8.485160749458412"><ele>8.6</ele><time>2026-04-24T15:56:14Z</time></trkpt><trkpt lat="44.310194285506874" lon="8.4851003034778"><ele>8.2</ele><time>2026-04-24T15:56:18Z</time></trkpt><trkpt lat="44.31011893820459" lon="8.485016415983605"><ele>7.799999999999999</ele><time>2026-04-24T15:56:22Z</time></trkpt><trkpt lat="44.310039645058005" lon="8.484926444091181"><ele>7.3999999999999995</ele><time>2026-04-24T15:56:24Z</time></trkpt><trkpt lat="44.30994309179242" lon="8.484836185295405"><ele>7.0</ele><time>2026-04-24T15:56:26Z</time></trkpt><trkpt lat="44.30985085991811" lon="8.484780038219833"><ele>7.000000000000001</ele><time>2026-04-24T15:56:28Z</time></trkpt><trkpt lat="44.3097847035961" lon="8.484752989325935"><ele>7.0</ele><time>2026-04-24T15:56:30Z</time></trkpt><trkpt lat="44.30973419937916" lon="8.484806559438843"><ele>7.0</ele><time>2026-04-24T15:56:37Z</time></trkpt><trkpt lat="44.30980956712773" lon="8.484808043013473"><ele>7.0</ele><time>2026-04-24T15:56:40Z</time></trkpt><trkpt lat="44.3098941779764" lon="8.484838999413176"><ele>7.000000000000001</ele><time>2026-04-24T15:56:42Z</time></trkpt><trkpt lat="44.30997818425156" lon="8.484903208215497"><ele>7.0</ele><time>2026-04-24T15:56:44Z</time></trkpt><trkpt lat="44.3100449461665" lon="8.484968321166619"><ele>7.0</ele><time>2026-04-24T15:56:47Z</time></trkpt><trkpt lat="44.3100391999372" lon="8.484851458198941"><ele>6.999999999999999</ele><time>2026-04-24T15:56:58Z</time></trkpt><trkpt lat="44.30995877437994" lon="8.48478175487299"><ele>6.999999999999999</ele><time>2026-04-24T15:57:00Z</time></trkpt><trkpt lat="44.30985412294616" lon="8.484721571872356"><ele>7.0</ele><time>2026-04-24T15:57:02Z</time></trkpt><trkpt lat="44.309744227309984" lon="8.484701634179334"><ele>7.0</ele><time>2026-04-24T15:57:04Z</time></trkpt><trkpt lat="44.30962895302759" lon="8.48474015549144"><ele>6.666666666666667</ele><time>2026-04-24T15:57:06Z</time></trkpt><trkpt lat="44.30951220851542" lon="8.48476483405263"><ele>6.333333333333334</ele><time>2026-04-24T15:57:08Z</time></trkpt><trkpt lat="44.30944898508707" lon="8.48475104663648"><ele>6.0</ele><time>2026-04-24T15:57:09Z</time></trkpt><trkpt lat="44.30938230001619" lon="8.48473672693724"><ele>5.666666666666667</ele><time>2026-04-24T15:57:10Z</time></trkpt><trkpt lat="44.309305796862525" lon="8.484708723692389"><ele>5.333333333333334</ele><time>2026-04-24T15:57:11Z</time></trkpt><trkpt lat="44.30922454286253" lon="8.484684134599476"><ele>5.0</ele><time>2026-04-24T15:57:12Z</time></trkpt><trkpt lat="44.30915098530632" lon="8.484657394890629"><ele>5.0</ele><time>2026-04-24T15:57:13Z</time></trkpt><trkpt lat="44.309071285621286" lon="8.484631057410176"><ele>5.0</ele><time>2026-04-24T15:57:14Z</time></trkpt><trkpt lat="44.30899616975418" lon="8.484604580317605"><ele>5.0</ele><time>2026-04-24T15:57:15Z</time></trkpt><trkpt lat="44.30892300954921" lon="8.484584951105932"><ele>5.0</ele><time>2026-04-24T15:57:16Z</time></trkpt><trkpt lat="44.30885248676064" lon="8.484569728924338"><ele>5.0</ele><time>2026-04-24T15:57:17Z</time></trkpt><trkpt lat="44.30878705959629" lon="8.4845552977976"><ele>5.0</ele><time>2026-04-24T15:57:18Z</time></trkpt><trkpt lat="44.30867216322151" lon="8.484540070543426"><ele>5.0</ele><time>2026-04-24T15:57:20Z</time></trkpt><trkpt lat="44.3085705823396" lon="8.484534158077587"><ele>5.0</ele><time>2026-04-24T15:57:22Z</time></trkpt><trkpt lat="44.30849588460095" lon="8.484533866853964"><ele>5.0</ele><time>2026-04-24T15:57:24Z</time></trkpt><trkpt lat="44.3084181324702" lon="8.4845512391889"><ele>5.0</ele><time>2026-04-24T15:57:26Z</time></trkpt><trkpt lat="44.3083299702281" lon="8.484566682977421"><ele>5.0</ele><time>2026-04-24T15:57:28Z</time></trkpt><trkpt lat="44.30824294240986" lon="8.484595809951102"><ele>5.0</ele><time>2026-04-24T15:57:30Z</time></trkpt><trkpt lat="44.308147050155874" lon="8.484637522839629"><ele>5.4</ele><time>2026-04-24T15:57:32Z</time></trkpt><trkpt lat="44.30803828355712" lon="8.484697389488515"><ele>5.8</ele><time>2026-04-24T15:57:34Z</time></trkpt><trkpt lat="44.30793931877608" lon="8.48476622865555"><ele>6.199999999999999</ele><time>2026-04-24T15:57:36Z</time></trkpt><trkpt lat="44.30783549383372" lon="8.484850909340581"><ele>6.6</ele><time>2026-04-24T15:57:38Z</time></trkpt><trkpt lat="44.30777860405036" lon="8.484899619076208"><ele>7.0</ele><time>2026-04-24T15:57:39Z</time></trkpt><trkpt lat="44.307717711870296" lon="8.484942905482278"><ele>7.0</ele><time>2026-04-24T15:57:40Z</time></trkpt><trkpt lat="44.30765103540976" lon="8.484989964171318"><ele>7.0</ele><time>2026-04-24T15:57:41Z</time></trkpt><trkpt lat="44.30758395201152" lon="8.485042598255486"><ele>7.0</ele><time>2026-04-24T15:57:42Z</time></trkpt><trkpt lat="44.30751851958275" lon="8.485088677988585"><ele>7.0</ele><time>2026-04-24T15:57:43Z</time></trkpt><trkpt lat="44.30745021115285" lon="8.48512614292255"><ele>7.0</ele><time>2026-04-24T15:57:44Z</time></trkpt><trkpt lat="44.3073808706262" lon="8.485153604478954"><ele>7.0</ele><time>2026-04-24T15:57:45Z</time></trkpt><trkpt lat="44.30730894325029" lon="8.485163516287441"><ele>7.0</ele><time>2026-04-24T15:57:46Z</time></trkpt><trkpt lat="44.307238296192736" lon="8.48516198663792"><ele>7.166666666666667</ele><time>2026-04-24T15:57:47Z</time></trkpt><trkpt lat="44.30716628019905" lon="8.485146836499801"><ele>7.333333333333334</ele><time>2026-04-24T15:57:48Z</time></trkpt><trkpt lat="44.307093320839925" lon="8.485115932893308"><ele>7.5</ele><time>2026-04-24T15:57:49Z</time></trkpt><trkpt lat="44.307025655882946" lon="8.485079823530821"><ele>7.666666666666666</ele><time>2026-04-24T15:57:50Z</time></trkpt><trkpt lat="44.30695504040514" lon="8.485037741411967"><ele>7.833333333333333</ele><time>2026-04-24T15:57:51Z</time></trkpt><trkpt lat="44.30688559303464" lon="8.484990784737791"><ele>8.0</ele><time>2026-04-24T15:57:52Z</time></trkpt><trkpt lat="44.306815517618965" lon="8.484933328655645"><ele>8.0</ele><time>2026-04-24T15:57:53Z</time></trkpt><trkpt lat="44.30674798360824" lon="8.484875765341009"><ele>7.999999999999999</ele><time>2026-04-24T15:57:54Z</time></trkpt><trkpt lat="44.30668846170533" lon="8.484822133081082"><ele>8.0</ele><time>2026-04-24T15:57:55Z</time></trkpt><trkpt lat="44.30663524666925" lon="8.484769070676876"><ele>8.0</ele><time>2026-04-24T15:57:56Z</time></trkpt><trkpt lat="44.306582103871904" lon="8.48471249287487"><ele>7.999999999999999</ele><time>2026-04-24T15:57:57Z</time></trkpt><trkpt lat="44.306529923182936" lon="8.484653802450431"><ele>8.0</ele><time>2026-04-24T15:57:58Z</time></trkpt><trkpt lat="44.30647825586729" lon="8.48458976411364"><ele>8.0</ele><time>2026-04-24T15:57:59Z</time></trkpt><trkpt lat="44.30638810951311" lon="8.484473228903983"><ele>7.999999999999999</ele><time>2026-04-24T15:58:01Z</time></trkpt><trkpt lat="44.30634330291534" lon="8.48441126668008"><ele>8.0</ele><time>2026-04-24T15:58:02Z</time></trkpt><trkpt lat="44.3062614654739" lon="8.484292882947368"><ele>8.0</ele><time>2026-04-24T15:58:04Z</time></trkpt><trkpt lat="44.306179878924205" lon="8.484170442826434"><ele>8.0</ele><time>2026-04-24T15:58:06Z</time></trkpt><trkpt lat="44.30613632784766" lon="8.484100068729223"><ele>7.999999999999999</ele><time>2026-04-24T15:58:07Z</time></trkpt><trkpt lat="44.30609291849737" lon="8.484029154916344"><ele>8.0</ele><time>2026-04-24T15:58:08Z</time></trkpt><trkpt lat="44.306045188343745" lon="8.48394793841747"><ele>7.999999999999999</ele><time>2026-04-24T15:58:09Z</time></trkpt><trkpt lat="44.30599885115045" lon="8.483867315862577"><ele>8.0</ele><time>2026-04-24T15:58:10Z</time></trkpt><trkpt lat="44.30595222498684" lon="8.483781752356611"><ele>8.0</ele><time>2026-04-24T15:58:11Z</time></trkpt><trkpt lat="44.30590630963773" lon="8.483696687581764"><ele>8.0</ele><time>2026-04-24T15:58:12Z</time></trkpt><trkpt lat="44.305856168893285" lon="8.48361158312695"><ele>7.999999999999999</ele><time>2026-04-24T15:58:13Z</time></trkpt><trkpt lat="44.30580757935004" lon="8.483525369593565"><ele>8.0</ele><time>2026-04-24T15:58:14Z</time></trkpt><trkpt lat="44.30575913313001" lon="8.483439258400184"><ele>8.0</ele><time>2026-04-24T15:58:15Z</time></trkpt><trkpt lat="44.30571401276401" lon="8.483360048816492"><ele>7.999999999999999</ele><time>2026-04-24T15:58:16Z</time></trkpt><trkpt lat="44.305669597128734" lon="8.483277374740107"><ele>8.0</ele><time>2026-04-24T15:58:17Z</time></trkpt><trkpt lat="44.305623762224684" lon="8.483196111992081"><ele>8.0</ele><time>2026-04-24T15:58:18Z</time></trkpt><trkpt lat="44.305582717012534" lon="8.483120014426614"><ele>7.999999999999999</ele><time>2026-04-24T15:58:19Z</time></trkpt><trkpt lat="44.30554004846292" lon="8.483047290515323"><ele>8.0</ele><time>2026-04-24T15:58:20Z</time></trkpt><trkpt lat="44.30549052924983" lon="8.482972396549062"><ele>8.0</ele><time>2026-04-24T15:58:21Z</time></trkpt><trkpt lat="44.305451100716844" lon="8.482901595922076"><ele>8.333333333333332</ele><time>2026-04-24T15:58:22Z</time></trkpt><trkpt lat="44.30540816311156" lon="8.482826632066974"><ele>8.666666666666666</ele><time>2026-04-24T15:58:23Z</time></trkpt><trkpt lat="44.305337768020706" lon="8.482708032379717"><ele>9.0</ele><time>2026-04-24T15:58:25Z</time></trkpt><trkpt lat="44.305282698318976" lon="8.482606811323784"><ele>9.333333333333334</ele><time>2026-04-24T15:58:27Z</time></trkpt><trkpt lat="44.30523847143473" lon="8.482526110498391"><ele>9.666666666666668</ele><time>2026-04-24T15:58:29Z</time></trkpt><trkpt lat="44.30518580680893" lon="8.482432781890733"><ele>10.0</ele><time>2026-04-24T15:58:32Z</time></trkpt><trkpt lat="44.30513498444091" lon="8.482342469314126"><ele>10.0</ele><time>2026-04-24T15:59:07Z</time></trkpt><trkpt lat="44.305078644656724" lon="8.482239182276567"><ele>10.0</ele><time>2026-04-24T15:59:10Z</time></trkpt><trkpt lat="44.30502967395747" lon="8.482132012068286"><ele>10.0</ele><time>2026-04-24T15:59:12Z</time></trkpt><trkpt lat="44.30498548506021" lon="8.48199538684064"><ele>10.0</ele><time>2026-04-24T15:59:14Z</time></trkpt><trkpt lat="44.304970445122734" lon="8.48183667441718"><ele>10.0</ele><time>2026-04-24T15:59:16Z</time></trkpt><trkpt lat="44.30494080783754" lon="8.481664987036234"><ele>10.0</ele><time>2026-04-24T15:59:18Z</time></trkpt><trkpt lat="44.30492180262592" lon="8.48155797242672"><ele>10.0</ele><time>2026-04-24T15:59:19Z</time></trkpt><trkpt lat="44.30490486528074" lon="8.481458532464508"><ele>10.0</ele><time>2026-04-24T15:59:20Z</time></trkpt><trkpt lat="44.30488525696187" lon="8.48134963945643"><ele>10.0</ele><time>2026-04-24T15:59:21Z</time></trkpt><trkpt lat="44.30486147831842" lon="8.481245410183993"><ele>10.0</ele><time>2026-04-24T15:59:22Z</time></trkpt><trkpt lat="44.30483823578572" lon="8.481138274241417"><ele>10.0</ele><time>2026-04-24T15:59:23Z</time></trkpt><trkpt lat="44.30481763743705" lon="8.481039672127066"><ele>10.166666666666668</ele><time>2026-04-24T15:59:24Z</time></trkpt><trkpt lat="44.30479202881129" lon="8.480928685730873"><ele>10.333333333333334</ele><time>2026-04-24T15:59:25Z</time></trkpt><trkpt lat="44.304766202580325" lon="8.480806427920863"><ele>10.5</ele><time>2026-04-24T15:59:26Z</time></trkpt><trkpt lat="44.304746655269824" lon="8.480685165085822"><ele>10.666666666666666</ele><time>2026-04-24T15:59:27Z</time></trkpt><trkpt lat="44.30472190063113" lon="8.480570819127522"><ele>10.833333333333332</ele><time>2026-04-24T15:59:28Z</time></trkpt><trkpt lat="44.30469989615535" lon="8.480462907145883"><ele>11.0</ele><time>2026-04-24T15:59:29Z</time></trkpt><trkpt lat="44.30467549567169" lon="8.480355282003732"><ele>11.833333333333332</ele><time>2026-04-24T15:59:30Z</time></trkpt><trkpt lat="44.304654759269134" lon="8.480239916304102"><ele>12.666666666666666</ele><time>2026-04-24T15:59:31Z</time></trkpt><trkpt lat="44.30464034620384" lon="8.480121351448972"><ele>13.5</ele><time>2026-04-24T15:59:32Z</time></trkpt><trkpt lat="44.30462132385492" lon="8.480004282037473"><ele>14.333333333333332</ele><time>2026-04-24T15:59:33Z</time></trkpt><trkpt lat="44.30459687407019" lon="8.479884389743484"><ele>15.166666666666666</ele><time>2026-04-24T15:59:34Z</time></trkpt><trkpt lat="44.30457150645991" lon="8.479752539896579"><ele>16.0</ele><time>2026-04-24T15:59:35Z</time></trkpt><trkpt lat="44.304540354896986" lon="8.479613349228693"><ele>15.4</ele><time>2026-04-24T15:59:36Z</time></trkpt><trkpt lat="44.3045146868538" lon="8.479472205932897"><ele>14.8</ele><time>2026-04-24T15:59:37Z</time></trkpt><trkpt lat="44.30448108071439" lon="8.479338959219254"><ele>14.200000000000001</ele><time>2026-04-24T15:59:38Z</time></trkpt><trkpt lat="44.30445021329998" lon="8.479188149420171"><ele>13.600000000000001</ele><time>2026-04-24T15:59:39Z</time></trkpt><trkpt lat="44.304425658030816" lon="8.479051627922875"><ele>13.0</ele><time>2026-04-24T15:59:40Z</time></trkpt><trkpt lat="44.30439321024807" lon="8.478915533212195"><ele>13.0</ele><time>2026-04-24T15:59:41Z</time></trkpt><trkpt lat="44.30436770986337" lon="8.478782713859703"><ele>13.0</ele><time>2026-04-24T15:59:42Z</time></trkpt><trkpt lat="44.30434009028825" lon="8.478648794811239"><ele>13.0</ele><time>2026-04-24T15:59:43Z</time></trkpt><trkpt lat="44.304314288752664" lon="8.478507802300648"><ele>13.0</ele><time>2026-04-24T15:59:44Z</time></trkpt><trkpt lat="44.30427668313654" lon="8.47837018795918"><ele>13.0</ele><time>2026-04-24T15:59:45Z</time></trkpt><trkpt lat="44.30424118935217" lon="8.478227448529099"><ele>12.200000000000001</ele><time>2026-04-24T15:59:46Z</time></trkpt><trkpt lat="44.30420897426777" lon="8.47807572051686"><ele>11.4</ele><time>2026-04-24T15:59:47Z</time></trkpt><trkpt lat="44.304180472485925" lon="8.477933146324592"><ele>10.600000000000001</ele><time>2026-04-24T15:59:48Z</time></trkpt><trkpt lat="44.30415031402832" lon="8.477787498170354"><ele>9.8</ele><time>2026-04-24T15:59:49Z</time></trkpt><trkpt lat="44.30412013607535" lon="8.47765995294327"><ele>9.0</ele><time>2026-04-24T15:59:50Z</time></trkpt><trkpt lat="44.304090475474624" lon="8.477515558837787"><ele>9.0</ele><time>2026-04-24T15:59:51Z</time></trkpt><trkpt lat="44.304055957552386" lon="8.477373258855428"><ele>9.0</ele><time>2026-04-24T15:59:52Z</time></trkpt><trkpt lat="44.30402410518352" lon="8.477233700178704"><ele>9.0</ele><time>2026-04-24T15:59:53Z</time></trkpt><trkpt lat="44.30399630069566" lon="8.477096383299122"><ele>9.0</ele><time>2026-04-24T15:59:54Z</time></trkpt><trkpt lat="44.303968115322306" lon="8.476960153648253"><ele>9.0</ele><time>2026-04-24T15:59:55Z</time></trkpt><trkpt lat="44.303941847969334" lon="8.476835820509644"><ele>8.6</ele><time>2026-04-24T15:59:56Z</time></trkpt><trkpt lat="44.30391122846999" lon="8.476697772648683"><ele>8.2</ele><time>2026-04-24T15:59:57Z</time></trkpt><trkpt lat="44.303882802056734" lon="8.476557873134748"><ele>7.799999999999999</ele><time>2026-04-24T15:59:58Z</time></trkpt><trkpt lat="44.303858536297845" lon="8.476425304334565"><ele>7.3999999999999995</ele><time>2026-04-24T15:59:59Z</time></trkpt><trkpt lat="44.303830391811196" lon="8.47629294194038"><ele>7.0</ele><time>2026-04-24T16:00:00Z</time></trkpt><trkpt lat="44.30380823752043" lon="8.476170074765394"><ele>8.0</ele><time>2026-04-24T16:00:01Z</time></trkpt><trkpt lat="44.30378007902972" lon="8.47603277720493"><ele>9.0</ele><time>2026-04-24T16:00:02Z</time></trkpt><trkpt lat="44.30375274378777" lon="8.47590937942773"><ele>10.0</ele><time>2026-04-24T16:00:03Z</time></trkpt><trkpt lat="44.30373062115042" lon="8.475794933828555"><ele>11.0</ele><time>2026-04-24T16:00:04Z</time></trkpt><trkpt lat="44.30371223159417" lon="8.475687577696188"><ele>11.999999999999998</ele><time>2026-04-24T16:00:05Z</time></trkpt><trkpt lat="44.303695005669084" lon="8.475582543777598"><ele>13.0</ele><time>2026-04-24T16:00:06Z</time></trkpt><trkpt lat="44.3036777360784" lon="8.475488259542901"><ele>13.666666666666666</ele><time>2026-04-24T16:00:07Z</time></trkpt><trkpt lat="44.303657499484636" lon="8.475392410815235"><ele>14.333333333333332</ele><time>2026-04-24T16:00:08Z</time></trkpt><trkpt lat="44.303636901173455" lon="8.475252489163427"><ele>15.0</ele><time>2026-04-24T16:00:10Z</time></trkpt><trkpt lat="44.30361488289945" lon="8.475144751737986"><ele>15.666666666666668</ele><time>2026-04-24T16:00:12Z</time></trkpt><trkpt lat="44.30358341819467" lon="8.475051908175923"><ele>16.333333333333336</ele><time>2026-04-24T16:00:15Z</time></trkpt><trkpt lat="44.303551881629794" lon="8.474941672842927"><ele>17.0</ele><time>2026-04-24T16:00:42Z</time></trkpt><trkpt lat="44.30352711853684" lon="8.47480718028174"><ele>17.0</ele><time>2026-04-24T16:00:44Z</time></trkpt><trkpt lat="44.30349275588928" lon="8.474659450699907"><ele>17.0</ele><time>2026-04-24T16:00:46Z</time></trkpt><trkpt lat="44.30347598892741" lon="8.474566335540342"><ele>17.0</ele><time>2026-04-24T16:00:47Z</time></trkpt><trkpt lat="44.30346099623907" lon="8.474462921788431"><ele>17.0</ele><time>2026-04-24T16:00:48Z</time></trkpt><trkpt lat="44.30344468661217" lon="8.474352151330816"><ele>17.0</ele><time>2026-04-24T16:00:49Z</time></trkpt><trkpt lat="44.30341566596426" lon="8.474251225162336"><ele>17.0</ele><time>2026-04-24T16:00:50Z</time></trkpt><trkpt lat="44.303392043909845" lon="8.474146885573145"><ele>16.5</ele><time>2026-04-24T16:00:51Z</time></trkpt><trkpt lat="44.3033718014126" lon="8.4740468545659"><ele>16.0</ele><time>2026-04-24T16:00:52Z</time></trkpt><trkpt lat="44.303356627422346" lon="8.473954530263445"><ele>15.5</ele><time>2026-04-24T16:00:53Z</time></trkpt><trkpt lat="44.30333943180394" lon="8.473850205371656"><ele>15.0</ele><time>2026-04-24T16:00:54Z</time></trkpt><trkpt lat="44.30331617882888" lon="8.473736319783354"><ele>14.500000000000002</ele><time>2026-04-24T16:00:55Z</time></trkpt><trkpt lat="44.30328925834473" lon="8.473654653621606"><ele>14.0</ele><time>2026-04-24T16:00:56Z</time></trkpt><trkpt lat="44.30325701472303" lon="8.473522520349002"><ele>14.000000000000002</ele><time>2026-04-24T16:00:58Z</time></trkpt><trkpt lat="44.30323124967502" lon="8.473419718114165"><ele>14.0</ele><time>2026-04-24T16:01:00Z</time></trkpt><trkpt lat="44.30321759654562" lon="8.47330157588825"><ele>14.0</ele><time>2026-04-24T16:01:02Z</time></trkpt><trkpt lat="44.30318436319386" lon="8.473147681056153"><ele>14.0</ele><time>2026-04-24T16:01:04Z</time></trkpt><trkpt lat="44.30316709263888" lon="8.473059865133202"><ele>14.000000000000002</ele><time>2026-04-24T16:01:05Z</time></trkpt><trkpt lat="44.303144501342196" lon="8.472970175852517"><ele>14.0</ele><time>2026-04-24T16:01:06Z</time></trkpt><trkpt lat="44.30311216110836" lon="8.472813102289907"><ele>13.833333333333334</ele><time>2026-04-24T16:01:08Z</time></trkpt><trkpt lat="44.30310203186731" lon="8.472720172234453"><ele>13.666666666666668</ele><time>2026-04-24T16:01:09Z</time></trkpt><trkpt lat="44.303067411242736" lon="8.472547690001319"><ele>13.5</ele><time>2026-04-24T16:01:11Z</time></trkpt><trkpt lat="44.30304210462968" lon="8.47244686472149"><ele>13.333333333333332</ele><time>2026-04-24T16:01:12Z</time></trkpt><trkpt lat="44.303012922226564" lon="8.472331370446549"><ele>13.166666666666666</ele><time>2026-04-24T16:01:13Z</time></trkpt><trkpt lat="44.3029992827819" lon="8.472224078747178"><ele>13.0</ele><time>2026-04-24T16:01:14Z</time></trkpt><trkpt lat="44.30297656489428" lon="8.472116543477062"><ele>13.333333333333332</ele><time>2026-04-24T16:01:15Z</time></trkpt><trkpt lat="44.30294929169914" lon="8.471998534007184"><ele>13.666666666666666</ele><time>2026-04-24T16:01:16Z</time></trkpt><trkpt lat="44.30292293794498" lon="8.471881800169827"><ele>14.0</ele><time>2026-04-24T16:01:17Z</time></trkpt><trkpt lat="44.302898172459784" lon="8.471764061499089"><ele>14.333333333333332</ele><time>2026-04-24T16:01:18Z</time></trkpt><trkpt lat="44.30287602750121" lon="8.47165615844783"><ele>14.666666666666666</ele><time>2026-04-24T16:01:19Z</time></trkpt><trkpt lat="44.30285573839491" lon="8.47156531912834"><ele>15.0</ele><time>2026-04-24T16:01:20Z</time></trkpt><trkpt lat="44.30283600548292" lon="8.471466110723574"><ele>15.0</ele><time>2026-04-24T16:01:21Z</time></trkpt><trkpt lat="44.302815847448265" lon="8.471365680012282"><ele>15.0</ele><time>2026-04-24T16:01:22Z</time></trkpt><trkpt lat="44.302793941597656" lon="8.471256855151088"><ele>15.0</ele><time>2026-04-24T16:01:23Z</time></trkpt><trkpt lat="44.30277002563216" lon="8.471141878972858"><ele>15.0</ele><time>2026-04-24T16:01:24Z</time></trkpt><trkpt lat="44.30274795119926" lon="8.471037787702603"><ele>15.0</ele><time>2026-04-24T16:01:25Z</time></trkpt><trkpt lat="44.30272525047825" lon="8.470930298678535"><ele>15.0</ele><time>2026-04-24T16:01:26Z</time></trkpt><trkpt lat="44.302703664529986" lon="8.470821375895062"><ele>15.2</ele><time>2026-04-24T16:01:27Z</time></trkpt><trkpt lat="44.30268790864786" lon="8.470713025735556"><ele>15.4</ele><time>2026-04-24T16:01:28Z</time></trkpt><trkpt lat="44.3026726098667" lon="8.470620612539985"><ele>15.600000000000001</ele><time>2026-04-24T16:01:29Z</time></trkpt><trkpt lat="44.302659211237476" lon="8.47046706810832"><ele>15.8</ele><time>2026-04-24T16:01:31Z</time></trkpt><trkpt lat="44.30267112198762" lon="8.470312052647097"><ele>16.0</ele><time>2026-04-24T16:01:33Z</time></trkpt><trkpt lat="44.30266367214272" lon="8.470159462991724"><ele>15.666666666666666</ele><time>2026-04-24T16:01:35Z</time></trkpt><trkpt lat="44.30265522433226" lon="8.470027478412355"><ele>15.333333333333332</ele><time>2026-04-24T16:01:37Z</time></trkpt><trkpt lat="44.30265061706342" lon="8.469914059244656"><ele>15.0</ele><time>2026-04-24T16:01:39Z</time></trkpt><trkpt lat="44.30265572998813" lon="8.469808314641563"><ele>14.666666666666668</ele><time>2026-04-24T16:01:42Z</time></trkpt><trkpt lat="44.30266143162567" lon="8.469692375369283"><ele>14.333333333333334</ele><time>2026-04-24T16:01:45Z</time></trkpt><trkpt lat="44.30266193769649" lon="8.46959155449028"><ele>14.0</ele><time>2026-04-24T16:01:47Z</time></trkpt><trkpt lat="44.30266565602411" lon="8.469482165651117"><ele>13.571428571428571</ele><time>2026-04-24T16:01:50Z</time></trkpt><trkpt lat="44.30267132134994" lon="8.469362781929354"><ele>13.142857142857142</ele><time>2026-04-24T16:01:53Z</time></trkpt><trkpt lat="44.3026760059221" lon="8.46927239823714"><ele>12.714285714285715</ele><time>2026-04-24T16:01:55Z</time></trkpt><trkpt lat="44.302691666148476" lon="8.469170609031483"><ele>12.285714285714285</ele><time>2026-04-24T16:02:01Z</time></trkpt><trkpt lat="44.30268775348594" lon="8.469072546102744"><ele>11.857142857142858</ele><time>2026-04-24T16:02:05Z</time></trkpt><trkpt lat="44.30271419693227" lon="8.468972221557728"><ele>11.428571428571429</ele><time>2026-04-24T16:02:07Z</time></trkpt><trkpt lat="44.30275934795448" lon="8.468904460857548"><ele>11.0</ele><time>2026-04-24T16:02:09Z</time></trkpt><trkpt lat="44.30270254233118" lon="8.468821865657866"><ele>11.0</ele><time>2026-04-24T16:02:11Z</time></trkpt><trkpt lat="44.302614826485716" lon="8.468778031019077"><ele>11.0</ele><time>2026-04-24T16:02:13Z</time></trkpt><trkpt lat="44.30254683982651" lon="8.46882669024669"><ele>11.0</ele><time>2026-04-24T16:02:14Z</time></trkpt><trkpt lat="44.302483438302374" lon="8.468814478363921"><ele>11.0</ele><time>2026-04-24T16:02:15Z</time></trkpt><trkpt lat="44.30241214988849" lon="8.468805140492236"><ele>11.0</ele><time>2026-04-24T16:02:16Z</time></trkpt><trkpt lat="44.30233717684184" lon="8.468808407469085"><ele>11.0</ele><time>2026-04-24T16:02:17Z</time></trkpt><trkpt lat="44.30225062903949" lon="8.46876876165953"><ele>11.0</ele><time>2026-04-24T16:02:18Z</time></trkpt><trkpt lat="44.30217361832439" lon="8.468732149990693"><ele>11.0</ele><time>2026-04-24T16:02:19Z</time></trkpt><trkpt lat="44.30209540188525" lon="8.468708966435072"><ele>11.0</ele><time>2026-04-24T16:02:20Z</time></trkpt><trkpt lat="44.30201963117233" lon="8.468683935907068"><ele>11.0</ele><time>2026-04-24T16:02:21Z</time></trkpt><trkpt lat="44.30194896738771" lon="8.46864717677014"><ele>11.0</ele><time>2026-04-24T16:02:22Z</time></trkpt><trkpt lat="44.30188479998916" lon="8.468600275859856"><ele>11.0</ele><time>2026-04-24T16:02:23Z</time></trkpt><trkpt lat="44.30182410838054" lon="8.46853953494576"><ele>11.0</ele><time>2026-04-24T16:02:24Z</time></trkpt><trkpt lat="44.30176434094961" lon="8.46846238419196"><ele>11.0</ele><time>2026-04-24T16:02:25Z</time></trkpt><trkpt lat="44.30170561411044" lon="8.468368781760208"><ele>11.0</ele><time>2026-04-24T16:02:26Z</time></trkpt><trkpt lat="44.301643007761626" lon="8.468264299039703"><ele>11.0</ele><time>2026-04-24T16:02:27Z</time></trkpt><trkpt lat="44.30157428762726" lon="8.468156224097177"><ele>11.0</ele><time>2026-04-24T16:02:28Z</time></trkpt><trkpt lat="44.30150811348877" lon="8.46803748352108"><ele>11.0</ele><time>2026-04-24T16:02:29Z</time></trkpt><trkpt lat="44.3014371387824" lon="8.467910391851985"><ele>11.0</ele><time>2026-04-24T16:02:30Z</time></trkpt><trkpt lat="44.301365827920975" lon="8.467786286475636"><ele>11.0</ele><time>2026-04-24T16:02:31Z</time></trkpt><trkpt lat="44.301292896165286" lon="8.467653048307476"><ele>11.0</ele><time>2026-04-24T16:02:32Z</time></trkpt><trkpt lat="44.301215118381116" lon="8.467516611841717"><ele>11.0</ele><time>2026-04-24T16:02:33Z</time></trkpt><trkpt lat="44.30114382024539" lon="8.467394989275164"><ele>11.0</ele><time>2026-04-24T16:02:34Z</time></trkpt><trkpt lat="44.30106942278485" lon="8.467250243513801"><ele>11.0</ele><time>2026-04-24T16:02:35Z</time></trkpt><trkpt lat="44.30099851247257" lon="8.467125293004942"><ele>11.0</ele><time>2026-04-24T16:02:36Z</time></trkpt><trkpt lat="44.30093092541074" lon="8.46699555952095"><ele>10.8</ele><time>2026-04-24T16:02:37Z</time></trkpt><trkpt lat="44.300866409888435" lon="8.466875735848445"><ele>10.600000000000001</ele><time>2026-04-24T16:02:38Z</time></trkpt><trkpt lat="44.300804316380514" lon="8.466762513547012"><ele>10.4</ele><time>2026-04-24T16:02:39Z</time></trkpt><trkpt lat="44.300737583017145" lon="8.466638044330809"><ele>10.2</ele><time>2026-04-24T16:02:40Z</time></trkpt><trkpt lat="44.300672873888395" lon="8.466519019465194"><ele>10.0</ele><time>2026-04-24T16:02:41Z</time></trkpt><trkpt lat="44.30060202077824" lon="8.466398355425861"><ele>9.75</ele><time>2026-04-24T16:02:42Z</time></trkpt><trkpt lat="44.300531049932275" lon="8.46628192097796"><ele>9.5</ele><time>2026-04-24T16:02:43Z</time></trkpt><trkpt lat="44.30045684535535" lon="8.466166419103754"><ele>9.25</ele><time>2026-04-24T16:02:44Z</time></trkpt><trkpt lat="44.30037773898965" lon="8.466044322790236"><ele>9.0</ele><time>2026-04-24T16:02:45Z</time></trkpt><trkpt lat="44.300293334024325" lon="8.465921158914284"><ele>9.0</ele><time>2026-04-24T16:02:46Z</time></trkpt><trkpt lat="44.30020688632912" lon="8.465791087505547"><ele>9.0</ele><time>2026-04-24T16:02:47Z</time></trkpt><trkpt lat="44.30012064463211" lon="8.46565952591984"><ele>9.0</ele><time>2026-04-24T16:02:48Z</time></trkpt><trkpt lat="44.30003581504447" lon="8.465529626424669"><ele>9.0</ele><time>2026-04-24T16:02:49Z</time></trkpt><trkpt lat="44.29995458982968" lon="8.465398837215748"><ele>9.0</ele><time>2026-04-24T16:02:50Z</time></trkpt><trkpt lat="44.29987958603182" lon="8.465275120680095"><ele>9.0</ele><time>2026-04-24T16:02:51Z</time></trkpt><trkpt lat="44.299805230806946" lon="8.465148784609736"><ele>9.0</ele><time>2026-04-24T16:02:52Z</time></trkpt><trkpt lat="44.29973275898433" lon="8.465024973832842"><ele>9.0</ele><time>2026-04-24T16:02:53Z</time></trkpt><trkpt lat="44.29966013807264" lon="8.464897800147028"><ele>9.0</ele><time>2026-04-24T16:02:54Z</time></trkpt><trkpt lat="44.29958771153948" lon="8.464769357552653"><ele>9.0</ele><time>2026-04-24T16:02:55Z</time></trkpt><trkpt lat="44.299511510078645" lon="8.464641348338048"><ele>9.0</ele><time>2026-04-24T16:02:56Z</time></trkpt><trkpt lat="44.299440633131816" lon="8.46451537088117"><ele>9.0</ele><time>2026-04-24T16:02:57Z</time></trkpt><trkpt lat="44.29936940193519" lon="8.464388575829839"><ele>8.75</ele><time>2026-04-24T16:02:58Z</time></trkpt><trkpt lat="44.299294909858" lon="8.464257102887846"><ele>8.5</ele><time>2026-04-24T16:02:59Z</time></trkpt><trkpt lat="44.299223861116154" lon="8.464134645854614"><ele>8.25</ele><time>2026-04-24T16:03:00Z</time></trkpt><trkpt lat="44.29915569010922" lon="8.46400934503959"><ele>8.0</ele><time>2026-04-24T16:03:01Z</time></trkpt><trkpt lat="44.299089780328494" lon="8.463887948808615"><ele>8.0</ele><time>2026-04-24T16:03:02Z</time></trkpt><trkpt lat="44.299018838904075" lon="8.463764003638751"><ele>8.0</ele><time>2026-04-24T16:03:03Z</time></trkpt><trkpt lat="44.29895186422819" lon="8.463645300890208"><ele>8.0</ele><time>2026-04-24T16:03:04Z</time></trkpt><trkpt lat="44.298886120578295" lon="8.463530308399458"><ele>8.0</ele><time>2026-04-24T16:03:05Z</time></trkpt><trkpt lat="44.298825626576225" lon="8.463430158170514"><ele>8.0</ele><time>2026-04-24T16:03:06Z</time></trkpt><trkpt lat="44.298775768760244" lon="8.46333185010037"><ele>7.999999999999999</ele><time>2026-04-24T16:03:07Z</time></trkpt><trkpt lat="44.29873296676552" lon="8.463243031000932"><ele>8.0</ele><time>2026-04-24T16:03:08Z</time></trkpt><trkpt lat="44.29870379479544" lon="8.463155446907454"><ele>8.0</ele><time>2026-04-24T16:03:09Z</time></trkpt><trkpt lat="44.29869952096281" lon="8.463004764590652"><ele>8.0</ele><time>2026-04-24T16:03:11Z</time></trkpt><trkpt lat="44.298743071156785" lon="8.462867593875748"><ele>7.999999999999999</ele><time>2026-04-24T16:03:13Z</time></trkpt><trkpt lat="44.298789728987664" lon="8.4627944441219"><ele>8.0</ele><time>2026-04-24T16:03:16Z</time></trkpt><trkpt lat="44.29887906396797" lon="8.462733919696573"><ele>8.200000000000001</ele><time>2026-04-24T16:03:21Z</time></trkpt><trkpt lat="44.29898557573538" lon="8.462708773379724"><ele>8.4</ele><time>2026-04-24T16:03:23Z</time></trkpt><trkpt lat="44.298984432219" lon="8.462618488088102"><ele>8.600000000000001</ele><time>2026-04-24T16:03:24Z</time></trkpt><trkpt lat="44.29899070233975" lon="8.462513316656588"><ele>8.8</ele><time>2026-04-24T16:03:26Z</time></trkpt><trkpt lat="44.2989311582345" lon="8.462397790922923"><ele>9.0</ele><time>2026-04-24T16:03:28Z</time></trkpt><trkpt lat="44.29882426998182" lon="8.462297702666547"><ele>9.0</ele><time>2026-04-24T16:03:30Z</time></trkpt><trkpt lat="44.29877451731626" lon="8.462228936796919"><ele>9.0</ele><time>2026-04-24T16:03:31Z</time></trkpt><trkpt lat="44.298714572315475" lon="8.462160338938624"><ele>9.0</ele><time>2026-04-24T16:03:32Z</time></trkpt><trkpt lat="44.29868672559077" lon="8.462039146339922"><ele>9.0</ele><time>2026-04-24T16:03:33Z</time></trkpt><trkpt lat="44.298651213370775" lon="8.46192935690267"><ele>9.0</ele><time>2026-04-24T16:03:34Z</time></trkpt><trkpt lat="44.29862528833323" lon="8.461783021501137"><ele>9.0</ele><time>2026-04-24T16:03:35Z</time></trkpt><trkpt lat="44.29858899652074" lon="8.461650699260558"><ele>9.0</ele><time>2026-04-24T16:03:36Z</time></trkpt><trkpt lat="44.29853188802938" lon="8.46151868340772"><ele>9.0</ele><time>2026-04-24T16:03:37Z</time></trkpt><trkpt lat="44.298478704827865" lon="8.461375957310125"><ele>9.0</ele><time>2026-04-24T16:03:38Z</time></trkpt><trkpt lat="44.298432744033015" lon="8.461228760670458"><ele>9.0</ele><time>2026-04-24T16:03:39Z</time></trkpt><trkpt lat="44.298381543445224" lon="8.461076298147287"><ele>9.0</ele><time>2026-04-24T16:03:40Z</time></trkpt><trkpt lat="44.29832983168506" lon="8.460932497539535"><ele>9.0</ele><time>2026-04-24T16:03:41Z</time></trkpt><trkpt lat="44.29827559009417" lon="8.460791804425057"><ele>9.0</ele><time>2026-04-24T16:03:42Z</time></trkpt><trkpt lat="44.29822225986555" lon="8.46065103745463"><ele>9.0</ele><time>2026-04-24T16:03:43Z</time></trkpt><trkpt lat="44.29816336249668" lon="8.460513478842463"><ele>9.0</ele><time>2026-04-24T16:03:44Z</time></trkpt><trkpt lat="44.298115035704015" lon="8.460369995996581"><ele>9.0</ele><time>2026-04-24T16:03:45Z</time></trkpt><trkpt lat="44.29805753961955" lon="8.460232399325328"><ele>9.0</ele><time>2026-04-24T16:03:46Z</time></trkpt><trkpt lat="44.29800036848515" lon="8.460100936251605"><ele>9.0</ele><time>2026-04-24T16:03:47Z</time></trkpt><trkpt lat="44.29794331993662" lon="8.459977827882733"><ele>9.0</ele><time>2026-04-24T16:03:48Z</time></trkpt><trkpt lat="44.29788102546686" lon="8.459845993827301"><ele>9.0</ele><time>2026-04-24T16:03:49Z</time></trkpt><trkpt lat="44.297818924685366" lon="8.459714106502856"><ele>9.0</ele><time>2026-04-24T16:03:50Z</time></trkpt><trkpt lat="44.297756311818766" lon="8.459587900282825"><ele>9.0</ele><time>2026-04-24T16:03:51Z</time></trkpt><trkpt lat="44.29769191045544" lon="8.45946598754491"><ele>9.0</ele><time>2026-04-24T16:03:52Z</time></trkpt><trkpt lat="44.29762618193938" lon="8.45934094889707"><ele>9.0</ele><time>2026-04-24T16:03:53Z</time></trkpt><trkpt lat="44.29756399516067" lon="8.459225661262504"><ele>9.0</ele><time>2026-04-24T16:03:54Z</time></trkpt><trkpt lat="44.29749059073015" lon="8.459108341890333"><ele>9.0</ele><time>2026-04-24T16:03:55Z</time></trkpt><trkpt lat="44.297416136155945" lon="8.458987767395064"><ele>9.0</ele><time>2026-04-24T16:03:56Z</time></trkpt><trkpt lat="44.297348409014944" lon="8.458871492102086"><ele>9.0</ele><time>2026-04-24T16:03:57Z</time></trkpt><trkpt lat="44.29727979313012" lon="8.45875553707696"><ele>9.0</ele><time>2026-04-24T16:03:58Z</time></trkpt><trkpt lat="44.29722015780145" lon="8.458654083863417"><ele>9.142857142857144</ele><time>2026-04-24T16:03:59Z</time></trkpt><trkpt lat="44.29716716442796" lon="8.458567197259615"><ele>9.285714285714286</ele><time>2026-04-24T16:04:00Z</time></trkpt><trkpt lat="44.297116629746405" lon="8.458481517952963"><ele>9.428571428571429</ele><time>2026-04-24T16:04:01Z</time></trkpt><trkpt lat="44.29707158341149" lon="8.458396926656151"><ele>9.571428571428573</ele><time>2026-04-24T16:04:02Z</time></trkpt><trkpt lat="44.297031022375215" lon="8.458321539793006"><ele>9.714285714285715</ele><time>2026-04-24T16:04:03Z</time></trkpt><trkpt lat="44.29698766426915" lon="8.458243582196895"><ele>9.857142857142858</ele><time>2026-04-24T16:04:04Z</time></trkpt><trkpt lat="44.29694150398862" lon="8.458163323620878"><ele>10.0</ele><time>2026-04-24T16:04:05Z</time></trkpt><trkpt lat="44.29689380474064" lon="8.458079300894724"><ele>10.0</ele><time>2026-04-24T16:04:06Z</time></trkpt><trkpt lat="44.296846990088106" lon="8.457999020089789"><ele>10.0</ele><time>2026-04-24T16:04:07Z</time></trkpt><trkpt lat="44.29680137284337" lon="8.457920884990099"><ele>10.0</ele><time>2026-04-24T16:04:08Z</time></trkpt><trkpt lat="44.29675889107696" lon="8.457855488918263"><ele>10.0</ele><time>2026-04-24T16:04:09Z</time></trkpt><trkpt lat="44.296680535967766" lon="8.457725937560657"><ele>10.0</ele><time>2026-04-24T16:04:11Z</time></trkpt><trkpt lat="44.29662652942478" lon="8.457628009730826"><ele>10.0</ele><time>2026-04-24T16:04:13Z</time></trkpt><trkpt lat="44.29657934212259" lon="8.457545122096876"><ele>9.6</ele><time>2026-04-24T16:04:15Z</time></trkpt><trkpt lat="44.29651707976141" lon="8.457441104058077"><ele>9.2</ele><time>2026-04-24T16:04:17Z</time></trkpt><trkpt lat="44.2964543803489" lon="8.457322704319704"><ele>8.8</ele><time>2026-04-24T16:04:19Z</time></trkpt><trkpt lat="44.29642413897161" lon="8.45720007789439"><ele>8.4</ele><time>2026-04-24T16:04:21Z</time></trkpt><trkpt lat="44.29641799253579" lon="8.457067924350637"><ele>8.0</ele><time>2026-04-24T16:04:23Z</time></trkpt><trkpt lat="44.2964140864087" lon="8.45689136621044"><ele>7.999999999999999</ele><time>2026-04-24T16:04:25Z</time></trkpt><trkpt lat="44.2964029889322" lon="8.45679804629794"><ele>8.0</ele><time>2026-04-24T16:04:26Z</time></trkpt><trkpt lat="44.29638661520356" lon="8.45670408639503"><ele>8.0</ele><time>2026-04-24T16:04:27Z</time></trkpt><trkpt lat="44.296362420135644" lon="8.45661386826489"><ele>8.0</ele><time>2026-04-24T16:04:28Z</time></trkpt><trkpt lat="44.29633483976438" lon="8.456531639341751"><ele>7.999999999999999</ele><time>2026-04-24T16:04:29Z</time></trkpt><trkpt lat="44.29627284135582" lon="8.456396765322665"><ele>8.0</ele><time>2026-04-24T16:04:31Z</time></trkpt><trkpt lat="44.29618562376949" lon="8.456302766629273"><ele>8.0</ele><time>2026-04-24T16:04:33Z</time></trkpt><trkpt lat="44.29608856493164" lon="8.456254467946193"><ele>8.0</ele><time>2026-04-24T16:04:35Z</time></trkpt><trkpt lat="44.29597166030014" lon="8.456251638588327"><ele>8.0</ele><time>2026-04-24T16:04:37Z</time></trkpt><trkpt lat="44.29594139112466" lon="8.456161733274813"><ele>8.0</ele><time>2026-04-24T16:04:39Z</time></trkpt><trkpt lat="44.29589027912193" lon="8.456032809749715"><ele>8.0</ele><time>2026-04-24T16:04:41Z</time></trkpt><trkpt lat="44.29585275924935" lon="8.455958529222414"><ele>8.0</ele><time>2026-04-24T16:04:42Z</time></trkpt><trkpt lat="44.29568015814408" lon="8.455998818557399"><ele>8.0</ele><time>2026-04-24T16:04:43Z</time></trkpt><trkpt lat="44.295624195384" lon="8.455903857465696"><ele>8.0</ele><time>2026-04-24T16:04:44Z</time></trkpt><trkpt lat="44.29557194205976" lon="8.455815418581235"><ele>8.0</ele><time>2026-04-24T16:04:45Z</time></trkpt><trkpt lat="44.295518302195795" lon="8.455724688167317"><ele>8.0</ele><time>2026-04-24T16:04:46Z</time></trkpt><trkpt lat="44.29546254238914" lon="8.45563484488929"><ele>7.999999999999999</ele><time>2026-04-24T16:04:47Z</time></trkpt><trkpt lat="44.295407340063214" lon="8.455552900208305"><ele>8.0</ele><time>2026-04-24T16:04:48Z</time></trkpt><trkpt lat="44.29534932608039" lon="8.455472838357387"><ele>8.0</ele><time>2026-04-24T16:04:49Z</time></trkpt><trkpt lat="44.29529072823573" lon="8.455400670081408"><ele>8.0</ele><time>2026-04-24T16:04:50Z</time></trkpt><trkpt lat="44.29524647920262" lon="8.455302848634448"><ele>7.999999999999999</ele><time>2026-04-24T16:04:51Z</time></trkpt><trkpt lat="44.29519235924163" lon="8.455221263279482"><ele>8.0</ele><time>2026-04-24T16:04:52Z</time></trkpt><trkpt lat="44.29513744322379" lon="8.455140212069695"><ele>8.166666666666666</ele><time>2026-04-24T16:04:53Z</time></trkpt><trkpt lat="44.29508120164302" lon="8.455057204575635"><ele>8.333333333333332</ele><time>2026-04-24T16:04:54Z</time></trkpt><trkpt lat="44.29502739635681" lon="8.454979301444528"><ele>8.5</ele><time>2026-04-24T16:04:55Z</time></trkpt><trkpt lat="44.29497196877308" lon="8.454899573266456"><ele>8.666666666666666</ele><time>2026-04-24T16:04:56Z</time></trkpt><trkpt lat="44.29491612207423" lon="8.45481924235796"><ele>8.833333333333334</ele><time>2026-04-24T16:04:57Z</time></trkpt><trkpt lat="44.29486158109875" lon="8.4547407895382"><ele>9.0</ele><time>2026-04-24T16:04:58Z</time></trkpt><trkpt lat="44.294805597709626" lon="8.45466026200568"><ele>9.166666666666666</ele><time>2026-04-24T16:04:59Z</time></trkpt><trkpt lat="44.29475417989573" lon="8.454586301698738"><ele>9.333333333333334</ele><time>2026-04-24T16:05:00Z</time></trkpt><trkpt lat="44.294697700823924" lon="8.454513359167686"><ele>9.5</ele><time>2026-04-24T16:05:01Z</time></trkpt><trkpt lat="44.29464715289289" lon="8.454426002843363"><ele>9.666666666666668</ele><time>2026-04-24T16:05:02Z</time></trkpt><trkpt lat="44.29460051964972" lon="8.45434571671708"><ele>9.833333333333334</ele><time>2026-04-24T16:05:03Z</time></trkpt><trkpt lat="44.294552261251944" lon="8.454264905187527"><ele>10.0</ele><time>2026-04-24T16:05:04Z</time></trkpt><trkpt lat="44.294503426489314" lon="8.454179407256492"><ele>10.0</ele><time>2026-04-24T16:05:05Z</time></trkpt><trkpt lat="44.29445603347091" lon="8.45408574874073"><ele>10.0</ele><time>2026-04-24T16:05:06Z</time></trkpt><trkpt lat="44.29441186786771" lon="8.453987347549072"><ele>10.0</ele><time>2026-04-24T16:05:07Z</time></trkpt><trkpt lat="44.2943703408602" lon="8.453887978189929"><ele>10.0</ele><time>2026-04-24T16:05:08Z</time></trkpt><trkpt lat="44.294329518343964" lon="8.453790929736757"><ele>10.0</ele><time>2026-04-24T16:05:09Z</time></trkpt><trkpt lat="44.294280841815166" lon="8.453690559142343"><ele>10.0</ele><time>2026-04-24T16:05:10Z</time></trkpt><trkpt lat="44.29423193368367" lon="8.453582522089023"><ele>9.833333333333334</ele><time>2026-04-24T16:05:11Z</time></trkpt><trkpt lat="44.294186083831576" lon="8.453481874535493"><ele>9.666666666666668</ele><time>2026-04-24T16:05:12Z</time></trkpt><trkpt lat="44.294143068982024" lon="8.45338039906103"><ele>9.5</ele><time>2026-04-24T16:05:13Z</time></trkpt><trkpt lat="44.29410459588565" lon="8.453288321997828"><ele>9.333333333333334</ele><time>2026-04-24T16:05:14Z</time></trkpt><trkpt lat="44.294063250133185" lon="8.453196365754238"><ele>9.166666666666666</ele><time>2026-04-24T16:05:15Z</time></trkpt><trkpt lat="44.29401628164593" lon="8.453102276752832"><ele>9.0</ele><time>2026-04-24T16:05:16Z</time></trkpt><trkpt lat="44.293969286560625" lon="8.45301655170516"><ele>9.0</ele><time>2026-04-24T16:05:17Z</time></trkpt><trkpt lat="44.293923838207206" lon="8.452932344152806"><ele>9.0</ele><time>2026-04-24T16:05:18Z</time></trkpt><trkpt lat="44.29388383782161" lon="8.452854242015201"><ele>9.0</ele><time>2026-04-24T16:05:19Z</time></trkpt><trkpt lat="44.293810547699195" lon="8.4527263829242"><ele>9.0</ele><time>2026-04-24T16:05:21Z</time></trkpt><trkpt lat="44.29373539126679" lon="8.452622086178915"><ele>9.0</ele><time>2026-04-24T16:05:23Z</time></trkpt><trkpt lat="44.29369508324135" lon="8.452544250086328"><ele>9.0</ele><time>2026-04-24T16:05:25Z</time></trkpt><trkpt lat="44.2935882225276" lon="8.45256850517403"><ele>9.0</ele><time>2026-04-24T16:05:45Z</time></trkpt><trkpt lat="44.293690012948915" lon="8.452409956271046"><ele>9.0</ele><time>2026-04-24T16:05:46Z</time></trkpt><trkpt lat="44.293486768772894" lon="8.452588692426106"><ele>9.0</ele><time>2026-04-24T16:05:47Z</time></trkpt><trkpt lat="44.29341297197757" lon="8.452608850211503"><ele>9.0</ele><time>2026-04-24T16:05:48Z</time></trkpt><trkpt lat="44.293330042417075" lon="8.45262744586513"><ele>9.0</ele><time>2026-04-24T16:05:49Z</time></trkpt><trkpt lat="44.29323891685857" lon="8.452653376447659"><ele>9.0</ele><time>2026-04-24T16:05:50Z</time></trkpt><trkpt lat="44.293155685007534" lon="8.45267710432956"><ele>9.0</ele><time>2026-04-24T16:05:51Z</time></trkpt><trkpt lat="44.29309564593019" lon="8.452753513838621"><ele>9.0</ele><time>2026-04-24T16:05:52Z</time></trkpt><trkpt lat="44.2929957976964" lon="8.452735112727233"><ele>9.0</ele><time>2026-04-24T16:05:53Z</time></trkpt><trkpt lat="44.29291659920882" lon="8.452774769069867"><ele>9.0</ele><time>2026-04-24T16:05:54Z</time></trkpt><trkpt lat="44.29283818862256" lon="8.452815563038362"><ele>9.0</ele><time>2026-04-24T16:05:55Z</time></trkpt><trkpt lat="44.29275458907552" lon="8.452857274154066"><ele>9.0</ele><time>2026-04-24T16:05:56Z</time></trkpt><trkpt lat="44.29266909454984" lon="8.452912513442412"><ele>9.0</ele><time>2026-04-24T16:05:57Z</time></trkpt><trkpt lat="44.29257960796895" lon="8.452960713416099"><ele>9.0</ele><time>2026-04-24T16:05:58Z</time></trkpt><trkpt lat="44.29248842466105" lon="8.45300298040714"><ele>8.8</ele><time>2026-04-24T16:05:59.018Z</time></trkpt><trkpt lat="44.2924056390037" lon="8.4530382438347"><ele>8.600000000000001</ele><time>2026-04-24T16:06:00.02Z</time></trkpt><trkpt lat="44.292329213541606" lon="8.453070982820558"><ele>8.4</ele><time>2026-04-24T16:06:01.021Z</time></trkpt><trkpt lat="44.29226248699271" lon="8.453138681367896"><ele>8.200000000000001</ele><time>2026-04-24T16:06:02.022Z</time></trkpt><trkpt lat="44.2921493269784" lon="8.453309136656596"><ele>8.0</ele><time>2026-04-24T16:06:03Z</time></trkpt><trkpt lat="44.29206338453161" lon="8.453382574920473"><ele>7.6000000000000005</ele><time>2026-04-24T16:06:04Z</time></trkpt><trkpt lat="44.29198275753264" lon="8.453483374364327"><ele>7.200000000000001</ele><time>2026-04-24T16:06:06Z</time></trkpt><trkpt lat="44.29191807653778" lon="8.45354679078164"><ele>6.8</ele><time>2026-04-24T16:06:07Z</time></trkpt><trkpt lat="44.291882208207504" lon="8.453641834308248"><ele>6.4</ele><time>2026-04-24T16:06:08Z</time></trkpt><trkpt lat="44.291805898150336" lon="8.453789660596113"><ele>6.0</ele><time>2026-04-24T16:06:10Z</time></trkpt><trkpt lat="44.29173071245502" lon="8.453891124424441"><ele>5.833333333333333</ele><time>2026-04-24T16:06:12Z</time></trkpt><trkpt lat="44.291675872936416" lon="8.45395359656013"><ele>5.666666666666667</ele><time>2026-04-24T16:06:21Z</time></trkpt><trkpt lat="44.291589412626756" lon="8.453983228008518"><ele>5.5</ele><time>2026-04-24T16:06:23Z</time></trkpt><trkpt lat="44.29146726277472" lon="8.45395374056976"><ele>5.333333333333334</ele><time>2026-04-24T16:06:25Z</time></trkpt><trkpt lat="44.29140225156204" lon="8.453917026530904"><ele>5.166666666666667</ele><time>2026-04-24T16:06:26Z</time></trkpt><trkpt lat="44.29133408834437" lon="8.453863176151259"><ele>5.0</ele><time>2026-04-24T16:06:27Z</time></trkpt><trkpt lat="44.2912610344945" lon="8.453802213333061"><ele>5.166666666666667</ele><time>2026-04-24T16:06:28Z</time></trkpt><trkpt lat="44.29118624288165" lon="8.453732290340872"><ele>5.333333333333334</ele><time>2026-04-24T16:06:29Z</time></trkpt><trkpt lat="44.29111889368039" lon="8.453661894017108"><ele>5.5</ele><time>2026-04-24T16:06:30Z</time></trkpt><trkpt lat="44.29104842340415" lon="8.453583392817984"><ele>5.666666666666667</ele><time>2026-04-24T16:06:31Z</time></trkpt><trkpt lat="44.290982249967946" lon="8.453508581200477"><ele>5.833333333333333</ele><time>2026-04-24T16:06:32Z</time></trkpt><trkpt lat="44.290909974285974" lon="8.453422802085829"><ele>6.0</ele><time>2026-04-24T16:06:33Z</time></trkpt><trkpt lat="44.29083515819028" lon="8.45332805847839"><ele>6.0</ele><time>2026-04-24T16:06:34Z</time></trkpt><trkpt lat="44.290756254758236" lon="8.45322860625769"><ele>6.0</ele><time>2026-04-24T16:06:35Z</time></trkpt><trkpt lat="44.29067690968785" lon="8.453125079428089"><ele>6.0</ele><time>2026-04-24T16:06:36Z</time></trkpt><trkpt lat="44.29059368783598" lon="8.453017217112738"><ele>6.0</ele><time>2026-04-24T16:06:37Z</time></trkpt><trkpt lat="44.29051254821249" lon="8.452917488225596"><ele>6.0</ele><time>2026-04-24T16:06:38Z</time></trkpt><trkpt lat="44.29042702852307" lon="8.452820884169387"><ele>6.0</ele><time>2026-04-24T16:06:39Z</time></trkpt><trkpt lat="44.29034663088898" lon="8.452734356076657"><ele>6.0</ele><time>2026-04-24T16:06:40Z</time></trkpt><trkpt lat="44.290265627855824" lon="8.45263809355202"><ele>6.0</ele><time>2026-04-24T16:06:41Z</time></trkpt><trkpt lat="44.290180991080746" lon="8.45254064613374"><ele>6.0</ele><time>2026-04-24T16:06:42Z</time></trkpt><trkpt lat="44.290097717039366" lon="8.452442182523749"><ele>6.0</ele><time>2026-04-24T16:06:43Z</time></trkpt><trkpt lat="44.290018398160825" lon="8.452354100942747"><ele>6.0</ele><time>2026-04-24T16:06:44Z</time></trkpt><trkpt lat="44.289940411926594" lon="8.452264425459774"><ele>6.0</ele><time>2026-04-24T16:06:45Z</time></trkpt><trkpt lat="44.28985808378911" lon="8.452170724227656"><ele>6.0</ele><time>2026-04-24T16:06:46Z</time></trkpt><trkpt lat="44.28977321252912" lon="8.452076947409022"><ele>6.0</ele><time>2026-04-24T16:06:47Z</time></trkpt><trkpt lat="44.289687438775026" lon="8.451979926368828"><ele>6.0</ele><time>2026-04-24T16:06:48Z</time></trkpt><trkpt lat="44.289604343865065" lon="8.451883756925879"><ele>5.3999999999999995</ele><time>2026-04-24T16:06:49Z</time></trkpt><trkpt lat="44.28952205068232" lon="8.451789448513868"><ele>4.8</ele><time>2026-04-24T16:06:50Z</time></trkpt><trkpt lat="44.289435757076085" lon="8.45169314284276"><ele>4.199999999999999</ele><time>2026-04-24T16:06:51Z</time></trkpt><trkpt lat="44.28934869611628" lon="8.451590786348195"><ele>3.5999999999999996</ele><time>2026-04-24T16:06:52Z</time></trkpt><trkpt lat="44.28926073098822" lon="8.451489810284661"><ele>3.0</ele><time>2026-04-24T16:06:53Z</time></trkpt><trkpt lat="44.28917535451754" lon="8.451392472913998"><ele>3.0</ele><time>2026-04-24T16:06:54Z</time></trkpt><trkpt lat="44.28908882222959" lon="8.451293349773959"><ele>3.0</ele><time>2026-04-24T16:06:55Z</time></trkpt><trkpt lat="44.289007160379484" lon="8.451196699489628"><ele>3.0</ele><time>2026-04-24T16:06:56Z</time></trkpt><trkpt lat="44.28892530712853" lon="8.451095334821748"><ele>3.0</ele><time>2026-04-24T16:06:57Z</time></trkpt><trkpt lat="44.288844524146356" lon="8.450987996201617"><ele>3.0</ele><time>2026-04-24T16:06:58Z</time></trkpt><trkpt lat="44.28876269488286" lon="8.45088266790185"><ele>3.1666666666666665</ele><time>2026-04-24T16:06:59Z</time></trkpt><trkpt lat="44.28869375601491" lon="8.450793617428827"><ele>3.333333333333333</ele><time>2026-04-24T16:07:00Z</time></trkpt><trkpt lat="44.2886288685748" lon="8.450710461379654"><ele>3.5</ele><time>2026-04-24T16:07:01Z</time></trkpt><trkpt lat="44.288568365462865" lon="8.450635252671772"><ele>3.6666666666666665</ele><time>2026-04-24T16:07:02Z</time></trkpt><trkpt lat="44.28851859546179" lon="8.45057503869497"><ele>3.833333333333333</ele><time>2026-04-24T16:07:03Z</time></trkpt><trkpt lat="44.288468757816126" lon="8.45051612329637"><ele>4.0</ele><time>2026-04-24T16:07:04Z</time></trkpt><trkpt lat="44.288386468636986" lon="8.450425413757186"><ele>4.0</ele><time>2026-04-24T16:07:06Z</time></trkpt><trkpt lat="44.28832281999052" lon="8.450349308481679"><ele>4.0</ele><time>2026-04-24T16:07:08Z</time></trkpt><trkpt lat="44.28822728718134" lon="8.450248192846272"><ele>4.0</ele><time>2026-04-24T16:07:10Z</time></trkpt><trkpt lat="44.2881687637702" lon="8.450185089411933"><ele>4.0</ele><time>2026-04-24T16:07:11Z</time></trkpt><trkpt lat="44.28809868930035" lon="8.450109818151976"><ele>4.0</ele><time>2026-04-24T16:07:12Z</time></trkpt><trkpt lat="44.28802971644269" lon="8.450031688080031"><ele>4.0</ele><time>2026-04-24T16:07:13Z</time></trkpt><trkpt lat="44.287966002679944" lon="8.449959671074803"><ele>4.0</ele><time>2026-04-24T16:07:14Z</time></trkpt><trkpt lat="44.287898605495236" lon="8.449880836644452"><ele>4.0</ele><time>2026-04-24T16:07:15Z</time></trkpt><trkpt lat="44.287827464678195" lon="8.449804554826551"><ele>4.0</ele><time>2026-04-24T16:07:16Z</time></trkpt><trkpt lat="44.28775015820295" lon="8.449727853064497"><ele>4.0</ele><time>2026-04-24T16:07:17Z</time></trkpt><trkpt lat="44.287666200408836" lon="8.449637941007015"><ele>4.5</ele><time>2026-04-24T16:07:18Z</time></trkpt><trkpt lat="44.28757704537862" lon="8.449540398104052"><ele>5.0</ele><time>2026-04-24T16:07:19Z</time></trkpt><trkpt lat="44.28748516093726" lon="8.449438966558517"><ele>5.5</ele><time>2026-04-24T16:07:20Z</time></trkpt><trkpt lat="44.28740031145551" lon="8.44933865950704"><ele>6.0</ele><time>2026-04-24T16:07:21Z</time></trkpt><trkpt lat="44.287314246838996" lon="8.449236938535856"><ele>6.0</ele><time>2026-04-24T16:07:22Z</time></trkpt><trkpt lat="44.28723255252591" lon="8.449141227801233"><ele>6.0</ele><time>2026-04-24T16:07:23Z</time></trkpt><trkpt lat="44.28714403102207" lon="8.449040046203898"><ele>6.0</ele><time>2026-04-24T16:07:24Z</time></trkpt><trkpt lat="44.28705735445947" lon="8.448940476594299"><ele>6.0</ele><time>2026-04-24T16:07:25Z</time></trkpt><trkpt lat="44.286975272771" lon="8.448845793925022"><ele>6.0</ele><time>2026-04-24T16:07:26Z</time></trkpt><trkpt lat="44.28688739044078" lon="8.448748513172573"><ele>6.0</ele><time>2026-04-24T16:07:27Z</time></trkpt><trkpt lat="44.286794946361276" lon="8.448643177130434"><ele>6.0</ele><time>2026-04-24T16:07:28Z</time></trkpt><trkpt lat="44.286705244060386" lon="8.448541482612093"><ele>6.0</ele><time>2026-04-24T16:07:29Z</time></trkpt><trkpt lat="44.28661523032742" lon="8.44843764499855"><ele>6.0</ele><time>2026-04-24T16:07:30Z</time></trkpt><trkpt lat="44.28653220731334" lon="8.448339574913115"><ele>6.0</ele><time>2026-04-24T16:07:31Z</time></trkpt><trkpt lat="44.28645483770163" lon="8.448242386080924"><ele>6.0</ele><time>2026-04-24T16:07:32Z</time></trkpt><trkpt lat="44.286375309899654" lon="8.448139630005487"><ele>6.0</ele><time>2026-04-24T16:07:33Z</time></trkpt><trkpt lat="44.28629687564173" lon="8.448042298599292"><ele>6.0</ele><time>2026-04-24T16:07:34Z</time></trkpt><trkpt lat="44.28621645839997" lon="8.44794524498469"><ele>6.0</ele><time>2026-04-24T16:07:35Z</time></trkpt><trkpt lat="44.286132399137024" lon="8.44784764378686"><ele>5.8</ele><time>2026-04-24T16:07:36Z</time></trkpt><trkpt lat="44.28605397693604" lon="8.447757343853914"><ele>5.6</ele><time>2026-04-24T16:07:37Z</time></trkpt><trkpt lat="44.2859770756713" lon="8.447670771568438"><ele>5.4</ele><time>2026-04-24T16:07:38Z</time></trkpt><trkpt lat="44.28589895074093" lon="8.447583166014084"><ele>5.2</ele><time>2026-04-24T16:07:39Z</time></trkpt><trkpt lat="44.28582733866642" lon="8.447502371968387"><ele>5.0</ele><time>2026-04-24T16:07:40Z</time></trkpt><trkpt lat="44.285752233685464" lon="8.447417570474679"><ele>5.0</ele><time>2026-04-24T16:07:41Z</time></trkpt><trkpt lat="44.28568286891602" lon="8.44733972246972"><ele>5.0</ele><time>2026-04-24T16:07:42Z</time></trkpt><trkpt lat="44.2856164475699" lon="8.447268466846639"><ele>5.0</ele><time>2026-04-24T16:07:43Z</time></trkpt><trkpt lat="44.285554864405086" lon="8.447199940468954"><ele>5.0</ele><time>2026-04-24T16:07:44Z</time></trkpt><trkpt lat="44.285494939485986" lon="8.447132226546655"><ele>5.0</ele><time>2026-04-24T16:07:45Z</time></trkpt><trkpt lat="44.285431212781" lon="8.447056841474417"><ele>5.0</ele><time>2026-04-24T16:07:46Z</time></trkpt><trkpt lat="44.28536634522785" lon="8.446991635293946"><ele>5.333333333333334</ele><time>2026-04-24T16:07:47Z</time></trkpt><trkpt lat="44.2853016839571" lon="8.446924483027933"><ele>5.666666666666667</ele><time>2026-04-24T16:07:48Z</time></trkpt><trkpt lat="44.285235492517835" lon="8.44685015148378"><ele>6.0</ele><time>2026-04-24T16:07:49Z</time></trkpt><trkpt lat="44.28516956917262" lon="8.446772965972492"><ele>6.333333333333334</ele><time>2026-04-24T16:07:50Z</time></trkpt><trkpt lat="44.285105926918796" lon="8.446689859351693"><ele>6.666666666666667</ele><time>2026-04-24T16:07:51Z</time></trkpt><trkpt lat="44.28504391997629" lon="8.446603914431075"><ele>7.0</ele><time>2026-04-24T16:07:52Z</time></trkpt><trkpt lat="44.2849819583268" lon="8.446519887720054"><ele>7.000000000000001</ele><time>2026-04-24T16:07:53Z</time></trkpt><trkpt lat="44.2849202656898" lon="8.44643946066043"><ele>7.0</ele><time>2026-04-24T16:07:54Z</time></trkpt><trkpt lat="44.28485430148937" lon="8.446361322146055"><ele>7.0</ele><time>2026-04-24T16:07:55Z</time></trkpt><trkpt lat="44.28478567020072" lon="8.446281318815714"><ele>7.0</ele><time>2026-04-24T16:07:56Z</time></trkpt><trkpt lat="44.2847110829561" lon="8.44619892137168"><ele>7.000000000000001</ele><time>2026-04-24T16:07:57Z</time></trkpt><trkpt lat="44.28464163744089" lon="8.446119002160836"><ele>7.0</ele><time>2026-04-24T16:07:58Z</time></trkpt><trkpt lat="44.284571745869755" lon="8.446042380989118"><ele>7.0</ele><time>2026-04-24T16:07:59Z</time></trkpt><trkpt lat="44.28449971722482" lon="8.445966774357391"><ele>6.999999999999999</ele><time>2026-04-24T16:08:00Z</time></trkpt><trkpt lat="44.28441911839212" lon="8.445887615963446"><ele>6.999999999999999</ele><time>2026-04-24T16:08:01Z</time></trkpt><trkpt lat="44.284343000257124" lon="8.445803005383052"><ele>7.0</ele><time>2026-04-24T16:08:02Z</time></trkpt><trkpt lat="44.28427201281581" lon="8.445731636752758"><ele>7.0</ele><time>2026-04-24T16:08:03Z</time></trkpt><trkpt lat="44.28419415079989" lon="8.445650019114355"><ele>7.000000000000001</ele><time>2026-04-24T16:08:04Z</time></trkpt><trkpt lat="44.28412324957257" lon="8.445575688561076"><ele>7.0</ele><time>2026-04-24T16:08:05Z</time></trkpt><trkpt lat="44.284057948795066" lon="8.445509705630005"><ele>7.0</ele><time>2026-04-24T16:08:06Z</time></trkpt><trkpt lat="44.28399588513627" lon="8.445438755293507"><ele>7.0</ele><time>2026-04-24T16:08:07Z</time></trkpt><trkpt lat="44.28393332058339" lon="8.445385971044338"><ele>7.000000000000001</ele><time>2026-04-24T16:08:08Z</time></trkpt><trkpt lat="44.28387276880825" lon="8.445326891062182"><ele>7.0</ele><time>2026-04-24T16:08:09Z</time></trkpt><trkpt lat="44.28382710657201" lon="8.445258181644585"><ele>7.166666666666667</ele><time>2026-04-24T16:08:10Z</time></trkpt><trkpt lat="44.28375165224519" lon="8.445178242803125"><ele>7.333333333333334</ele><time>2026-04-24T16:08:12Z</time></trkpt><trkpt lat="44.28368818539893" lon="8.445110632071083"><ele>7.5</ele><time>2026-04-24T16:08:14Z</time></trkpt><trkpt lat="44.28363112221707" lon="8.445050543796812"><ele>7.666666666666666</ele><time>2026-04-24T16:08:16Z</time></trkpt><trkpt lat="44.28356461843352" lon="8.44498720488129"><ele>7.833333333333333</ele><time>2026-04-24T16:08:18Z</time></trkpt><trkpt lat="44.28349303453728" lon="8.444920590278517"><ele>8.0</ele><time>2026-04-24T16:08:20Z</time></trkpt><trkpt lat="44.283418493900136" lon="8.44487147226456"><ele>7.999999999999999</ele><time>2026-04-24T16:08:22Z</time></trkpt><trkpt lat="44.28335442332617" lon="8.444805534792307"><ele>8.0</ele><time>2026-04-24T16:08:24Z</time></trkpt><trkpt lat="44.28329475472342" lon="8.44473624318084"><ele>8.0</ele><time>2026-04-24T16:08:26Z</time></trkpt><trkpt lat="44.283232062898946" lon="8.444689526196893"><ele>8.0</ele><time>2026-04-24T16:08:28Z</time></trkpt><trkpt lat="44.28315829776175" lon="8.444674937600096"><ele>7.999999999999999</ele><time>2026-04-24T16:08:30Z</time></trkpt><trkpt lat="44.28308340899544" lon="8.444672335957476"><ele>8.0</ele><time>2026-04-24T16:08:32Z</time></trkpt><trkpt lat="44.28300529339537" lon="8.444623747525347"><ele>7.800000000000001</ele><time>2026-04-24T16:08:57Z</time></trkpt><trkpt lat="44.28293083487563" lon="8.44458602883941"><ele>7.6000000000000005</ele><time>2026-04-24T16:08:59Z</time></trkpt><trkpt lat="44.28281923421078" lon="8.44452289104938"><ele>7.3999999999999995</ele><time>2026-04-24T16:09:01Z</time></trkpt><trkpt lat="44.28271513041336" lon="8.44445852128349"><ele>7.199999999999999</ele><time>2026-04-24T16:09:03Z</time></trkpt><trkpt lat="44.2825943579394" lon="8.444386243341585"><ele>7.0</ele><time>2026-04-24T16:09:05Z</time></trkpt><trkpt lat="44.28252078078952" lon="8.444344040435539"><ele>7.0</ele><time>2026-04-24T16:09:06Z</time></trkpt><trkpt lat="44.2824351426904" lon="8.444293819232788"><ele>6.999999999999999</ele><time>2026-04-24T16:09:07Z</time></trkpt><trkpt lat="44.28234751367223" lon="8.44424644860722"><ele>6.999999999999999</ele><time>2026-04-24T16:09:08Z</time></trkpt><trkpt lat="44.282255354882224" lon="8.444188046654448"><ele>7.0</ele><time>2026-04-24T16:09:09Z</time></trkpt><trkpt lat="44.28216204204306" lon="8.44413662650526"><ele>7.0</ele><time>2026-04-24T16:09:10Z</time></trkpt><trkpt lat="44.28206890560257" lon="8.444078848703063"><ele>6.6</ele><time>2026-04-24T16:09:11Z</time></trkpt><trkpt lat="44.28196561707975" lon="8.44402128664418"><ele>6.199999999999999</ele><time>2026-04-24T16:09:12Z</time></trkpt><trkpt lat="44.281871035493985" lon="8.443964145649781"><ele>5.8</ele><time>2026-04-24T16:09:13Z</time></trkpt><trkpt lat="44.28177949963568" lon="8.443904768462707"><ele>5.4</ele><time>2026-04-24T16:09:14Z</time></trkpt><trkpt lat="44.28168700705421" lon="8.443853285056443"><ele>5.0</ele><time>2026-04-24T16:09:15Z</time></trkpt><trkpt lat="44.28159468279571" lon="8.443798506408802"><ele>5.0</ele><time>2026-04-24T16:09:16Z</time></trkpt><trkpt lat="44.28150139957637" lon="8.443749458636066"><ele>5.0</ele><time>2026-04-24T16:09:17Z</time></trkpt><trkpt lat="44.2814092560067" lon="8.443697653743193"><ele>5.0</ele><time>2026-04-24T16:09:18Z</time></trkpt><trkpt lat="44.28132217118065" lon="8.443650849600418"><ele>5.0</ele><time>2026-04-24T16:09:19Z</time></trkpt><trkpt lat="44.28123611440991" lon="8.443604040907585"><ele>5.0</ele><time>2026-04-24T16:09:20Z</time></trkpt><trkpt lat="44.28115454172298" lon="8.4435583610115"><ele>5.0</ele><time>2026-04-24T16:09:21Z</time></trkpt><trkpt lat="44.28107223191827" lon="8.44351452243681"><ele>5.0</ele><time>2026-04-24T16:09:22Z</time></trkpt><trkpt lat="44.28099258178676" lon="8.443465533104764"><ele>5.0</ele><time>2026-04-24T16:09:23Z</time></trkpt><trkpt lat="44.28091007611519" lon="8.44341696135549"><ele>5.0</ele><time>2026-04-24T16:09:24Z</time></trkpt><trkpt lat="44.28082785531176" lon="8.44337212891323"><ele>5.0</ele><time>2026-04-24T16:09:25Z</time></trkpt><trkpt lat="44.280743898111005" lon="8.443320145450548"><ele>5.0</ele><time>2026-04-24T16:09:26Z</time></trkpt><trkpt lat="44.28066208510843" lon="8.443270732017861"><ele>5.0</ele><time>2026-04-24T16:09:27Z</time></trkpt><trkpt lat="44.2805743622703" lon="8.4432221160869"><ele>5.0</ele><time>2026-04-24T16:09:28Z</time></trkpt><trkpt lat="44.28048243469264" lon="8.443171763414938"><ele>5.0</ele><time>2026-04-24T16:09:29Z</time></trkpt><trkpt lat="44.28038482709847" lon="8.443113773823159"><ele>5.0</ele><time>2026-04-24T16:09:30Z</time></trkpt><trkpt lat="44.28028324244812" lon="8.443052572865787"><ele>5.0</ele><time>2026-04-24T16:09:31Z</time></trkpt><trkpt lat="44.28017384458912" lon="8.442987424169836"><ele>5.25</ele><time>2026-04-24T16:09:32Z</time></trkpt><trkpt lat="44.28006265426105" lon="8.442923106927292"><ele>5.5</ele><time>2026-04-24T16:09:33Z</time></trkpt><trkpt lat="44.27996301262689" lon="8.442866032783291"><ele>5.75</ele><time>2026-04-24T16:09:34Z</time></trkpt><trkpt lat="44.27985504095995" lon="8.442799921315919"><ele>6.0</ele><time>2026-04-24T16:09:35Z</time></trkpt><trkpt lat="44.27975028375749" lon="8.442739139826328"><ele>5.5</ele><time>2026-04-24T16:09:36Z</time></trkpt><trkpt lat="44.27964600075297" lon="8.442679751624345"><ele>5.0</ele><time>2026-04-24T16:09:37Z</time></trkpt><trkpt lat="44.27953709527838" lon="8.442618291247944"><ele>4.5</ele><time>2026-04-24T16:09:38Z</time></trkpt><trkpt lat="44.27942356111612" lon="8.44254905584342"><ele>4.0</ele><time>2026-04-24T16:09:39Z</time></trkpt><trkpt lat="44.2793048586895" lon="8.442481131982948"><ele>4.0</ele><time>2026-04-24T16:09:40Z</time></trkpt><trkpt lat="44.27918804027789" lon="8.442411911673231"><ele>4.0</ele><time>2026-04-24T16:09:41Z</time></trkpt><trkpt lat="44.27907337847684" lon="8.442340153829335"><ele>4.0</ele><time>2026-04-24T16:09:42Z</time></trkpt><trkpt lat="44.278956282797886" lon="8.442267008665935"><ele>4.0</ele><time>2026-04-24T16:09:43Z</time></trkpt><trkpt lat="44.278846830620594" lon="8.442198614863827"><ele>3.75</ele><time>2026-04-24T16:09:44Z</time></trkpt><trkpt lat="44.27874186489571" lon="8.442136197118685"><ele>3.5</ele><time>2026-04-24T16:09:45Z</time></trkpt><trkpt lat="44.27863335957332" lon="8.442074454506514"><ele>3.25</ele><time>2026-04-24T16:09:46Z</time></trkpt><trkpt lat="44.27852089462656" lon="8.44201118804514"><ele>3.0</ele><time>2026-04-24T16:09:47Z</time></trkpt><trkpt lat="44.27841580500083" lon="8.441949094925674"><ele>3.0</ele><time>2026-04-24T16:09:48Z</time></trkpt><trkpt lat="44.27830891073303" lon="8.44188611291126"><ele>3.0</ele><time>2026-04-24T16:09:49Z</time></trkpt><trkpt lat="44.27821282517706" lon="8.441829127682213"><ele>3.0</ele><time>2026-04-24T16:09:50Z</time></trkpt><trkpt lat="44.27811709907232" lon="8.44177484823884"><ele>3.0</ele><time>2026-04-24T16:09:51Z</time></trkpt><trkpt lat="44.27803038878597" lon="8.441721476703927"><ele>3.0</ele><time>2026-04-24T16:09:52Z</time></trkpt><trkpt lat="44.2779496774007" lon="8.441672341448754"><ele>3.1666666666666665</ele><time>2026-04-24T16:09:53Z</time></trkpt><trkpt lat="44.27787205437206" lon="8.441628969022343"><ele>3.333333333333333</ele><time>2026-04-24T16:09:54Z</time></trkpt><trkpt lat="44.27779996109209" lon="8.441582888791412"><ele>3.5</ele><time>2026-04-24T16:09:55Z</time></trkpt><trkpt lat="44.277721273820866" lon="8.441534481916744"><ele>3.6666666666666665</ele><time>2026-04-24T16:09:56Z</time></trkpt><trkpt lat="44.27763964897941" lon="8.441482352409695"><ele>3.833333333333333</ele><time>2026-04-24T16:09:57Z</time></trkpt><trkpt lat="44.27755802987983" lon="8.441434653394374"><ele>4.0</ele><time>2026-04-24T16:09:58Z</time></trkpt><trkpt lat="44.277475271826596" lon="8.44138185665142"><ele>4.0</ele><time>2026-04-24T16:09:59Z</time></trkpt><trkpt lat="44.27739206297883" lon="8.441331046308898"><ele>4.0</ele><time>2026-04-24T16:10:00Z</time></trkpt><trkpt lat="44.277310854348514" lon="8.441286732049983"><ele>4.0</ele><time>2026-04-24T16:10:01Z</time></trkpt><trkpt lat="44.277224445755714" lon="8.441236465540225"><ele>4.0</ele><time>2026-04-24T16:10:02Z</time></trkpt><trkpt lat="44.2771334421522" lon="8.441186904700112"><ele>4.0</ele><time>2026-04-24T16:10:03Z</time></trkpt><trkpt lat="44.2770458183851" lon="8.441138676277859"><ele>4.0</ele><time>2026-04-24T16:10:04Z</time></trkpt><trkpt lat="44.27695692240341" lon="8.44108293279508"><ele>4.0</ele><time>2026-04-24T16:10:05Z</time></trkpt><trkpt lat="44.276864261581274" lon="8.441031104074062"><ele>4.0</ele><time>2026-04-24T16:10:06Z</time></trkpt><trkpt lat="44.276773184889585" lon="8.440976308063156"><ele>4.0</ele><time>2026-04-24T16:10:07Z</time></trkpt><trkpt lat="44.27667760038995" lon="8.440915505757225"><ele>4.0</ele><time>2026-04-24T16:10:08Z</time></trkpt><trkpt lat="44.27658002844445" lon="8.440858049622285"><ele>3.9999999999999996</ele><time>2026-04-24T16:10:09Z</time></trkpt><trkpt lat="44.276493659452235" lon="8.440805806712957"><ele>4.0</ele><time>2026-04-24T16:10:10Z</time></trkpt><trkpt lat="44.27641319094718" lon="8.440758761152923"><ele>4.0</ele><time>2026-04-24T16:10:11Z</time></trkpt><trkpt lat="44.27633737228817" lon="8.440712572935107"><ele>4.0</ele><time>2026-04-24T16:10:12Z</time></trkpt><trkpt lat="44.276259292265074" lon="8.440665327168508"><ele>3.9999999999999996</ele><time>2026-04-24T16:10:13Z</time></trkpt><trkpt lat="44.27617745805226" lon="8.440618251044365"><ele>4.0</ele><time>2026-04-24T16:10:14Z</time></trkpt><trkpt lat="44.27609058373769" lon="8.440566142374456"><ele>4.0</ele><time>2026-04-24T16:10:15Z</time></trkpt><trkpt lat="44.27599847656305" lon="8.44051215982089"><ele>4.0</ele><time>2026-04-24T16:10:16Z</time></trkpt><trkpt lat="44.27591134416831" lon="8.440456612980599"><ele>4.0</ele><time>2026-04-24T16:10:17Z</time></trkpt><trkpt lat="44.27582316773709" lon="8.440404427281837"><ele>4.0</ele><time>2026-04-24T16:10:18Z</time></trkpt><trkpt lat="44.27572714850415" lon="8.440349695269674"><ele>4.0</ele><time>2026-04-24T16:10:19Z</time></trkpt><trkpt lat="44.27563461993766" lon="8.440288447835554"><ele>4.800000000000001</ele><time>2026-04-24T16:10:20Z</time></trkpt><trkpt lat="44.27553416581298" lon="8.440228764661553"><ele>5.6000000000000005</ele><time>2026-04-24T16:10:21Z</time></trkpt><trkpt lat="44.27544086718486" lon="8.440171025669196"><ele>6.4</ele><time>2026-04-24T16:10:22Z</time></trkpt><trkpt lat="44.27534370538533" lon="8.440111935981815"><ele>7.2</ele><time>2026-04-24T16:10:23Z</time></trkpt><trkpt lat="44.275252742583945" lon="8.440057030439105"><ele>8.0</ele><time>2026-04-24T16:10:24Z</time></trkpt><trkpt lat="44.2751594459091" lon="8.440000512918443"><ele>8.0</ele><time>2026-04-24T16:10:25Z</time></trkpt><trkpt lat="44.275059522866464" lon="8.439939479520186"><ele>8.0</ele><time>2026-04-24T16:10:26Z</time></trkpt><trkpt lat="44.27496240191668" lon="8.4398809204882"><ele>8.0</ele><time>2026-04-24T16:10:27Z</time></trkpt><trkpt lat="44.27486674289548" lon="8.439821722362483"><ele>8.0</ele><time>2026-04-24T16:10:28Z</time></trkpt><trkpt lat="44.2747705816112" lon="8.439763376509402"><ele>8.0</ele><time>2026-04-24T16:10:29Z</time></trkpt><trkpt lat="44.27467896426456" lon="8.439709684032174"><ele>8.200000000000001</ele><time>2026-04-24T16:10:30Z</time></trkpt><trkpt lat="44.2745855058337" lon="8.439655442019955"><ele>8.4</ele><time>2026-04-24T16:10:31Z</time></trkpt><trkpt lat="44.27449593673233" lon="8.439605012154077"><ele>8.600000000000001</ele><time>2026-04-24T16:10:32Z</time></trkpt><trkpt lat="44.27441560149375" lon="8.439562875385322"><ele>8.8</ele><time>2026-04-24T16:10:33Z</time></trkpt><trkpt lat="44.274331768768" lon="8.43952180150406"><ele>9.0</ele><time>2026-04-24T16:10:34Z</time></trkpt><trkpt lat="44.27424921015219" lon="8.439487066254154"><ele>9.0</ele><time>2026-04-24T16:10:35Z</time></trkpt><trkpt lat="44.27415863199917" lon="8.439450500646988"><ele>9.0</ele><time>2026-04-24T16:10:36Z</time></trkpt><trkpt lat="44.274063408788535" lon="8.439415896669294"><ele>9.0</ele><time>2026-04-24T16:10:37Z</time></trkpt><trkpt lat="44.27397001136641" lon="8.439384110406502"><ele>9.0</ele><time>2026-04-24T16:10:38Z</time></trkpt><trkpt lat="44.27387810830427" lon="8.439349181320132"><ele>9.0</ele><time>2026-04-24T16:10:39Z</time></trkpt><trkpt lat="44.27378967072985" lon="8.439315123535875"><ele>10.166666666666666</ele><time>2026-04-24T16:10:40Z</time></trkpt><trkpt lat="44.27370940288563" lon="8.439286695526116"><ele>11.333333333333332</ele><time>2026-04-24T16:10:41Z</time></trkpt><trkpt lat="44.273631362645695" lon="8.439255919998926"><ele>12.5</ele><time>2026-04-24T16:10:42Z</time></trkpt><trkpt lat="44.27356432821894" lon="8.439232437625249"><ele>13.666666666666666</ele><time>2026-04-24T16:10:43Z</time></trkpt><trkpt lat="44.27345287551639" lon="8.439193743005152"><ele>14.833333333333332</ele><time>2026-04-24T16:10:45Z</time></trkpt><trkpt lat="44.27337591111515" lon="8.43915297157432"><ele>16.0</ele><time>2026-04-24T16:10:47Z</time></trkpt><trkpt lat="44.27330775251363" lon="8.439129440894957"><ele>16.0</ele><time>2026-04-24T16:10:50Z</time></trkpt><trkpt lat="44.273240545271314" lon="8.43910570842934"><ele>16.0</ele><time>2026-04-24T16:10:58Z</time></trkpt><trkpt lat="44.27314840205445" lon="8.439076405163567"><ele>16.0</ele><time>2026-04-24T16:11:00Z</time></trkpt><trkpt lat="44.273047506290304" lon="8.439038342093376"><ele>16.0</ele><time>2026-04-24T16:11:02Z</time></trkpt><trkpt lat="44.27293754399632" lon="8.43899158119928"><ele>16.0</ele><time>2026-04-24T16:11:04Z</time></trkpt><trkpt lat="44.27282775744866" lon="8.438950243843905"><ele>15.166666666666666</ele><time>2026-04-24T16:11:06Z</time></trkpt><trkpt lat="44.272765708161444" lon="8.438920331202922"><ele>14.333333333333332</ele><time>2026-04-24T16:11:07Z</time></trkpt><trkpt lat="44.27266208284795" lon="8.438869333511244"><ele>13.5</ele><time>2026-04-24T16:11:09Z</time></trkpt><trkpt lat="44.27257947308987" lon="8.438832409837783"><ele>12.666666666666666</ele><time>2026-04-24T16:11:11Z</time></trkpt><trkpt lat="44.272509437903516" lon="8.438805056597776"><ele>11.833333333333332</ele><time>2026-04-24T16:11:13Z</time></trkpt><trkpt lat="44.27243087444445" lon="8.438775816859044"><ele>11.0</ele><time>2026-04-24T16:11:15Z</time></trkpt><trkpt lat="44.2723556488639" lon="8.43875455190778"><ele>11.0</ele><time>2026-04-24T16:11:17Z</time></trkpt><trkpt lat="44.27227888152022" lon="8.438726663444848"><ele>11.0</ele><time>2026-04-24T16:11:19Z</time></trkpt><trkpt lat="44.272204300952254" lon="8.43870924673416"><ele>11.0</ele><time>2026-04-24T16:11:21Z</time></trkpt><trkpt lat="44.27213295804911" lon="8.438697682474093"><ele>11.0</ele><time>2026-04-24T16:11:23Z</time></trkpt><trkpt lat="44.27204576864921" lon="8.438684390698187"><ele>11.0</ele><time>2026-04-24T16:11:25Z</time></trkpt><trkpt lat="44.271955469939236" lon="8.438666684068295"><ele>11.0</ele><time>2026-04-24T16:11:27Z</time></trkpt><trkpt lat="44.27188297362499" lon="8.438660793983601"><ele>10.833333333333332</ele><time>2026-04-24T16:11:29Z</time></trkpt><trkpt lat="44.271813203577175" lon="8.43866529616117"><ele>10.666666666666666</ele><time>2026-04-24T16:11:50Z</time></trkpt><trkpt lat="44.27173833663978" lon="8.438650784869832"><ele>10.5</ele><time>2026-04-24T16:11:53Z</time></trkpt><trkpt lat="44.2716586554497" lon="8.43864882639348"><ele>10.333333333333334</ele><time>2026-04-24T16:11:56Z</time></trkpt><trkpt lat="44.271574180462174" lon="8.438657694904764"><ele>10.166666666666668</ele><time>2026-04-24T16:11:59Z</time></trkpt><trkpt lat="44.27150733184429" lon="8.438677317582483"><ele>10.0</ele><time>2026-04-24T16:12:02Z</time></trkpt><trkpt lat="44.27143091767676" lon="8.438709870214083"><ele>10.666666666666668</ele><time>2026-04-24T16:12:06Z</time></trkpt><trkpt lat="44.27133727819528" lon="8.438723228440171"><ele>11.333333333333334</ele><time>2026-04-24T16:12:08Z</time></trkpt><trkpt lat="44.271270614793316" lon="8.438732297728858"><ele>12.0</ele><time>2026-04-24T16:12:09Z</time></trkpt><trkpt lat="44.271200146882784" lon="8.438747598614631"><ele>12.666666666666668</ele><time>2026-04-24T16:12:10Z</time></trkpt><trkpt lat="44.271114919573556" lon="8.43876251597575"><ele>13.333333333333334</ele><time>2026-04-24T16:12:11Z</time></trkpt><trkpt lat="44.2710324993541" lon="8.43878138954329"><ele>14.0</ele><time>2026-04-24T16:12:12Z</time></trkpt><trkpt lat="44.27093440601079" lon="8.43878673432493"><ele>13.0</ele><time>2026-04-24T16:12:13Z</time></trkpt><trkpt lat="44.27084006376308" lon="8.438821739589837"><ele>11.999999999999998</ele><time>2026-04-24T16:12:14Z</time></trkpt><trkpt lat="44.27074259065608" lon="8.438863359481894"><ele>11.0</ele><time>2026-04-24T16:12:15Z</time></trkpt><trkpt lat="44.27063384767678" lon="8.438915559530864"><ele>10.0</ele><time>2026-04-24T16:12:16Z</time></trkpt><trkpt lat="44.2705270719735" lon="8.438969422121794"><ele>9.0</ele><time>2026-04-24T16:12:17Z</time></trkpt><trkpt lat="44.270428786940116" lon="8.439018790575043"><ele>8.8</ele><time>2026-04-24T16:12:18Z</time></trkpt><trkpt lat="44.27033882360085" lon="8.439088828641843"><ele>8.600000000000001</ele><time>2026-04-24T16:12:19Z</time></trkpt><trkpt lat="44.27024505067933" lon="8.439134302732812"><ele>8.4</ele><time>2026-04-24T16:12:20Z</time></trkpt><trkpt lat="44.27015634277918" lon="8.439172988389066"><ele>8.200000000000001</ele><time>2026-04-24T16:12:21Z</time></trkpt><trkpt lat="44.270068760534826" lon="8.439215076328221"><ele>8.0</ele><time>2026-04-24T16:12:22Z</time></trkpt><trkpt lat="44.26998039330367" lon="8.439255637967632"><ele>8.0</ele><time>2026-04-24T16:12:23Z</time></trkpt><trkpt lat="44.269890098798456" lon="8.439307173946059"><ele>8.0</ele><time>2026-04-24T16:12:24Z</time></trkpt><trkpt lat="44.269799862352684" lon="8.43935744613186"><ele>8.0</ele><time>2026-04-24T16:12:25Z</time></trkpt><trkpt lat="44.26970404598809" lon="8.439410894375005"><ele>8.0</ele><time>2026-04-24T16:12:26Z</time></trkpt><trkpt lat="44.269612142780886" lon="8.439462332613132"><ele>8.0</ele><time>2026-04-24T16:12:27Z</time></trkpt><trkpt lat="44.26952143935721" lon="8.439512206923403"><ele>7.999999999999999</ele><time>2026-04-24T16:12:28Z</time></trkpt><trkpt lat="44.26944527830033" lon="8.439555522090016"><ele>8.0</ele><time>2026-04-24T16:12:29Z</time></trkpt><trkpt lat="44.26937798159379" lon="8.439595577395753"><ele>8.0</ele><time>2026-04-24T16:12:30Z</time></trkpt><trkpt lat="44.26931865625276" lon="8.439632233906226"><ele>8.0</ele><time>2026-04-24T16:12:31Z</time></trkpt><trkpt lat="44.26923206622791" lon="8.439678683832197"><ele>7.999999999999999</ele><time>2026-04-24T16:12:33Z</time></trkpt><trkpt lat="44.26912098507724" lon="8.439735390342301"><ele>8.0</ele><time>2026-04-24T16:12:35Z</time></trkpt><trkpt lat="44.269052759305744" lon="8.439768253309992"><ele>7.6000000000000005</ele><time>2026-04-24T16:12:36Z</time></trkpt><trkpt lat="44.26897166160863" lon="8.43981085204141"><ele>7.200000000000001</ele><time>2026-04-24T16:12:37Z</time></trkpt><trkpt lat="44.26888501283034" lon="8.439853566664796"><ele>6.8</ele><time>2026-04-24T16:12:38Z</time></trkpt><trkpt lat="44.26879992327436" lon="8.439898572074425"><ele>6.4</ele><time>2026-04-24T16:12:39Z</time></trkpt><trkpt lat="44.268710317174126" lon="8.439942325907293"><ele>6.0</ele><time>2026-04-24T16:12:40Z</time></trkpt><trkpt lat="44.26861439324411" lon="8.439983688430873"><ele>6.0</ele><time>2026-04-24T16:12:41Z</time></trkpt><trkpt lat="44.26852159295439" lon="8.440029940060036"><ele>6.0</ele><time>2026-04-24T16:12:42Z</time></trkpt><trkpt lat="44.26842416145646" lon="8.440075934099703"><ele>6.0</ele><time>2026-04-24T16:12:43Z</time></trkpt><trkpt lat="44.26833368888794" lon="8.44011344913149"><ele>6.0</ele><time>2026-04-24T16:12:44Z</time></trkpt><trkpt lat="44.268243100280564" lon="8.440160842029428"><ele>6.0</ele><time>2026-04-24T16:12:45Z</time></trkpt><trkpt lat="44.26814805383053" lon="8.440211402588"><ele>5.8</ele><time>2026-04-24T16:12:46Z</time></trkpt><trkpt lat="44.26805036293362" lon="8.440254315299205"><ele>5.6</ele><time>2026-04-24T16:12:47Z</time></trkpt><trkpt lat="44.26796464078102" lon="8.440293805502046"><ele>5.4</ele><time>2026-04-24T16:12:48Z</time></trkpt><trkpt lat="44.26787237874439" lon="8.440342511496352"><ele>5.2</ele><time>2026-04-24T16:12:49Z</time></trkpt><trkpt lat="44.267787786274994" lon="8.440387604449153"><ele>5.0</ele><time>2026-04-24T16:12:50Z</time></trkpt><trkpt lat="44.26770726120031" lon="8.440432349931243"><ele>4.833333333333334</ele><time>2026-04-24T16:12:51Z</time></trkpt><trkpt lat="44.26763407072844" lon="8.440468101107626"><ele>4.666666666666667</ele><time>2026-04-24T16:12:52Z</time></trkpt><trkpt lat="44.267565653942206" lon="8.44049925687464"><ele>4.5</ele><time>2026-04-24T16:12:53Z</time></trkpt><trkpt lat="44.2674480554097" lon="8.440523181202497"><ele>4.333333333333333</ele><time>2026-04-24T16:12:55Z</time></trkpt><trkpt lat="44.26738478827851" lon="8.440513993627237"><ele>4.166666666666666</ele><time>2026-04-24T16:12:56Z</time></trkpt><trkpt lat="44.26731451203897" lon="8.440499044514464"><ele>4.0</ele><time>2026-04-24T16:12:57Z</time></trkpt><trkpt lat="44.26724344362847" lon="8.440473879671597"><ele>3.4999999999999996</ele><time>2026-04-24T16:12:58Z</time></trkpt><trkpt lat="44.26713990214286" lon="8.440474345495527"><ele>3.0</ele><time>2026-04-24T16:13:00Z</time></trkpt><trkpt lat="44.26703993021159" lon="8.440543667434673"><ele>2.5</ele><time>2026-04-24T16:13:02Z</time></trkpt><trkpt lat="44.26699470629521" lon="8.440606057094893"><ele>2.0</ele><time>2026-04-24T16:13:03Z</time></trkpt><trkpt lat="44.26694702804642" lon="8.440678200301623"><ele>1.5</ele><time>2026-04-24T16:13:04Z</time></trkpt><trkpt lat="44.26689564553793" lon="8.440744899028196"><ele>1.0</ele><time>2026-04-24T16:13:05Z</time></trkpt><trkpt lat="44.26682817124797" lon="8.440811891291574"><ele>1.0</ele><time>2026-04-24T16:13:06Z</time></trkpt><trkpt lat="44.26680108374949" lon="8.440897319671096"><ele>1.0</ele><time>2026-04-24T16:13:07Z</time></trkpt><trkpt lat="44.26668438651993" lon="8.440919822180474"><ele>1.0</ele><time>2026-04-24T16:13:08Z</time></trkpt><trkpt lat="44.266610855685485" lon="8.44096554928218"><ele>1.0</ele><time>2026-04-24T16:13:09Z</time></trkpt><trkpt lat="44.26652604210359" lon="8.441017480089208"><ele>1.0</ele><time>2026-04-24T16:13:10Z</time></trkpt><trkpt lat="44.266434597244995" lon="8.441068621042792"><ele>1.4</ele><time>2026-04-24T16:13:11Z</time></trkpt><trkpt lat="44.266341540308254" lon="8.441118943958866"><ele>1.8</ele><time>2026-04-24T16:13:12Z</time></trkpt><trkpt lat="44.26625994468135" lon="8.441190049822719"><ele>2.1999999999999997</ele><time>2026-04-24T16:13:13Z</time></trkpt><trkpt lat="44.26615495144715" lon="8.441226952416656"><ele>2.6</ele><time>2026-04-24T16:13:14Z</time></trkpt><trkpt lat="44.26606100711468" lon="8.44126576577507"><ele>3.0</ele><time>2026-04-24T16:13:15Z</time></trkpt><trkpt lat="44.26597212129403" lon="8.441306546869717"><ele>3.0</ele><time>2026-04-24T16:13:16Z</time></trkpt><trkpt lat="44.26587659200563" lon="8.441353088919051"><ele>3.0</ele><time>2026-04-24T16:13:17Z</time></trkpt><trkpt lat="44.26577391250366" lon="8.441406019641162"><ele>3.0</ele><time>2026-04-24T16:13:18Z</time></trkpt><trkpt lat="44.26567688114086" lon="8.441453332781455"><ele>3.0</ele><time>2026-04-24T16:13:19Z</time></trkpt><trkpt lat="44.265577002718715" lon="8.441506651700157"><ele>3.0</ele><time>2026-04-24T16:13:20Z</time></trkpt><trkpt lat="44.26547492459213" lon="8.441559397123724"><ele>3.4</ele><time>2026-04-24T16:13:21Z</time></trkpt><trkpt lat="44.26538054114405" lon="8.441612122618686"><ele>3.8</ele><time>2026-04-24T16:13:22Z</time></trkpt><trkpt lat="44.26528194243203" lon="8.441666893923207"><ele>4.2</ele><time>2026-04-24T16:13:23Z</time></trkpt><trkpt lat="44.265187178398676" lon="8.441725688579744"><ele>4.6</ele><time>2026-04-24T16:13:24Z</time></trkpt><trkpt lat="44.26508937994923" lon="8.441786469791433"><ele>5.0</ele><time>2026-04-24T16:13:25Z</time></trkpt><trkpt lat="44.26498976191862" lon="8.441823881448752"><ele>5.0</ele><time>2026-04-24T16:13:26Z</time></trkpt><trkpt lat="44.264892758223674" lon="8.44188221377302"><ele>5.0</ele><time>2026-04-24T16:13:27Z</time></trkpt><trkpt lat="44.26479996540528" lon="8.441947264433042"><ele>5.0</ele><time>2026-04-24T16:13:28Z</time></trkpt><trkpt lat="44.264721224183454" lon="8.442034855081072"><ele>5.0</ele><time>2026-04-24T16:13:29Z</time></trkpt><trkpt lat="44.2646385808354" lon="8.442105091057318"><ele>5.0</ele><time>2026-04-24T16:13:30Z</time></trkpt><trkpt lat="44.26455470135715" lon="8.442171434805877"><ele>5.0</ele><time>2026-04-24T16:13:31Z</time></trkpt><trkpt lat="44.26447840902398" lon="8.44224766201771"><ele>5.0</ele><time>2026-04-24T16:13:32Z</time></trkpt><trkpt lat="44.264415432270916" lon="8.442319420555965"><ele>5.0</ele><time>2026-04-24T16:13:33Z</time></trkpt><trkpt lat="44.264349001474876" lon="8.442407338009437"><ele>5.0</ele><time>2026-04-24T16:13:34Z</time></trkpt><trkpt lat="44.26428330181589" lon="8.442510781709656"><ele>5.0</ele><time>2026-04-24T16:13:35Z</time></trkpt><trkpt lat="44.26421900142275" lon="8.442617459493405"><ele>5.0</ele><time>2026-04-24T16:13:36Z</time></trkpt><trkpt lat="44.26415145702449" lon="8.442733402331172"><ele>5.0</ele><time>2026-04-24T16:13:37Z</time></trkpt><trkpt lat="44.26407219903437" lon="8.442840734562814"><ele>5.0</ele><time>2026-04-24T16:13:38Z</time></trkpt><trkpt lat="44.26400793591669" lon="8.442957234208235"><ele>5.0</ele><time>2026-04-24T16:13:39Z</time></trkpt><trkpt lat="44.26394990543718" lon="8.443063426137728"><ele>5.0</ele><time>2026-04-24T16:13:40Z</time></trkpt><trkpt lat="44.26389458720333" lon="8.443168798083791"><ele>5.0</ele><time>2026-04-24T16:13:41Z</time></trkpt><trkpt lat="44.263837914019824" lon="8.443277662767278"><ele>5.0</ele><time>2026-04-24T16:13:42Z</time></trkpt><trkpt lat="44.26378023783907" lon="8.443392467091249"><ele>5.0</ele><time>2026-04-24T16:13:43Z</time></trkpt><trkpt lat="44.26371890517775" lon="8.443507716130288"><ele>5.0</ele><time>2026-04-24T16:13:44Z</time></trkpt><trkpt lat="44.26365762026032" lon="8.443621729577494"><ele>5.0</ele><time>2026-04-24T16:13:45Z</time></trkpt><trkpt lat="44.26359762052856" lon="8.443730155417937"><ele>4.6</ele><time>2026-04-24T16:13:46Z</time></trkpt><trkpt lat="44.26353897733637" lon="8.443830920084618"><ele>4.2</ele><time>2026-04-24T16:13:47Z</time></trkpt><trkpt lat="44.263482786615974" lon="8.443943950586211"><ele>3.8</ele><time>2026-04-24T16:13:48Z</time></trkpt><trkpt lat="44.26342593241383" lon="8.44405521711478"><ele>3.4</ele><time>2026-04-24T16:13:49Z</time></trkpt><trkpt lat="44.26336705593951" lon="8.444169741802712"><ele>3.0</ele><time>2026-04-24T16:13:50Z</time></trkpt><trkpt lat="44.26330711565962" lon="8.444283882862058"><ele>3.0</ele><time>2026-04-24T16:13:51Z</time></trkpt><trkpt lat="44.263246973634985" lon="8.444397545207911"><ele>3.0</ele><time>2026-04-24T16:13:52Z</time></trkpt><trkpt lat="44.26318771321754" lon="8.444512511930391"><ele>3.0</ele><time>2026-04-24T16:13:53Z</time></trkpt><trkpt lat="44.26312952267658" lon="8.444627348139296"><ele>3.0</ele><time>2026-04-24T16:13:54Z</time></trkpt><trkpt lat="44.26306914194977" lon="8.444744748882751"><ele>3.0</ele><time>2026-04-24T16:13:55Z</time></trkpt><trkpt lat="44.26300276352196" lon="8.444867712385305"><ele>3.25</ele><time>2026-04-24T16:13:56Z</time></trkpt><trkpt lat="44.26293634155782" lon="8.444995413877564"><ele>3.5</ele><time>2026-04-24T16:13:57Z</time></trkpt><trkpt lat="44.26286880787147" lon="8.445125803359847"><ele>3.75</ele><time>2026-04-24T16:13:58Z</time></trkpt><trkpt lat="44.26280256517987" lon="8.445248963448394"><ele>4.0</ele><time>2026-04-24T16:13:59Z</time></trkpt><trkpt lat="44.26273628316214" lon="8.445375871429196"><ele>3.75</ele><time>2026-04-24T16:14:00Z</time></trkpt><trkpt lat="44.2626680324578" lon="8.445503750164102"><ele>3.5</ele><time>2026-04-24T16:14:01Z</time></trkpt><trkpt lat="44.26260016725101" lon="8.445634382174115"><ele>3.25</ele><time>2026-04-24T16:14:02Z</time></trkpt><trkpt lat="44.262532697906806" lon="8.445763750985046"><ele>3.0</ele><time>2026-04-24T16:14:03Z</time></trkpt><trkpt lat="44.26246653684561" lon="8.445885170232762"><ele>3.0</ele><time>2026-04-24T16:14:04Z</time></trkpt><trkpt lat="44.2624008279238" lon="8.446002266476516"><ele>3.0</ele><time>2026-04-24T16:14:05Z</time></trkpt><trkpt lat="44.26233611813122" lon="8.44611864773827"><ele>3.0</ele><time>2026-04-24T16:14:06Z</time></trkpt><trkpt lat="44.26227021325075" lon="8.446240560063272"><ele>3.0</ele><time>2026-04-24T16:14:07Z</time></trkpt><trkpt lat="44.26220465429874" lon="8.446356891618342"><ele>3.0</ele><time>2026-04-24T16:14:08Z</time></trkpt><trkpt lat="44.26214173262243" lon="8.44647245196496"><ele>3.4</ele><time>2026-04-24T16:14:09Z</time></trkpt><trkpt lat="44.262085416507034" lon="8.44658061556175"><ele>3.8</ele><time>2026-04-24T16:14:10Z</time></trkpt><trkpt lat="44.262026271540485" lon="8.446687699715937"><ele>4.2</ele><time>2026-04-24T16:14:11Z</time></trkpt><trkpt lat="44.26197152836115" lon="8.446790227702758"><ele>4.6</ele><time>2026-04-24T16:14:12Z</time></trkpt><trkpt lat="44.26191792081012" lon="8.44689855513287"><ele>5.0</ele><time>2026-04-24T16:14:13Z</time></trkpt><trkpt lat="44.261864678624455" lon="8.44700803192478"><ele>5.0</ele><time>2026-04-24T16:14:14Z</time></trkpt><trkpt lat="44.26182053300222" lon="8.447108768434166"><ele>5.0</ele><time>2026-04-24T16:14:15Z</time></trkpt><trkpt lat="44.26178151816472" lon="8.44721420537437"><ele>5.0</ele><time>2026-04-24T16:14:16Z</time></trkpt><trkpt lat="44.26174582937794" lon="8.447318784752854"><ele>5.0</ele><time>2026-04-24T16:14:17Z</time></trkpt><trkpt lat="44.26171178931438" lon="8.447426081755216"><ele>5.0</ele><time>2026-04-24T16:14:18Z</time></trkpt><trkpt lat="44.26167292798106" lon="8.447525330246943"><ele>5.0</ele><time>2026-04-24T16:14:19Z</time></trkpt><trkpt lat="44.261636277185964" lon="8.447616891537448"><ele>5.166666666666667</ele><time>2026-04-24T16:14:20Z</time></trkpt><trkpt lat="44.261594132294775" lon="8.44776927905459"><ele>5.333333333333334</ele><time>2026-04-24T16:14:22Z</time></trkpt><trkpt lat="44.261587352884575" lon="8.447860158046671"><ele>5.5</ele><time>2026-04-24T16:14:23Z</time></trkpt><trkpt lat="44.261592827527735" lon="8.447967462644364"><ele>5.666666666666667</ele><time>2026-04-24T16:14:24Z</time></trkpt><trkpt lat="44.26160590653865" lon="8.448081106906061"><ele>5.833333333333333</ele><time>2026-04-24T16:14:25Z</time></trkpt><trkpt lat="44.26162049496274" lon="8.448200638306357"><ele>6.0</ele><time>2026-04-24T16:14:26Z</time></trkpt><trkpt lat="44.261636679088525" lon="8.448328788508402"><ele>6.199999999999999</ele><time>2026-04-24T16:14:27Z</time></trkpt><trkpt lat="44.26165317841434" lon="8.448467370743256"><ele>6.3999999999999995</ele><time>2026-04-24T16:14:28Z</time></trkpt><trkpt lat="44.261668650240026" lon="8.448612573492989"><ele>6.6</ele><time>2026-04-24T16:14:29Z</time></trkpt><trkpt lat="44.26168230324211" lon="8.448766711712363"><ele>6.8</ele><time>2026-04-24T16:14:30Z</time></trkpt><trkpt lat="44.26169457207283" lon="8.448908625366379"><ele>7.0</ele><time>2026-04-24T16:14:31Z</time></trkpt><trkpt lat="44.261703571602936" lon="8.449053783260915"><ele>7.6</ele><time>2026-04-24T16:14:32Z</time></trkpt><trkpt lat="44.26171820265002" lon="8.449210358238215"><ele>8.2</ele><time>2026-04-24T16:14:33Z</time></trkpt><trkpt lat="44.26173756181842" lon="8.449363796607596"><ele>8.8</ele><time>2026-04-24T16:14:34Z</time></trkpt><trkpt lat="44.261748040598" lon="8.44951193485562"><ele>9.4</ele><time>2026-04-24T16:14:35Z</time></trkpt><trkpt lat="44.2617522461403" lon="8.44965786378711"><ele>10.0</ele><time>2026-04-24T16:14:36Z</time></trkpt><trkpt lat="44.26174877036482" lon="8.449798156291221"><ele>9.8</ele><time>2026-04-24T16:14:37Z</time></trkpt><trkpt lat="44.26174397186039" lon="8.449941541882469"><ele>9.6</ele><time>2026-04-24T16:14:38Z</time></trkpt><trkpt lat="44.26173275294339" lon="8.450081150352288"><ele>9.4</ele><time>2026-04-24T16:14:39Z</time></trkpt><trkpt lat="44.26171593936048" lon="8.450224950384754"><ele>9.2</ele><time>2026-04-24T16:14:40Z</time></trkpt><trkpt lat="44.261686807736034" lon="8.45035656864798"><ele>9.0</ele><time>2026-04-24T16:14:41Z</time></trkpt><trkpt lat="44.26165580199567" lon="8.450491449136743"><ele>9.0</ele><time>2026-04-24T16:14:42Z</time></trkpt><trkpt lat="44.261620261916214" lon="8.450623514387607"><ele>9.0</ele><time>2026-04-24T16:14:43Z</time></trkpt><trkpt lat="44.26157938903902" lon="8.45074988075268"><ele>9.0</ele><time>2026-04-24T16:14:44Z</time></trkpt><trkpt lat="44.261532538196924" lon="8.450877041813326"><ele>9.0</ele><time>2026-04-24T16:14:45Z</time></trkpt><trkpt lat="44.26148333193395" lon="8.450999620667648"><ele>9.0</ele><time>2026-04-24T16:14:46Z</time></trkpt><trkpt lat="44.26142514507469" lon="8.451120122505873"><ele>9.6</ele><time>2026-04-24T16:14:47Z</time></trkpt><trkpt lat="44.26136273291805" lon="8.451239604853585"><ele>10.2</ele><time>2026-04-24T16:14:48Z</time></trkpt><trkpt lat="44.26129563762767" lon="8.451362046823801"><ele>10.799999999999999</ele><time>2026-04-24T16:14:49Z</time></trkpt><trkpt lat="44.261220930086594" lon="8.451484331802419"><ele>11.4</ele><time>2026-04-24T16:14:50Z</time></trkpt><trkpt lat="44.26115034779803" lon="8.451599352138121"><ele>12.0</ele><time>2026-04-24T16:14:51Z</time></trkpt><trkpt lat="44.26107132104233" lon="8.45171684477289"><ele>12.0</ele><time>2026-04-24T16:14:52Z</time></trkpt><trkpt lat="44.260989386315714" lon="8.451832054462145"><ele>12.0</ele><time>2026-04-24T16:14:53Z</time></trkpt><trkpt lat="44.26090484569574" lon="8.451946126851269"><ele>12.0</ele><time>2026-04-24T16:14:54Z</time></trkpt><trkpt lat="44.26081729538336" lon="8.452049830448257"><ele>12.0</ele><time>2026-04-24T16:14:55Z</time></trkpt><trkpt lat="44.26072290500128" lon="8.452158246643055"><ele>10.75</ele><time>2026-04-24T16:14:56Z</time></trkpt><trkpt lat="44.260625587657096" lon="8.45226137205815"><ele>9.5</ele><time>2026-04-24T16:14:57Z</time></trkpt><trkpt lat="44.26052448146193" lon="8.45235689838691"><ele>8.25</ele><time>2026-04-24T16:14:58Z</time></trkpt><trkpt lat="44.260417353950686" lon="8.452452316448706"><ele>7.0</ele><time>2026-04-24T16:14:59Z</time></trkpt><trkpt lat="44.26031003697139" lon="8.45254287440156"><ele>6.75</ele><time>2026-04-24T16:15:00Z</time></trkpt><trkpt lat="44.26020072748185" lon="8.452623513265289"><ele>6.5</ele><time>2026-04-24T16:15:01Z</time></trkpt><trkpt lat="44.260090013042415" lon="8.452700417482442"><ele>6.25</ele><time>2026-04-24T16:15:02Z</time></trkpt><trkpt lat="44.25998154953132" lon="8.45276371758039"><ele>6.0</ele><time>2026-04-24T16:15:03Z</time></trkpt><trkpt lat="44.25987353636574" lon="8.452822390001774"><ele>6.199999999999999</ele><time>2026-04-24T16:15:04Z</time></trkpt><trkpt lat="44.259767396065364" lon="8.452865743612422"><ele>6.3999999999999995</ele><time>2026-04-24T16:15:05Z</time></trkpt><trkpt lat="44.25965778327187" lon="8.45290393547922"><ele>6.6</ele><time>2026-04-24T16:15:06Z</time></trkpt><trkpt lat="44.25954994378767" lon="8.452929088425119"><ele>6.8</ele><time>2026-04-24T16:15:07Z</time></trkpt><trkpt lat="44.25943982070137" lon="8.452948580098168"><ele>7.0</ele><time>2026-04-24T16:15:08Z</time></trkpt><trkpt lat="44.259332367433416" lon="8.452954985890695"><ele>7.0</ele><time>2026-04-24T16:15:09Z</time></trkpt><trkpt lat="44.25921939611637" lon="8.452956458205659"><ele>7.0</ele><time>2026-04-24T16:15:10Z</time></trkpt><trkpt lat="44.25909993787319" lon="8.45294960316104"><ele>7.0</ele><time>2026-04-24T16:15:11Z</time></trkpt><trkpt lat="44.258976072795136" lon="8.452939223084527"><ele>7.0</ele><time>2026-04-24T16:15:12Z</time></trkpt><trkpt lat="44.25885743895343" lon="8.45292742586141"><ele>7.199999999999999</ele><time>2026-04-24T16:15:13Z</time></trkpt><trkpt lat="44.25873746479418" lon="8.452912201359352"><ele>7.3999999999999995</ele><time>2026-04-24T16:15:14Z</time></trkpt><trkpt lat="44.258624114043876" lon="8.452892908656787"><ele>7.6000000000000005</ele><time>2026-04-24T16:15:15Z</time></trkpt><trkpt lat="44.2585167113773" lon="8.452875501074553"><ele>7.800000000000001</ele><time>2026-04-24T16:15:16Z</time></trkpt><trkpt lat="44.258415759817055" lon="8.452853091625679"><ele>8.0</ele><time>2026-04-24T16:15:17Z</time></trkpt><trkpt lat="44.25832082795843" lon="8.45282292281433"><ele>8.0</ele><time>2026-04-24T16:15:18Z</time></trkpt><trkpt lat="44.258221667790814" lon="8.452783568417765"><ele>8.0</ele><time>2026-04-24T16:15:19Z</time></trkpt><trkpt lat="44.25812784944457" lon="8.45273622084702"><ele>8.0</ele><time>2026-04-24T16:15:20Z</time></trkpt><trkpt lat="44.25802801853006" lon="8.452681651298064"><ele>8.0</ele><time>2026-04-24T16:15:21Z</time></trkpt><trkpt lat="44.25792665805789" lon="8.452613639755171"><ele>8.0</ele><time>2026-04-24T16:15:22Z</time></trkpt><trkpt lat="44.257818105153426" lon="8.452536691332151"><ele>7.25</ele><time>2026-04-24T16:15:23Z</time></trkpt><trkpt lat="44.2577082150273" lon="8.452454305743721"><ele>6.5</ele><time>2026-04-24T16:15:24Z</time></trkpt><trkpt lat="44.257600204729094" lon="8.45236833437078"><ele>5.75</ele><time>2026-04-24T16:15:25Z</time></trkpt><trkpt lat="44.257489568244964" lon="8.452277935666345"><ele>5.0</ele><time>2026-04-24T16:15:26Z</time></trkpt><trkpt lat="44.257377394526245" lon="8.452188654434561"><ele>7.5</ele><time>2026-04-24T16:15:27Z</time></trkpt><trkpt lat="44.25727328126726" lon="8.452106391358592"><ele>10.0</ele><time>2026-04-24T16:15:28Z</time></trkpt><trkpt lat="44.2571665159863" lon="8.452021655365522"><ele>12.5</ele><time>2026-04-24T16:15:29Z</time></trkpt><trkpt lat="44.25706352386366" lon="8.451942106214307"><ele>15.0</ele><time>2026-04-24T16:15:30Z</time></trkpt><trkpt lat="44.25696019644377" lon="8.451860751482835"><ele>15.0</ele><time>2026-04-24T16:15:31Z</time></trkpt><trkpt lat="44.25686962477694" lon="8.451785308508782"><ele>15.0</ele><time>2026-04-24T16:15:32Z</time></trkpt><trkpt lat="44.256777933344345" lon="8.45171394455565"><ele>15.0</ele><time>2026-04-24T16:15:33Z</time></trkpt><trkpt lat="44.25669364241914" lon="8.451659190077171"><ele>15.0</ele><time>2026-04-24T16:15:34Z</time></trkpt><trkpt lat="44.25661224470521" lon="8.45160923901129"><ele>15.0</ele><time>2026-04-24T16:15:35Z</time></trkpt><trkpt lat="44.256528842178554" lon="8.451570193526065"><ele>13.6</ele><time>2026-04-24T16:15:36Z</time></trkpt><trkpt lat="44.256441848446265" lon="8.451541324740473"><ele>12.2</ele><time>2026-04-24T16:15:37Z</time></trkpt><trkpt lat="44.25635065485683" lon="8.451523070618745"><ele>10.8</ele><time>2026-04-24T16:15:38Z</time></trkpt><trkpt lat="44.256251552786814" lon="8.451508827257522"><ele>9.4</ele><time>2026-04-24T16:15:39Z</time></trkpt><trkpt lat="44.25615370863795" lon="8.451501952735814"><ele>8.0</ele><time>2026-04-24T16:15:40Z</time></trkpt><trkpt lat="44.25605442808592" lon="8.451497878028375"><ele>8.0</ele><time>2026-04-24T16:15:41Z</time></trkpt><trkpt lat="44.25596112572977" lon="8.451491779079936"><ele>8.0</ele><time>2026-04-24T16:15:42Z</time></trkpt><trkpt lat="44.25586797561466" lon="8.451486099271648"><ele>8.0</ele><time>2026-04-24T16:15:43Z</time></trkpt><trkpt lat="44.25577686051991" lon="8.451476533631372"><ele>8.0</ele><time>2026-04-24T16:15:44Z</time></trkpt><trkpt lat="44.25568267092371" lon="8.451463253951843"><ele>8.0</ele><time>2026-04-24T16:15:45Z</time></trkpt><trkpt lat="44.255582997655424" lon="8.451439054106203"><ele>7.4</ele><time>2026-04-24T16:15:46Z</time></trkpt><trkpt lat="44.25549120217137" lon="8.451403981850142"><ele>6.800000000000001</ele><time>2026-04-24T16:15:47Z</time></trkpt><trkpt lat="44.25539694568572" lon="8.451358069773523"><ele>6.2</ele><time>2026-04-24T16:15:48Z</time></trkpt><trkpt lat="44.25530445053799" lon="8.451303399115163"><ele>5.6</ele><time>2026-04-24T16:15:49Z</time></trkpt><trkpt lat="44.25521665943858" lon="8.451239729546701"><ele>5.0</ele><time>2026-04-24T16:15:50Z</time></trkpt><trkpt lat="44.25512743891298" lon="8.45116367758347"><ele>5.0</ele><time>2026-04-24T16:15:51Z</time></trkpt><trkpt lat="44.25504178702521" lon="8.451075226506203"><ele>5.0</ele><time>2026-04-24T16:15:52Z</time></trkpt><trkpt lat="44.25495575287912" lon="8.450973341218656"><ele>5.0</ele><time>2026-04-24T16:15:53Z</time></trkpt><trkpt lat="44.25486839145265" lon="8.450868745289794"><ele>5.0</ele><time>2026-04-24T16:15:54Z</time></trkpt><trkpt lat="44.25477937280606" lon="8.450758910661134"><ele>5.0</ele><time>2026-04-24T16:15:55Z</time></trkpt><trkpt lat="44.25469219931997" lon="8.450655207305935"><ele>5.0</ele><time>2026-04-24T16:15:56Z</time></trkpt><trkpt lat="44.25460988246752" lon="8.450558748651657"><ele>5.0</ele><time>2026-04-24T16:15:57Z</time></trkpt><trkpt lat="44.25453200878159" lon="8.450485055213854"><ele>5.0</ele><time>2026-04-24T16:15:58Z</time></trkpt><trkpt lat="44.254461643665984" lon="8.450421519602505"><ele>5.0</ele><time>2026-04-24T16:15:59Z</time></trkpt><trkpt lat="44.254388934757095" lon="8.450373577603848"><ele>9.5</ele><time>2026-04-24T16:16:00Z</time></trkpt><trkpt lat="44.254311334299906" lon="8.450336592904645"><ele>14.0</ele><time>2026-04-24T16:16:01Z</time></trkpt><trkpt lat="44.25422677579777" lon="8.450317223724511"><ele>18.5</ele><time>2026-04-24T16:16:02Z</time></trkpt><trkpt lat="44.25413626365991" lon="8.450304146812298"><ele>23.0</ele><time>2026-04-24T16:16:03Z</time></trkpt><trkpt lat="44.25404437317571" lon="8.45029630389353"><ele>27.499999999999996</ele><time>2026-04-24T16:16:04Z</time></trkpt><trkpt lat="44.25396214661995" lon="8.450294295730101"><ele>32.0</ele><time>2026-04-24T16:16:05Z</time></trkpt><trkpt lat="44.25388097923063" lon="8.450292745609962"><ele>32.0</ele><time>2026-04-24T16:16:06Z</time></trkpt><trkpt lat="44.2537689821099" lon="8.450293092031874"><ele>32.0</ele><time>2026-04-24T16:16:08Z</time></trkpt><trkpt lat="44.25364022854289" lon="8.45029879308034"><ele>32.0</ele><time>2026-04-24T16:16:10Z</time></trkpt><trkpt lat="44.253565263646635" lon="8.45029942674796"><ele>32.0</ele><time>2026-04-24T16:16:11Z</time></trkpt><trkpt lat="44.25347879187067" lon="8.450300167692282"><ele>32.0</ele><time>2026-04-24T16:16:12Z</time></trkpt><trkpt lat="44.253383047091596" lon="8.450301896119116"><ele>32.0</ele><time>2026-04-24T16:16:13Z</time></trkpt><trkpt lat="44.25329633103819" lon="8.450307086202749"><ele>32.0</ele><time>2026-04-24T16:16:14Z</time></trkpt><trkpt lat="44.253203016768296" lon="8.45030982709809"><ele>32.0</ele><time>2026-04-24T16:16:15Z</time></trkpt><trkpt lat="44.25311137998671" lon="8.450303249477365"><ele>32.0</ele><time>2026-04-24T16:16:16Z</time></trkpt><trkpt lat="44.253017443576155" lon="8.45028453498171"><ele>32.0</ele><time>2026-04-24T16:16:17Z</time></trkpt><trkpt lat="44.252933042112225" lon="8.450234468946514"><ele>28.833333333333332</ele><time>2026-04-24T16:16:18Z</time></trkpt><trkpt lat="44.25285049480813" lon="8.450184939101495"><ele>25.666666666666664</ele><time>2026-04-24T16:16:19Z</time></trkpt><trkpt lat="44.25277009698349" lon="8.450124900558963"><ele>22.5</ele><time>2026-04-24T16:16:20Z</time></trkpt><trkpt lat="44.25269913301005" lon="8.4500598947526"><ele>19.333333333333332</ele><time>2026-04-24T16:16:21Z</time></trkpt><trkpt lat="44.252629537129266" lon="8.44998904615431"><ele>16.166666666666664</ele><time>2026-04-24T16:16:22Z</time></trkpt><trkpt lat="44.252565439218586" lon="8.449911704023755"><ele>13.0</ele><time>2026-04-24T16:16:23Z</time></trkpt><trkpt lat="44.25251149692232" lon="8.449823693295226"><ele>13.0</ele><time>2026-04-24T16:16:24Z</time></trkpt><trkpt lat="44.252463946164205" lon="8.449723234956013"><ele>13.0</ele><time>2026-04-24T16:16:25Z</time></trkpt><trkpt lat="44.252419992760956" lon="8.449611793797661"><ele>13.0</ele><time>2026-04-24T16:16:26Z</time></trkpt><trkpt lat="44.252375635546024" lon="8.449489211389631"><ele>13.0</ele><time>2026-04-24T16:16:27Z</time></trkpt><trkpt lat="44.25232889974656" lon="8.449351470551054"><ele>13.0</ele><time>2026-04-24T16:16:28Z</time></trkpt><trkpt lat="44.25228805644831" lon="8.449231259111821"><ele>12.600000000000001</ele><time>2026-04-24T16:16:29Z</time></trkpt><trkpt lat="44.25224547960412" lon="8.449104752732865"><ele>12.200000000000001</ele><time>2026-04-24T16:16:30Z</time></trkpt><trkpt lat="44.25219658847801" lon="8.448986210550851"><ele>11.8</ele><time>2026-04-24T16:16:31Z</time></trkpt><trkpt lat="44.252149610888" lon="8.44887316064708"><ele>11.4</ele><time>2026-04-24T16:16:32Z</time></trkpt><trkpt lat="44.252092683150735" lon="8.448765573720078"><ele>11.0</ele><time>2026-04-24T16:16:33Z</time></trkpt><trkpt lat="44.252030588809546" lon="8.448660348234357"><ele>11.0</ele><time>2026-04-24T16:16:34Z</time></trkpt><trkpt lat="44.251965376411924" lon="8.448565019858762"><ele>11.0</ele><time>2026-04-24T16:16:35Z</time></trkpt><trkpt lat="44.251891152876276" lon="8.448474039567591"><ele>11.0</ele><time>2026-04-24T16:16:36Z</time></trkpt><trkpt lat="44.251810229595506" lon="8.44838577934567"><ele>11.0</ele><time>2026-04-24T16:16:37Z</time></trkpt><trkpt lat="44.25172428909389" lon="8.448296972279218"><ele>11.0</ele><time>2026-04-24T16:16:38Z</time></trkpt><trkpt lat="44.251636484344" lon="8.448214493115568"><ele>11.0</ele><time>2026-04-24T16:16:39Z</time></trkpt><trkpt lat="44.25154687576628" lon="8.448129490446446"><ele>11.0</ele><time>2026-04-24T16:16:40Z</time></trkpt><trkpt lat="44.25145145887022" lon="8.448042338367898"><ele>11.0</ele><time>2026-04-24T16:16:41Z</time></trkpt><trkpt lat="44.25135641552994" lon="8.447950001331224"><ele>11.0</ele><time>2026-04-24T16:16:42Z</time></trkpt><trkpt lat="44.251263139622004" lon="8.447864943989003"><ele>12.200000000000001</ele><time>2026-04-24T16:16:43Z</time></trkpt><trkpt lat="44.251169066745916" lon="8.447783245515174"><ele>13.4</ele><time>2026-04-24T16:16:44Z</time></trkpt><trkpt lat="44.25107658881327" lon="8.44771250189487"><ele>14.6</ele><time>2026-04-24T16:16:45Z</time></trkpt><trkpt lat="44.25097797336787" lon="8.44764645994916"><ele>15.8</ele><time>2026-04-24T16:16:46Z</time></trkpt><trkpt lat="44.25087888860613" lon="8.447586756394731"><ele>17.0</ele><time>2026-04-24T16:16:47Z</time></trkpt><trkpt lat="44.25077585287073" lon="8.44753058394303"><ele>17.0</ele><time>2026-04-24T16:16:48Z</time></trkpt><trkpt lat="44.25067262642981" lon="8.447478739632631"><ele>17.0</ele><time>2026-04-24T16:16:49Z</time></trkpt><trkpt lat="44.25057416560242" lon="8.447427380286202"><ele>17.0</ele><time>2026-04-24T16:16:50Z</time></trkpt><trkpt lat="44.25047773581405" lon="8.447371378534505"><ele>17.0</ele><time>2026-04-24T16:16:51Z</time></trkpt><trkpt lat="44.250387021720655" lon="8.447317023684882"><ele>17.0</ele><time>2026-04-24T16:16:52Z</time></trkpt><trkpt lat="44.2502886136821" lon="8.447260838684274"><ele>18.8</ele><time>2026-04-24T16:16:53Z</time></trkpt><trkpt lat="44.25020004898969" lon="8.447202014243796"><ele>20.6</ele><time>2026-04-24T16:16:54Z</time></trkpt><trkpt lat="44.25010806224455" lon="8.447138796496125"><ele>22.400000000000002</ele><time>2026-04-24T16:16:55Z</time></trkpt><trkpt lat="44.25001726263265" lon="8.447071644036175"><ele>24.2</ele><time>2026-04-24T16:16:56Z</time></trkpt><trkpt lat="44.249927662355674" lon="8.447000177235967"><ele>26.0</ele><time>2026-04-24T16:16:57Z</time></trkpt><trkpt lat="44.249842328965734" lon="8.44693377752704"><ele>22.400000000000002</ele><time>2026-04-24T16:16:58Z</time></trkpt><trkpt lat="44.249748521645074" lon="8.446866729865752"><ele>18.8</ele><time>2026-04-24T16:16:59Z</time></trkpt><trkpt lat="44.2496528135869" lon="8.446792309848947"><ele>15.200000000000001</ele><time>2026-04-24T16:17:00Z</time></trkpt><trkpt lat="44.24955752832541" lon="8.446715505913593"><ele>11.600000000000001</ele><time>2026-04-24T16:17:01Z</time></trkpt><trkpt lat="44.24946058795924" lon="8.446639869461933"><ele>8.0</ele><time>2026-04-24T16:17:02Z</time></trkpt><trkpt lat="44.249357877823265" lon="8.446559493185683"><ele>8.0</ele><time>2026-04-24T16:17:03Z</time></trkpt><trkpt lat="44.24926268782972" lon="8.446482245253598"><ele>8.0</ele><time>2026-04-24T16:17:04Z</time></trkpt><trkpt lat="44.24916805089782" lon="8.446404722376323"><ele>8.0</ele><time>2026-04-24T16:17:05Z</time></trkpt><trkpt lat="44.24906784559057" lon="8.446324607776537"><ele>8.0</ele><time>2026-04-24T16:17:06Z</time></trkpt><trkpt lat="44.24896498913642" lon="8.446244552073143"><ele>9.25</ele><time>2026-04-24T16:17:07Z</time></trkpt><trkpt lat="44.24887007309236" lon="8.446164595295839"><ele>10.5</ele><time>2026-04-24T16:17:08Z</time></trkpt><trkpt lat="44.248775582669616" lon="8.446086290116554"><ele>11.75</ele><time>2026-04-24T16:17:09Z</time></trkpt><trkpt lat="44.24867409028387" lon="8.446005161973362"><ele>13.0</ele><time>2026-04-24T16:17:10Z</time></trkpt><trkpt lat="44.24857083146805" lon="8.445925403166154"><ele>13.0</ele><time>2026-04-24T16:17:11Z</time></trkpt><trkpt lat="44.2484740595778" lon="8.445848468060598"><ele>13.0</ele><time>2026-04-24T16:17:12Z</time></trkpt><trkpt lat="44.24837693298181" lon="8.445773923786437"><ele>13.0</ele><time>2026-04-24T16:17:13Z</time></trkpt><trkpt lat="44.24827967525577" lon="8.445708510544932"><ele>13.0</ele><time>2026-04-24T16:17:14Z</time></trkpt><trkpt lat="44.248183596601606" lon="8.445650002734993"><ele>13.0</ele><time>2026-04-24T16:17:15Z</time></trkpt><trkpt lat="44.24808250041824" lon="8.44559816561295"><ele>11.0</ele><time>2026-04-24T16:17:16Z</time></trkpt><trkpt lat="44.24797944268561" lon="8.445550739856207"><ele>9.0</ele><time>2026-04-24T16:17:17Z</time></trkpt><trkpt lat="44.24786696013733" lon="8.445503956056355"><ele>7.0</ele><time>2026-04-24T16:17:18Z</time></trkpt><trkpt lat="44.24775318164719" lon="8.445461791457094"><ele>5.0</ele><time>2026-04-24T16:17:19Z</time></trkpt><trkpt lat="44.24764234301067" lon="8.445416541877062"><ele>7.0</ele><time>2026-04-24T16:17:20Z</time></trkpt><trkpt lat="44.24753232943286" lon="8.445375665742999"><ele>9.0</ele><time>2026-04-24T16:17:21Z</time></trkpt><trkpt lat="44.24741667037527" lon="8.44532869337315"><ele>11.0</ele><time>2026-04-24T16:17:22Z</time></trkpt><trkpt lat="44.24731259049649" lon="8.44529033890466"><ele>13.0</ele><time>2026-04-24T16:17:23Z</time></trkpt><trkpt lat="44.247207103096514" lon="8.44525055915801"><ele>13.0</ele><time>2026-04-24T16:17:24Z</time></trkpt><trkpt lat="44.247098683303925" lon="8.445209492216497"><ele>13.0</ele><time>2026-04-24T16:17:25Z</time></trkpt><trkpt lat="44.24699663473808" lon="8.445167898711075"><ele>13.0</ele><time>2026-04-24T16:17:26Z</time></trkpt><trkpt lat="44.24689243015097" lon="8.445123107764333"><ele>13.0</ele><time>2026-04-24T16:17:27Z</time></trkpt><trkpt lat="44.24680152668312" lon="8.445075668534649"><ele>13.0</ele><time>2026-04-24T16:17:28Z</time></trkpt><trkpt lat="44.24671123081765" lon="8.445021105839217"><ele>13.0</ele><time>2026-04-24T16:17:29Z</time></trkpt><trkpt lat="44.24662647588365" lon="8.444964409184617"><ele>13.0</ele><time>2026-04-24T16:17:30Z</time></trkpt><trkpt lat="44.24654392053895" lon="8.44489332628847"><ele>13.0</ele><time>2026-04-24T16:17:31Z</time></trkpt><trkpt lat="44.24646139206496" lon="8.444811849646635"><ele>13.0</ele><time>2026-04-24T16:17:32Z</time></trkpt><trkpt lat="44.24637899274561" lon="8.444721386458705"><ele>13.0</ele><time>2026-04-24T16:17:33Z</time></trkpt><trkpt lat="44.246293738642976" lon="8.444627685445555"><ele>13.600000000000001</ele><time>2026-04-24T16:17:34Z</time></trkpt><trkpt lat="44.24621018844079" lon="8.444535154266983"><ele>14.200000000000001</ele><time>2026-04-24T16:17:35Z</time></trkpt><trkpt lat="44.24612709037674" lon="8.444450538714248"><ele>14.8</ele><time>2026-04-24T16:17:36Z</time></trkpt><trkpt lat="44.246043763942765" lon="8.444378585610803"><ele>15.4</ele><time>2026-04-24T16:17:37Z</time></trkpt><trkpt lat="44.245953397579505" lon="8.444317647827177"><ele>16.0</ele><time>2026-04-24T16:17:38Z</time></trkpt><trkpt lat="44.2458613879723" lon="8.444266066014558"><ele>15.999999999999998</ele><time>2026-04-24T16:17:39Z</time></trkpt><trkpt lat="44.24576590126743" lon="8.44421835350517"><ele>16.0</ele><time>2026-04-24T16:17:40Z</time></trkpt><trkpt lat="44.24567369965546" lon="8.444179257370374"><ele>16.0</ele><time>2026-04-24T16:17:41Z</time></trkpt><trkpt lat="44.245593332892625" lon="8.444142455520703"><ele>16.0</ele><time>2026-04-24T16:17:42Z</time></trkpt><trkpt lat="44.24551410694844" lon="8.444109138380755"><ele>15.999999999999998</ele><time>2026-04-24T16:17:43Z</time></trkpt><trkpt lat="44.245440418722694" lon="8.444079874271853"><ele>16.0</ele><time>2026-04-24T16:17:44Z</time></trkpt><trkpt lat="44.24537459278484" lon="8.44405007552811"><ele>14.499999999999998</ele><time>2026-04-24T16:17:45Z</time></trkpt><trkpt lat="44.245308775409136" lon="8.444019243001232"><ele>13.0</ele><time>2026-04-24T16:17:46Z</time></trkpt><trkpt lat="44.24523859856871" lon="8.443974357674831"><ele>11.5</ele><time>2026-04-24T16:17:47Z</time></trkpt><trkpt lat="44.245160643350765" lon="8.443920934553063"><ele>10.0</ele><time>2026-04-24T16:17:48Z</time></trkpt><trkpt lat="44.24507532890374" lon="8.443859458763502"><ele>8.5</ele><time>2026-04-24T16:17:49Z</time></trkpt><trkpt lat="44.24498217467029" lon="8.443793845901476"><ele>7.0</ele><time>2026-04-24T16:17:50Z</time></trkpt><trkpt lat="44.24489147421138" lon="8.443738967457204"><ele>11.6</ele><time>2026-04-24T16:17:51Z</time></trkpt><trkpt lat="44.24479747377222" lon="8.443687146352982"><ele>16.2</ele><time>2026-04-24T16:17:52Z</time></trkpt><trkpt lat="44.24470074251568" lon="8.443633343866013"><ele>20.8</ele><time>2026-04-24T16:17:53Z</time></trkpt><trkpt lat="44.244603700343944" lon="8.443591449988004"><ele>25.4</ele><time>2026-04-24T16:17:54Z</time></trkpt><trkpt lat="44.24451301823922" lon="8.443563163884734"><ele>30.0</ele><time>2026-04-24T16:17:55Z</time></trkpt><trkpt lat="44.24441603805651" lon="8.443545381768844"><ele>30.0</ele><time>2026-04-24T16:17:56Z</time></trkpt><trkpt lat="44.2443216351785" lon="8.443545376604064"><ele>30.0</ele><time>2026-04-24T16:17:57Z</time></trkpt><trkpt lat="44.244224509485235" lon="8.443565917687787"><ele>30.0</ele><time>2026-04-24T16:17:58Z</time></trkpt><trkpt lat="44.24412455520998" lon="8.443600055716942"><ele>30.0</ele><time>2026-04-24T16:17:59Z</time></trkpt><trkpt lat="44.24403181879247" lon="8.443644934263263"><ele>30.0</ele><time>2026-04-24T16:18:00Z</time></trkpt><trkpt lat="44.24394728590496" lon="8.443709005787595"><ele>27.8</ele><time>2026-04-24T16:18:01Z</time></trkpt><trkpt lat="44.2438701773677" lon="8.443784894696126"><ele>25.6</ele><time>2026-04-24T16:18:02Z</time></trkpt><trkpt lat="44.24379322560904" lon="8.443868405503537"><ele>23.4</ele><time>2026-04-24T16:18:03Z</time></trkpt><trkpt lat="44.24371449496015" lon="8.443965364417343"><ele>21.2</ele><time>2026-04-24T16:18:04Z</time></trkpt><trkpt lat="44.2436352738083" lon="8.444064844965203"><ele>19.0</ele><time>2026-04-24T16:18:05Z</time></trkpt><trkpt lat="44.24355249716702" lon="8.444169403871811"><ele>19.0</ele><time>2026-04-24T16:18:06Z</time></trkpt><trkpt lat="44.24346447743739" lon="8.44426970599591"><ele>19.0</ele><time>2026-04-24T16:18:07Z</time></trkpt><trkpt lat="44.24337503378879" lon="8.444361357973456"><ele>19.0</ele><time>2026-04-24T16:18:08Z</time></trkpt><trkpt lat="44.2432848628295" lon="8.444432410193134"><ele>19.0</ele><time>2026-04-24T16:18:09Z</time></trkpt><trkpt lat="44.24318977655987" lon="8.444496392943252"><ele>19.0</ele><time>2026-04-24T16:18:10Z</time></trkpt><trkpt lat="44.243090651746066" lon="8.444554774397698"><ele>18.5</ele><time>2026-04-24T16:18:11Z</time></trkpt><trkpt lat="44.24298383922432" lon="8.444609685288432"><ele>18.0</ele><time>2026-04-24T16:18:12Z</time></trkpt><trkpt lat="44.24287474766549" lon="8.444665262695317"><ele>17.5</ele><time>2026-04-24T16:18:13Z</time></trkpt><trkpt lat="44.24276595309371" lon="8.444717950985716"><ele>17.0</ele><time>2026-04-24T16:18:14Z</time></trkpt><trkpt lat="44.24266446351811" lon="8.444763886407543"><ele>17.0</ele><time>2026-04-24T16:18:15Z</time></trkpt><trkpt lat="44.24256203253116" lon="8.444807076131669"><ele>17.0</ele><time>2026-04-24T16:18:16Z</time></trkpt><trkpt lat="44.242462798251324" lon="8.444845693321192"><ele>17.0</ele><time>2026-04-24T16:18:17Z</time></trkpt><trkpt lat="44.24236856516309" lon="8.44488377801028"><ele>17.0</ele><time>2026-04-24T16:18:18Z</time></trkpt><trkpt lat="44.242287693258874" lon="8.444904914551444"><ele>17.0</ele><time>2026-04-24T16:18:19Z</time></trkpt><trkpt lat="44.24219935453333" lon="8.444919814420055"><ele>17.5</ele><time>2026-04-24T16:18:20Z</time></trkpt><trkpt lat="44.24211478358986" lon="8.444918566239366"><ele>18.0</ele><time>2026-04-24T16:18:21Z</time></trkpt><trkpt lat="44.24202838860636" lon="8.444903118944014"><ele>18.5</ele><time>2026-04-24T16:18:22Z</time></trkpt><trkpt lat="44.24194781000605" lon="8.44487580196167"><ele>19.0</ele><time>2026-04-24T16:18:23Z</time></trkpt><trkpt lat="44.24187255636574" lon="8.444835812799985"><ele>19.5</ele><time>2026-04-24T16:18:24Z</time></trkpt><trkpt lat="44.24179515904432" lon="8.44478104182021"><ele>20.0</ele><time>2026-04-24T16:18:25Z</time></trkpt><trkpt lat="44.24171820937551" lon="8.44471872746654"><ele>20.0</ele><time>2026-04-24T16:18:26Z</time></trkpt><trkpt lat="44.24163955519587" lon="8.44464582203787"><ele>20.0</ele><time>2026-04-24T16:18:27Z</time></trkpt><trkpt lat="44.2415688295367" lon="8.444579631002576"><ele>20.0</ele><time>2026-04-24T16:18:28Z</time></trkpt><trkpt lat="44.24149797326616" lon="8.444521273292427"><ele>20.0</ele><time>2026-04-24T16:18:29Z</time></trkpt><trkpt lat="44.241423840600014" lon="8.44447703408756"><ele>20.0</ele><time>2026-04-24T16:18:30Z</time></trkpt><trkpt lat="44.2413414700802" lon="8.444437106074501"><ele>20.0</ele><time>2026-04-24T16:18:31Z</time></trkpt><trkpt lat="44.24125532991063" lon="8.444403822928491"><ele>22.8</ele><time>2026-04-24T16:18:32Z</time></trkpt><trkpt lat="44.24116234845536" lon="8.444372806706264"><ele>25.6</ele><time>2026-04-24T16:18:33Z</time></trkpt><trkpt lat="44.24107218301482" lon="8.444342002438542"><ele>28.4</ele><time>2026-04-24T16:18:34Z</time></trkpt><trkpt lat="44.24098506946482" lon="8.444312839817336"><ele>31.2</ele><time>2026-04-24T16:18:35Z</time></trkpt><trkpt lat="44.24089150689622" lon="8.444283915337316"><ele>34.0</ele><time>2026-04-24T16:18:36Z</time></trkpt><trkpt lat="44.240798484736324" lon="8.444244331376632"><ele>34.0</ele><time>2026-04-24T16:18:37Z</time></trkpt><trkpt lat="44.240708942689785" lon="8.444204666516054"><ele>34.0</ele><time>2026-04-24T16:18:38Z</time></trkpt><trkpt lat="44.240629504826884" lon="8.444156753026636"><ele>34.0</ele><time>2026-04-24T16:18:39Z</time></trkpt><trkpt lat="44.24055582734038" lon="8.444094830126273"><ele>34.0</ele><time>2026-04-24T16:18:40Z</time></trkpt><trkpt lat="44.24048763440578" lon="8.44402692210517"><ele>34.0</ele><time>2026-04-24T16:18:41Z</time></trkpt><trkpt lat="44.24042345805154" lon="8.44394637089336"><ele>34.0</ele><time>2026-04-24T16:18:42Z</time></trkpt><trkpt lat="44.24036005752604" lon="8.443859367925038"><ele>36.8</ele><time>2026-04-24T16:18:43Z</time></trkpt><trkpt lat="44.24029633380283" lon="8.443758297196224"><ele>39.599999999999994</ele><time>2026-04-24T16:18:44Z</time></trkpt><trkpt lat="44.24023432917201" lon="8.443650578712976"><ele>42.4</ele><time>2026-04-24T16:18:45Z</time></trkpt><trkpt lat="44.24016958037965" lon="8.443543690823072"><ele>45.199999999999996</ele><time>2026-04-24T16:18:46Z</time></trkpt><trkpt lat="44.240107290308266" lon="8.443437037244806"><ele>48.0</ele><time>2026-04-24T16:18:47Z</time></trkpt><trkpt lat="44.2400477655818" lon="8.443335948809489"><ele>48.0</ele><time>2026-04-24T16:18:48Z</time></trkpt><trkpt lat="44.23998760668909" lon="8.443236266774889"><ele>48.0</ele><time>2026-04-24T16:18:49Z</time></trkpt><trkpt lat="44.23992663913449" lon="8.443145161208138"><ele>48.0</ele><time>2026-04-24T16:18:50Z</time></trkpt><trkpt lat="44.23985953407005" lon="8.443057697232074"><ele>48.0</ele><time>2026-04-24T16:18:51Z</time></trkpt><trkpt lat="44.23978488410081" lon="8.442967562807052"><ele>48.0</ele><time>2026-04-24T16:18:52Z</time></trkpt><trkpt lat="44.23970504754365" lon="8.442886726194512"><ele>50.0</ele><time>2026-04-24T16:18:53Z</time></trkpt><trkpt lat="44.23962538631609" lon="8.442820193747004"><ele>52.0</ele><time>2026-04-24T16:18:54Z</time></trkpt><trkpt lat="44.23954627427417" lon="8.442745262496045"><ele>54.0</ele><time>2026-04-24T16:18:55Z</time></trkpt><trkpt lat="44.23945967217391" lon="8.442681971644971"><ele>56.0</ele><time>2026-04-24T16:18:56Z</time></trkpt><trkpt lat="44.23938279965926" lon="8.44261443392815"><ele>58.0</ele><time>2026-04-24T16:18:57Z</time></trkpt><trkpt lat="44.239303234248524" lon="8.442550832501622"><ele>57.99999999999999</ele><time>2026-04-24T16:18:58Z</time></trkpt><trkpt lat="44.23923307744408" lon="8.44250040368009"><ele>58.0</ele><time>2026-04-24T16:18:59Z</time></trkpt><trkpt lat="44.23915443077771" lon="8.442450008518334"><ele>58.0</ele><time>2026-04-24T16:19:00Z</time></trkpt><trkpt lat="44.239079215763674" lon="8.442419521377534"><ele>58.0</ele><time>2026-04-24T16:19:01Z</time></trkpt><trkpt lat="44.23899485249784" lon="8.442391867509421"><ele>57.99999999999999</ele><time>2026-04-24T16:19:02Z</time></trkpt><trkpt lat="44.238916738937036" lon="8.442385595426762"><ele>58.0</ele><time>2026-04-24T16:19:03Z</time></trkpt><trkpt lat="44.23883079668538" lon="8.442391631989695"><ele>55.99999999999999</ele><time>2026-04-24T16:19:04Z</time></trkpt><trkpt lat="44.238746792822525" lon="8.442412602041276"><ele>54.0</ele><time>2026-04-24T16:19:05Z</time></trkpt><trkpt lat="44.23866253904521" lon="8.442447784339016"><ele>52.0</ele><time>2026-04-24T16:19:06Z</time></trkpt><trkpt lat="44.23857639666913" lon="8.442492026489942"><ele>50.0</ele><time>2026-04-24T16:19:07Z</time></trkpt><trkpt lat="44.23849299578989" lon="8.442538705300842"><ele>48.0</ele><time>2026-04-24T16:19:08Z</time></trkpt><trkpt lat="44.23841240417433" lon="8.442579515386305"><ele>46.0</ele><time>2026-04-24T16:19:09Z</time></trkpt><trkpt lat="44.23832786853678" lon="8.44261855570687"><ele>46.0</ele><time>2026-04-24T16:19:10Z</time></trkpt><trkpt lat="44.23824297684284" lon="8.442647463379434"><ele>46.0</ele><time>2026-04-24T16:19:11Z</time></trkpt><trkpt lat="44.23816194999103" lon="8.442660931344781"><ele>46.0</ele><time>2026-04-24T16:19:12Z</time></trkpt><trkpt lat="44.238081668793555" lon="8.44265718498055"><ele>46.0</ele><time>2026-04-24T16:19:13Z</time></trkpt><trkpt lat="44.237997682140666" lon="8.442633789367736"><ele>46.0</ele><time>2026-04-24T16:19:14Z</time></trkpt><trkpt lat="44.23790740450932" lon="8.442598998239195"><ele>46.0</ele><time>2026-04-24T16:19:15Z</time></trkpt><trkpt lat="44.23782534105229" lon="8.442573157491584"><ele>40.5</ele><time>2026-04-24T16:19:16Z</time></trkpt><trkpt lat="44.23773972574324" lon="8.442531930673468"><ele>35.0</ele><time>2026-04-24T16:19:17Z</time></trkpt><trkpt lat="44.23765760357314" lon="8.442482567189924"><ele>29.5</ele><time>2026-04-24T16:19:18Z</time></trkpt><trkpt lat="44.23758555128727" lon="8.44242520301786"><ele>24.0</ele><time>2026-04-24T16:19:19Z</time></trkpt><trkpt lat="44.23752002041163" lon="8.442355258266685"><ele>18.5</ele><time>2026-04-24T16:19:20Z</time></trkpt><trkpt lat="44.23746730409266" lon="8.44226706252513"><ele>13.0</ele><time>2026-04-24T16:19:21Z</time></trkpt><trkpt lat="44.23741868587447" lon="8.442159628002926"><ele>17.8</ele><time>2026-04-24T16:19:22Z</time></trkpt><trkpt lat="44.237379901679006" lon="8.44203914943501"><ele>22.6</ele><time>2026-04-24T16:19:23Z</time></trkpt><trkpt lat="44.237350020719546" lon="8.441916869749269"><ele>27.400000000000002</ele><time>2026-04-24T16:19:24Z</time></trkpt><trkpt lat="44.23733617540167" lon="8.441793429093012"><ele>32.2</ele><time>2026-04-24T16:19:25Z</time></trkpt><trkpt lat="44.237318801853284" lon="8.4416633192269"><ele>37.0</ele><time>2026-04-24T16:19:26Z</time></trkpt><trkpt lat="44.237309538715344" lon="8.441535860007354"><ele>37.0</ele><time>2026-04-24T16:19:27Z</time></trkpt><trkpt lat="44.23730740888842" lon="8.441401157652049"><ele>37.0</ele><time>2026-04-24T16:19:28Z</time></trkpt><trkpt lat="44.23730898397988" lon="8.441259048072565"><ele>37.0</ele><time>2026-04-24T16:19:29Z</time></trkpt><trkpt lat="44.237312491437855" lon="8.44111257748735"><ele>37.0</ele><time>2026-04-24T16:19:30Z</time></trkpt><trkpt lat="44.23732023300323" lon="8.440973880034578"><ele>37.0</ele><time>2026-04-24T16:19:31Z</time></trkpt><trkpt lat="44.23732809578998" lon="8.440834369738766"><ele>37.0</ele><time>2026-04-24T16:19:32Z</time></trkpt><trkpt lat="44.23733438705167" lon="8.440702206194475"><ele>37.0</ele><time>2026-04-24T16:19:33Z</time></trkpt><trkpt lat="44.237343596089104" lon="8.440560139893515"><ele>37.0</ele><time>2026-04-24T16:19:34Z</time></trkpt><trkpt lat="44.237356433147085" lon="8.440420111855534"><ele>37.0</ele><time>2026-04-24T16:19:35Z</time></trkpt><trkpt lat="44.23737398586603" lon="8.440294096841741"><ele>37.0</ele><time>2026-04-24T16:19:36Z</time></trkpt><trkpt lat="44.23739676915785" lon="8.44016532096433"><ele>34.6</ele><time>2026-04-24T16:19:37Z</time></trkpt><trkpt lat="44.237423250673295" lon="8.440042701599396"><ele>32.2</ele><time>2026-04-24T16:19:38Z</time></trkpt><trkpt lat="44.23745667568975" lon="8.439912356457626"><ele>29.8</ele><time>2026-04-24T16:19:39Z</time></trkpt><trkpt lat="44.23749731469916" lon="8.439790111276919"><ele>27.4</ele><time>2026-04-24T16:19:40Z</time></trkpt><trkpt lat="44.23754385852223" lon="8.439678460779762"><ele>25.0</ele><time>2026-04-24T16:19:41Z</time></trkpt><trkpt lat="44.237599854437136" lon="8.439574787765215"><ele>22.2</ele><time>2026-04-24T16:19:42Z</time></trkpt><trkpt lat="44.23766675098176" lon="8.43947292154733"><ele>19.4</ele><time>2026-04-24T16:19:43Z</time></trkpt><trkpt lat="44.2377377560183" lon="8.439372328254795"><ele>16.6</ele><time>2026-04-24T16:19:44Z</time></trkpt><trkpt lat="44.237803103579935" lon="8.43927509697849"><ele>13.8</ele><time>2026-04-24T16:19:45Z</time></trkpt><trkpt lat="44.23787303295978" lon="8.439188487335207"><ele>11.0</ele><time>2026-04-24T16:19:46Z</time></trkpt><trkpt lat="44.23793861210155" lon="8.439094085733181"><ele>11.0</ele><time>2026-04-24T16:19:47Z</time></trkpt><trkpt lat="44.23799700285035" lon="8.438998591138978"><ele>11.0</ele><time>2026-04-24T16:19:48Z</time></trkpt><trkpt lat="44.23804543009351" lon="8.438902740848823"><ele>11.0</ele><time>2026-04-24T16:19:49Z</time></trkpt><trkpt lat="44.23808472116193" lon="8.438798736043134"><ele>11.0</ele><time>2026-04-24T16:19:50Z</time></trkpt><trkpt lat="44.23811517051571" lon="8.438689514124379"><ele>11.0</ele><time>2026-04-24T16:19:51Z</time></trkpt><trkpt lat="44.23813916380916" lon="8.438574518436686"><ele>11.0</ele><time>2026-04-24T16:19:52Z</time></trkpt><trkpt lat="44.238151601956616" lon="8.438469181894135"><ele>9.833333333333332</ele><time>2026-04-24T16:19:53Z</time></trkpt><trkpt lat="44.23815004612547" lon="8.438349861591277"><ele>8.666666666666666</ele><time>2026-04-24T16:19:54Z</time></trkpt><trkpt lat="44.23813875805206" lon="8.438231557631974"><ele>7.5</ele><time>2026-04-24T16:19:55Z</time></trkpt><trkpt lat="44.23811711347792" lon="8.438115435493511"><ele>6.333333333333333</ele><time>2026-04-24T16:19:56Z</time></trkpt><trkpt lat="44.23808878197486" lon="8.438001558191582"><ele>5.166666666666666</ele><time>2026-04-24T16:19:57Z</time></trkpt><trkpt lat="44.23805420375322" lon="8.43789467329035"><ele>4.0</ele><time>2026-04-24T16:19:58Z</time></trkpt><trkpt lat="44.238013235626816" lon="8.437783881029892"><ele>4.0</ele><time>2026-04-24T16:19:59Z</time></trkpt><trkpt lat="44.23797309529613" lon="8.437677668733308"><ele>4.0</ele><time>2026-04-24T16:20:00Z</time></trkpt><trkpt lat="44.23792427780432" lon="8.437559979240861"><ele>4.0</ele><time>2026-04-24T16:20:01Z</time></trkpt><trkpt lat="44.23787688734718" lon="8.437445692492341"><ele>4.0</ele><time>2026-04-24T16:20:02Z</time></trkpt><trkpt lat="44.23782483589874" lon="8.437317365472676"><ele>4.0</ele><time>2026-04-24T16:20:03Z</time></trkpt><trkpt lat="44.237766046467534" lon="8.437177495109164"><ele>4.4</ele><time>2026-04-24T16:20:04Z</time></trkpt><trkpt lat="44.237715099415226" lon="8.43704633745684"><ele>4.800000000000001</ele><time>2026-04-24T16:20:05Z</time></trkpt><trkpt lat="44.237662551506894" lon="8.436917802923842"><ele>5.199999999999999</ele><time>2026-04-24T16:20:06Z</time></trkpt><trkpt lat="44.23760720279279" lon="8.436782943916864"><ele>5.6</ele><time>2026-04-24T16:20:07Z</time></trkpt><trkpt lat="44.23755253569521" lon="8.43664632514167"><ele>6.0</ele><time>2026-04-24T16:20:08Z</time></trkpt><trkpt lat="44.237499345563045" lon="8.43651465708093"><ele>6.0</ele><time>2026-04-24T16:20:09Z</time></trkpt><trkpt lat="44.237447822417785" lon="8.436384276102027"><ele>6.0</ele><time>2026-04-24T16:20:10Z</time></trkpt><trkpt lat="44.23739349209169" lon="8.43624610985764"><ele>6.0</ele><time>2026-04-24T16:20:11Z</time></trkpt><trkpt lat="44.23733872847431" lon="8.436105231127566"><ele>6.0</ele><time>2026-04-24T16:20:12Z</time></trkpt><trkpt lat="44.23728119184668" lon="8.435963026530933"><ele>5.6</ele><time>2026-04-24T16:20:13Z</time></trkpt><trkpt lat="44.23722277205076" lon="8.43582316492431"><ele>5.199999999999999</ele><time>2026-04-24T16:20:14Z</time></trkpt><trkpt lat="44.237171680957466" lon="8.43569288144711"><ele>4.800000000000001</ele><time>2026-04-24T16:20:15Z</time></trkpt><trkpt lat="44.23712157728225" lon="8.435560756958642"><ele>4.4</ele><time>2026-04-24T16:20:16Z</time></trkpt><trkpt lat="44.237067660879006" lon="8.435424154995237"><ele>4.0</ele><time>2026-04-24T16:20:17Z</time></trkpt><trkpt lat="44.23701525865615" lon="8.435287917642787"><ele>4.0</ele><time>2026-04-24T16:20:18Z</time></trkpt><trkpt lat="44.236959830621664" lon="8.435147422788827"><ele>4.0</ele><time>2026-04-24T16:20:19Z</time></trkpt><trkpt lat="44.23690488494912" lon="8.435006154503887"><ele>4.0</ele><time>2026-04-24T16:20:20Z</time></trkpt><trkpt lat="44.236850084284946" lon="8.434864883278985"><ele>4.0</ele><time>2026-04-24T16:20:21Z</time></trkpt><trkpt lat="44.23679536966608" lon="8.434723205233857"><ele>4.4</ele><time>2026-04-24T16:20:22Z</time></trkpt><trkpt lat="44.236743519421466" lon="8.434587268711635"><ele>4.800000000000001</ele><time>2026-04-24T16:20:23Z</time></trkpt><trkpt lat="44.2366880793674" lon="8.434449301324015"><ele>5.199999999999999</ele><time>2026-04-24T16:20:24Z</time></trkpt><trkpt lat="44.23663395011431" lon="8.434307786398463"><ele>5.6</ele><time>2026-04-24T16:20:25Z</time></trkpt><trkpt lat="44.23658291973294" lon="8.43417679354538"><ele>6.0</ele><time>2026-04-24T16:20:26Z</time></trkpt><trkpt lat="44.23652758256172" lon="8.43403875534457"><ele>6.0</ele><time>2026-04-24T16:20:27Z</time></trkpt><trkpt lat="44.23647129546112" lon="8.433900358012362"><ele>6.0</ele><time>2026-04-24T16:20:28Z</time></trkpt><trkpt lat="44.2364190814434" lon="8.433769507321212"><ele>6.0</ele><time>2026-04-24T16:20:29Z</time></trkpt><trkpt lat="44.236360457169624" lon="8.433632376304248"><ele>6.0</ele><time>2026-04-24T16:20:30Z</time></trkpt><trkpt lat="44.23630175414794" lon="8.433491422631382"><ele>5.5</ele><time>2026-04-24T16:20:31Z</time></trkpt><trkpt lat="44.236238770433104" lon="8.433344770149976"><ele>5.0</ele><time>2026-04-24T16:20:32Z</time></trkpt><trkpt lat="44.23618338378634" lon="8.433209192783897"><ele>4.5</ele><time>2026-04-24T16:20:33Z</time></trkpt><trkpt lat="44.23612372621466" lon="8.433067891446575"><ele>4.0</ele><time>2026-04-24T16:20:34Z</time></trkpt><trkpt lat="44.23606293393236" lon="8.432924261156964"><ele>5.25</ele><time>2026-04-24T16:20:35Z</time></trkpt><trkpt lat="44.2360001097736" lon="8.432781825473498"><ele>6.5</ele><time>2026-04-24T16:20:36Z</time></trkpt><trkpt lat="44.23593744841245" lon="8.43265571825244"><ele>7.75</ele><time>2026-04-24T16:20:37Z</time></trkpt><trkpt lat="44.235876591390706" lon="8.43251308406132"><ele>9.0</ele><time>2026-04-24T16:20:38Z</time></trkpt><trkpt lat="44.23581678747249" lon="8.43237845313237"><ele>9.0</ele><time>2026-04-24T16:20:39Z</time></trkpt><trkpt lat="44.235756056885954" lon="8.432248052513698"><ele>9.0</ele><time>2026-04-24T16:20:40Z</time></trkpt><trkpt lat="44.23569799722172" lon="8.432114415428835"><ele>9.0</ele><time>2026-04-24T16:20:41Z</time></trkpt><trkpt lat="44.23563837491067" lon="8.431985847801805"><ele>9.0</ele><time>2026-04-24T16:20:42Z</time></trkpt><trkpt lat="44.235574673341894" lon="8.431851996245268"><ele>9.0</ele><time>2026-04-24T16:20:43Z</time></trkpt><trkpt lat="44.235511589467826" lon="8.431716370941032"><ele>7.75</ele><time>2026-04-24T16:20:44Z</time></trkpt><trkpt lat="44.235447439711805" lon="8.431584084811883"><ele>6.5</ele><time>2026-04-24T16:20:45Z</time></trkpt><trkpt lat="44.235386411692" lon="8.431458266376662"><ele>5.25</ele><time>2026-04-24T16:20:46Z</time></trkpt><trkpt lat="44.2353233679146" lon="8.431325578515281"><ele>4.0</ele><time>2026-04-24T16:20:47Z</time></trkpt><trkpt lat="44.235257567241796" lon="8.431193898515769"><ele>4.0</ele><time>2026-04-24T16:20:48Z</time></trkpt><trkpt lat="44.23518886573082" lon="8.431052332098718"><ele>4.0</ele><time>2026-04-24T16:20:49Z</time></trkpt><trkpt lat="44.23512553787561" lon="8.430922096565062"><ele>4.0</ele><time>2026-04-24T16:20:50Z</time></trkpt><trkpt lat="44.23505748043656" lon="8.43078853082878"><ele>4.0</ele><time>2026-04-24T16:20:51Z</time></trkpt><trkpt lat="44.23498888384526" lon="8.430655228726103"><ele>4.0</ele><time>2026-04-24T16:20:52Z</time></trkpt><trkpt lat="44.23491670264709" lon="8.43051888192545"><ele>4.0</ele><time>2026-04-24T16:20:53Z</time></trkpt><trkpt lat="44.23485103963635" lon="8.43037994750903"><ele>4.0</ele><time>2026-04-24T16:20:54Z</time></trkpt><trkpt lat="44.23478492936084" lon="8.430253229325656"><ele>4.0</ele><time>2026-04-24T16:20:55Z</time></trkpt><trkpt lat="44.234718180452454" lon="8.430129984911792"><ele>4.0</ele><time>2026-04-24T16:20:56Z</time></trkpt><trkpt lat="44.23464890333338" lon="8.430001559277217"><ele>4.0</ele><time>2026-04-24T16:20:57Z</time></trkpt><trkpt lat="44.2345792046717" lon="8.429874119702646"><ele>4.0</ele><time>2026-04-24T16:20:58Z</time></trkpt><trkpt lat="44.23450846849139" lon="8.429741966500588"><ele>4.0</ele><time>2026-04-24T16:20:59Z</time></trkpt><trkpt lat="44.23443949957095" lon="8.429613880621929"><ele>4.0</ele><time>2026-04-24T16:21:00Z</time></trkpt><trkpt lat="44.234373138449534" lon="8.429493151470353"><ele>4.0</ele><time>2026-04-24T16:21:01Z</time></trkpt><trkpt lat="44.23430542992484" lon="8.429370744298339"><ele>4.0</ele><time>2026-04-24T16:21:02Z</time></trkpt><trkpt lat="44.234235722147" lon="8.429248379613055"><ele>4.0</ele><time>2026-04-24T16:21:03Z</time></trkpt><trkpt lat="44.23416424517741" lon="8.42911989473622"><ele>4.0</ele><time>2026-04-24T16:21:04Z</time></trkpt><trkpt lat="44.23409292384865" lon="8.428992819561163"><ele>4.0</ele><time>2026-04-24T16:21:05Z</time></trkpt><trkpt lat="44.23402532841665" lon="8.42887006425082"><ele>4.0</ele><time>2026-04-24T16:21:06Z</time></trkpt><trkpt lat="44.23395370671798" lon="8.428749263649287"><ele>4.0</ele><time>2026-04-24T16:21:07Z</time></trkpt><trkpt lat="44.23388468556456" lon="8.428630221885903"><ele>4.0</ele><time>2026-04-24T16:21:08Z</time></trkpt><trkpt lat="44.23381925056925" lon="8.42852144725583"><ele>4.0</ele><time>2026-04-24T16:21:09Z</time></trkpt><trkpt lat="44.23375494144153" lon="8.428425953166963"><ele>4.2</ele><time>2026-04-24T16:21:10Z</time></trkpt><trkpt lat="44.233695115781565" lon="8.428339958410398"><ele>4.4</ele><time>2026-04-24T16:21:11Z</time></trkpt><trkpt lat="44.23362157033966" lon="8.42825990020547"><ele>4.6</ele><time>2026-04-24T16:21:12Z</time></trkpt><trkpt lat="44.23354818769629" lon="8.428190845299886"><ele>4.8</ele><time>2026-04-24T16:21:13Z</time></trkpt><trkpt lat="44.23346551038683" lon="8.428127993087536"><ele>5.0</ele><time>2026-04-24T16:21:14Z</time></trkpt><trkpt lat="44.233377121108475" lon="8.428069496245136"><ele>5.0</ele><time>2026-04-24T16:21:15Z</time></trkpt><trkpt lat="44.23328812198046" lon="8.428020588710142"><ele>5.0</ele><time>2026-04-24T16:21:16Z</time></trkpt><trkpt lat="44.233194054543354" lon="8.427972281246825"><ele>5.0</ele><time>2026-04-24T16:21:17Z</time></trkpt><trkpt lat="44.233098507901786" lon="8.427922262701943"><ele>5.0</ele><time>2026-04-24T16:21:18Z</time></trkpt><trkpt lat="44.2330088306756" lon="8.427877813840238"><ele>5.0</ele><time>2026-04-24T16:21:19Z</time></trkpt><trkpt lat="44.232911924195136" lon="8.427830388883478"><ele>5.666666666666667</ele><time>2026-04-24T16:21:20Z</time></trkpt><trkpt lat="44.23282777475062" lon="8.427772521442094"><ele>6.333333333333334</ele><time>2026-04-24T16:21:21Z</time></trkpt><trkpt lat="44.232749892087" lon="8.42771131774153"><ele>7.0</ele><time>2026-04-24T16:21:22Z</time></trkpt><trkpt lat="44.23268119386" lon="8.427638698448705"><ele>7.666666666666667</ele><time>2026-04-24T16:21:23Z</time></trkpt><trkpt lat="44.23262672758207" lon="8.427555987533975"><ele>8.333333333333334</ele><time>2026-04-24T16:21:24Z</time></trkpt><trkpt lat="44.232570779000454" lon="8.427456980363518"><ele>9.0</ele><time>2026-04-24T16:21:25Z</time></trkpt><trkpt lat="44.23251979093576" lon="8.427349907525079"><ele>9.0</ele><time>2026-04-24T16:21:26Z</time></trkpt><trkpt lat="44.23247300227551" lon="8.427229482203861"><ele>9.0</ele><time>2026-04-24T16:21:27Z</time></trkpt><trkpt lat="44.23243462761375" lon="8.42710707785332"><ele>9.0</ele><time>2026-04-24T16:21:28Z</time></trkpt><trkpt lat="44.232397435761015" lon="8.426980811130338"><ele>9.0</ele><time>2026-04-24T16:21:29Z</time></trkpt><trkpt lat="44.23235700665903" lon="8.426849938896805"><ele>9.0</ele><time>2026-04-24T16:21:30Z</time></trkpt><trkpt lat="44.23231815013337" lon="8.426729859883771"><ele>9.2</ele><time>2026-04-24T16:21:31Z</time></trkpt><trkpt lat="44.23227829171801" lon="8.426614199193581"><ele>9.4</ele><time>2026-04-24T16:21:32Z</time></trkpt><trkpt lat="44.232231092203584" lon="8.426494276685762"><ele>9.6</ele><time>2026-04-24T16:21:33Z</time></trkpt><trkpt lat="44.23217700288376" lon="8.426370744414577"><ele>9.8</ele><time>2026-04-24T16:21:34Z</time></trkpt><trkpt lat="44.23212146399516" lon="8.426256119106442"><ele>10.0</ele><time>2026-04-24T16:21:35Z</time></trkpt><trkpt lat="44.232059655834924" lon="8.42614280084557"><ele>10.0</ele><time>2026-04-24T16:21:36Z</time></trkpt><trkpt lat="44.23199404092936" lon="8.426019786853189"><ele>10.0</ele><time>2026-04-24T16:21:37Z</time></trkpt><trkpt lat="44.23192311218566" lon="8.425887855296248"><ele>10.0</ele><time>2026-04-24T16:21:38Z</time></trkpt><trkpt lat="44.23185019878865" lon="8.425751130866917"><ele>10.0</ele><time>2026-04-24T16:21:39Z</time></trkpt><trkpt lat="44.23177893990105" lon="8.425622342645074"><ele>10.0</ele><time>2026-04-24T16:21:40Z</time></trkpt><trkpt lat="44.23170884919093" lon="8.425490182464843"><ele>10.0</ele><time>2026-04-24T16:21:41Z</time></trkpt><trkpt lat="44.23163568211341" lon="8.425359857619918"><ele>10.0</ele><time>2026-04-24T16:21:42Z</time></trkpt><trkpt lat="44.23156782022111" lon="8.42523466021893"><ele>10.0</ele><time>2026-04-24T16:21:43Z</time></trkpt><trkpt lat="44.231496456632144" lon="8.425112736389558"><ele>10.4</ele><time>2026-04-24T16:21:44Z</time></trkpt><trkpt lat="44.231420345820766" lon="8.424989544098976"><ele>10.8</ele><time>2026-04-24T16:21:45Z</time></trkpt><trkpt lat="44.23135308639681" lon="8.424866556317049"><ele>11.2</ele><time>2026-04-24T16:21:46Z</time></trkpt><trkpt lat="44.23128357193245" lon="8.42474970533954"><ele>11.6</ele><time>2026-04-24T16:21:47Z</time></trkpt><trkpt lat="44.23121026820303" lon="8.424632571549548"><ele>12.0</ele><time>2026-04-24T16:21:48Z</time></trkpt><trkpt lat="44.231134692385325" lon="8.424514297353317"><ele>12.5</ele><time>2026-04-24T16:21:49Z</time></trkpt><trkpt lat="44.231041302100365" lon="8.424402363856563"><ele>13.0</ele><time>2026-04-24T16:21:50Z</time></trkpt><trkpt lat="44.23097726054685" lon="8.424276012473594"><ele>13.5</ele><time>2026-04-24T16:21:51Z</time></trkpt><trkpt lat="44.23090523724588" lon="8.424158677987261"><ele>14.0</ele><time>2026-04-24T16:21:52Z</time></trkpt><trkpt lat="44.23082937404204" lon="8.42403971289323"><ele>14.0</ele><time>2026-04-24T16:21:53Z</time></trkpt><trkpt lat="44.23075330728715" lon="8.423920044558429"><ele>14.0</ele><time>2026-04-24T16:21:54Z</time></trkpt><trkpt lat="44.23067488109441" lon="8.423793626476348"><ele>14.0</ele><time>2026-04-24T16:21:55Z</time></trkpt><trkpt lat="44.230600977340046" lon="8.423668963061456"><ele>14.0</ele><time>2026-04-24T16:21:56Z</time></trkpt><trkpt lat="44.23052568211905" lon="8.423552508904486"><ele>13.6</ele><time>2026-04-24T16:21:57Z</time></trkpt><trkpt lat="44.230452744279646" lon="8.423434335473637"><ele>13.2</ele><time>2026-04-24T16:21:58Z</time></trkpt><trkpt lat="44.23038437771398" lon="8.42332131091683"><ele>12.799999999999999</ele><time>2026-04-24T16:21:59Z</time></trkpt><trkpt lat="44.23031613185222" lon="8.423204416840425"><ele>12.399999999999999</ele><time>2026-04-24T16:22:00Z</time></trkpt><trkpt lat="44.23025475452316" lon="8.423088321951035"><ele>12.0</ele><time>2026-04-24T16:22:01Z</time></trkpt><trkpt lat="44.23018943416223" lon="8.422966283228527"><ele>12.0</ele><time>2026-04-24T16:22:02Z</time></trkpt><trkpt lat="44.23012265087903" lon="8.422838912379492"><ele>12.0</ele><time>2026-04-24T16:22:03Z</time></trkpt><trkpt lat="44.230053231880504" lon="8.422712304559424"><ele>12.0</ele><time>2026-04-24T16:22:04Z</time></trkpt><trkpt lat="44.22998672751049" lon="8.42259279626811"><ele>12.0</ele><time>2026-04-24T16:22:05Z</time></trkpt><trkpt lat="44.2299074070523" lon="8.422463167070322"><ele>12.0</ele><time>2026-04-24T16:22:06Z</time></trkpt><trkpt lat="44.22983643161878" lon="8.422347438913256"><ele>12.0</ele><time>2026-04-24T16:22:07Z</time></trkpt><trkpt lat="44.22976271134569" lon="8.4222314987141"><ele>12.0</ele><time>2026-04-24T16:22:08Z</time></trkpt><trkpt lat="44.22968277071114" lon="8.422101703817074"><ele>12.0</ele><time>2026-04-24T16:22:09Z</time></trkpt><trkpt lat="44.229603290983285" lon="8.42197323397579"><ele>11.75</ele><time>2026-04-24T16:22:10Z</time></trkpt><trkpt lat="44.22952110194455" lon="8.42185853957508"><ele>11.5</ele><time>2026-04-24T16:22:11Z</time></trkpt><trkpt lat="44.229435741782325" lon="8.421740670624013"><ele>11.25</ele><time>2026-04-24T16:22:12Z</time></trkpt><trkpt lat="44.22935032445561" lon="8.421614607079556"><ele>11.0</ele><time>2026-04-24T16:22:13Z</time></trkpt><trkpt lat="44.22926676955283" lon="8.421486866638853"><ele>11.0</ele><time>2026-04-24T16:22:14Z</time></trkpt><trkpt lat="44.2291870952971" lon="8.421359295151861"><ele>11.0</ele><time>2026-04-24T16:22:15Z</time></trkpt><trkpt lat="44.229106890847916" lon="8.421220823279551"><ele>11.0</ele><time>2026-04-24T16:22:16Z</time></trkpt><trkpt lat="44.22902914837617" lon="8.421072734874961"><ele>11.0</ele><time>2026-04-24T16:22:17Z</time></trkpt><trkpt lat="44.22896336148192" lon="8.420932261714006"><ele>10.0</ele><time>2026-04-24T16:22:18Z</time></trkpt><trkpt lat="44.22889776526661" lon="8.420788408954529"><ele>9.0</ele><time>2026-04-24T16:22:19Z</time></trkpt><trkpt lat="44.2288431388679" lon="8.420636871908915"><ele>8.0</ele><time>2026-04-24T16:22:20Z</time></trkpt><trkpt lat="44.22879222715911" lon="8.42050318592012"><ele>7.0</ele><time>2026-04-24T16:22:21Z</time></trkpt><trkpt lat="44.228752191838794" lon="8.420365655980774"><ele>7.0</ele><time>2026-04-24T16:22:22Z</time></trkpt><trkpt lat="44.22870679968424" lon="8.420226256651556"><ele>6.999999999999999</ele><time>2026-04-24T16:22:23Z</time></trkpt><trkpt lat="44.22866204007064" lon="8.420086147934535"><ele>6.999999999999999</ele><time>2026-04-24T16:22:24Z</time></trkpt><trkpt lat="44.22861788431658" lon="8.41994559328116"><ele>7.0</ele><time>2026-04-24T16:22:25Z</time></trkpt><trkpt lat="44.22857527064178" lon="8.419805506283558"><ele>7.0</ele><time>2026-04-24T16:22:26Z</time></trkpt><trkpt lat="44.22853365987092" lon="8.419659503038256"><ele>7.3999999999999995</ele><time>2026-04-24T16:22:27Z</time></trkpt><trkpt lat="44.22849502001843" lon="8.419517381134497"><ele>7.799999999999999</ele><time>2026-04-24T16:22:28Z</time></trkpt><trkpt lat="44.22846241777092" lon="8.419379474280312"><ele>8.2</ele><time>2026-04-24T16:22:29Z</time></trkpt><trkpt lat="44.22843029107911" lon="8.419246180459222"><ele>8.6</ele><time>2026-04-24T16:22:30Z</time></trkpt><trkpt lat="44.22839461226033" lon="8.419099101006974"><ele>9.0</ele><time>2026-04-24T16:22:31Z</time></trkpt><trkpt lat="44.228364616103676" lon="8.418957067666838"><ele>9.2</ele><time>2026-04-24T16:22:32Z</time></trkpt><trkpt lat="44.2283297348827" lon="8.418811471796037"><ele>9.4</ele><time>2026-04-24T16:22:33Z</time></trkpt><trkpt lat="44.22830320372212" lon="8.418655529068937"><ele>9.6</ele><time>2026-04-24T16:22:34Z</time></trkpt><trkpt lat="44.228263066959705" lon="8.4185252002388"><ele>9.8</ele><time>2026-04-24T16:22:35Z</time></trkpt><trkpt lat="44.22821440855979" lon="8.418393950142622"><ele>10.0</ele><time>2026-04-24T16:22:36Z</time></trkpt><trkpt lat="44.228158869635614" lon="8.418266053993582"><ele>9.6</ele><time>2026-04-24T16:22:37Z</time></trkpt><trkpt lat="44.2280946205818" lon="8.418167713652684"><ele>9.2</ele><time>2026-04-24T16:22:38Z</time></trkpt><trkpt lat="44.22805097609617" lon="8.418057405253542"><ele>8.8</ele><time>2026-04-24T16:22:39Z</time></trkpt><trkpt lat="44.22799580109357" lon="8.417953173314851"><ele>8.4</ele><time>2026-04-24T16:22:40Z</time></trkpt><trkpt lat="44.22793408436114" lon="8.417848284132042"><ele>8.0</ele><time>2026-04-24T16:22:41Z</time></trkpt><trkpt lat="44.22788007763728" lon="8.417748862669251"><ele>7.7142857142857135</ele><time>2026-04-24T16:22:42Z</time></trkpt><trkpt lat="44.227834787485236" lon="8.417662972793465"><ele>7.428571428571428</ele><time>2026-04-24T16:22:43Z</time></trkpt><trkpt lat="44.227788370791494" lon="8.417580847622528"><ele>7.142857142857142</ele><time>2026-04-24T16:22:44Z</time></trkpt><trkpt lat="44.227744609385006" lon="8.417503657019719"><ele>6.857142857142857</ele><time>2026-04-24T16:22:45Z</time></trkpt><trkpt lat="44.227691024967456" lon="8.417418642163568"><ele>6.571428571428571</ele><time>2026-04-24T16:22:46Z</time></trkpt><trkpt lat="44.22763888166182" lon="8.417349511551679"><ele>6.285714285714285</ele><time>2026-04-24T16:22:47Z</time></trkpt><trkpt lat="44.22758548057942" lon="8.417283440167436"><ele>6.0</ele><time>2026-04-24T16:22:48Z</time></trkpt><trkpt lat="44.227533613788964" lon="8.417214024067336"><ele>6.0</ele><time>2026-04-24T16:22:49Z</time></trkpt><trkpt lat="44.22748425782101" lon="8.417145967053859"><ele>6.0</ele><time>2026-04-24T16:22:50Z</time></trkpt><trkpt lat="44.227430195160096" lon="8.417075130308065"><ele>6.0</ele><time>2026-04-24T16:22:51Z</time></trkpt><trkpt lat="44.22737853750509" lon="8.417008372178817"><ele>6.0</ele><time>2026-04-24T16:22:52Z</time></trkpt><trkpt lat="44.227273871642325" lon="8.416883157332276"><ele>6.0</ele><time>2026-04-24T16:22:54Z</time></trkpt><trkpt lat="44.22721882792821" lon="8.41679222891677"><ele>6.0</ele><time>2026-04-24T16:22:55Z</time></trkpt><trkpt lat="44.227134857732" lon="8.416727039158838"><ele>6.0</ele><time>2026-04-24T16:22:56Z</time></trkpt><trkpt lat="44.227065873537605" lon="8.416623173724263"><ele>6.0</ele><time>2026-04-24T16:22:57Z</time></trkpt><trkpt lat="44.22698092396445" lon="8.416531579312208"><ele>6.0</ele><time>2026-04-24T16:22:58Z</time></trkpt><trkpt lat="44.226893573823006" lon="8.416441562395336"><ele>6.0</ele><time>2026-04-24T16:22:59Z</time></trkpt><trkpt lat="44.226800191495556" lon="8.416354493714922"><ele>6.0</ele><time>2026-04-24T16:23:00Z</time></trkpt><trkpt lat="44.22669579368914" lon="8.416286005458076"><ele>6.0</ele><time>2026-04-24T16:23:01Z</time></trkpt><trkpt lat="44.22660184546368" lon="8.416198357175443"><ele>6.0</ele><time>2026-04-24T16:23:02Z</time></trkpt><trkpt lat="44.22650824336113" lon="8.416111643483177"><ele>6.0</ele><time>2026-04-24T16:23:03Z</time></trkpt><trkpt lat="44.22641174188585" lon="8.416025683804978"><ele>6.0</ele><time>2026-04-24T16:23:04Z</time></trkpt><trkpt lat="44.226312934057276" lon="8.415936993774661"><ele>6.0</ele><time>2026-04-24T16:23:05Z</time></trkpt><trkpt lat="44.226215504835324" lon="8.415852238852223"><ele>6.0</ele><time>2026-04-24T16:23:06Z</time></trkpt><trkpt lat="44.22611329923645" lon="8.415765600271548"><ele>6.0</ele><time>2026-04-24T16:23:07Z</time></trkpt><trkpt lat="44.2260189461059" lon="8.41568413914418"><ele>6.0</ele><time>2026-04-24T16:23:08Z</time></trkpt><trkpt lat="44.22591871236727" lon="8.41559862575522"><ele>6.0</ele><time>2026-04-24T16:23:09Z</time></trkpt><trkpt lat="44.225817697014946" lon="8.415512149919058"><ele>6.0</ele><time>2026-04-24T16:23:10Z</time></trkpt><trkpt lat="44.22572241880648" lon="8.415431513491987"><ele>6.0</ele><time>2026-04-24T16:23:11Z</time></trkpt><trkpt lat="44.22562731034162" lon="8.41535152563874"><ele>6.0</ele><time>2026-04-24T16:23:12Z</time></trkpt><trkpt lat="44.225535032912084" lon="8.415272084052642"><ele>6.0</ele><time>2026-04-24T16:23:13Z</time></trkpt><trkpt lat="44.22543407098702" lon="8.415189786676711"><ele>5.8</ele><time>2026-04-24T16:23:14Z</time></trkpt><trkpt lat="44.22534142078231" lon="8.415111971007933"><ele>5.6</ele><time>2026-04-24T16:23:15Z</time></trkpt><trkpt lat="44.22524392237235" lon="8.41503644201999"><ele>5.4</ele><time>2026-04-24T16:23:16Z</time></trkpt><trkpt lat="44.22514326801004" lon="8.41496323031616"><ele>5.2</ele><time>2026-04-24T16:23:17Z</time></trkpt><trkpt lat="44.225046217376594" lon="8.414895707181936"><ele>5.0</ele><time>2026-04-24T16:23:18Z</time></trkpt><trkpt lat="44.22494337647817" lon="8.414832759602875"><ele>5.0</ele><time>2026-04-24T16:23:19Z</time></trkpt><trkpt lat="44.224842237699406" lon="8.414771696984484"><ele>5.0</ele><time>2026-04-24T16:23:20Z</time></trkpt><trkpt lat="44.2247431584288" lon="8.414713244124263"><ele>5.0</ele><time>2026-04-24T16:23:21Z</time></trkpt><trkpt lat="44.22463722078603" lon="8.414657618047643"><ele>5.0</ele><time>2026-04-24T16:23:22Z</time></trkpt><trkpt lat="44.22453517845814" lon="8.414608415615188"><ele>5.0</ele><time>2026-04-24T16:23:23Z</time></trkpt><trkpt lat="44.224430321022226" lon="8.414565362373054"><ele>4.8</ele><time>2026-04-24T16:23:24Z</time></trkpt><trkpt lat="44.224321967508125" lon="8.41452217785421"><ele>4.6</ele><time>2026-04-24T16:23:25Z</time></trkpt><trkpt lat="44.224214136069115" lon="8.414484523369913"><ele>4.4</ele><time>2026-04-24T16:23:26Z</time></trkpt><trkpt lat="44.22410543726513" lon="8.414449450361786"><ele>4.2</ele><time>2026-04-24T16:23:27Z</time></trkpt><trkpt lat="44.223995451510966" lon="8.41441657768822"><ele>4.0</ele><time>2026-04-24T16:23:28Z</time></trkpt><trkpt lat="44.22389235337199" lon="8.414384989561059"><ele>3.8000000000000003</ele><time>2026-04-24T16:23:29Z</time></trkpt><trkpt lat="44.22378186194238" lon="8.414358298102432"><ele>3.6000000000000005</ele><time>2026-04-24T16:23:30Z</time></trkpt><trkpt lat="44.22367711667599" lon="8.414336778917574"><ele>3.4</ele><time>2026-04-24T16:23:31Z</time></trkpt><trkpt lat="44.22357221699826" lon="8.41431726252276"><ele>3.2</ele><time>2026-04-24T16:23:32Z</time></trkpt><trkpt lat="44.22346020489699" lon="8.41430235333609"><ele>3.0</ele><time>2026-04-24T16:23:33Z</time></trkpt><trkpt lat="44.22334880537157" lon="8.414285602035198"><ele>3.0</ele><time>2026-04-24T16:23:34Z</time></trkpt><trkpt lat="44.223238539563425" lon="8.414275911765912"><ele>3.0</ele><time>2026-04-24T16:23:35Z</time></trkpt><trkpt lat="44.223135952616566" lon="8.414264995660526"><ele>3.0</ele><time>2026-04-24T16:23:36Z</time></trkpt><trkpt lat="44.223027769773516" lon="8.414263897695362"><ele>3.0</ele><time>2026-04-24T16:23:37Z</time></trkpt><trkpt lat="44.22292344337612" lon="8.414261135778231"><ele>3.0</ele><time>2026-04-24T16:23:38Z</time></trkpt><trkpt lat="44.22281464531377" lon="8.414266028289957"><ele>3.2</ele><time>2026-04-24T16:23:39Z</time></trkpt><trkpt lat="44.222704227449626" lon="8.414272621300059"><ele>3.4</ele><time>2026-04-24T16:23:40Z</time></trkpt><trkpt lat="44.22259122853331" lon="8.414283036952943"><ele>3.6000000000000005</ele><time>2026-04-24T16:23:41Z</time></trkpt><trkpt lat="44.22248087820001" lon="8.414294454629907"><ele>3.8000000000000003</ele><time>2026-04-24T16:23:42Z</time></trkpt><trkpt lat="44.22237207299585" lon="8.414303282554048"><ele>4.0</ele><time>2026-04-24T16:23:43Z</time></trkpt><trkpt lat="44.22226127504921" lon="8.414314762553538"><ele>4.0</ele><time>2026-04-24T16:23:44Z</time></trkpt><trkpt lat="44.22214846125007" lon="8.414329528572567"><ele>4.0</ele><time>2026-04-24T16:23:45Z</time></trkpt><trkpt lat="44.222036479901995" lon="8.414340041045389"><ele>4.0</ele><time>2026-04-24T16:23:46Z</time></trkpt><trkpt lat="44.22193257984013" lon="8.414346192904745"><ele>4.0</ele><time>2026-04-24T16:23:47Z</time></trkpt><trkpt lat="44.221827998625" lon="8.414354596021607"><ele>4.0</ele><time>2026-04-24T16:23:48Z</time></trkpt><trkpt lat="44.221716735380696" lon="8.414367259102391"><ele>4.0</ele><time>2026-04-24T16:23:49Z</time></trkpt><trkpt lat="44.22160524142757" lon="8.414376088567415"><ele>4.0</ele><time>2026-04-24T16:23:50Z</time></trkpt><trkpt lat="44.22149380208114" lon="8.414385851859931"><ele>4.0</ele><time>2026-04-24T16:23:51Z</time></trkpt><trkpt lat="44.22138257330384" lon="8.414395126165202"><ele>4.0</ele><time>2026-04-24T16:23:52Z</time></trkpt><trkpt lat="44.22127406938971" lon="8.414402984594163"><ele>4.0</ele><time>2026-04-24T16:23:53Z</time></trkpt><trkpt lat="44.22116351781181" lon="8.414411184205267"><ele>4.2</ele><time>2026-04-24T16:23:54Z</time></trkpt><trkpt lat="44.22105116229489" lon="8.414419709827245"><ele>4.4</ele><time>2026-04-24T16:23:55Z</time></trkpt><trkpt lat="44.220943855222096" lon="8.414427971257957"><ele>4.6</ele><time>2026-04-24T16:23:56Z</time></trkpt><trkpt lat="44.220830575977956" lon="8.414440220205158"><ele>4.8</ele><time>2026-04-24T16:23:57Z</time></trkpt><trkpt lat="44.22072139540668" lon="8.414455119448679"><ele>5.0</ele><time>2026-04-24T16:23:58Z</time></trkpt><trkpt lat="44.220619166949135" lon="8.41446488870631"><ele>6.166666666666667</ele><time>2026-04-24T16:23:59Z</time></trkpt><trkpt lat="44.22052655976001" lon="8.414471423016122"><ele>7.333333333333334</ele><time>2026-04-24T16:24:00Z</time></trkpt><trkpt lat="44.22043610295644" lon="8.414481339154023"><ele>8.5</ele><time>2026-04-24T16:24:01Z</time></trkpt><trkpt lat="44.22035756713435" lon="8.41448925263296"><ele>9.666666666666666</ele><time>2026-04-24T16:24:02Z</time></trkpt><trkpt lat="44.220277925320765" lon="8.414498749228784"><ele>10.833333333333334</ele><time>2026-04-24T16:24:03Z</time></trkpt><trkpt lat="44.22020418510211" lon="8.414506143767662"><ele>12.0</ele><time>2026-04-24T16:24:04Z</time></trkpt><trkpt lat="44.22013535369426" lon="8.414510822961399"><ele>12.0</ele><time>2026-04-24T16:24:05Z</time></trkpt><trkpt lat="44.22006483196121" lon="8.41450701423741"><ele>12.0</ele><time>2026-04-24T16:24:06Z</time></trkpt><trkpt lat="44.21999350503775" lon="8.414495596844437"><ele>12.0</ele><time>2026-04-24T16:24:07Z</time></trkpt><trkpt lat="44.21992098482532" lon="8.414487183620745"><ele>12.0</ele><time>2026-04-24T16:24:08Z</time></trkpt><trkpt lat="44.2198097157173" lon="8.414501170098927"><ele>12.0</ele><time>2026-04-24T16:24:10Z</time></trkpt><trkpt lat="44.219701687704756" lon="8.41458719080219"><ele>12.333333333333334</ele><time>2026-04-24T16:24:12Z</time></trkpt><trkpt lat="44.21964611688902" lon="8.414645641192287"><ele>12.666666666666668</ele><time>2026-04-24T16:24:13Z</time></trkpt><trkpt lat="44.21959325891548" lon="8.414700525711739"><ele>13.0</ele><time>2026-04-24T16:24:14Z</time></trkpt><trkpt lat="44.219479363885526" lon="8.41474133429779"><ele>13.333333333333334</ele><time>2026-04-24T16:24:16Z</time></trkpt><trkpt lat="44.21941310984933" lon="8.414738586000432"><ele>13.666666666666668</ele><time>2026-04-24T16:24:17Z</time></trkpt><trkpt lat="44.219333231096805" lon="8.414729729603367"><ele>14.0</ele><time>2026-04-24T16:24:18Z</time></trkpt><trkpt lat="44.219243076628594" lon="8.414719200639647"><ele>12.0</ele><time>2026-04-24T16:24:19Z</time></trkpt><trkpt lat="44.219151817400025" lon="8.414704550269896"><ele>9.999999999999998</ele><time>2026-04-24T16:24:20Z</time></trkpt><trkpt lat="44.219051497827095" lon="8.414698558566974"><ele>8.0</ele><time>2026-04-24T16:24:21Z</time></trkpt><trkpt lat="44.21894358710415" lon="8.414701488686552"><ele>6.0</ele><time>2026-04-24T16:24:22Z</time></trkpt><trkpt lat="44.21883380507551" lon="8.414709042959673"><ele>4.0</ele><time>2026-04-24T16:24:23Z</time></trkpt><trkpt lat="44.21872473685236" lon="8.414718897910953"><ele>3.8000000000000003</ele><time>2026-04-24T16:24:24Z</time></trkpt><trkpt lat="44.218617822902964" lon="8.41473147792808"><ele>3.6000000000000005</ele><time>2026-04-24T16:24:25Z</time></trkpt><trkpt lat="44.218506974077734" lon="8.414747353041179"><ele>3.4</ele><time>2026-04-24T16:24:26Z</time></trkpt><trkpt lat="44.218395132720474" lon="8.414758420244128"><ele>3.2</ele><time>2026-04-24T16:24:27Z</time></trkpt><trkpt lat="44.21828950186451" lon="8.41477176791951"><ele>3.0</ele><time>2026-04-24T16:24:28Z</time></trkpt><trkpt lat="44.21818030885813" lon="8.41478643547409"><ele>3.75</ele><time>2026-04-24T16:24:29Z</time></trkpt><trkpt lat="44.21806671203617" lon="8.414803587435637"><ele>4.5</ele><time>2026-04-24T16:24:30Z</time></trkpt><trkpt lat="44.21795585846672" lon="8.414817971016225"><ele>5.25</ele><time>2026-04-24T16:24:31Z</time></trkpt><trkpt lat="44.217846106759566" lon="8.414836202672461"><ele>6.0</ele><time>2026-04-24T16:24:32Z</time></trkpt><trkpt lat="44.21773228287106" lon="8.41485678483093"><ele>6.0</ele><time>2026-04-24T16:24:33Z</time></trkpt><trkpt lat="44.21761185547504" lon="8.414876260609821"><ele>6.0</ele><time>2026-04-24T16:24:34Z</time></trkpt><trkpt lat="44.21750680338551" lon="8.414895816858916"><ele>6.0</ele><time>2026-04-24T16:24:35Z</time></trkpt><trkpt lat="44.21739688680399" lon="8.414917743191847"><ele>6.0</ele><time>2026-04-24T16:24:36Z</time></trkpt><trkpt lat="44.21728874738776" lon="8.414941559725497"><ele>6.0</ele><time>2026-04-24T16:24:37Z</time></trkpt><trkpt lat="44.21717967371617" lon="8.414964827599256"><ele>8.0</ele><time>2026-04-24T16:24:38Z</time></trkpt><trkpt lat="44.217067670575105" lon="8.414993754654372"><ele>10.0</ele><time>2026-04-24T16:24:39Z</time></trkpt><trkpt lat="44.21695646542489" lon="8.41502246397842"><ele>12.0</ele><time>2026-04-24T16:24:40Z</time></trkpt><trkpt lat="44.21684948351209" lon="8.41505005947358"><ele>14.0</ele><time>2026-04-24T16:24:41Z</time></trkpt><trkpt lat="44.21673573042176" lon="8.415083351400558"><ele>14.0</ele><time>2026-04-24T16:24:42Z</time></trkpt><trkpt lat="44.2166278830264" lon="8.415112366889504"><ele>13.999999999999998</ele><time>2026-04-24T16:24:43Z</time></trkpt><trkpt lat="44.216520673501876" lon="8.415147198710308"><ele>13.999999999999998</ele><time>2026-04-24T16:24:44Z</time></trkpt><trkpt lat="44.216409944044464" lon="8.415182458892726"><ele>14.0</ele><time>2026-04-24T16:24:45Z</time></trkpt><trkpt lat="44.21630297619426" lon="8.415222197684479"><ele>14.0</ele><time>2026-04-24T16:24:46Z</time></trkpt><trkpt lat="44.21619721200725" lon="8.415263909248276"><ele>12.399999999999999</ele><time>2026-04-24T16:24:47Z</time></trkpt><trkpt lat="44.216090673093575" lon="8.415311574899736"><ele>10.799999999999999</ele><time>2026-04-24T16:24:48Z</time></trkpt><trkpt lat="44.215987031303456" lon="8.415363321719122"><ele>9.2</ele><time>2026-04-24T16:24:49Z</time></trkpt><trkpt lat="44.215883413838526" lon="8.415421002712703"><ele>7.6</ele><time>2026-04-24T16:24:50Z</time></trkpt><trkpt lat="44.215777663461914" lon="8.415487008972953"><ele>6.0</ele><time>2026-04-24T16:24:51Z</time></trkpt><trkpt lat="44.2156782677822" lon="8.415552485125225"><ele>9.25</ele><time>2026-04-24T16:24:52Z</time></trkpt><trkpt lat="44.215576408059256" lon="8.415625561811021"><ele>12.5</ele><time>2026-04-24T16:24:53Z</time></trkpt><trkpt lat="44.215472499939175" lon="8.415699081480753"><ele>15.75</ele><time>2026-04-24T16:24:54Z</time></trkpt><trkpt lat="44.21536755852406" lon="8.415772977152175"><ele>19.0</ele><time>2026-04-24T16:24:55Z</time></trkpt><trkpt lat="44.21527043830961" lon="8.4158504202877"><ele>19.0</ele><time>2026-04-24T16:24:56Z</time></trkpt><trkpt lat="44.21517081033813" lon="8.415932879481234"><ele>19.0</ele><time>2026-04-24T16:24:57Z</time></trkpt><trkpt lat="44.21506936605872" lon="8.416010324598115"><ele>19.0</ele><time>2026-04-24T16:24:58Z</time></trkpt><trkpt lat="44.214964680576635" lon="8.416088566273757"><ele>19.0</ele><time>2026-04-24T16:24:59Z</time></trkpt><trkpt lat="44.21485763712349" lon="8.416164817586909"><ele>17.0</ele><time>2026-04-24T16:25:00Z</time></trkpt><trkpt lat="44.21475403884153" lon="8.416226766598177"><ele>15.0</ele><time>2026-04-24T16:25:01Z</time></trkpt><trkpt lat="44.21464600568696" lon="8.41628120865736"><ele>13.0</ele><time>2026-04-24T16:25:02Z</time></trkpt><trkpt lat="44.21453830488713" lon="8.416324096712906"><ele>11.0</ele><time>2026-04-24T16:25:03Z</time></trkpt><trkpt lat="44.21443030698871" lon="8.416359522173662"><ele>11.0</ele><time>2026-04-24T16:25:04Z</time></trkpt><trkpt lat="44.21431720371816" lon="8.416390155169893"><ele>11.0</ele><time>2026-04-24T16:25:05Z</time></trkpt><trkpt lat="44.214203785114975" lon="8.416416130762608"><ele>11.0</ele><time>2026-04-24T16:25:06Z</time></trkpt><trkpt lat="44.214092461507356" lon="8.41644145659749"><ele>11.0</ele><time>2026-04-24T16:25:07Z</time></trkpt><trkpt lat="44.21398329661059" lon="8.416463077359154"><ele>12.0</ele><time>2026-04-24T16:25:08Z</time></trkpt><trkpt lat="44.21387506955339" lon="8.416484841455215"><ele>13.0</ele><time>2026-04-24T16:25:09Z</time></trkpt><trkpt lat="44.21376222187876" lon="8.416507599893732"><ele>14.0</ele><time>2026-04-24T16:25:10Z</time></trkpt><trkpt lat="44.213647132291925" lon="8.416531964348698"><ele>15.0</ele><time>2026-04-24T16:25:11Z</time></trkpt><trkpt lat="44.21353102647559" lon="8.416554506135663"><ele>15.0</ele><time>2026-04-24T16:25:12Z</time></trkpt><trkpt lat="44.213420755017026" lon="8.41657290762503"><ele>15.0</ele><time>2026-04-24T16:25:13Z</time></trkpt><trkpt lat="44.213306593513316" lon="8.416594151524519"><ele>15.0</ele><time>2026-04-24T16:25:14Z</time></trkpt><trkpt lat="44.213200584811545" lon="8.416612390199221"><ele>15.0</ele><time>2026-04-24T16:25:15Z</time></trkpt><trkpt lat="44.21309166219309" lon="8.416631580745948"><ele>15.0</ele><time>2026-04-24T16:25:16Z</time></trkpt><trkpt lat="44.21298625922938" lon="8.41664718192722"><ele>15.0</ele><time>2026-04-24T16:25:17Z</time></trkpt><trkpt lat="44.21287804693277" lon="8.416664134706497"><ele>15.0</ele><time>2026-04-24T16:25:18Z</time></trkpt><trkpt lat="44.21277324176563" lon="8.41668529687276"><ele>15.0</ele><time>2026-04-24T16:25:19Z</time></trkpt><trkpt lat="44.212670717992836" lon="8.416717841348442"><ele>15.0</ele><time>2026-04-24T16:25:20Z</time></trkpt><trkpt lat="44.212578057236406" lon="8.416754993183893"><ele>15.0</ele><time>2026-04-24T16:25:21Z</time></trkpt><trkpt lat="44.21248364605474" lon="8.416809045831164"><ele>15.0</ele><time>2026-04-24T16:25:22Z</time></trkpt><trkpt lat="44.21239096998104" lon="8.416873602628284"><ele>15.0</ele><time>2026-04-24T16:25:23Z</time></trkpt><trkpt lat="44.212304742512245" lon="8.416945158143093"><ele>15.0</ele><time>2026-04-24T16:25:24Z</time></trkpt><trkpt lat="44.21221936762965" lon="8.417023638020815"><ele>15.0</ele><time>2026-04-24T16:25:25Z</time></trkpt><trkpt lat="44.21213608903426" lon="8.417117024545353"><ele>15.0</ele><time>2026-04-24T16:25:26Z</time></trkpt><trkpt lat="44.21204849933561" lon="8.417216975611918"><ele>15.6</ele><time>2026-04-24T16:25:27Z</time></trkpt><trkpt lat="44.21196369943385" lon="8.417312068180895"><ele>16.2</ele><time>2026-04-24T16:25:28Z</time></trkpt><trkpt lat="44.211877786475426" lon="8.417406833986005"><ele>16.8</ele><time>2026-04-24T16:25:29Z</time></trkpt><trkpt lat="44.21179286734319" lon="8.417504306159863"><ele>17.4</ele><time>2026-04-24T16:25:30Z</time></trkpt><trkpt lat="44.21171021883094" lon="8.417595980693054"><ele>18.0</ele><time>2026-04-24T16:25:31Z</time></trkpt><trkpt lat="44.21162416845082" lon="8.417688110319203"><ele>18.0</ele><time>2026-04-24T16:25:32Z</time></trkpt><trkpt lat="44.21153652709181" lon="8.417776871185435"><ele>18.0</ele><time>2026-04-24T16:25:33Z</time></trkpt><trkpt lat="44.21144835137333" lon="8.417854201088282"><ele>18.0</ele><time>2026-04-24T16:25:34Z</time></trkpt><trkpt lat="44.211360698627566" lon="8.417913852246146"><ele>18.0</ele><time>2026-04-24T16:25:35Z</time></trkpt><trkpt lat="44.211273026645955" lon="8.41795721701144"><ele>18.0</ele><time>2026-04-24T16:25:36Z</time></trkpt><trkpt lat="44.21118753696744" lon="8.417979438408402"><ele>19.6</ele><time>2026-04-24T16:25:37Z</time></trkpt><trkpt lat="44.21109952407272" lon="8.4179833578502"><ele>21.200000000000003</ele><time>2026-04-24T16:25:38Z</time></trkpt><trkpt lat="44.21100802599556" lon="8.41797474897119"><ele>22.8</ele><time>2026-04-24T16:25:39Z</time></trkpt><trkpt lat="44.21091250936745" lon="8.41795548554796"><ele>24.400000000000002</ele><time>2026-04-24T16:25:40Z</time></trkpt><trkpt lat="44.21081084961883" lon="8.417923435672336"><ele>26.0</ele><time>2026-04-24T16:25:41Z</time></trkpt><trkpt lat="44.21071587915594" lon="8.41788126997332"><ele>23.8</ele><time>2026-04-24T16:25:42Z</time></trkpt><trkpt lat="44.21061579877459" lon="8.417838607312992"><ele>21.6</ele><time>2026-04-24T16:25:43Z</time></trkpt><trkpt lat="44.21051055511262" lon="8.417791298452043"><ele>19.4</ele><time>2026-04-24T16:25:44Z</time></trkpt><trkpt lat="44.21040407150685" lon="8.417744775685033"><ele>17.2</ele><time>2026-04-24T16:25:45Z</time></trkpt><trkpt lat="44.21029735552167" lon="8.417696429826455"><ele>15.0</ele><time>2026-04-24T16:25:46Z</time></trkpt><trkpt lat="44.21020023402019" lon="8.417650739414436"><ele>15.0</ele><time>2026-04-24T16:25:47Z</time></trkpt><trkpt lat="44.21009631482357" lon="8.417609089247538"><ele>15.0</ele><time>2026-04-24T16:25:48Z</time></trkpt><trkpt lat="44.20999063057139" lon="8.417573310590766"><ele>15.0</ele><time>2026-04-24T16:25:49Z</time></trkpt><trkpt lat="44.20988245372193" lon="8.417543324666063"><ele>15.0</ele><time>2026-04-24T16:25:50Z</time></trkpt><trkpt lat="44.20978042965174" lon="8.417519978709988"><ele>15.0</ele><time>2026-04-24T16:25:51Z</time></trkpt><trkpt lat="44.20967143214546" lon="8.417511288112047"><ele>14.8</ele><time>2026-04-24T16:25:52Z</time></trkpt><trkpt lat="44.209563914692176" lon="8.4175035335505"><ele>14.6</ele><time>2026-04-24T16:25:53Z</time></trkpt><trkpt lat="44.20945433258934" lon="8.417496867318185"><ele>14.399999999999999</ele><time>2026-04-24T16:25:54Z</time></trkpt><trkpt lat="44.209339931026086" lon="8.417491812326142"><ele>14.2</ele><time>2026-04-24T16:25:55Z</time></trkpt><trkpt lat="44.20922414831542" lon="8.4174889800758"><ele>14.0</ele><time>2026-04-24T16:25:56Z</time></trkpt><trkpt lat="44.20911033522033" lon="8.417488361866207"><ele>14.0</ele><time>2026-04-24T16:25:57Z</time></trkpt><trkpt lat="44.20900113511057" lon="8.417484346471978"><ele>14.0</ele><time>2026-04-24T16:25:58Z</time></trkpt><trkpt lat="44.2088848993782" lon="8.41748257313394"><ele>14.0</ele><time>2026-04-24T16:25:59Z</time></trkpt><trkpt lat="44.208774169757525" lon="8.417481865694363"><ele>14.0</ele><time>2026-04-24T16:26:00Z</time></trkpt><trkpt lat="44.20866029893593" lon="8.417483484465428"><ele>14.799999999999999</ele><time>2026-04-24T16:26:01Z</time></trkpt><trkpt lat="44.20854922243431" lon="8.41746571336744"><ele>15.599999999999998</ele><time>2026-04-24T16:26:02Z</time></trkpt><trkpt lat="44.20843785280955" lon="8.417464020784914"><ele>16.4</ele><time>2026-04-24T16:26:03Z</time></trkpt><trkpt lat="44.208325808385496" lon="8.417474584797505"><ele>17.2</ele><time>2026-04-24T16:26:04Z</time></trkpt><trkpt lat="44.208213147631824" lon="8.417495553452692"><ele>18.0</ele><time>2026-04-24T16:26:05Z</time></trkpt><trkpt lat="44.20810072123231" lon="8.417518620130856"><ele>18.0</ele><time>2026-04-24T16:26:06Z</time></trkpt><trkpt lat="44.20799267016861" lon="8.41755943506022"><ele>18.0</ele><time>2026-04-24T16:26:07Z</time></trkpt><trkpt lat="44.20788109437281" lon="8.417546952735103"><ele>18.0</ele><time>2026-04-24T16:26:08Z</time></trkpt><trkpt lat="44.20777730102916" lon="8.417543038738575"><ele>18.0</ele><time>2026-04-24T16:26:09Z</time></trkpt><trkpt lat="44.207680138950316" lon="8.417532309485637"><ele>18.0</ele><time>2026-04-24T16:26:10Z</time></trkpt><trkpt lat="44.207584443483455" lon="8.417504670566945"><ele>18.0</ele><time>2026-04-24T16:26:11Z</time></trkpt><trkpt lat="44.20749711997526" lon="8.417475102253864"><ele>18.0</ele><time>2026-04-24T16:26:12Z</time></trkpt><trkpt lat="44.20740401969116" lon="8.417433112655146"><ele>18.0</ele><time>2026-04-24T16:26:13Z</time></trkpt><trkpt lat="44.20731140507979" lon="8.417378720628136"><ele>18.0</ele><time>2026-04-24T16:26:14Z</time></trkpt><trkpt lat="44.20721453934693" lon="8.417311622779065"><ele>18.0</ele><time>2026-04-24T16:26:15Z</time></trkpt><trkpt lat="44.20710306152036" lon="8.417215712808268"><ele>17.0</ele><time>2026-04-24T16:26:16Z</time></trkpt><trkpt lat="44.207009051731944" lon="8.417169009692833"><ele>16.0</ele><time>2026-04-24T16:26:17Z</time></trkpt><trkpt lat="44.206906006658485" lon="8.417103601105964"><ele>15.0</ele><time>2026-04-24T16:26:18Z</time></trkpt><trkpt lat="44.2068049251988" lon="8.417034873153229"><ele>14.0</ele><time>2026-04-24T16:26:19Z</time></trkpt><trkpt lat="44.20671325593392" lon="8.416971711690817"><ele>13.0</ele><time>2026-04-24T16:26:20Z</time></trkpt><trkpt lat="44.20661860306297" lon="8.416910782155544"><ele>13.0</ele><time>2026-04-24T16:26:21Z</time></trkpt><trkpt lat="44.20651910722724" lon="8.41685094299023"><ele>13.0</ele><time>2026-04-24T16:26:22Z</time></trkpt><trkpt lat="44.2064178453705" lon="8.416795342804813"><ele>13.0</ele><time>2026-04-24T16:26:23Z</time></trkpt><trkpt lat="44.20631799644786" lon="8.41674278417541"><ele>13.0</ele><time>2026-04-24T16:26:24Z</time></trkpt><trkpt lat="44.20622058896987" lon="8.416698122957717"><ele>13.0</ele><time>2026-04-24T16:26:25Z</time></trkpt><trkpt lat="44.20612209883262" lon="8.416657604519276"><ele>11.6</ele><time>2026-04-24T16:26:26Z</time></trkpt><trkpt lat="44.20602070233094" lon="8.416624138919"><ele>10.200000000000001</ele><time>2026-04-24T16:26:27Z</time></trkpt><trkpt lat="44.20591519207098" lon="8.416592185556636"><ele>8.8</ele><time>2026-04-24T16:26:28Z</time></trkpt><trkpt lat="44.20581038024794" lon="8.416557790957874"><ele>7.4</ele><time>2026-04-24T16:26:29Z</time></trkpt><trkpt lat="44.2057082683315" lon="8.416527936731462"><ele>6.0</ele><time>2026-04-24T16:26:30Z</time></trkpt><trkpt lat="44.20560013443571" lon="8.416498338071923"><ele>5.75</ele><time>2026-04-24T16:26:31Z</time></trkpt><trkpt lat="44.20548712112929" lon="8.4164681487359"><ele>5.5</ele><time>2026-04-24T16:26:32Z</time></trkpt><trkpt lat="44.2053701852485" lon="8.416436669434066"><ele>5.25</ele><time>2026-04-24T16:26:33Z</time></trkpt><trkpt lat="44.205260056617874" lon="8.416402251304868"><ele>5.0</ele><time>2026-04-24T16:26:34Z</time></trkpt><trkpt lat="44.20515691459047" lon="8.416371955862168"><ele>5.0</ele><time>2026-04-24T16:26:35Z</time></trkpt><trkpt lat="44.20505427565392" lon="8.416343317805724"><ele>5.0</ele><time>2026-04-24T16:26:36Z</time></trkpt><trkpt lat="44.20494489373519" lon="8.416318233121277"><ele>5.0</ele><time>2026-04-24T16:26:37Z</time></trkpt><trkpt lat="44.204838759577164" lon="8.416288062366448"><ele>5.0</ele><time>2026-04-24T16:26:38Z</time></trkpt><trkpt lat="44.204725468427455" lon="8.416255796887045"><ele>5.0</ele><time>2026-04-24T16:26:39Z</time></trkpt><trkpt lat="44.20461275495325" lon="8.416222538226057"><ele>5.6</ele><time>2026-04-24T16:26:40Z</time></trkpt><trkpt lat="44.20450153411108" lon="8.416190953779221"><ele>6.2</ele><time>2026-04-24T16:26:41Z</time></trkpt><trkpt lat="44.204394899420144" lon="8.416157052155683"><ele>6.800000000000001</ele><time>2026-04-24T16:26:42Z</time></trkpt><trkpt lat="44.20428233048881" lon="8.416125575933997"><ele>7.4</ele><time>2026-04-24T16:26:43Z</time></trkpt><trkpt lat="44.204173868474406" lon="8.416091323314548"><ele>8.0</ele><time>2026-04-24T16:26:44Z</time></trkpt><trkpt lat="44.20406508870501" lon="8.41605980053059"><ele>7.6000000000000005</ele><time>2026-04-24T16:26:45Z</time></trkpt><trkpt lat="44.2039571116851" lon="8.4160265677492"><ele>7.200000000000001</ele><time>2026-04-24T16:26:46Z</time></trkpt><trkpt lat="44.203849813456934" lon="8.4159985622695"><ele>6.8</ele><time>2026-04-24T16:26:47Z</time></trkpt><trkpt lat="44.20373670821781" lon="8.415969424721695"><ele>6.4</ele><time>2026-04-24T16:26:48Z</time></trkpt><trkpt lat="44.2036331523778" lon="8.415943696294688"><ele>6.0</ele><time>2026-04-24T16:26:49Z</time></trkpt><trkpt lat="44.20352837768447" lon="8.415918365983224"><ele>6.0</ele><time>2026-04-24T16:26:50Z</time></trkpt><trkpt lat="44.20342423603685" lon="8.415903521460873"><ele>6.0</ele><time>2026-04-24T16:26:51Z</time></trkpt><trkpt lat="44.2033167902887" lon="8.415891616877598"><ele>6.0</ele><time>2026-04-24T16:26:52Z</time></trkpt><trkpt lat="44.2032045295777" lon="8.415879306404053"><ele>6.0</ele><time>2026-04-24T16:26:53Z</time></trkpt><trkpt lat="44.20309592305509" lon="8.415866349848333"><ele>6.0</ele><time>2026-04-24T16:26:54Z</time></trkpt><trkpt lat="44.202990105936465" lon="8.415857351956793"><ele>6.0</ele><time>2026-04-24T16:26:55Z</time></trkpt><trkpt lat="44.202880707213716" lon="8.41585073873835"><ele>6.0</ele><time>2026-04-24T16:26:56Z</time></trkpt><trkpt lat="44.20276672180808" lon="8.415843400987995"><ele>6.0</ele><time>2026-04-24T16:26:57Z</time></trkpt><trkpt lat="44.20265590947044" lon="8.415836206139735"><ele>6.0</ele><time>2026-04-24T16:26:58Z</time></trkpt><trkpt lat="44.20255076146514" lon="8.41583403328715"><ele>6.0</ele><time>2026-04-24T16:26:59Z</time></trkpt><trkpt lat="44.20244482773503" lon="8.415835447185483"><ele>6.0</ele><time>2026-04-24T16:27:00Z</time></trkpt><trkpt lat="44.20233372110079" lon="8.415844603379357"><ele>6.0</ele><time>2026-04-24T16:27:01Z</time></trkpt><trkpt lat="44.202228755918036" lon="8.415856797097012"><ele>6.0</ele><time>2026-04-24T16:27:02Z</time></trkpt><trkpt lat="44.20212204072092" lon="8.415878388175631"><ele>6.0</ele><time>2026-04-24T16:27:03Z</time></trkpt><trkpt lat="44.20201656178136" lon="8.415907960497039"><ele>6.0</ele><time>2026-04-24T16:27:04Z</time></trkpt><trkpt lat="44.2019076593589" lon="8.41594971776392"><ele>5.75</ele><time>2026-04-24T16:27:05Z</time></trkpt><trkpt lat="44.201798201443914" lon="8.415999880514674"><ele>5.5</ele><time>2026-04-24T16:27:06Z</time></trkpt><trkpt lat="44.20168720889451" lon="8.416052008486705"><ele>5.25</ele><time>2026-04-24T16:27:07Z</time></trkpt><trkpt lat="44.20157825158795" lon="8.416108499297634"><ele>5.0</ele><time>2026-04-24T16:27:08Z</time></trkpt><trkpt lat="44.20147109190834" lon="8.416160062762629"><ele>4.8</ele><time>2026-04-24T16:27:09Z</time></trkpt><trkpt lat="44.2013665136694" lon="8.416212384963995"><ele>4.6</ele><time>2026-04-24T16:27:10Z</time></trkpt><trkpt lat="44.20126468660063" lon="8.416262497363586"><ele>4.4</ele><time>2026-04-24T16:27:11Z</time></trkpt><trkpt lat="44.20116089599204" lon="8.416314376352883"><ele>4.2</ele><time>2026-04-24T16:27:12Z</time></trkpt><trkpt lat="44.20105481306605" lon="8.416362657602418"><ele>4.0</ele><time>2026-04-24T16:27:13Z</time></trkpt><trkpt lat="44.20094578160732" lon="8.416413395363277"><ele>4.0</ele><time>2026-04-24T16:27:14Z</time></trkpt><trkpt lat="44.200841272409626" lon="8.416460468329548"><ele>4.0</ele><time>2026-04-24T16:27:15Z</time></trkpt><trkpt lat="44.20074159586207" lon="8.416509074450433"><ele>4.0</ele><time>2026-04-24T16:27:16Z</time></trkpt><trkpt lat="44.200641805951314" lon="8.416560367033359"><ele>4.0</ele><time>2026-04-24T16:27:17Z</time></trkpt><trkpt lat="44.200550998661086" lon="8.416614944870739"><ele>4.0</ele><time>2026-04-24T16:27:18Z</time></trkpt><trkpt lat="44.20045708212753" lon="8.416677019079888"><ele>6.6</ele><time>2026-04-24T16:27:19Z</time></trkpt><trkpt lat="44.20036494857092" lon="8.416745532877044"><ele>9.2</ele><time>2026-04-24T16:27:20Z</time></trkpt><trkpt lat="44.20027651271458" lon="8.416819790869253"><ele>11.799999999999999</ele><time>2026-04-24T16:27:21Z</time></trkpt><trkpt lat="44.20018791528941" lon="8.416904976540357"><ele>14.4</ele><time>2026-04-24T16:27:22Z</time></trkpt><trkpt lat="44.20009797840239" lon="8.416994112944355"><ele>17.0</ele><time>2026-04-24T16:27:23Z</time></trkpt><trkpt lat="44.2000095926857" lon="8.41708558046929"><ele>15.8</ele><time>2026-04-24T16:27:24Z</time></trkpt><trkpt lat="44.199916786534295" lon="8.417176187630522"><ele>14.6</ele><time>2026-04-24T16:27:25Z</time></trkpt><trkpt lat="44.19982979185136" lon="8.417262697448878"><ele>13.4</ele><time>2026-04-24T16:27:26Z</time></trkpt><trkpt lat="44.19974582667618" lon="8.417353973895356"><ele>12.200000000000001</ele><time>2026-04-24T16:27:27Z</time></trkpt><trkpt lat="44.19967017387856" lon="8.417442394330644"><ele>11.0</ele><time>2026-04-24T16:27:28Z</time></trkpt><trkpt lat="44.1995983334766" lon="8.417540104473982"><ele>13.600000000000001</ele><time>2026-04-24T16:27:29Z</time></trkpt><trkpt lat="44.199528862690364" lon="8.417639430053184"><ele>16.2</ele><time>2026-04-24T16:27:30Z</time></trkpt><trkpt lat="44.199463891687095" lon="8.41773987579375"><ele>18.799999999999997</ele><time>2026-04-24T16:27:31Z</time></trkpt><trkpt lat="44.19940484293716" lon="8.417851031414834"><ele>21.4</ele><time>2026-04-24T16:27:32Z</time></trkpt><trkpt lat="44.199351640860705" lon="8.41797126960397"><ele>24.0</ele><time>2026-04-24T16:27:33Z</time></trkpt><trkpt lat="44.199305223290004" lon="8.418100672975333"><ele>24.0</ele><time>2026-04-24T16:27:34Z</time></trkpt><trkpt lat="44.19926535362382" lon="8.418239110474405"><ele>24.0</ele><time>2026-04-24T16:27:35Z</time></trkpt><trkpt lat="44.19922609638798" lon="8.418384715254751"><ele>24.0</ele><time>2026-04-24T16:27:36Z</time></trkpt><trkpt lat="44.19918223891865" lon="8.418522669384611"><ele>24.0</ele><time>2026-04-24T16:27:37Z</time></trkpt><trkpt lat="44.19914375833111" lon="8.418654861986086"><ele>24.0</ele><time>2026-04-24T16:27:38Z</time></trkpt><trkpt lat="44.19909912468664" lon="8.41878107792208"><ele>20.8</ele><time>2026-04-24T16:27:39Z</time></trkpt><trkpt lat="44.199044015884205" lon="8.418904436184048"><ele>17.599999999999998</ele><time>2026-04-24T16:27:40Z</time></trkpt><trkpt lat="44.19898468967852" lon="8.41900515173777"><ele>14.4</ele><time>2026-04-24T16:27:41Z</time></trkpt><trkpt lat="44.198917895706295" lon="8.419105367411062"><ele>11.2</ele><time>2026-04-24T16:27:42Z</time></trkpt><trkpt lat="44.19884668777488" lon="8.419204873241119"><ele>8.0</ele><time>2026-04-24T16:27:43Z</time></trkpt><trkpt lat="44.19877295235175" lon="8.419309853982563"><ele>11.0</ele><time>2026-04-24T16:27:44Z</time></trkpt><trkpt lat="44.19870411978366" lon="8.419417641090769"><ele>14.0</ele><time>2026-04-24T16:27:45Z</time></trkpt><trkpt lat="44.19863403868161" lon="8.419516077276688"><ele>17.0</ele><time>2026-04-24T16:27:46Z</time></trkpt><trkpt lat="44.19859131895718" lon="8.41964903506425"><ele>20.0</ele><time>2026-04-24T16:27:47Z</time></trkpt><trkpt lat="44.19853791107291" lon="8.419770882962753"><ele>23.0</ele><time>2026-04-24T16:27:48Z</time></trkpt><trkpt lat="44.198488296839884" lon="8.419893614562021"><ele>23.0</ele><time>2026-04-24T16:27:49Z</time></trkpt><trkpt lat="44.1984394042646" lon="8.420020168948469"><ele>23.0</ele><time>2026-04-24T16:27:50Z</time></trkpt><trkpt lat="44.19839772596258" lon="8.420133456352529"><ele>23.0</ele><time>2026-04-24T16:27:51Z</time></trkpt><trkpt lat="44.198349462787164" lon="8.42022890418639"><ele>23.0</ele><time>2026-04-24T16:27:52Z</time></trkpt><trkpt lat="44.19832809505029" lon="8.42034110029472"><ele>23.0</ele><time>2026-04-24T16:27:53Z</time></trkpt><trkpt lat="44.19835085430297" lon="8.420458530436719"><ele>23.0</ele><time>2026-04-24T16:27:54Z</time></trkpt><trkpt lat="44.19836713959971" lon="8.42057279477957"><ele>24.0</ele><time>2026-04-24T16:27:55Z</time></trkpt><trkpt lat="44.198384111967364" lon="8.420694157500758"><ele>25.0</ele><time>2026-04-24T16:27:56Z</time></trkpt><trkpt lat="44.198405948146494" lon="8.420823826952974"><ele>25.999999999999996</ele><time>2026-04-24T16:27:57Z</time></trkpt><trkpt lat="44.19842782834161" lon="8.420963141888201"><ele>27.0</ele><time>2026-04-24T16:27:58Z</time></trkpt><trkpt lat="44.19844853242735" lon="8.421103765399183"><ele>28.0</ele><time>2026-04-24T16:27:59Z</time></trkpt><trkpt lat="44.1984683597315" lon="8.421247781266315"><ele>29.2</ele><time>2026-04-24T16:28:00Z</time></trkpt><trkpt lat="44.19848501880664" lon="8.421392785576321"><ele>30.4</ele><time>2026-04-24T16:28:01Z</time></trkpt><trkpt lat="44.198495923800834" lon="8.421538579238167"><ele>31.599999999999998</ele><time>2026-04-24T16:28:02Z</time></trkpt><trkpt lat="44.19849406489199" lon="8.421673878441327"><ele>32.8</ele><time>2026-04-24T16:28:03Z</time></trkpt><trkpt lat="44.19849358791741" lon="8.421794670316869"><ele>34.0</ele><time>2026-04-24T16:28:04Z</time></trkpt><trkpt lat="44.19849148319388" lon="8.421922298402135"><ele>34.0</ele><time>2026-04-24T16:28:05Z</time></trkpt><trkpt lat="44.198480285551554" lon="8.422037062264948"><ele>34.0</ele><time>2026-04-24T16:28:06Z</time></trkpt><trkpt lat="44.1984538942083" lon="8.42214794404073"><ele>34.0</ele><time>2026-04-24T16:28:07Z</time></trkpt><trkpt lat="44.198419387001465" lon="8.422266025189682"><ele>34.0</ele><time>2026-04-24T16:28:08Z</time></trkpt><trkpt lat="44.19837833888779" lon="8.422390084468413"><ele>34.0</ele><time>2026-04-24T16:28:09Z</time></trkpt><trkpt lat="44.19831600652274" lon="8.42252104941795"><ele>32.2</ele><time>2026-04-24T16:28:10Z</time></trkpt><trkpt lat="44.19827116836753" lon="8.422639341177714"><ele>30.4</ele><time>2026-04-24T16:28:11Z</time></trkpt><trkpt lat="44.19822374292621" lon="8.422764764314712"><ele>28.6</ele><time>2026-04-24T16:28:12Z</time></trkpt><trkpt lat="44.19817339119404" lon="8.422895380471086"><ele>26.8</ele><time>2026-04-24T16:28:13Z</time></trkpt><trkpt lat="44.19812203343405" lon="8.423026570713162"><ele>25.0</ele><time>2026-04-24T16:28:14Z</time></trkpt><trkpt lat="44.19807218939871" lon="8.423150773251404"><ele>34.6</ele><time>2026-04-24T16:28:15Z</time></trkpt><trkpt lat="44.198021798225426" lon="8.42327284577376"><ele>44.2</ele><time>2026-04-24T16:28:16Z</time></trkpt><trkpt lat="44.19797532652864" lon="8.423412887191562"><ele>53.8</ele><time>2026-04-24T16:28:17Z</time></trkpt><trkpt lat="44.19791790993827" lon="8.423536369179656"><ele>63.4</ele><time>2026-04-24T16:28:18Z</time></trkpt><trkpt lat="44.19785430446069" lon="8.423658723383642"><ele>73.0</ele><time>2026-04-24T16:28:19Z</time></trkpt><trkpt lat="44.19779205232616" lon="8.423771434926824"><ele>62.6</ele><time>2026-04-24T16:28:20Z</time></trkpt><trkpt lat="44.197726663201195" lon="8.423888385279504"><ele>52.199999999999996</ele><time>2026-04-24T16:28:21Z</time></trkpt><trkpt lat="44.19766252032534" lon="8.423994610023525"><ele>41.8</ele><time>2026-04-24T16:28:22Z</time></trkpt><trkpt lat="44.197594720415516" lon="8.424096729469023"><ele>31.4</ele><time>2026-04-24T16:28:23Z</time></trkpt><trkpt lat="44.19752236692978" lon="8.42418191446179"><ele>21.0</ele><time>2026-04-24T16:28:24Z</time></trkpt><trkpt lat="44.19744346293636" lon="8.424274068131473"><ele>21.0</ele><time>2026-04-24T16:28:25Z</time></trkpt><trkpt lat="44.19736311268004" lon="8.424364319744132"><ele>21.0</ele><time>2026-04-24T16:28:26Z</time></trkpt><trkpt lat="44.197282767238846" lon="8.424453393844145"><ele>21.0</ele><time>2026-04-24T16:28:27Z</time></trkpt><trkpt lat="44.19720840198714" lon="8.424530421212552"><ele>21.0</ele><time>2026-04-24T16:28:28Z</time></trkpt><trkpt lat="44.197128879782596" lon="8.424612612434917"><ele>21.0</ele><time>2026-04-24T16:28:29Z</time></trkpt><trkpt lat="44.19705736918085" lon="8.424687234738526"><ele>17.5</ele><time>2026-04-24T16:28:30Z</time></trkpt><trkpt lat="44.19697847105939" lon="8.424757414719478"><ele>14.0</ele><time>2026-04-24T16:28:31Z</time></trkpt><trkpt lat="44.19690009959433" lon="8.424810085614364"><ele>10.5</ele><time>2026-04-24T16:28:32Z</time></trkpt><trkpt lat="44.19681897886418" lon="8.4248461168454"><ele>7.0</ele><time>2026-04-24T16:28:33Z</time></trkpt><trkpt lat="44.19673435954621" lon="8.424871570753195"><ele>3.5</ele><time>2026-04-24T16:28:34Z</time></trkpt><trkpt lat="44.196646172594626" lon="8.424889578242718"><ele>0.0</ele><time>2026-04-24T16:28:35Z</time></trkpt><trkpt lat="44.19655849112602" lon="8.424898735884375"><ele>0.0</ele><time>2026-04-24T16:28:36Z</time></trkpt><trkpt lat="44.19647122499749" lon="8.424895864773658"><ele>0.0</ele><time>2026-04-24T16:28:37Z</time></trkpt><trkpt lat="44.19637848019219" lon="8.424885316247973"><ele>0.0</ele><time>2026-04-24T16:28:38Z</time></trkpt><trkpt lat="44.19627790450538" lon="8.424871342007235"><ele>0.0</ele><time>2026-04-24T16:28:39Z</time></trkpt><trkpt lat="44.19617224224477" lon="8.424859155939794"><ele>0.0</ele><time>2026-04-24T16:28:40Z</time></trkpt><trkpt lat="44.19606911317938" lon="8.424845239140378"><ele>0.0</ele><time>2026-04-24T16:28:41.014Z</time></trkpt><trkpt lat="44.1959715074192" lon="8.424830723736667"><ele>0.0</ele><time>2026-04-24T16:28:42.021Z</time></trkpt><trkpt lat="44.19587051556866" lon="8.424820389225538"><ele>0.0</ele><time>2026-04-24T16:28:43.019Z</time></trkpt><trkpt lat="44.19576847591592" lon="8.424807795551528"><ele>0.0</ele><time>2026-04-24T16:28:44.018Z</time></trkpt><trkpt lat="44.195660241841004" lon="8.424794789928969"><ele>0.0</ele><time>2026-04-24T16:28:45.019Z</time></trkpt><trkpt lat="44.195125778246855" lon="8.424565633766749"><ele>10.4</ele><time>2026-04-24T16:28:51Z</time></trkpt><trkpt lat="44.19503606530725" lon="8.424513983116348"><ele>20.8</ele><time>2026-04-24T16:28:52Z</time></trkpt><trkpt lat="44.194958615097384" lon="8.424430803939556"><ele>31.200000000000003</ele><time>2026-04-24T16:28:53Z</time></trkpt><trkpt lat="44.19486425659999" lon="8.424348093015851"><ele>41.6</ele><time>2026-04-24T16:28:55Z</time></trkpt><trkpt lat="44.19487927943865" lon="8.424240943068648"><ele>52.0</ele><time>2026-04-24T16:28:56Z</time></trkpt><trkpt lat="44.194871866642764" lon="8.4241376997253"><ele>51.99999999999999</ele><time>2026-04-24T16:28:57Z</time></trkpt><trkpt lat="44.194842838690974" lon="8.424053452590865"><ele>52.0</ele><time>2026-04-24T16:28:58Z</time></trkpt><trkpt lat="44.19475359789234" lon="8.423924717930937"><ele>52.0</ele><time>2026-04-24T16:29:00Z</time></trkpt><trkpt lat="44.194696888816026" lon="8.423869160175133"><ele>52.0</ele><time>2026-04-24T16:29:01Z</time></trkpt><trkpt lat="44.19464113754561" lon="8.423809727518044"><ele>51.99999999999999</ele><time>2026-04-24T16:29:02Z</time></trkpt><trkpt lat="44.19457923493396" lon="8.423747326104937"><ele>52.0</ele><time>2026-04-24T16:29:03Z</time></trkpt><trkpt lat="44.19451589312513" lon="8.423674212458291"><ele>49.166666666666664</ele><time>2026-04-24T16:29:04Z</time></trkpt><trkpt lat="44.194452704895305" lon="8.423592123921868"><ele>46.33333333333333</ele><time>2026-04-24T16:29:05Z</time></trkpt><trkpt lat="44.194398750551706" lon="8.423500146055067"><ele>43.5</ele><time>2026-04-24T16:29:06Z</time></trkpt><trkpt lat="44.19434951070411" lon="8.423398177653109"><ele>40.666666666666664</ele><time>2026-04-24T16:29:07Z</time></trkpt><trkpt lat="44.19429956762672" lon="8.423295811762657"><ele>37.83333333333333</ele><time>2026-04-24T16:29:08Z</time></trkpt><trkpt lat="44.19424425943864" lon="8.423201290128661"><ele>35.0</ele><time>2026-04-24T16:29:09Z</time></trkpt><trkpt lat="44.194184207618555" lon="8.423121049250938"><ele>35.0</ele><time>2026-04-24T16:29:10Z</time></trkpt><trkpt lat="44.19411701801683" lon="8.423047464280419"><ele>35.0</ele><time>2026-04-24T16:29:11Z</time></trkpt><trkpt lat="44.19404629771832" lon="8.422987273863296"><ele>35.0</ele><time>2026-04-24T16:29:12Z</time></trkpt><trkpt lat="44.19398056607262" lon="8.422955679330315"><ele>35.0</ele><time>2026-04-24T16:29:13Z</time></trkpt><trkpt lat="44.19389574291056" lon="8.422932092397405"><ele>35.0</ele><time>2026-04-24T16:29:14Z</time></trkpt><trkpt lat="44.19381472455278" lon="8.42292665230171"><ele>35.0</ele><time>2026-04-24T16:29:15Z</time></trkpt><trkpt lat="44.19373651305096" lon="8.422923246874507"><ele>36.0</ele><time>2026-04-24T16:29:16Z</time></trkpt><trkpt lat="44.19365035508412" lon="8.422910978454363"><ele>37.0</ele><time>2026-04-24T16:29:17Z</time></trkpt><trkpt lat="44.19357637600469" lon="8.422892436679783"><ele>38.0</ele><time>2026-04-24T16:29:18Z</time></trkpt><trkpt lat="44.19350198347653" lon="8.422855112424713"><ele>39.0</ele><time>2026-04-24T16:29:19Z</time></trkpt><trkpt lat="44.193424291551636" lon="8.42280737752404"><ele>40.0</ele><time>2026-04-24T16:29:20Z</time></trkpt><trkpt lat="44.193348372248245" lon="8.422754700401264"><ele>41.0</ele><time>2026-04-24T16:29:21Z</time></trkpt><trkpt lat="44.19328512437258" lon="8.422698310909032"><ele>41.0</ele><time>2026-04-24T16:29:22Z</time></trkpt><trkpt lat="44.193228668377905" lon="8.422627037677012"><ele>41.0</ele><time>2026-04-24T16:29:23Z</time></trkpt><trkpt lat="44.19317218879178" lon="8.422536720125644"><ele>41.0</ele><time>2026-04-24T16:29:24Z</time></trkpt><trkpt lat="44.193115274285816" lon="8.422449004008016"><ele>41.0</ele><time>2026-04-24T16:29:25Z</time></trkpt><trkpt lat="44.193064566026315" lon="8.42235736460169"><ele>41.0</ele><time>2026-04-24T16:29:26Z</time></trkpt><trkpt lat="44.19301185206184" lon="8.422271107233614"><ele>41.0</ele><time>2026-04-24T16:29:27Z</time></trkpt><trkpt lat="44.19295100227649" lon="8.422203564201217"><ele>40.83333333333333</ele><time>2026-04-24T16:29:28Z</time></trkpt><trkpt lat="44.192884193597884" lon="8.42213578207505"><ele>40.666666666666664</ele><time>2026-04-24T16:29:29Z</time></trkpt><trkpt lat="44.19281544174429" lon="8.42206409252352"><ele>40.5</ele><time>2026-04-24T16:29:30Z</time></trkpt><trkpt lat="44.192757351760214" lon="8.421990854908787"><ele>40.333333333333336</ele><time>2026-04-24T16:29:31Z</time></trkpt><trkpt lat="44.192713417444885" lon="8.421905337105477"><ele>40.16666666666667</ele><time>2026-04-24T16:29:32Z</time></trkpt><trkpt lat="44.19268323303845" lon="8.421812186939409"><ele>40.0</ele><time>2026-04-24T16:29:33Z</time></trkpt><trkpt lat="44.19266849849582" lon="8.421714185837256"><ele>40.0</ele><time>2026-04-24T16:29:34Z</time></trkpt><trkpt lat="44.19266509108695" lon="8.421615932635897"><ele>40.0</ele><time>2026-04-24T16:29:35Z</time></trkpt><trkpt lat="44.19265778716819" lon="8.421517385917406"><ele>40.0</ele><time>2026-04-24T16:29:36Z</time></trkpt><trkpt lat="44.192641565237146" lon="8.421422019963734"><ele>40.0</ele><time>2026-04-24T16:29:37Z</time></trkpt><trkpt lat="44.192617803371746" lon="8.421327429139073"><ele>40.0</ele><time>2026-04-24T16:29:38Z</time></trkpt><trkpt lat="44.192577366690884" lon="8.4212350805457"><ele>40.0</ele><time>2026-04-24T16:29:39Z</time></trkpt><trkpt lat="44.19253107532591" lon="8.421140319862355"><ele>40.0</ele><time>2026-04-24T16:29:40Z</time></trkpt><trkpt lat="44.1924832085052" lon="8.421041111952487"><ele>42.5</ele><time>2026-04-24T16:29:41Z</time></trkpt><trkpt lat="44.19243737433991" lon="8.420940274762804"><ele>45.0</ele><time>2026-04-24T16:29:42Z</time></trkpt><trkpt lat="44.19239024780779" lon="8.420841753584318"><ele>47.5</ele><time>2026-04-24T16:29:43Z</time></trkpt><trkpt lat="44.19234038609064" lon="8.42075416631829"><ele>50.0</ele><time>2026-04-24T16:29:44Z</time></trkpt><trkpt lat="44.192281338688154" lon="8.420663986791277"><ele>52.49999999999999</ele><time>2026-04-24T16:29:45Z</time></trkpt><trkpt lat="44.1922226616428" lon="8.420580603592795"><ele>55.0</ele><time>2026-04-24T16:29:46Z</time></trkpt><trkpt lat="44.192159355928325" lon="8.420493629058583"><ele>46.6</ele><time>2026-04-24T16:29:47Z</time></trkpt><trkpt lat="44.19208900815689" lon="8.42040261037085"><ele>38.2</ele><time>2026-04-24T16:29:48Z</time></trkpt><trkpt lat="44.192020038348666" lon="8.42030922661271"><ele>29.8</ele><time>2026-04-24T16:29:49Z</time></trkpt><trkpt lat="44.19196059618842" lon="8.420217812173155"><ele>21.4</ele><time>2026-04-24T16:29:50Z</time></trkpt><trkpt lat="44.19190616744538" lon="8.420120681064109"><ele>13.0</ele><time>2026-04-24T16:29:51Z</time></trkpt><trkpt lat="44.19185640411446" lon="8.4200268715488"><ele>12.999999999999998</ele><time>2026-04-24T16:29:52Z</time></trkpt><trkpt lat="44.1918181883001" lon="8.419928521849402"><ele>13.0</ele><time>2026-04-24T16:29:53Z</time></trkpt><trkpt lat="44.191784541614425" lon="8.419823213632514"><ele>13.0</ele><time>2026-04-24T16:29:54Z</time></trkpt><trkpt lat="44.19175938348541" lon="8.419705671743444"><ele>13.0</ele><time>2026-04-24T16:29:55Z</time></trkpt><trkpt lat="44.19173412147405" lon="8.419584553971612"><ele>12.999999999999998</ele><time>2026-04-24T16:29:56Z</time></trkpt><trkpt lat="44.19172296780885" lon="8.419453577028552"><ele>13.0</ele><time>2026-04-24T16:29:57Z</time></trkpt><trkpt lat="44.19171092269191" lon="8.419325941635314"><ele>15.4</ele><time>2026-04-24T16:29:58Z</time></trkpt><trkpt lat="44.1916989567864" lon="8.419181422634805"><ele>17.8</ele><time>2026-04-24T16:29:59Z</time></trkpt><trkpt lat="44.1916880245432" lon="8.419025393200515"><ele>20.2</ele><time>2026-04-24T16:30:00Z</time></trkpt><trkpt lat="44.19167602569706" lon="8.418870215071225"><ele>22.6</ele><time>2026-04-24T16:30:01Z</time></trkpt><trkpt lat="44.19166594505639" lon="8.41870907352766"><ele>25.0</ele><time>2026-04-24T16:30:02Z</time></trkpt><trkpt lat="44.19165406351406" lon="8.41855077832702"><ele>25.0</ele><time>2026-04-24T16:30:03Z</time></trkpt><trkpt lat="44.191644357926975" lon="8.418394326948654"><ele>25.0</ele><time>2026-04-24T16:30:04Z</time></trkpt><trkpt lat="44.19163264348024" lon="8.418245075653164"><ele>25.0</ele><time>2026-04-24T16:30:05Z</time></trkpt><trkpt lat="44.19162348881524" lon="8.41809868168989"><ele>25.0</ele><time>2026-04-24T16:30:06Z</time></trkpt><trkpt lat="44.19161201442923" lon="8.417965332632438"><ele>25.0</ele><time>2026-04-24T16:30:07Z</time></trkpt><trkpt lat="44.191602414895364" lon="8.417821837518122"><ele>20.0</ele><time>2026-04-24T16:30:08Z</time></trkpt><trkpt lat="44.19158864073001" lon="8.417689667584968"><ele>15.0</ele><time>2026-04-24T16:30:09Z</time></trkpt><trkpt lat="44.19156680514483" lon="8.417551997167504"><ele>10.0</ele><time>2026-04-24T16:30:10Z</time></trkpt><trkpt lat="44.19153722076462" lon="8.417424134915498"><ele>5.0</ele><time>2026-04-24T16:30:11Z</time></trkpt><trkpt lat="44.1914999812316" lon="8.417292256842526"><ele>0.0</ele><time>2026-04-24T16:30:12Z</time></trkpt><trkpt lat="44.19145790629294" lon="8.417161806111578"><ele>0.6</ele><time>2026-04-24T16:30:13Z</time></trkpt><trkpt lat="44.1914102044622" lon="8.4170415962645"><ele>1.2</ele><time>2026-04-24T16:30:14Z</time></trkpt><trkpt lat="44.19135482216535" lon="8.416920163261686"><ele>1.7999999999999998</ele><time>2026-04-24T16:30:15Z</time></trkpt><trkpt lat="44.19129502000778" lon="8.416802244082035"><ele>2.4</ele><time>2026-04-24T16:30:16Z</time></trkpt><trkpt lat="44.191229805641626" lon="8.416683413466874"><ele>3.0</ele><time>2026-04-24T16:30:17Z</time></trkpt><trkpt lat="44.191162711994465" lon="8.416565036656792"><ele>3.0</ele><time>2026-04-24T16:30:18Z</time></trkpt><trkpt lat="44.1910935863408" lon="8.416431495316196"><ele>3.0</ele><time>2026-04-24T16:30:19Z</time></trkpt><trkpt lat="44.19103214354556" lon="8.416319153677923"><ele>3.0</ele><time>2026-04-24T16:30:20Z</time></trkpt><trkpt lat="44.190970391896094" lon="8.416212353789032"><ele>3.0</ele><time>2026-04-24T16:30:21Z</time></trkpt><trkpt lat="44.1909066766377" lon="8.416100172033985"><ele>3.0</ele><time>2026-04-24T16:30:22Z</time></trkpt><trkpt lat="44.190839836808365" lon="8.41598279772395"><ele>3.4</ele><time>2026-04-24T16:30:23Z</time></trkpt><trkpt lat="44.190776917027435" lon="8.415871425920596"><ele>3.8</ele><time>2026-04-24T16:30:24Z</time></trkpt><trkpt lat="44.19070817467733" lon="8.415758072248174"><ele>4.2</ele><time>2026-04-24T16:30:25Z</time></trkpt><trkpt lat="44.190641831369526" lon="8.415637104057675"><ele>4.6</ele><time>2026-04-24T16:30:26Z</time></trkpt><trkpt lat="44.19057223527415" lon="8.415511636197152"><ele>5.0</ele><time>2026-04-24T16:30:27Z</time></trkpt><trkpt lat="44.19050104490279" lon="8.415380032158213"><ele>10.25</ele><time>2026-04-24T16:30:28Z</time></trkpt><trkpt lat="44.19043226044912" lon="8.415257046851355"><ele>15.5</ele><time>2026-04-24T16:30:29Z</time></trkpt><trkpt lat="44.190362084992955" lon="8.415128955219837"><ele>20.75</ele><time>2026-04-24T16:30:30Z</time></trkpt><trkpt lat="44.19029400277528" lon="8.414995340414022"><ele>26.0</ele><time>2026-04-24T16:30:31Z</time></trkpt><trkpt lat="44.190231334116625" lon="8.41486257433742"><ele>26.0</ele><time>2026-04-24T16:30:32Z</time></trkpt><trkpt lat="44.19016398034082" lon="8.414726067888894"><ele>26.0</ele><time>2026-04-24T16:30:33Z</time></trkpt><trkpt lat="44.19010265134849" lon="8.414595000601098"><ele>26.0</ele><time>2026-04-24T16:30:34Z</time></trkpt><trkpt lat="44.190037703988274" lon="8.414458425051787"><ele>26.0</ele><time>2026-04-24T16:30:35Z</time></trkpt><trkpt lat="44.18998006627449" lon="8.41432429375031"><ele>23.0</ele><time>2026-04-24T16:30:36Z</time></trkpt><trkpt lat="44.18991874719705" lon="8.414184789211903"><ele>20.0</ele><time>2026-04-24T16:30:37.019Z</time></trkpt><trkpt lat="44.18986144357956" lon="8.414054853036424"><ele>17.0</ele><time>2026-04-24T16:30:38.019Z</time></trkpt><trkpt lat="44.18980471127302" lon="8.413923325965092"><ele>14.0</ele><time>2026-04-24T16:30:39.015Z</time></trkpt><trkpt lat="44.189748845043916" lon="8.41379451977844"><ele>11.0</ele><time>2026-04-24T16:30:40.019Z</time></trkpt><trkpt lat="44.1896945785807" lon="8.413672006149318"><ele>11.0</ele><time>2026-04-24T16:30:41.019Z</time></trkpt><trkpt lat="44.189639588787145" lon="8.413549429165602"><ele>11.0</ele><time>2026-04-24T16:30:42.022Z</time></trkpt><trkpt lat="44.18863600589725" lon="8.412043070428457"><ele>12.0</ele><time>2026-04-24T16:30:49Z</time></trkpt><trkpt lat="44.18857659697595" lon="8.411910897598872"><ele>13.0</ele><time>2026-04-24T16:30:50Z</time></trkpt><trkpt lat="44.18905506214448" lon="8.412258096538709"><ele>13.0</ele><time>2026-04-24T16:30:51Z</time></trkpt><trkpt lat="44.18899104204668" lon="8.412105145688978"><ele>13.0</ele><time>2026-04-24T16:30:52Z</time></trkpt><trkpt lat="44.1889269278508" lon="8.41195809868564"><ele>13.0</ele><time>2026-04-24T16:30:53Z</time></trkpt><trkpt lat="44.188872152244166" lon="8.411800110300824"><ele>13.0</ele><time>2026-04-24T16:30:54Z</time></trkpt><trkpt lat="44.188806565758746" lon="8.411669551130219"><ele>13.0</ele><time>2026-04-24T16:30:55Z</time></trkpt><trkpt lat="44.18875077850411" lon="8.411536492675504"><ele>13.0</ele><time>2026-04-24T16:30:56Z</time></trkpt><trkpt lat="44.18871509339657" lon="8.411376468777688"><ele>13.0</ele><time>2026-04-24T16:30:57Z</time></trkpt><trkpt lat="44.18864903083691" lon="8.411230507808607"><ele>13.0</ele><time>2026-04-24T16:30:58Z</time></trkpt><trkpt lat="44.18858661256169" lon="8.411088805178634"><ele>16.8</ele><time>2026-04-24T16:30:59Z</time></trkpt><trkpt lat="44.18853315938562" lon="8.410955336681647"><ele>20.6</ele><time>2026-04-24T16:31:00Z</time></trkpt><trkpt lat="44.18847550089561" lon="8.410830574534614"><ele>24.400000000000002</ele><time>2026-04-24T16:31:01Z</time></trkpt><trkpt lat="44.18841294149188" lon="8.410699882531366"><ele>28.200000000000003</ele><time>2026-04-24T16:31:02Z</time></trkpt><trkpt lat="44.188348670436916" lon="8.41057346755699"><ele>32.0</ele><time>2026-04-24T16:31:03Z</time></trkpt><trkpt lat="44.18828244133035" lon="8.410451273798769"><ele>32.0</ele><time>2026-04-24T16:31:04Z</time></trkpt><trkpt lat="44.188215563236255" lon="8.410328578937508"><ele>32.0</ele><time>2026-04-24T16:31:05Z</time></trkpt><trkpt lat="44.18814349940937" lon="8.410211217207221"><ele>32.0</ele><time>2026-04-24T16:31:06Z</time></trkpt><trkpt lat="44.188069379157476" lon="8.41009156631479"><ele>32.0</ele><time>2026-04-24T16:31:07Z</time></trkpt><trkpt lat="44.188000722158385" lon="8.40998000822184"><ele>32.0</ele><time>2026-04-24T16:31:08Z</time></trkpt><trkpt lat="44.187924749031964" lon="8.409871467689479"><ele>28.0</ele><time>2026-04-24T16:31:09Z</time></trkpt><trkpt lat="44.187843846660044" lon="8.409759813469329"><ele>24.000000000000004</ele><time>2026-04-24T16:31:10Z</time></trkpt><trkpt lat="44.18776482323528" lon="8.409652590884933"><ele>20.0</ele><time>2026-04-24T16:31:11Z</time></trkpt><trkpt lat="44.18768477890076" lon="8.409551524436605"><ele>16.0</ele><time>2026-04-24T16:31:12Z</time></trkpt><trkpt lat="44.18760158611252" lon="8.40945091156938"><ele>12.0</ele><time>2026-04-24T16:31:13Z</time></trkpt><trkpt lat="44.18752253125228" lon="8.409360852430051"><ele>12.0</ele><time>2026-04-24T16:31:14Z</time></trkpt><trkpt lat="44.18744571632825" lon="8.409280878820052"><ele>12.0</ele><time>2026-04-24T16:31:15Z</time></trkpt><trkpt lat="44.18736100237624" lon="8.409201418943498"><ele>12.0</ele><time>2026-04-24T16:31:16Z</time></trkpt><trkpt lat="44.18727988804311" lon="8.409131592282147"><ele>12.0</ele><time>2026-04-24T16:31:17Z</time></trkpt><trkpt lat="44.18719809850314" lon="8.40907298731656"><ele>12.0</ele><time>2026-04-24T16:31:18Z</time></trkpt><trkpt lat="44.18711237210683" lon="8.409022342128008"><ele>13.6</ele><time>2026-04-24T16:31:19Z</time></trkpt><trkpt lat="44.187022595842144" lon="8.408972834253538"><ele>15.2</ele><time>2026-04-24T16:31:20Z</time></trkpt><trkpt lat="44.18693232857563" lon="8.4089285625934"><ele>16.8</ele><time>2026-04-24T16:31:21Z</time></trkpt><trkpt lat="44.18684118401722" lon="8.408873853950752"><ele>18.4</ele><time>2026-04-24T16:31:22Z</time></trkpt><trkpt lat="44.186754985967255" lon="8.408811957401214"><ele>20.0</ele><time>2026-04-24T16:31:23Z</time></trkpt><trkpt lat="44.18668193827088" lon="8.408741059625992"><ele>20.0</ele><time>2026-04-24T16:31:24Z</time></trkpt><trkpt lat="44.18660933885516" lon="8.408657213157923"><ele>20.0</ele><time>2026-04-24T16:31:25Z</time></trkpt><trkpt lat="44.18654801412878" lon="8.408559237425735"><ele>20.0</ele><time>2026-04-24T16:31:26Z</time></trkpt><trkpt lat="44.186483247926326" lon="8.408450068371726"><ele>20.0</ele><time>2026-04-24T16:31:27Z</time></trkpt><trkpt lat="44.18641728396044" lon="8.408343947655958"><ele>20.0</ele><time>2026-04-24T16:31:28Z</time></trkpt><trkpt lat="44.18635700998657" lon="8.408235766913727"><ele>18.4</ele><time>2026-04-24T16:31:29Z</time></trkpt><trkpt lat="44.18629731203718" lon="8.40812935156668"><ele>16.8</ele><time>2026-04-24T16:31:30Z</time></trkpt><trkpt lat="44.18623292155503" lon="8.408017575946902"><ele>15.2</ele><time>2026-04-24T16:31:31Z</time></trkpt><trkpt lat="44.186171340808194" lon="8.407916112131305"><ele>13.6</ele><time>2026-04-24T16:31:32Z</time></trkpt><trkpt lat="44.1861084191185" lon="8.407817342749635"><ele>12.0</ele><time>2026-04-24T16:31:33Z</time></trkpt><trkpt lat="44.18604761960657" lon="8.407729693636433"><ele>12.0</ele><time>2026-04-24T16:31:34Z</time></trkpt><trkpt lat="44.18597871383701" lon="8.407646261869226"><ele>12.0</ele><time>2026-04-24T16:31:35Z</time></trkpt><trkpt lat="44.18590671982371" lon="8.407568366029803"><ele>12.0</ele><time>2026-04-24T16:31:36Z</time></trkpt><trkpt lat="44.18582810250101" lon="8.407495915890136"><ele>12.0</ele><time>2026-04-24T16:31:37Z</time></trkpt><trkpt lat="44.18574259653788" lon="8.407423501829864"><ele>12.0</ele><time>2026-04-24T16:31:38Z</time></trkpt><trkpt lat="44.185647813101" lon="8.407342853843577"><ele>12.75</ele><time>2026-04-24T16:31:39Z</time></trkpt><trkpt lat="44.185547609010605" lon="8.407258428563466"><ele>13.5</ele><time>2026-04-24T16:31:40Z</time></trkpt><trkpt lat="44.18543961263896" lon="8.40716970383768"><ele>14.25</ele><time>2026-04-24T16:31:41Z</time></trkpt><trkpt lat="44.18533916755667" lon="8.407087913688818"><ele>15.0</ele><time>2026-04-24T16:31:42Z</time></trkpt><trkpt lat="44.18523499180219" lon="8.406999341394554"><ele>15.0</ele><time>2026-04-24T16:31:43Z</time></trkpt><trkpt lat="44.18512951188957" lon="8.40691073876942"><ele>15.0</ele><time>2026-04-24T16:31:44Z</time></trkpt><trkpt lat="44.18503373522589" lon="8.406834036243595"><ele>15.0</ele><time>2026-04-24T16:31:45Z</time></trkpt><trkpt lat="44.18492893889955" lon="8.406749710737033"><ele>15.0</ele><time>2026-04-24T16:31:46Z</time></trkpt><trkpt lat="44.18482139497758" lon="8.406663617060154"><ele>12.0</ele><time>2026-04-24T16:31:47Z</time></trkpt><trkpt lat="44.18472415981517" lon="8.406580377938853"><ele>9.0</ele><time>2026-04-24T16:31:48Z</time></trkpt><trkpt lat="44.18462435058803" lon="8.406493418814549"><ele>6.0</ele><time>2026-04-24T16:31:49Z</time></trkpt><trkpt lat="44.18452903288709" lon="8.406415354326924"><ele>3.0</ele><time>2026-04-24T16:31:50Z</time></trkpt><trkpt lat="44.1844265983764" lon="8.406331260089322"><ele>4.0</ele><time>2026-04-24T16:31:51Z</time></trkpt><trkpt lat="44.18432601535556" lon="8.406244011801032"><ele>5.0</ele><time>2026-04-24T16:31:52Z</time></trkpt><trkpt lat="44.1842275759306" lon="8.40615863834703"><ele>6.0</ele><time>2026-04-24T16:31:53Z</time></trkpt><trkpt lat="44.18412589374866" lon="8.406065477128383"><ele>7.0</ele><time>2026-04-24T16:31:54Z</time></trkpt><trkpt lat="44.18402656333974" lon="8.405970722766158"><ele>8.25</ele><time>2026-04-24T16:31:55Z</time></trkpt><trkpt lat="44.18392950714782" lon="8.405876541477136"><ele>9.5</ele><time>2026-04-24T16:31:56Z</time></trkpt><trkpt lat="44.183829822997" lon="8.405773707130026"><ele>10.75</ele><time>2026-04-24T16:31:57Z</time></trkpt><trkpt lat="44.183733781862166" lon="8.405673169977996"><ele>12.0</ele><time>2026-04-24T16:31:58Z</time></trkpt><trkpt lat="44.183638418987165" lon="8.405570391992894"><ele>14.0</ele><time>2026-04-24T16:31:59Z</time></trkpt><trkpt lat="44.18354343868935" lon="8.405470156938621"><ele>16.0</ele><time>2026-04-24T16:32:00Z</time></trkpt><trkpt lat="44.18345732703097" lon="8.405373606357198"><ele>18.0</ele><time>2026-04-24T16:32:01Z</time></trkpt><trkpt lat="44.18338222717512" lon="8.405275491073896"><ele>20.0</ele><time>2026-04-24T16:32:02Z</time></trkpt><trkpt lat="44.18331573830266" lon="8.405168931434885"><ele>22.0</ele><time>2026-04-24T16:32:03Z</time></trkpt><trkpt lat="44.18325307834661" lon="8.405054075608877"><ele>22.0</ele><time>2026-04-24T16:32:04Z</time></trkpt><trkpt lat="44.18319082881811" lon="8.404931163039665"><ele>22.0</ele><time>2026-04-24T16:32:05Z</time></trkpt><trkpt lat="44.183126463709264" lon="8.404803041534821"><ele>22.0</ele><time>2026-04-24T16:32:06Z</time></trkpt><trkpt lat="44.18305617235848" lon="8.404663970736268"><ele>22.0</ele><time>2026-04-24T16:32:07.015Z</time></trkpt><trkpt lat="44.1829867395661" lon="8.404530404533016"><ele>20.5</ele><time>2026-04-24T16:32:08.018Z</time></trkpt><trkpt lat="44.182920415474406" lon="8.404399212272713"><ele>19.0</ele><time>2026-04-24T16:32:09.017Z</time></trkpt><trkpt lat="44.18285199398587" lon="8.404267902444643"><ele>17.5</ele><time>2026-04-24T16:32:10.02Z</time></trkpt><trkpt lat="44.18278284350527" lon="8.404133985271896"><ele>16.0</ele><time>2026-04-24T16:32:11.021Z</time></trkpt><trkpt lat="44.182685868448814" lon="8.403893697697914"><ele>15.25</ele><time>2026-04-24T16:32:14Z</time></trkpt><trkpt lat="44.182636766225166" lon="8.40376814002454"><ele>14.5</ele><time>2026-04-24T16:32:15Z</time></trkpt><trkpt lat="44.1825620622663" lon="8.403537711135838"><ele>13.75</ele><time>2026-04-24T16:32:16Z</time></trkpt><trkpt lat="44.18254966061787" lon="8.403366043102395"><ele>13.0</ele><time>2026-04-24T16:32:17Z</time></trkpt><trkpt lat="44.18247233754444" lon="8.403206002983092"><ele>13.0</ele><time>2026-04-24T16:32:18Z</time></trkpt><trkpt lat="44.18244633080832" lon="8.40303457587645"><ele>13.0</ele><time>2026-04-24T16:32:19Z</time></trkpt><trkpt lat="44.18241131661042" lon="8.40289163067927"><ele>13.0</ele><time>2026-04-24T16:32:20Z</time></trkpt><trkpt lat="44.18238449503719" lon="8.40276030333767"><ele>13.0</ele><time>2026-04-24T16:32:21Z</time></trkpt><trkpt lat="44.182357666138685" lon="8.402639045930636"><ele>13.0</ele><time>2026-04-24T16:32:22Z</time></trkpt><trkpt lat="44.18233683527015" lon="8.402519690305983"><ele>12.4</ele><time>2026-04-24T16:32:23Z</time></trkpt><trkpt lat="44.182314771660714" lon="8.402407791049239"><ele>11.8</ele><time>2026-04-24T16:32:24Z</time></trkpt><trkpt lat="44.182289244641886" lon="8.402292453502637"><ele>11.2</ele><time>2026-04-24T16:32:25Z</time></trkpt><trkpt lat="44.182261059689345" lon="8.402159254408787"><ele>10.6</ele><time>2026-04-24T16:32:26Z</time></trkpt><trkpt lat="44.182231934110156" lon="8.402021459156677"><ele>10.0</ele><time>2026-04-24T16:32:27Z</time></trkpt><trkpt lat="44.18220242383412" lon="8.401887284646035"><ele>10.0</ele><time>2026-04-24T16:32:28Z</time></trkpt><trkpt lat="44.18216874476756" lon="8.401738151123936"><ele>10.0</ele><time>2026-04-24T16:32:29Z</time></trkpt><trkpt lat="44.1821382281259" lon="8.401582860631766"><ele>10.0</ele><time>2026-04-24T16:32:30Z</time></trkpt><trkpt lat="44.182106532473476" lon="8.401442348744022"><ele>10.0</ele><time>2026-04-24T16:32:31Z</time></trkpt><trkpt lat="44.18206997883856" lon="8.401291320715314"><ele>10.0</ele><time>2026-04-24T16:32:32Z</time></trkpt><trkpt lat="44.182038298088735" lon="8.401142495475856"><ele>9.8</ele><time>2026-04-24T16:32:33Z</time></trkpt><trkpt lat="44.18200516051009" lon="8.40100706453453"><ele>9.6</ele><time>2026-04-24T16:32:34Z</time></trkpt><trkpt lat="44.18197393968582" lon="8.40086248166742"><ele>9.4</ele><time>2026-04-24T16:32:35Z</time></trkpt><trkpt lat="44.18194367627273" lon="8.400726000683802"><ele>9.2</ele><time>2026-04-24T16:32:36Z</time></trkpt><trkpt lat="44.18191620535264" lon="8.400596733211884"><ele>9.0</ele><time>2026-04-24T16:32:37Z</time></trkpt><trkpt lat="44.1818900982401" lon="8.400466869498166"><ele>9.0</ele><time>2026-04-24T16:32:38Z</time></trkpt><trkpt lat="44.181861172498024" lon="8.400339099975705"><ele>9.0</ele><time>2026-04-24T16:32:39Z</time></trkpt><trkpt lat="44.18183186588292" lon="8.400206624254045"><ele>9.0</ele><time>2026-04-24T16:32:40Z</time></trkpt><trkpt lat="44.181806132421016" lon="8.400086046077448"><ele>9.0</ele><time>2026-04-24T16:32:41Z</time></trkpt><trkpt lat="44.18177815430606" lon="8.399950907260044"><ele>9.0</ele><time>2026-04-24T16:32:42Z</time></trkpt><trkpt lat="44.181755996073406" lon="8.39981755060757"><ele>9.0</ele><time>2026-04-24T16:32:43Z</time></trkpt><trkpt lat="44.18173891994007" lon="8.399684064285305"><ele>9.0</ele><time>2026-04-24T16:32:44Z</time></trkpt><trkpt lat="44.181725836073426" lon="8.399550242236687"><ele>9.0</ele><time>2026-04-24T16:32:45Z</time></trkpt><trkpt lat="44.181714497580906" lon="8.399416170610094"><ele>9.0</ele><time>2026-04-24T16:32:46Z</time></trkpt><trkpt lat="44.181708206102826" lon="8.399281252541478"><ele>9.0</ele><time>2026-04-24T16:32:47Z</time></trkpt><trkpt lat="44.18170068809757" lon="8.399136126369875"><ele>9.0</ele><time>2026-04-24T16:32:48Z</time></trkpt><trkpt lat="44.18169895954594" lon="8.398995738117458"><ele>9.0</ele><time>2026-04-24T16:32:49Z</time></trkpt><trkpt lat="44.18169544498074" lon="8.398842255432541"><ele>9.0</ele><time>2026-04-24T16:32:50Z</time></trkpt><trkpt lat="44.18169360632749" lon="8.398701564161206"><ele>9.0</ele><time>2026-04-24T16:32:51Z</time></trkpt><trkpt lat="44.18169424570463" lon="8.39855898832622"><ele>9.0</ele><time>2026-04-24T16:32:52Z</time></trkpt><trkpt lat="44.181690908856595" lon="8.398411135157598"><ele>8.8</ele><time>2026-04-24T16:32:53Z</time></trkpt><trkpt lat="44.181692086795266" lon="8.398270076663435"><ele>8.600000000000001</ele><time>2026-04-24T16:32:54Z</time></trkpt><trkpt lat="44.18168746207719" lon="8.39812039401122"><ele>8.4</ele><time>2026-04-24T16:32:55Z</time></trkpt><trkpt lat="44.18168609073622" lon="8.397964755911985"><ele>8.200000000000001</ele><time>2026-04-24T16:32:56Z</time></trkpt><trkpt lat="44.181683177069765" lon="8.397823148252236"><ele>8.0</ele><time>2026-04-24T16:32:57Z</time></trkpt><trkpt lat="44.18167994158141" lon="8.397671373489816"><ele>7.6000000000000005</ele><time>2026-04-24T16:32:58Z</time></trkpt><trkpt lat="44.18167719168511" lon="8.397518741632432"><ele>7.200000000000001</ele><time>2026-04-24T16:32:59Z</time></trkpt><trkpt lat="44.181675029447135" lon="8.397375595128704"><ele>6.8</ele><time>2026-04-24T16:33:00Z</time></trkpt><trkpt lat="44.181673609307246" lon="8.39722168929155"><ele>6.4</ele><time>2026-04-24T16:33:01Z</time></trkpt><trkpt lat="44.18167246663989" lon="8.39707971061496"><ele>6.0</ele><time>2026-04-24T16:33:02Z</time></trkpt><trkpt lat="44.181670060646795" lon="8.396944110737927"><ele>6.0</ele><time>2026-04-24T16:33:03Z</time></trkpt><trkpt lat="44.18166792010685" lon="8.39680212089236"><ele>6.0</ele><time>2026-04-24T16:33:04Z</time></trkpt><trkpt lat="44.18166659286827" lon="8.396671951847088"><ele>6.0</ele><time>2026-04-24T16:33:05Z</time></trkpt><trkpt lat="44.18166411160124" lon="8.396536354326578"><ele>6.0</ele><time>2026-04-24T16:33:06Z</time></trkpt><trkpt lat="44.18166185259871" lon="8.396392979047665"><ele>6.0</ele><time>2026-04-24T16:33:07Z</time></trkpt><trkpt lat="44.18165974377327" lon="8.396252985474488"><ele>6.199999999999999</ele><time>2026-04-24T16:33:08Z</time></trkpt><trkpt lat="44.18165761642436" lon="8.396112440761557"><ele>6.3999999999999995</ele><time>2026-04-24T16:33:09Z</time></trkpt><trkpt lat="44.181655656766125" lon="8.395968129309276"><ele>6.6</ele><time>2026-04-24T16:33:10Z</time></trkpt><trkpt lat="44.18165155116026" lon="8.395828546445788"><ele>6.8</ele><time>2026-04-24T16:33:11Z</time></trkpt><trkpt lat="44.18165025310889" lon="8.395680441708633"><ele>7.0</ele><time>2026-04-24T16:33:12Z</time></trkpt><trkpt lat="44.18164713318695" lon="8.395538077438681"><ele>7.199999999999999</ele><time>2026-04-24T16:33:13Z</time></trkpt><trkpt lat="44.181645646062506" lon="8.395389192440328"><ele>7.3999999999999995</ele><time>2026-04-24T16:33:14Z</time></trkpt><trkpt lat="44.18164349945118" lon="8.395237097183866"><ele>7.6000000000000005</ele><time>2026-04-24T16:33:15Z</time></trkpt><trkpt lat="44.18164223436894" lon="8.39509465021823"><ele>7.800000000000001</ele><time>2026-04-24T16:33:16Z</time></trkpt><trkpt lat="44.18164032427864" lon="8.394940673965001"><ele>8.0</ele><time>2026-04-24T16:33:17Z</time></trkpt><trkpt lat="44.181640517738" lon="8.394798014279974"><ele>8.0</ele><time>2026-04-24T16:33:18Z</time></trkpt><trkpt lat="44.18163852129776" lon="8.394650213784692"><ele>8.0</ele><time>2026-04-24T16:33:19Z</time></trkpt><trkpt lat="44.18163749536952" lon="8.394503174002903"><ele>8.0</ele><time>2026-04-24T16:33:20Z</time></trkpt><trkpt lat="44.18163445466559" lon="8.394360724696963"><ele>8.0</ele><time>2026-04-24T16:33:21Z</time></trkpt><trkpt lat="44.181631369265496" lon="8.394222443218041"><ele>8.0</ele><time>2026-04-24T16:33:22Z</time></trkpt><trkpt lat="44.18162812834825" lon="8.39406902274766"><ele>8.0</ele><time>2026-04-24T16:33:23Z</time></trkpt><trkpt lat="44.181626175315884" lon="8.393919448198215"><ele>8.0</ele><time>2026-04-24T16:33:24Z</time></trkpt><trkpt lat="44.18162213135065" lon="8.39375984849094"><ele>8.0</ele><time>2026-04-24T16:33:25Z</time></trkpt><trkpt lat="44.181619973164146" lon="8.393612624774878"><ele>8.0</ele><time>2026-04-24T16:33:26Z</time></trkpt><trkpt lat="44.18161678243722" lon="8.39346523936663"><ele>8.0</ele><time>2026-04-24T16:33:27Z</time></trkpt><trkpt lat="44.181614754279565" lon="8.393310703770348"><ele>7.800000000000001</ele><time>2026-04-24T16:33:28Z</time></trkpt><trkpt lat="44.18160991708536" lon="8.393164730809431"><ele>7.6000000000000005</ele><time>2026-04-24T16:33:29Z</time></trkpt><trkpt lat="44.18160852571161" lon="8.393013882790031"><ele>7.3999999999999995</ele><time>2026-04-24T16:33:30Z</time></trkpt><trkpt lat="44.18160453102814" lon="8.392864294985587"><ele>7.199999999999999</ele><time>2026-04-24T16:33:31Z</time></trkpt><trkpt lat="44.18160153979874" lon="8.392710620732716"><ele>7.0</ele><time>2026-04-24T16:33:32Z</time></trkpt><trkpt lat="44.181598838514745" lon="8.392568637738828"><ele>6.8</ele><time>2026-04-24T16:33:33Z</time></trkpt><trkpt lat="44.18159526622513" lon="8.392417062975007"><ele>6.6</ele><time>2026-04-24T16:33:34Z</time></trkpt><trkpt lat="44.18159222557087" lon="8.39226775857256"><ele>6.3999999999999995</ele><time>2026-04-24T16:33:35Z</time></trkpt><trkpt lat="44.18159035625521" lon="8.392118140696413"><ele>6.199999999999999</ele><time>2026-04-24T16:33:36Z</time></trkpt><trkpt lat="44.18158633503315" lon="8.391964314133157"><ele>6.0</ele><time>2026-04-24T16:33:37Z</time></trkpt><trkpt lat="44.18158418204954" lon="8.39181443769405"><ele>6.4</ele><time>2026-04-24T16:33:38Z</time></trkpt><trkpt lat="44.18158292679075" lon="8.391653230174196"><ele>6.8</ele><time>2026-04-24T16:33:39Z</time></trkpt><trkpt lat="44.181582055397975" lon="8.391506881168471"><ele>7.200000000000001</ele><time>2026-04-24T16:33:40Z</time></trkpt><trkpt lat="44.18158221305715" lon="8.391355203495124"><ele>7.6000000000000005</ele><time>2026-04-24T16:33:41Z</time></trkpt><trkpt lat="44.18158321175335" lon="8.391205032054945"><ele>8.0</ele><time>2026-04-24T16:33:42Z</time></trkpt><trkpt lat="44.18157929291472" lon="8.391065166972895"><ele>8.0</ele><time>2026-04-24T16:33:43Z</time></trkpt><trkpt lat="44.181577596914394" lon="8.39091909040606"><ele>8.0</ele><time>2026-04-24T16:33:44Z</time></trkpt><trkpt lat="44.18157352293908" lon="8.390766866047812"><ele>8.0</ele><time>2026-04-24T16:33:45Z</time></trkpt><trkpt lat="44.181574680559045" lon="8.39062409696401"><ele>8.0</ele><time>2026-04-24T16:33:46Z</time></trkpt><trkpt lat="44.181571946364784" lon="8.390488755034022"><ele>8.0</ele><time>2026-04-24T16:33:47Z</time></trkpt><trkpt lat="44.1815692624884" lon="8.39033986250512"><ele>8.4</ele><time>2026-04-24T16:33:48Z</time></trkpt><trkpt lat="44.18156290355373" lon="8.390181346581391"><ele>8.8</ele><time>2026-04-24T16:33:49Z</time></trkpt><trkpt lat="44.1815650668942" lon="8.39004838955383"><ele>9.2</ele><time>2026-04-24T16:33:50Z</time></trkpt><trkpt lat="44.18156317321238" lon="8.389903529794472"><ele>9.6</ele><time>2026-04-24T16:33:51Z</time></trkpt><trkpt lat="44.18155975176546" lon="8.389756217478514"><ele>10.0</ele><time>2026-04-24T16:33:52Z</time></trkpt><trkpt lat="44.181556731397144" lon="8.389603788209739"><ele>10.0</ele><time>2026-04-24T16:33:53Z</time></trkpt><trkpt lat="44.181553313055424" lon="8.389447748671126"><ele>10.0</ele><time>2026-04-24T16:33:54Z</time></trkpt><trkpt lat="44.18155517931567" lon="8.389297454307751"><ele>10.0</ele><time>2026-04-24T16:33:55Z</time></trkpt><trkpt lat="44.181550006107805" lon="8.389150452309048"><ele>10.0</ele><time>2026-04-24T16:33:56Z</time></trkpt><trkpt lat="44.181545701954335" lon="8.388991199026306"><ele>10.0</ele><time>2026-04-24T16:33:57Z</time></trkpt><trkpt lat="44.18154369420614" lon="8.388833831170945"><ele>9.75</ele><time>2026-04-24T16:33:58Z</time></trkpt><trkpt lat="44.181539387018965" lon="8.388666624394585"><ele>9.5</ele><time>2026-04-24T16:33:59Z</time></trkpt><trkpt lat="44.18153820700091" lon="8.388511378266127"><ele>9.25</ele><time>2026-04-24T16:34:00Z</time></trkpt><trkpt lat="44.181535508093866" lon="8.388350687086055"><ele>9.0</ele><time>2026-04-24T16:34:01Z</time></trkpt><trkpt lat="44.18153108062045" lon="8.388184205931418"><ele>9.0</ele><time>2026-04-24T16:34:02Z</time></trkpt><trkpt lat="44.18152711886279" lon="8.388010207942004"><ele>9.0</ele><time>2026-04-24T16:34:03Z</time></trkpt><trkpt lat="44.18152334454163" lon="8.387847325533361"><ele>9.0</ele><time>2026-04-24T16:34:04Z</time></trkpt><trkpt lat="44.18151954030339" lon="8.387666660794796"><ele>9.0</ele><time>2026-04-24T16:34:05Z</time></trkpt><trkpt lat="44.181514874381726" lon="8.387513807240762"><ele>8.2</ele><time>2026-04-24T16:34:06Z</time></trkpt><trkpt lat="44.18151066832531" lon="8.387359356051178"><ele>7.4</ele><time>2026-04-24T16:34:07Z</time></trkpt><trkpt lat="44.181503053370356" lon="8.387204009207474"><ele>6.6</ele><time>2026-04-24T16:34:08Z</time></trkpt><trkpt lat="44.18149355718055" lon="8.38706307742234"><ele>5.8</ele><time>2026-04-24T16:34:09Z</time></trkpt><trkpt lat="44.18148123260801" lon="8.386918857248002"><ele>5.0</ele><time>2026-04-24T16:34:10Z</time></trkpt><trkpt lat="44.18146444168138" lon="8.386781809247141"><ele>5.0</ele><time>2026-04-24T16:34:11Z</time></trkpt><trkpt lat="44.18143958525758" lon="8.386657233810173"><ele>5.0</ele><time>2026-04-24T16:34:12Z</time></trkpt><trkpt lat="44.18141150499134" lon="8.386537181305021"><ele>5.0</ele><time>2026-04-24T16:34:13Z</time></trkpt><trkpt lat="44.18137432787254" lon="8.38640647624858"><ele>5.0</ele><time>2026-04-24T16:34:14Z</time></trkpt><trkpt lat="44.18133336782971" lon="8.38627974900138"><ele>5.0</ele><time>2026-04-24T16:34:15Z</time></trkpt><trkpt lat="44.18128990042018" lon="8.386140397492408"><ele>5.5</ele><time>2026-04-24T16:34:16Z</time></trkpt><trkpt lat="44.18124625576468" lon="8.38599537474432"><ele>6.0</ele><time>2026-04-24T16:34:17Z</time></trkpt><trkpt lat="44.181196820018194" lon="8.385837759878829"><ele>6.5</ele><time>2026-04-24T16:34:18Z</time></trkpt><trkpt lat="44.18115462779464" lon="8.385686735468981"><ele>7.0</ele><time>2026-04-24T16:34:19Z</time></trkpt><trkpt lat="44.18111389913062" lon="8.385540037235355"><ele>7.3999999999999995</ele><time>2026-04-24T16:34:20Z</time></trkpt><trkpt lat="44.181082594676816" lon="8.385399174568871"><ele>7.799999999999999</ele><time>2026-04-24T16:34:21Z</time></trkpt><trkpt lat="44.18105347393606" lon="8.385258390435691"><ele>8.2</ele><time>2026-04-24T16:34:22Z</time></trkpt><trkpt lat="44.181029625150494" lon="8.385113736106446"><ele>8.6</ele><time>2026-04-24T16:34:23Z</time></trkpt><trkpt lat="44.18101256207056" lon="8.384977763298805"><ele>9.0</ele><time>2026-04-24T16:34:24Z</time></trkpt><trkpt lat="44.180997363852775" lon="8.38483129413804"><ele>9.0</ele><time>2026-04-24T16:34:25Z</time></trkpt><trkpt lat="44.1809834196784" lon="8.38467950699645"><ele>9.0</ele><time>2026-04-24T16:34:26Z</time></trkpt><trkpt lat="44.18096948412778" lon="8.384517260060866"><ele>9.0</ele><time>2026-04-24T16:34:27Z</time></trkpt><trkpt lat="44.180954305943" lon="8.384362070723315"><ele>9.0</ele><time>2026-04-24T16:34:28Z</time></trkpt><trkpt lat="44.180939578316654" lon="8.384211520242431"><ele>9.0</ele><time>2026-04-24T16:34:29Z</time></trkpt><trkpt lat="44.180923437013" lon="8.384053319842607"><ele>9.4</ele><time>2026-04-24T16:34:30Z</time></trkpt><trkpt lat="44.18090333161434" lon="8.383890564917435"><ele>9.8</ele><time>2026-04-24T16:34:31Z</time></trkpt><trkpt lat="44.18088162400347" lon="8.383737979488362"><ele>10.200000000000001</ele><time>2026-04-24T16:34:32Z</time></trkpt><trkpt lat="44.18085718551078" lon="8.38359959844501"><ele>10.600000000000001</ele><time>2026-04-24T16:34:33Z</time></trkpt><trkpt lat="44.1808255335557" lon="8.383466375747187"><ele>11.0</ele><time>2026-04-24T16:34:34Z</time></trkpt><trkpt lat="44.180786354296394" lon="8.383331345001714"><ele>10.0</ele><time>2026-04-24T16:34:35Z</time></trkpt><trkpt lat="44.18073979481877" lon="8.383199567888058"><ele>9.0</ele><time>2026-04-24T16:34:36Z</time></trkpt><trkpt lat="44.18068647265078" lon="8.383071004738243"><ele>8.0</ele><time>2026-04-24T16:34:37Z</time></trkpt><trkpt lat="44.18062878923304" lon="8.382949234222554"><ele>7.0</ele><time>2026-04-24T16:34:38Z</time></trkpt><trkpt lat="44.180570345984044" lon="8.382816445879978"><ele>6.0</ele><time>2026-04-24T16:34:39Z</time></trkpt><trkpt lat="44.180512822568915" lon="8.382696922785069"><ele>6.0</ele><time>2026-04-24T16:34:40Z</time></trkpt><trkpt lat="44.18044995758492" lon="8.382569843408666"><ele>6.0</ele><time>2026-04-24T16:34:41Z</time></trkpt><trkpt lat="44.180386949814164" lon="8.382443308238322"><ele>6.0</ele><time>2026-04-24T16:34:42Z</time></trkpt><trkpt lat="44.180324221822886" lon="8.38231113675892"><ele>6.0</ele><time>2026-04-24T16:34:43Z</time></trkpt><trkpt lat="44.180270685719755" lon="8.38218417296875"><ele>6.0</ele><time>2026-04-24T16:34:44Z</time></trkpt><trkpt lat="44.18022131599546" lon="8.382053442981128"><ele>7.199999999999999</ele><time>2026-04-24T16:34:45Z</time></trkpt><trkpt lat="44.18017579514935" lon="8.38191715687869"><ele>8.399999999999999</ele><time>2026-04-24T16:34:46Z</time></trkpt><trkpt lat="44.18013434197032" lon="8.38177434558559"><ele>9.6</ele><time>2026-04-24T16:34:47Z</time></trkpt><trkpt lat="44.180098798018555" lon="8.38163065847492"><ele>10.799999999999999</ele><time>2026-04-24T16:34:48Z</time></trkpt><trkpt lat="44.18006540845507" lon="8.38149220308077"><ele>12.0</ele><time>2026-04-24T16:34:49Z</time></trkpt><trkpt lat="44.18003521062592" lon="8.381345242418577"><ele>13.2</ele><time>2026-04-24T16:34:50Z</time></trkpt><trkpt lat="44.18000330647758" lon="8.381193249875613"><ele>14.399999999999999</ele><time>2026-04-24T16:34:51Z</time></trkpt><trkpt lat="44.179972432275264" lon="8.381038890582044"><ele>15.600000000000001</ele><time>2026-04-24T16:34:52Z</time></trkpt><trkpt lat="44.17994538318056" lon="8.380897837148893"><ele>16.8</ele><time>2026-04-24T16:34:53Z</time></trkpt><trkpt lat="44.17991528501237" lon="8.380744607741622"><ele>18.0</ele><time>2026-04-24T16:34:54Z</time></trkpt><trkpt lat="44.17988292315306" lon="8.38058948540573"><ele>19.5</ele><time>2026-04-24T16:34:55Z</time></trkpt><trkpt lat="44.17985106679009" lon="8.38043103413087"><ele>21.0</ele><time>2026-04-24T16:34:56Z</time></trkpt><trkpt lat="44.1798199596138" lon="8.380273126805442"><ele>22.5</ele><time>2026-04-24T16:34:57Z</time></trkpt><trkpt lat="44.17978769602309" lon="8.380120599784671"><ele>24.0</ele><time>2026-04-24T16:34:58Z</time></trkpt><trkpt lat="44.17975557818642" lon="8.379958959190102"><ele>20.0</ele><time>2026-04-24T16:34:59Z</time></trkpt><trkpt lat="44.17972526413238" lon="8.379800711703364"><ele>16.0</ele><time>2026-04-24T16:35:00Z</time></trkpt><trkpt lat="44.17969370637141" lon="8.379645842564766"><ele>12.0</ele><time>2026-04-24T16:35:01Z</time></trkpt><trkpt lat="44.179661209223156" lon="8.379487807721945"><ele>8.0</ele><time>2026-04-24T16:35:02Z</time></trkpt><trkpt lat="44.179631199870016" lon="8.379329119390649"><ele>8.0</ele><time>2026-04-24T16:35:03Z</time></trkpt><trkpt lat="44.17960090088144" lon="8.379171531272009"><ele>8.0</ele><time>2026-04-24T16:35:04Z</time></trkpt><trkpt lat="44.179568471032596" lon="8.379010609165748"><ele>8.0</ele><time>2026-04-24T16:35:05Z</time></trkpt><trkpt lat="44.1795357124469" lon="8.378857277968025"><ele>8.0</ele><time>2026-04-24T16:35:06Z</time></trkpt><trkpt lat="44.17950594510614" lon="8.378706121261681"><ele>8.75</ele><time>2026-04-24T16:35:07Z</time></trkpt><trkpt lat="44.17947511041463" lon="8.37854998041194"><ele>9.5</ele><time>2026-04-24T16:35:08Z</time></trkpt><trkpt lat="44.17944412620149" lon="8.378395598775246"><ele>10.25</ele><time>2026-04-24T16:35:09Z</time></trkpt><trkpt lat="44.17941324658621" lon="8.378237856745875"><ele>11.0</ele><time>2026-04-24T16:35:10Z</time></trkpt><trkpt lat="44.17938563636087" lon="8.378086140367989"><ele>11.75</ele><time>2026-04-24T16:35:11Z</time></trkpt><trkpt lat="44.17935563264671" lon="8.37793219553369"><ele>12.5</ele><time>2026-04-24T16:35:12Z</time></trkpt><trkpt lat="44.17932544392328" lon="8.377774421334882"><ele>13.25</ele><time>2026-04-24T16:35:13Z</time></trkpt><trkpt lat="44.17929515988799" lon="8.377620342056693"><ele>14.0</ele><time>2026-04-24T16:35:14Z</time></trkpt><trkpt lat="44.179267478505984" lon="8.377470494174904"><ele>14.0</ele><time>2026-04-24T16:35:15Z</time></trkpt><trkpt lat="44.17924236471251" lon="8.377313508932364"><ele>14.0</ele><time>2026-04-24T16:35:16Z</time></trkpt><trkpt lat="44.179211036106516" lon="8.377149894276009"><ele>14.0</ele><time>2026-04-24T16:35:17Z</time></trkpt><trkpt lat="44.17918015949501" lon="8.377000315016161"><ele>14.0</ele><time>2026-04-24T16:35:18Z</time></trkpt><trkpt lat="44.1791469228112" lon="8.37685039149032"><ele>15.5</ele><time>2026-04-24T16:35:19Z</time></trkpt><trkpt lat="44.1791126206238" lon="8.376699476295789"><ele>17.0</ele><time>2026-04-24T16:35:20Z</time></trkpt><trkpt lat="44.179075480500465" lon="8.376545486464979"><ele>18.5</ele><time>2026-04-24T16:35:21Z</time></trkpt><trkpt lat="44.17904013882926" lon="8.376401413615019"><ele>20.0</ele><time>2026-04-24T16:35:22Z</time></trkpt><trkpt lat="44.17900353852109" lon="8.376249812906716"><ele>17.2</ele><time>2026-04-24T16:35:23Z</time></trkpt><trkpt lat="44.178970436392284" lon="8.376097716688488"><ele>14.4</ele><time>2026-04-24T16:35:24Z</time></trkpt><trkpt lat="44.1789395978222" lon="8.375945218210783"><ele>11.6</ele><time>2026-04-24T16:35:25Z</time></trkpt><trkpt lat="44.17891003366235" lon="8.375800082978952"><ele>8.8</ele><time>2026-04-24T16:35:26Z</time></trkpt><trkpt lat="44.17888138535119" lon="8.37564817472173"><ele>6.0</ele><time>2026-04-24T16:35:27Z</time></trkpt><trkpt lat="44.17885225371615" lon="8.375490867898034"><ele>6.0</ele><time>2026-04-24T16:35:28Z</time></trkpt><trkpt lat="44.17882659016046" lon="8.3753300571308"><ele>6.0</ele><time>2026-04-24T16:35:29Z</time></trkpt><trkpt lat="44.17880194546979" lon="8.375168769683857"><ele>6.0</ele><time>2026-04-24T16:35:30Z</time></trkpt><trkpt lat="44.17877687423656" lon="8.374999761848843"><ele>6.0</ele><time>2026-04-24T16:35:31Z</time></trkpt><trkpt lat="44.178754127294056" lon="8.37484687960964"><ele>6.0</ele><time>2026-04-24T16:35:32Z</time></trkpt><trkpt lat="44.178733484885605" lon="8.374689323876362"><ele>6.0</ele><time>2026-04-24T16:35:33Z</time></trkpt><trkpt lat="44.178708370371666" lon="8.374525688850895"><ele>6.0</ele><time>2026-04-24T16:35:34Z</time></trkpt><trkpt lat="44.17868393291821" lon="8.374364589376093"><ele>6.0</ele><time>2026-04-24T16:35:35Z</time></trkpt><trkpt lat="44.17865590258777" lon="8.374201118521782"><ele>6.75</ele><time>2026-04-24T16:35:36Z</time></trkpt><trkpt lat="44.178627726784626" lon="8.374040377409072"><ele>7.5</ele><time>2026-04-24T16:35:37Z</time></trkpt><trkpt lat="44.1785953168793" lon="8.37387402073325"><ele>8.25</ele><time>2026-04-24T16:35:38Z</time></trkpt><trkpt lat="44.178561542067904" lon="8.373706765223163"><ele>9.0</ele><time>2026-04-24T16:35:39Z</time></trkpt><trkpt lat="44.17853239353718" lon="8.373547115260868"><ele>9.0</ele><time>2026-04-24T16:35:40Z</time></trkpt><trkpt lat="44.17849845226112" lon="8.373383116123088"><ele>9.0</ele><time>2026-04-24T16:35:41Z</time></trkpt><trkpt lat="44.17846200399255" lon="8.373216108921557"><ele>9.0</ele><time>2026-04-24T16:35:42Z</time></trkpt><trkpt lat="44.178427677046415" lon="8.373055269547"><ele>9.0</ele><time>2026-04-24T16:35:43Z</time></trkpt><trkpt lat="44.17839262292442" lon="8.372896278325136"><ele>10.25</ele><time>2026-04-24T16:35:44Z</time></trkpt><trkpt lat="44.1783542263463" lon="8.372728444919497"><ele>11.5</ele><time>2026-04-24T16:35:45Z</time></trkpt><trkpt lat="44.178316557786644" lon="8.372560544942406"><ele>12.75</ele><time>2026-04-24T16:35:46Z</time></trkpt><trkpt lat="44.1782839426151" lon="8.372407537319825"><ele>14.0</ele><time>2026-04-24T16:35:47Z</time></trkpt><trkpt lat="44.17824395146907" lon="8.372248400085233"><ele>15.5</ele><time>2026-04-24T16:35:48Z</time></trkpt><trkpt lat="44.17820464433215" lon="8.372086947713475"><ele>17.0</ele><time>2026-04-24T16:35:49Z</time></trkpt><trkpt lat="44.17816488460041" lon="8.371926558193032"><ele>18.5</ele><time>2026-04-24T16:35:50Z</time></trkpt><trkpt lat="44.17812933973358" lon="8.37177608437297"><ele>20.0</ele><time>2026-04-24T16:35:51Z</time></trkpt><trkpt lat="44.17809196989523" lon="8.371620105454408"><ele>16.25</ele><time>2026-04-24T16:35:52Z</time></trkpt><trkpt lat="44.178051823244" lon="8.371464656792035"><ele>12.5</ele><time>2026-04-24T16:35:53Z</time></trkpt><trkpt lat="44.17801294261183" lon="8.371317291511916"><ele>8.75</ele><time>2026-04-24T16:35:54Z</time></trkpt><trkpt lat="44.1779671971062" lon="8.37116999688368"><ele>5.0</ele><time>2026-04-24T16:35:55Z</time></trkpt><trkpt lat="44.17791751233426" lon="8.371025454936465"><ele>5.0</ele><time>2026-04-24T16:35:56Z</time></trkpt><trkpt lat="44.177865930882895" lon="8.370881966956096"><ele>5.0</ele><time>2026-04-24T16:35:57Z</time></trkpt><trkpt lat="44.177809083618094" lon="8.370739741568398"><ele>5.0</ele><time>2026-04-24T16:35:58Z</time></trkpt><trkpt lat="44.177749986818945" lon="8.370597804588854"><ele>5.0</ele><time>2026-04-24T16:35:59Z</time></trkpt><trkpt lat="44.17768987403492" lon="8.370460761589522"><ele>7.8</ele><time>2026-04-24T16:36:00Z</time></trkpt><trkpt lat="44.17763321782637" lon="8.370338614754562"><ele>10.6</ele><time>2026-04-24T16:36:01Z</time></trkpt><trkpt lat="44.17757028822282" lon="8.370223613656874"><ele>13.399999999999999</ele><time>2026-04-24T16:36:02Z</time></trkpt><trkpt lat="44.177507210144526" lon="8.37012225590607"><ele>16.2</ele><time>2026-04-24T16:36:03Z</time></trkpt><trkpt lat="44.17744636328177" lon="8.370039497178459"><ele>19.0</ele><time>2026-04-24T16:36:04Z</time></trkpt><trkpt lat="44.17737251689544" lon="8.369952222205493"><ele>18.599999999999998</ele><time>2026-04-24T16:36:05Z</time></trkpt><trkpt lat="44.17728885850547" lon="8.369871143255912"><ele>18.2</ele><time>2026-04-24T16:36:06Z</time></trkpt><trkpt lat="44.17720178897998" lon="8.369787897573314"><ele>17.799999999999997</ele><time>2026-04-24T16:36:07Z</time></trkpt><trkpt lat="44.177110729344456" lon="8.369709532081849"><ele>17.4</ele><time>2026-04-24T16:36:08Z</time></trkpt><trkpt lat="44.177014700833375" lon="8.369633196901924"><ele>17.0</ele><time>2026-04-24T16:36:09Z</time></trkpt><trkpt lat="44.176914904397506" lon="8.369553091878426"><ele>17.0</ele><time>2026-04-24T16:36:10Z</time></trkpt><trkpt lat="44.17680733637508" lon="8.369475038442864"><ele>17.0</ele><time>2026-04-24T16:36:11Z</time></trkpt><trkpt lat="44.17670253059335" lon="8.36939763483926"><ele>17.0</ele><time>2026-04-24T16:36:12Z</time></trkpt><trkpt lat="44.176603082262766" lon="8.369318824119949"><ele>17.0</ele><time>2026-04-24T16:36:13Z</time></trkpt><trkpt lat="44.176515914794905" lon="8.369236207504654"><ele>19.6</ele><time>2026-04-24T16:36:14Z</time></trkpt><trkpt lat="44.176422537348095" lon="8.369151939998181"><ele>22.2</ele><time>2026-04-24T16:36:15Z</time></trkpt><trkpt lat="44.176342404857415" lon="8.369041904666842"><ele>24.8</ele><time>2026-04-24T16:36:16Z</time></trkpt><trkpt lat="44.17626426121718" lon="8.368944561246472"><ele>27.4</ele><time>2026-04-24T16:36:17Z</time></trkpt><trkpt lat="44.176193092797206" lon="8.368858455482616"><ele>30.0</ele><time>2026-04-24T16:36:18Z</time></trkpt><trkpt lat="44.17613203012376" lon="8.368788493464542"><ele>30.0</ele><time>2026-04-24T16:36:19Z</time></trkpt><trkpt lat="44.17606026255183" lon="8.36872685720265"><ele>30.0</ele><time>2026-04-24T16:36:20Z</time></trkpt><trkpt lat="44.1759806500852" lon="8.368673642716901"><ele>30.0</ele><time>2026-04-24T16:36:21Z</time></trkpt><trkpt lat="44.175902843749924" lon="8.368646373523463"><ele>30.0</ele><time>2026-04-24T16:36:22Z</time></trkpt><trkpt lat="44.1758146558248" lon="8.36862356640201"><ele>30.0</ele><time>2026-04-24T16:36:23Z</time></trkpt><trkpt lat="44.17571550088685" lon="8.368605852661513"><ele>30.0</ele><time>2026-04-24T16:36:24Z</time></trkpt><trkpt lat="44.17561293752654" lon="8.368593126184578"><ele>26.4</ele><time>2026-04-24T16:36:25Z</time></trkpt><trkpt lat="44.1755196718268" lon="8.368580602906995"><ele>22.8</ele><time>2026-04-24T16:36:26Z</time></trkpt><trkpt lat="44.175420441153925" lon="8.36856288401505"><ele>19.2</ele><time>2026-04-24T16:36:27Z</time></trkpt><trkpt lat="44.17531916196107" lon="8.368537532429835"><ele>15.6</ele><time>2026-04-24T16:36:28Z</time></trkpt><trkpt lat="44.1752256549778" lon="8.368507186100635"><ele>12.0</ele><time>2026-04-24T16:36:29Z</time></trkpt><trkpt lat="44.175136453277815" lon="8.368458306979289"><ele>12.0</ele><time>2026-04-24T16:36:30Z</time></trkpt><trkpt lat="44.175054304948006" lon="8.3683992766859"><ele>12.0</ele><time>2026-04-24T16:36:31Z</time></trkpt><trkpt lat="44.17497348312926" lon="8.368328874627492"><ele>12.0</ele><time>2026-04-24T16:36:32Z</time></trkpt><trkpt lat="44.17489385612763" lon="8.368245261521981"><ele>12.0</ele><time>2026-04-24T16:36:33Z</time></trkpt><trkpt lat="44.174815587182344" lon="8.368156786444404"><ele>12.0</ele><time>2026-04-24T16:36:34Z</time></trkpt><trkpt lat="44.17473802336758" lon="8.368066155313441"><ele>13.2</ele><time>2026-04-24T16:36:35Z</time></trkpt><trkpt lat="44.174656293682176" lon="8.367966650238904"><ele>14.399999999999999</ele><time>2026-04-24T16:36:36Z</time></trkpt><trkpt lat="44.17457048903135" lon="8.36786099205148"><ele>15.600000000000001</ele><time>2026-04-24T16:36:37Z</time></trkpt><trkpt lat="44.17448317114033" lon="8.367761250368005"><ele>16.8</ele><time>2026-04-24T16:36:38Z</time></trkpt><trkpt lat="44.174400117541225" lon="8.367654426779106"><ele>18.0</ele><time>2026-04-24T16:36:39Z</time></trkpt><trkpt lat="44.174324187298275" lon="8.36754839412972"><ele>18.0</ele><time>2026-04-24T16:36:40Z</time></trkpt><trkpt lat="44.174255877421984" lon="8.36743890320554"><ele>18.0</ele><time>2026-04-24T16:36:41Z</time></trkpt><trkpt lat="44.17419005618332" lon="8.36732467004773"><ele>18.0</ele><time>2026-04-24T16:36:42Z</time></trkpt><trkpt lat="44.17413443997299" lon="8.367205395368103"><ele>18.0</ele><time>2026-04-24T16:36:43Z</time></trkpt><trkpt lat="44.17408227476544" lon="8.367083251577789"><ele>18.0</ele><time>2026-04-24T16:36:44Z</time></trkpt><trkpt lat="44.17403112634668" lon="8.366950262300358"><ele>14.75</ele><time>2026-04-24T16:36:45Z</time></trkpt><trkpt lat="44.173980789290184" lon="8.36680809477168"><ele>11.5</ele><time>2026-04-24T16:36:46Z</time></trkpt><trkpt lat="44.1739306898253" lon="8.366670398323029"><ele>8.25</ele><time>2026-04-24T16:36:47Z</time></trkpt><trkpt lat="44.173882429854174" lon="8.366527448543106"><ele>5.0</ele><time>2026-04-24T16:36:48Z</time></trkpt><trkpt lat="44.17383409135968" lon="8.366385012575593"><ele>6.25</ele><time>2026-04-24T16:36:49Z</time></trkpt><trkpt lat="44.173784601721586" lon="8.366239511242801"><ele>7.5</ele><time>2026-04-24T16:36:50Z</time></trkpt><trkpt lat="44.173737964500916" lon="8.36610405408335"><ele>8.75</ele><time>2026-04-24T16:36:51Z</time></trkpt><trkpt lat="44.1736950160308" lon="8.36596673932062"><ele>10.0</ele><time>2026-04-24T16:36:52Z</time></trkpt><trkpt lat="44.17362918929939" lon="8.365802913999353"><ele>10.0</ele><time>2026-04-24T16:36:53Z</time></trkpt><trkpt lat="44.17358083553063" lon="8.365664442954293"><ele>10.0</ele><time>2026-04-24T16:36:54Z</time></trkpt><trkpt lat="44.17353698085428" lon="8.36553512700975"><ele>10.0</ele><time>2026-04-24T16:36:55Z</time></trkpt><trkpt lat="44.173499615856436" lon="8.365409235663105"><ele>10.0</ele><time>2026-04-24T16:36:56Z</time></trkpt><trkpt lat="44.173469990961316" lon="8.365278650827221"><ele>10.0</ele><time>2026-04-24T16:36:57Z</time></trkpt><trkpt lat="44.17344185294891" lon="8.365143972670518"><ele>12.0</ele><time>2026-04-24T16:36:58Z</time></trkpt><trkpt lat="44.17341591232144" lon="8.3650019426491"><ele>14.0</ele><time>2026-04-24T16:36:59Z</time></trkpt><trkpt lat="44.17343803129068" lon="8.364835379180168"><ele>16.0</ele><time>2026-04-24T16:37:00Z</time></trkpt><trkpt lat="44.17336282449483" lon="8.364689945616233"><ele>18.0</ele><time>2026-04-24T16:37:01Z</time></trkpt><trkpt lat="44.17333764685047" lon="8.364528801133126"><ele>21.0</ele><time>2026-04-24T16:37:02Z</time></trkpt><trkpt lat="44.17331148911338" lon="8.364369725939131"><ele>24.0</ele><time>2026-04-24T16:37:03Z</time></trkpt><trkpt lat="44.173285546609804" lon="8.364207475150579"><ele>27.0</ele><time>2026-04-24T16:37:04Z</time></trkpt><trkpt lat="44.173260165428054" lon="8.364052932466638"><ele>30.0</ele><time>2026-04-24T16:37:05Z</time></trkpt><trkpt lat="44.17323596569144" lon="8.363890351700151"><ele>33.25</ele><time>2026-04-24T16:37:06Z</time></trkpt><trkpt lat="44.17320933788739" lon="8.363722642040536"><ele>36.5</ele><time>2026-04-24T16:37:07Z</time></trkpt><trkpt lat="44.17318062560963" lon="8.363556603643554"><ele>39.75</ele><time>2026-04-24T16:37:08Z</time></trkpt><trkpt lat="44.17315103204932" lon="8.363398534689074"><ele>43.0</ele><time>2026-04-24T16:37:09Z</time></trkpt><trkpt lat="44.17312010935986" lon="8.363242565168754"><ele>35.0</ele><time>2026-04-24T16:37:10Z</time></trkpt><trkpt lat="44.17309174247307" lon="8.363084170654272"><ele>27.0</ele><time>2026-04-24T16:37:11Z</time></trkpt><trkpt lat="44.17306283162404" lon="8.362926372368797"><ele>19.0</ele><time>2026-04-24T16:37:12Z</time></trkpt><trkpt lat="44.173028655378104" lon="8.362764770297755"><ele>11.0</ele><time>2026-04-24T16:37:13Z</time></trkpt><trkpt lat="44.17299887395671" lon="8.3626146595209"><ele>11.0</ele><time>2026-04-24T16:37:14Z</time></trkpt><trkpt lat="44.17296836104952" lon="8.362465706125056"><ele>11.0</ele><time>2026-04-24T16:37:15Z</time></trkpt><trkpt lat="44.17293266022564" lon="8.362312552001573"><ele>11.0</ele><time>2026-04-24T16:37:16Z</time></trkpt><trkpt lat="44.17289748709718" lon="8.362158987273265"><ele>11.0</ele><time>2026-04-24T16:37:17Z</time></trkpt><trkpt lat="44.17285930248602" lon="8.362004091233219"><ele>13.5</ele><time>2026-04-24T16:37:18Z</time></trkpt><trkpt lat="44.172817642379876" lon="8.361844572075078"><ele>16.0</ele><time>2026-04-24T16:37:19Z</time></trkpt><trkpt lat="44.17277725292817" lon="8.361687656045634"><ele>18.5</ele><time>2026-04-24T16:37:20Z</time></trkpt><trkpt lat="44.172735054348614" lon="8.361531452772333"><ele>21.0</ele><time>2026-04-24T16:37:21Z</time></trkpt><trkpt lat="44.1726931178035" lon="8.361370499293304"><ele>22.25</ele><time>2026-04-24T16:37:22Z</time></trkpt><trkpt lat="44.172652204246276" lon="8.361224404071173"><ele>23.5</ele><time>2026-04-24T16:37:23Z</time></trkpt><trkpt lat="44.17260975592997" lon="8.36107219842715"><ele>24.75</ele><time>2026-04-24T16:37:24Z</time></trkpt><trkpt lat="44.1725732778135" lon="8.360928776820671"><ele>26.0</ele><time>2026-04-24T16:37:25.018Z</time></trkpt><trkpt lat="44.1725330467159" lon="8.360782551861115"><ele>26.0</ele><time>2026-04-24T16:37:26.016Z</time></trkpt><trkpt lat="44.17251861343387" lon="8.36062566875441"><ele>26.0</ele><time>2026-04-24T16:37:27.019Z</time></trkpt><trkpt lat="44.17249030756051" lon="8.360499091622767"><ele>26.0</ele><time>2026-04-24T16:37:28Z</time></trkpt><trkpt lat="44.1724515096357" lon="8.36035448661477"><ele>26.0</ele><time>2026-04-24T16:37:29Z</time></trkpt><trkpt lat="44.17242569003831" lon="8.360226035242349"><ele>26.0</ele><time>2026-04-24T16:37:30Z</time></trkpt><trkpt lat="44.172400989865714" lon="8.360112788916439"><ele>25.499999999999996</ele><time>2026-04-24T16:37:31Z</time></trkpt><trkpt lat="44.172376917813494" lon="8.360000740450154"><ele>25.0</ele><time>2026-04-24T16:37:32Z</time></trkpt><trkpt lat="44.17234806226996" lon="8.35988050805282"><ele>24.5</ele><time>2026-04-24T16:37:33Z</time></trkpt><trkpt lat="44.17232610631265" lon="8.359765981441186"><ele>24.0</ele><time>2026-04-24T16:37:34Z</time></trkpt><trkpt lat="44.172304744321465" lon="8.359663068205158"><ele>23.5</ele><time>2026-04-24T16:37:35Z</time></trkpt><trkpt lat="44.17228598906375" lon="8.359555719558301"><ele>23.0</ele><time>2026-04-24T16:37:36Z</time></trkpt><trkpt lat="44.17227086592691" lon="8.35945995242684"><ele>19.5</ele><time>2026-04-24T16:37:37Z</time></trkpt><trkpt lat="44.17226221056333" lon="8.35937001567748"><ele>16.0</ele><time>2026-04-24T16:37:38Z</time></trkpt><trkpt lat="44.17227300462274" lon="8.35924019745438"><ele>12.5</ele><time>2026-04-24T16:37:40Z</time></trkpt><trkpt lat="44.17233172405022" lon="8.359125543668585"><ele>9.0</ele><time>2026-04-24T16:37:42Z</time></trkpt><trkpt lat="44.172349902680544" lon="8.359026268545787"><ele>5.5</ele><time>2026-04-24T16:37:44Z</time></trkpt><trkpt lat="44.17230356677792" lon="8.358932320885865"><ele>2.0</ele><time>2026-04-24T16:37:46Z</time></trkpt><trkpt lat="44.172210299447265" lon="8.358892888687489"><ele>1.9999999999999998</ele><time>2026-04-24T16:37:48Z</time></trkpt><trkpt lat="44.17214550550516" lon="8.358830584788107"><ele>2.0</ele><time>2026-04-24T16:37:50Z</time></trkpt><trkpt lat="44.17212073401005" lon="8.35874827118159"><ele>2.0</ele><time>2026-04-24T16:37:51Z</time></trkpt><trkpt lat="44.172099228887106" lon="8.358654638128222"><ele>2.0</ele><time>2026-04-24T16:37:52Z</time></trkpt><trkpt lat="44.17207669447657" lon="8.358545398013865"><ele>1.9999999999999998</ele><time>2026-04-24T16:37:53Z</time></trkpt><trkpt lat="44.17205258867049" lon="8.358417555780541"><ele>2.0</ele><time>2026-04-24T16:37:54Z</time></trkpt><trkpt lat="44.172026874441514" lon="8.358286621314647"><ele>2.0</ele><time>2026-04-24T16:37:55Z</time></trkpt><trkpt lat="44.1719992795445" lon="8.358145404407889"><ele>2.0</ele><time>2026-04-24T16:37:56Z</time></trkpt><trkpt lat="44.17197095503266" lon="8.358002606197196"><ele>2.0</ele><time>2026-04-24T16:37:57Z</time></trkpt><trkpt lat="44.17194180297835" lon="8.357857393714678"><ele>2.0</ele><time>2026-04-24T16:37:58Z</time></trkpt><trkpt lat="44.171916334130884" lon="8.357713428020691"><ele>2.0</ele><time>2026-04-24T16:37:59Z</time></trkpt><trkpt lat="44.17188836461466" lon="8.357569125580518"><ele>2.2</ele><time>2026-04-24T16:38:00Z</time></trkpt><trkpt lat="44.17185863325716" lon="8.357424333530107"><ele>2.4000000000000004</ele><time>2026-04-24T16:38:01Z</time></trkpt><trkpt lat="44.171830452134344" lon="8.35727872270374"><ele>2.5999999999999996</ele><time>2026-04-24T16:38:02Z</time></trkpt><trkpt lat="44.17180185785941" lon="8.35713428522958"><ele>2.8</ele><time>2026-04-24T16:38:03Z</time></trkpt><trkpt lat="44.17177295266764" lon="8.357000468631346"><ele>3.0</ele><time>2026-04-24T16:38:04Z</time></trkpt><trkpt lat="44.17175134364011" lon="8.356895328546843"><ele>3.3333333333333335</ele><time>2026-04-24T16:38:05Z</time></trkpt><trkpt lat="44.17172660048697" lon="8.356761638897781"><ele>3.666666666666667</ele><time>2026-04-24T16:38:07Z</time></trkpt><trkpt lat="44.17170728362833" lon="8.356662174819594"><ele>4.0</ele><time>2026-04-24T16:38:12Z</time></trkpt><trkpt lat="44.17167873983254" lon="8.356515478129948"><ele>4.333333333333334</ele><time>2026-04-24T16:38:14Z</time></trkpt><trkpt lat="44.17165973909706" lon="8.35641675801263"><ele>4.666666666666667</ele><time>2026-04-24T16:38:15Z</time></trkpt><trkpt lat="44.171637279097666" lon="8.3563008887123"><ele>5.0</ele><time>2026-04-24T16:38:16Z</time></trkpt><trkpt lat="44.17161126249191" lon="8.356172775535827"><ele>5.2</ele><time>2026-04-24T16:38:17Z</time></trkpt><trkpt lat="44.171584556882564" lon="8.35604012784956"><ele>5.4</ele><time>2026-04-24T16:38:18Z</time></trkpt><trkpt lat="44.1715586187349" lon="8.355906397862165"><ele>5.6</ele><time>2026-04-24T16:38:19Z</time></trkpt><trkpt lat="44.17153065922819" lon="8.355762331739179"><ele>5.8</ele><time>2026-04-24T16:38:20Z</time></trkpt><trkpt lat="44.17150424508167" lon="8.355627468456081"><ele>6.0</ele><time>2026-04-24T16:38:21Z</time></trkpt><trkpt lat="44.17147637004269" lon="8.35548573502377"><ele>6.0</ele><time>2026-04-24T16:38:22Z</time></trkpt><trkpt lat="44.17144839882672" lon="8.35534269524309"><ele>6.0</ele><time>2026-04-24T16:38:23Z</time></trkpt><trkpt lat="44.171422394246555" lon="8.355204074659772"><ele>6.0</ele><time>2026-04-24T16:38:24Z</time></trkpt><trkpt lat="44.17139405011691" lon="8.35505662398001"><ele>6.0</ele><time>2026-04-24T16:38:25Z</time></trkpt><trkpt lat="44.171367227997" lon="8.354909148010004"><ele>6.0</ele><time>2026-04-24T16:38:26Z</time></trkpt><trkpt lat="44.171340105507646" lon="8.354767118706613"><ele>6.0</ele><time>2026-04-24T16:38:27Z</time></trkpt><trkpt lat="44.171311260874816" lon="8.354621022624192"><ele>6.0</ele><time>2026-04-24T16:38:28Z</time></trkpt><trkpt lat="44.17128615828067" lon="8.354478151390433"><ele>6.0</ele><time>2026-04-24T16:38:29Z</time></trkpt><trkpt lat="44.17125881481842" lon="8.354330343137756"><ele>6.0</ele><time>2026-04-24T16:38:30Z</time></trkpt><trkpt lat="44.171234875189505" lon="8.354200493091566"><ele>6.0</ele><time>2026-04-24T16:38:31Z</time></trkpt><trkpt lat="44.171210326338375" lon="8.354060783906373"><ele>6.0</ele><time>2026-04-24T16:38:32Z</time></trkpt><trkpt lat="44.17118591689057" lon="8.353929494235922"><ele>6.0</ele><time>2026-04-24T16:38:33Z</time></trkpt><trkpt lat="44.17115974393426" lon="8.353789596120022"><ele>6.0</ele><time>2026-04-24T16:38:34Z</time></trkpt><trkpt lat="44.17113050227914" lon="8.353637592415161"><ele>6.0</ele><time>2026-04-24T16:38:35Z</time></trkpt><trkpt lat="44.17110207649557" lon="8.353495626572714"><ele>6.0</ele><time>2026-04-24T16:38:36Z</time></trkpt><trkpt lat="44.17107234775657" lon="8.35334965499039"><ele>6.4</ele><time>2026-04-24T16:38:37Z</time></trkpt><trkpt lat="44.171042440612844" lon="8.353205970991041"><ele>6.8</ele><time>2026-04-24T16:38:38Z</time></trkpt><trkpt lat="44.17100829289933" lon="8.353066696909426"><ele>7.200000000000001</ele><time>2026-04-24T16:38:39Z</time></trkpt><trkpt lat="44.170976025544256" lon="8.35293926608517"><ele>7.6000000000000005</ele><time>2026-04-24T16:38:40Z</time></trkpt><trkpt lat="44.1709357245654" lon="8.352805774851213"><ele>8.0</ele><time>2026-04-24T16:38:41Z</time></trkpt><trkpt lat="44.170892701930086" lon="8.352667402700103"><ele>8.0</ele><time>2026-04-24T16:38:42Z</time></trkpt><trkpt lat="44.17084915705308" lon="8.35252653824897"><ele>8.0</ele><time>2026-04-24T16:38:43Z</time></trkpt><trkpt lat="44.17080992225038" lon="8.352397041338591"><ele>8.0</ele><time>2026-04-24T16:38:44Z</time></trkpt><trkpt lat="44.170770308204574" lon="8.352268711175014"><ele>8.0</ele><time>2026-04-24T16:38:45Z</time></trkpt><trkpt lat="44.17073176406743" lon="8.352135484987913"><ele>8.0</ele><time>2026-04-24T16:38:46Z</time></trkpt><trkpt lat="44.170699183240025" lon="8.351983173448195"><ele>6.800000000000001</ele><time>2026-04-24T16:38:47Z</time></trkpt><trkpt lat="44.170668457696436" lon="8.35185042922721"><ele>5.6000000000000005</ele><time>2026-04-24T16:38:48Z</time></trkpt><trkpt lat="44.170640124295716" lon="8.351728112328956"><ele>4.4</ele><time>2026-04-24T16:38:49Z</time></trkpt><trkpt lat="44.17061122345662" lon="8.35161009453278"><ele>3.2</ele><time>2026-04-24T16:38:50Z</time></trkpt><trkpt lat="44.17058440590591" lon="8.351495405245842"><ele>2.0</ele><time>2026-04-24T16:38:51Z</time></trkpt><trkpt lat="44.17056019345793" lon="8.351387055878927"><ele>2.333333333333333</ele><time>2026-04-24T16:38:52Z</time></trkpt><trkpt lat="44.170531007462834" lon="8.351267441164602"><ele>2.6666666666666665</ele><time>2026-04-24T16:38:53Z</time></trkpt><trkpt lat="44.17050496507656" lon="8.35114680652854"><ele>3.0</ele><time>2026-04-24T16:38:54Z</time></trkpt><trkpt lat="44.17048483836989" lon="8.351030762990476"><ele>3.333333333333333</ele><time>2026-04-24T16:38:55Z</time></trkpt><trkpt lat="44.17047213095225" lon="8.350906488308876"><ele>3.6666666666666665</ele><time>2026-04-24T16:38:56Z</time></trkpt><trkpt lat="44.1704642511619" lon="8.350782820555875"><ele>4.0</ele><time>2026-04-24T16:38:57Z</time></trkpt><trkpt lat="44.1704590305905" lon="8.350667379734537"><ele>3.9999999999999996</ele><time>2026-04-24T16:38:58Z</time></trkpt><trkpt lat="44.170449437303816" lon="8.350546705429398"><ele>4.0</ele><time>2026-04-24T16:38:59Z</time></trkpt><trkpt lat="44.170437088007645" lon="8.350427852897285"><ele>4.0</ele><time>2026-04-24T16:39:00Z</time></trkpt><trkpt lat="44.17041868416042" lon="8.350310732116217"><ele>4.0</ele><time>2026-04-24T16:39:01Z</time></trkpt><trkpt lat="44.170398896931985" lon="8.350197860500659"><ele>3.9999999999999996</ele><time>2026-04-24T16:39:02Z</time></trkpt><trkpt lat="44.17037518385389" lon="8.35008741110076"><ele>4.0</ele><time>2026-04-24T16:39:03Z</time></trkpt><trkpt lat="44.17035492972652" lon="8.349975013055587"><ele>4.333333333333333</ele><time>2026-04-24T16:39:04Z</time></trkpt><trkpt lat="44.170347491005344" lon="8.349872850277796"><ele>4.666666666666666</ele><time>2026-04-24T16:39:05Z</time></trkpt><trkpt lat="44.17035661558367" lon="8.349777405964016"><ele>5.0</ele><time>2026-04-24T16:39:06Z</time></trkpt><trkpt lat="44.170399764579976" lon="8.349683439852319"><ele>5.333333333333333</ele><time>2026-04-24T16:39:07Z</time></trkpt><trkpt lat="44.17043125161336" lon="8.34958539584631"><ele>5.666666666666667</ele><time>2026-04-24T16:39:08Z</time></trkpt><trkpt lat="44.17046924854538" lon="8.349482207490142"><ele>6.0</ele><time>2026-04-24T16:39:09Z</time></trkpt><trkpt lat="44.170513902414406" lon="8.34937183482632"><ele>6.8</ele><time>2026-04-24T16:39:10Z</time></trkpt><trkpt lat="44.17056287935769" lon="8.349251318097718"><ele>7.6</ele><time>2026-04-24T16:39:11Z</time></trkpt><trkpt lat="44.1706083043534" lon="8.349145320304856"><ele>8.4</ele><time>2026-04-24T16:39:12Z</time></trkpt><trkpt lat="44.17065133550171" lon="8.349038920725295"><ele>9.2</ele><time>2026-04-24T16:39:13Z</time></trkpt><trkpt lat="44.170687791593785" lon="8.348926472717643"><ele>10.0</ele><time>2026-04-24T16:39:14Z</time></trkpt><trkpt lat="44.17071070303707" lon="8.348810596460376"><ele>11.166666666666668</ele><time>2026-04-24T16:39:15Z</time></trkpt><trkpt lat="44.17072209387233" lon="8.348706861958659"><ele>12.333333333333334</ele><time>2026-04-24T16:39:16Z</time></trkpt><trkpt lat="44.170728149304864" lon="8.348587693416146"><ele>13.5</ele><time>2026-04-24T16:39:17Z</time></trkpt><trkpt lat="44.17072547654184" lon="8.348469920408927"><ele>14.666666666666668</ele><time>2026-04-24T16:39:18Z</time></trkpt><trkpt lat="44.17071482004319" lon="8.34834480018951"><ele>15.833333333333334</ele><time>2026-04-24T16:39:19Z</time></trkpt><trkpt lat="44.17070461627603" lon="8.348219723274205"><ele>17.0</ele><time>2026-04-24T16:39:20Z</time></trkpt><trkpt lat="44.17069387738482" lon="8.348090486984592"><ele>16.333333333333336</ele><time>2026-04-24T16:39:21Z</time></trkpt><trkpt lat="44.17067233551011" lon="8.347958166229196"><ele>15.666666666666668</ele><time>2026-04-24T16:39:22Z</time></trkpt><trkpt lat="44.17066322391302" lon="8.34782341771067"><ele>15.0</ele><time>2026-04-24T16:39:23Z</time></trkpt><trkpt lat="44.17065470806137" lon="8.347690026676917"><ele>14.333333333333332</ele><time>2026-04-24T16:39:24Z</time></trkpt><trkpt lat="44.170641434460286" lon="8.347581303443716"><ele>13.666666666666666</ele><time>2026-04-24T16:39:25Z</time></trkpt><trkpt lat="44.170634285710356" lon="8.347476159154036"><ele>13.0</ele><time>2026-04-24T16:39:26Z</time></trkpt><trkpt lat="44.17062801367728" lon="8.3473619868031"><ele>13.0</ele><time>2026-04-24T16:39:27Z</time></trkpt><trkpt lat="44.17062337336818" lon="8.347237591012748"><ele>13.0</ele><time>2026-04-24T16:39:28Z</time></trkpt><trkpt lat="44.17062051238129" lon="8.347109831747455"><ele>13.0</ele><time>2026-04-24T16:39:29Z</time></trkpt><trkpt lat="44.17062189484571" lon="8.346970558446381"><ele>13.0</ele><time>2026-04-24T16:39:30Z</time></trkpt><trkpt lat="44.170622452212704" lon="8.346829672069113"><ele>13.0</ele><time>2026-04-24T16:39:31Z</time></trkpt><trkpt lat="44.17062980531865" lon="8.346695371593217"><ele>12.8</ele><time>2026-04-24T16:39:32Z</time></trkpt><trkpt lat="44.17064047998786" lon="8.346560209845048"><ele>12.600000000000001</ele><time>2026-04-24T16:39:33Z</time></trkpt><trkpt lat="44.17065047129303" lon="8.346421959898766"><ele>12.399999999999999</ele><time>2026-04-24T16:39:34Z</time></trkpt><trkpt lat="44.17066712888705" lon="8.346279203876215"><ele>12.2</ele><time>2026-04-24T16:39:35Z</time></trkpt><trkpt lat="44.17066913087317" lon="8.34614305078348"><ele>12.0</ele><time>2026-04-24T16:39:36Z</time></trkpt><trkpt lat="44.170677850312266" lon="8.346013275140935"><ele>12.0</ele><time>2026-04-24T16:39:37Z</time></trkpt><trkpt lat="44.17067512566398" lon="8.345898927131193"><ele>12.0</ele><time>2026-04-24T16:39:38Z</time></trkpt><trkpt lat="44.170666665199505" lon="8.345782180130302"><ele>12.0</ele><time>2026-04-24T16:39:39Z</time></trkpt><trkpt lat="44.17064688720918" lon="8.345667529230658"><ele>12.0</ele><time>2026-04-24T16:39:40Z</time></trkpt><trkpt lat="44.17061958465704" lon="8.34555224196696"><ele>12.0</ele><time>2026-04-24T16:39:41Z</time></trkpt><trkpt lat="44.170605516215325" lon="8.345435811926144"><ele>12.0</ele><time>2026-04-24T16:39:42Z</time></trkpt><trkpt lat="44.170592729196905" lon="8.345322347050962"><ele>12.166666666666666</ele><time>2026-04-24T16:39:43Z</time></trkpt><trkpt lat="44.17058363913623" lon="8.345199313207655"><ele>12.333333333333332</ele><time>2026-04-24T16:39:44Z</time></trkpt><trkpt lat="44.17057742107829" lon="8.34507485195358"><ele>12.5</ele><time>2026-04-24T16:39:45Z</time></trkpt><trkpt lat="44.170569076965776" lon="8.344958995475379"><ele>12.666666666666666</ele><time>2026-04-24T16:39:46Z</time></trkpt><trkpt lat="44.17056403328749" lon="8.344835392123368"><ele>12.833333333333332</ele><time>2026-04-24T16:39:47Z</time></trkpt><trkpt lat="44.17054458069077" lon="8.34472538035236"><ele>13.0</ele><time>2026-04-24T16:39:48Z</time></trkpt><trkpt lat="44.170517337032074" lon="8.34462099700497"><ele>13.0</ele><time>2026-04-24T16:39:49Z</time></trkpt><trkpt lat="44.170478770327904" lon="8.34451054034209"><ele>13.0</ele><time>2026-04-24T16:39:50Z</time></trkpt><trkpt lat="44.17043211665781" lon="8.34439606404183"><ele>13.0</ele><time>2026-04-24T16:39:51Z</time></trkpt><trkpt lat="44.17038297302945" lon="8.344290400892874"><ele>13.0</ele><time>2026-04-24T16:39:52Z</time></trkpt><trkpt lat="44.17033362632075" lon="8.344192216130155"><ele>13.0</ele><time>2026-04-24T16:39:53Z</time></trkpt><trkpt lat="44.17028326763079" lon="8.344085637305879"><ele>13.0</ele><time>2026-04-24T16:39:54Z</time></trkpt><trkpt lat="44.17022735600137" lon="8.343971403453539"><ele>13.0</ele><time>2026-04-24T16:39:55Z</time></trkpt><trkpt lat="44.17017558704078" lon="8.34386348148901"><ele>13.0</ele><time>2026-04-24T16:39:56Z</time></trkpt><trkpt lat="44.17012546132795" lon="8.343744620292185"><ele>13.0</ele><time>2026-04-24T16:39:57Z</time></trkpt><trkpt lat="44.170088774447386" lon="8.343620968466741"><ele>13.0</ele><time>2026-04-24T16:39:58Z</time></trkpt><trkpt lat="44.170046166128216" lon="8.343526962374181"><ele>12.833333333333332</ele><time>2026-04-24T16:39:59Z</time></trkpt><trkpt lat="44.169999747390015" lon="8.343429253742984"><ele>12.666666666666666</ele><time>2026-04-24T16:40:00Z</time></trkpt><trkpt lat="44.1699625321323" lon="8.343344498724726"><ele>12.5</ele><time>2026-04-24T16:40:01Z</time></trkpt><trkpt lat="44.169924847550675" lon="8.343267603598912"><ele>12.333333333333332</ele><time>2026-04-24T16:40:02Z</time></trkpt><trkpt lat="44.16988951482638" lon="8.343194889829"><ele>12.166666666666666</ele><time>2026-04-24T16:40:03Z</time></trkpt><trkpt lat="44.169828057411344" lon="8.34306592160799"><ele>12.0</ele><time>2026-04-24T16:40:05Z</time></trkpt><trkpt lat="44.16977161768029" lon="8.34295714461366"><ele>11.833333333333334</ele><time>2026-04-24T16:40:07Z</time></trkpt><trkpt lat="44.16971862475238" lon="8.342853792397554"><ele>11.666666666666666</ele><time>2026-04-24T16:40:09Z</time></trkpt><trkpt lat="44.16967909266631" lon="8.342770064561567"><ele>11.5</ele><time>2026-04-24T16:40:11Z</time></trkpt><trkpt lat="44.1696315587904" lon="8.342695973658612"><ele>11.333333333333332</ele><time>2026-04-24T16:40:13Z</time></trkpt><trkpt lat="44.16956743573338" lon="8.342559546433643"><ele>11.166666666666666</ele><time>2026-04-24T16:40:15Z</time></trkpt><trkpt lat="44.1695206051829" lon="8.342472254475913"><ele>11.0</ele><time>2026-04-24T16:40:16Z</time></trkpt><trkpt lat="44.16949508605913" lon="8.342373991151854"><ele>11.0</ele><time>2026-04-24T16:40:17Z</time></trkpt><trkpt lat="44.16945699617544" lon="8.342291126403147"><ele>11.0</ele><time>2026-04-24T16:40:18Z</time></trkpt><trkpt lat="44.16942040596265" lon="8.342210798862814"><ele>11.0</ele><time>2026-04-24T16:40:19Z</time></trkpt><trkpt lat="44.1693831589946" lon="8.342131626253757"><ele>11.0</ele><time>2026-04-24T16:40:20Z</time></trkpt><trkpt lat="44.169335776624436" lon="8.34206707189265"><ele>11.0</ele><time>2026-04-24T16:40:21Z</time></trkpt><trkpt lat="44.16929014279324" lon="8.341997397582743"><ele>11.0</ele><time>2026-04-24T16:40:22Z</time></trkpt><trkpt lat="44.16922166476624" lon="8.341886706923376"><ele>11.0</ele><time>2026-04-24T16:40:24Z</time></trkpt><trkpt lat="44.16914116097918" lon="8.341751212688473"><ele>10.5</ele><time>2026-04-24T16:40:26Z</time></trkpt><trkpt lat="44.169067960164966" lon="8.341635017379899"><ele>10.0</ele><time>2026-04-24T16:40:28Z</time></trkpt><trkpt lat="44.16900074960087" lon="8.341520758772026"><ele>9.5</ele><time>2026-04-24T16:40:30Z</time></trkpt><trkpt lat="44.16895110393901" lon="8.341441469762072"><ele>9.0</ele><time>2026-04-24T16:40:32Z</time></trkpt><trkpt lat="44.16891119976689" lon="8.341370334601944"><ele>8.5</ele><time>2026-04-24T16:40:34Z</time></trkpt><trkpt lat="44.16885705048061" lon="8.341273589030862"><ele>8.0</ele><time>2026-04-24T16:40:36Z</time></trkpt><trkpt lat="44.16879161098468" lon="8.341178570278746"><ele>7.6000000000000005</ele><time>2026-04-24T16:40:38Z</time></trkpt><trkpt lat="44.16875027417844" lon="8.341093563884293"><ele>7.200000000000001</ele><time>2026-04-24T16:40:40Z</time></trkpt><trkpt lat="44.16870823074966" lon="8.340974225265693"><ele>6.8</ele><time>2026-04-24T16:40:42Z</time></trkpt><trkpt lat="44.168632878596476" lon="8.340864569845152"><ele>6.4</ele><time>2026-04-24T16:40:44Z</time></trkpt><trkpt lat="44.16854064868768" lon="8.34073873030557"><ele>6.0</ele><time>2026-04-24T16:40:46Z</time></trkpt><trkpt lat="44.16848587318194" lon="8.340649947844247"><ele>6.0</ele><time>2026-04-24T16:40:47Z</time></trkpt><trkpt lat="44.168416086374144" lon="8.340565407438826"><ele>6.0</ele><time>2026-04-24T16:40:48Z</time></trkpt><trkpt lat="44.1683537971758" lon="8.340453491501439"><ele>6.0</ele><time>2026-04-24T16:40:49Z</time></trkpt><trkpt lat="44.168281529069276" lon="8.340363737014211"><ele>6.0</ele><time>2026-04-24T16:40:50Z</time></trkpt><trkpt lat="44.16820481228212" lon="8.340273657524557"><ele>6.0</ele><time>2026-04-24T16:40:51Z</time></trkpt><trkpt lat="44.168124763321806" lon="8.340179163640872"><ele>5.75</ele><time>2026-04-24T16:40:52Z</time></trkpt><trkpt lat="44.16804588638903" lon="8.340086053276353"><ele>5.5</ele><time>2026-04-24T16:40:53Z</time></trkpt><trkpt lat="44.16796092691867" lon="8.339985748948706"><ele>5.25</ele><time>2026-04-24T16:40:54Z</time></trkpt><trkpt lat="44.167867226153085" lon="8.33987518862286"><ele>5.0</ele><time>2026-04-24T16:40:55Z</time></trkpt><trkpt lat="44.16777925135541" lon="8.33977140923468"><ele>5.0</ele><time>2026-04-24T16:40:56Z</time></trkpt><trkpt lat="44.167684779424356" lon="8.339659965528378"><ele>5.0</ele><time>2026-04-24T16:40:57Z</time></trkpt><trkpt lat="44.1675928390496" lon="8.339551508162575"><ele>5.0</ele><time>2026-04-24T16:40:58Z</time></trkpt><trkpt lat="44.167508960981245" lon="8.339452561478506"><ele>5.0</ele><time>2026-04-24T16:40:59Z</time></trkpt><trkpt lat="44.167416334647186" lon="8.339343943908943"><ele>5.5</ele><time>2026-04-24T16:41:00Z</time></trkpt><trkpt lat="44.167320531649665" lon="8.339235211736685"><ele>6.0</ele><time>2026-04-24T16:41:01Z</time></trkpt><trkpt lat="44.16722442406598" lon="8.339148744621466"><ele>6.5</ele><time>2026-04-24T16:41:02Z</time></trkpt><trkpt lat="44.16713692120054" lon="8.339040044601179"><ele>7.0</ele><time>2026-04-24T16:41:03Z</time></trkpt><trkpt lat="44.167048766446925" lon="8.338923521408661"><ele>6.5</ele><time>2026-04-24T16:41:04Z</time></trkpt><trkpt lat="44.166967821951964" lon="8.338805619053536"><ele>6.0</ele><time>2026-04-24T16:41:05Z</time></trkpt><trkpt lat="44.16688927877967" lon="8.338682718848895"><ele>5.5</ele><time>2026-04-24T16:41:06Z</time></trkpt><trkpt lat="44.16681544711119" lon="8.33855615324275"><ele>5.0</ele><time>2026-04-24T16:41:07Z</time></trkpt><trkpt lat="44.166752296403686" lon="8.33845192970492"><ele>5.0</ele><time>2026-04-24T16:41:08Z</time></trkpt><trkpt lat="44.16667310691258" lon="8.338324848027764"><ele>5.0</ele><time>2026-04-24T16:41:09Z</time></trkpt><trkpt lat="44.16660412291409" lon="8.338209852716192"><ele>5.0</ele><time>2026-04-24T16:41:10Z</time></trkpt><trkpt lat="44.166534078569924" lon="8.338102203336522"><ele>5.0</ele><time>2026-04-24T16:41:11Z</time></trkpt><trkpt lat="44.16646275421337" lon="8.337997289313341"><ele>5.0</ele><time>2026-04-24T16:41:12Z</time></trkpt><trkpt lat="44.166388462320626" lon="8.33789108910696"><ele>5.0</ele><time>2026-04-24T16:41:13Z</time></trkpt><trkpt lat="44.16631197533581" lon="8.337790319540979"><ele>5.0</ele><time>2026-04-24T16:41:14Z</time></trkpt><trkpt lat="44.16623504668632" lon="8.337696230223807"><ele>5.0</ele><time>2026-04-24T16:41:15Z</time></trkpt><trkpt lat="44.16615485084707" lon="8.337610266951652"><ele>5.0</ele><time>2026-04-24T16:41:16Z</time></trkpt><trkpt lat="44.16607163632053" lon="8.3375231374371"><ele>5.0</ele><time>2026-04-24T16:41:17Z</time></trkpt><trkpt lat="44.16599487114544" lon="8.33744551675084"><ele>5.0</ele><time>2026-04-24T16:41:18Z</time></trkpt><trkpt lat="44.16591449166149" lon="8.337377455719839"><ele>5.0</ele><time>2026-04-24T16:41:19Z</time></trkpt><trkpt lat="44.16583372464074" lon="8.33729009175282"><ele>5.0</ele><time>2026-04-24T16:41:20Z</time></trkpt><trkpt lat="44.16573637588804" lon="8.337226833306449"><ele>5.0</ele><time>2026-04-24T16:41:21Z</time></trkpt><trkpt lat="44.1656309831778" lon="8.337191682850431"><ele>5.0</ele><time>2026-04-24T16:41:22Z</time></trkpt><trkpt lat="44.16553465447518" lon="8.337142127320783"><ele>7.8</ele><time>2026-04-24T16:41:23Z</time></trkpt><trkpt lat="44.16543833717216" lon="8.337071947577575"><ele>10.6</ele><time>2026-04-24T16:41:24Z</time></trkpt><trkpt lat="44.16533290755451" lon="8.337031266513474"><ele>13.399999999999999</ele><time>2026-04-24T16:41:25Z</time></trkpt><trkpt lat="44.165219198037796" lon="8.336998843894714"><ele>16.2</ele><time>2026-04-24T16:41:26Z</time></trkpt><trkpt lat="44.1651046799043" lon="8.337004653581932"><ele>19.0</ele><time>2026-04-24T16:41:27Z</time></trkpt><trkpt lat="44.16499222424163" lon="8.336984360302377"><ele>19.0</ele><time>2026-04-24T16:41:28Z</time></trkpt><trkpt lat="44.16487635729671" lon="8.33695964556907"><ele>19.0</ele><time>2026-04-24T16:41:29Z</time></trkpt><trkpt lat="44.16476108125795" lon="8.33694451550065"><ele>19.0</ele><time>2026-04-24T16:41:30Z</time></trkpt><trkpt lat="44.16463725143158" lon="8.33693055733404"><ele>19.0</ele><time>2026-04-24T16:41:31Z</time></trkpt><trkpt lat="44.164508949696724" lon="8.336916531184825"><ele>18.0</ele><time>2026-04-24T16:41:32Z</time></trkpt><trkpt lat="44.164391531811845" lon="8.336897791981366"><ele>17.0</ele><time>2026-04-24T16:41:33Z</time></trkpt><trkpt lat="44.16427389303083" lon="8.336884739593815"><ele>16.0</ele><time>2026-04-24T16:41:34Z</time></trkpt><trkpt lat="44.1641517611002" lon="8.33686874169159"><ele>15.0</ele><time>2026-04-24T16:41:35Z</time></trkpt><trkpt lat="44.16402688566302" lon="8.336854371454143"><ele>20.0</ele><time>2026-04-24T16:41:36Z</time></trkpt><trkpt lat="44.16390632777255" lon="8.33683724630565"><ele>25.0</ele><time>2026-04-24T16:41:37Z</time></trkpt><trkpt lat="44.1637828733282" lon="8.33681307326006"><ele>30.0</ele><time>2026-04-24T16:41:38Z</time></trkpt><trkpt lat="44.16366278431594" lon="8.33678518232673"><ele>35.0</ele><time>2026-04-24T16:41:39Z</time></trkpt><trkpt lat="44.16354818876792" lon="8.336749157448395"><ele>35.0</ele><time>2026-04-24T16:41:40Z</time></trkpt><trkpt lat="44.16343796814506" lon="8.336710074796885"><ele>35.0</ele><time>2026-04-24T16:41:41Z</time></trkpt><trkpt lat="44.163327238631304" lon="8.336656866435511"><ele>35.0</ele><time>2026-04-24T16:41:42Z</time></trkpt><trkpt lat="44.163221307972194" lon="8.336600675727873"><ele>35.0</ele><time>2026-04-24T16:41:43Z</time></trkpt><trkpt lat="44.163120026480065" lon="8.336541531198941"><ele>36.5</ele><time>2026-04-24T16:41:44Z</time></trkpt><trkpt lat="44.16302104601202" lon="8.336466261038327"><ele>38.0</ele><time>2026-04-24T16:41:45Z</time></trkpt><trkpt lat="44.16292792569118" lon="8.336388149126417"><ele>39.5</ele><time>2026-04-24T16:41:46Z</time></trkpt><trkpt lat="44.16283447918887" lon="8.336296086008712"><ele>41.0</ele><time>2026-04-24T16:41:47Z</time></trkpt><trkpt lat="44.16274303015339" lon="8.336192631236315"><ele>41.0</ele><time>2026-04-24T16:41:48Z</time></trkpt><trkpt lat="44.16265816899763" lon="8.336088713991305"><ele>41.0</ele><time>2026-04-24T16:41:49Z</time></trkpt><trkpt lat="44.16258074805183" lon="8.335980402442495"><ele>41.0</ele><time>2026-04-24T16:41:50Z</time></trkpt><trkpt lat="44.16250672644636" lon="8.33586060137438"><ele>41.0</ele><time>2026-04-24T16:41:51Z</time></trkpt><trkpt lat="44.1624370202822" lon="8.335737862391927"><ele>41.0</ele><time>2026-04-24T16:41:52Z</time></trkpt><trkpt lat="44.16237363723968" lon="8.335611573817275"><ele>33.25</ele><time>2026-04-24T16:41:53Z</time></trkpt><trkpt lat="44.16231444219796" lon="8.335487104186326"><ele>25.5</ele><time>2026-04-24T16:41:54Z</time></trkpt><trkpt lat="44.16225997289048" lon="8.335346335036332"><ele>17.75</ele><time>2026-04-24T16:41:55Z</time></trkpt><trkpt lat="44.162208278413004" lon="8.335208873711261"><ele>10.0</ele><time>2026-04-24T16:41:56Z</time></trkpt><trkpt lat="44.162182101237526" lon="8.334961442076878"><ele>10.0</ele><time>2026-04-24T16:41:57Z</time></trkpt><trkpt lat="44.16213091550222" lon="8.334870257307504"><ele>10.0</ele><time>2026-04-24T16:41:58Z</time></trkpt><trkpt lat="44.16212082785991" lon="8.334755178855975"><ele>10.0</ele><time>2026-04-24T16:41:59Z</time></trkpt><trkpt lat="44.16210158659146" lon="8.334586865820084"><ele>10.0</ele><time>2026-04-24T16:42:00Z</time></trkpt><trkpt lat="44.162066736516735" lon="8.334394017038584"><ele>10.0</ele><time>2026-04-24T16:42:01Z</time></trkpt><trkpt lat="44.16203555066431" lon="8.33420039514789"><ele>10.25</ele><time>2026-04-24T16:42:02Z</time></trkpt><trkpt lat="44.162003929382124" lon="8.334007512631192"><ele>10.5</ele><time>2026-04-24T16:42:03Z</time></trkpt><trkpt lat="44.16197720973238" lon="8.333806569730916"><ele>10.75</ele><time>2026-04-24T16:42:04Z</time></trkpt><trkpt lat="44.161943017879494" lon="8.33359362814458"><ele>11.0</ele><time>2026-04-24T16:42:05Z</time></trkpt><trkpt lat="44.16191437594206" lon="8.333390660190542"><ele>11.75</ele><time>2026-04-24T16:42:06Z</time></trkpt><trkpt lat="44.16188628611291" lon="8.333191686627298"><ele>12.5</ele><time>2026-04-24T16:42:07Z</time></trkpt><trkpt lat="44.16185509829359" lon="8.332993119640609"><ele>13.25</ele><time>2026-04-24T16:42:08Z</time></trkpt><trkpt lat="44.16182129310557" lon="8.332787199482585"><ele>14.0</ele><time>2026-04-24T16:42:09Z</time></trkpt><trkpt lat="44.16178824992696" lon="8.332579602343525"><ele>14.0</ele><time>2026-04-24T16:42:10Z</time></trkpt><trkpt lat="44.161756305858965" lon="8.332372823044881"><ele>14.0</ele><time>2026-04-24T16:42:11Z</time></trkpt><trkpt lat="44.16172496224001" lon="8.332159372228022"><ele>14.0</ele><time>2026-04-24T16:42:12Z</time></trkpt><trkpt lat="44.16169515600001" lon="8.331946062146192"><ele>13.333333333333334</ele><time>2026-04-24T16:42:13Z</time></trkpt><trkpt lat="44.161664604062395" lon="8.331745447656072"><ele>12.666666666666668</ele><time>2026-04-24T16:42:14Z</time></trkpt><trkpt lat="44.16163245463288" lon="8.331535210073831"><ele>12.0</ele><time>2026-04-24T16:42:15Z</time></trkpt><trkpt lat="44.16160177146212" lon="8.331332708688528"><ele>12.0</ele><time>2026-04-24T16:42:16Z</time></trkpt><trkpt lat="44.16157325619311" lon="8.33113807203261"><ele>12.0</ele><time>2026-04-24T16:42:17Z</time></trkpt><trkpt lat="44.16154573900818" lon="8.33093838453934"><ele>12.0</ele><time>2026-04-24T16:42:18Z</time></trkpt><trkpt lat="44.16151817213975" lon="8.330745637166277"><ele>12.0</ele><time>2026-04-24T16:42:19Z</time></trkpt><trkpt lat="44.16148614069041" lon="8.330547918257432"><ele>9.0</ele><time>2026-04-24T16:42:20Z</time></trkpt><trkpt lat="44.1614556208592" lon="8.330344815459906"><ele>6.0</ele><time>2026-04-24T16:42:21Z</time></trkpt><trkpt lat="44.16142754708041" lon="8.330140096915773"><ele>3.0</ele><time>2026-04-24T16:42:22Z</time></trkpt><trkpt lat="44.161391552604805" lon="8.329932536850317"><ele>3.0</ele><time>2026-04-24T16:42:23Z</time></trkpt><trkpt lat="44.16136044103347" lon="8.329732881326102"><ele>3.0</ele><time>2026-04-24T16:42:24Z</time></trkpt><trkpt lat="44.161328346079564" lon="8.329533224977613"><ele>3.0</ele><time>2026-04-24T16:42:25Z</time></trkpt><trkpt lat="44.1613140315253" lon="8.32932436224085"><ele>3.0</ele><time>2026-04-24T16:42:26Z</time></trkpt><trkpt lat="44.16128299094834" lon="8.329115965568112"><ele>3.0</ele><time>2026-04-24T16:42:27Z</time></trkpt><trkpt lat="44.16125227018288" lon="8.328909716003963"><ele>3.0</ele><time>2026-04-24T16:42:28Z</time></trkpt><trkpt lat="44.16122197968263" lon="8.32870635511627"><ele>3.0</ele><time>2026-04-24T16:42:29Z</time></trkpt><trkpt lat="44.16119074740419" lon="8.328498412549587"><ele>3.0</ele><time>2026-04-24T16:42:30Z</time></trkpt><trkpt lat="44.16115824270959" lon="8.328283997184993"><ele>3.0</ele><time>2026-04-24T16:42:31Z</time></trkpt><trkpt lat="44.161126425698185" lon="8.328074118085755"><ele>3.0</ele><time>2026-04-24T16:42:32Z</time></trkpt><trkpt lat="44.16109627924825" lon="8.327875258744863"><ele>4.333333333333334</ele><time>2026-04-24T16:42:33Z</time></trkpt><trkpt lat="44.16106515593233" lon="8.327669955558994"><ele>5.666666666666667</ele><time>2026-04-24T16:42:34Z</time></trkpt><trkpt lat="44.16103298050573" lon="8.327458664180334"><ele>7.0</ele><time>2026-04-24T16:42:35Z</time></trkpt><trkpt lat="44.160999609011334" lon="8.327239733955027"><ele>8.0</ele><time>2026-04-24T16:42:36Z</time></trkpt><trkpt lat="44.16096683673306" lon="8.327024734823649"><ele>9.0</ele><time>2026-04-24T16:42:37Z</time></trkpt><trkpt lat="44.16093642686366" lon="8.326825983765932"><ele>10.0</ele><time>2026-04-24T16:42:38Z</time></trkpt><trkpt lat="44.16090539389071" lon="8.3266234546818"><ele>10.0</ele><time>2026-04-24T16:42:39Z</time></trkpt><trkpt lat="44.160875427610684" lon="8.32642788710737"><ele>10.0</ele><time>2026-04-24T16:42:40Z</time></trkpt><trkpt lat="44.160845079443384" lon="8.326229053893934"><ele>10.0</ele><time>2026-04-24T16:42:41Z</time></trkpt><trkpt lat="44.16081362537306" lon="8.326022457438716"><ele>10.0</ele><time>2026-04-24T16:42:42Z</time></trkpt><trkpt lat="44.16078219777523" lon="8.325818732873106"><ele>8.5</ele><time>2026-04-24T16:42:43Z</time></trkpt><trkpt lat="44.160752651300186" lon="8.325625534406974"><ele>7.0</ele><time>2026-04-24T16:42:44Z</time></trkpt><trkpt lat="44.16072348710118" lon="8.325434835554399"><ele>5.5</ele><time>2026-04-24T16:42:45Z</time></trkpt><trkpt lat="44.16069292857503" lon="8.325236085151195"><ele>4.0</ele><time>2026-04-24T16:42:46Z</time></trkpt><trkpt lat="44.16066286284955" lon="8.325038912876078"><ele>4.0</ele><time>2026-04-24T16:42:47Z</time></trkpt><trkpt lat="44.160633289092026" lon="8.324844035018337"><ele>4.0</ele><time>2026-04-24T16:42:48Z</time></trkpt><trkpt lat="44.16060345818905" lon="8.3246470452883"><ele>4.0</ele><time>2026-04-24T16:42:49Z</time></trkpt><trkpt lat="44.16057403265423" lon="8.324452732424533"><ele>4.0</ele><time>2026-04-24T16:42:50Z</time></trkpt><trkpt lat="44.1605455890502" lon="8.32426490377656"><ele>3.75</ele><time>2026-04-24T16:42:51Z</time></trkpt><trkpt lat="44.160516483978355" lon="8.324072707099077"><ele>3.5</ele><time>2026-04-24T16:42:52Z</time></trkpt><trkpt lat="44.16048703912581" lon="8.323879079457754"><ele>3.25</ele><time>2026-04-24T16:42:53Z</time></trkpt><trkpt lat="44.16045897153496" lon="8.323689980770778"><ele>3.0</ele><time>2026-04-24T16:42:54Z</time></trkpt><trkpt lat="44.1604321706125" lon="8.323505839550965"><ele>2.75</ele><time>2026-04-24T16:42:55Z</time></trkpt><trkpt lat="44.16040535311978" lon="8.323321584485976"><ele>2.5</ele><time>2026-04-24T16:42:56Z</time></trkpt><trkpt lat="44.16037836420724" lon="8.32313615165325"><ele>2.25</ele><time>2026-04-24T16:42:57Z</time></trkpt><trkpt lat="44.16035102554402" lon="8.322948451412024"><ele>2.0</ele><time>2026-04-24T16:42:58Z</time></trkpt><trkpt lat="44.160307686008" lon="8.322767223201877"><ele>2.25</ele><time>2026-04-24T16:42:59Z</time></trkpt><trkpt lat="44.16028133285643" lon="8.32257617122814"><ele>2.5</ele><time>2026-04-24T16:43:00Z</time></trkpt><trkpt lat="44.16025771537131" lon="8.32239678976411"><ele>2.75</ele><time>2026-04-24T16:43:01Z</time></trkpt><trkpt lat="44.16023124685738" lon="8.322209401468827"><ele>3.0</ele><time>2026-04-24T16:43:02Z</time></trkpt><trkpt lat="44.16020302582701" lon="8.322015785402394"><ele>3.0</ele><time>2026-04-24T16:43:03Z</time></trkpt><trkpt lat="44.160176753915366" lon="8.32183227334409"><ele>3.0</ele><time>2026-04-24T16:43:04Z</time></trkpt><trkpt lat="44.16015054889049" lon="8.321648390075948"><ele>3.0</ele><time>2026-04-24T16:43:05Z</time></trkpt><trkpt lat="44.160122630529266" lon="8.321459071614335"><ele>3.0</ele><time>2026-04-24T16:43:06Z</time></trkpt><trkpt lat="44.16009554738148" lon="8.321271488421718"><ele>3.5</ele><time>2026-04-24T16:43:07Z</time></trkpt><trkpt lat="44.160068304038916" lon="8.32108963888809"><ele>4.0</ele><time>2026-04-24T16:43:08Z</time></trkpt><trkpt lat="44.16004076798678" lon="8.320903120789463"><ele>4.5</ele><time>2026-04-24T16:43:09Z</time></trkpt><trkpt lat="44.16001317534569" lon="8.320722809014056"><ele>5.0</ele><time>2026-04-24T16:43:10Z</time></trkpt><trkpt lat="44.159983534639075" lon="8.320539278985787"><ele>4.0</ele><time>2026-04-24T16:43:11Z</time></trkpt><trkpt lat="44.159957324724665" lon="8.320366924206757"><ele>3.0</ele><time>2026-04-24T16:43:12Z</time></trkpt><trkpt lat="44.15992800458075" lon="8.32019245803514"><ele>2.0</ele><time>2026-04-24T16:43:13Z</time></trkpt><trkpt lat="44.15989566740857" lon="8.320010173469594"><ele>1.0</ele><time>2026-04-24T16:43:14Z</time></trkpt><trkpt lat="44.15986556403965" lon="8.319822376985002"><ele>1.5</ele><time>2026-04-24T16:43:15Z</time></trkpt><trkpt lat="44.15983388058808" lon="8.319650375442647"><ele>2.0</ele><time>2026-04-24T16:43:16Z</time></trkpt><trkpt lat="44.15980380051285" lon="8.319487149059134"><ele>2.5</ele><time>2026-04-24T16:43:17Z</time></trkpt><trkpt lat="44.15977308630214" lon="8.319323075532724"><ele>3.0</ele><time>2026-04-24T16:43:18Z</time></trkpt><trkpt lat="44.15974219181039" lon="8.31916492670105"><ele>3.0</ele><time>2026-04-24T16:43:19Z</time></trkpt><trkpt lat="44.15971070169029" lon="8.319001661420737"><ele>3.0</ele><time>2026-04-24T16:43:20Z</time></trkpt><trkpt lat="44.15967969613903" lon="8.318832177747502"><ele>3.0</ele><time>2026-04-24T16:43:21Z</time></trkpt><trkpt lat="44.15964726745752" lon="8.318661074013326"><ele>3.0</ele><time>2026-04-24T16:43:22Z</time></trkpt><trkpt lat="44.15961226020241" lon="8.318487044103508"><ele>3.5</ele><time>2026-04-24T16:43:23Z</time></trkpt><trkpt lat="44.15958023699537" lon="8.318310546154185"><ele>4.0</ele><time>2026-04-24T16:43:24Z</time></trkpt><trkpt lat="44.15954881383695" lon="8.318141782046313"><ele>4.5</ele><time>2026-04-24T16:43:25Z</time></trkpt><trkpt lat="44.159517819034846" lon="8.317976114836863"><ele>5.0</ele><time>2026-04-24T16:43:26Z</time></trkpt><trkpt lat="44.15948726435417" lon="8.317810835749368"><ele>5.5</ele><time>2026-04-24T16:43:27Z</time></trkpt><trkpt lat="44.15945550844553" lon="8.317647899074746"><ele>6.0</ele><time>2026-04-24T16:43:28Z</time></trkpt><trkpt lat="44.15942348696596" lon="8.317480823723818"><ele>6.5</ele><time>2026-04-24T16:43:29Z</time></trkpt><trkpt lat="44.159392468249024" lon="8.317317886341746"><ele>7.0</ele><time>2026-04-24T16:43:30Z</time></trkpt><trkpt lat="44.159361223638356" lon="8.317154093386534"><ele>8.5</ele><time>2026-04-24T16:43:31Z</time></trkpt><trkpt lat="44.15933167162003" lon="8.316992323371672"><ele>10.0</ele><time>2026-04-24T16:43:32Z</time></trkpt><trkpt lat="44.1592994441766" lon="8.316826493188708"><ele>11.5</ele><time>2026-04-24T16:43:33Z</time></trkpt><trkpt lat="44.15926782147944" lon="8.316660482073411"><ele>13.0</ele><time>2026-04-24T16:43:34Z</time></trkpt><trkpt lat="44.159234905868736" lon="8.31648755709849"><ele>13.75</ele><time>2026-04-24T16:43:35Z</time></trkpt><trkpt lat="44.15920138766886" lon="8.316319071528817"><ele>14.5</ele><time>2026-04-24T16:43:36Z</time></trkpt><trkpt lat="44.15916633263075" lon="8.316147971127588"><ele>15.25</ele><time>2026-04-24T16:43:37Z</time></trkpt><trkpt lat="44.15913230537896" lon="8.315975991100686"><ele>16.0</ele><time>2026-04-24T16:43:38Z</time></trkpt><trkpt lat="44.15909764885738" lon="8.315799986119725"><ele>16.0</ele><time>2026-04-24T16:43:39Z</time></trkpt><trkpt lat="44.159064106140185" lon="8.315633808397404"><ele>16.0</ele><time>2026-04-24T16:43:40Z</time></trkpt><trkpt lat="44.159030749337695" lon="8.315473139866379"><ele>16.0</ele><time>2026-04-24T16:43:41Z</time></trkpt><trkpt lat="44.15899948631413" lon="8.315312069124055"><ele>16.0</ele><time>2026-04-24T16:43:42Z</time></trkpt><trkpt lat="44.15896736660273" lon="8.3151583676675"><ele>12.5</ele><time>2026-04-24T16:43:43Z</time></trkpt><trkpt lat="44.15894050815588" lon="8.315011156912245"><ele>9.0</ele><time>2026-04-24T16:43:44Z</time></trkpt><trkpt lat="44.15890965644605" lon="8.314860322471667"><ele>5.5</ele><time>2026-04-24T16:43:45Z</time></trkpt><trkpt lat="44.15887911956143" lon="8.314701112464729"><ele>2.0</ele><time>2026-04-24T16:43:46Z</time></trkpt><trkpt lat="44.158844857219286" lon="8.314538172439356"><ele>2.0</ele><time>2026-04-24T16:43:47Z</time></trkpt><trkpt lat="44.158810428492316" lon="8.314373568871828"><ele>2.0</ele><time>2026-04-24T16:43:48Z</time></trkpt><trkpt lat="44.158776999868465" lon="8.314206803679872"><ele>2.0</ele><time>2026-04-24T16:43:49Z</time></trkpt><trkpt lat="44.15874191282244" lon="8.314044059416755"><ele>2.0</ele><time>2026-04-24T16:43:50Z</time></trkpt><trkpt lat="44.15870927725778" lon="8.313876870639136"><ele>2.5</ele><time>2026-04-24T16:43:51Z</time></trkpt><trkpt lat="44.158676827542806" lon="8.31371773647288"><ele>3.0</ele><time>2026-04-24T16:43:52Z</time></trkpt><trkpt lat="44.15864089822762" lon="8.31355255312376"><ele>3.5</ele><time>2026-04-24T16:43:53Z</time></trkpt><trkpt lat="44.15860457745352" lon="8.313385030354786"><ele>4.0</ele><time>2026-04-24T16:43:54Z</time></trkpt><trkpt lat="44.158568451887284" lon="8.313210715492248"><ele>4.75</ele><time>2026-04-24T16:43:55Z</time></trkpt><trkpt lat="44.1585330051067" lon="8.313046941940561"><ele>5.5</ele><time>2026-04-24T16:43:56Z</time></trkpt><trkpt lat="44.158497130282434" lon="8.312880612004374"><ele>6.25</ele><time>2026-04-24T16:43:57Z</time></trkpt><trkpt lat="44.15846374567684" lon="8.312727828888333"><ele>7.0</ele><time>2026-04-24T16:43:58Z</time></trkpt><trkpt lat="44.15842706382438" lon="8.31257650981998"><ele>7.0</ele><time>2026-04-24T16:43:59Z</time></trkpt><trkpt lat="44.15838874513691" lon="8.312430734861248"><ele>6.999999999999999</ele><time>2026-04-24T16:44:00Z</time></trkpt><trkpt lat="44.15835094553389" lon="8.312293127097345"><ele>6.999999999999999</ele><time>2026-04-24T16:44:01Z</time></trkpt><trkpt lat="44.15831410235782" lon="8.312153320515318"><ele>7.0</ele><time>2026-04-24T16:44:02Z</time></trkpt><trkpt lat="44.15827568623859" lon="8.312013605687106"><ele>7.0</ele><time>2026-04-24T16:44:03Z</time></trkpt><trkpt lat="44.158240713279596" lon="8.311886279272919"><ele>7.0</ele><time>2026-04-24T16:44:04Z</time></trkpt><trkpt lat="44.15821118456723" lon="8.311767768472938"><ele>6.999999999999999</ele><time>2026-04-24T16:44:05Z</time></trkpt><trkpt lat="44.15818854991497" lon="8.311664654912486"><ele>6.999999999999999</ele><time>2026-04-24T16:44:06Z</time></trkpt><trkpt lat="44.158180401341774" lon="8.311529216110156"><ele>7.0</ele><time>2026-04-24T16:44:08Z</time></trkpt><trkpt lat="44.15825300750503" lon="8.31147835018278"><ele>7.0</ele><time>2026-04-24T16:44:10Z</time></trkpt><trkpt lat="44.158361246483956" lon="8.311403942536918"><ele>6.833333333333334</ele><time>2026-04-24T16:44:12Z</time></trkpt><trkpt lat="44.15844512708001" lon="8.31133032210769"><ele>6.666666666666667</ele><time>2026-04-24T16:44:14Z</time></trkpt><trkpt lat="44.15847453493891" lon="8.311240109822855"><ele>6.5</ele><time>2026-04-24T16:44:15Z</time></trkpt><trkpt lat="44.15850158206188" lon="8.311139510668776"><ele>6.333333333333334</ele><time>2026-04-24T16:44:16Z</time></trkpt><trkpt lat="44.15851161980075" lon="8.311022619870139"><ele>6.166666666666667</ele><time>2026-04-24T16:44:17Z</time></trkpt><trkpt lat="44.15854522831449" lon="8.310905784676269"><ele>6.0</ele><time>2026-04-24T16:44:18Z</time></trkpt><trkpt lat="44.1585902216504" lon="8.310794925008445"><ele>6.0</ele><time>2026-04-24T16:44:19Z</time></trkpt><trkpt lat="44.15862493351697" lon="8.310672317638435"><ele>6.0</ele><time>2026-04-24T16:44:20Z</time></trkpt><trkpt lat="44.1586519671075" lon="8.310540244973376"><ele>6.0</ele><time>2026-04-24T16:44:21Z</time></trkpt><trkpt lat="44.15869998664558" lon="8.310420998144968"><ele>6.0</ele><time>2026-04-24T16:44:22Z</time></trkpt><trkpt lat="44.15874567389672" lon="8.310304509198275"><ele>6.0</ele><time>2026-04-24T16:44:23Z</time></trkpt><trkpt lat="44.15881649022001" lon="8.310197570513514"><ele>6.0</ele><time>2026-04-24T16:44:24Z</time></trkpt><trkpt lat="44.15887413222302" lon="8.31007780323833"><ele>6.0</ele><time>2026-04-24T16:44:25Z</time></trkpt><trkpt lat="44.15892943490665" lon="8.309960562834371"><ele>6.0</ele><time>2026-04-24T16:44:26Z</time></trkpt><trkpt lat="44.158981525577126" lon="8.309846663670763"><ele>6.0</ele><time>2026-04-24T16:44:27Z</time></trkpt><trkpt lat="44.15902756408652" lon="8.309747603740627"><ele>6.0</ele><time>2026-04-24T16:44:28Z</time></trkpt><trkpt lat="44.15906638343031" lon="8.309635570583234"><ele>6.0</ele><time>2026-04-24T16:44:29Z</time></trkpt><trkpt lat="44.15909077873373" lon="8.309521006286573"><ele>6.0</ele><time>2026-04-24T16:44:30Z</time></trkpt><trkpt lat="44.159104978045356" lon="8.309409701425741"><ele>6.0</ele><time>2026-04-24T16:44:31Z</time></trkpt><trkpt lat="44.1591133984325" lon="8.309301597559925"><ele>6.0</ele><time>2026-04-24T16:44:32Z</time></trkpt><trkpt lat="44.15911692503526" lon="8.309122513996693"><ele>6.0</ele><time>2026-04-24T16:44:34Z</time></trkpt><trkpt lat="44.15911126232287" lon="8.308938458010305"><ele>6.4</ele><time>2026-04-24T16:44:36Z</time></trkpt><trkpt lat="44.159096241713456" lon="8.308824503572003"><ele>6.8</ele><time>2026-04-24T16:44:37Z</time></trkpt><trkpt lat="44.15909218363795" lon="8.30868648458327"><ele>7.200000000000001</ele><time>2026-04-24T16:44:38Z</time></trkpt><trkpt lat="44.15908294732913" lon="8.308556968081804"><ele>7.6000000000000005</ele><time>2026-04-24T16:44:39Z</time></trkpt><trkpt lat="44.15908015858097" lon="8.308423990923885"><ele>8.0</ele><time>2026-04-24T16:44:40Z</time></trkpt><trkpt lat="44.159081478133444" lon="8.308297563596312"><ele>7.999999999999999</ele><time>2026-04-24T16:44:41Z</time></trkpt><trkpt lat="44.15908642349918" lon="8.308188171736628"><ele>8.0</ele><time>2026-04-24T16:44:42Z</time></trkpt><trkpt lat="44.15911066118608" lon="8.30809214643568"><ele>8.0</ele><time>2026-04-24T16:44:43Z</time></trkpt><trkpt lat="44.159122315342366" lon="8.307995286500097"><ele>8.0</ele><time>2026-04-24T16:44:44Z</time></trkpt><trkpt lat="44.159136337336136" lon="8.307889742747186"><ele>7.999999999999999</ele><time>2026-04-24T16:44:45Z</time></trkpt><trkpt lat="44.15914668111255" lon="8.307777872286847"><ele>8.0</ele><time>2026-04-24T16:44:46Z</time></trkpt><trkpt lat="44.15917496224274" lon="8.307677895318065"><ele>8.166666666666666</ele><time>2026-04-24T16:44:47Z</time></trkpt><trkpt lat="44.15921033334021" lon="8.307567783443808"><ele>8.333333333333332</ele><time>2026-04-24T16:44:48Z</time></trkpt><trkpt lat="44.15924717678006" lon="8.30746983725704"><ele>8.5</ele><time>2026-04-24T16:44:49Z</time></trkpt><trkpt lat="44.15929026743785" lon="8.307369044866952"><ele>8.666666666666666</ele><time>2026-04-24T16:44:50Z</time></trkpt><trkpt lat="44.15933104153492" lon="8.307283022164453"><ele>8.833333333333334</ele><time>2026-04-24T16:44:51Z</time></trkpt><trkpt lat="44.159372872474336" lon="8.307190660094152"><ele>9.0</ele><time>2026-04-24T16:44:52Z</time></trkpt><trkpt lat="44.159412904062485" lon="8.30710797822288"><ele>9.142857142857144</ele><time>2026-04-24T16:44:53Z</time></trkpt><trkpt lat="44.15946354879577" lon="8.307034704647013"><ele>9.285714285714286</ele><time>2026-04-24T16:44:54Z</time></trkpt><trkpt lat="44.159497905259705" lon="8.306951368083556"><ele>9.428571428571429</ele><time>2026-04-24T16:44:55Z</time></trkpt><trkpt lat="44.15953492722238" lon="8.306864592105129"><ele>9.571428571428573</ele><time>2026-04-24T16:44:56Z</time></trkpt><trkpt lat="44.159565155517924" lon="8.306778887932968"><ele>9.714285714285715</ele><time>2026-04-24T16:44:57Z</time></trkpt><trkpt lat="44.15959656796004" lon="8.306691344006403"><ele>9.857142857142858</ele><time>2026-04-24T16:44:58Z</time></trkpt><trkpt lat="44.15962183119136" lon="8.306608331660621"><ele>10.0</ele><time>2026-04-24T16:44:59Z</time></trkpt><trkpt lat="44.159648236856334" lon="8.306516862467792"><ele>10.0</ele><time>2026-04-24T16:45:00Z</time></trkpt><trkpt lat="44.15968657377515" lon="8.306445938259511"><ele>10.0</ele><time>2026-04-24T16:45:01Z</time></trkpt><trkpt lat="44.15970370939622" lon="8.30626492938108"><ele>10.0</ele><time>2026-04-24T16:45:03Z</time></trkpt><trkpt lat="44.159683918808405" lon="8.306116939050384"><ele>10.0</ele><time>2026-04-24T16:45:05Z</time></trkpt><trkpt lat="44.15964410797462" lon="8.306025621754433"><ele>10.0</ele><time>2026-04-24T16:45:07Z</time></trkpt><trkpt lat="44.15961776164507" lon="8.305936995263055"><ele>10.0</ele><time>2026-04-24T16:45:09Z</time></trkpt><trkpt lat="44.1595902961741" lon="8.305789049131095"><ele>9.714285714285714</ele><time>2026-04-24T16:45:11Z</time></trkpt><trkpt lat="44.15958240584421" lon="8.305700499107955"><ele>9.428571428571429</ele><time>2026-04-24T16:45:12Z</time></trkpt><trkpt lat="44.159587097707856" lon="8.305611169439489"><ele>9.142857142857142</ele><time>2026-04-24T16:45:13Z</time></trkpt><trkpt lat="44.159612431813066" lon="8.305527087103437"><ele>8.857142857142858</ele><time>2026-04-24T16:45:14Z</time></trkpt><trkpt lat="44.159639384202535" lon="8.305440803512228"><ele>8.571428571428571</ele><time>2026-04-24T16:45:15Z</time></trkpt><trkpt lat="44.159679468341906" lon="8.305350866995692"><ele>8.285714285714285</ele><time>2026-04-24T16:45:16Z</time></trkpt><trkpt lat="44.1597258597788" lon="8.305259253643051"><ele>8.0</ele><time>2026-04-24T16:45:17Z</time></trkpt><trkpt lat="44.15976769663927" lon="8.305172303543705"><ele>7.7142857142857135</ele><time>2026-04-24T16:45:18Z</time></trkpt><trkpt lat="44.15979601558067" lon="8.30509035711731"><ele>7.428571428571428</ele><time>2026-04-24T16:45:19Z</time></trkpt><trkpt lat="44.15981669701216" lon="8.304992615611006"><ele>7.142857142857142</ele><time>2026-04-24T16:45:20Z</time></trkpt><trkpt lat="44.15984939395621" lon="8.304905253597335"><ele>6.857142857142857</ele><time>2026-04-24T16:45:21Z</time></trkpt><trkpt lat="44.159823079172504" lon="8.304806648791393"><ele>6.571428571428571</ele><time>2026-04-24T16:45:22Z</time></trkpt><trkpt lat="44.15980920991381" lon="8.304716436514688"><ele>6.285714285714285</ele><time>2026-04-24T16:45:23Z</time></trkpt><trkpt lat="44.15977766790347" lon="8.304621360525388"><ele>6.0</ele><time>2026-04-24T16:45:24Z</time></trkpt><trkpt lat="44.15974592167441" lon="8.304511923420169"><ele>6.0</ele><time>2026-04-24T16:45:25Z</time></trkpt><trkpt lat="44.159707133793226" lon="8.304389783510986"><ele>6.0</ele><time>2026-04-24T16:45:26Z</time></trkpt><trkpt lat="44.15967584890255" lon="8.304254423277776"><ele>6.0</ele><time>2026-04-24T16:45:27Z</time></trkpt><trkpt lat="44.159646000413076" lon="8.304127862724107"><ele>6.0</ele><time>2026-04-24T16:45:28Z</time></trkpt><trkpt lat="44.15961762481459" lon="8.304016897916268"><ele>6.0</ele><time>2026-04-24T16:45:29Z</time></trkpt><trkpt lat="44.15959110381324" lon="8.303918248903862"><ele>6.333333333333333</ele><time>2026-04-24T16:45:30Z</time></trkpt><trkpt lat="44.159560206204716" lon="8.303818585344175"><ele>6.666666666666666</ele><time>2026-04-24T16:45:31Z</time></trkpt><trkpt lat="44.15952885257113" lon="8.303697482569781"><ele>7.0</ele><time>2026-04-24T16:45:32Z</time></trkpt><trkpt lat="44.15949862288546" lon="8.303581968023126"><ele>7.333333333333333</ele><time>2026-04-24T16:45:33Z</time></trkpt><trkpt lat="44.15948699937534" lon="8.303470940822129"><ele>7.666666666666666</ele><time>2026-04-24T16:45:34Z</time></trkpt><trkpt lat="44.15947394862098" lon="8.30336227185184"><ele>8.0</ele><time>2026-04-24T16:45:35Z</time></trkpt><trkpt lat="44.15947036848161" lon="8.30326566142172"><ele>7.999999999999999</ele><time>2026-04-24T16:45:36Z</time></trkpt><trkpt lat="44.15949254398327" lon="8.303165815231146"><ele>8.0</ele><time>2026-04-24T16:45:37Z</time></trkpt><trkpt lat="44.15952229162201" lon="8.303072284338825"><ele>8.0</ele><time>2026-04-24T16:45:38Z</time></trkpt><trkpt lat="44.15948251781457" lon="8.302922738979564"><ele>8.0</ele><time>2026-04-24T16:45:40Z</time></trkpt><trkpt lat="44.15945361152538" lon="8.302841059442448"><ele>7.999999999999999</ele><time>2026-04-24T16:45:41Z</time></trkpt><trkpt lat="44.15941601220732" lon="8.302763446104592"><ele>8.0</ele><time>2026-04-24T16:45:42Z</time></trkpt><trkpt lat="44.15937274618893" lon="8.302690822317054"><ele>7.999999999999999</ele><time>2026-04-24T16:45:43Z</time></trkpt><trkpt lat="44.15932886323053" lon="8.302604943673206"><ele>8.0</ele><time>2026-04-24T16:45:44Z</time></trkpt><trkpt lat="44.15931212607584" lon="8.302479601462606"><ele>8.0</ele><time>2026-04-24T16:45:45Z</time></trkpt><trkpt lat="44.15927677500923" lon="8.30239864315503"><ele>8.0</ele><time>2026-04-24T16:45:46Z</time></trkpt><trkpt lat="44.159223362145035" lon="8.302329260046124"><ele>7.999999999999999</ele><time>2026-04-24T16:45:47Z</time></trkpt><trkpt lat="44.15921619932034" lon="8.302194675826266"><ele>8.0</ele><time>2026-04-24T16:45:49Z</time></trkpt><trkpt lat="44.15927601885656" lon="8.302058161860057"><ele>7.999999999999999</ele><time>2026-04-24T16:45:51Z</time></trkpt><trkpt lat="44.15933622602987" lon="8.301984516687895"><ele>8.0</ele><time>2026-04-24T16:45:52Z</time></trkpt><trkpt lat="44.15938946848037" lon="8.301886695348243"><ele>8.0</ele><time>2026-04-24T16:45:53Z</time></trkpt><trkpt lat="44.159447285558336" lon="8.301778824258685"><ele>8.0</ele><time>2026-04-24T16:45:54Z</time></trkpt><trkpt lat="44.159495344237115" lon="8.301681919059684"><ele>7.999999999999999</ele><time>2026-04-24T16:45:55Z</time></trkpt><trkpt lat="44.15953211416801" lon="8.301577103441982"><ele>8.0</ele><time>2026-04-24T16:45:56Z</time></trkpt><trkpt lat="44.159583210306614" lon="8.30149113318336"><ele>7.999999999999999</ele><time>2026-04-24T16:45:57Z</time></trkpt><trkpt lat="44.159641819201845" lon="8.301409851976658"><ele>8.0</ele><time>2026-04-24T16:45:58Z</time></trkpt><trkpt lat="44.15970466100034" lon="8.301338746158782"><ele>8.0</ele><time>2026-04-24T16:45:59Z</time></trkpt><trkpt lat="44.15976639965332" lon="8.301273664890415"><ele>8.0</ele><time>2026-04-24T16:46:00Z</time></trkpt><trkpt lat="44.15983599111863" lon="8.301217834644252"><ele>7.999999999999999</ele><time>2026-04-24T16:46:01Z</time></trkpt><trkpt lat="44.159894599235265" lon="8.301176270901447"><ele>8.0</ele><time>2026-04-24T16:46:02Z</time></trkpt><trkpt lat="44.15998984582824" lon="8.301147873128993"><ele>8.200000000000001</ele><time>2026-04-24T16:46:04Z</time></trkpt><trkpt lat="44.16008619134573" lon="8.301238766840639"><ele>8.4</ele><time>2026-04-24T16:46:06Z</time></trkpt><trkpt lat="44.160129750913654" lon="8.3013153402142"><ele>8.600000000000001</ele><time>2026-04-24T16:46:07Z</time></trkpt><trkpt lat="44.160173126409504" lon="8.301418421660255"><ele>8.8</ele><time>2026-04-24T16:46:08Z</time></trkpt><trkpt lat="44.16021932750487" lon="8.301534059819279"><ele>9.0</ele><time>2026-04-24T16:46:09Z</time></trkpt><trkpt lat="44.16026702138904" lon="8.301647726454624"><ele>9.0</ele><time>2026-04-24T16:46:10Z</time></trkpt><trkpt lat="44.16030882170736" lon="8.301747208331804"><ele>9.0</ele><time>2026-04-24T16:46:11Z</time></trkpt><trkpt lat="44.16035657018996" lon="8.301837834239759"><ele>9.0</ele><time>2026-04-24T16:46:12Z</time></trkpt><trkpt lat="44.160403584695764" lon="8.301907879283801"><ele>9.0</ele><time>2026-04-24T16:46:13Z</time></trkpt><trkpt lat="44.16044349619458" lon="8.301976241580546"><ele>9.0</ele><time>2026-04-24T16:46:14Z</time></trkpt><trkpt lat="44.16056518751808" lon="8.301985588842072"><ele>9.0</ele><time>2026-04-24T16:46:16Z</time></trkpt><trkpt lat="44.160632697826465" lon="8.301969933257828"><ele>9.285714285714286</ele><time>2026-04-24T16:46:17Z</time></trkpt><trkpt lat="44.16070753161959" lon="8.30194160265198"><ele>9.571428571428571</ele><time>2026-04-24T16:46:18Z</time></trkpt><trkpt lat="44.1607806463447" lon="8.301913574279796"><ele>9.857142857142858</ele><time>2026-04-24T16:46:19Z</time></trkpt><trkpt lat="44.16085270103536" lon="8.301907821347337"><ele>10.142857142857142</ele><time>2026-04-24T16:46:20Z</time></trkpt><trkpt lat="44.160919932066214" lon="8.301925189332648"><ele>10.428571428571429</ele><time>2026-04-24T16:46:21Z</time></trkpt><trkpt lat="44.16098303428099" lon="8.301975928457825"><ele>10.714285714285715</ele><time>2026-04-24T16:46:22Z</time></trkpt><trkpt lat="44.16104513969098" lon="8.302040123226119"><ele>11.0</ele><time>2026-04-24T16:46:23Z</time></trkpt><trkpt lat="44.161114919885776" lon="8.302083107648203"><ele>11.0</ele><time>2026-04-24T16:46:24Z</time></trkpt><trkpt lat="44.16118830390257" lon="8.302106523424493"><ele>11.0</ele><time>2026-04-24T16:46:25Z</time></trkpt><trkpt lat="44.16127063220962" lon="8.302136687096091"><ele>11.0</ele><time>2026-04-24T16:46:26Z</time></trkpt><trkpt lat="44.161359916312065" lon="8.302137044630339"><ele>11.0</ele><time>2026-04-24T16:46:27Z</time></trkpt><trkpt lat="44.16146162014441" lon="8.302132254954397"><ele>11.0</ele><time>2026-04-24T16:46:28Z</time></trkpt><trkpt lat="44.16156754452956" lon="8.302121810709851"><ele>11.4</ele><time>2026-04-24T16:46:29Z</time></trkpt><trkpt lat="44.16168215595159" lon="8.302109440358002"><ele>11.8</ele><time>2026-04-24T16:46:30Z</time></trkpt><trkpt lat="44.16178572608474" lon="8.302073407063748"><ele>12.200000000000001</ele><time>2026-04-24T16:46:31Z</time></trkpt><trkpt lat="44.161891406037974" lon="8.302051104621027"><ele>12.600000000000001</ele><time>2026-04-24T16:46:32Z</time></trkpt><trkpt lat="44.16199184510437" lon="8.302023270931723"><ele>13.0</ele><time>2026-04-24T16:46:33Z</time></trkpt><trkpt lat="44.162093990316656" lon="8.302009047398439"><ele>13.0</ele><time>2026-04-24T16:46:34Z</time></trkpt><trkpt lat="44.16218447187719" lon="8.301966007678034"><ele>13.0</ele><time>2026-04-24T16:46:35Z</time></trkpt><trkpt lat="44.16228588959304" lon="8.301902783951212"><ele>13.0</ele><time>2026-04-24T16:46:36Z</time></trkpt><trkpt lat="44.16238762026084" lon="8.301832879246106"><ele>13.0</ele><time>2026-04-24T16:46:37Z</time></trkpt><trkpt lat="44.162482887146865" lon="8.301743579239139"><ele>13.0</ele><time>2026-04-24T16:46:38Z</time></trkpt><trkpt lat="44.16258841536537" lon="8.301683181157557"><ele>13.8</ele><time>2026-04-24T16:46:39Z</time></trkpt><trkpt lat="44.162684844943" lon="8.301640272738899"><ele>14.600000000000001</ele><time>2026-04-24T16:46:40Z</time></trkpt><trkpt lat="44.16278293756339" lon="8.301639368002938"><ele>15.399999999999999</ele><time>2026-04-24T16:46:41Z</time></trkpt><trkpt lat="44.16288861014514" lon="8.301627301636495"><ele>16.2</ele><time>2026-04-24T16:46:42Z</time></trkpt><trkpt lat="44.16299233122205" lon="8.30161838655079"><ele>17.0</ele><time>2026-04-24T16:46:43Z</time></trkpt><trkpt lat="44.163108542085915" lon="8.301611438370777"><ele>17.0</ele><time>2026-04-24T16:46:44Z</time></trkpt><trkpt lat="44.1632265496971" lon="8.30160281758741"><ele>17.0</ele><time>2026-04-24T16:46:45Z</time></trkpt><trkpt lat="44.16333811128453" lon="8.30159021905883"><ele>17.0</ele><time>2026-04-24T16:46:46Z</time></trkpt><trkpt lat="44.16343392523471" lon="8.301553962042766"><ele>17.0</ele><time>2026-04-24T16:46:47Z</time></trkpt><trkpt lat="44.16353918667006" lon="8.301555301166715"><ele>17.0</ele><time>2026-04-24T16:46:48Z</time></trkpt><trkpt lat="44.16364613308553" lon="8.30152275337798"><ele>17.0</ele><time>2026-04-24T16:46:49Z</time></trkpt><trkpt lat="44.1637385157743" lon="8.30147564504646"><ele>17.0</ele><time>2026-04-24T16:46:50Z</time></trkpt><trkpt lat="44.16381747786332" lon="8.301431036342569"><ele>17.0</ele><time>2026-04-24T16:46:51Z</time></trkpt><trkpt lat="44.16388337276661" lon="8.301372027489185"><ele>17.0</ele><time>2026-04-24T16:46:52Z</time></trkpt><trkpt lat="44.163992726307086" lon="8.301308621362049"><ele>17.0</ele><time>2026-04-24T16:46:54Z</time></trkpt><trkpt lat="44.16407468898806" lon="8.301281314770753"><ele>15.0</ele><time>2026-04-24T16:46:57Z</time></trkpt></trkseg></trk></gpx>